<?xml version="1.0" encoding="UTF-8"?>
<gpx
  version="1.0"
  creator="pymavlink"
  xmlns:xsi="http://www.w3.org/2001/XMLSchema-instance"
  xmlns="http://www.topografix.com/GPX/1/0"
  xsi:schemaLocation="http://www.topografix.com/GPX/1/0 http://www.topografix.com/GPX/1/0/gpx.xsd">
<trk>
<trkseg>
<trkpt lat="39.6557477" lon="-104.1382897">
  <ele>1566.58</ele>
  <time>2026-08-29T19:29:54Z</time>
  <course>66.0</course>
  <speed>0.71</speed>
  <fix>3d</fix>
</trkpt>
<trkpt lat="40.071382" lon="-105.229768">
  <ele>1583.0</ele>
  <time>2026-08-29T19:29:54Z</time>
  <course>66.0</course>
  <speed>0.72</speed>
  <fix>3d</fix>
</trkpt>
<trkpt lat="40.071382" lon="-105.229768">
  <ele>1583.0</ele>
  <time>2026-08-29T19:29:54Z</time>
  <course>236.3</course>
  <speed>0.10295630140987001</speed>
  <fix>3d</fix>
</trkpt>
<trkpt lat="40.071382" lon="-105.229768">
  <ele>1583.0</ele>
  <time>2026-08-29T19:29:54Z</time>
  <course>66.0</course>
  <speed>0.72</speed>
  <fix>3d</fix>
</trkpt>
<trkpt lat="40.071382" lon="-105.229768">
  <ele>1583.0</ele>
  <time>2026-08-29T19:29:54Z</time>
  <course>236.39</course>
  <speed>0.09433981132056603</speed>
  <fix>3d</fix>
</trkpt>
<trkpt lat="40.071382" lon="-105.229768">
  <ele>1583.0</ele>
  <time>2026-08-29T19:29:54Z</time>
  <course>66.0</course>
  <speed>0.72</speed>
  <fix>3d</fix>
</trkpt>
<trkpt lat="40.0713826" lon="-105.2297665">
  <ele>1583.0</ele>
  <time>2026-08-29T19:29:54Z</time>
  <course>236.6</course>
  <speed>0.09433981132056603</speed>
  <fix>3d</fix>
</trkpt>
<trkpt lat="40.0713826" lon="-105.2297665">
  <ele>1583.0</ele>
  <time>2026-08-29T19:29:54Z</time>
  <course>66.0</course>
  <speed>0.73</speed>
  <fix>3d</fix>
</trkpt>
<trkpt lat="40.0713826" lon="-105.2297665">
  <ele>1583.0</ele>
  <time>2026-08-29T19:29:54Z</time>
  <course>236.9</course>
  <speed>0.1</speed>
  <fix>3d</fix>
</trkpt>
<trkpt lat="40.0713826" lon="-105.2297665">
  <ele>1583.0</ele>
  <time>2026-08-29T19:29:54Z</time>
  <course>66.0</course>
  <speed>0.73</speed>
  <fix>3d</fix>
</trkpt>
<trkpt lat="40.0713832" lon="-105.2297648">
  <ele>1583.0</ele>
  <time>2026-08-29T19:29:54Z</time>
  <course>237.25</course>
  <speed>0.10816653826391968</speed>
  <fix>3d</fix>
</trkpt>
<trkpt lat="40.0713832" lon="-105.2297648">
  <ele>1583.0</ele>
  <time>2026-08-29T19:29:54Z</time>
  <course>66.0</course>
  <speed>0.74</speed>
  <fix>3d</fix>
</trkpt>
<trkpt lat="40.0713832" lon="-105.2297648">
  <ele>1583.0</ele>
  <time>2026-08-29T19:29:54Z</time>
  <course>237.62</course>
  <speed>0.10816653826391968</speed>
  <fix>3d</fix>
</trkpt>
<trkpt lat="40.0713832" lon="-105.2297648">
  <ele>1583.0</ele>
  <time>2026-08-29T19:29:54Z</time>
  <course>66.0</course>
  <speed>0.74</speed>
  <fix>3d</fix>
</trkpt>
<trkpt lat="40.0713837" lon="-105.2297633">
  <ele>1583.0</ele>
  <time>2026-08-29T19:29:54Z</time>
  <course>237.99</course>
  <speed>0.10816653826391968</speed>
  <fix>3d</fix>
</trkpt>
<trkpt lat="40.0713837" lon="-105.2297633">
  <ele>1583.0</ele>
  <time>2026-08-29T19:29:54Z</time>
  <course>66.0</course>
  <speed>0.75</speed>
  <fix>3d</fix>
</trkpt>
<trkpt lat="40.0713837" lon="-105.2297633">
  <ele>1583.0</ele>
  <time>2026-08-29T19:29:54Z</time>
  <course>238.34</course>
  <speed>0.10816653826391968</speed>
  <fix>3d</fix>
</trkpt>
<trkpt lat="40.0713837" lon="-105.2297633">
  <ele>1583.0</ele>
  <time>2026-08-29T19:29:54Z</time>
  <course>66.0</course>
  <speed>0.75</speed>
  <fix>3d</fix>
</trkpt>
<trkpt lat="40.0713842" lon="-105.2297616">
  <ele>1583.0</ele>
  <time>2026-08-29T19:29:54Z</time>
  <course>238.69</course>
  <speed>0.10816653826391968</speed>
  <fix>3d</fix>
</trkpt>
<trkpt lat="40.0713842" lon="-105.2297616">
  <ele>1583.0</ele>
  <time>2026-08-29T19:29:54Z</time>
  <course>66.0</course>
  <speed>0.76</speed>
  <fix>3d</fix>
</trkpt>
<trkpt lat="40.0713842" lon="-105.2297616">
  <ele>1583.0</ele>
  <time>2026-08-29T19:29:54Z</time>
  <course>239.02</course>
  <speed>0.1</speed>
  <fix>3d</fix>
</trkpt>
<trkpt lat="40.0713848" lon="-105.22976">
  <ele>1583.0</ele>
  <time>2026-08-29T19:29:54Z</time>
  <course>66.0</course>
  <speed>0.76</speed>
  <fix>3d</fix>
</trkpt>
<trkpt lat="40.0713848" lon="-105.22976">
  <ele>1583.0</ele>
  <time>2026-08-29T19:29:54Z</time>
  <course>239.35</course>
  <speed>0.1</speed>
  <fix>3d</fix>
</trkpt>
<trkpt lat="40.0713848" lon="-105.22976">
  <ele>1583.0</ele>
  <time>2026-08-29T19:29:54Z</time>
  <course>66.0</course>
  <speed>0.76</speed>
  <fix>3d</fix>
</trkpt>
<trkpt lat="40.0713848" lon="-105.22976">
  <ele>1583.0</ele>
  <time>2026-08-29T19:29:54Z</time>
  <course>239.67</course>
  <speed>0.1</speed>
  <fix>3d</fix>
</trkpt>
<trkpt lat="40.0713853" lon="-105.2297583">
  <ele>1583.0</ele>
  <time>2026-08-29T19:29:54Z</time>
  <course>66.0</course>
  <speed>0.77</speed>
  <fix>3d</fix>
</trkpt>
<trkpt lat="40.0713853" lon="-105.2297583">
  <ele>1583.0</ele>
  <time>2026-08-29T19:29:54Z</time>
  <course>239.99</course>
  <speed>0.08602325267042626</speed>
  <fix>3d</fix>
</trkpt>
<trkpt lat="40.0713853" lon="-105.2297583">
  <ele>1583.0</ele>
  <time>2026-08-29T19:29:54Z</time>
  <course>66.0</course>
  <speed>0.77</speed>
  <fix>3d</fix>
</trkpt>
<trkpt lat="40.0713853" lon="-105.2297583">
  <ele>1583.0</ele>
  <time>2026-08-29T19:29:54Z</time>
  <course>240.3</course>
  <speed>0.08602325267042626</speed>
  <fix>3d</fix>
</trkpt>
<trkpt lat="40.071386" lon="-105.2297567">
  <ele>1583.0</ele>
  <time>2026-08-29T19:29:54Z</time>
  <course>66.0</course>
  <speed>0.77</speed>
  <fix>3d</fix>
</trkpt>
<trkpt lat="40.071386" lon="-105.2297567">
  <ele>1583.0</ele>
  <time>2026-08-29T19:29:54Z</time>
  <course>240.6</course>
  <speed>0.07810249675906654</speed>
  <fix>3d</fix>
</trkpt>
<trkpt lat="40.071386" lon="-105.2297567">
  <ele>1583.0</ele>
  <time>2026-08-29T19:29:54Z</time>
  <course>66.0</course>
  <speed>0.77</speed>
  <fix>3d</fix>
</trkpt>
<trkpt lat="40.071386" lon="-105.2297567">
  <ele>1583.0</ele>
  <time>2026-08-29T19:29:54Z</time>
  <course>240.9</course>
  <speed>0.07211102550927978</speed>
  <fix>3d</fix>
</trkpt>
<trkpt lat="40.0713865" lon="-105.229755">
  <ele>1583.0</ele>
  <time>2026-08-29T19:29:54Z</time>
  <course>66.0</course>
  <speed>0.77</speed>
  <fix>3d</fix>
</trkpt>
<trkpt lat="40.0713865" lon="-105.229755">
  <ele>1583.0</ele>
  <time>2026-08-29T19:29:54Z</time>
  <course>241.2</course>
  <speed>0.06403124237432849</speed>
  <fix>3d</fix>
</trkpt>
<trkpt lat="40.0713865" lon="-105.229755">
  <ele>1583.0</ele>
  <time>2026-08-29T19:29:54Z</time>
  <course>66.0</course>
  <speed>0.77</speed>
  <fix>3d</fix>
</trkpt>
<trkpt lat="40.0713865" lon="-105.229755">
  <ele>1583.0</ele>
  <time>2026-08-29T19:29:54Z</time>
  <course>241.49</course>
  <speed>0.0565685424949238</speed>
  <fix>3d</fix>
</trkpt>
<trkpt lat="40.071387" lon="-105.2297533">
  <ele>1583.0</ele>
  <time>2026-08-29T19:29:54Z</time>
  <course>66.0</course>
  <speed>0.78</speed>
  <fix>3d</fix>
</trkpt>
<trkpt lat="40.071387" lon="-105.2297533">
  <ele>1583.0</ele>
  <time>2026-08-29T19:29:54Z</time>
  <course>241.77</course>
  <speed>0.05</speed>
  <fix>3d</fix>
</trkpt>
<trkpt lat="40.071387" lon="-105.2297533">
  <ele>1583.0</ele>
  <time>2026-08-29T19:29:54Z</time>
  <course>66.0</course>
  <speed>0.78</speed>
  <fix>3d</fix>
</trkpt>
<trkpt lat="40.071387" lon="-105.2297533">
  <ele>1583.0</ele>
  <time>2026-08-29T19:29:54Z</time>
  <course>242.05</course>
  <speed>0.04242640687119285</speed>
  <fix>3d</fix>
</trkpt>
<trkpt lat="40.0713877" lon="-105.2297516">
  <ele>1583.0</ele>
  <time>2026-08-29T19:29:54Z</time>
  <course>66.0</course>
  <speed>0.78</speed>
  <fix>3d</fix>
</trkpt>
<trkpt lat="40.0713877" lon="-105.2297516">
  <ele>1583.0</ele>
  <time>2026-08-29T19:29:54Z</time>
  <course>242.33</course>
  <speed>0.03605551275463989</speed>
  <fix>3d</fix>
</trkpt>
<trkpt lat="40.0713877" lon="-105.2297516">
  <ele>1583.0</ele>
  <time>2026-08-29T19:29:54Z</time>
  <course>66.0</course>
  <speed>0.78</speed>
  <fix>3d</fix>
</trkpt>
<trkpt lat="40.0713877" lon="-105.2297516">
  <ele>1583.0</ele>
  <time>2026-08-29T19:29:54Z</time>
  <course>242.59</course>
  <speed>0.0282842712474619</speed>
  <fix>3d</fix>
</trkpt>
<trkpt lat="40.0713882" lon="-105.2297499">
  <ele>1583.0</ele>
  <time>2026-08-29T19:29:54Z</time>
  <course>66.0</course>
  <speed>0.78</speed>
  <fix>3d</fix>
</trkpt>
<trkpt lat="40.0713882" lon="-105.2297499">
  <ele>1583.0</ele>
  <time>2026-08-29T19:29:54Z</time>
  <course>242.85</course>
  <speed>0.022360679774997897</speed>
  <fix>3d</fix>
</trkpt>
<trkpt lat="40.0713882" lon="-105.2297499">
  <ele>1583.0</ele>
  <time>2026-08-29T19:29:54Z</time>
  <course>66.0</course>
  <speed>0.78</speed>
  <fix>3d</fix>
</trkpt>
<trkpt lat="40.0713882" lon="-105.2297499">
  <ele>1583.0</ele>
  <time>2026-08-29T19:29:54Z</time>
  <course>243.11</course>
  <speed>0.02</speed>
  <fix>3d</fix>
</trkpt>
<trkpt lat="40.0713882" lon="-105.2297499">
  <ele>1583.0</ele>
  <time>2026-08-29T19:29:54Z</time>
  <course>66.0</course>
  <speed>0.78</speed>
  <fix>3d</fix>
</trkpt>
<trkpt lat="40.0713887" lon="-105.2297482">
  <ele>1583.0</ele>
  <time>2026-08-29T19:29:54Z</time>
  <course>243.36</course>
  <speed>0.01</speed>
  <fix>3d</fix>
</trkpt>
<trkpt lat="40.0713887" lon="-105.2297482">
  <ele>1583.0</ele>
  <time>2026-08-29T19:29:54Z</time>
  <course>66.0</course>
  <speed>0.78</speed>
  <fix>3d</fix>
</trkpt>
<trkpt lat="40.0713887" lon="-105.2297482">
  <ele>1583.0</ele>
  <time>2026-08-29T19:29:54Z</time>
  <course>243.6</course>
  <speed>0.01</speed>
  <fix>3d</fix>
</trkpt>
<trkpt lat="40.0713887" lon="-105.2297482">
  <ele>1583.0</ele>
  <time>2026-08-29T19:29:54Z</time>
  <course>66.0</course>
  <speed>0.78</speed>
  <fix>3d</fix>
</trkpt>
<trkpt lat="40.0713894" lon="-105.2297465">
  <ele>1583.0</ele>
  <time>2026-08-29T19:29:54Z</time>
  <course>243.84</course>
  <speed>0.01</speed>
  <fix>3d</fix>
</trkpt>
<trkpt lat="40.0713894" lon="-105.2297465">
  <ele>1583.0</ele>
  <time>2026-08-29T19:29:54Z</time>
  <course>66.0</course>
  <speed>0.79</speed>
  <fix>3d</fix>
</trkpt>
<trkpt lat="40.0713894" lon="-105.2297465">
  <ele>1583.0</ele>
  <time>2026-08-29T19:29:54Z</time>
  <course>244.07</course>
  <speed>0.01</speed>
  <fix>3d</fix>
</trkpt>
<trkpt lat="40.0713894" lon="-105.2297465">
  <ele>1583.0</ele>
  <time>2026-08-29T19:29:54Z</time>
  <course>66.0</course>
  <speed>0.79</speed>
  <fix>3d</fix>
</trkpt>
<trkpt lat="40.0713899" lon="-105.2297448">
  <ele>1583.0</ele>
  <time>2026-08-29T19:29:54Z</time>
  <course>244.29</course>
  <speed>0.01</speed>
  <fix>3d</fix>
</trkpt>
<trkpt lat="40.0713899" lon="-105.2297448">
  <ele>1583.0</ele>
  <time>2026-08-29T19:29:54Z</time>
  <course>66.0</course>
  <speed>0.79</speed>
  <fix>3d</fix>
</trkpt>
<trkpt lat="40.0713899" lon="-105.2297448">
  <ele>1583.0</ele>
  <time>2026-08-29T19:29:54Z</time>
  <course>244.51</course>
  <speed>0.02</speed>
  <fix>3d</fix>
</trkpt>
<trkpt lat="40.0713906" lon="-105.2297431">
  <ele>1583.0</ele>
  <time>2026-08-29T19:29:54Z</time>
  <course>66.0</course>
  <speed>0.79</speed>
  <fix>3d</fix>
</trkpt>
<trkpt lat="40.0713906" lon="-105.2297431">
  <ele>1583.0</ele>
  <time>2026-08-29T19:29:54Z</time>
  <course>244.73</course>
  <speed>0.02</speed>
  <fix>3d</fix>
</trkpt>
<trkpt lat="40.0713906" lon="-105.2297431">
  <ele>1583.0</ele>
  <time>2026-08-29T19:29:54Z</time>
  <course>66.0</course>
  <speed>0.79</speed>
  <fix>3d</fix>
</trkpt>
<trkpt lat="40.0713906" lon="-105.2297431">
  <ele>1583.0</ele>
  <time>2026-08-29T19:29:54Z</time>
  <course>244.93</course>
  <speed>0.03</speed>
  <fix>3d</fix>
</trkpt>
<trkpt lat="40.0713911" lon="-105.2297414">
  <ele>1583.0</ele>
  <time>2026-08-29T19:29:54Z</time>
  <course>66.0</course>
  <speed>0.79</speed>
  <fix>3d</fix>
</trkpt>
<trkpt lat="40.0713911" lon="-105.2297414">
  <ele>1583.0</ele>
  <time>2026-08-29T19:29:54Z</time>
  <course>245.13</course>
  <speed>0.04</speed>
  <fix>3d</fix>
</trkpt>
<trkpt lat="40.0713911" lon="-105.2297414">
  <ele>1583.0</ele>
  <time>2026-08-29T19:29:54Z</time>
  <course>66.0</course>
  <speed>0.79</speed>
  <fix>3d</fix>
</trkpt>
<trkpt lat="40.0713911" lon="-105.2297414">
  <ele>1583.0</ele>
  <time>2026-08-29T19:29:54Z</time>
  <course>245.33</course>
  <speed>0.0412310562561766</speed>
  <fix>3d</fix>
</trkpt>
<trkpt lat="40.0713916" lon="-105.2297397">
  <ele>1583.0</ele>
  <time>2026-08-29T19:29:54Z</time>
  <course>66.0</course>
  <speed>0.79</speed>
  <fix>3d</fix>
</trkpt>
<trkpt lat="40.0713916" lon="-105.2297397">
  <ele>1583.0</ele>
  <time>2026-08-29T19:29:54Z</time>
  <course>245.52</course>
  <speed>0.0412310562561766</speed>
  <fix>3d</fix>
</trkpt>
<trkpt lat="40.0713916" lon="-105.2297397">
  <ele>1583.0</ele>
  <time>2026-08-29T19:29:54Z</time>
  <course>66.0</course>
  <speed>0.79</speed>
  <fix>3d</fix>
</trkpt>
<trkpt lat="40.0713916" lon="-105.2297397">
  <ele>1583.0</ele>
  <time>2026-08-29T19:29:54Z</time>
  <course>245.7</course>
  <speed>0.05099019513592785</speed>
  <fix>3d</fix>
</trkpt>
<trkpt lat="40.0713923" lon="-105.229738">
  <ele>1583.0</ele>
  <time>2026-08-29T19:29:54Z</time>
  <course>66.0</course>
  <speed>0.79</speed>
  <fix>3d</fix>
</trkpt>
<trkpt lat="40.0713923" lon="-105.229738">
  <ele>1583.0</ele>
  <time>2026-08-29T19:29:54Z</time>
  <course>245.88</course>
  <speed>0.05099019513592785</speed>
  <fix>3d</fix>
</trkpt>
<trkpt lat="40.0713923" lon="-105.229738">
  <ele>1583.0</ele>
  <time>2026-08-29T19:29:54Z</time>
  <course>66.0</course>
  <speed>0.79</speed>
  <fix>3d</fix>
</trkpt>
<trkpt lat="40.0713923" lon="-105.229738">
  <ele>1583.0</ele>
  <time>2026-08-29T19:29:54Z</time>
  <course>246.05</course>
  <speed>0.0632455532033676</speed>
  <fix>3d</fix>
</trkpt>
<trkpt lat="40.0713928" lon="-105.2297363">
  <ele>1583.0</ele>
  <time>2026-08-29T19:29:54Z</time>
  <course>66.0</course>
  <speed>0.79</speed>
  <fix>3d</fix>
</trkpt>
<trkpt lat="40.0713928" lon="-105.2297363">
  <ele>1583.0</ele>
  <time>2026-08-29T19:29:54Z</time>
  <course>246.22</course>
  <speed>0.0632455532033676</speed>
  <fix>3d</fix>
</trkpt>
<trkpt lat="40.0713928" lon="-105.2297363">
  <ele>1583.0</ele>
  <time>2026-08-29T19:29:54Z</time>
  <course>66.0</course>
  <speed>0.79</speed>
  <fix>3d</fix>
</trkpt>
<trkpt lat="40.0713928" lon="-105.2297363">
  <ele>1583.0</ele>
  <time>2026-08-29T19:29:54Z</time>
  <course>246.38</course>
  <speed>0.07280109889280519</speed>
  <fix>3d</fix>
</trkpt>
<trkpt lat="40.0713935" lon="-105.2297346">
  <ele>1583.0</ele>
  <time>2026-08-29T19:29:54Z</time>
  <course>66.0</course>
  <speed>0.79</speed>
  <fix>3d</fix>
</trkpt>
<trkpt lat="40.0713935" lon="-105.2297346">
  <ele>1583.0</ele>
  <time>2026-08-29T19:29:54Z</time>
  <course>246.53</course>
  <speed>0.07280109889280519</speed>
  <fix>3d</fix>
</trkpt>
<trkpt lat="40.0713935" lon="-105.2297346">
  <ele>1583.0</ele>
  <time>2026-08-29T19:29:54Z</time>
  <course>66.0</course>
  <speed>0.79</speed>
  <fix>3d</fix>
</trkpt>
<trkpt lat="40.0713935" lon="-105.2297346">
  <ele>1583.0</ele>
  <time>2026-08-29T19:29:54Z</time>
  <course>246.68</course>
  <speed>0.07615773105863909</speed>
  <fix>3d</fix>
</trkpt>
<trkpt lat="40.071394" lon="-105.2297329">
  <ele>1583.0</ele>
  <time>2026-08-29T19:29:54Z</time>
  <course>66.0</course>
  <speed>0.79</speed>
  <fix>3d</fix>
</trkpt>
<trkpt lat="40.071394" lon="-105.2297329">
  <ele>1583.0</ele>
  <time>2026-08-29T19:29:54Z</time>
  <course>246.83</course>
  <speed>0.0854400374531753</speed>
  <fix>3d</fix>
</trkpt>
<trkpt lat="40.071394" lon="-105.2297329">
  <ele>1583.0</ele>
  <time>2026-08-29T19:29:54Z</time>
  <course>66.0</course>
  <speed>0.79</speed>
  <fix>3d</fix>
</trkpt>
<trkpt lat="40.071394" lon="-105.2297329">
  <ele>1583.0</ele>
  <time>2026-08-29T19:29:54Z</time>
  <course>246.97</course>
  <speed>0.0854400374531753</speed>
  <fix>3d</fix>
</trkpt>
<trkpt lat="40.071394" lon="-105.2297329">
  <ele>1583.0</ele>
  <time>2026-08-29T19:29:54Z</time>
  <course>66.0</course>
  <speed>0.79</speed>
  <fix>3d</fix>
</trkpt>
<trkpt lat="40.0713946" lon="-105.2297312">
  <ele>1583.0</ele>
  <time>2026-08-29T19:29:54Z</time>
  <course>247.1</course>
  <speed>0.09486832980505139</speed>
  <fix>3d</fix>
</trkpt>
<trkpt lat="40.0713946" lon="-105.2297312">
  <ele>1583.0</ele>
  <time>2026-08-29T19:29:54Z</time>
  <course>66.0</course>
  <speed>0.79</speed>
  <fix>3d</fix>
</trkpt>
<trkpt lat="40.0713946" lon="-105.2297312">
  <ele>1583.0</ele>
  <time>2026-08-29T19:29:54Z</time>
  <course>247.24</course>
  <speed>0.09486832980505139</speed>
  <fix>3d</fix>
</trkpt>
<trkpt lat="40.0713946" lon="-105.2297312">
  <ele>1583.0</ele>
  <time>2026-08-29T19:29:54Z</time>
  <course>66.0</course>
  <speed>0.79</speed>
  <fix>3d</fix>
</trkpt>
<trkpt lat="40.0713952" lon="-105.2297294">
  <ele>1583.0</ele>
  <time>2026-08-29T19:29:54Z</time>
  <course>247.36</course>
  <speed>0.09848857801796104</speed>
  <fix>3d</fix>
</trkpt>
<trkpt lat="40.0713952" lon="-105.2297294">
  <ele>1583.0</ele>
  <time>2026-08-29T19:29:54Z</time>
  <course>66.0</course>
  <speed>0.79</speed>
  <fix>3d</fix>
</trkpt>
<trkpt lat="40.0713952" lon="-105.2297294">
  <ele>1583.0</ele>
  <time>2026-08-29T19:29:54Z</time>
  <course>247.48</course>
  <speed>0.10770329614269007</speed>
  <fix>3d</fix>
</trkpt>
<trkpt lat="40.0713952" lon="-105.2297294">
  <ele>1583.0</ele>
  <time>2026-08-29T19:29:54Z</time>
  <course>66.0</course>
  <speed>0.79</speed>
  <fix>3d</fix>
</trkpt>
<trkpt lat="40.0713958" lon="-105.2297277">
  <ele>1583.0</ele>
  <time>2026-08-29T19:29:54Z</time>
  <course>247.6</course>
  <speed>0.10770329614269007</speed>
  <fix>3d</fix>
</trkpt>
<trkpt lat="40.0713958" lon="-105.2297277">
  <ele>1583.0</ele>
  <time>2026-08-29T19:29:54Z</time>
  <course>66.0</course>
  <speed>0.8</speed>
  <fix>3d</fix>
</trkpt>
<trkpt lat="40.0713958" lon="-105.2297277">
  <ele>1583.0</ele>
  <time>2026-08-29T19:29:54Z</time>
  <course>247.72</course>
  <speed>0.10770329614269007</speed>
  <fix>3d</fix>
</trkpt>
<trkpt lat="40.0713958" lon="-105.2297277">
  <ele>1583.0</ele>
  <time>2026-08-29T19:29:54Z</time>
  <course>66.0</course>
  <speed>0.8</speed>
  <fix>3d</fix>
</trkpt>
<trkpt lat="40.0713964" lon="-105.229726">
  <ele>1583.0</ele>
  <time>2026-08-29T19:29:54Z</time>
  <course>247.83</course>
  <speed>0.11704699910719625</speed>
  <fix>3d</fix>
</trkpt>
<trkpt lat="40.0713964" lon="-105.229726">
  <ele>1583.0</ele>
  <time>2026-08-29T19:29:54Z</time>
  <course>66.0</course>
  <speed>0.8</speed>
  <fix>3d</fix>
</trkpt>
<trkpt lat="40.0713964" lon="-105.229726">
  <ele>1583.0</ele>
  <time>2026-08-29T19:29:54Z</time>
  <course>247.93</course>
  <speed>0.12083045973594572</speed>
  <fix>3d</fix>
</trkpt>
<trkpt lat="40.071397" lon="-105.2297243">
  <ele>1583.0</ele>
  <time>2026-08-29T19:29:54Z</time>
  <course>66.0</course>
  <speed>0.8</speed>
  <fix>3d</fix>
</trkpt>
<trkpt lat="40.071397" lon="-105.2297243">
  <ele>1583.0</ele>
  <time>2026-08-29T19:29:54Z</time>
  <course>248.03</course>
  <speed>0.12083045973594572</speed>
  <fix>3d</fix>
</trkpt>
<trkpt lat="40.071397" lon="-105.2297243">
  <ele>1583.0</ele>
  <time>2026-08-29T19:29:54Z</time>
  <course>66.0</course>
  <speed>0.8</speed>
  <fix>3d</fix>
</trkpt>
<trkpt lat="40.071397" lon="-105.2297243">
  <ele>1583.0</ele>
  <time>2026-08-29T19:29:54Z</time>
  <course>248.13</course>
  <speed>0.12083045973594572</speed>
  <fix>3d</fix>
</trkpt>
<trkpt lat="40.0713976" lon="-105.2297226">
  <ele>1583.0</ele>
  <time>2026-08-29T19:29:54Z</time>
  <course>65.99</course>
  <speed>0.8</speed>
  <fix>3d</fix>
</trkpt>
<trkpt lat="40.0713976" lon="-105.2297226">
  <ele>1583.0</ele>
  <time>2026-08-29T19:29:54Z</time>
  <course>248.22</course>
  <speed>0.13</speed>
  <fix>3d</fix>
</trkpt>
<trkpt lat="40.0713976" lon="-105.2297226">
  <ele>1583.0</ele>
  <time>2026-08-29T19:29:54Z</time>
  <course>65.99</course>
  <speed>0.8</speed>
  <fix>3d</fix>
</trkpt>
<trkpt lat="40.0713976" lon="-105.2297226">
  <ele>1583.0</ele>
  <time>2026-08-29T19:29:54Z</time>
  <course>248.31</course>
  <speed>0.13</speed>
  <fix>3d</fix>
</trkpt>
<trkpt lat="40.0713982" lon="-105.2297209">
  <ele>1583.0</ele>
  <time>2026-08-29T19:29:54Z</time>
  <course>65.99</course>
  <speed>0.8</speed>
  <fix>3d</fix>
</trkpt>
<trkpt lat="40.0713982" lon="-105.2297209">
  <ele>1583.0</ele>
  <time>2026-08-29T19:29:54Z</time>
  <course>248.4</course>
  <speed>0.13</speed>
  <fix>3d</fix>
</trkpt>
<trkpt lat="40.0713982" lon="-105.2297209">
  <ele>1583.0</ele>
  <time>2026-08-29T19:29:54Z</time>
  <course>65.99</course>
  <speed>0.8</speed>
  <fix>3d</fix>
</trkpt>
<trkpt lat="40.0713982" lon="-105.2297209">
  <ele>1583.0</ele>
  <time>2026-08-29T19:29:54Z</time>
  <course>248.49</course>
  <speed>0.13</speed>
  <fix>3d</fix>
</trkpt>
<trkpt lat="40.0713987" lon="-105.2297192">
  <ele>1583.0</ele>
  <time>2026-08-29T19:29:54Z</time>
  <course>65.99</course>
  <speed>0.8</speed>
  <fix>3d</fix>
</trkpt>
<trkpt lat="40.0713987" lon="-105.2297192">
  <ele>1583.0</ele>
  <time>2026-08-29T19:29:54Z</time>
  <course>248.57</course>
  <speed>0.14317821063276354</speed>
  <fix>3d</fix>
</trkpt>
<trkpt lat="40.0713987" lon="-105.2297192">
  <ele>1583.0</ele>
  <time>2026-08-29T19:29:54Z</time>
  <course>65.99</course>
  <speed>0.8</speed>
  <fix>3d</fix>
</trkpt>
<trkpt lat="40.0713987" lon="-105.2297192">
  <ele>1583.0</ele>
  <time>2026-08-29T19:29:54Z</time>
  <course>248.64</course>
  <speed>0.14317821063276354</speed>
  <fix>3d</fix>
</trkpt>
<trkpt lat="40.0713992" lon="-105.2297174">
  <ele>1583.0</ele>
  <time>2026-08-29T19:29:54Z</time>
  <course>66.0</course>
  <speed>0.8</speed>
  <fix>3d</fix>
</trkpt>
<trkpt lat="40.0713992" lon="-105.2297174">
  <ele>1583.0</ele>
  <time>2026-08-29T19:29:54Z</time>
  <course>248.72</course>
  <speed>0.14317821063276354</speed>
  <fix>3d</fix>
</trkpt>
<trkpt lat="40.0713992" lon="-105.2297174">
  <ele>1583.0</ele>
  <time>2026-08-29T19:29:54Z</time>
  <course>66.0</course>
  <speed>0.8</speed>
  <fix>3d</fix>
</trkpt>
<trkpt lat="40.0713992" lon="-105.2297174">
  <ele>1583.0</ele>
  <time>2026-08-29T19:29:54Z</time>
  <course>248.79</course>
  <speed>0.14317821063276354</speed>
  <fix>3d</fix>
</trkpt>
<trkpt lat="40.0713999" lon="-105.2297157">
  <ele>1583.0</ele>
  <time>2026-08-29T19:29:54Z</time>
  <course>66.0</course>
  <speed>0.8</speed>
  <fix>3d</fix>
</trkpt>
<trkpt lat="40.0713999" lon="-105.2297157">
  <ele>1583.0</ele>
  <time>2026-08-29T19:29:54Z</time>
  <course>248.86</course>
  <speed>0.14317821063276354</speed>
  <fix>3d</fix>
</trkpt>
<trkpt lat="40.0713999" lon="-105.2297157">
  <ele>1583.0</ele>
  <time>2026-08-29T19:29:54Z</time>
  <course>66.0</course>
  <speed>0.8</speed>
  <fix>3d</fix>
</trkpt>
<trkpt lat="40.0713999" lon="-105.2297157">
  <ele>1583.0</ele>
  <time>2026-08-29T19:29:54Z</time>
  <course>248.92</course>
  <speed>0.15231546211727817</speed>
  <fix>3d</fix>
</trkpt>
<trkpt lat="40.0714004" lon="-105.229714">
  <ele>1583.0</ele>
  <time>2026-08-29T19:29:54Z</time>
  <course>65.99</course>
  <speed>0.8</speed>
  <fix>3d</fix>
</trkpt>
<trkpt lat="40.0714004" lon="-105.229714">
  <ele>1583.0</ele>
  <time>2026-08-29T19:29:54Z</time>
  <course>248.99</course>
  <speed>0.15231546211727817</speed>
  <fix>3d</fix>
</trkpt>
<trkpt lat="40.0714004" lon="-105.229714">
  <ele>1583.0</ele>
  <time>2026-08-29T19:29:54Z</time>
  <course>65.99</course>
  <speed>0.8</speed>
  <fix>3d</fix>
</trkpt>
<trkpt lat="40.0714004" lon="-105.229714">
  <ele>1583.0</ele>
  <time>2026-08-29T19:29:54Z</time>
  <course>249.05</course>
  <speed>0.15231546211727817</speed>
  <fix>3d</fix>
</trkpt>
<trkpt lat="40.0714004" lon="-105.229714">
  <ele>1583.0</ele>
  <time>2026-08-29T19:29:54Z</time>
  <course>65.99</course>
  <speed>0.8</speed>
  <fix>3d</fix>
</trkpt>
<trkpt lat="40.0714011" lon="-105.2297123">
  <ele>1583.0</ele>
  <time>2026-08-29T19:29:54Z</time>
  <course>249.11</course>
  <speed>0.15652475842498528</speed>
  <fix>3d</fix>
</trkpt>
<trkpt lat="40.0714011" lon="-105.2297123">
  <ele>1583.0</ele>
  <time>2026-08-29T19:29:54Z</time>
  <course>65.99</course>
  <speed>0.8</speed>
  <fix>3d</fix>
</trkpt>
<trkpt lat="40.0714011" lon="-105.2297123">
  <ele>1583.0</ele>
  <time>2026-08-29T19:29:54Z</time>
  <course>249.16</course>
  <speed>0.15652475842498528</speed>
  <fix>3d</fix>
</trkpt>
<trkpt lat="40.0714011" lon="-105.2297123">
  <ele>1583.0</ele>
  <time>2026-08-29T19:29:54Z</time>
  <course>65.99</course>
  <speed>0.8</speed>
  <fix>3d</fix>
</trkpt>
<trkpt lat="40.0714016" lon="-105.2297106">
  <ele>1583.0</ele>
  <time>2026-08-29T19:29:55Z</time>
  <course>249.21</course>
  <speed>0.15652475842498528</speed>
  <fix>3d</fix>
</trkpt>
<trkpt lat="40.0714016" lon="-105.2297106">
  <ele>1583.0</ele>
  <time>2026-08-29T19:29:55Z</time>
  <course>65.99</course>
  <speed>0.8</speed>
  <fix>3d</fix>
</trkpt>
<trkpt lat="40.0714016" lon="-105.2297106">
  <ele>1583.0</ele>
  <time>2026-08-29T19:29:55Z</time>
  <course>249.27</course>
  <speed>0.16552945357246848</speed>
  <fix>3d</fix>
</trkpt>
<trkpt lat="40.0714016" lon="-105.2297106">
  <ele>1583.0</ele>
  <time>2026-08-29T19:29:55Z</time>
  <course>65.99</course>
  <speed>0.8</speed>
  <fix>3d</fix>
</trkpt>
<trkpt lat="40.0714023" lon="-105.2297088">
  <ele>1583.0</ele>
  <time>2026-08-29T19:29:55Z</time>
  <course>249.32</course>
  <speed>0.16552945357246848</speed>
  <fix>3d</fix>
</trkpt>
<trkpt lat="40.0714023" lon="-105.2297088">
  <ele>1583.0</ele>
  <time>2026-08-29T19:29:55Z</time>
  <course>65.99</course>
  <speed>0.8</speed>
  <fix>3d</fix>
</trkpt>
<trkpt lat="40.0714023" lon="-105.2297088">
  <ele>1583.0</ele>
  <time>2026-08-29T19:29:55Z</time>
  <course>249.36</course>
  <speed>0.16552945357246848</speed>
  <fix>3d</fix>
</trkpt>
<trkpt lat="40.0714028" lon="-105.2297071">
  <ele>1583.0</ele>
  <time>2026-08-29T19:29:55Z</time>
  <course>65.99</course>
  <speed>0.8</speed>
  <fix>3d</fix>
</trkpt>
<trkpt lat="40.0714028" lon="-105.2297071">
  <ele>1583.0</ele>
  <time>2026-08-29T19:29:55Z</time>
  <course>249.41</course>
  <speed>0.16552945357246848</speed>
  <fix>3d</fix>
</trkpt>
<trkpt lat="40.0714028" lon="-105.2297071">
  <ele>1583.0</ele>
  <time>2026-08-29T19:29:55Z</time>
  <course>65.99</course>
  <speed>0.8</speed>
  <fix>3d</fix>
</trkpt>
<trkpt lat="40.0714028" lon="-105.2297071">
  <ele>1583.0</ele>
  <time>2026-08-29T19:29:55Z</time>
  <course>249.45</course>
  <speed>0.16552945357246848</speed>
  <fix>3d</fix>
</trkpt>
<trkpt lat="40.0714033" lon="-105.2297054">
  <ele>1583.0</ele>
  <time>2026-08-29T19:29:55Z</time>
  <course>65.99</course>
  <speed>0.8</speed>
  <fix>3d</fix>
</trkpt>
<trkpt lat="40.0714033" lon="-105.2297054">
  <ele>1583.0</ele>
  <time>2026-08-29T19:29:55Z</time>
  <course>249.49</course>
  <speed>0.16552945357246848</speed>
  <fix>3d</fix>
</trkpt>
<trkpt lat="40.0714033" lon="-105.2297054">
  <ele>1583.0</ele>
  <time>2026-08-29T19:29:55Z</time>
  <course>65.99</course>
  <speed>0.8</speed>
  <fix>3d</fix>
</trkpt>
<trkpt lat="40.0714033" lon="-105.2297054">
  <ele>1583.0</ele>
  <time>2026-08-29T19:29:55Z</time>
  <course>249.53</course>
  <speed>0.16552945357246848</speed>
  <fix>3d</fix>
</trkpt>
<trkpt lat="40.071404" lon="-105.2297037">
  <ele>1583.0</ele>
  <time>2026-08-29T19:29:55Z</time>
  <course>65.99</course>
  <speed>0.8</speed>
  <fix>3d</fix>
</trkpt>
<trkpt lat="40.071404" lon="-105.2297037">
  <ele>1583.0</ele>
  <time>2026-08-29T19:29:55Z</time>
  <course>249.57</course>
  <speed>0.16552945357246848</speed>
  <fix>3d</fix>
</trkpt>
<trkpt lat="40.071404" lon="-105.2297037">
  <ele>1583.0</ele>
  <time>2026-08-29T19:29:55Z</time>
  <course>65.99</course>
  <speed>0.8</speed>
  <fix>3d</fix>
</trkpt>
<trkpt lat="40.071404" lon="-105.2297037">
  <ele>1583.0</ele>
  <time>2026-08-29T19:29:55Z</time>
  <course>249.6</course>
  <speed>0.17464249196572978</speed>
  <fix>3d</fix>
</trkpt>
<trkpt lat="40.0714045" lon="-105.229702">
  <ele>1583.0</ele>
  <time>2026-08-29T19:29:55Z</time>
  <course>65.99</course>
  <speed>0.8</speed>
  <fix>3d</fix>
</trkpt>
<trkpt lat="40.0714045" lon="-105.229702">
  <ele>1583.0</ele>
  <time>2026-08-29T19:29:55Z</time>
  <course>249.64</course>
  <speed>0.17464249196572978</speed>
  <fix>3d</fix>
</trkpt>
<trkpt lat="40.0714045" lon="-105.229702">
  <ele>1583.0</ele>
  <time>2026-08-29T19:29:55Z</time>
  <course>65.99</course>
  <speed>0.8</speed>
  <fix>3d</fix>
</trkpt>
<trkpt lat="40.0714045" lon="-105.229702">
  <ele>1583.0</ele>
  <time>2026-08-29T19:29:55Z</time>
  <course>249.67</course>
  <speed>0.17464249196572978</speed>
  <fix>3d</fix>
</trkpt>
<trkpt lat="40.0714052" lon="-105.2297002">
  <ele>1583.0</ele>
  <time>2026-08-29T19:29:55Z</time>
  <course>65.99</course>
  <speed>0.8</speed>
  <fix>3d</fix>
</trkpt>
<trkpt lat="40.0714052" lon="-105.2297002">
  <ele>1583.0</ele>
  <time>2026-08-29T19:29:55Z</time>
  <course>249.7</course>
  <speed>0.17464249196572978</speed>
  <fix>3d</fix>
</trkpt>
<trkpt lat="40.0714052" lon="-105.2297002">
  <ele>1583.0</ele>
  <time>2026-08-29T19:29:55Z</time>
  <course>65.99</course>
  <speed>0.8</speed>
  <fix>3d</fix>
</trkpt>
<trkpt lat="40.0714052" lon="-105.2297002">
  <ele>1583.0</ele>
  <time>2026-08-29T19:29:55Z</time>
  <course>249.73</course>
  <speed>0.17888543819998318</speed>
  <fix>3d</fix>
</trkpt>
<trkpt lat="40.0714057" lon="-105.2296985">
  <ele>1583.0</ele>
  <time>2026-08-29T19:29:55Z</time>
  <course>65.99</course>
  <speed>0.8</speed>
  <fix>3d</fix>
</trkpt>
<trkpt lat="40.0714057" lon="-105.2296985">
  <ele>1583.0</ele>
  <time>2026-08-29T19:29:55Z</time>
  <course>249.76</course>
  <speed>0.17888543819998318</speed>
  <fix>3d</fix>
</trkpt>
<trkpt lat="40.0714057" lon="-105.2296985">
  <ele>1583.0</ele>
  <time>2026-08-29T19:29:55Z</time>
  <course>65.99</course>
  <speed>0.8</speed>
  <fix>3d</fix>
</trkpt>
<trkpt lat="40.0714057" lon="-105.2296985">
  <ele>1583.0</ele>
  <time>2026-08-29T19:29:55Z</time>
  <course>249.78</course>
  <speed>0.17888543819998318</speed>
  <fix>3d</fix>
</trkpt>
<trkpt lat="40.0714064" lon="-105.2296968">
  <ele>1583.0</ele>
  <time>2026-08-29T19:29:55Z</time>
  <course>65.99</course>
  <speed>0.8</speed>
  <fix>3d</fix>
</trkpt>
<trkpt lat="40.0714064" lon="-105.2296968">
  <ele>1583.0</ele>
  <time>2026-08-29T19:29:55Z</time>
  <course>249.81</course>
  <speed>0.17888543819998318</speed>
  <fix>3d</fix>
</trkpt>
<trkpt lat="40.0714064" lon="-105.2296968">
  <ele>1583.0</ele>
  <time>2026-08-29T19:29:55Z</time>
  <course>65.99</course>
  <speed>0.8</speed>
  <fix>3d</fix>
</trkpt>
<trkpt lat="40.0714064" lon="-105.2296968">
  <ele>1583.0</ele>
  <time>2026-08-29T19:29:55Z</time>
  <course>249.83</course>
  <speed>0.17888543819998318</speed>
  <fix>3d</fix>
</trkpt>
<trkpt lat="40.0714064" lon="-105.2296968">
  <ele>1583.0</ele>
  <time>2026-08-29T19:29:55Z</time>
  <course>65.99</course>
  <speed>0.8</speed>
  <fix>3d</fix>
</trkpt>
<trkpt lat="40.0714069" lon="-105.2296951">
  <ele>1583.0</ele>
  <time>2026-08-29T19:29:55Z</time>
  <course>249.85</course>
  <speed>0.17888543819998318</speed>
  <fix>3d</fix>
</trkpt>
<trkpt lat="40.0714069" lon="-105.2296951">
  <ele>1583.0</ele>
  <time>2026-08-29T19:29:55Z</time>
  <course>65.99</course>
  <speed>0.8</speed>
  <fix>3d</fix>
</trkpt>
<trkpt lat="40.0714069" lon="-105.2296951">
  <ele>1583.0</ele>
  <time>2026-08-29T19:29:55Z</time>
  <course>249.88</course>
  <speed>0.17888543819998318</speed>
  <fix>3d</fix>
</trkpt>
<trkpt lat="40.0714069" lon="-105.2296951">
  <ele>1583.0</ele>
  <time>2026-08-29T19:29:55Z</time>
  <course>65.99</course>
  <speed>0.8</speed>
  <fix>3d</fix>
</trkpt>
<trkpt lat="40.0714074" lon="-105.2296934">
  <ele>1583.0</ele>
  <time>2026-08-29T19:29:55Z</time>
  <course>249.9</course>
  <speed>0.18788294228055935</speed>
  <fix>3d</fix>
</trkpt>
<trkpt lat="40.0714074" lon="-105.2296934">
  <ele>1583.0</ele>
  <time>2026-08-29T19:29:55Z</time>
  <course>65.99</course>
  <speed>0.8</speed>
  <fix>3d</fix>
</trkpt>
<trkpt lat="40.0714074" lon="-105.2296934">
  <ele>1583.0</ele>
  <time>2026-08-29T19:29:55Z</time>
  <course>249.91</course>
  <speed>0.18788294228055935</speed>
  <fix>3d</fix>
</trkpt>
<trkpt lat="40.0714074" lon="-105.2296934">
  <ele>1583.0</ele>
  <time>2026-08-29T19:29:55Z</time>
  <course>65.99</course>
  <speed>0.8</speed>
  <fix>3d</fix>
</trkpt>
<trkpt lat="40.0714081" lon="-105.2296916">
  <ele>1583.0</ele>
  <time>2026-08-29T19:29:55Z</time>
  <course>249.93</course>
  <speed>0.18788294228055935</speed>
  <fix>3d</fix>
</trkpt>
<trkpt lat="40.0714081" lon="-105.2296916">
  <ele>1583.0</ele>
  <time>2026-08-29T19:29:55Z</time>
  <course>65.99</course>
  <speed>0.8</speed>
  <fix>3d</fix>
</trkpt>
<trkpt lat="40.0714081" lon="-105.2296916">
  <ele>1583.0</ele>
  <time>2026-08-29T19:29:55Z</time>
  <course>249.95</course>
  <speed>0.18788294228055935</speed>
  <fix>3d</fix>
</trkpt>
<trkpt lat="40.0714086" lon="-105.2296899">
  <ele>1583.0</ele>
  <time>2026-08-29T19:29:55Z</time>
  <course>65.99</course>
  <speed>0.8</speed>
  <fix>3d</fix>
</trkpt>
<trkpt lat="40.0714086" lon="-105.2296899">
  <ele>1583.0</ele>
  <time>2026-08-29T19:29:55Z</time>
  <course>249.97</course>
  <speed>0.18788294228055935</speed>
  <fix>3d</fix>
</trkpt>
<trkpt lat="40.0714086" lon="-105.2296899">
  <ele>1583.0</ele>
  <time>2026-08-29T19:29:55Z</time>
  <course>65.99</course>
  <speed>0.8</speed>
  <fix>3d</fix>
</trkpt>
<trkpt lat="40.0714086" lon="-105.2296899">
  <ele>1583.0</ele>
  <time>2026-08-29T19:29:55Z</time>
  <course>249.98</course>
  <speed>0.18788294228055935</speed>
  <fix>3d</fix>
</trkpt>
<trkpt lat="40.0714093" lon="-105.2296882">
  <ele>1583.0</ele>
  <time>2026-08-29T19:29:55Z</time>
  <course>65.99</course>
  <speed>0.8</speed>
  <fix>3d</fix>
</trkpt>
<trkpt lat="40.0714093" lon="-105.2296882">
  <ele>1583.0</ele>
  <time>2026-08-29T19:29:55Z</time>
  <course>250.0</course>
  <speed>0.18788294228055935</speed>
  <fix>3d</fix>
</trkpt>
<trkpt lat="40.0714093" lon="-105.2296882">
  <ele>1583.0</ele>
  <time>2026-08-29T19:29:55Z</time>
  <course>65.99</course>
  <speed>0.8</speed>
  <fix>3d</fix>
</trkpt>
<trkpt lat="40.0714093" lon="-105.2296882">
  <ele>1583.0</ele>
  <time>2026-08-29T19:29:55Z</time>
  <course>250.01</course>
  <speed>0.18788294228055935</speed>
  <fix>3d</fix>
</trkpt>
<trkpt lat="40.0714098" lon="-105.2296865">
  <ele>1583.0</ele>
  <time>2026-08-29T19:29:55Z</time>
  <course>65.99</course>
  <speed>0.8</speed>
  <fix>3d</fix>
</trkpt>
<trkpt lat="40.0714098" lon="-105.2296865">
  <ele>1583.0</ele>
  <time>2026-08-29T19:29:55Z</time>
  <course>250.02</course>
  <speed>0.18788294228055935</speed>
  <fix>3d</fix>
</trkpt>
<trkpt lat="40.0714098" lon="-105.2296865">
  <ele>1583.0</ele>
  <time>2026-08-29T19:29:55Z</time>
  <course>65.99</course>
  <speed>0.8</speed>
  <fix>3d</fix>
</trkpt>
<trkpt lat="40.0714098" lon="-105.2296865">
  <ele>1583.0</ele>
  <time>2026-08-29T19:29:55Z</time>
  <course>250.03</course>
  <speed>0.18788294228055935</speed>
  <fix>3d</fix>
</trkpt>
<trkpt lat="40.0714105" lon="-105.2296848">
  <ele>1583.0</ele>
  <time>2026-08-29T19:29:55Z</time>
  <course>65.99</course>
  <speed>0.8</speed>
  <fix>3d</fix>
</trkpt>
<trkpt lat="40.0714105" lon="-105.2296848">
  <ele>1583.0</ele>
  <time>2026-08-29T19:29:55Z</time>
  <course>250.04</course>
  <speed>0.18788294228055935</speed>
  <fix>3d</fix>
</trkpt>
<trkpt lat="40.0714105" lon="-105.2296848">
  <ele>1583.0</ele>
  <time>2026-08-29T19:29:55Z</time>
  <course>65.99</course>
  <speed>0.8</speed>
  <fix>3d</fix>
</trkpt>
<trkpt lat="40.0714105" lon="-105.2296848">
  <ele>1583.0</ele>
  <time>2026-08-29T19:29:55Z</time>
  <course>250.05</course>
  <speed>0.18788294228055935</speed>
  <fix>3d</fix>
</trkpt>
<trkpt lat="40.071411" lon="-105.229683">
  <ele>1583.0</ele>
  <time>2026-08-29T19:29:55Z</time>
  <course>65.99</course>
  <speed>0.8</speed>
  <fix>3d</fix>
</trkpt>
<trkpt lat="40.071411" lon="-105.229683">
  <ele>1583.0</ele>
  <time>2026-08-29T19:29:55Z</time>
  <course>250.06</course>
  <speed>0.18788294228055935</speed>
  <fix>3d</fix>
</trkpt>
<trkpt lat="40.071411" lon="-105.229683">
  <ele>1583.0</ele>
  <time>2026-08-29T19:29:55Z</time>
  <course>65.99</course>
  <speed>0.8</speed>
  <fix>3d</fix>
</trkpt>
<trkpt lat="40.071411" lon="-105.229683">
  <ele>1583.0</ele>
  <time>2026-08-29T19:29:55Z</time>
  <course>250.07</course>
  <speed>0.18788294228055935</speed>
  <fix>3d</fix>
</trkpt>
<trkpt lat="40.0714116" lon="-105.2296813">
  <ele>1583.0</ele>
  <time>2026-08-29T19:29:55Z</time>
  <course>65.99</course>
  <speed>0.8</speed>
  <fix>3d</fix>
</trkpt>
<trkpt lat="40.0714116" lon="-105.2296813">
  <ele>1583.0</ele>
  <time>2026-08-29T19:29:55Z</time>
  <course>250.08</course>
  <speed>0.18788294228055935</speed>
  <fix>3d</fix>
</trkpt>
<trkpt lat="40.0714116" lon="-105.2296813">
  <ele>1583.0</ele>
  <time>2026-08-29T19:29:55Z</time>
  <course>65.99</course>
  <speed>0.8</speed>
  <fix>3d</fix>
</trkpt>
<trkpt lat="40.0714116" lon="-105.2296813">
  <ele>1583.0</ele>
  <time>2026-08-29T19:29:55Z</time>
  <course>250.08</course>
  <speed>0.18788294228055935</speed>
  <fix>3d</fix>
</trkpt>
<trkpt lat="40.0714122" lon="-105.2296796">
  <ele>1583.0</ele>
  <time>2026-08-29T19:29:55Z</time>
  <course>65.99</course>
  <speed>0.8</speed>
  <fix>3d</fix>
</trkpt>
<trkpt lat="40.0714122" lon="-105.2296796">
  <ele>1583.0</ele>
  <time>2026-08-29T19:29:55Z</time>
  <course>250.09</course>
  <speed>0.18788294228055935</speed>
  <fix>3d</fix>
</trkpt>
<trkpt lat="40.0714122" lon="-105.2296796">
  <ele>1583.0</ele>
  <time>2026-08-29T19:29:55Z</time>
  <course>65.99</course>
  <speed>0.8</speed>
  <fix>3d</fix>
</trkpt>
<trkpt lat="40.0714122" lon="-105.2296796">
  <ele>1583.0</ele>
  <time>2026-08-29T19:29:55Z</time>
  <course>250.1</course>
  <speed>0.18788294228055935</speed>
  <fix>3d</fix>
</trkpt>
<trkpt lat="40.0714122" lon="-105.2296796">
  <ele>1583.0</ele>
  <time>2026-08-29T19:29:55Z</time>
  <course>65.99</course>
  <speed>0.8</speed>
  <fix>3d</fix>
</trkpt>
<trkpt lat="40.0714128" lon="-105.2296779">
  <ele>1583.0</ele>
  <time>2026-08-29T19:29:55Z</time>
  <course>250.1</course>
  <speed>0.18788294228055935</speed>
  <fix>3d</fix>
</trkpt>
<trkpt lat="40.0714128" lon="-105.2296779">
  <ele>1583.0</ele>
  <time>2026-08-29T19:29:55Z</time>
  <course>65.99</course>
  <speed>0.8</speed>
  <fix>3d</fix>
</trkpt>
<trkpt lat="40.0714128" lon="-105.2296779">
  <ele>1583.0</ele>
  <time>2026-08-29T19:29:55Z</time>
  <course>250.11</course>
  <speed>0.18788294228055935</speed>
  <fix>3d</fix>
</trkpt>
<trkpt lat="40.0714128" lon="-105.2296779">
  <ele>1583.0</ele>
  <time>2026-08-29T19:29:55Z</time>
  <course>65.99</course>
  <speed>0.8</speed>
  <fix>3d</fix>
</trkpt>
<trkpt lat="40.0714134" lon="-105.2296762">
  <ele>1583.0</ele>
  <time>2026-08-29T19:29:55Z</time>
  <course>250.11</course>
  <speed>0.18788294228055935</speed>
  <fix>3d</fix>
</trkpt>
<trkpt lat="40.0714134" lon="-105.2296762">
  <ele>1583.0</ele>
  <time>2026-08-29T19:29:55Z</time>
  <course>65.99</course>
  <speed>0.8</speed>
  <fix>3d</fix>
</trkpt>
<trkpt lat="40.0714134" lon="-105.2296762">
  <ele>1583.0</ele>
  <time>2026-08-29T19:29:55Z</time>
  <course>250.11</course>
  <speed>0.18788294228055935</speed>
  <fix>3d</fix>
</trkpt>
<trkpt lat="40.0714134" lon="-105.2296762">
  <ele>1583.0</ele>
  <time>2026-08-29T19:29:55Z</time>
  <course>65.99</course>
  <speed>0.8</speed>
  <fix>3d</fix>
</trkpt>
<trkpt lat="40.071414" lon="-105.2296744">
  <ele>1583.0</ele>
  <time>2026-08-29T19:29:55Z</time>
  <course>250.12</course>
  <speed>0.18788294228055935</speed>
  <fix>3d</fix>
</trkpt>
<trkpt lat="40.071414" lon="-105.2296744">
  <ele>1583.0</ele>
  <time>2026-08-29T19:29:55Z</time>
  <course>65.99</course>
  <speed>0.8</speed>
  <fix>3d</fix>
</trkpt>
<trkpt lat="40.071414" lon="-105.2296744">
  <ele>1583.0</ele>
  <time>2026-08-29T19:29:55Z</time>
  <course>250.12</course>
  <speed>0.18788294228055935</speed>
  <fix>3d</fix>
</trkpt>
<trkpt lat="40.071414" lon="-105.2296744">
  <ele>1583.0</ele>
  <time>2026-08-29T19:29:55Z</time>
  <course>65.99</course>
  <speed>0.8</speed>
  <fix>3d</fix>
</trkpt>
<trkpt lat="40.0714146" lon="-105.2296727">
  <ele>1583.0</ele>
  <time>2026-08-29T19:29:55Z</time>
  <course>250.12</course>
  <speed>0.18788294228055935</speed>
  <fix>3d</fix>
</trkpt>
<trkpt lat="40.0714146" lon="-105.2296727">
  <ele>1583.0</ele>
  <time>2026-08-29T19:29:55Z</time>
  <course>65.99</course>
  <speed>0.8</speed>
  <fix>3d</fix>
</trkpt>
<trkpt lat="40.0714146" lon="-105.2296727">
  <ele>1583.0</ele>
  <time>2026-08-29T19:29:55Z</time>
  <course>250.12</course>
  <speed>0.18788294228055935</speed>
  <fix>3d</fix>
</trkpt>
<trkpt lat="40.0714151" lon="-105.229671">
  <ele>1583.0</ele>
  <time>2026-08-29T19:29:55Z</time>
  <course>65.99</course>
  <speed>0.8</speed>
  <fix>3d</fix>
</trkpt>
<trkpt lat="40.0714151" lon="-105.229671">
  <ele>1583.0</ele>
  <time>2026-08-29T19:29:55Z</time>
  <course>250.12</course>
  <speed>0.18788294228055935</speed>
  <fix>3d</fix>
</trkpt>
<trkpt lat="40.0714151" lon="-105.229671">
  <ele>1583.0</ele>
  <time>2026-08-29T19:29:55Z</time>
  <course>65.99</course>
  <speed>0.8</speed>
  <fix>3d</fix>
</trkpt>
<trkpt lat="40.0714151" lon="-105.229671">
  <ele>1583.0</ele>
  <time>2026-08-29T19:29:55Z</time>
  <course>250.12</course>
  <speed>0.18788294228055935</speed>
  <fix>3d</fix>
</trkpt>
<trkpt lat="40.0714157" lon="-105.2296693">
  <ele>1583.0</ele>
  <time>2026-08-29T19:29:55Z</time>
  <course>65.99</course>
  <speed>0.8</speed>
  <fix>3d</fix>
</trkpt>
<trkpt lat="40.0714157" lon="-105.2296693">
  <ele>1583.0</ele>
  <time>2026-08-29T19:29:55Z</time>
  <course>250.12</course>
  <speed>0.18788294228055935</speed>
  <fix>3d</fix>
</trkpt>
<trkpt lat="40.0714157" lon="-105.2296693">
  <ele>1583.0</ele>
  <time>2026-08-29T19:29:55Z</time>
  <course>65.99</course>
  <speed>0.8</speed>
  <fix>3d</fix>
</trkpt>
<trkpt lat="40.0714157" lon="-105.2296693">
  <ele>1583.0</ele>
  <time>2026-08-29T19:29:55Z</time>
  <course>250.12</course>
  <speed>0.18788294228055935</speed>
  <fix>3d</fix>
</trkpt>
<trkpt lat="40.0714162" lon="-105.2296676">
  <ele>1583.0</ele>
  <time>2026-08-29T19:29:55Z</time>
  <course>65.99</course>
  <speed>0.8</speed>
  <fix>3d</fix>
</trkpt>
<trkpt lat="40.0714162" lon="-105.2296676">
  <ele>1583.0</ele>
  <time>2026-08-29T19:29:55Z</time>
  <course>250.12</course>
  <speed>0.18788294228055935</speed>
  <fix>3d</fix>
</trkpt>
<trkpt lat="40.0714162" lon="-105.2296676">
  <ele>1583.0</ele>
  <time>2026-08-29T19:29:55Z</time>
  <course>65.99</course>
  <speed>0.8</speed>
  <fix>3d</fix>
</trkpt>
<trkpt lat="40.0714162" lon="-105.2296676">
  <ele>1583.0</ele>
  <time>2026-08-29T19:29:55Z</time>
  <course>250.12</course>
  <speed>0.18788294228055935</speed>
  <fix>3d</fix>
</trkpt>
<trkpt lat="40.0714169" lon="-105.2296658">
  <ele>1583.0</ele>
  <time>2026-08-29T19:29:55Z</time>
  <course>65.99</course>
  <speed>0.8</speed>
  <fix>3d</fix>
</trkpt>
<trkpt lat="40.0714169" lon="-105.2296658">
  <ele>1583.0</ele>
  <time>2026-08-29T19:29:55Z</time>
  <course>250.12</course>
  <speed>0.18788294228055935</speed>
  <fix>3d</fix>
</trkpt>
<trkpt lat="40.0714169" lon="-105.2296658">
  <ele>1583.0</ele>
  <time>2026-08-29T19:29:55Z</time>
  <course>65.99</course>
  <speed>0.8</speed>
  <fix>3d</fix>
</trkpt>
<trkpt lat="40.0714169" lon="-105.2296658">
  <ele>1583.0</ele>
  <time>2026-08-29T19:29:55Z</time>
  <course>250.12</course>
  <speed>0.18788294228055935</speed>
  <fix>3d</fix>
</trkpt>
<trkpt lat="40.0714174" lon="-105.2296641">
  <ele>1583.0</ele>
  <time>2026-08-29T19:29:55Z</time>
  <course>65.99</course>
  <speed>0.8</speed>
  <fix>3d</fix>
</trkpt>
<trkpt lat="40.0714174" lon="-105.2296641">
  <ele>1583.0</ele>
  <time>2026-08-29T19:29:55Z</time>
  <course>250.11</course>
  <speed>0.18788294228055935</speed>
  <fix>3d</fix>
</trkpt>
<trkpt lat="40.0714174" lon="-105.2296641">
  <ele>1583.0</ele>
  <time>2026-08-29T19:29:55Z</time>
  <course>65.99</course>
  <speed>0.8</speed>
  <fix>3d</fix>
</trkpt>
<trkpt lat="40.0714174" lon="-105.2296641">
  <ele>1583.0</ele>
  <time>2026-08-29T19:29:55Z</time>
  <course>250.11</course>
  <speed>0.18788294228055935</speed>
  <fix>3d</fix>
</trkpt>
<trkpt lat="40.0714181" lon="-105.2296624">
  <ele>1583.0</ele>
  <time>2026-08-29T19:29:55Z</time>
  <course>65.99</course>
  <speed>0.8</speed>
  <fix>3d</fix>
</trkpt>
<trkpt lat="40.0714181" lon="-105.2296624">
  <ele>1583.0</ele>
  <time>2026-08-29T19:29:55Z</time>
  <course>250.11</course>
  <speed>0.18788294228055935</speed>
  <fix>3d</fix>
</trkpt>
<trkpt lat="40.0714181" lon="-105.2296624">
  <ele>1583.0</ele>
  <time>2026-08-29T19:29:55Z</time>
  <course>65.99</course>
  <speed>0.8</speed>
  <fix>3d</fix>
</trkpt>
<trkpt lat="40.0714181" lon="-105.2296624">
  <ele>1583.0</ele>
  <time>2026-08-29T19:29:55Z</time>
  <course>250.1</course>
  <speed>0.18788294228055935</speed>
  <fix>3d</fix>
</trkpt>
<trkpt lat="40.0714186" lon="-105.2296607">
  <ele>1583.0</ele>
  <time>2026-08-29T19:29:55Z</time>
  <course>65.99</course>
  <speed>0.8</speed>
  <fix>3d</fix>
</trkpt>
<trkpt lat="40.0714186" lon="-105.2296607">
  <ele>1583.0</ele>
  <time>2026-08-29T19:29:55Z</time>
  <course>250.1</course>
  <speed>0.18788294228055935</speed>
  <fix>3d</fix>
</trkpt>
<trkpt lat="40.0714186" lon="-105.2296607">
  <ele>1583.0</ele>
  <time>2026-08-29T19:29:55Z</time>
  <course>65.99</course>
  <speed>0.8</speed>
  <fix>3d</fix>
</trkpt>
<trkpt lat="40.0714186" lon="-105.2296607">
  <ele>1583.0</ele>
  <time>2026-08-29T19:29:55Z</time>
  <course>250.1</course>
  <speed>0.18788294228055935</speed>
  <fix>3d</fix>
</trkpt>
<trkpt lat="40.0714186" lon="-105.2296607">
  <ele>1583.0</ele>
  <time>2026-08-29T19:29:55Z</time>
  <course>65.99</course>
  <speed>0.8</speed>
  <fix>3d</fix>
</trkpt>
<trkpt lat="40.0714193" lon="-105.229659">
  <ele>1583.0</ele>
  <time>2026-08-29T19:29:55Z</time>
  <course>250.09</course>
  <speed>0.18788294228055935</speed>
  <fix>3d</fix>
</trkpt>
<trkpt lat="40.0714193" lon="-105.229659">
  <ele>1583.0</ele>
  <time>2026-08-29T19:29:55Z</time>
  <course>65.99</course>
  <speed>0.8</speed>
  <fix>3d</fix>
</trkpt>
<trkpt lat="40.0714193" lon="-105.229659">
  <ele>1583.0</ele>
  <time>2026-08-29T19:29:55Z</time>
  <course>250.09</course>
  <speed>0.18788294228055935</speed>
  <fix>3d</fix>
</trkpt>
<trkpt lat="40.0714193" lon="-105.229659">
  <ele>1583.0</ele>
  <time>2026-08-29T19:29:55Z</time>
  <course>65.99</course>
  <speed>0.8</speed>
  <fix>3d</fix>
</trkpt>
<trkpt lat="40.0714198" lon="-105.2296572">
  <ele>1583.0</ele>
  <time>2026-08-29T19:29:55Z</time>
  <course>250.08</course>
  <speed>0.18788294228055935</speed>
  <fix>3d</fix>
</trkpt>
<trkpt lat="40.0714198" lon="-105.2296572">
  <ele>1583.0</ele>
  <time>2026-08-29T19:29:55Z</time>
  <course>65.99</course>
  <speed>0.8</speed>
  <fix>3d</fix>
</trkpt>
<trkpt lat="40.0714198" lon="-105.2296572">
  <ele>1583.0</ele>
  <time>2026-08-29T19:29:55Z</time>
  <course>250.08</course>
  <speed>0.18788294228055935</speed>
  <fix>3d</fix>
</trkpt>
<trkpt lat="40.0714198" lon="-105.2296572">
  <ele>1583.0</ele>
  <time>2026-08-29T19:29:55Z</time>
  <course>65.99</course>
  <speed>0.8</speed>
  <fix>3d</fix>
</trkpt>
<trkpt lat="40.0714203" lon="-105.2296555">
  <ele>1583.0</ele>
  <time>2026-08-29T19:29:55Z</time>
  <course>250.07</course>
  <speed>0.18788294228055935</speed>
  <fix>3d</fix>
</trkpt>
<trkpt lat="40.0714203" lon="-105.2296555">
  <ele>1583.0</ele>
  <time>2026-08-29T19:29:55Z</time>
  <course>65.99</course>
  <speed>0.8</speed>
  <fix>3d</fix>
</trkpt>
<trkpt lat="40.0714203" lon="-105.2296555">
  <ele>1583.0</ele>
  <time>2026-08-29T19:29:55Z</time>
  <course>250.07</course>
  <speed>0.18788294228055935</speed>
  <fix>3d</fix>
</trkpt>
<trkpt lat="40.071421" lon="-105.2296538">
  <ele>1583.0</ele>
  <time>2026-08-29T19:29:55Z</time>
  <course>65.99</course>
  <speed>0.8</speed>
  <fix>3d</fix>
</trkpt>
<trkpt lat="40.071421" lon="-105.2296538">
  <ele>1583.0</ele>
  <time>2026-08-29T19:29:55Z</time>
  <course>250.06</course>
  <speed>0.18788294228055935</speed>
  <fix>3d</fix>
</trkpt>
<trkpt lat="40.071421" lon="-105.2296538">
  <ele>1583.0</ele>
  <time>2026-08-29T19:29:55Z</time>
  <course>65.99</course>
  <speed>0.8</speed>
  <fix>3d</fix>
</trkpt>
<trkpt lat="40.071421" lon="-105.2296538">
  <ele>1583.0</ele>
  <time>2026-08-29T19:29:55Z</time>
  <course>250.06</course>
  <speed>0.17888543819998318</speed>
  <fix>3d</fix>
</trkpt>
<trkpt lat="40.0714215" lon="-105.2296521">
  <ele>1583.0</ele>
  <time>2026-08-29T19:29:55Z</time>
  <course>65.99</course>
  <speed>0.8</speed>
  <fix>3d</fix>
</trkpt>
<trkpt lat="40.0714215" lon="-105.2296521">
  <ele>1583.0</ele>
  <time>2026-08-29T19:29:55Z</time>
  <course>250.05</course>
  <speed>0.17888543819998318</speed>
  <fix>3d</fix>
</trkpt>
<trkpt lat="40.0714215" lon="-105.2296521">
  <ele>1583.0</ele>
  <time>2026-08-29T19:29:55Z</time>
  <course>65.99</course>
  <speed>0.8</speed>
  <fix>3d</fix>
</trkpt>
<trkpt lat="40.0714215" lon="-105.2296521">
  <ele>1583.0</ele>
  <time>2026-08-29T19:29:55Z</time>
  <course>250.04</course>
  <speed>0.17888543819998318</speed>
  <fix>3d</fix>
</trkpt>
<trkpt lat="40.0714222" lon="-105.2296504">
  <ele>1583.0</ele>
  <time>2026-08-29T19:29:55Z</time>
  <course>65.99</course>
  <speed>0.8</speed>
  <fix>3d</fix>
</trkpt>
<trkpt lat="40.0714222" lon="-105.2296504">
  <ele>1583.0</ele>
  <time>2026-08-29T19:29:55Z</time>
  <course>250.04</course>
  <speed>0.17888543819998318</speed>
  <fix>3d</fix>
</trkpt>
<trkpt lat="40.0714222" lon="-105.2296504">
  <ele>1583.0</ele>
  <time>2026-08-29T19:29:55Z</time>
  <course>65.99</course>
  <speed>0.8</speed>
  <fix>3d</fix>
</trkpt>
<trkpt lat="40.0714222" lon="-105.2296504">
  <ele>1583.0</ele>
  <time>2026-08-29T19:29:55Z</time>
  <course>250.03</course>
  <speed>0.17888543819998318</speed>
  <fix>3d</fix>
</trkpt>
<trkpt lat="40.0714227" lon="-105.2296486">
  <ele>1583.0</ele>
  <time>2026-08-29T19:29:55Z</time>
  <course>65.99</course>
  <speed>0.8</speed>
  <fix>3d</fix>
</trkpt>
<trkpt lat="40.0714227" lon="-105.2296486">
  <ele>1583.0</ele>
  <time>2026-08-29T19:29:55Z</time>
  <course>250.02</course>
  <speed>0.17888543819998318</speed>
  <fix>3d</fix>
</trkpt>
<trkpt lat="40.0714227" lon="-105.2296486">
  <ele>1583.0</ele>
  <time>2026-08-29T19:29:55Z</time>
  <course>65.99</course>
  <speed>0.8</speed>
  <fix>3d</fix>
</trkpt>
<trkpt lat="40.0714227" lon="-105.2296486">
  <ele>1583.0</ele>
  <time>2026-08-29T19:29:55Z</time>
  <course>250.01</course>
  <speed>0.17888543819998318</speed>
  <fix>3d</fix>
</trkpt>
<trkpt lat="40.0714234" lon="-105.2296469">
  <ele>1583.0</ele>
  <time>2026-08-29T19:29:55Z</time>
  <course>65.99</course>
  <speed>0.8</speed>
  <fix>3d</fix>
</trkpt>
<trkpt lat="40.0714234" lon="-105.2296469">
  <ele>1583.0</ele>
  <time>2026-08-29T19:29:55Z</time>
  <course>250.01</course>
  <speed>0.17888543819998318</speed>
  <fix>3d</fix>
</trkpt>
<trkpt lat="40.0714234" lon="-105.2296469">
  <ele>1583.0</ele>
  <time>2026-08-29T19:29:55Z</time>
  <course>65.99</course>
  <speed>0.8</speed>
  <fix>3d</fix>
</trkpt>
<trkpt lat="40.0714234" lon="-105.2296469">
  <ele>1583.0</ele>
  <time>2026-08-29T19:29:55Z</time>
  <course>250.0</course>
  <speed>0.17888543819998318</speed>
  <fix>3d</fix>
</trkpt>
<trkpt lat="40.0714239" lon="-105.2296452">
  <ele>1583.0</ele>
  <time>2026-08-29T19:29:55Z</time>
  <course>65.99</course>
  <speed>0.8</speed>
  <fix>3d</fix>
</trkpt>
<trkpt lat="40.0714239" lon="-105.2296452">
  <ele>1583.0</ele>
  <time>2026-08-29T19:29:55Z</time>
  <course>249.99</course>
  <speed>0.17888543819998318</speed>
  <fix>3d</fix>
</trkpt>
<trkpt lat="40.0714239" lon="-105.2296452">
  <ele>1583.0</ele>
  <time>2026-08-29T19:29:55Z</time>
  <course>65.99</course>
  <speed>0.8</speed>
  <fix>3d</fix>
</trkpt>
<trkpt lat="40.0714239" lon="-105.2296452">
  <ele>1583.0</ele>
  <time>2026-08-29T19:29:55Z</time>
  <course>249.98</course>
  <speed>0.17888543819998318</speed>
  <fix>3d</fix>
</trkpt>
<trkpt lat="40.0714244" lon="-105.2296435">
  <ele>1583.0</ele>
  <time>2026-08-29T19:29:55Z</time>
  <course>65.99</course>
  <speed>0.8</speed>
  <fix>3d</fix>
</trkpt>
<trkpt lat="40.0714244" lon="-105.2296435">
  <ele>1583.0</ele>
  <time>2026-08-29T19:29:55Z</time>
  <course>249.97</course>
  <speed>0.17888543819998318</speed>
  <fix>3d</fix>
</trkpt>
<trkpt lat="40.0714244" lon="-105.2296435">
  <ele>1583.0</ele>
  <time>2026-08-29T19:29:55Z</time>
  <course>65.99</course>
  <speed>0.8</speed>
  <fix>3d</fix>
</trkpt>
<trkpt lat="40.0714244" lon="-105.2296435">
  <ele>1583.0</ele>
  <time>2026-08-29T19:29:55Z</time>
  <course>249.97</course>
  <speed>0.17888543819998318</speed>
  <fix>3d</fix>
</trkpt>
<trkpt lat="40.0714244" lon="-105.2296435">
  <ele>1583.0</ele>
  <time>2026-08-29T19:29:55Z</time>
  <course>65.99</course>
  <speed>0.8</speed>
  <fix>3d</fix>
</trkpt>
<trkpt lat="40.0714251" lon="-105.2296418">
  <ele>1583.0</ele>
  <time>2026-08-29T19:29:55Z</time>
  <course>249.96</course>
  <speed>0.17464249196572978</speed>
  <fix>3d</fix>
</trkpt>
<trkpt lat="40.0714251" lon="-105.2296418">
  <ele>1583.0</ele>
  <time>2026-08-29T19:29:55Z</time>
  <course>65.99</course>
  <speed>0.8</speed>
  <fix>3d</fix>
</trkpt>
<trkpt lat="40.0714251" lon="-105.2296418">
  <ele>1583.0</ele>
  <time>2026-08-29T19:29:55Z</time>
  <course>249.95</course>
  <speed>0.16552945357246848</speed>
  <fix>3d</fix>
</trkpt>
<trkpt lat="40.0714251" lon="-105.2296418">
  <ele>1583.0</ele>
  <time>2026-08-29T19:29:55Z</time>
  <course>65.99</course>
  <speed>0.8</speed>
  <fix>3d</fix>
</trkpt>
<trkpt lat="40.0714256" lon="-105.22964">
  <ele>1583.0</ele>
  <time>2026-08-29T19:29:55Z</time>
  <course>249.94</course>
  <speed>0.16552945357246848</speed>
  <fix>3d</fix>
</trkpt>
<trkpt lat="40.0714256" lon="-105.22964">
  <ele>1583.0</ele>
  <time>2026-08-29T19:29:55Z</time>
  <course>65.99</course>
  <speed>0.8</speed>
  <fix>3d</fix>
</trkpt>
<trkpt lat="40.0714256" lon="-105.22964">
  <ele>1583.0</ele>
  <time>2026-08-29T19:29:55Z</time>
  <course>249.93</course>
  <speed>0.16552945357246848</speed>
  <fix>3d</fix>
</trkpt>
<trkpt lat="40.0714256" lon="-105.22964">
  <ele>1583.0</ele>
  <time>2026-08-29T19:29:55Z</time>
  <course>65.99</course>
  <speed>0.8</speed>
  <fix>3d</fix>
</trkpt>
<trkpt lat="40.0714263" lon="-105.2296383">
  <ele>1583.0</ele>
  <time>2026-08-29T19:29:55Z</time>
  <course>249.92</course>
  <speed>0.16552945357246848</speed>
  <fix>3d</fix>
</trkpt>
<trkpt lat="40.0714263" lon="-105.2296383">
  <ele>1583.0</ele>
  <time>2026-08-29T19:29:55Z</time>
  <course>65.99</course>
  <speed>0.8</speed>
  <fix>3d</fix>
</trkpt>
<trkpt lat="40.0714263" lon="-105.2296383">
  <ele>1583.0</ele>
  <time>2026-08-29T19:29:55Z</time>
  <course>249.91</course>
  <speed>0.16552945357246848</speed>
  <fix>3d</fix>
</trkpt>
<trkpt lat="40.0714263" lon="-105.2296383">
  <ele>1583.0</ele>
  <time>2026-08-29T19:29:55Z</time>
  <course>65.99</course>
  <speed>0.8</speed>
  <fix>3d</fix>
</trkpt>
<trkpt lat="40.0714268" lon="-105.2296366">
  <ele>1583.0</ele>
  <time>2026-08-29T19:29:55Z</time>
  <course>249.91</course>
  <speed>0.16552945357246848</speed>
  <fix>3d</fix>
</trkpt>
<trkpt lat="40.0714268" lon="-105.2296366">
  <ele>1583.0</ele>
  <time>2026-08-29T19:29:55Z</time>
  <course>65.99</course>
  <speed>0.8</speed>
  <fix>3d</fix>
</trkpt>
<trkpt lat="40.0714268" lon="-105.2296366">
  <ele>1583.0</ele>
  <time>2026-08-29T19:29:55Z</time>
  <course>249.9</course>
  <speed>0.16552945357246848</speed>
  <fix>3d</fix>
</trkpt>
<trkpt lat="40.0714275" lon="-105.2296349">
  <ele>1583.0</ele>
  <time>2026-08-29T19:29:55Z</time>
  <course>65.99</course>
  <speed>0.8</speed>
  <fix>3d</fix>
</trkpt>
<trkpt lat="40.0714275" lon="-105.2296349">
  <ele>1583.0</ele>
  <time>2026-08-29T19:29:55Z</time>
  <course>249.89</course>
  <speed>0.16552945357246848</speed>
  <fix>3d</fix>
</trkpt>
<trkpt lat="40.0714275" lon="-105.2296349">
  <ele>1583.0</ele>
  <time>2026-08-29T19:29:55Z</time>
  <course>65.99</course>
  <speed>0.8</speed>
  <fix>3d</fix>
</trkpt>
<trkpt lat="40.0714275" lon="-105.2296349">
  <ele>1583.0</ele>
  <time>2026-08-29T19:29:55Z</time>
  <course>249.88</course>
  <speed>0.16552945357246848</speed>
  <fix>3d</fix>
</trkpt>
<trkpt lat="40.071428" lon="-105.2296332">
  <ele>1583.0</ele>
  <time>2026-08-29T19:29:55Z</time>
  <course>65.99</course>
  <speed>0.8</speed>
  <fix>3d</fix>
</trkpt>
<trkpt lat="40.071428" lon="-105.2296332">
  <ele>1583.0</ele>
  <time>2026-08-29T19:29:55Z</time>
  <course>249.87</course>
  <speed>0.16552945357246848</speed>
  <fix>3d</fix>
</trkpt>
<trkpt lat="40.071428" lon="-105.2296332">
  <ele>1583.0</ele>
  <time>2026-08-29T19:29:55Z</time>
  <course>65.99</course>
  <speed>0.8</speed>
  <fix>3d</fix>
</trkpt>
<trkpt lat="40.071428" lon="-105.2296332">
  <ele>1583.0</ele>
  <time>2026-08-29T19:29:55Z</time>
  <course>249.86</course>
  <speed>0.16552945357246848</speed>
  <fix>3d</fix>
</trkpt>
<trkpt lat="40.0714286" lon="-105.2296314">
  <ele>1583.0</ele>
  <time>2026-08-29T19:29:55Z</time>
  <course>65.99</course>
  <speed>0.8</speed>
  <fix>3d</fix>
</trkpt>
<trkpt lat="40.0714286" lon="-105.2296314">
  <ele>1583.0</ele>
  <time>2026-08-29T19:29:55Z</time>
  <course>249.85</course>
  <speed>0.15652475842498528</speed>
  <fix>3d</fix>
</trkpt>
<trkpt lat="40.0714286" lon="-105.2296314">
  <ele>1583.0</ele>
  <time>2026-08-29T19:29:55Z</time>
  <course>65.99</course>
  <speed>0.8</speed>
  <fix>3d</fix>
</trkpt>
<trkpt lat="40.0714286" lon="-105.2296314">
  <ele>1583.0</ele>
  <time>2026-08-29T19:29:55Z</time>
  <course>249.84</course>
  <speed>0.15652475842498528</speed>
  <fix>3d</fix>
</trkpt>
<trkpt lat="40.0714292" lon="-105.2296297">
  <ele>1583.0</ele>
  <time>2026-08-29T19:29:55Z</time>
  <course>65.99</course>
  <speed>0.8</speed>
  <fix>3d</fix>
</trkpt>
<trkpt lat="40.0714292" lon="-105.2296297">
  <ele>1583.0</ele>
  <time>2026-08-29T19:29:55Z</time>
  <course>249.83</course>
  <speed>0.15652475842498528</speed>
  <fix>3d</fix>
</trkpt>
<trkpt lat="40.0714292" lon="-105.2296297">
  <ele>1583.0</ele>
  <time>2026-08-29T19:29:55Z</time>
  <course>65.99</course>
  <speed>0.8</speed>
  <fix>3d</fix>
</trkpt>
<trkpt lat="40.0714292" lon="-105.2296297">
  <ele>1583.0</ele>
  <time>2026-08-29T19:29:55Z</time>
  <course>249.82</course>
  <speed>0.15652475842498528</speed>
  <fix>3d</fix>
</trkpt>
<trkpt lat="40.0714298" lon="-105.229628">
  <ele>1583.0</ele>
  <time>2026-08-29T19:29:55Z</time>
  <course>65.99</course>
  <speed>0.8</speed>
  <fix>3d</fix>
</trkpt>
<trkpt lat="40.0714298" lon="-105.229628">
  <ele>1583.0</ele>
  <time>2026-08-29T19:29:55Z</time>
  <course>249.81</course>
  <speed>0.15652475842498528</speed>
  <fix>3d</fix>
</trkpt>
<trkpt lat="40.0714298" lon="-105.229628">
  <ele>1583.0</ele>
  <time>2026-08-29T19:29:55Z</time>
  <course>65.99</course>
  <speed>0.8</speed>
  <fix>3d</fix>
</trkpt>
<trkpt lat="40.0714298" lon="-105.229628">
  <ele>1583.0</ele>
  <time>2026-08-29T19:29:55Z</time>
  <course>249.8</course>
  <speed>0.15652475842498528</speed>
  <fix>3d</fix>
</trkpt>
<trkpt lat="40.0714303" lon="-105.2296263">
  <ele>1583.0</ele>
  <time>2026-08-29T19:29:55Z</time>
  <course>65.99</course>
  <speed>0.8</speed>
  <fix>3d</fix>
</trkpt>
<trkpt lat="40.0714303" lon="-105.2296263">
  <ele>1583.0</ele>
  <time>2026-08-29T19:29:55Z</time>
  <course>249.79</course>
  <speed>0.15652475842498528</speed>
  <fix>3d</fix>
</trkpt>
<trkpt lat="40.0714303" lon="-105.2296263">
  <ele>1583.0</ele>
  <time>2026-08-29T19:29:55Z</time>
  <course>65.99</course>
  <speed>0.8</speed>
  <fix>3d</fix>
</trkpt>
<trkpt lat="40.0714303" lon="-105.2296263">
  <ele>1583.0</ele>
  <time>2026-08-29T19:29:55Z</time>
  <course>249.78</course>
  <speed>0.15652475842498528</speed>
  <fix>3d</fix>
</trkpt>
<trkpt lat="40.071431" lon="-105.2296245">
  <ele>1583.0</ele>
  <time>2026-08-29T19:29:55Z</time>
  <course>65.99</course>
  <speed>0.8</speed>
  <fix>3d</fix>
</trkpt>
<trkpt lat="40.071431" lon="-105.2296245">
  <ele>1583.0</ele>
  <time>2026-08-29T19:29:55Z</time>
  <course>249.76</course>
  <speed>0.15652475842498528</speed>
  <fix>3d</fix>
</trkpt>
<trkpt lat="40.071431" lon="-105.2296245">
  <ele>1583.0</ele>
  <time>2026-08-29T19:29:55Z</time>
  <course>65.99</course>
  <speed>0.8</speed>
  <fix>3d</fix>
</trkpt>
<trkpt lat="40.071431" lon="-105.2296245">
  <ele>1583.0</ele>
  <time>2026-08-29T19:29:55Z</time>
  <course>249.75</course>
  <speed>0.15652475842498528</speed>
  <fix>3d</fix>
</trkpt>
<trkpt lat="40.071431" lon="-105.2296245">
  <ele>1583.0</ele>
  <time>2026-08-29T19:29:55Z</time>
  <course>65.99</course>
  <speed>0.8</speed>
  <fix>3d</fix>
</trkpt>
<trkpt lat="40.0714315" lon="-105.2296228">
  <ele>1583.0</ele>
  <time>2026-08-29T19:29:55Z</time>
  <course>249.74</course>
  <speed>0.147648230602334</speed>
  <fix>3d</fix>
</trkpt>
<trkpt lat="40.0714315" lon="-105.2296228">
  <ele>1583.0</ele>
  <time>2026-08-29T19:29:55Z</time>
  <course>65.99</course>
  <speed>0.8</speed>
  <fix>3d</fix>
</trkpt>
<trkpt lat="40.0714315" lon="-105.2296228">
  <ele>1583.0</ele>
  <time>2026-08-29T19:29:55Z</time>
  <course>249.73</course>
  <speed>0.147648230602334</speed>
  <fix>3d</fix>
</trkpt>
<trkpt lat="40.0714315" lon="-105.2296228">
  <ele>1583.0</ele>
  <time>2026-08-29T19:29:55Z</time>
  <course>65.99</course>
  <speed>0.8</speed>
  <fix>3d</fix>
</trkpt>
<trkpt lat="40.0714321" lon="-105.2296211">
  <ele>1583.0</ele>
  <time>2026-08-29T19:29:55Z</time>
  <course>249.72</course>
  <speed>0.14317821063276354</speed>
  <fix>3d</fix>
</trkpt>
<trkpt lat="40.0714321" lon="-105.2296211">
  <ele>1583.0</ele>
  <time>2026-08-29T19:29:55Z</time>
  <course>65.99</course>
  <speed>0.8</speed>
  <fix>3d</fix>
</trkpt>
<trkpt lat="40.0714321" lon="-105.2296211">
  <ele>1583.0</ele>
  <time>2026-08-29T19:29:55Z</time>
  <course>249.71</course>
  <speed>0.14317821063276354</speed>
  <fix>3d</fix>
</trkpt>
<trkpt lat="40.0714321" lon="-105.2296211">
  <ele>1583.0</ele>
  <time>2026-08-29T19:29:55Z</time>
  <course>65.99</course>
  <speed>0.8</speed>
  <fix>3d</fix>
</trkpt>
<trkpt lat="40.0714327" lon="-105.2296194">
  <ele>1583.0</ele>
  <time>2026-08-29T19:29:55Z</time>
  <course>249.7</course>
  <speed>0.14317821063276354</speed>
  <fix>3d</fix>
</trkpt>
<trkpt lat="40.0714327" lon="-105.2296194">
  <ele>1583.0</ele>
  <time>2026-08-29T19:29:55Z</time>
  <course>65.99</course>
  <speed>0.8</speed>
  <fix>3d</fix>
</trkpt>
<trkpt lat="40.0714327" lon="-105.2296194">
  <ele>1583.0</ele>
  <time>2026-08-29T19:29:55Z</time>
  <course>249.69</course>
  <speed>0.14317821063276354</speed>
  <fix>3d</fix>
</trkpt>
<trkpt lat="40.0714332" lon="-105.2296177">
  <ele>1583.0</ele>
  <time>2026-08-29T19:29:55Z</time>
  <course>65.99</course>
  <speed>0.8</speed>
  <fix>3d</fix>
</trkpt>
<trkpt lat="40.0714332" lon="-105.2296177">
  <ele>1583.0</ele>
  <time>2026-08-29T19:29:55Z</time>
  <course>249.68</course>
  <speed>0.14317821063276354</speed>
  <fix>3d</fix>
</trkpt>
<trkpt lat="40.0714332" lon="-105.2296177">
  <ele>1583.0</ele>
  <time>2026-08-29T19:29:55Z</time>
  <course>65.99</course>
  <speed>0.8</speed>
  <fix>3d</fix>
</trkpt>
<trkpt lat="40.0714332" lon="-105.2296177">
  <ele>1583.0</ele>
  <time>2026-08-29T19:29:55Z</time>
  <course>249.67</course>
  <speed>0.14317821063276354</speed>
  <fix>3d</fix>
</trkpt>
<trkpt lat="40.0714339" lon="-105.2296159">
  <ele>1583.0</ele>
  <time>2026-08-29T19:29:55Z</time>
  <course>65.99</course>
  <speed>0.8</speed>
  <fix>3d</fix>
</trkpt>
<trkpt lat="40.0714339" lon="-105.2296159">
  <ele>1583.0</ele>
  <time>2026-08-29T19:29:55Z</time>
  <course>249.66</course>
  <speed>0.14317821063276354</speed>
  <fix>3d</fix>
</trkpt>
<trkpt lat="40.0714339" lon="-105.2296159">
  <ele>1583.0</ele>
  <time>2026-08-29T19:29:55Z</time>
  <course>65.99</course>
  <speed>0.8</speed>
  <fix>3d</fix>
</trkpt>
<trkpt lat="40.0714339" lon="-105.2296159">
  <ele>1583.0</ele>
  <time>2026-08-29T19:29:55Z</time>
  <course>249.65</course>
  <speed>0.14317821063276354</speed>
  <fix>3d</fix>
</trkpt>
<trkpt lat="40.0714344" lon="-105.2296142">
  <ele>1583.0</ele>
  <time>2026-08-29T19:29:55Z</time>
  <course>65.99</course>
  <speed>0.8</speed>
  <fix>3d</fix>
</trkpt>
<trkpt lat="40.0714344" lon="-105.2296142">
  <ele>1583.0</ele>
  <time>2026-08-29T19:29:55Z</time>
  <course>249.64</course>
  <speed>0.1341640786499874</speed>
  <fix>3d</fix>
</trkpt>
<trkpt lat="40.0714344" lon="-105.2296142">
  <ele>1583.0</ele>
  <time>2026-08-29T19:29:55Z</time>
  <course>65.99</course>
  <speed>0.8</speed>
  <fix>3d</fix>
</trkpt>
<trkpt lat="40.0714344" lon="-105.2296142">
  <ele>1583.0</ele>
  <time>2026-08-29T19:29:55Z</time>
  <course>249.62</course>
  <speed>0.1341640786499874</speed>
  <fix>3d</fix>
</trkpt>
<trkpt lat="40.0714351" lon="-105.2296125">
  <ele>1583.0</ele>
  <time>2026-08-29T19:29:55Z</time>
  <course>65.99</course>
  <speed>0.8</speed>
  <fix>3d</fix>
</trkpt>
<trkpt lat="40.0714351" lon="-105.2296125">
  <ele>1583.0</ele>
  <time>2026-08-29T19:29:55Z</time>
  <course>249.61</course>
  <speed>0.1341640786499874</speed>
  <fix>3d</fix>
</trkpt>
<trkpt lat="40.0714351" lon="-105.2296125">
  <ele>1583.0</ele>
  <time>2026-08-29T19:29:55Z</time>
  <course>65.99</course>
  <speed>0.8</speed>
  <fix>3d</fix>
</trkpt>
<trkpt lat="40.0714351" lon="-105.2296125">
  <ele>1583.0</ele>
  <time>2026-08-29T19:29:55Z</time>
  <course>249.6</course>
  <speed>0.1341640786499874</speed>
  <fix>3d</fix>
</trkpt>
<trkpt lat="40.0714356" lon="-105.2296108">
  <ele>1583.0</ele>
  <time>2026-08-29T19:29:55Z</time>
  <course>65.99</course>
  <speed>0.8</speed>
  <fix>3d</fix>
</trkpt>
<trkpt lat="40.0714356" lon="-105.2296108">
  <ele>1583.0</ele>
  <time>2026-08-29T19:29:55Z</time>
  <course>249.59</course>
  <speed>0.1341640786499874</speed>
  <fix>3d</fix>
</trkpt>
<trkpt lat="40.0714356" lon="-105.2296108">
  <ele>1583.0</ele>
  <time>2026-08-29T19:29:55Z</time>
  <course>65.99</course>
  <speed>0.8</speed>
  <fix>3d</fix>
</trkpt>
<trkpt lat="40.0714356" lon="-105.2296108">
  <ele>1583.0</ele>
  <time>2026-08-29T19:29:55Z</time>
  <course>249.58</course>
  <speed>0.1341640786499874</speed>
  <fix>3d</fix>
</trkpt>
<trkpt lat="40.0714362" lon="-105.2296091">
  <ele>1583.0</ele>
  <time>2026-08-29T19:29:55Z</time>
  <course>65.99</course>
  <speed>0.8</speed>
  <fix>3d</fix>
</trkpt>
<trkpt lat="40.0714362" lon="-105.2296091">
  <ele>1583.0</ele>
  <time>2026-08-29T19:29:55Z</time>
  <course>249.57</course>
  <speed>0.1341640786499874</speed>
  <fix>3d</fix>
</trkpt>
<trkpt lat="40.0714362" lon="-105.2296091">
  <ele>1583.0</ele>
  <time>2026-08-29T19:29:55Z</time>
  <course>65.99</course>
  <speed>0.8</speed>
  <fix>3d</fix>
</trkpt>
<trkpt lat="40.0714362" lon="-105.2296091">
  <ele>1583.0</ele>
  <time>2026-08-29T19:29:55Z</time>
  <course>249.56</course>
  <speed>0.1341640786499874</speed>
  <fix>3d</fix>
</trkpt>
<trkpt lat="40.0714368" lon="-105.2296073">
  <ele>1583.0</ele>
  <time>2026-08-29T19:29:55Z</time>
  <course>65.99</course>
  <speed>0.8</speed>
  <fix>3d</fix>
</trkpt>
<trkpt lat="40.0714368" lon="-105.2296073">
  <ele>1583.0</ele>
  <time>2026-08-29T19:29:55Z</time>
  <course>249.55</course>
  <speed>0.1341640786499874</speed>
  <fix>3d</fix>
</trkpt>
<trkpt lat="40.0714368" lon="-105.2296073">
  <ele>1583.0</ele>
  <time>2026-08-29T19:29:55Z</time>
  <course>65.99</course>
  <speed>0.8</speed>
  <fix>3d</fix>
</trkpt>
<trkpt lat="40.0714368" lon="-105.2296073">
  <ele>1583.0</ele>
  <time>2026-08-29T19:29:55Z</time>
  <course>249.54</course>
  <speed>0.12529964086141668</speed>
  <fix>3d</fix>
</trkpt>
<trkpt lat="40.0714368" lon="-105.2296073">
  <ele>1583.0</ele>
  <time>2026-08-29T19:29:55Z</time>
  <course>65.99</course>
  <speed>0.8</speed>
  <fix>3d</fix>
</trkpt>
<trkpt lat="40.0714373" lon="-105.2296056">
  <ele>1583.0</ele>
  <time>2026-08-29T19:29:55Z</time>
  <course>249.52</course>
  <speed>0.12529964086141668</speed>
  <fix>3d</fix>
</trkpt>
<trkpt lat="40.0714373" lon="-105.2296056">
  <ele>1583.0</ele>
  <time>2026-08-29T19:29:55Z</time>
  <course>65.99</course>
  <speed>0.8</speed>
  <fix>3d</fix>
</trkpt>
<trkpt lat="40.0714373" lon="-105.2296056">
  <ele>1583.0</ele>
  <time>2026-08-29T19:29:55Z</time>
  <course>249.51</course>
  <speed>0.12529964086141668</speed>
  <fix>3d</fix>
</trkpt>
<trkpt lat="40.0714373" lon="-105.2296056">
  <ele>1583.0</ele>
  <time>2026-08-29T19:29:55Z</time>
  <course>65.99</course>
  <speed>0.8</speed>
  <fix>3d</fix>
</trkpt>
<trkpt lat="40.071438" lon="-105.2296039">
  <ele>1583.0</ele>
  <time>2026-08-29T19:29:55Z</time>
  <course>249.5</course>
  <speed>0.12529964086141668</speed>
  <fix>3d</fix>
</trkpt>
<trkpt lat="40.071438" lon="-105.2296039">
  <ele>1583.0</ele>
  <time>2026-08-29T19:29:55Z</time>
  <course>65.99</course>
  <speed>0.8</speed>
  <fix>3d</fix>
</trkpt>
<trkpt lat="40.071438" lon="-105.2296039">
  <ele>1583.0</ele>
  <time>2026-08-29T19:29:55Z</time>
  <course>249.49</course>
  <speed>0.12529964086141668</speed>
  <fix>3d</fix>
</trkpt>
<trkpt lat="40.071438" lon="-105.2296039">
  <ele>1583.0</ele>
  <time>2026-08-29T19:29:55Z</time>
  <course>65.99</course>
  <speed>0.8</speed>
  <fix>3d</fix>
</trkpt>
<trkpt lat="40.0714385" lon="-105.2296022">
  <ele>1583.0</ele>
  <time>2026-08-29T19:29:55Z</time>
  <course>249.48</course>
  <speed>0.12529964086141668</speed>
  <fix>3d</fix>
</trkpt>
<trkpt lat="40.0714385" lon="-105.2296022">
  <ele>1583.0</ele>
  <time>2026-08-29T19:29:55Z</time>
  <course>65.99</course>
  <speed>0.8</speed>
  <fix>3d</fix>
</trkpt>
<trkpt lat="40.0714385" lon="-105.2296022">
  <ele>1583.0</ele>
  <time>2026-08-29T19:29:55Z</time>
  <course>249.47</course>
  <speed>0.12083045973594572</speed>
  <fix>3d</fix>
</trkpt>
<trkpt lat="40.0714392" lon="-105.2296005">
  <ele>1583.0</ele>
  <time>2026-08-29T19:29:55Z</time>
  <course>65.99</course>
  <speed>0.8</speed>
  <fix>3d</fix>
</trkpt>
<trkpt lat="40.0714392" lon="-105.2296005">
  <ele>1583.0</ele>
  <time>2026-08-29T19:29:55Z</time>
  <course>249.46</course>
  <speed>0.12083045973594572</speed>
  <fix>3d</fix>
</trkpt>
<trkpt lat="40.0714392" lon="-105.2296005">
  <ele>1583.0</ele>
  <time>2026-08-29T19:29:55Z</time>
  <course>65.99</course>
  <speed>0.8</speed>
  <fix>3d</fix>
</trkpt>
<trkpt lat="40.0714392" lon="-105.2296005">
  <ele>1583.0</ele>
  <time>2026-08-29T19:29:55Z</time>
  <course>249.45</course>
  <speed>0.12083045973594572</speed>
  <fix>3d</fix>
</trkpt>
<trkpt lat="40.0714397" lon="-105.2295987">
  <ele>1583.0</ele>
  <time>2026-08-29T19:29:55Z</time>
  <course>65.99</course>
  <speed>0.8</speed>
  <fix>3d</fix>
</trkpt>
<trkpt lat="40.0714397" lon="-105.2295987">
  <ele>1583.0</ele>
  <time>2026-08-29T19:29:55Z</time>
  <course>249.43</course>
  <speed>0.1118033988749895</speed>
  <fix>3d</fix>
</trkpt>
<trkpt lat="40.0714397" lon="-105.2295987">
  <ele>1583.0</ele>
  <time>2026-08-29T19:29:55Z</time>
  <course>65.99</course>
  <speed>0.8</speed>
  <fix>3d</fix>
</trkpt>
<trkpt lat="40.0714397" lon="-105.2295987">
  <ele>1583.0</ele>
  <time>2026-08-29T19:29:55Z</time>
  <course>249.42</course>
  <speed>0.1118033988749895</speed>
  <fix>3d</fix>
</trkpt>
<trkpt lat="40.0714403" lon="-105.229597">
  <ele>1583.0</ele>
  <time>2026-08-29T19:29:55Z</time>
  <course>65.99</course>
  <speed>0.8</speed>
  <fix>3d</fix>
</trkpt>
<trkpt lat="40.0714403" lon="-105.229597">
  <ele>1583.0</ele>
  <time>2026-08-29T19:29:55Z</time>
  <course>249.41</course>
  <speed>0.1118033988749895</speed>
  <fix>3d</fix>
</trkpt>
<trkpt lat="40.0714403" lon="-105.229597">
  <ele>1583.0</ele>
  <time>2026-08-29T19:29:55Z</time>
  <course>65.99</course>
  <speed>0.8</speed>
  <fix>3d</fix>
</trkpt>
<trkpt lat="40.0714403" lon="-105.229597">
  <ele>1583.0</ele>
  <time>2026-08-29T19:29:55Z</time>
  <course>249.4</course>
  <speed>0.1118033988749895</speed>
  <fix>3d</fix>
</trkpt>
<trkpt lat="40.0714409" lon="-105.2295953">
  <ele>1583.0</ele>
  <time>2026-08-29T19:29:55Z</time>
  <course>65.99</course>
  <speed>0.8</speed>
  <fix>3d</fix>
</trkpt>
<trkpt lat="40.0714409" lon="-105.2295953">
  <ele>1583.0</ele>
  <time>2026-08-29T19:29:55Z</time>
  <course>249.39</course>
  <speed>0.1118033988749895</speed>
  <fix>3d</fix>
</trkpt>
<trkpt lat="40.0714409" lon="-105.2295953">
  <ele>1583.0</ele>
  <time>2026-08-29T19:29:55Z</time>
  <course>65.99</course>
  <speed>0.8</speed>
  <fix>3d</fix>
</trkpt>
<trkpt lat="40.0714409" lon="-105.2295953">
  <ele>1583.0</ele>
  <time>2026-08-29T19:29:55Z</time>
  <course>249.38</course>
  <speed>0.1118033988749895</speed>
  <fix>3d</fix>
</trkpt>
<trkpt lat="40.0714414" lon="-105.2295936">
  <ele>1583.0</ele>
  <time>2026-08-29T19:29:55Z</time>
  <course>65.99</course>
  <speed>0.8</speed>
  <fix>3d</fix>
</trkpt>
<trkpt lat="40.0714414" lon="-105.2295936">
  <ele>1583.0</ele>
  <time>2026-08-29T19:29:55Z</time>
  <course>249.37</course>
  <speed>0.1118033988749895</speed>
  <fix>3d</fix>
</trkpt>
<trkpt lat="40.0714414" lon="-105.2295936">
  <ele>1583.0</ele>
  <time>2026-08-29T19:29:55Z</time>
  <course>65.99</course>
  <speed>0.8</speed>
  <fix>3d</fix>
</trkpt>
<trkpt lat="40.0714414" lon="-105.2295936">
  <ele>1583.0</ele>
  <time>2026-08-29T19:29:55Z</time>
  <course>249.36</course>
  <speed>0.1118033988749895</speed>
  <fix>3d</fix>
</trkpt>
<trkpt lat="40.0714421" lon="-105.2295919">
  <ele>1583.0</ele>
  <time>2026-08-29T19:29:55Z</time>
  <course>65.99</course>
  <speed>0.8</speed>
  <fix>3d</fix>
</trkpt>
<trkpt lat="40.0714421" lon="-105.2295919">
  <ele>1583.0</ele>
  <time>2026-08-29T19:29:55Z</time>
  <course>249.34</course>
  <speed>0.1118033988749895</speed>
  <fix>3d</fix>
</trkpt>
<trkpt lat="40.0714421" lon="-105.2295919">
  <ele>1583.0</ele>
  <time>2026-08-29T19:29:55Z</time>
  <course>65.99</course>
  <speed>0.8</speed>
  <fix>3d</fix>
</trkpt>
<trkpt lat="40.0714421" lon="-105.2295919">
  <ele>1583.0</ele>
  <time>2026-08-29T19:29:55Z</time>
  <course>249.33</course>
  <speed>0.1118033988749895</speed>
  <fix>3d</fix>
</trkpt>
<trkpt lat="40.0714426" lon="-105.2295901">
  <ele>1583.0</ele>
  <time>2026-08-29T19:29:55Z</time>
  <course>65.99</course>
  <speed>0.8</speed>
  <fix>3d</fix>
</trkpt>
<trkpt lat="40.0714426" lon="-105.2295901">
  <ele>1583.0</ele>
  <time>2026-08-29T19:29:55Z</time>
  <course>249.32</course>
  <speed>0.1118033988749895</speed>
  <fix>3d</fix>
</trkpt>
<trkpt lat="40.0714426" lon="-105.2295901">
  <ele>1583.0</ele>
  <time>2026-08-29T19:29:55Z</time>
  <course>65.99</course>
  <speed>0.8</speed>
  <fix>3d</fix>
</trkpt>
<trkpt lat="40.0714426" lon="-105.2295901">
  <ele>1583.0</ele>
  <time>2026-08-29T19:29:55Z</time>
  <course>249.31</course>
  <speed>0.10295630140987001</speed>
  <fix>3d</fix>
</trkpt>
<trkpt lat="40.0714426" lon="-105.2295901">
  <ele>1583.0</ele>
  <time>2026-08-29T19:29:55Z</time>
  <course>65.99</course>
  <speed>0.8</speed>
  <fix>3d</fix>
</trkpt>
<trkpt lat="40.0714433" lon="-105.2295884">
  <ele>1583.0</ele>
  <time>2026-08-29T19:29:55Z</time>
  <course>249.3</course>
  <speed>0.10295630140987001</speed>
  <fix>3d</fix>
</trkpt>
<trkpt lat="40.0714433" lon="-105.2295884">
  <ele>1583.0</ele>
  <time>2026-08-29T19:29:55Z</time>
  <course>65.99</course>
  <speed>0.8</speed>
  <fix>3d</fix>
</trkpt>
<trkpt lat="40.0714433" lon="-105.2295884">
  <ele>1583.0</ele>
  <time>2026-08-29T19:29:55Z</time>
  <course>249.29</course>
  <speed>0.10295630140987001</speed>
  <fix>3d</fix>
</trkpt>
<trkpt lat="40.0714433" lon="-105.2295884">
  <ele>1583.0</ele>
  <time>2026-08-29T19:29:55Z</time>
  <course>65.99</course>
  <speed>0.8</speed>
  <fix>3d</fix>
</trkpt>
<trkpt lat="40.0714438" lon="-105.2295867">
  <ele>1583.0</ele>
  <time>2026-08-29T19:29:55Z</time>
  <course>249.28</course>
  <speed>0.10295630140987001</speed>
  <fix>3d</fix>
</trkpt>
<trkpt lat="40.0714438" lon="-105.2295867">
  <ele>1583.0</ele>
  <time>2026-08-29T19:29:55Z</time>
  <course>65.99</course>
  <speed>0.8</speed>
  <fix>3d</fix>
</trkpt>
<trkpt lat="40.0714438" lon="-105.2295867">
  <ele>1583.0</ele>
  <time>2026-08-29T19:29:55Z</time>
  <course>249.27</course>
  <speed>0.10295630140987001</speed>
  <fix>3d</fix>
</trkpt>
<trkpt lat="40.0714438" lon="-105.2295867">
  <ele>1583.0</ele>
  <time>2026-08-29T19:29:55Z</time>
  <course>65.99</course>
  <speed>0.8</speed>
  <fix>3d</fix>
</trkpt>
<trkpt lat="40.0714445" lon="-105.229585">
  <ele>1583.0</ele>
  <time>2026-08-29T19:29:55Z</time>
  <course>249.26</course>
  <speed>0.10295630140987001</speed>
  <fix>3d</fix>
</trkpt>
<trkpt lat="40.0714445" lon="-105.229585">
  <ele>1583.0</ele>
  <time>2026-08-29T19:29:55Z</time>
  <course>65.99</course>
  <speed>0.8</speed>
  <fix>3d</fix>
</trkpt>
<trkpt lat="40.0714445" lon="-105.229585">
  <ele>1583.0</ele>
  <time>2026-08-29T19:29:55Z</time>
  <course>249.24</course>
  <speed>0.10295630140987001</speed>
  <fix>3d</fix>
</trkpt>
<trkpt lat="40.0714445" lon="-105.229585">
  <ele>1583.0</ele>
  <time>2026-08-29T19:29:55Z</time>
  <course>65.99</course>
  <speed>0.8</speed>
  <fix>3d</fix>
</trkpt>
<trkpt lat="40.071445" lon="-105.2295833">
  <ele>1583.0</ele>
  <time>2026-08-29T19:29:55Z</time>
  <course>249.23</course>
  <speed>0.10295630140987001</speed>
  <fix>3d</fix>
</trkpt>
<trkpt lat="40.071445" lon="-105.2295833">
  <ele>1583.0</ele>
  <time>2026-08-29T19:29:55Z</time>
  <course>65.99</course>
  <speed>0.8</speed>
  <fix>3d</fix>
</trkpt>
<trkpt lat="40.071445" lon="-105.2295833">
  <ele>1583.0</ele>
  <time>2026-08-29T19:29:55Z</time>
  <course>249.22</course>
  <speed>0.10295630140987001</speed>
  <fix>3d</fix>
</trkpt>
<trkpt lat="40.0714456" lon="-105.2295815">
  <ele>1583.0</ele>
  <time>2026-08-29T19:29:55Z</time>
  <course>65.99</course>
  <speed>0.8</speed>
  <fix>3d</fix>
</trkpt>
<trkpt lat="40.0714456" lon="-105.2295815">
  <ele>1583.0</ele>
  <time>2026-08-29T19:29:55Z</time>
  <course>249.21</course>
  <speed>0.10295630140987001</speed>
  <fix>3d</fix>
</trkpt>
<trkpt lat="40.0714456" lon="-105.2295815">
  <ele>1583.0</ele>
  <time>2026-08-29T19:29:55Z</time>
  <course>65.99</course>
  <speed>0.8</speed>
  <fix>3d</fix>
</trkpt>
<trkpt lat="40.0714456" lon="-105.2295815">
  <ele>1583.0</ele>
  <time>2026-08-29T19:29:55Z</time>
  <course>249.2</course>
  <speed>0.10295630140987001</speed>
  <fix>3d</fix>
</trkpt>
<trkpt lat="40.0714461" lon="-105.2295798">
  <ele>1583.0</ele>
  <time>2026-08-29T19:29:55Z</time>
  <course>65.99</course>
  <speed>0.8</speed>
  <fix>3d</fix>
</trkpt>
<trkpt lat="40.0714461" lon="-105.2295798">
  <ele>1583.0</ele>
  <time>2026-08-29T19:29:55Z</time>
  <course>249.19</course>
  <speed>0.09433981132056603</speed>
  <fix>3d</fix>
</trkpt>
<trkpt lat="40.0714461" lon="-105.2295798">
  <ele>1583.0</ele>
  <time>2026-08-29T19:29:55Z</time>
  <course>65.99</course>
  <speed>0.8</speed>
  <fix>3d</fix>
</trkpt>
<trkpt lat="40.0714461" lon="-105.2295798">
  <ele>1583.0</ele>
  <time>2026-08-29T19:29:55Z</time>
  <course>249.18</course>
  <speed>0.09433981132056603</speed>
  <fix>3d</fix>
</trkpt>
<trkpt lat="40.0714468" lon="-105.2295781">
  <ele>1583.0</ele>
  <time>2026-08-29T19:29:55Z</time>
  <course>65.99</course>
  <speed>0.8</speed>
  <fix>3d</fix>
</trkpt>
<trkpt lat="40.0714468" lon="-105.2295781">
  <ele>1583.0</ele>
  <time>2026-08-29T19:29:55Z</time>
  <course>249.17</course>
  <speed>0.09433981132056603</speed>
  <fix>3d</fix>
</trkpt>
<trkpt lat="40.0714468" lon="-105.2295781">
  <ele>1583.0</ele>
  <time>2026-08-29T19:29:55Z</time>
  <course>65.99</course>
  <speed>0.8</speed>
  <fix>3d</fix>
</trkpt>
<trkpt lat="40.0714468" lon="-105.2295781">
  <ele>1583.0</ele>
  <time>2026-08-29T19:29:55Z</time>
  <course>249.16</course>
  <speed>0.09433981132056603</speed>
  <fix>3d</fix>
</trkpt>
<trkpt lat="40.0714473" lon="-105.2295764">
  <ele>1583.0</ele>
  <time>2026-08-29T19:29:55Z</time>
  <course>65.99</course>
  <speed>0.8</speed>
  <fix>3d</fix>
</trkpt>
<trkpt lat="40.0714473" lon="-105.2295764">
  <ele>1583.0</ele>
  <time>2026-08-29T19:29:55Z</time>
  <course>249.15</course>
  <speed>0.09433981132056603</speed>
  <fix>3d</fix>
</trkpt>
<trkpt lat="40.0714473" lon="-105.2295764">
  <ele>1583.0</ele>
  <time>2026-08-29T19:29:55Z</time>
  <course>65.99</course>
  <speed>0.8</speed>
  <fix>3d</fix>
</trkpt>
<trkpt lat="40.0714473" lon="-105.2295764">
  <ele>1583.0</ele>
  <time>2026-08-29T19:29:55Z</time>
  <course>249.14</course>
  <speed>0.09433981132056603</speed>
  <fix>3d</fix>
</trkpt>
<trkpt lat="40.071448" lon="-105.2295747">
  <ele>1583.0</ele>
  <time>2026-08-29T19:29:55Z</time>
  <course>65.99</course>
  <speed>0.8</speed>
  <fix>3d</fix>
</trkpt>
<trkpt lat="40.071448" lon="-105.2295747">
  <ele>1583.0</ele>
  <time>2026-08-29T19:29:55Z</time>
  <course>249.13</course>
  <speed>0.09433981132056603</speed>
  <fix>3d</fix>
</trkpt>
<trkpt lat="40.071448" lon="-105.2295747">
  <ele>1583.0</ele>
  <time>2026-08-29T19:29:55Z</time>
  <course>65.99</course>
  <speed>0.8</speed>
  <fix>3d</fix>
</trkpt>
<trkpt lat="40.071448" lon="-105.2295747">
  <ele>1583.0</ele>
  <time>2026-08-29T19:29:55Z</time>
  <course>249.12</course>
  <speed>0.09433981132056603</speed>
  <fix>3d</fix>
</trkpt>
<trkpt lat="40.0714485" lon="-105.2295729">
  <ele>1583.0</ele>
  <time>2026-08-29T19:29:55Z</time>
  <course>65.99</course>
  <speed>0.8</speed>
  <fix>3d</fix>
</trkpt>
<trkpt lat="40.0714485" lon="-105.2295729">
  <ele>1583.0</ele>
  <time>2026-08-29T19:29:55Z</time>
  <course>249.11</course>
  <speed>0.09433981132056603</speed>
  <fix>3d</fix>
</trkpt>
<trkpt lat="40.0714485" lon="-105.2295729">
  <ele>1583.0</ele>
  <time>2026-08-29T19:29:55Z</time>
  <course>65.99</course>
  <speed>0.8</speed>
  <fix>3d</fix>
</trkpt>
<trkpt lat="40.0714485" lon="-105.2295729">
  <ele>1583.0</ele>
  <time>2026-08-29T19:29:55Z</time>
  <course>249.1</course>
  <speed>0.08944271909999159</speed>
  <fix>3d</fix>
</trkpt>
<trkpt lat="40.0714491" lon="-105.2295712">
  <ele>1583.0</ele>
  <time>2026-08-29T19:29:55Z</time>
  <course>65.99</course>
  <speed>0.8</speed>
  <fix>3d</fix>
</trkpt>
<trkpt lat="40.0714491" lon="-105.2295712">
  <ele>1583.0</ele>
  <time>2026-08-29T19:29:55Z</time>
  <course>249.08</course>
  <speed>0.08944271909999159</speed>
  <fix>3d</fix>
</trkpt>
<trkpt lat="40.0714491" lon="-105.2295712">
  <ele>1583.0</ele>
  <time>2026-08-29T19:29:55Z</time>
  <course>65.99</course>
  <speed>0.8</speed>
  <fix>3d</fix>
</trkpt>
<trkpt lat="40.0714491" lon="-105.2295712">
  <ele>1583.0</ele>
  <time>2026-08-29T19:29:55Z</time>
  <course>249.07</course>
  <speed>0.08944271909999159</speed>
  <fix>3d</fix>
</trkpt>
<trkpt lat="40.0714491" lon="-105.2295712">
  <ele>1583.0</ele>
  <time>2026-08-29T19:29:55Z</time>
  <course>65.99</course>
  <speed>0.8</speed>
  <fix>3d</fix>
</trkpt>
<trkpt lat="40.0714497" lon="-105.2295695">
  <ele>1583.0</ele>
  <time>2026-08-29T19:29:55Z</time>
  <course>249.06</course>
  <speed>0.08944271909999159</speed>
  <fix>3d</fix>
</trkpt>
<trkpt lat="40.0714497" lon="-105.2295695">
  <ele>1583.0</ele>
  <time>2026-08-29T19:29:55Z</time>
  <course>65.99</course>
  <speed>0.8</speed>
  <fix>3d</fix>
</trkpt>
<trkpt lat="40.0714497" lon="-105.2295695">
  <ele>1583.0</ele>
  <time>2026-08-29T19:29:55Z</time>
  <course>249.05</course>
  <speed>0.08062257748298549</speed>
  <fix>3d</fix>
</trkpt>
<trkpt lat="40.0714497" lon="-105.2295695">
  <ele>1583.0</ele>
  <time>2026-08-29T19:29:55Z</time>
  <course>65.99</course>
  <speed>0.8</speed>
  <fix>3d</fix>
</trkpt>
<trkpt lat="40.0714502" lon="-105.2295678">
  <ele>1583.0</ele>
  <time>2026-08-29T19:29:55Z</time>
  <course>249.04</course>
  <speed>0.08062257748298549</speed>
  <fix>3d</fix>
</trkpt>
<trkpt lat="40.0714502" lon="-105.2295678">
  <ele>1583.0</ele>
  <time>2026-08-29T19:29:55Z</time>
  <course>65.99</course>
  <speed>0.8</speed>
  <fix>3d</fix>
</trkpt>
<trkpt lat="40.0714502" lon="-105.2295678">
  <ele>1583.0</ele>
  <time>2026-08-29T19:29:55Z</time>
  <course>249.03</course>
  <speed>0.08062257748298549</speed>
  <fix>3d</fix>
</trkpt>
<trkpt lat="40.0714502" lon="-105.2295678">
  <ele>1583.0</ele>
  <time>2026-08-29T19:29:55Z</time>
  <course>65.99</course>
  <speed>0.8</speed>
  <fix>3d</fix>
</trkpt>
<trkpt lat="40.0714509" lon="-105.2295661">
  <ele>1583.0</ele>
  <time>2026-08-29T19:29:55Z</time>
  <course>249.02</course>
  <speed>0.08062257748298549</speed>
  <fix>3d</fix>
</trkpt>
<trkpt lat="40.0714509" lon="-105.2295661">
  <ele>1583.0</ele>
  <time>2026-08-29T19:29:55Z</time>
  <course>65.99</course>
  <speed>0.8</speed>
  <fix>3d</fix>
</trkpt>
<trkpt lat="40.0714509" lon="-105.2295661">
  <ele>1583.0</ele>
  <time>2026-08-29T19:29:55Z</time>
  <course>249.01</course>
  <speed>0.08062257748298549</speed>
  <fix>3d</fix>
</trkpt>
<trkpt lat="40.0714514" lon="-105.2295643">
  <ele>1583.0</ele>
  <time>2026-08-29T19:29:55Z</time>
  <course>65.99</course>
  <speed>0.8</speed>
  <fix>3d</fix>
</trkpt>
<trkpt lat="40.0714514" lon="-105.2295643">
  <ele>1583.0</ele>
  <time>2026-08-29T19:29:55Z</time>
  <course>249.0</course>
  <speed>0.08062257748298549</speed>
  <fix>3d</fix>
</trkpt>
<trkpt lat="40.0714514" lon="-105.2295643">
  <ele>1583.0</ele>
  <time>2026-08-29T19:29:55Z</time>
  <course>65.99</course>
  <speed>0.8</speed>
  <fix>3d</fix>
</trkpt>
<trkpt lat="40.0714514" lon="-105.2295643">
  <ele>1583.0</ele>
  <time>2026-08-29T19:29:55Z</time>
  <course>248.99</course>
  <speed>0.08062257748298549</speed>
  <fix>3d</fix>
</trkpt>
<trkpt lat="40.0714521" lon="-105.2295626">
  <ele>1583.0</ele>
  <time>2026-08-29T19:29:55Z</time>
  <course>65.99</course>
  <speed>0.8</speed>
  <fix>3d</fix>
</trkpt>
<trkpt lat="40.0714521" lon="-105.2295626">
  <ele>1583.0</ele>
  <time>2026-08-29T19:29:55Z</time>
  <course>248.98</course>
  <speed>0.08062257748298549</speed>
  <fix>3d</fix>
</trkpt>
<trkpt lat="40.0714521" lon="-105.2295626">
  <ele>1583.0</ele>
  <time>2026-08-29T19:29:55Z</time>
  <course>65.99</course>
  <speed>0.8</speed>
  <fix>3d</fix>
</trkpt>
<trkpt lat="40.0714521" lon="-105.2295626">
  <ele>1583.0</ele>
  <time>2026-08-29T19:29:55Z</time>
  <course>248.97</course>
  <speed>0.08062257748298549</speed>
  <fix>3d</fix>
</trkpt>
<trkpt lat="40.0714526" lon="-105.2295609">
  <ele>1583.0</ele>
  <time>2026-08-29T19:29:55Z</time>
  <course>65.99</course>
  <speed>0.8</speed>
  <fix>3d</fix>
</trkpt>
<trkpt lat="40.0714526" lon="-105.2295609">
  <ele>1583.0</ele>
  <time>2026-08-29T19:29:55Z</time>
  <course>248.96</course>
  <speed>0.08062257748298549</speed>
  <fix>3d</fix>
</trkpt>
<trkpt lat="40.0714526" lon="-105.2295609">
  <ele>1583.0</ele>
  <time>2026-08-29T19:29:55Z</time>
  <course>65.99</course>
  <speed>0.8</speed>
  <fix>3d</fix>
</trkpt>
<trkpt lat="40.0714526" lon="-105.2295609">
  <ele>1583.0</ele>
  <time>2026-08-29T19:29:55Z</time>
  <course>248.95</course>
  <speed>0.08062257748298549</speed>
  <fix>3d</fix>
</trkpt>
<trkpt lat="40.0714532" lon="-105.2295592">
  <ele>1583.0</ele>
  <time>2026-08-29T19:29:55Z</time>
  <course>65.99</course>
  <speed>0.8</speed>
  <fix>3d</fix>
</trkpt>
<trkpt lat="40.0714532" lon="-105.2295592">
  <ele>1583.0</ele>
  <time>2026-08-29T19:29:55Z</time>
  <course>248.94</course>
  <speed>0.08062257748298549</speed>
  <fix>3d</fix>
</trkpt>
<trkpt lat="40.0714532" lon="-105.2295592">
  <ele>1583.0</ele>
  <time>2026-08-29T19:29:55Z</time>
  <course>65.99</course>
  <speed>0.8</speed>
  <fix>3d</fix>
</trkpt>
<trkpt lat="40.0714532" lon="-105.2295592">
  <ele>1583.0</ele>
  <time>2026-08-29T19:29:55Z</time>
  <course>248.93</course>
  <speed>0.08062257748298549</speed>
  <fix>3d</fix>
</trkpt>
<trkpt lat="40.0714538" lon="-105.2295575">
  <ele>1583.0</ele>
  <time>2026-08-29T19:29:55Z</time>
  <course>65.99</course>
  <speed>0.8</speed>
  <fix>3d</fix>
</trkpt>
<trkpt lat="40.0714538" lon="-105.2295575">
  <ele>1583.0</ele>
  <time>2026-08-29T19:29:55Z</time>
  <course>248.92</course>
  <speed>0.08062257748298549</speed>
  <fix>3d</fix>
</trkpt>
<trkpt lat="40.0714538" lon="-105.2295575">
  <ele>1583.0</ele>
  <time>2026-08-29T19:29:55Z</time>
  <course>65.99</course>
  <speed>0.8</speed>
  <fix>3d</fix>
</trkpt>
<trkpt lat="40.0714538" lon="-105.2295575">
  <ele>1583.0</ele>
  <time>2026-08-29T19:29:55Z</time>
  <course>248.91</course>
  <speed>0.08062257748298549</speed>
  <fix>3d</fix>
</trkpt>
<trkpt lat="40.0714543" lon="-105.2295557">
  <ele>1583.0</ele>
  <time>2026-08-29T19:29:55Z</time>
  <course>65.99</course>
  <speed>0.8</speed>
  <fix>3d</fix>
</trkpt>
<trkpt lat="40.0714543" lon="-105.2295557">
  <ele>1583.0</ele>
  <time>2026-08-29T19:29:55Z</time>
  <course>248.9</course>
  <speed>0.08062257748298549</speed>
  <fix>3d</fix>
</trkpt>
<trkpt lat="40.0714543" lon="-105.2295557">
  <ele>1583.0</ele>
  <time>2026-08-29T19:29:55Z</time>
  <course>65.99</course>
  <speed>0.8</speed>
  <fix>3d</fix>
</trkpt>
<trkpt lat="40.0714543" lon="-105.2295557">
  <ele>1583.0</ele>
  <time>2026-08-29T19:29:55Z</time>
  <course>248.89</course>
  <speed>0.07211102550927978</speed>
  <fix>3d</fix>
</trkpt>
<trkpt lat="40.071455" lon="-105.229554">
  <ele>1583.0</ele>
  <time>2026-08-29T19:29:55Z</time>
  <course>65.99</course>
  <speed>0.8</speed>
  <fix>3d</fix>
</trkpt>
<trkpt lat="40.071455" lon="-105.229554">
  <ele>1583.0</ele>
  <time>2026-08-29T19:29:55Z</time>
  <course>248.88</course>
  <speed>0.07211102550927978</speed>
  <fix>3d</fix>
</trkpt>
<trkpt lat="40.071455" lon="-105.229554">
  <ele>1583.0</ele>
  <time>2026-08-29T19:29:55Z</time>
  <course>65.99</course>
  <speed>0.8</speed>
  <fix>3d</fix>
</trkpt>
<trkpt lat="40.071455" lon="-105.229554">
  <ele>1583.0</ele>
  <time>2026-08-29T19:29:55Z</time>
  <course>248.87</course>
  <speed>0.07211102550927978</speed>
  <fix>3d</fix>
</trkpt>
<trkpt lat="40.071455" lon="-105.229554">
  <ele>1583.0</ele>
  <time>2026-08-29T19:29:55Z</time>
  <course>65.99</course>
  <speed>0.8</speed>
  <fix>3d</fix>
</trkpt>
<trkpt lat="40.0714555" lon="-105.2295523">
  <ele>1583.0</ele>
  <time>2026-08-29T19:29:55Z</time>
  <course>248.87</course>
  <speed>0.07211102550927978</speed>
  <fix>3d</fix>
</trkpt>
<trkpt lat="40.0714555" lon="-105.2295523">
  <ele>1583.0</ele>
  <time>2026-08-29T19:29:55Z</time>
  <course>65.99</course>
  <speed>0.8</speed>
  <fix>3d</fix>
</trkpt>
<trkpt lat="40.0714555" lon="-105.2295523">
  <ele>1583.0</ele>
  <time>2026-08-29T19:29:55Z</time>
  <course>248.86</course>
  <speed>0.07211102550927978</speed>
  <fix>3d</fix>
</trkpt>
<trkpt lat="40.0714555" lon="-105.2295523">
  <ele>1583.0</ele>
  <time>2026-08-29T19:29:55Z</time>
  <course>65.99</course>
  <speed>0.8</speed>
  <fix>3d</fix>
</trkpt>
<trkpt lat="40.0714562" lon="-105.2295506">
  <ele>1583.0</ele>
  <time>2026-08-29T19:29:55Z</time>
  <course>248.85</course>
  <speed>0.07211102550927978</speed>
  <fix>3d</fix>
</trkpt>
<trkpt lat="40.0714562" lon="-105.2295506">
  <ele>1583.0</ele>
  <time>2026-08-29T19:29:55Z</time>
  <course>65.99</course>
  <speed>0.8</speed>
  <fix>3d</fix>
</trkpt>
<trkpt lat="40.0714562" lon="-105.2295506">
  <ele>1583.0</ele>
  <time>2026-08-29T19:29:55Z</time>
  <course>248.84</course>
  <speed>0.07211102550927978</speed>
  <fix>3d</fix>
</trkpt>
<trkpt lat="40.0714562" lon="-105.2295506">
  <ele>1583.0</ele>
  <time>2026-08-29T19:29:55Z</time>
  <course>65.99</course>
  <speed>0.8</speed>
  <fix>3d</fix>
</trkpt>
<trkpt lat="40.0714567" lon="-105.2295489">
  <ele>1583.0</ele>
  <time>2026-08-29T19:29:55Z</time>
  <course>248.83</course>
  <speed>0.07211102550927978</speed>
  <fix>3d</fix>
</trkpt>
<trkpt lat="40.0714567" lon="-105.2295489">
  <ele>1583.0</ele>
  <time>2026-08-29T19:29:55Z</time>
  <course>65.99</course>
  <speed>0.8</speed>
  <fix>3d</fix>
</trkpt>
<trkpt lat="40.0714567" lon="-105.2295489">
  <ele>1583.0</ele>
  <time>2026-08-29T19:29:55Z</time>
  <course>248.82</course>
  <speed>0.07211102550927978</speed>
  <fix>3d</fix>
</trkpt>
<trkpt lat="40.0714567" lon="-105.2295489">
  <ele>1583.0</ele>
  <time>2026-08-29T19:29:55Z</time>
  <course>65.99</course>
  <speed>0.8</speed>
  <fix>3d</fix>
</trkpt>
<trkpt lat="40.0714573" lon="-105.2295471">
  <ele>1583.0</ele>
  <time>2026-08-29T19:29:55Z</time>
  <course>248.81</course>
  <speed>0.07211102550927978</speed>
  <fix>3d</fix>
</trkpt>
<trkpt lat="40.0714573" lon="-105.2295471">
  <ele>1583.0</ele>
  <time>2026-08-29T19:29:55Z</time>
  <course>65.99</course>
  <speed>0.8</speed>
  <fix>3d</fix>
</trkpt>
<trkpt lat="40.0714573" lon="-105.2295471">
  <ele>1583.0</ele>
  <time>2026-08-29T19:29:55Z</time>
  <course>248.8</course>
  <speed>0.07211102550927978</speed>
  <fix>3d</fix>
</trkpt>
<trkpt lat="40.0714579" lon="-105.2295454">
  <ele>1583.0</ele>
  <time>2026-08-29T19:29:55Z</time>
  <course>65.99</course>
  <speed>0.8</speed>
  <fix>3d</fix>
</trkpt>
<trkpt lat="40.0714579" lon="-105.2295454">
  <ele>1583.0</ele>
  <time>2026-08-29T19:29:55Z</time>
  <course>248.79</course>
  <speed>0.07211102550927978</speed>
  <fix>3d</fix>
</trkpt>
<trkpt lat="40.0714579" lon="-105.2295454">
  <ele>1583.0</ele>
  <time>2026-08-29T19:29:55Z</time>
  <course>65.99</course>
  <speed>0.8</speed>
  <fix>3d</fix>
</trkpt>
<trkpt lat="40.0714579" lon="-105.2295454">
  <ele>1583.0</ele>
  <time>2026-08-29T19:29:55Z</time>
  <course>248.78</course>
  <speed>0.07211102550927978</speed>
  <fix>3d</fix>
</trkpt>
<trkpt lat="40.0714584" lon="-105.2295437">
  <ele>1583.0</ele>
  <time>2026-08-29T19:29:55Z</time>
  <course>65.99</course>
  <speed>0.8</speed>
  <fix>3d</fix>
</trkpt>
<trkpt lat="40.0714584" lon="-105.2295437">
  <ele>1583.0</ele>
  <time>2026-08-29T19:29:55Z</time>
  <course>248.77</course>
  <speed>0.07211102550927978</speed>
  <fix>3d</fix>
</trkpt>
<trkpt lat="40.0714584" lon="-105.2295437">
  <ele>1583.0</ele>
  <time>2026-08-29T19:29:55Z</time>
  <course>65.99</course>
  <speed>0.8</speed>
  <fix>3d</fix>
</trkpt>
<trkpt lat="40.0714584" lon="-105.2295437">
  <ele>1583.0</ele>
  <time>2026-08-29T19:29:55Z</time>
  <course>248.76</course>
  <speed>0.07211102550927978</speed>
  <fix>3d</fix>
</trkpt>
<trkpt lat="40.0714591" lon="-105.229542">
  <ele>1583.0</ele>
  <time>2026-08-29T19:29:55Z</time>
  <course>65.99</course>
  <speed>0.8</speed>
  <fix>3d</fix>
</trkpt>
<trkpt lat="40.0714591" lon="-105.229542">
  <ele>1583.0</ele>
  <time>2026-08-29T19:29:55Z</time>
  <course>248.75</course>
  <speed>0.07211102550927978</speed>
  <fix>3d</fix>
</trkpt>
<trkpt lat="40.0714591" lon="-105.229542">
  <ele>1583.0</ele>
  <time>2026-08-29T19:29:55Z</time>
  <course>65.99</course>
  <speed>0.8</speed>
  <fix>3d</fix>
</trkpt>
<trkpt lat="40.0714591" lon="-105.229542">
  <ele>1583.0</ele>
  <time>2026-08-29T19:29:55Z</time>
  <course>248.75</course>
  <speed>0.07211102550927978</speed>
  <fix>3d</fix>
</trkpt>
<trkpt lat="40.0714596" lon="-105.2295403">
  <ele>1583.0</ele>
  <time>2026-08-29T19:29:55Z</time>
  <course>65.99</course>
  <speed>0.8</speed>
  <fix>3d</fix>
</trkpt>
<trkpt lat="40.0714596" lon="-105.2295403">
  <ele>1583.0</ele>
  <time>2026-08-29T19:29:55Z</time>
  <course>248.74</course>
  <speed>0.07211102550927978</speed>
  <fix>3d</fix>
</trkpt>
<trkpt lat="40.0714596" lon="-105.2295403">
  <ele>1583.0</ele>
  <time>2026-08-29T19:29:55Z</time>
  <course>65.99</course>
  <speed>0.8</speed>
  <fix>3d</fix>
</trkpt>
<trkpt lat="40.0714596" lon="-105.2295403">
  <ele>1583.0</ele>
  <time>2026-08-29T19:29:55Z</time>
  <course>248.73</course>
  <speed>0.07211102550927978</speed>
  <fix>3d</fix>
</trkpt>
<trkpt lat="40.0714603" lon="-105.2295386">
  <ele>1583.0</ele>
  <time>2026-08-29T19:29:55Z</time>
  <course>65.99</course>
  <speed>0.8</speed>
  <fix>3d</fix>
</trkpt>
<trkpt lat="40.0714603" lon="-105.2295386">
  <ele>1583.0</ele>
  <time>2026-08-29T19:29:55Z</time>
  <course>248.72</course>
  <speed>0.07211102550927978</speed>
  <fix>3d</fix>
</trkpt>
<trkpt lat="40.0714603" lon="-105.2295386">
  <ele>1583.0</ele>
  <time>2026-08-29T19:29:55Z</time>
  <course>65.99</course>
  <speed>0.8</speed>
  <fix>3d</fix>
</trkpt>
<trkpt lat="40.0714603" lon="-105.2295386">
  <ele>1583.0</ele>
  <time>2026-08-29T19:29:55Z</time>
  <course>248.71</course>
  <speed>0.07211102550927978</speed>
  <fix>3d</fix>
</trkpt>
<trkpt lat="40.0714609" lon="-105.2295368">
  <ele>1583.0</ele>
  <time>2026-08-29T19:29:55Z</time>
  <course>65.99</course>
  <speed>0.8</speed>
  <fix>3d</fix>
</trkpt>
<trkpt lat="40.0714609" lon="-105.2295368">
  <ele>1583.0</ele>
  <time>2026-08-29T19:29:55Z</time>
  <course>248.7</course>
  <speed>0.07211102550927978</speed>
  <fix>3d</fix>
</trkpt>
<trkpt lat="40.0714609" lon="-105.2295368">
  <ele>1583.0</ele>
  <time>2026-08-29T19:29:55Z</time>
  <course>65.99</course>
  <speed>0.8</speed>
  <fix>3d</fix>
</trkpt>
<trkpt lat="40.0714609" lon="-105.2295368">
  <ele>1583.0</ele>
  <time>2026-08-29T19:29:55Z</time>
  <course>248.69</course>
  <speed>0.07211102550927978</speed>
  <fix>3d</fix>
</trkpt>
<trkpt lat="40.0714614" lon="-105.2295351">
  <ele>1583.0</ele>
  <time>2026-08-29T19:29:55Z</time>
  <course>65.99</course>
  <speed>0.8</speed>
  <fix>3d</fix>
</trkpt>
<trkpt lat="40.0714614" lon="-105.2295351">
  <ele>1583.0</ele>
  <time>2026-08-29T19:29:55Z</time>
  <course>248.68</course>
  <speed>0.07211102550927978</speed>
  <fix>3d</fix>
</trkpt>
<trkpt lat="40.0714614" lon="-105.2295351">
  <ele>1583.0</ele>
  <time>2026-08-29T19:29:55Z</time>
  <course>65.99</course>
  <speed>0.8</speed>
  <fix>3d</fix>
</trkpt>
<trkpt lat="40.0714614" lon="-105.2295351">
  <ele>1583.0</ele>
  <time>2026-08-29T19:29:55Z</time>
  <course>248.68</course>
  <speed>0.07211102550927978</speed>
  <fix>3d</fix>
</trkpt>
<trkpt lat="40.0714614" lon="-105.2295351">
  <ele>1583.0</ele>
  <time>2026-08-29T19:29:55Z</time>
  <course>65.99</course>
  <speed>0.8</speed>
  <fix>3d</fix>
</trkpt>
<trkpt lat="40.0714619" lon="-105.2295334">
  <ele>1583.0</ele>
  <time>2026-08-29T19:29:55Z</time>
  <course>248.67</course>
  <speed>0.06403124237432849</speed>
  <fix>3d</fix>
</trkpt>
<trkpt lat="40.0714619" lon="-105.2295334">
  <ele>1583.0</ele>
  <time>2026-08-29T19:29:55Z</time>
  <course>65.99</course>
  <speed>0.8</speed>
  <fix>3d</fix>
</trkpt>
<trkpt lat="40.0714619" lon="-105.2295334">
  <ele>1583.0</ele>
  <time>2026-08-29T19:29:55Z</time>
  <course>248.66</course>
  <speed>0.06403124237432849</speed>
  <fix>3d</fix>
</trkpt>
<trkpt lat="40.0714619" lon="-105.2295334">
  <ele>1583.0</ele>
  <time>2026-08-29T19:29:55Z</time>
  <course>65.99</course>
  <speed>0.8</speed>
  <fix>3d</fix>
</trkpt>
<trkpt lat="40.0714626" lon="-105.2295317">
  <ele>1583.0</ele>
  <time>2026-08-29T19:29:55Z</time>
  <course>248.65</course>
  <speed>0.06403124237432849</speed>
  <fix>3d</fix>
</trkpt>
<trkpt lat="40.0714626" lon="-105.2295317">
  <ele>1583.0</ele>
  <time>2026-08-29T19:29:55Z</time>
  <course>65.99</course>
  <speed>0.8</speed>
  <fix>3d</fix>
</trkpt>
<trkpt lat="40.0714626" lon="-105.2295317">
  <ele>1583.0</ele>
  <time>2026-08-29T19:29:55Z</time>
  <course>248.64</course>
  <speed>0.06403124237432849</speed>
  <fix>3d</fix>
</trkpt>
<trkpt lat="40.0714626" lon="-105.2295317">
  <ele>1583.0</ele>
  <time>2026-08-29T19:29:55Z</time>
  <course>65.99</course>
  <speed>0.8</speed>
  <fix>3d</fix>
</trkpt>
<trkpt lat="40.0714631" lon="-105.22953">
  <ele>1583.0</ele>
  <time>2026-08-29T19:29:55Z</time>
  <course>248.63</course>
  <speed>0.06403124237432849</speed>
  <fix>3d</fix>
</trkpt>
<trkpt lat="40.0714631" lon="-105.22953">
  <ele>1583.0</ele>
  <time>2026-08-29T19:29:55Z</time>
  <course>65.99</course>
  <speed>0.8</speed>
  <fix>3d</fix>
</trkpt>
<trkpt lat="40.0714631" lon="-105.22953">
  <ele>1583.0</ele>
  <time>2026-08-29T19:29:55Z</time>
  <course>248.63</course>
  <speed>0.06403124237432849</speed>
  <fix>3d</fix>
</trkpt>
<trkpt lat="40.0714638" lon="-105.2295282">
  <ele>1583.0</ele>
  <time>2026-08-29T19:29:55Z</time>
  <course>65.99</course>
  <speed>0.8</speed>
  <fix>3d</fix>
</trkpt>
<trkpt lat="40.0714638" lon="-105.2295282">
  <ele>1583.0</ele>
  <time>2026-08-29T19:29:55Z</time>
  <course>248.62</course>
  <speed>0.06403124237432849</speed>
  <fix>3d</fix>
</trkpt>
<trkpt lat="40.0714638" lon="-105.2295282">
  <ele>1583.0</ele>
  <time>2026-08-29T19:29:55Z</time>
  <course>65.99</course>
  <speed>0.8</speed>
  <fix>3d</fix>
</trkpt>
<trkpt lat="40.0714638" lon="-105.2295282">
  <ele>1583.0</ele>
  <time>2026-08-29T19:29:55Z</time>
  <course>248.61</course>
  <speed>0.06403124237432849</speed>
  <fix>3d</fix>
</trkpt>
<trkpt lat="40.0714643" lon="-105.2295265">
  <ele>1583.0</ele>
  <time>2026-08-29T19:29:55Z</time>
  <course>65.99</course>
  <speed>0.8</speed>
  <fix>3d</fix>
</trkpt>
<trkpt lat="40.0714643" lon="-105.2295265">
  <ele>1583.0</ele>
  <time>2026-08-29T19:29:55Z</time>
  <course>248.6</course>
  <speed>0.06403124237432849</speed>
  <fix>3d</fix>
</trkpt>
<trkpt lat="40.0714643" lon="-105.2295265">
  <ele>1583.0</ele>
  <time>2026-08-29T19:29:55Z</time>
  <course>65.99</course>
  <speed>0.8</speed>
  <fix>3d</fix>
</trkpt>
<trkpt lat="40.0714643" lon="-105.2295265">
  <ele>1583.0</ele>
  <time>2026-08-29T19:29:55Z</time>
  <course>248.59</course>
  <speed>0.06403124237432849</speed>
  <fix>3d</fix>
</trkpt>
<trkpt lat="40.071465" lon="-105.2295248">
  <ele>1583.0</ele>
  <time>2026-08-29T19:29:55Z</time>
  <course>65.99</course>
  <speed>0.8</speed>
  <fix>3d</fix>
</trkpt>
<trkpt lat="40.071465" lon="-105.2295248">
  <ele>1583.0</ele>
  <time>2026-08-29T19:29:55Z</time>
  <course>248.58</course>
  <speed>0.06403124237432849</speed>
  <fix>3d</fix>
</trkpt>
<trkpt lat="40.071465" lon="-105.2295248">
  <ele>1583.0</ele>
  <time>2026-08-29T19:29:55Z</time>
  <course>65.99</course>
  <speed>0.8</speed>
  <fix>3d</fix>
</trkpt>
<trkpt lat="40.071465" lon="-105.2295248">
  <ele>1583.0</ele>
  <time>2026-08-29T19:29:55Z</time>
  <course>248.58</course>
  <speed>0.06403124237432849</speed>
  <fix>3d</fix>
</trkpt>
<trkpt lat="40.0714655" lon="-105.2295231">
  <ele>1583.0</ele>
  <time>2026-08-29T19:29:55Z</time>
  <course>65.99</course>
  <speed>0.8</speed>
  <fix>3d</fix>
</trkpt>
<trkpt lat="40.0714655" lon="-105.2295231">
  <ele>1583.0</ele>
  <time>2026-08-29T19:29:55Z</time>
  <course>248.57</course>
  <speed>0.06403124237432849</speed>
  <fix>3d</fix>
</trkpt>
<trkpt lat="40.0714655" lon="-105.2295231">
  <ele>1583.0</ele>
  <time>2026-08-29T19:29:55Z</time>
  <course>65.99</course>
  <speed>0.8</speed>
  <fix>3d</fix>
</trkpt>
<trkpt lat="40.0714655" lon="-105.2295231">
  <ele>1583.0</ele>
  <time>2026-08-29T19:29:55Z</time>
  <course>248.56</course>
  <speed>0.06403124237432849</speed>
  <fix>3d</fix>
</trkpt>
<trkpt lat="40.071466" lon="-105.2295214">
  <ele>1583.0</ele>
  <time>2026-08-29T19:29:55Z</time>
  <course>65.99</course>
  <speed>0.8</speed>
  <fix>3d</fix>
</trkpt>
<trkpt lat="40.071466" lon="-105.2295214">
  <ele>1583.0</ele>
  <time>2026-08-29T19:29:55Z</time>
  <course>248.55</course>
  <speed>0.06403124237432849</speed>
  <fix>3d</fix>
</trkpt>
<trkpt lat="40.071466" lon="-105.2295214">
  <ele>1583.0</ele>
  <time>2026-08-29T19:29:55Z</time>
  <course>65.99</course>
  <speed>0.8</speed>
  <fix>3d</fix>
</trkpt>
<trkpt lat="40.071466" lon="-105.2295214">
  <ele>1583.0</ele>
  <time>2026-08-29T19:29:55Z</time>
  <course>248.54</course>
  <speed>0.06403124237432849</speed>
  <fix>3d</fix>
</trkpt>
<trkpt lat="40.0714667" lon="-105.2295196">
  <ele>1583.0</ele>
  <time>2026-08-29T19:29:55Z</time>
  <course>65.99</course>
  <speed>0.8</speed>
  <fix>3d</fix>
</trkpt>
<trkpt lat="40.0714667" lon="-105.2295196">
  <ele>1583.0</ele>
  <time>2026-08-29T19:29:55Z</time>
  <course>248.54</course>
  <speed>0.06403124237432849</speed>
  <fix>3d</fix>
</trkpt>
<trkpt lat="40.0714667" lon="-105.2295196">
  <ele>1583.0</ele>
  <time>2026-08-29T19:29:55Z</time>
  <course>65.99</course>
  <speed>0.8</speed>
  <fix>3d</fix>
</trkpt>
<trkpt lat="40.0714667" lon="-105.2295196">
  <ele>1583.0</ele>
  <time>2026-08-29T19:29:55Z</time>
  <course>248.53</course>
  <speed>0.06403124237432849</speed>
  <fix>3d</fix>
</trkpt>
<trkpt lat="40.0714672" lon="-105.2295179">
  <ele>1583.0</ele>
  <time>2026-08-29T19:29:55Z</time>
  <course>65.99</course>
  <speed>0.8</speed>
  <fix>3d</fix>
</trkpt>
<trkpt lat="40.0714672" lon="-105.2295179">
  <ele>1583.0</ele>
  <time>2026-08-29T19:29:55Z</time>
  <course>248.52</course>
  <speed>0.06403124237432849</speed>
  <fix>3d</fix>
</trkpt>
<trkpt lat="40.0714672" lon="-105.2295179">
  <ele>1583.0</ele>
  <time>2026-08-29T19:29:55Z</time>
  <course>65.99</course>
  <speed>0.8</speed>
  <fix>3d</fix>
</trkpt>
<trkpt lat="40.0714672" lon="-105.2295179">
  <ele>1583.0</ele>
  <time>2026-08-29T19:29:55Z</time>
  <course>248.51</course>
  <speed>0.06403124237432849</speed>
  <fix>3d</fix>
</trkpt>
<trkpt lat="40.0714672" lon="-105.2295179">
  <ele>1583.0</ele>
  <time>2026-08-29T19:29:55Z</time>
  <course>65.99</course>
  <speed>0.8</speed>
  <fix>3d</fix>
</trkpt>
<trkpt lat="40.0714679" lon="-105.2295162">
  <ele>1583.0</ele>
  <time>2026-08-29T19:29:55Z</time>
  <course>248.51</course>
  <speed>0.06403124237432849</speed>
  <fix>3d</fix>
</trkpt>
<trkpt lat="40.0714679" lon="-105.2295162">
  <ele>1583.0</ele>
  <time>2026-08-29T19:29:55Z</time>
  <course>65.99</course>
  <speed>0.8</speed>
  <fix>3d</fix>
</trkpt>
<trkpt lat="40.0714679" lon="-105.2295162">
  <ele>1583.0</ele>
  <time>2026-08-29T19:29:55Z</time>
  <course>248.5</course>
  <speed>0.06403124237432849</speed>
  <fix>3d</fix>
</trkpt>
<trkpt lat="40.0714679" lon="-105.2295162">
  <ele>1583.0</ele>
  <time>2026-08-29T19:29:55Z</time>
  <course>65.99</course>
  <speed>0.8</speed>
  <fix>3d</fix>
</trkpt>
<trkpt lat="40.0714684" lon="-105.2295145">
  <ele>1583.0</ele>
  <time>2026-08-29T19:29:55Z</time>
  <course>248.49</course>
  <speed>0.06403124237432849</speed>
  <fix>3d</fix>
</trkpt>
<trkpt lat="40.0714684" lon="-105.2295145">
  <ele>1583.0</ele>
  <time>2026-08-29T19:29:55Z</time>
  <course>65.99</course>
  <speed>0.8</speed>
  <fix>3d</fix>
</trkpt>
<trkpt lat="40.0714684" lon="-105.2295145">
  <ele>1583.0</ele>
  <time>2026-08-29T19:29:55Z</time>
  <course>248.48</course>
  <speed>0.06403124237432849</speed>
  <fix>3d</fix>
</trkpt>
<trkpt lat="40.0714684" lon="-105.2295145">
  <ele>1583.0</ele>
  <time>2026-08-29T19:29:55Z</time>
  <course>65.99</course>
  <speed>0.8</speed>
  <fix>3d</fix>
</trkpt>
<trkpt lat="40.0714691" lon="-105.2295128">
  <ele>1583.0</ele>
  <time>2026-08-29T19:29:55Z</time>
  <course>248.48</course>
  <speed>0.06403124237432849</speed>
  <fix>3d</fix>
</trkpt>
<trkpt lat="40.0714691" lon="-105.2295128">
  <ele>1583.0</ele>
  <time>2026-08-29T19:29:55Z</time>
  <course>65.99</course>
  <speed>0.8</speed>
  <fix>3d</fix>
</trkpt>
<trkpt lat="40.0714691" lon="-105.2295128">
  <ele>1583.0</ele>
  <time>2026-08-29T19:29:55Z</time>
  <course>248.47</course>
  <speed>0.06403124237432849</speed>
  <fix>3d</fix>
</trkpt>
<trkpt lat="40.0714691" lon="-105.2295128">
  <ele>1583.0</ele>
  <time>2026-08-29T19:29:55Z</time>
  <course>65.99</course>
  <speed>0.8</speed>
  <fix>3d</fix>
</trkpt>
<trkpt lat="40.0714696" lon="-105.229511">
  <ele>1583.0</ele>
  <time>2026-08-29T19:29:55Z</time>
  <course>248.46</course>
  <speed>0.06403124237432849</speed>
  <fix>3d</fix>
</trkpt>
<trkpt lat="40.0714696" lon="-105.229511">
  <ele>1583.0</ele>
  <time>2026-08-29T19:29:55Z</time>
  <course>65.99</course>
  <speed>0.8</speed>
  <fix>3d</fix>
</trkpt>
<trkpt lat="40.0714696" lon="-105.229511">
  <ele>1583.0</ele>
  <time>2026-08-29T19:29:55Z</time>
  <course>248.45</course>
  <speed>0.06403124237432849</speed>
  <fix>3d</fix>
</trkpt>
<trkpt lat="40.0714702" lon="-105.2295093">
  <ele>1583.0</ele>
  <time>2026-08-29T19:29:55Z</time>
  <course>65.99</course>
  <speed>0.8</speed>
  <fix>3d</fix>
</trkpt>
<trkpt lat="40.0714702" lon="-105.2295093">
  <ele>1583.0</ele>
  <time>2026-08-29T19:29:55Z</time>
  <course>248.45</course>
  <speed>0.06403124237432849</speed>
  <fix>3d</fix>
</trkpt>
<trkpt lat="40.0714702" lon="-105.2295093">
  <ele>1583.0</ele>
  <time>2026-08-29T19:29:55Z</time>
  <course>65.99</course>
  <speed>0.8</speed>
  <fix>3d</fix>
</trkpt>
<trkpt lat="40.0714702" lon="-105.2295093">
  <ele>1583.0</ele>
  <time>2026-08-29T19:29:55Z</time>
  <course>248.44</course>
  <speed>0.06403124237432849</speed>
  <fix>3d</fix>
</trkpt>
<trkpt lat="40.0714708" lon="-105.2295076">
  <ele>1583.0</ele>
  <time>2026-08-29T19:29:55Z</time>
  <course>65.99</course>
  <speed>0.8</speed>
  <fix>3d</fix>
</trkpt>
<trkpt lat="40.0714708" lon="-105.2295076">
  <ele>1583.0</ele>
  <time>2026-08-29T19:29:55Z</time>
  <course>248.43</course>
  <speed>0.06403124237432849</speed>
  <fix>3d</fix>
</trkpt>
<trkpt lat="40.0714708" lon="-105.2295076">
  <ele>1583.0</ele>
  <time>2026-08-29T19:29:55Z</time>
  <course>65.99</course>
  <speed>0.8</speed>
  <fix>3d</fix>
</trkpt>
<trkpt lat="40.0714708" lon="-105.2295076">
  <ele>1583.0</ele>
  <time>2026-08-29T19:29:55Z</time>
  <course>248.42</course>
  <speed>0.06403124237432849</speed>
  <fix>3d</fix>
</trkpt>
<trkpt lat="40.0714713" lon="-105.2295059">
  <ele>1583.0</ele>
  <time>2026-08-29T19:29:55Z</time>
  <course>65.99</course>
  <speed>0.8</speed>
  <fix>3d</fix>
</trkpt>
<trkpt lat="40.0714713" lon="-105.2295059">
  <ele>1583.0</ele>
  <time>2026-08-29T19:29:55Z</time>
  <course>248.42</course>
  <speed>0.06403124237432849</speed>
  <fix>3d</fix>
</trkpt>
<trkpt lat="40.0714713" lon="-105.2295059">
  <ele>1583.0</ele>
  <time>2026-08-29T19:29:55Z</time>
  <course>65.99</course>
  <speed>0.8</speed>
  <fix>3d</fix>
</trkpt>
<trkpt lat="40.0714713" lon="-105.2295059">
  <ele>1583.0</ele>
  <time>2026-08-29T19:29:55Z</time>
  <course>248.41</course>
  <speed>0.06403124237432849</speed>
  <fix>3d</fix>
</trkpt>
<trkpt lat="40.071472" lon="-105.2295041">
  <ele>1583.0</ele>
  <time>2026-08-29T19:29:55Z</time>
  <course>65.99</course>
  <speed>0.8</speed>
  <fix>3d</fix>
</trkpt>
<trkpt lat="40.071472" lon="-105.2295041">
  <ele>1583.0</ele>
  <time>2026-08-29T19:29:55Z</time>
  <course>248.4</course>
  <speed>0.06403124237432849</speed>
  <fix>3d</fix>
</trkpt>
<trkpt lat="40.071472" lon="-105.2295041">
  <ele>1583.0</ele>
  <time>2026-08-29T19:29:55Z</time>
  <course>65.99</course>
  <speed>0.8</speed>
  <fix>3d</fix>
</trkpt>
<trkpt lat="40.071472" lon="-105.2295041">
  <ele>1583.0</ele>
  <time>2026-08-29T19:29:55Z</time>
  <course>248.4</course>
  <speed>0.06403124237432849</speed>
  <fix>3d</fix>
</trkpt>
<trkpt lat="40.0714725" lon="-105.2295024">
  <ele>1583.0</ele>
  <time>2026-08-29T19:29:55Z</time>
  <course>65.99</course>
  <speed>0.8</speed>
  <fix>3d</fix>
</trkpt>
<trkpt lat="40.0714725" lon="-105.2295024">
  <ele>1583.0</ele>
  <time>2026-08-29T19:29:55Z</time>
  <course>248.39</course>
  <speed>0.06403124237432849</speed>
  <fix>3d</fix>
</trkpt>
<trkpt lat="40.0714725" lon="-105.2295024">
  <ele>1583.0</ele>
  <time>2026-08-29T19:29:55Z</time>
  <course>65.99</course>
  <speed>0.8</speed>
  <fix>3d</fix>
</trkpt>
<trkpt lat="40.0714725" lon="-105.2295024">
  <ele>1583.0</ele>
  <time>2026-08-29T19:29:55Z</time>
  <course>248.38</course>
  <speed>0.06403124237432849</speed>
  <fix>3d</fix>
</trkpt>
<trkpt lat="40.0714732" lon="-105.2295007">
  <ele>1583.0</ele>
  <time>2026-08-29T19:29:55Z</time>
  <course>65.99</course>
  <speed>0.8</speed>
  <fix>3d</fix>
</trkpt>
<trkpt lat="40.0714732" lon="-105.2295007">
  <ele>1583.0</ele>
  <time>2026-08-29T19:29:55Z</time>
  <course>248.38</course>
  <speed>0.06403124237432849</speed>
  <fix>3d</fix>
</trkpt>
<trkpt lat="40.0714732" lon="-105.2295007">
  <ele>1583.0</ele>
  <time>2026-08-29T19:29:55Z</time>
  <course>65.99</course>
  <speed>0.8</speed>
  <fix>3d</fix>
</trkpt>
<trkpt lat="40.0714732" lon="-105.2295007">
  <ele>1583.0</ele>
  <time>2026-08-29T19:29:55Z</time>
  <course>248.37</course>
  <speed>0.06403124237432849</speed>
  <fix>3d</fix>
</trkpt>
<trkpt lat="40.0714732" lon="-105.2295007">
  <ele>1583.0</ele>
  <time>2026-08-29T19:29:55Z</time>
  <course>65.99</course>
  <speed>0.8</speed>
  <fix>3d</fix>
</trkpt>
<trkpt lat="40.0714737" lon="-105.229499">
  <ele>1583.0</ele>
  <time>2026-08-29T19:29:55Z</time>
  <course>248.36</course>
  <speed>0.06403124237432849</speed>
  <fix>3d</fix>
</trkpt>
<trkpt lat="40.0714737" lon="-105.229499">
  <ele>1583.0</ele>
  <time>2026-08-29T19:29:55Z</time>
  <course>65.99</course>
  <speed>0.8</speed>
  <fix>3d</fix>
</trkpt>
<trkpt lat="40.0714737" lon="-105.229499">
  <ele>1583.0</ele>
  <time>2026-08-29T19:29:55Z</time>
  <course>248.35</course>
  <speed>0.0565685424949238</speed>
  <fix>3d</fix>
</trkpt>
<trkpt lat="40.0714737" lon="-105.229499">
  <ele>1583.0</ele>
  <time>2026-08-29T19:29:55Z</time>
  <course>65.99</course>
  <speed>0.8</speed>
  <fix>3d</fix>
</trkpt>
<trkpt lat="40.0714743" lon="-105.2294973">
  <ele>1583.0</ele>
  <time>2026-08-29T19:29:55Z</time>
  <course>248.35</course>
  <speed>0.0565685424949238</speed>
  <fix>3d</fix>
</trkpt>
<trkpt lat="40.0714743" lon="-105.2294973">
  <ele>1583.0</ele>
  <time>2026-08-29T19:29:55Z</time>
  <course>65.99</course>
  <speed>0.8</speed>
  <fix>3d</fix>
</trkpt>
<trkpt lat="40.0714743" lon="-105.2294973">
  <ele>1583.0</ele>
  <time>2026-08-29T19:29:55Z</time>
  <course>248.34</course>
  <speed>0.0565685424949238</speed>
  <fix>3d</fix>
</trkpt>
<trkpt lat="40.0714743" lon="-105.2294973">
  <ele>1583.0</ele>
  <time>2026-08-29T19:29:55Z</time>
  <course>65.99</course>
  <speed>0.8</speed>
  <fix>3d</fix>
</trkpt>
<trkpt lat="40.0714749" lon="-105.2294955">
  <ele>1583.0</ele>
  <time>2026-08-29T19:29:55Z</time>
  <course>248.33</course>
  <speed>0.0565685424949238</speed>
  <fix>3d</fix>
</trkpt>
<trkpt lat="40.0714749" lon="-105.2294955">
  <ele>1583.0</ele>
  <time>2026-08-29T19:29:55Z</time>
  <course>65.99</course>
  <speed>0.8</speed>
  <fix>3d</fix>
</trkpt>
<trkpt lat="40.0714749" lon="-105.2294955">
  <ele>1583.0</ele>
  <time>2026-08-29T19:29:55Z</time>
  <course>248.33</course>
  <speed>0.0565685424949238</speed>
  <fix>3d</fix>
</trkpt>
<trkpt lat="40.0714749" lon="-105.2294955">
  <ele>1583.0</ele>
  <time>2026-08-29T19:29:55Z</time>
  <course>65.99</course>
  <speed>0.8</speed>
  <fix>3d</fix>
</trkpt>
<trkpt lat="40.0714754" lon="-105.2294938">
  <ele>1583.0</ele>
  <time>2026-08-29T19:29:55Z</time>
  <course>248.32</course>
  <speed>0.0565685424949238</speed>
  <fix>3d</fix>
</trkpt>
<trkpt lat="40.0714754" lon="-105.2294938">
  <ele>1583.0</ele>
  <time>2026-08-29T19:29:55Z</time>
  <course>65.99</course>
  <speed>0.8</speed>
  <fix>3d</fix>
</trkpt>
<trkpt lat="40.0714754" lon="-105.2294938">
  <ele>1583.0</ele>
  <time>2026-08-29T19:29:55Z</time>
  <course>248.31</course>
  <speed>0.0565685424949238</speed>
  <fix>3d</fix>
</trkpt>
<trkpt lat="40.0714761" lon="-105.2294921">
  <ele>1583.0</ele>
  <time>2026-08-29T19:29:55Z</time>
  <course>65.99</course>
  <speed>0.8</speed>
  <fix>3d</fix>
</trkpt>
<trkpt lat="40.0714763" lon="-105.2294914">
  <ele>1583.09</ele>
  <time>2026-08-29T19:29:55Z</time>
  <course>248.31</course>
  <speed>0.797057087039567</speed>
  <fix>3d</fix>
</trkpt>
<trkpt lat="40.0714761" lon="-105.2294921">
  <ele>1583.0</ele>
  <time>2026-08-29T19:29:55Z</time>
  <course>65.99</course>
  <speed>0.8</speed>
  <fix>3d</fix>
</trkpt>
<trkpt lat="40.0714767" lon="-105.2294902">
  <ele>1583.08</ele>
  <time>2026-08-29T19:29:55Z</time>
  <course>248.3</course>
  <speed>0.797057087039567</speed>
  <fix>3d</fix>
</trkpt>
<trkpt lat="40.0714767" lon="-105.2294904">
  <ele>1583.0</ele>
  <time>2026-08-29T19:29:55Z</time>
  <course>65.99</course>
  <speed>0.8</speed>
  <fix>3d</fix>
</trkpt>
<trkpt lat="40.0714771" lon="-105.229489">
  <ele>1583.06</ele>
  <time>2026-08-29T19:29:55Z</time>
  <course>248.29</course>
  <speed>0.797057087039567</speed>
  <fix>3d</fix>
</trkpt>
<trkpt lat="40.0714767" lon="-105.2294904">
  <ele>1583.0</ele>
  <time>2026-08-29T19:29:55Z</time>
  <course>65.99</course>
  <speed>0.8</speed>
  <fix>3d</fix>
</trkpt>
<trkpt lat="40.0714774" lon="-105.229488">
  <ele>1583.05</ele>
  <time>2026-08-29T19:29:55Z</time>
  <course>248.29</course>
  <speed>0.8011242100947892</speed>
  <fix>3d</fix>
</trkpt>
<trkpt lat="40.0714773" lon="-105.2294887">
  <ele>1583.0</ele>
  <time>2026-08-29T19:29:55Z</time>
  <course>65.99</course>
  <speed>0.8</speed>
  <fix>3d</fix>
</trkpt>
<trkpt lat="40.0714778" lon="-105.229487">
  <ele>1583.04</ele>
  <time>2026-08-29T19:29:55Z</time>
  <course>248.28</course>
  <speed>0.8011242100947892</speed>
  <fix>3d</fix>
</trkpt>
<trkpt lat="40.0714773" lon="-105.2294887">
  <ele>1583.0</ele>
  <time>2026-08-29T19:29:55Z</time>
  <course>65.99</course>
  <speed>0.8</speed>
  <fix>3d</fix>
</trkpt>
<trkpt lat="40.0714781" lon="-105.229486">
  <ele>1583.03</ele>
  <time>2026-08-29T19:29:55Z</time>
  <course>248.28</course>
  <speed>0.8011242100947892</speed>
  <fix>3d</fix>
</trkpt>
<trkpt lat="40.0714779" lon="-105.2294869">
  <ele>1583.0</ele>
  <time>2026-08-29T19:29:55Z</time>
  <course>65.99</course>
  <speed>0.8</speed>
  <fix>3d</fix>
</trkpt>
<trkpt lat="40.0714785" lon="-105.2294851">
  <ele>1583.02</ele>
  <time>2026-08-29T19:29:55Z</time>
  <course>248.27</course>
  <speed>0.8011242100947892</speed>
  <fix>3d</fix>
</trkpt>
<trkpt lat="40.0714779" lon="-105.2294869">
  <ele>1583.0</ele>
  <time>2026-08-29T19:29:55Z</time>
  <course>65.99</course>
  <speed>0.8</speed>
  <fix>3d</fix>
</trkpt>
<trkpt lat="40.0714788" lon="-105.2294842">
  <ele>1583.02</ele>
  <time>2026-08-29T19:29:55Z</time>
  <course>248.26</course>
  <speed>0.8102468759581859</speed>
  <fix>3d</fix>
</trkpt>
<trkpt lat="40.0714784" lon="-105.2294852">
  <ele>1583.0</ele>
  <time>2026-08-29T19:29:55Z</time>
  <course>65.99</course>
  <speed>0.8</speed>
  <fix>3d</fix>
</trkpt>
<trkpt lat="40.0714791" lon="-105.2294833">
  <ele>1583.02</ele>
  <time>2026-08-29T19:29:55Z</time>
  <course>248.26</course>
  <speed>0.8102468759581859</speed>
  <fix>3d</fix>
</trkpt>
<trkpt lat="40.0714784" lon="-105.2294852">
  <ele>1583.0</ele>
  <time>2026-08-29T19:29:55Z</time>
  <course>65.99</course>
  <speed>0.8</speed>
  <fix>3d</fix>
</trkpt>
<trkpt lat="40.0714794" lon="-105.2294824">
  <ele>1583.02</ele>
  <time>2026-08-29T19:29:55Z</time>
  <course>248.25</course>
  <speed>0.8102468759581859</speed>
  <fix>3d</fix>
</trkpt>
<trkpt lat="40.0714789" lon="-105.2294835">
  <ele>1583.0</ele>
  <time>2026-08-29T19:29:55Z</time>
  <course>65.99</course>
  <speed>0.8</speed>
  <fix>3d</fix>
</trkpt>
<trkpt lat="40.0714797" lon="-105.2294815">
  <ele>1583.02</ele>
  <time>2026-08-29T19:29:55Z</time>
  <course>248.25</course>
  <speed>0.8143709228600933</speed>
  <fix>3d</fix>
</trkpt>
<trkpt lat="40.0714789" lon="-105.2294835">
  <ele>1583.0</ele>
  <time>2026-08-29T19:29:55Z</time>
  <course>65.99</course>
  <speed>0.8</speed>
  <fix>3d</fix>
</trkpt>
<trkpt lat="40.07148" lon="-105.2294806">
  <ele>1583.03</ele>
  <time>2026-08-29T19:29:55Z</time>
  <course>248.24</course>
  <speed>0.8143709228600933</speed>
  <fix>3d</fix>
</trkpt>
<trkpt lat="40.0714796" lon="-105.2294818">
  <ele>1583.0</ele>
  <time>2026-08-29T19:29:55Z</time>
  <course>65.99</course>
  <speed>0.8</speed>
  <fix>3d</fix>
</trkpt>
<trkpt lat="40.0714803" lon="-105.2294797">
  <ele>1583.03</ele>
  <time>2026-08-29T19:29:55Z</time>
  <course>248.23</course>
  <speed>0.8143709228600933</speed>
  <fix>3d</fix>
</trkpt>
<trkpt lat="40.0714796" lon="-105.2294818">
  <ele>1583.0</ele>
  <time>2026-08-29T19:29:55Z</time>
  <course>65.99</course>
  <speed>0.8</speed>
  <fix>3d</fix>
</trkpt>
<trkpt lat="40.0714806" lon="-105.2294788">
  <ele>1583.04</ele>
  <time>2026-08-29T19:29:55Z</time>
  <course>248.23</course>
  <speed>0.8143709228600933</speed>
  <fix>3d</fix>
</trkpt>
<trkpt lat="40.0714796" lon="-105.2294818">
  <ele>1583.0</ele>
  <time>2026-08-29T19:29:55Z</time>
  <course>65.99</course>
  <speed>0.8</speed>
  <fix>3d</fix>
</trkpt>
<trkpt lat="40.0714809" lon="-105.229478">
  <ele>1583.04</ele>
  <time>2026-08-29T19:29:55Z</time>
  <course>248.22</course>
  <speed>0.8143709228600933</speed>
  <fix>3d</fix>
</trkpt>
<trkpt lat="40.0714801" lon="-105.2294801">
  <ele>1583.0</ele>
  <time>2026-08-29T19:29:55Z</time>
  <course>65.99</course>
  <speed>0.8</speed>
  <fix>3d</fix>
</trkpt>
<trkpt lat="40.0714812" lon="-105.2294771">
  <ele>1583.04</ele>
  <time>2026-08-29T19:29:55Z</time>
  <course>248.22</course>
  <speed>0.8143709228600933</speed>
  <fix>3d</fix>
</trkpt>
<trkpt lat="40.0714801" lon="-105.2294801">
  <ele>1583.0</ele>
  <time>2026-08-29T19:29:55Z</time>
  <course>65.99</course>
  <speed>0.8</speed>
  <fix>3d</fix>
</trkpt>
<trkpt lat="40.0714815" lon="-105.2294763">
  <ele>1583.05</ele>
  <time>2026-08-29T19:29:55Z</time>
  <course>248.21</course>
  <speed>0.8234682750416071</speed>
  <fix>3d</fix>
</trkpt>
<trkpt lat="40.0714808" lon="-105.2294784">
  <ele>1583.0</ele>
  <time>2026-08-29T19:29:55Z</time>
  <course>65.99</course>
  <speed>0.8</speed>
  <fix>3d</fix>
</trkpt>
<trkpt lat="40.0714818" lon="-105.2294754">
  <ele>1583.05</ele>
  <time>2026-08-29T19:29:55Z</time>
  <course>248.21</course>
  <speed>0.8234682750416071</speed>
  <fix>3d</fix>
</trkpt>
<trkpt lat="40.0714808" lon="-105.2294784">
  <ele>1583.0</ele>
  <time>2026-08-29T19:29:55Z</time>
  <course>65.99</course>
  <speed>0.8</speed>
  <fix>3d</fix>
</trkpt>
<trkpt lat="40.0714821" lon="-105.2294746">
  <ele>1583.06</ele>
  <time>2026-08-29T19:29:55Z</time>
  <course>248.2</course>
  <speed>0.8234682750416071</speed>
  <fix>3d</fix>
</trkpt>
<trkpt lat="40.0714813" lon="-105.2294766">
  <ele>1583.0</ele>
  <time>2026-08-29T19:29:55Z</time>
  <course>65.99</course>
  <speed>0.8</speed>
  <fix>3d</fix>
</trkpt>
<trkpt lat="40.0714824" lon="-105.2294737">
  <ele>1583.06</ele>
  <time>2026-08-29T19:29:55Z</time>
  <course>248.2</course>
  <speed>0.8234682750416071</speed>
  <fix>3d</fix>
</trkpt>
<trkpt lat="40.071482" lon="-105.2294749">
  <ele>1583.0</ele>
  <time>2026-08-29T19:29:55Z</time>
  <course>65.99</course>
  <speed>0.8</speed>
  <fix>3d</fix>
</trkpt>
<trkpt lat="40.0714826" lon="-105.2294728">
  <ele>1583.07</ele>
  <time>2026-08-29T19:29:55Z</time>
  <course>248.19</course>
  <speed>0.8234682750416071</speed>
  <fix>3d</fix>
</trkpt>
<trkpt lat="40.071482" lon="-105.2294749">
  <ele>1583.0</ele>
  <time>2026-08-29T19:29:55Z</time>
  <course>65.99</course>
  <speed>0.8</speed>
  <fix>3d</fix>
</trkpt>
<trkpt lat="40.071483" lon="-105.229472">
  <ele>1583.08</ele>
  <time>2026-08-29T19:29:55Z</time>
  <course>248.19</course>
  <speed>0.8234682750416071</speed>
  <fix>3d</fix>
</trkpt>
<trkpt lat="40.0714825" lon="-105.2294732">
  <ele>1583.0</ele>
  <time>2026-08-29T19:29:55Z</time>
  <course>65.99</course>
  <speed>0.8</speed>
  <fix>3d</fix>
</trkpt>
<trkpt lat="40.0714834" lon="-105.2294706">
  <ele>1583.08</ele>
  <time>2026-08-29T19:29:55Z</time>
  <course>248.18</course>
  <speed>0.8234682750416071</speed>
  <fix>3d</fix>
</trkpt>
<trkpt lat="40.0714825" lon="-105.2294732">
  <ele>1583.0</ele>
  <time>2026-08-29T19:29:55Z</time>
  <course>65.99</course>
  <speed>0.8</speed>
  <fix>3d</fix>
</trkpt>
<trkpt lat="40.0714835" lon="-105.2294702">
  <ele>1583.08</ele>
  <time>2026-08-29T19:29:55Z</time>
  <course>248.18</course>
  <speed>0.8234682750416071</speed>
  <fix>3d</fix>
</trkpt>
<trkpt lat="40.071483" lon="-105.2294715">
  <ele>1583.0</ele>
  <time>2026-08-29T19:29:55Z</time>
  <course>65.99</course>
  <speed>0.8</speed>
  <fix>3d</fix>
</trkpt>
<trkpt lat="40.0714838" lon="-105.2294694">
  <ele>1583.08</ele>
  <time>2026-08-29T19:29:55Z</time>
  <course>248.17</course>
  <speed>0.8234682750416071</speed>
  <fix>3d</fix>
</trkpt>
<trkpt lat="40.071483" lon="-105.2294715">
  <ele>1583.0</ele>
  <time>2026-08-29T19:29:55Z</time>
  <course>65.99</course>
  <speed>0.8</speed>
  <fix>3d</fix>
</trkpt>
<trkpt lat="40.0714841" lon="-105.2294685">
  <ele>1583.09</ele>
  <time>2026-08-29T19:29:55Z</time>
  <course>248.17</course>
  <speed>0.8234682750416071</speed>
  <fix>3d</fix>
</trkpt>
<trkpt lat="40.0714837" lon="-105.2294698">
  <ele>1583.0</ele>
  <time>2026-08-29T19:29:55Z</time>
  <course>65.99</course>
  <speed>0.8</speed>
  <fix>3d</fix>
</trkpt>
<trkpt lat="40.0714844" lon="-105.2294677">
  <ele>1583.09</ele>
  <time>2026-08-29T19:29:55Z</time>
  <course>248.16</course>
  <speed>0.8234682750416071</speed>
  <fix>3d</fix>
</trkpt>
<trkpt lat="40.0714837" lon="-105.2294698">
  <ele>1583.0</ele>
  <time>2026-08-29T19:29:55Z</time>
  <course>65.99</course>
  <speed>0.8</speed>
  <fix>3d</fix>
</trkpt>
<trkpt lat="40.0714847" lon="-105.2294668">
  <ele>1583.09</ele>
  <time>2026-08-29T19:29:55Z</time>
  <course>248.16</course>
  <speed>0.8234682750416071</speed>
  <fix>3d</fix>
</trkpt>
<trkpt lat="40.0714842" lon="-105.229468">
  <ele>1583.0</ele>
  <time>2026-08-29T19:29:55Z</time>
  <course>65.99</course>
  <speed>0.8</speed>
  <fix>3d</fix>
</trkpt>
<trkpt lat="40.071485" lon="-105.2294659">
  <ele>1583.09</ele>
  <time>2026-08-29T19:29:55Z</time>
  <course>248.15</course>
  <speed>0.8143709228600933</speed>
  <fix>3d</fix>
</trkpt>
<trkpt lat="40.0714842" lon="-105.229468">
  <ele>1583.0</ele>
  <time>2026-08-29T19:29:55Z</time>
  <course>65.99</course>
  <speed>0.8</speed>
  <fix>3d</fix>
</trkpt>
<trkpt lat="40.0714853" lon="-105.2294651">
  <ele>1583.09</ele>
  <time>2026-08-29T19:29:55Z</time>
  <course>248.15</course>
  <speed>0.8143709228600933</speed>
  <fix>3d</fix>
</trkpt>
<trkpt lat="40.0714849" lon="-105.2294663">
  <ele>1583.0</ele>
  <time>2026-08-29T19:29:55Z</time>
  <course>65.99</course>
  <speed>0.8</speed>
  <fix>3d</fix>
</trkpt>
<trkpt lat="40.0714856" lon="-105.2294642">
  <ele>1583.09</ele>
  <time>2026-08-29T19:29:55Z</time>
  <course>248.14</course>
  <speed>0.8143709228600933</speed>
  <fix>3d</fix>
</trkpt>
<trkpt lat="40.0714849" lon="-105.2294663">
  <ele>1583.0</ele>
  <time>2026-08-29T19:29:55Z</time>
  <course>65.99</course>
  <speed>0.8</speed>
  <fix>3d</fix>
</trkpt>
<trkpt lat="40.0714859" lon="-105.2294634">
  <ele>1583.1</ele>
  <time>2026-08-29T19:29:55Z</time>
  <course>248.02</course>
  <speed>0.6754257916307312</speed>
  <fix>3d</fix>
</trkpt>
<trkpt lat="40.0714854" lon="-105.2294647">
  <ele>1583.0</ele>
  <time>2026-08-29T19:29:55Z</time>
  <course>65.94</course>
  <speed>0.72</speed>
  <fix>3d</fix>
</trkpt>
<trkpt lat="40.0714861" lon="-105.2294628">
  <ele>1583.1</ele>
  <time>2026-08-29T19:29:55Z</time>
  <course>248.16</course>
  <speed>0.5322593352868505</speed>
  <fix>3d</fix>
</trkpt>
<trkpt lat="40.0714854" lon="-105.2294647">
  <ele>1583.0</ele>
  <time>2026-08-29T19:29:55Z</time>
  <course>65.94</course>
  <speed>0.72</speed>
  <fix>3d</fix>
</trkpt>
<trkpt lat="40.0714862" lon="-105.2294624">
  <ele>1583.1</ele>
  <time>2026-08-29T19:29:55Z</time>
  <course>248.46</course>
  <speed>0.40249223594996214</speed>
  <fix>3d</fix>
</trkpt>
<trkpt lat="40.0714854" lon="-105.2294647">
  <ele>1583.0</ele>
  <time>2026-08-29T19:29:55Z</time>
  <course>65.94</course>
  <speed>0.72</speed>
  <fix>3d</fix>
</trkpt>
<trkpt lat="40.0714863" lon="-105.2294621">
  <ele>1583.1</ele>
  <time>2026-08-29T19:29:55Z</time>
  <course>248.82</course>
  <speed>0.27294688127912364</speed>
  <fix>3d</fix>
</trkpt>
<trkpt lat="40.0714859" lon="-105.2294632">
  <ele>1583.0</ele>
  <time>2026-08-29T19:29:55Z</time>
  <course>66.05</course>
  <speed>0.52</speed>
  <fix>3d</fix>
</trkpt>
<trkpt lat="40.0714864" lon="-105.2294619">
  <ele>1583.11</ele>
  <time>2026-08-29T19:29:55Z</time>
  <course>249.15</course>
  <speed>0.15811388300841897</speed>
  <fix>3d</fix>
</trkpt>
<trkpt lat="40.0714859" lon="-105.2294632">
  <ele>1583.0</ele>
  <time>2026-08-29T19:29:55Z</time>
  <course>66.05</course>
  <speed>0.52</speed>
  <fix>3d</fix>
</trkpt>
<trkpt lat="40.0714864" lon="-105.2294618">
  <ele>1583.11</ele>
  <time>2026-08-29T19:29:55Z</time>
  <course>249.35</course>
  <speed>0.05</speed>
  <fix>3d</fix>
</trkpt>
<trkpt lat="40.0714861" lon="-105.2294623">
  <ele>1583.0</ele>
  <time>2026-08-29T19:29:55Z</time>
  <course>66.54</course>
  <speed>0.27</speed>
  <fix>3d</fix>
</trkpt>
<trkpt lat="40.0714864" lon="-105.2294619">
  <ele>1583.11</ele>
  <time>2026-08-29T19:29:55Z</time>
  <course>249.41</course>
  <speed>0.07</speed>
  <fix>3d</fix>
</trkpt>
<trkpt lat="40.0714861" lon="-105.2294623">
  <ele>1583.0</ele>
  <time>2026-08-29T19:29:55Z</time>
  <course>66.54</course>
  <speed>0.27</speed>
  <fix>3d</fix>
</trkpt>
<trkpt lat="40.0714864" lon="-105.229462">
  <ele>1583.11</ele>
  <time>2026-08-29T19:29:55Z</time>
  <course>249.74</course>
  <speed>0.1824828759089466</speed>
  <fix>3d</fix>
</trkpt>
<trkpt lat="40.0714863" lon="-105.229462">
  <ele>1583.0</ele>
  <time>2026-08-29T19:29:55Z</time>
  <course>66.85</course>
  <speed>0.04</speed>
  <fix>3d</fix>
</trkpt>
<trkpt lat="40.0714863" lon="-105.2294623">
  <ele>1583.12</ele>
  <time>2026-08-29T19:29:55Z</time>
  <course>250.48</course>
  <speed>0.28861739379323625</speed>
  <fix>3d</fix>
</trkpt>
<trkpt lat="40.0714863" lon="-105.229462">
  <ele>1583.0</ele>
  <time>2026-08-29T19:29:55Z</time>
  <course>66.85</course>
  <speed>0.04</speed>
  <fix>3d</fix>
</trkpt>
<trkpt lat="40.0714863" lon="-105.2294627">
  <ele>1583.11</ele>
  <time>2026-08-29T19:29:55Z</time>
  <course>251.72</course>
  <speed>0.41231056256176607</speed>
  <fix>3d</fix>
</trkpt>
<trkpt lat="40.0714863" lon="-105.2294621">
  <ele>1583.0</ele>
  <time>2026-08-29T19:29:55Z</time>
  <course>248.2</course>
  <speed>0.17</speed>
  <fix>3d</fix>
</trkpt>
<trkpt lat="40.0714861" lon="-105.2294633">
  <ele>1583.11</ele>
  <time>2026-08-29T19:29:55Z</time>
  <course>253.57</course>
  <speed>0.5336665625650534</speed>
  <fix>3d</fix>
</trkpt>
<trkpt lat="40.0714861" lon="-105.2294627">
  <ele>1583.0</ele>
  <time>2026-08-29T19:29:55Z</time>
  <course>250.4</course>
  <speed>0.4</speed>
  <fix>3d</fix>
</trkpt>
<trkpt lat="40.071486" lon="-105.229464">
  <ele>1583.11</ele>
  <time>2026-08-29T19:29:55Z</time>
  <course>256.13</course>
  <speed>0.6530696746902278</speed>
  <fix>3d</fix>
</trkpt>
<trkpt lat="40.0714861" lon="-105.2294627">
  <ele>1583.0</ele>
  <time>2026-08-29T19:29:55Z</time>
  <course>250.4</course>
  <speed>0.4</speed>
  <fix>3d</fix>
</trkpt>
<trkpt lat="40.0714858" lon="-105.2294648">
  <ele>1583.11</ele>
  <time>2026-08-29T19:29:55Z</time>
  <course>259.45</course>
  <speed>0.7792945527847606</speed>
  <fix>3d</fix>
</trkpt>
<trkpt lat="40.0714859" lon="-105.2294639">
  <ele>1583.0</ele>
  <time>2026-08-29T19:29:55Z</time>
  <course>255.03</course>
  <speed>0.64</speed>
  <fix>3d</fix>
</trkpt>
<trkpt lat="40.0714857" lon="-105.2294658">
  <ele>1583.11</ele>
  <time>2026-08-29T19:29:55Z</time>
  <course>263.59</course>
  <speed>0.8935882720806042</speed>
  <fix>3d</fix>
</trkpt>
<trkpt lat="40.0714859" lon="-105.2294639">
  <ele>1583.0</ele>
  <time>2026-08-29T19:29:55Z</time>
  <course>255.03</course>
  <speed>0.64</speed>
  <fix>3d</fix>
</trkpt>
<trkpt lat="40.0714856" lon="-105.229467">
  <ele>1583.11</ele>
  <time>2026-08-29T19:29:55Z</time>
  <course>268.31</course>
  <speed>1.0200490184299968</speed>
  <fix>3d</fix>
</trkpt>
<trkpt lat="40.0714856" lon="-105.2294656">
  <ele>1583.0</ele>
  <time>2026-08-29T19:29:55Z</time>
  <course>262.49</course>
  <speed>0.87</speed>
  <fix>3d</fix>
</trkpt>
<trkpt lat="40.0714856" lon="-105.2294683">
  <ele>1583.12</ele>
  <time>2026-08-29T19:29:55Z</time>
  <course>273.05</course>
  <speed>1.1321660655575223</speed>
  <fix>3d</fix>
</trkpt>
<trkpt lat="40.0714856" lon="-105.2294656">
  <ele>1583.0</ele>
  <time>2026-08-29T19:29:55Z</time>
  <course>262.49</course>
  <speed>0.87</speed>
  <fix>3d</fix>
</trkpt>
<trkpt lat="40.0714856" lon="-105.2294697">
  <ele>1583.12</ele>
  <time>2026-08-29T19:29:55Z</time>
  <course>277.62</course>
  <speed>1.2416923934694937</speed>
  <fix>3d</fix>
</trkpt>
<trkpt lat="40.0714855" lon="-105.229468">
  <ele>1583.0</ele>
  <time>2026-08-29T19:29:55Z</time>
  <course>271.46</course>
  <speed>1.1</speed>
  <fix>3d</fix>
</trkpt>
<trkpt lat="40.0714858" lon="-105.2294712">
  <ele>1583.12</ele>
  <time>2026-08-29T19:29:55Z</time>
  <course>281.87</course>
  <speed>1.3493702234746399</speed>
  <fix>3d</fix>
</trkpt>
<trkpt lat="40.0714855" lon="-105.229468">
  <ele>1583.0</ele>
  <time>2026-08-29T19:29:55Z</time>
  <course>271.46</course>
  <speed>1.1</speed>
  <fix>3d</fix>
</trkpt>
<trkpt lat="40.0714861" lon="-105.2294729">
  <ele>1583.12</ele>
  <time>2026-08-29T19:29:55Z</time>
  <course>285.78</course>
  <speed>1.4560219778561037</speed>
  <fix>3d</fix>
</trkpt>
<trkpt lat="40.0714857" lon="-105.2294708">
  <ele>1583.0</ele>
  <time>2026-08-29T19:29:55Z</time>
  <course>280.04</course>
  <speed>1.31</speed>
  <fix>3d</fix>
</trkpt>
<trkpt lat="40.0714865" lon="-105.2294746">
  <ele>1583.11</ele>
  <time>2026-08-29T19:29:55Z</time>
  <course>289.03</course>
  <speed>1.5465122049308244</speed>
  <fix>3d</fix>
</trkpt>
<trkpt lat="40.0714857" lon="-105.2294708">
  <ele>1583.0</ele>
  <time>2026-08-29T19:29:55Z</time>
  <course>280.04</course>
  <speed>1.31</speed>
  <fix>3d</fix>
</trkpt>
<trkpt lat="40.071487" lon="-105.2294763">
  <ele>1583.11</ele>
  <time>2026-08-29T19:29:55Z</time>
  <course>291.67</course>
  <speed>1.6341358572652396</speed>
  <fix>3d</fix>
</trkpt>
<trkpt lat="40.0714863" lon="-105.229474">
  <ele>1583.0</ele>
  <time>2026-08-29T19:29:55Z</time>
  <course>286.94</course>
  <speed>1.5</speed>
  <fix>3d</fix>
</trkpt>
<trkpt lat="40.0714876" lon="-105.2294781">
  <ele>1583.11</ele>
  <time>2026-08-29T19:29:55Z</time>
  <course>293.84</course>
  <speed>1.70578427709954</speed>
  <fix>3d</fix>
</trkpt>
<trkpt lat="40.0714863" lon="-105.229474">
  <ele>1583.0</ele>
  <time>2026-08-29T19:29:55Z</time>
  <course>286.94</course>
  <speed>1.5</speed>
  <fix>3d</fix>
</trkpt>
<trkpt lat="40.0714882" lon="-105.22948">
  <ele>1583.11</ele>
  <time>2026-08-29T19:29:55Z</time>
  <course>295.63</course>
  <speed>1.7756407294269863</speed>
  <fix>3d</fix>
</trkpt>
<trkpt lat="40.0714872" lon="-105.2294775">
  <ele>1583.0</ele>
  <time>2026-08-29T19:29:55Z</time>
  <course>291.8</course>
  <speed>1.66</speed>
  <fix>3d</fix>
</trkpt>
<trkpt lat="40.0714889" lon="-105.2294819">
  <ele>1583.12</ele>
  <time>2026-08-29T19:29:56Z</time>
  <course>297.12</course>
  <speed>1.8291528093628484</speed>
  <fix>3d</fix>
</trkpt>
<trkpt lat="40.0714872" lon="-105.2294775">
  <ele>1583.0</ele>
  <time>2026-08-29T19:29:56Z</time>
  <course>291.8</course>
  <speed>1.66</speed>
  <fix>3d</fix>
</trkpt>
<trkpt lat="40.0714897" lon="-105.2294839">
  <ele>1583.11</ele>
  <time>2026-08-29T19:29:56Z</time>
  <course>298.4</course>
  <speed>1.8835339126227593</speed>
  <fix>3d</fix>
</trkpt>
<trkpt lat="40.0714872" lon="-105.2294775">
  <ele>1583.0</ele>
  <time>2026-08-29T19:29:56Z</time>
  <course>291.8</course>
  <speed>1.66</speed>
  <fix>3d</fix>
</trkpt>
<trkpt lat="40.0714904" lon="-105.2294858">
  <ele>1583.12</ele>
  <time>2026-08-29T19:29:56Z</time>
  <course>299.46</course>
  <speed>1.93</speed>
  <fix>3d</fix>
</trkpt>
<trkpt lat="40.0714885" lon="-105.2294812">
  <ele>1583.0</ele>
  <time>2026-08-29T19:29:56Z</time>
  <course>295.15</course>
  <speed>1.78</speed>
  <fix>3d</fix>
</trkpt>
<trkpt lat="40.0714913" lon="-105.2294878">
  <ele>1583.12</ele>
  <time>2026-08-29T19:29:56Z</time>
  <course>300.35</course>
  <speed>1.9672569735548024</speed>
  <fix>3d</fix>
</trkpt>
<trkpt lat="40.0714885" lon="-105.2294812">
  <ele>1583.0</ele>
  <time>2026-08-29T19:29:56Z</time>
  <course>295.15</course>
  <speed>1.78</speed>
  <fix>3d</fix>
</trkpt>
<trkpt lat="40.0714921" lon="-105.2294898">
  <ele>1583.12</ele>
  <time>2026-08-29T19:29:56Z</time>
  <course>301.1</course>
  <speed>2.0048191938426765</speed>
  <fix>3d</fix>
</trkpt>
<trkpt lat="40.07149" lon="-105.2294851">
  <ele>1583.0</ele>
  <time>2026-08-29T19:29:56Z</time>
  <course>297.52</course>
  <speed>1.88</speed>
  <fix>3d</fix>
</trkpt>
<trkpt lat="40.071493" lon="-105.2294918">
  <ele>1583.12</ele>
  <time>2026-08-29T19:29:56Z</time>
  <course>301.75</course>
  <speed>2.0289159667172023</speed>
  <fix>3d</fix>
</trkpt>
<trkpt lat="40.07149" lon="-105.2294851">
  <ele>1583.0</ele>
  <time>2026-08-29T19:29:56Z</time>
  <course>297.52</course>
  <speed>1.88</speed>
  <fix>3d</fix>
</trkpt>
<trkpt lat="40.0714939" lon="-105.2294938">
  <ele>1583.12</ele>
  <time>2026-08-29T19:29:56Z</time>
  <course>302.29</course>
  <speed>2.0616983290481663</speed>
  <fix>3d</fix>
</trkpt>
<trkpt lat="40.0714916" lon="-105.2294891">
  <ele>1583.0</ele>
  <time>2026-08-29T19:29:56Z</time>
  <course>299.21</course>
  <speed>1.95</speed>
  <fix>3d</fix>
</trkpt>
<trkpt lat="40.0714949" lon="-105.2294958">
  <ele>1583.12</ele>
  <time>2026-08-29T19:29:56Z</time>
  <course>302.76</course>
  <speed>2.086144769664848</speed>
  <fix>3d</fix>
</trkpt>
<trkpt lat="40.0714933" lon="-105.2294931">
  <ele>1583.0</ele>
  <time>2026-08-29T19:29:56Z</time>
  <course>300.43</course>
  <speed>2.01</speed>
  <fix>3d</fix>
</trkpt>
<trkpt lat="40.0714958" lon="-105.2294979">
  <ele>1583.12</ele>
  <time>2026-08-29T19:29:56Z</time>
  <course>303.17</course>
  <speed>2.10535032714273</speed>
  <fix>3d</fix>
</trkpt>
<trkpt lat="40.0714933" lon="-105.2294931">
  <ele>1583.0</ele>
  <time>2026-08-29T19:29:56Z</time>
  <course>300.43</course>
  <speed>2.01</speed>
  <fix>3d</fix>
</trkpt>
<trkpt lat="40.0714968" lon="-105.2295">
  <ele>1583.13</ele>
  <time>2026-08-29T19:29:56Z</time>
  <course>303.51</course>
  <speed>2.1246176126540983</speed>
  <fix>3d</fix>
</trkpt>
<trkpt lat="40.0714952" lon="-105.2294972">
  <ele>1583.0</ele>
  <time>2026-08-29T19:29:56Z</time>
  <course>301.32</course>
  <speed>2.06</speed>
  <fix>3d</fix>
</trkpt>
<trkpt lat="40.0714978" lon="-105.229502">
  <ele>1583.13</ele>
  <time>2026-08-29T19:29:56Z</time>
  <course>303.8</course>
  <speed>2.1300938946440833</speed>
  <fix>3d</fix>
</trkpt>
<trkpt lat="40.0714952" lon="-105.2294972">
  <ele>1583.0</ele>
  <time>2026-08-29T19:29:56Z</time>
  <course>301.32</course>
  <speed>2.06</speed>
  <fix>3d</fix>
</trkpt>
<trkpt lat="40.0714988" lon="-105.2295041">
  <ele>1583.13</ele>
  <time>2026-08-29T19:29:56Z</time>
  <course>304.06</course>
  <speed>2.14946504972749</speed>
  <fix>3d</fix>
</trkpt>
<trkpt lat="40.0714971" lon="-105.2295014">
  <ele>1583.0</ele>
  <time>2026-08-29T19:29:56Z</time>
  <course>301.98</course>
  <speed>2.09</speed>
  <fix>3d</fix>
</trkpt>
<trkpt lat="40.0714999" lon="-105.2295062">
  <ele>1583.13</ele>
  <time>2026-08-29T19:29:56Z</time>
  <course>304.28</course>
  <speed>2.1633307652783937</speed>
  <fix>3d</fix>
</trkpt>
<trkpt lat="40.0714971" lon="-105.2295014">
  <ele>1583.0</ele>
  <time>2026-08-29T19:29:56Z</time>
  <course>301.98</course>
  <speed>2.09</speed>
  <fix>3d</fix>
</trkpt>
<trkpt lat="40.0715009" lon="-105.2295084">
  <ele>1583.14</ele>
  <time>2026-08-29T19:29:56Z</time>
  <course>304.47</course>
  <speed>2.168893727225933</speed>
  <fix>3d</fix>
</trkpt>
<trkpt lat="40.0714992" lon="-105.2295056">
  <ele>1583.0</ele>
  <time>2026-08-29T19:29:56Z</time>
  <course>302.47</course>
  <speed>2.12</speed>
  <fix>3d</fix>
</trkpt>
<trkpt lat="40.0715019" lon="-105.2295105">
  <ele>1583.14</ele>
  <time>2026-08-29T19:29:56Z</time>
  <course>304.64</course>
  <speed>2.177200036744442</speed>
  <fix>3d</fix>
</trkpt>
<trkpt lat="40.0714992" lon="-105.2295056">
  <ele>1583.0</ele>
  <time>2026-08-29T19:29:56Z</time>
  <course>302.47</course>
  <speed>2.12</speed>
  <fix>3d</fix>
</trkpt>
<trkpt lat="40.071503" lon="-105.2295126">
  <ele>1583.13</ele>
  <time>2026-08-29T19:29:56Z</time>
  <course>304.78</course>
  <speed>2.1827734651126764</speed>
  <fix>3d</fix>
</trkpt>
<trkpt lat="40.0715013" lon="-105.2295097">
  <ele>1583.0</ele>
  <time>2026-08-29T19:29:56Z</time>
  <course>302.84</course>
  <speed>2.14</speed>
  <fix>3d</fix>
</trkpt>
<trkpt lat="40.0715041" lon="-105.2295148">
  <ele>1583.13</ele>
  <time>2026-08-29T19:29:56Z</time>
  <course>304.89</course>
  <speed>2.1966565503054865</speed>
  <fix>3d</fix>
</trkpt>
<trkpt lat="40.0715013" lon="-105.2295097">
  <ele>1583.0</ele>
  <time>2026-08-29T19:29:56Z</time>
  <course>302.84</course>
  <speed>2.14</speed>
  <fix>3d</fix>
</trkpt>
<trkpt lat="40.0715051" lon="-105.2295169">
  <ele>1583.14</ele>
  <time>2026-08-29T19:29:56Z</time>
  <course>305.0</course>
  <speed>2.1966565503054865</speed>
  <fix>3d</fix>
</trkpt>
<trkpt lat="40.0715034" lon="-105.229514">
  <ele>1583.0</ele>
  <time>2026-08-29T19:29:56Z</time>
  <course>303.11</course>
  <speed>2.15</speed>
  <fix>3d</fix>
</trkpt>
<trkpt lat="40.0715062" lon="-105.229519">
  <ele>1583.14</ele>
  <time>2026-08-29T19:29:56Z</time>
  <course>305.09</course>
  <speed>2.202271554554524</speed>
  <fix>3d</fix>
</trkpt>
<trkpt lat="40.0715034" lon="-105.229514">
  <ele>1583.0</ele>
  <time>2026-08-29T19:29:56Z</time>
  <course>303.11</course>
  <speed>2.15</speed>
  <fix>3d</fix>
</trkpt>
<trkpt lat="40.0715073" lon="-105.2295212">
  <ele>1583.14</ele>
  <time>2026-08-29T19:29:56Z</time>
  <course>305.16</course>
  <speed>2.202271554554524</speed>
  <fix>3d</fix>
</trkpt>
<trkpt lat="40.0715055" lon="-105.2295183">
  <ele>1583.0</ele>
  <time>2026-08-29T19:29:56Z</time>
  <course>303.3</course>
  <speed>2.16</speed>
  <fix>3d</fix>
</trkpt>
<trkpt lat="40.0715083" lon="-105.2295233">
  <ele>1583.14</ele>
  <time>2026-08-29T19:29:56Z</time>
  <course>305.22</course>
  <speed>2.21054291973714</speed>
  <fix>3d</fix>
</trkpt>
<trkpt lat="40.0715055" lon="-105.2295183">
  <ele>1583.0</ele>
  <time>2026-08-29T19:29:56Z</time>
  <course>303.3</course>
  <speed>2.16</speed>
  <fix>3d</fix>
</trkpt>
<trkpt lat="40.0715094" lon="-105.2295255">
  <ele>1583.14</ele>
  <time>2026-08-29T19:29:56Z</time>
  <course>305.28</course>
  <speed>2.21054291973714</speed>
  <fix>3d</fix>
</trkpt>
<trkpt lat="40.0715055" lon="-105.2295183">
  <ele>1583.0</ele>
  <time>2026-08-29T19:29:56Z</time>
  <course>303.3</course>
  <speed>2.16</speed>
  <fix>3d</fix>
</trkpt>
<trkpt lat="40.0715105" lon="-105.2295276">
  <ele>1583.14</ele>
  <time>2026-08-29T19:29:56Z</time>
  <course>305.32</course>
  <speed>2.21054291973714</speed>
  <fix>3d</fix>
</trkpt>
<trkpt lat="40.0715077" lon="-105.2295225">
  <ele>1583.0</ele>
  <time>2026-08-29T19:29:56Z</time>
  <course>303.44</course>
  <speed>2.17</speed>
  <fix>3d</fix>
</trkpt>
<trkpt lat="40.0715116" lon="-105.2295297">
  <ele>1583.14</ele>
  <time>2026-08-29T19:29:56Z</time>
  <course>305.35</course>
  <speed>2.21054291973714</speed>
  <fix>3d</fix>
</trkpt>
<trkpt lat="40.0715077" lon="-105.2295225">
  <ele>1583.0</ele>
  <time>2026-08-29T19:29:56Z</time>
  <course>303.44</course>
  <speed>2.17</speed>
  <fix>3d</fix>
</trkpt>
<trkpt lat="40.0715126" lon="-105.2295318">
  <ele>1583.15</ele>
  <time>2026-08-29T19:29:56Z</time>
  <course>305.38</course>
  <speed>2.21054291973714</speed>
  <fix>3d</fix>
</trkpt>
<trkpt lat="40.0715098" lon="-105.2295268">
  <ele>1583.0</ele>
  <time>2026-08-29T19:29:56Z</time>
  <course>303.53</course>
  <speed>2.18</speed>
  <fix>3d</fix>
</trkpt>
<trkpt lat="40.0715137" lon="-105.229534">
  <ele>1583.15</ele>
  <time>2026-08-29T19:29:56Z</time>
  <course>305.41</course>
  <speed>2.21054291973714</speed>
  <fix>3d</fix>
</trkpt>
<trkpt lat="40.0715098" lon="-105.2295268">
  <ele>1583.0</ele>
  <time>2026-08-29T19:29:56Z</time>
  <course>303.53</course>
  <speed>2.18</speed>
  <fix>3d</fix>
</trkpt>
<trkpt lat="40.0715148" lon="-105.2295361">
  <ele>1583.15</ele>
  <time>2026-08-29T19:29:56Z</time>
  <course>305.43</course>
  <speed>2.21054291973714</speed>
  <fix>3d</fix>
</trkpt>
<trkpt lat="40.071512" lon="-105.2295311">
  <ele>1583.0</ele>
  <time>2026-08-29T19:29:56Z</time>
  <course>303.6</course>
  <speed>2.18</speed>
  <fix>3d</fix>
</trkpt>
<trkpt lat="40.0715158" lon="-105.2295382">
  <ele>1583.16</ele>
  <time>2026-08-29T19:29:56Z</time>
  <course>305.44</course>
  <speed>2.21054291973714</speed>
  <fix>3d</fix>
</trkpt>
<trkpt lat="40.071512" lon="-105.2295311">
  <ele>1583.0</ele>
  <time>2026-08-29T19:29:56Z</time>
  <course>303.6</course>
  <speed>2.18</speed>
  <fix>3d</fix>
</trkpt>
<trkpt lat="40.0715169" lon="-105.2295403">
  <ele>1583.16</ele>
  <time>2026-08-29T19:29:56Z</time>
  <course>305.44</course>
  <speed>2.2049489790015553</speed>
  <fix>3d</fix>
</trkpt>
<trkpt lat="40.0715141" lon="-105.2295353">
  <ele>1583.0</ele>
  <time>2026-08-29T19:29:56Z</time>
  <course>303.64</course>
  <speed>2.19</speed>
  <fix>3d</fix>
</trkpt>
<trkpt lat="40.071518" lon="-105.2295424">
  <ele>1583.16</ele>
  <time>2026-08-29T19:29:56Z</time>
  <course>305.45</course>
  <speed>2.2049489790015553</speed>
  <fix>3d</fix>
</trkpt>
<trkpt lat="40.0715164" lon="-105.2295396">
  <ele>1583.0</ele>
  <time>2026-08-29T19:29:56Z</time>
  <course>303.65</course>
  <speed>2.19</speed>
  <fix>3d</fix>
</trkpt>
<trkpt lat="40.071519" lon="-105.2295446">
  <ele>1583.16</ele>
  <time>2026-08-29T19:29:56Z</time>
  <course>305.45</course>
  <speed>2.2049489790015553</speed>
  <fix>3d</fix>
</trkpt>
<trkpt lat="40.0715164" lon="-105.2295396">
  <ele>1583.0</ele>
  <time>2026-08-29T19:29:56Z</time>
  <course>303.65</course>
  <speed>2.19</speed>
  <fix>3d</fix>
</trkpt>
<trkpt lat="40.0715201" lon="-105.2295467">
  <ele>1583.16</ele>
  <time>2026-08-29T19:29:56Z</time>
  <course>305.45</course>
  <speed>2.2049489790015553</speed>
  <fix>3d</fix>
</trkpt>
<trkpt lat="40.0715186" lon="-105.2295439">
  <ele>1583.0</ele>
  <time>2026-08-29T19:29:56Z</time>
  <course>303.65</course>
  <speed>2.19</speed>
  <fix>3d</fix>
</trkpt>
<trkpt lat="40.0715212" lon="-105.2295488">
  <ele>1583.16</ele>
  <time>2026-08-29T19:29:56Z</time>
  <course>305.45</course>
  <speed>2.2049489790015553</speed>
  <fix>3d</fix>
</trkpt>
<trkpt lat="40.0715186" lon="-105.2295439">
  <ele>1583.0</ele>
  <time>2026-08-29T19:29:56Z</time>
  <course>303.65</course>
  <speed>2.19</speed>
  <fix>3d</fix>
</trkpt>
<trkpt lat="40.0715223" lon="-105.229551">
  <ele>1583.16</ele>
  <time>2026-08-29T19:29:56Z</time>
  <course>305.45</course>
  <speed>2.2049489790015553</speed>
  <fix>3d</fix>
</trkpt>
<trkpt lat="40.0715208" lon="-105.2295482">
  <ele>1583.0</ele>
  <time>2026-08-29T19:29:56Z</time>
  <course>303.65</course>
  <speed>2.19</speed>
  <fix>3d</fix>
</trkpt>
<trkpt lat="40.0715234" lon="-105.2295531">
  <ele>1583.16</ele>
  <time>2026-08-29T19:29:56Z</time>
  <course>305.45</course>
  <speed>2.2049489790015553</speed>
  <fix>3d</fix>
</trkpt>
<trkpt lat="40.0715208" lon="-105.2295482">
  <ele>1583.0</ele>
  <time>2026-08-29T19:29:56Z</time>
  <course>303.65</course>
  <speed>2.19</speed>
  <fix>3d</fix>
</trkpt>
<trkpt lat="40.0715245" lon="-105.2295553">
  <ele>1583.16</ele>
  <time>2026-08-29T19:29:56Z</time>
  <course>305.46</course>
  <speed>2.2049489790015553</speed>
  <fix>3d</fix>
</trkpt>
<trkpt lat="40.071523" lon="-105.2295525">
  <ele>1583.0</ele>
  <time>2026-08-29T19:29:56Z</time>
  <course>303.65</course>
  <speed>2.2</speed>
  <fix>3d</fix>
</trkpt>
<trkpt lat="40.0715256" lon="-105.2295575">
  <ele>1583.16</ele>
  <time>2026-08-29T19:29:56Z</time>
  <course>305.46</course>
  <speed>2.2049489790015553</speed>
  <fix>3d</fix>
</trkpt>
<trkpt lat="40.071523" lon="-105.2295525">
  <ele>1583.0</ele>
  <time>2026-08-29T19:29:56Z</time>
  <course>303.65</course>
  <speed>2.2</speed>
  <fix>3d</fix>
</trkpt>
<trkpt lat="40.0715267" lon="-105.2295596">
  <ele>1583.16</ele>
  <time>2026-08-29T19:29:56Z</time>
  <course>305.46</course>
  <speed>2.1993862780330335</speed>
  <fix>3d</fix>
</trkpt>
<trkpt lat="40.0715251" lon="-105.2295568">
  <ele>1583.0</ele>
  <time>2026-08-29T19:29:56Z</time>
  <course>303.65</course>
  <speed>2.2</speed>
  <fix>3d</fix>
</trkpt>
<trkpt lat="40.0715278" lon="-105.2295618">
  <ele>1583.16</ele>
  <time>2026-08-29T19:29:56Z</time>
  <course>305.46</course>
  <speed>2.1993862780330335</speed>
  <fix>3d</fix>
</trkpt>
<trkpt lat="40.0715251" lon="-105.2295568">
  <ele>1583.0</ele>
  <time>2026-08-29T19:29:56Z</time>
  <course>303.65</course>
  <speed>2.2</speed>
  <fix>3d</fix>
</trkpt>
<trkpt lat="40.0715289" lon="-105.229564">
  <ele>1583.15</ele>
  <time>2026-08-29T19:29:56Z</time>
  <course>305.46</course>
  <speed>2.1993862780330335</speed>
  <fix>3d</fix>
</trkpt>
<trkpt lat="40.0715273" lon="-105.2295611">
  <ele>1583.0</ele>
  <time>2026-08-29T19:29:56Z</time>
  <course>303.65</course>
  <speed>2.2</speed>
  <fix>3d</fix>
</trkpt>
<trkpt lat="40.07153" lon="-105.2295661">
  <ele>1583.15</ele>
  <time>2026-08-29T19:29:56Z</time>
  <course>305.46</course>
  <speed>2.1993862780330335</speed>
  <fix>3d</fix>
</trkpt>
<trkpt lat="40.0715273" lon="-105.2295611">
  <ele>1583.0</ele>
  <time>2026-08-29T19:29:56Z</time>
  <course>303.65</course>
  <speed>2.2</speed>
  <fix>3d</fix>
</trkpt>
<trkpt lat="40.071531" lon="-105.2295683">
  <ele>1583.15</ele>
  <time>2026-08-29T19:29:56Z</time>
  <course>305.47</course>
  <speed>2.1993862780330335</speed>
  <fix>3d</fix>
</trkpt>
<trkpt lat="40.0715294" lon="-105.2295654">
  <ele>1583.0</ele>
  <time>2026-08-29T19:29:56Z</time>
  <course>303.65</course>
  <speed>2.2</speed>
  <fix>3d</fix>
</trkpt>
<trkpt lat="40.0715321" lon="-105.2295704">
  <ele>1583.15</ele>
  <time>2026-08-29T19:29:56Z</time>
  <course>305.47</course>
  <speed>2.1993862780330335</speed>
  <fix>3d</fix>
</trkpt>
<trkpt lat="40.0715294" lon="-105.2295654">
  <ele>1583.0</ele>
  <time>2026-08-29T19:29:56Z</time>
  <course>303.65</course>
  <speed>2.2</speed>
  <fix>3d</fix>
</trkpt>
<trkpt lat="40.0715332" lon="-105.2295726">
  <ele>1583.14</ele>
  <time>2026-08-29T19:29:56Z</time>
  <course>305.47</course>
  <speed>2.1993862780330335</speed>
  <fix>3d</fix>
</trkpt>
<trkpt lat="40.0715294" lon="-105.2295654">
  <ele>1583.0</ele>
  <time>2026-08-29T19:29:56Z</time>
  <course>303.65</course>
  <speed>2.2</speed>
  <fix>3d</fix>
</trkpt>
<trkpt lat="40.0715343" lon="-105.2295747">
  <ele>1583.14</ele>
  <time>2026-08-29T19:29:56Z</time>
  <course>305.48</course>
  <speed>2.1993862780330335</speed>
  <fix>3d</fix>
</trkpt>
<trkpt lat="40.0715316" lon="-105.2295697">
  <ele>1583.0</ele>
  <time>2026-08-29T19:29:56Z</time>
  <course>303.66</course>
  <speed>2.2</speed>
  <fix>3d</fix>
</trkpt>
<trkpt lat="40.0715354" lon="-105.2295769">
  <ele>1583.14</ele>
  <time>2026-08-29T19:29:56Z</time>
  <course>305.49</course>
  <speed>2.1910727965998755</speed>
  <fix>3d</fix>
</trkpt>
<trkpt lat="40.0715316" lon="-105.2295697">
  <ele>1583.0</ele>
  <time>2026-08-29T19:29:56Z</time>
  <course>303.66</course>
  <speed>2.2</speed>
  <fix>3d</fix>
</trkpt>
<trkpt lat="40.0715365" lon="-105.229579">
  <ele>1583.15</ele>
  <time>2026-08-29T19:29:56Z</time>
  <course>305.5</course>
  <speed>2.1910727965998755</speed>
  <fix>3d</fix>
</trkpt>
<trkpt lat="40.0715339" lon="-105.229574">
  <ele>1583.0</ele>
  <time>2026-08-29T19:29:56Z</time>
  <course>303.66</course>
  <speed>2.2</speed>
  <fix>3d</fix>
</trkpt>
<trkpt lat="40.0715375" lon="-105.2295811">
  <ele>1583.15</ele>
  <time>2026-08-29T19:29:56Z</time>
  <course>305.52</course>
  <speed>2.185520532962342</speed>
  <fix>3d</fix>
</trkpt>
<trkpt lat="40.0715339" lon="-105.229574">
  <ele>1583.0</ele>
  <time>2026-08-29T19:29:56Z</time>
  <course>303.66</course>
  <speed>2.2</speed>
  <fix>3d</fix>
</trkpt>
<trkpt lat="40.0715386" lon="-105.2295832">
  <ele>1583.15</ele>
  <time>2026-08-29T19:29:56Z</time>
  <course>305.53</course>
  <speed>2.185520532962342</speed>
  <fix>3d</fix>
</trkpt>
<trkpt lat="40.0715361" lon="-105.2295783">
  <ele>1583.0</ele>
  <time>2026-08-29T19:29:56Z</time>
  <course>303.69</course>
  <speed>2.2</speed>
  <fix>3d</fix>
</trkpt>
<trkpt lat="40.0715397" lon="-105.2295854">
  <ele>1583.15</ele>
  <time>2026-08-29T19:29:56Z</time>
  <course>305.54</course>
  <speed>2.177200036744442</speed>
  <fix>3d</fix>
</trkpt>
<trkpt lat="40.0715383" lon="-105.2295826">
  <ele>1583.0</ele>
  <time>2026-08-29T19:29:56Z</time>
  <course>303.71</course>
  <speed>2.2</speed>
  <fix>3d</fix>
</trkpt>
<trkpt lat="40.0715408" lon="-105.2295875">
  <ele>1583.16</ele>
  <time>2026-08-29T19:29:56Z</time>
  <course>305.56</course>
  <speed>2.177200036744442</speed>
  <fix>3d</fix>
</trkpt>
<trkpt lat="40.0715383" lon="-105.2295826">
  <ele>1583.0</ele>
  <time>2026-08-29T19:29:56Z</time>
  <course>303.71</course>
  <speed>2.2</speed>
  <fix>3d</fix>
</trkpt>
<trkpt lat="40.0715419" lon="-105.2295896">
  <ele>1583.16</ele>
  <time>2026-08-29T19:29:56Z</time>
  <course>305.56</course>
  <speed>2.177200036744442</speed>
  <fix>3d</fix>
</trkpt>
<trkpt lat="40.0715405" lon="-105.229587">
  <ele>1583.0</ele>
  <time>2026-08-29T19:29:56Z</time>
  <course>303.73</course>
  <speed>2.2</speed>
  <fix>3d</fix>
</trkpt>
<trkpt lat="40.071543" lon="-105.2295918">
  <ele>1583.16</ele>
  <time>2026-08-29T19:29:56Z</time>
  <course>305.58</course>
  <speed>2.177200036744442</speed>
  <fix>3d</fix>
</trkpt>
<trkpt lat="40.0715405" lon="-105.229587">
  <ele>1583.0</ele>
  <time>2026-08-29T19:29:56Z</time>
  <course>303.73</course>
  <speed>2.2</speed>
  <fix>3d</fix>
</trkpt>
<trkpt lat="40.0715441" lon="-105.2295939">
  <ele>1583.16</ele>
  <time>2026-08-29T19:29:56Z</time>
  <course>305.59</course>
  <speed>2.177200036744442</speed>
  <fix>3d</fix>
</trkpt>
<trkpt lat="40.0715426" lon="-105.2295913">
  <ele>1583.0</ele>
  <time>2026-08-29T19:29:56Z</time>
  <course>303.75</course>
  <speed>2.2</speed>
  <fix>3d</fix>
</trkpt>
<trkpt lat="40.0715452" lon="-105.2295961">
  <ele>1583.16</ele>
  <time>2026-08-29T19:29:56Z</time>
  <course>305.59</course>
  <speed>2.177200036744442</speed>
  <fix>3d</fix>
</trkpt>
<trkpt lat="40.0715426" lon="-105.2295913">
  <ele>1583.0</ele>
  <time>2026-08-29T19:29:56Z</time>
  <course>303.75</course>
  <speed>2.2</speed>
  <fix>3d</fix>
</trkpt>
<trkpt lat="40.0715463" lon="-105.2295982">
  <ele>1583.16</ele>
  <time>2026-08-29T19:29:56Z</time>
  <course>305.59</course>
  <speed>2.177200036744442</speed>
  <fix>3d</fix>
</trkpt>
<trkpt lat="40.0715449" lon="-105.2295956">
  <ele>1583.0</ele>
  <time>2026-08-29T19:29:56Z</time>
  <course>303.76</course>
  <speed>2.2</speed>
  <fix>3d</fix>
</trkpt>
<trkpt lat="40.0715474" lon="-105.2296004">
  <ele>1583.15</ele>
  <time>2026-08-29T19:29:56Z</time>
  <course>305.59</course>
  <speed>2.177200036744442</speed>
  <fix>3d</fix>
</trkpt>
<trkpt lat="40.0715449" lon="-105.2295956">
  <ele>1583.0</ele>
  <time>2026-08-29T19:29:56Z</time>
  <course>303.76</course>
  <speed>2.2</speed>
  <fix>3d</fix>
</trkpt>
<trkpt lat="40.0715485" lon="-105.2296026">
  <ele>1583.15</ele>
  <time>2026-08-29T19:29:56Z</time>
  <course>305.6</course>
  <speed>2.177200036744442</speed>
  <fix>3d</fix>
</trkpt>
<trkpt lat="40.071547" lon="-105.2295999">
  <ele>1583.0</ele>
  <time>2026-08-29T19:29:56Z</time>
  <course>303.76</course>
  <speed>2.2</speed>
  <fix>3d</fix>
</trkpt>
<trkpt lat="40.0715496" lon="-105.2296047">
  <ele>1583.14</ele>
  <time>2026-08-29T19:29:56Z</time>
  <course>305.6</course>
  <speed>2.177200036744442</speed>
  <fix>3d</fix>
</trkpt>
<trkpt lat="40.071547" lon="-105.2295999">
  <ele>1583.0</ele>
  <time>2026-08-29T19:29:56Z</time>
  <course>303.76</course>
  <speed>2.2</speed>
  <fix>3d</fix>
</trkpt>
<trkpt lat="40.0715507" lon="-105.2296069">
  <ele>1583.14</ele>
  <time>2026-08-29T19:29:56Z</time>
  <course>305.6</course>
  <speed>2.177200036744442</speed>
  <fix>3d</fix>
</trkpt>
<trkpt lat="40.0715493" lon="-105.2296042">
  <ele>1583.0</ele>
  <time>2026-08-29T19:29:56Z</time>
  <course>303.76</course>
  <speed>2.2</speed>
  <fix>3d</fix>
</trkpt>
<trkpt lat="40.0715518" lon="-105.229609">
  <ele>1583.14</ele>
  <time>2026-08-29T19:29:56Z</time>
  <course>305.6</course>
  <speed>2.177200036744442</speed>
  <fix>3d</fix>
</trkpt>
<trkpt lat="40.0715493" lon="-105.2296042">
  <ele>1583.0</ele>
  <time>2026-08-29T19:29:56Z</time>
  <course>303.76</course>
  <speed>2.2</speed>
  <fix>3d</fix>
</trkpt>
<trkpt lat="40.0715529" lon="-105.2296112">
  <ele>1583.13</ele>
  <time>2026-08-29T19:29:56Z</time>
  <course>305.61</course>
  <speed>2.177200036744442</speed>
  <fix>3d</fix>
</trkpt>
<trkpt lat="40.0715515" lon="-105.2296085">
  <ele>1583.0</ele>
  <time>2026-08-29T19:29:56Z</time>
  <course>303.76</course>
  <speed>2.2</speed>
  <fix>3d</fix>
</trkpt>
<trkpt lat="40.071554" lon="-105.2296134">
  <ele>1583.12</ele>
  <time>2026-08-29T19:29:56Z</time>
  <course>305.61</course>
  <speed>2.177200036744442</speed>
  <fix>3d</fix>
</trkpt>
<trkpt lat="40.0715515" lon="-105.2296085">
  <ele>1583.0</ele>
  <time>2026-08-29T19:29:56Z</time>
  <course>303.76</course>
  <speed>2.2</speed>
  <fix>3d</fix>
</trkpt>
<trkpt lat="40.0715551" lon="-105.2296155">
  <ele>1583.12</ele>
  <time>2026-08-29T19:29:56Z</time>
  <course>305.61</course>
  <speed>2.177200036744442</speed>
  <fix>3d</fix>
</trkpt>
<trkpt lat="40.0715515" lon="-105.2296085">
  <ele>1583.0</ele>
  <time>2026-08-29T19:29:56Z</time>
  <course>303.76</course>
  <speed>2.2</speed>
  <fix>3d</fix>
</trkpt>
<trkpt lat="40.0715562" lon="-105.2296176">
  <ele>1583.11</ele>
  <time>2026-08-29T19:29:56Z</time>
  <course>305.61</course>
  <speed>2.177200036744442</speed>
  <fix>3d</fix>
</trkpt>
<trkpt lat="40.0715537" lon="-105.2296128">
  <ele>1583.0</ele>
  <time>2026-08-29T19:29:56Z</time>
  <course>303.76</course>
  <speed>2.2</speed>
  <fix>3d</fix>
</trkpt>
<trkpt lat="40.0715573" lon="-105.2296198">
  <ele>1583.11</ele>
  <time>2026-08-29T19:29:56Z</time>
  <course>305.61</course>
  <speed>2.168893727225933</speed>
  <fix>3d</fix>
</trkpt>
<trkpt lat="40.0715537" lon="-105.2296128">
  <ele>1583.0</ele>
  <time>2026-08-29T19:29:56Z</time>
  <course>303.76</course>
  <speed>2.2</speed>
  <fix>3d</fix>
</trkpt>
<trkpt lat="40.0715584" lon="-105.2296219">
  <ele>1583.11</ele>
  <time>2026-08-29T19:29:56Z</time>
  <course>305.61</course>
  <speed>2.168893727225933</speed>
  <fix>3d</fix>
</trkpt>
<trkpt lat="40.071556" lon="-105.2296171">
  <ele>1583.0</ele>
  <time>2026-08-29T19:29:56Z</time>
  <course>303.76</course>
  <speed>2.2</speed>
  <fix>3d</fix>
</trkpt>
<trkpt lat="40.0715595" lon="-105.229624">
  <ele>1583.11</ele>
  <time>2026-08-29T19:29:56Z</time>
  <course>305.62</course>
  <speed>2.168893727225933</speed>
  <fix>3d</fix>
</trkpt>
<trkpt lat="40.071556" lon="-105.2296171">
  <ele>1583.0</ele>
  <time>2026-08-29T19:29:56Z</time>
  <course>303.76</course>
  <speed>2.2</speed>
  <fix>3d</fix>
</trkpt>
<trkpt lat="40.0715605" lon="-105.2296261">
  <ele>1583.1</ele>
  <time>2026-08-29T19:29:56Z</time>
  <course>305.62</course>
  <speed>2.168893727225933</speed>
  <fix>3d</fix>
</trkpt>
<trkpt lat="40.0715582" lon="-105.2296214">
  <ele>1583.0</ele>
  <time>2026-08-29T19:29:56Z</time>
  <course>303.76</course>
  <speed>2.2</speed>
  <fix>3d</fix>
</trkpt>
<trkpt lat="40.0715616" lon="-105.2296283">
  <ele>1583.11</ele>
  <time>2026-08-29T19:29:56Z</time>
  <course>305.62</course>
  <speed>2.168893727225933</speed>
  <fix>3d</fix>
</trkpt>
<trkpt lat="40.0715603" lon="-105.2296257">
  <ele>1583.0</ele>
  <time>2026-08-29T19:29:56Z</time>
  <course>303.76</course>
  <speed>2.2</speed>
  <fix>3d</fix>
</trkpt>
<trkpt lat="40.0715627" lon="-105.2296304">
  <ele>1583.11</ele>
  <time>2026-08-29T19:29:56Z</time>
  <course>305.62</course>
  <speed>2.168893727225933</speed>
  <fix>3d</fix>
</trkpt>
<trkpt lat="40.0715603" lon="-105.2296257">
  <ele>1583.0</ele>
  <time>2026-08-29T19:29:56Z</time>
  <course>303.76</course>
  <speed>2.2</speed>
  <fix>3d</fix>
</trkpt>
<trkpt lat="40.0715638" lon="-105.2296325">
  <ele>1583.11</ele>
  <time>2026-08-29T19:29:56Z</time>
  <course>305.62</course>
  <speed>2.168893727225933</speed>
  <fix>3d</fix>
</trkpt>
<trkpt lat="40.0715626" lon="-105.22963">
  <ele>1583.0</ele>
  <time>2026-08-29T19:29:56Z</time>
  <course>303.76</course>
  <speed>2.2</speed>
  <fix>3d</fix>
</trkpt>
<trkpt lat="40.0715649" lon="-105.2296347">
  <ele>1583.12</ele>
  <time>2026-08-29T19:29:56Z</time>
  <course>305.62</course>
  <speed>2.168893727225933</speed>
  <fix>3d</fix>
</trkpt>
<trkpt lat="40.0715626" lon="-105.22963">
  <ele>1583.0</ele>
  <time>2026-08-29T19:29:56Z</time>
  <course>303.76</course>
  <speed>2.2</speed>
  <fix>3d</fix>
</trkpt>
<trkpt lat="40.0715661" lon="-105.2296368">
  <ele>1583.12</ele>
  <time>2026-08-29T19:29:56Z</time>
  <course>305.63</course>
  <speed>2.168893727225933</speed>
  <fix>3d</fix>
</trkpt>
<trkpt lat="40.0715648" lon="-105.2296343">
  <ele>1583.0</ele>
  <time>2026-08-29T19:29:56Z</time>
  <course>303.76</course>
  <speed>2.2</speed>
  <fix>3d</fix>
</trkpt>
<trkpt lat="40.0715672" lon="-105.229639">
  <ele>1583.12</ele>
  <time>2026-08-29T19:29:56Z</time>
  <course>305.63</course>
  <speed>2.168893727225933</speed>
  <fix>3d</fix>
</trkpt>
<trkpt lat="40.0715648" lon="-105.2296343">
  <ele>1583.0</ele>
  <time>2026-08-29T19:29:56Z</time>
  <course>303.76</course>
  <speed>2.2</speed>
  <fix>3d</fix>
</trkpt>
<trkpt lat="40.0715683" lon="-105.2296411">
  <ele>1583.12</ele>
  <time>2026-08-29T19:29:56Z</time>
  <course>305.63</course>
  <speed>2.168893727225933</speed>
  <fix>3d</fix>
</trkpt>
<trkpt lat="40.071567" lon="-105.2296386">
  <ele>1583.0</ele>
  <time>2026-08-29T19:29:56Z</time>
  <course>303.76</course>
  <speed>2.2</speed>
  <fix>3d</fix>
</trkpt>
<trkpt lat="40.0715694" lon="-105.2296433">
  <ele>1583.12</ele>
  <time>2026-08-29T19:29:56Z</time>
  <course>305.63</course>
  <speed>2.168893727225933</speed>
  <fix>3d</fix>
</trkpt>
<trkpt lat="40.071567" lon="-105.2296386">
  <ele>1583.0</ele>
  <time>2026-08-29T19:29:56Z</time>
  <course>303.76</course>
  <speed>2.2</speed>
  <fix>3d</fix>
</trkpt>
<trkpt lat="40.0715705" lon="-105.2296455">
  <ele>1583.12</ele>
  <time>2026-08-29T19:29:56Z</time>
  <course>305.64</course>
  <speed>2.168893727225933</speed>
  <fix>3d</fix>
</trkpt>
<trkpt lat="40.0715692" lon="-105.2296429">
  <ele>1583.0</ele>
  <time>2026-08-29T19:29:56Z</time>
  <course>303.76</course>
  <speed>2.2</speed>
  <fix>3d</fix>
</trkpt>
<trkpt lat="40.0715716" lon="-105.2296476">
  <ele>1583.12</ele>
  <time>2026-08-29T19:29:56Z</time>
  <course>305.64</course>
  <speed>2.168893727225933</speed>
  <fix>3d</fix>
</trkpt>
<trkpt lat="40.0715692" lon="-105.2296429">
  <ele>1583.0</ele>
  <time>2026-08-29T19:29:56Z</time>
  <course>303.76</course>
  <speed>2.2</speed>
  <fix>3d</fix>
</trkpt>
<trkpt lat="40.0715727" lon="-105.2296498">
  <ele>1583.12</ele>
  <time>2026-08-29T19:29:56Z</time>
  <course>305.64</course>
  <speed>2.168893727225933</speed>
  <fix>3d</fix>
</trkpt>
<trkpt lat="40.0715713" lon="-105.2296472">
  <ele>1583.0</ele>
  <time>2026-08-29T19:29:56Z</time>
  <course>303.76</course>
  <speed>2.2</speed>
  <fix>3d</fix>
</trkpt>
<trkpt lat="40.0715738" lon="-105.2296519">
  <ele>1583.12</ele>
  <time>2026-08-29T19:29:56Z</time>
  <course>305.64</course>
  <speed>2.168893727225933</speed>
  <fix>3d</fix>
</trkpt>
<trkpt lat="40.0715713" lon="-105.2296472">
  <ele>1583.0</ele>
  <time>2026-08-29T19:29:56Z</time>
  <course>303.76</course>
  <speed>2.2</speed>
  <fix>3d</fix>
</trkpt>
<trkpt lat="40.0715749" lon="-105.2296541">
  <ele>1583.13</ele>
  <time>2026-08-29T19:29:56Z</time>
  <course>305.64</course>
  <speed>2.168893727225933</speed>
  <fix>3d</fix>
</trkpt>
<trkpt lat="40.0715735" lon="-105.2296515">
  <ele>1583.0</ele>
  <time>2026-08-29T19:29:56Z</time>
  <course>303.76</course>
  <speed>2.2</speed>
  <fix>3d</fix>
</trkpt>
<trkpt lat="40.071576" lon="-105.2296562">
  <ele>1583.13</ele>
  <time>2026-08-29T19:29:56Z</time>
  <course>305.65</course>
  <speed>2.168893727225933</speed>
  <fix>3d</fix>
</trkpt>
<trkpt lat="40.0715735" lon="-105.2296515">
  <ele>1583.0</ele>
  <time>2026-08-29T19:29:56Z</time>
  <course>303.76</course>
  <speed>2.2</speed>
  <fix>3d</fix>
</trkpt>
<trkpt lat="40.0715772" lon="-105.2296584">
  <ele>1583.13</ele>
  <time>2026-08-29T19:29:56Z</time>
  <course>305.65</course>
  <speed>2.1606017680266763</speed>
  <fix>3d</fix>
</trkpt>
<trkpt lat="40.0715735" lon="-105.2296515">
  <ele>1583.0</ele>
  <time>2026-08-29T19:29:56Z</time>
  <course>303.76</course>
  <speed>2.2</speed>
  <fix>3d</fix>
</trkpt>
<trkpt lat="40.0715782" lon="-105.2296605">
  <ele>1583.13</ele>
  <time>2026-08-29T19:29:56Z</time>
  <course>305.65</course>
  <speed>2.1606017680266763</speed>
  <fix>3d</fix>
</trkpt>
<trkpt lat="40.0715758" lon="-105.2296558">
  <ele>1583.0</ele>
  <time>2026-08-29T19:29:56Z</time>
  <course>303.76</course>
  <speed>2.2</speed>
  <fix>3d</fix>
</trkpt>
<trkpt lat="40.0715793" lon="-105.2296627">
  <ele>1583.13</ele>
  <time>2026-08-29T19:29:56Z</time>
  <course>305.65</course>
  <speed>2.1606017680266763</speed>
  <fix>3d</fix>
</trkpt>
<trkpt lat="40.0715758" lon="-105.2296558">
  <ele>1583.0</ele>
  <time>2026-08-29T19:29:56Z</time>
  <course>303.76</course>
  <speed>2.2</speed>
  <fix>3d</fix>
</trkpt>
<trkpt lat="40.0715804" lon="-105.2296648">
  <ele>1583.14</ele>
  <time>2026-08-29T19:29:56Z</time>
  <course>305.65</course>
  <speed>2.1606017680266763</speed>
  <fix>3d</fix>
</trkpt>
<trkpt lat="40.071578" lon="-105.2296601">
  <ele>1583.0</ele>
  <time>2026-08-29T19:29:56Z</time>
  <course>303.76</course>
  <speed>2.2</speed>
  <fix>3d</fix>
</trkpt>
<trkpt lat="40.0715815" lon="-105.2296669">
  <ele>1583.14</ele>
  <time>2026-08-29T19:29:56Z</time>
  <course>305.65</course>
  <speed>2.1606017680266763</speed>
  <fix>3d</fix>
</trkpt>
<trkpt lat="40.071578" lon="-105.2296601">
  <ele>1583.0</ele>
  <time>2026-08-29T19:29:56Z</time>
  <course>303.76</course>
  <speed>2.2</speed>
  <fix>3d</fix>
</trkpt>
<trkpt lat="40.0715826" lon="-105.229669">
  <ele>1583.13</ele>
  <time>2026-08-29T19:29:56Z</time>
  <course>305.65</course>
  <speed>2.1606017680266763</speed>
  <fix>3d</fix>
</trkpt>
<trkpt lat="40.0715802" lon="-105.2296644">
  <ele>1583.0</ele>
  <time>2026-08-29T19:29:56Z</time>
  <course>303.76</course>
  <speed>2.2</speed>
  <fix>3d</fix>
</trkpt>
<trkpt lat="40.0715837" lon="-105.2296711">
  <ele>1583.13</ele>
  <time>2026-08-29T19:29:56Z</time>
  <course>305.65</course>
  <speed>2.1606017680266763</speed>
  <fix>3d</fix>
</trkpt>
<trkpt lat="40.0715802" lon="-105.2296644">
  <ele>1583.0</ele>
  <time>2026-08-29T19:29:56Z</time>
  <course>303.76</course>
  <speed>2.2</speed>
  <fix>3d</fix>
</trkpt>
<trkpt lat="40.0715848" lon="-105.2296733">
  <ele>1583.13</ele>
  <time>2026-08-29T19:29:56Z</time>
  <course>305.65</course>
  <speed>2.1606017680266763</speed>
  <fix>3d</fix>
</trkpt>
<trkpt lat="40.0715823" lon="-105.2296687">
  <ele>1583.0</ele>
  <time>2026-08-29T19:29:56Z</time>
  <course>303.76</course>
  <speed>2.2</speed>
  <fix>3d</fix>
</trkpt>
<trkpt lat="40.0715859" lon="-105.2296754">
  <ele>1583.13</ele>
  <time>2026-08-29T19:29:56Z</time>
  <course>305.64</course>
  <speed>2.1606017680266763</speed>
  <fix>3d</fix>
</trkpt>
<trkpt lat="40.0715845" lon="-105.229673">
  <ele>1583.0</ele>
  <time>2026-08-29T19:29:56Z</time>
  <course>303.75</course>
  <speed>2.2</speed>
  <fix>3d</fix>
</trkpt>
<trkpt lat="40.071587" lon="-105.2296776">
  <ele>1583.13</ele>
  <time>2026-08-29T19:29:56Z</time>
  <course>305.64</course>
  <speed>2.1606017680266763</speed>
  <fix>3d</fix>
</trkpt>
<trkpt lat="40.0715845" lon="-105.229673">
  <ele>1583.0</ele>
  <time>2026-08-29T19:29:56Z</time>
  <course>303.75</course>
  <speed>2.2</speed>
  <fix>3d</fix>
</trkpt>
<trkpt lat="40.0715881" lon="-105.2296797">
  <ele>1583.13</ele>
  <time>2026-08-29T19:29:56Z</time>
  <course>305.63</course>
  <speed>2.1606017680266763</speed>
  <fix>3d</fix>
</trkpt>
<trkpt lat="40.0715868" lon="-105.2296773">
  <ele>1583.0</ele>
  <time>2026-08-29T19:29:56Z</time>
  <course>303.73</course>
  <speed>2.2</speed>
  <fix>3d</fix>
</trkpt>
<trkpt lat="40.0715892" lon="-105.2296818">
  <ele>1583.13</ele>
  <time>2026-08-29T19:29:56Z</time>
  <course>305.62</course>
  <speed>2.1606017680266763</speed>
  <fix>3d</fix>
</trkpt>
<trkpt lat="40.0715868" lon="-105.2296773">
  <ele>1583.0</ele>
  <time>2026-08-29T19:29:56Z</time>
  <course>303.73</course>
  <speed>2.2</speed>
  <fix>3d</fix>
</trkpt>
<trkpt lat="40.0715903" lon="-105.229684">
  <ele>1583.13</ele>
  <time>2026-08-29T19:29:56Z</time>
  <course>305.61</course>
  <speed>2.1606017680266763</speed>
  <fix>3d</fix>
</trkpt>
<trkpt lat="40.071589" lon="-105.2296816">
  <ele>1583.0</ele>
  <time>2026-08-29T19:29:56Z</time>
  <course>303.72</course>
  <speed>2.2</speed>
  <fix>3d</fix>
</trkpt>
<trkpt lat="40.0715914" lon="-105.2296861">
  <ele>1583.12</ele>
  <time>2026-08-29T19:29:56Z</time>
  <course>305.6</course>
  <speed>2.1606017680266763</speed>
  <fix>3d</fix>
</trkpt>
<trkpt lat="40.071589" lon="-105.2296816">
  <ele>1583.0</ele>
  <time>2026-08-29T19:29:56Z</time>
  <course>303.72</course>
  <speed>2.2</speed>
  <fix>3d</fix>
</trkpt>
<trkpt lat="40.0715925" lon="-105.2296883">
  <ele>1583.12</ele>
  <time>2026-08-29T19:29:56Z</time>
  <course>305.59</course>
  <speed>2.1606017680266763</speed>
  <fix>3d</fix>
</trkpt>
<trkpt lat="40.0715912" lon="-105.229686">
  <ele>1583.0</ele>
  <time>2026-08-29T19:29:56Z</time>
  <course>303.69</course>
  <speed>2.2</speed>
  <fix>3d</fix>
</trkpt>
<trkpt lat="40.0715936" lon="-105.2296905">
  <ele>1583.12</ele>
  <time>2026-08-29T19:29:56Z</time>
  <course>305.57</course>
  <speed>2.1606017680266763</speed>
  <fix>3d</fix>
</trkpt>
<trkpt lat="40.0715912" lon="-105.229686">
  <ele>1583.0</ele>
  <time>2026-08-29T19:29:56Z</time>
  <course>303.69</course>
  <speed>2.2</speed>
  <fix>3d</fix>
</trkpt>
<trkpt lat="40.0715947" lon="-105.2296927">
  <ele>1583.12</ele>
  <time>2026-08-29T19:29:56Z</time>
  <course>305.56</course>
  <speed>2.1606017680266763</speed>
  <fix>3d</fix>
</trkpt>
<trkpt lat="40.0715934" lon="-105.2296903">
  <ele>1583.0</ele>
  <time>2026-08-29T19:29:56Z</time>
  <course>303.67</course>
  <speed>2.2</speed>
  <fix>3d</fix>
</trkpt>
<trkpt lat="40.0715958" lon="-105.2296948">
  <ele>1583.12</ele>
  <time>2026-08-29T19:29:56Z</time>
  <course>305.55</course>
  <speed>2.1606017680266763</speed>
  <fix>3d</fix>
</trkpt>
<trkpt lat="40.0715934" lon="-105.2296903">
  <ele>1583.0</ele>
  <time>2026-08-29T19:29:56Z</time>
  <course>303.67</course>
  <speed>2.2</speed>
  <fix>3d</fix>
</trkpt>
<trkpt lat="40.0715969" lon="-105.229697">
  <ele>1583.12</ele>
  <time>2026-08-29T19:29:56Z</time>
  <course>305.54</course>
  <speed>2.1606017680266763</speed>
  <fix>3d</fix>
</trkpt>
<trkpt lat="40.0715955" lon="-105.2296946">
  <ele>1583.0</ele>
  <time>2026-08-29T19:29:56Z</time>
  <course>303.64</course>
  <speed>2.2</speed>
  <fix>3d</fix>
</trkpt>
<trkpt lat="40.071598" lon="-105.2296992">
  <ele>1583.12</ele>
  <time>2026-08-29T19:29:56Z</time>
  <course>305.53</course>
  <speed>2.168893727225933</speed>
  <fix>3d</fix>
</trkpt>
<trkpt lat="40.0715955" lon="-105.2296946">
  <ele>1583.0</ele>
  <time>2026-08-29T19:29:56Z</time>
  <course>303.64</course>
  <speed>2.2</speed>
  <fix>3d</fix>
</trkpt>
<trkpt lat="40.0715991" lon="-105.2297013">
  <ele>1583.12</ele>
  <time>2026-08-29T19:29:56Z</time>
  <course>305.52</course>
  <speed>2.168893727225933</speed>
  <fix>3d</fix>
</trkpt>
<trkpt lat="40.0715978" lon="-105.2296989">
  <ele>1583.0</ele>
  <time>2026-08-29T19:29:56Z</time>
  <course>303.62</course>
  <speed>2.2</speed>
  <fix>3d</fix>
</trkpt>
<trkpt lat="40.0716003" lon="-105.2297035">
  <ele>1583.12</ele>
  <time>2026-08-29T19:29:56Z</time>
  <course>305.52</course>
  <speed>2.168893727225933</speed>
  <fix>3d</fix>
</trkpt>
<trkpt lat="40.0715978" lon="-105.2296989">
  <ele>1583.0</ele>
  <time>2026-08-29T19:29:56Z</time>
  <course>303.62</course>
  <speed>2.2</speed>
  <fix>3d</fix>
</trkpt>
<trkpt lat="40.0716014" lon="-105.2297057">
  <ele>1583.12</ele>
  <time>2026-08-29T19:29:56Z</time>
  <course>305.5</course>
  <speed>2.168893727225933</speed>
  <fix>3d</fix>
</trkpt>
<trkpt lat="40.0715978" lon="-105.2296989">
  <ele>1583.0</ele>
  <time>2026-08-29T19:29:56Z</time>
  <course>303.62</course>
  <speed>2.2</speed>
  <fix>3d</fix>
</trkpt>
<trkpt lat="40.0716024" lon="-105.2297078">
  <ele>1583.11</ele>
  <time>2026-08-29T19:29:56Z</time>
  <course>305.5</course>
  <speed>2.168893727225933</speed>
  <fix>3d</fix>
</trkpt>
<trkpt lat="40.0715999" lon="-105.2297032">
  <ele>1583.0</ele>
  <time>2026-08-29T19:29:56Z</time>
  <course>303.61</course>
  <speed>2.2</speed>
  <fix>3d</fix>
</trkpt>
<trkpt lat="40.0716035" lon="-105.22971">
  <ele>1583.11</ele>
  <time>2026-08-29T19:29:56Z</time>
  <course>305.49</course>
  <speed>2.168893727225933</speed>
  <fix>3d</fix>
</trkpt>
<trkpt lat="40.0715999" lon="-105.2297032">
  <ele>1583.0</ele>
  <time>2026-08-29T19:29:56Z</time>
  <course>303.61</course>
  <speed>2.2</speed>
  <fix>3d</fix>
</trkpt>
<trkpt lat="40.0716046" lon="-105.2297121">
  <ele>1583.11</ele>
  <time>2026-08-29T19:29:56Z</time>
  <course>305.47</course>
  <speed>2.168893727225933</speed>
  <fix>3d</fix>
</trkpt>
<trkpt lat="40.0716021" lon="-105.2297075">
  <ele>1583.0</ele>
  <time>2026-08-29T19:29:56Z</time>
  <course>303.59</course>
  <speed>2.2</speed>
  <fix>3d</fix>
</trkpt>
<trkpt lat="40.0716057" lon="-105.2297143">
  <ele>1583.11</ele>
  <time>2026-08-29T19:29:56Z</time>
  <course>305.47</course>
  <speed>2.168893727225933</speed>
  <fix>3d</fix>
</trkpt>
<trkpt lat="40.0716021" lon="-105.2297075">
  <ele>1583.0</ele>
  <time>2026-08-29T19:29:56Z</time>
  <course>303.59</course>
  <speed>2.2</speed>
  <fix>3d</fix>
</trkpt>
<trkpt lat="40.0716068" lon="-105.2297164">
  <ele>1583.11</ele>
  <time>2026-08-29T19:29:56Z</time>
  <course>305.46</course>
  <speed>2.168893727225933</speed>
  <fix>3d</fix>
</trkpt>
<trkpt lat="40.0716043" lon="-105.2297118">
  <ele>1583.0</ele>
  <time>2026-08-29T19:29:56Z</time>
  <course>303.57</course>
  <speed>2.2</speed>
  <fix>3d</fix>
</trkpt>
<trkpt lat="40.0716079" lon="-105.2297185">
  <ele>1583.1</ele>
  <time>2026-08-29T19:29:56Z</time>
  <course>305.45</course>
  <speed>2.1606017680266763</speed>
  <fix>3d</fix>
</trkpt>
<trkpt lat="40.0716065" lon="-105.2297162">
  <ele>1583.0</ele>
  <time>2026-08-29T19:29:56Z</time>
  <course>303.55</course>
  <speed>2.2</speed>
  <fix>3d</fix>
</trkpt>
<trkpt lat="40.071609" lon="-105.2297207">
  <ele>1583.1</ele>
  <time>2026-08-29T19:29:56Z</time>
  <course>305.45</course>
  <speed>2.168893727225933</speed>
  <fix>3d</fix>
</trkpt>
<trkpt lat="40.0716065" lon="-105.2297162">
  <ele>1583.0</ele>
  <time>2026-08-29T19:29:56Z</time>
  <course>303.55</course>
  <speed>2.2</speed>
  <fix>3d</fix>
</trkpt>
<trkpt lat="40.0716101" lon="-105.2297229">
  <ele>1583.1</ele>
  <time>2026-08-29T19:29:56Z</time>
  <course>305.44</course>
  <speed>2.168893727225933</speed>
  <fix>3d</fix>
</trkpt>
<trkpt lat="40.0716087" lon="-105.2297205">
  <ele>1583.0</ele>
  <time>2026-08-29T19:29:56Z</time>
  <course>303.54</course>
  <speed>2.2</speed>
  <fix>3d</fix>
</trkpt>
<trkpt lat="40.0716111" lon="-105.229725">
  <ele>1583.1</ele>
  <time>2026-08-29T19:29:56Z</time>
  <course>305.43</course>
  <speed>2.168893727225933</speed>
  <fix>3d</fix>
</trkpt>
<trkpt lat="40.0716087" lon="-105.2297205">
  <ele>1583.0</ele>
  <time>2026-08-29T19:29:56Z</time>
  <course>303.54</course>
  <speed>2.2</speed>
  <fix>3d</fix>
</trkpt>
<trkpt lat="40.0716122" lon="-105.2297272">
  <ele>1583.1</ele>
  <time>2026-08-29T19:29:56Z</time>
  <course>305.43</course>
  <speed>2.168893727225933</speed>
  <fix>3d</fix>
</trkpt>
<trkpt lat="40.0716108" lon="-105.2297248">
  <ele>1583.0</ele>
  <time>2026-08-29T19:29:56Z</time>
  <course>303.53</course>
  <speed>2.2</speed>
  <fix>3d</fix>
</trkpt>
<trkpt lat="40.0716133" lon="-105.2297294">
  <ele>1583.1</ele>
  <time>2026-08-29T19:29:56Z</time>
  <course>305.42</course>
  <speed>2.168893727225933</speed>
  <fix>3d</fix>
</trkpt>
<trkpt lat="40.0716108" lon="-105.2297248">
  <ele>1583.0</ele>
  <time>2026-08-29T19:29:56Z</time>
  <course>303.53</course>
  <speed>2.2</speed>
  <fix>3d</fix>
</trkpt>
<trkpt lat="40.0716144" lon="-105.2297315">
  <ele>1583.1</ele>
  <time>2026-08-29T19:29:56Z</time>
  <course>305.42</course>
  <speed>2.168893727225933</speed>
  <fix>3d</fix>
</trkpt>
<trkpt lat="40.071613" lon="-105.2297291">
  <ele>1583.0</ele>
  <time>2026-08-29T19:29:56Z</time>
  <course>303.52</course>
  <speed>2.2</speed>
  <fix>3d</fix>
</trkpt>
<trkpt lat="40.0716155" lon="-105.2297337">
  <ele>1583.1</ele>
  <time>2026-08-29T19:29:56Z</time>
  <course>305.41</course>
  <speed>2.168893727225933</speed>
  <fix>3d</fix>
</trkpt>
<trkpt lat="40.071613" lon="-105.2297291">
  <ele>1583.0</ele>
  <time>2026-08-29T19:29:56Z</time>
  <course>303.52</course>
  <speed>2.2</speed>
  <fix>3d</fix>
</trkpt>
<trkpt lat="40.0716166" lon="-105.2297359">
  <ele>1583.1</ele>
  <time>2026-08-29T19:29:56Z</time>
  <course>305.41</course>
  <speed>2.168893727225933</speed>
  <fix>3d</fix>
</trkpt>
<trkpt lat="40.0716153" lon="-105.2297334">
  <ele>1583.0</ele>
  <time>2026-08-29T19:29:56Z</time>
  <course>303.51</course>
  <speed>2.2</speed>
  <fix>3d</fix>
</trkpt>
<trkpt lat="40.0716177" lon="-105.2297381">
  <ele>1583.1</ele>
  <time>2026-08-29T19:29:56Z</time>
  <course>305.41</course>
  <speed>2.168893727225933</speed>
  <fix>3d</fix>
</trkpt>
<trkpt lat="40.0716153" lon="-105.2297334">
  <ele>1583.0</ele>
  <time>2026-08-29T19:29:56Z</time>
  <course>303.51</course>
  <speed>2.2</speed>
  <fix>3d</fix>
</trkpt>
<trkpt lat="40.0716188" lon="-105.2297402">
  <ele>1583.11</ele>
  <time>2026-08-29T19:29:56Z</time>
  <course>305.4</course>
  <speed>2.168893727225933</speed>
  <fix>3d</fix>
</trkpt>
<trkpt lat="40.0716175" lon="-105.2297377">
  <ele>1583.0</ele>
  <time>2026-08-29T19:29:56Z</time>
  <course>303.5</course>
  <speed>2.2</speed>
  <fix>3d</fix>
</trkpt>
<trkpt lat="40.0716199" lon="-105.2297424">
  <ele>1583.11</ele>
  <time>2026-08-29T19:29:56Z</time>
  <course>305.39</course>
  <speed>2.168893727225933</speed>
  <fix>3d</fix>
</trkpt>
<trkpt lat="40.0716175" lon="-105.2297377">
  <ele>1583.0</ele>
  <time>2026-08-29T19:29:56Z</time>
  <course>303.5</course>
  <speed>2.2</speed>
  <fix>3d</fix>
</trkpt>
<trkpt lat="40.071621" lon="-105.2297446">
  <ele>1583.11</ele>
  <time>2026-08-29T19:29:56Z</time>
  <course>305.38</course>
  <speed>2.168893727225933</speed>
  <fix>3d</fix>
</trkpt>
<trkpt lat="40.0716197" lon="-105.2297421">
  <ele>1583.0</ele>
  <time>2026-08-29T19:29:56Z</time>
  <course>303.49</course>
  <speed>2.2</speed>
  <fix>3d</fix>
</trkpt>
<trkpt lat="40.0716221" lon="-105.2297468">
  <ele>1583.12</ele>
  <time>2026-08-29T19:29:56Z</time>
  <course>305.37</course>
  <speed>2.168893727225933</speed>
  <fix>3d</fix>
</trkpt>
<trkpt lat="40.0716197" lon="-105.2297421">
  <ele>1583.0</ele>
  <time>2026-08-29T19:29:56Z</time>
  <course>303.49</course>
  <speed>2.2</speed>
  <fix>3d</fix>
</trkpt>
<trkpt lat="40.0716232" lon="-105.2297489">
  <ele>1583.12</ele>
  <time>2026-08-29T19:29:56Z</time>
  <course>305.37</course>
  <speed>2.168893727225933</speed>
  <fix>3d</fix>
</trkpt>
<trkpt lat="40.0716197" lon="-105.2297421">
  <ele>1583.0</ele>
  <time>2026-08-29T19:29:56Z</time>
  <course>303.49</course>
  <speed>2.2</speed>
  <fix>3d</fix>
</trkpt>
<trkpt lat="40.0716243" lon="-105.2297511">
  <ele>1583.12</ele>
  <time>2026-08-29T19:29:56Z</time>
  <course>305.36</course>
  <speed>2.168893727225933</speed>
  <fix>3d</fix>
</trkpt>
<trkpt lat="40.0716218" lon="-105.2297464">
  <ele>1583.0</ele>
  <time>2026-08-29T19:29:56Z</time>
  <course>303.48</course>
  <speed>2.2</speed>
  <fix>3d</fix>
</trkpt>
<trkpt lat="40.0716254" lon="-105.2297532">
  <ele>1583.12</ele>
  <time>2026-08-29T19:29:56Z</time>
  <course>305.35</course>
  <speed>2.168893727225933</speed>
  <fix>3d</fix>
</trkpt>
<trkpt lat="40.0716218" lon="-105.2297464">
  <ele>1583.0</ele>
  <time>2026-08-29T19:29:56Z</time>
  <course>303.48</course>
  <speed>2.2</speed>
  <fix>3d</fix>
</trkpt>
<trkpt lat="40.0716265" lon="-105.2297554">
  <ele>1583.12</ele>
  <time>2026-08-29T19:29:56Z</time>
  <course>305.34</course>
  <speed>2.168893727225933</speed>
  <fix>3d</fix>
</trkpt>
<trkpt lat="40.071624" lon="-105.2297507">
  <ele>1583.0</ele>
  <time>2026-08-29T19:29:56Z</time>
  <course>303.47</course>
  <speed>2.2</speed>
  <fix>3d</fix>
</trkpt>
<trkpt lat="40.0716276" lon="-105.2297575">
  <ele>1583.12</ele>
  <time>2026-08-29T19:29:56Z</time>
  <course>305.34</course>
  <speed>2.168893727225933</speed>
  <fix>3d</fix>
</trkpt>
<trkpt lat="40.071624" lon="-105.2297507">
  <ele>1583.0</ele>
  <time>2026-08-29T19:29:56Z</time>
  <course>303.47</course>
  <speed>2.2</speed>
  <fix>3d</fix>
</trkpt>
<trkpt lat="40.0716287" lon="-105.2297597">
  <ele>1583.12</ele>
  <time>2026-08-29T19:29:56Z</time>
  <course>305.34</course>
  <speed>2.168893727225933</speed>
  <fix>3d</fix>
</trkpt>
<trkpt lat="40.0716262" lon="-105.229755">
  <ele>1583.0</ele>
  <time>2026-08-29T19:29:56Z</time>
  <course>303.46</course>
  <speed>2.2</speed>
  <fix>3d</fix>
</trkpt>
<trkpt lat="40.0716298" lon="-105.2297618">
  <ele>1583.12</ele>
  <time>2026-08-29T19:29:56Z</time>
  <course>305.34</course>
  <speed>2.168893727225933</speed>
  <fix>3d</fix>
</trkpt>
<trkpt lat="40.0716262" lon="-105.229755">
  <ele>1583.0</ele>
  <time>2026-08-29T19:29:56Z</time>
  <course>303.46</course>
  <speed>2.2</speed>
  <fix>3d</fix>
</trkpt>
<trkpt lat="40.0716308" lon="-105.2297639">
  <ele>1583.12</ele>
  <time>2026-08-29T19:29:56Z</time>
  <course>305.34</course>
  <speed>2.168893727225933</speed>
  <fix>3d</fix>
</trkpt>
<trkpt lat="40.0716283" lon="-105.2297593">
  <ele>1583.0</ele>
  <time>2026-08-29T19:29:56Z</time>
  <course>303.45</course>
  <speed>2.2</speed>
  <fix>3d</fix>
</trkpt>
<trkpt lat="40.0716319" lon="-105.2297661">
  <ele>1583.12</ele>
  <time>2026-08-29T19:29:56Z</time>
  <course>305.33</course>
  <speed>2.168893727225933</speed>
  <fix>3d</fix>
</trkpt>
<trkpt lat="40.0716306" lon="-105.2297637">
  <ele>1583.0</ele>
  <time>2026-08-29T19:29:56Z</time>
  <course>303.45</course>
  <speed>2.2</speed>
  <fix>3d</fix>
</trkpt>
<trkpt lat="40.071633" lon="-105.2297682">
  <ele>1583.12</ele>
  <time>2026-08-29T19:29:56Z</time>
  <course>305.33</course>
  <speed>2.168893727225933</speed>
  <fix>3d</fix>
</trkpt>
<trkpt lat="40.0716306" lon="-105.2297637">
  <ele>1583.0</ele>
  <time>2026-08-29T19:29:56Z</time>
  <course>303.45</course>
  <speed>2.2</speed>
  <fix>3d</fix>
</trkpt>
<trkpt lat="40.0716341" lon="-105.2297704">
  <ele>1583.11</ele>
  <time>2026-08-29T19:29:56Z</time>
  <course>305.33</course>
  <speed>2.168893727225933</speed>
  <fix>3d</fix>
</trkpt>
<trkpt lat="40.0716327" lon="-105.229768">
  <ele>1583.0</ele>
  <time>2026-08-29T19:29:56Z</time>
  <course>303.45</course>
  <speed>2.2</speed>
  <fix>3d</fix>
</trkpt>
<trkpt lat="40.0716352" lon="-105.2297726">
  <ele>1583.11</ele>
  <time>2026-08-29T19:29:56Z</time>
  <course>305.33</course>
  <speed>2.168893727225933</speed>
  <fix>3d</fix>
</trkpt>
<trkpt lat="40.0716327" lon="-105.229768">
  <ele>1583.0</ele>
  <time>2026-08-29T19:29:56Z</time>
  <course>303.45</course>
  <speed>2.2</speed>
  <fix>3d</fix>
</trkpt>
<trkpt lat="40.0716363" lon="-105.2297747">
  <ele>1583.11</ele>
  <time>2026-08-29T19:29:56Z</time>
  <course>305.33</course>
  <speed>2.168893727225933</speed>
  <fix>3d</fix>
</trkpt>
<trkpt lat="40.071635" lon="-105.2297723">
  <ele>1583.0</ele>
  <time>2026-08-29T19:29:56Z</time>
  <course>303.45</course>
  <speed>2.2</speed>
  <fix>3d</fix>
</trkpt>
<trkpt lat="40.0716374" lon="-105.2297769">
  <ele>1583.1</ele>
  <time>2026-08-29T19:29:56Z</time>
  <course>305.33</course>
  <speed>2.168893727225933</speed>
  <fix>3d</fix>
</trkpt>
<trkpt lat="40.071635" lon="-105.2297723">
  <ele>1583.0</ele>
  <time>2026-08-29T19:29:56Z</time>
  <course>303.45</course>
  <speed>2.2</speed>
  <fix>3d</fix>
</trkpt>
<trkpt lat="40.0716385" lon="-105.2297791">
  <ele>1583.1</ele>
  <time>2026-08-29T19:29:56Z</time>
  <course>305.32</course>
  <speed>2.168893727225933</speed>
  <fix>3d</fix>
</trkpt>
<trkpt lat="40.0716372" lon="-105.2297766">
  <ele>1583.0</ele>
  <time>2026-08-29T19:29:56Z</time>
  <course>303.45</course>
  <speed>2.2</speed>
  <fix>3d</fix>
</trkpt>
<trkpt lat="40.0716396" lon="-105.2297813">
  <ele>1583.1</ele>
  <time>2026-08-29T19:29:56Z</time>
  <course>305.32</course>
  <speed>2.168893727225933</speed>
  <fix>3d</fix>
</trkpt>
<trkpt lat="40.0716372" lon="-105.2297766">
  <ele>1583.0</ele>
  <time>2026-08-29T19:29:56Z</time>
  <course>303.45</course>
  <speed>2.2</speed>
  <fix>3d</fix>
</trkpt>
<trkpt lat="40.0716407" lon="-105.2297834">
  <ele>1583.1</ele>
  <time>2026-08-29T19:29:56Z</time>
  <course>305.32</course>
  <speed>2.168893727225933</speed>
  <fix>3d</fix>
</trkpt>
<trkpt lat="40.0716393" lon="-105.229781">
  <ele>1583.0</ele>
  <time>2026-08-29T19:29:56Z</time>
  <course>303.45</course>
  <speed>2.2</speed>
  <fix>3d</fix>
</trkpt>
<trkpt lat="40.0716418" lon="-105.2297856">
  <ele>1583.1</ele>
  <time>2026-08-29T19:29:56Z</time>
  <course>305.32</course>
  <speed>2.177200036744442</speed>
  <fix>3d</fix>
</trkpt>
<trkpt lat="40.0716393" lon="-105.229781">
  <ele>1583.0</ele>
  <time>2026-08-29T19:29:56Z</time>
  <course>303.45</course>
  <speed>2.2</speed>
  <fix>3d</fix>
</trkpt>
<trkpt lat="40.0716429" lon="-105.2297878">
  <ele>1583.1</ele>
  <time>2026-08-29T19:29:56Z</time>
  <course>305.32</course>
  <speed>2.177200036744442</speed>
  <fix>3d</fix>
</trkpt>
<trkpt lat="40.0716415" lon="-105.2297853">
  <ele>1583.0</ele>
  <time>2026-08-29T19:29:56Z</time>
  <course>303.45</course>
  <speed>2.2</speed>
  <fix>3d</fix>
</trkpt>
<trkpt lat="40.071644" lon="-105.22979">
  <ele>1583.1</ele>
  <time>2026-08-29T19:29:56Z</time>
  <course>305.31</course>
  <speed>2.177200036744442</speed>
  <fix>3d</fix>
</trkpt>
<trkpt lat="40.0716415" lon="-105.2297853">
  <ele>1583.0</ele>
  <time>2026-08-29T19:29:56Z</time>
  <course>303.45</course>
  <speed>2.2</speed>
  <fix>3d</fix>
</trkpt>
<trkpt lat="40.0716451" lon="-105.2297921">
  <ele>1583.1</ele>
  <time>2026-08-29T19:29:56Z</time>
  <course>305.31</course>
  <speed>2.177200036744442</speed>
  <fix>3d</fix>
</trkpt>
<trkpt lat="40.0716436" lon="-105.2297896">
  <ele>1583.0</ele>
  <time>2026-08-29T19:29:56Z</time>
  <course>303.45</course>
  <speed>2.2</speed>
  <fix>3d</fix>
</trkpt>
<trkpt lat="40.0716462" lon="-105.2297943">
  <ele>1583.1</ele>
  <time>2026-08-29T19:29:56Z</time>
  <course>305.31</course>
  <speed>2.177200036744442</speed>
  <fix>3d</fix>
</trkpt>
<trkpt lat="40.0716436" lon="-105.2297896">
  <ele>1583.0</ele>
  <time>2026-08-29T19:29:56Z</time>
  <course>303.45</course>
  <speed>2.2</speed>
  <fix>3d</fix>
</trkpt>
<trkpt lat="40.0716473" lon="-105.2297965">
  <ele>1583.1</ele>
  <time>2026-08-29T19:29:56Z</time>
  <course>305.31</course>
  <speed>2.177200036744442</speed>
  <fix>3d</fix>
</trkpt>
<trkpt lat="40.0716436" lon="-105.2297896">
  <ele>1583.0</ele>
  <time>2026-08-29T19:29:56Z</time>
  <course>303.45</course>
  <speed>2.2</speed>
  <fix>3d</fix>
</trkpt>
<trkpt lat="40.0716484" lon="-105.2297987">
  <ele>1583.1</ele>
  <time>2026-08-29T19:29:56Z</time>
  <course>305.31</course>
  <speed>2.177200036744442</speed>
  <fix>3d</fix>
</trkpt>
<trkpt lat="40.0716459" lon="-105.2297939">
  <ele>1583.0</ele>
  <time>2026-08-29T19:29:56Z</time>
  <course>303.45</course>
  <speed>2.2</speed>
  <fix>3d</fix>
</trkpt>
<trkpt lat="40.0716495" lon="-105.2298008">
  <ele>1583.1</ele>
  <time>2026-08-29T19:29:56Z</time>
  <course>305.3</course>
  <speed>2.177200036744442</speed>
  <fix>3d</fix>
</trkpt>
<trkpt lat="40.0716459" lon="-105.2297939">
  <ele>1583.0</ele>
  <time>2026-08-29T19:29:56Z</time>
  <course>303.45</course>
  <speed>2.2</speed>
  <fix>3d</fix>
</trkpt>
<trkpt lat="40.0716506" lon="-105.2298029">
  <ele>1583.1</ele>
  <time>2026-08-29T19:29:56Z</time>
  <course>305.32</course>
  <speed>2.177200036744442</speed>
  <fix>3d</fix>
</trkpt>
<trkpt lat="40.0716481" lon="-105.2297983">
  <ele>1583.0</ele>
  <time>2026-08-29T19:29:56Z</time>
  <course>303.45</course>
  <speed>2.2</speed>
  <fix>3d</fix>
</trkpt>
<trkpt lat="40.0716516" lon="-105.2298051">
  <ele>1583.1</ele>
  <time>2026-08-29T19:29:56Z</time>
  <course>305.35</course>
  <speed>2.168893727225933</speed>
  <fix>3d</fix>
</trkpt>
<trkpt lat="40.0716481" lon="-105.2297983">
  <ele>1583.0</ele>
  <time>2026-08-29T19:29:56Z</time>
  <course>303.45</course>
  <speed>2.2</speed>
  <fix>3d</fix>
</trkpt>
<trkpt lat="40.0716527" lon="-105.2298072">
  <ele>1583.1</ele>
  <time>2026-08-29T19:29:56Z</time>
  <course>305.37</course>
  <speed>2.168893727225933</speed>
  <fix>3d</fix>
</trkpt>
<trkpt lat="40.0716503" lon="-105.2298026">
  <ele>1583.0</ele>
  <time>2026-08-29T19:29:56Z</time>
  <course>303.48</course>
  <speed>2.2</speed>
  <fix>3d</fix>
</trkpt>
<trkpt lat="40.0716538" lon="-105.2298094">
  <ele>1583.1</ele>
  <time>2026-08-29T19:29:56Z</time>
  <course>305.4</course>
  <speed>2.168893727225933</speed>
  <fix>3d</fix>
</trkpt>
<trkpt lat="40.0716525" lon="-105.2298069">
  <ele>1583.0</ele>
  <time>2026-08-29T19:29:56Z</time>
  <course>303.53</course>
  <speed>2.2</speed>
  <fix>3d</fix>
</trkpt>
<trkpt lat="40.0716549" lon="-105.2298115">
  <ele>1583.1</ele>
  <time>2026-08-29T19:29:56Z</time>
  <course>305.43</course>
  <speed>2.174488445588985</speed>
  <fix>3d</fix>
</trkpt>
<trkpt lat="40.0716525" lon="-105.2298069">
  <ele>1583.0</ele>
  <time>2026-08-29T19:29:56Z</time>
  <course>303.53</course>
  <speed>2.2</speed>
  <fix>3d</fix>
</trkpt>
<trkpt lat="40.071656" lon="-105.2298137">
  <ele>1583.1</ele>
  <time>2026-08-29T19:29:56Z</time>
  <course>305.45</course>
  <speed>2.174488445588985</speed>
  <fix>3d</fix>
</trkpt>
<trkpt lat="40.0716546" lon="-105.2298112">
  <ele>1583.0</ele>
  <time>2026-08-29T19:29:56Z</time>
  <course>303.58</course>
  <speed>2.2</speed>
  <fix>3d</fix>
</trkpt>
<trkpt lat="40.0716571" lon="-105.2298158">
  <ele>1583.1</ele>
  <time>2026-08-29T19:29:56Z</time>
  <course>305.48</course>
  <speed>2.174488445588985</speed>
  <fix>3d</fix>
</trkpt>
<trkpt lat="40.0716546" lon="-105.2298112">
  <ele>1583.0</ele>
  <time>2026-08-29T19:29:56Z</time>
  <course>303.58</course>
  <speed>2.2</speed>
  <fix>3d</fix>
</trkpt>
<trkpt lat="40.0716582" lon="-105.229818">
  <ele>1583.1</ele>
  <time>2026-08-29T19:29:56Z</time>
  <course>305.51</course>
  <speed>2.174488445588985</speed>
  <fix>3d</fix>
</trkpt>
<trkpt lat="40.0716568" lon="-105.2298155">
  <ele>1583.0</ele>
  <time>2026-08-29T19:29:56Z</time>
  <course>303.64</course>
  <speed>2.2</speed>
  <fix>3d</fix>
</trkpt>
<trkpt lat="40.0716593" lon="-105.2298202">
  <ele>1583.11</ele>
  <time>2026-08-29T19:29:56Z</time>
  <course>305.54</course>
  <speed>2.174488445588985</speed>
  <fix>3d</fix>
</trkpt>
<trkpt lat="40.0716568" lon="-105.2298155">
  <ele>1583.0</ele>
  <time>2026-08-29T19:29:56Z</time>
  <course>303.64</course>
  <speed>2.2</speed>
  <fix>3d</fix>
</trkpt>
<trkpt lat="40.0716604" lon="-105.2298223">
  <ele>1583.11</ele>
  <time>2026-08-29T19:29:56Z</time>
  <course>305.56</course>
  <speed>2.174488445588985</speed>
  <fix>3d</fix>
</trkpt>
<trkpt lat="40.0716591" lon="-105.2298198">
  <ele>1583.0</ele>
  <time>2026-08-29T19:29:56Z</time>
  <course>303.7</course>
  <speed>2.2</speed>
  <fix>3d</fix>
</trkpt>
<trkpt lat="40.0716616" lon="-105.2298245">
  <ele>1583.11</ele>
  <time>2026-08-29T19:29:56Z</time>
  <course>305.59</course>
  <speed>2.174488445588985</speed>
  <fix>3d</fix>
</trkpt>
<trkpt lat="40.0716591" lon="-105.2298198">
  <ele>1583.0</ele>
  <time>2026-08-29T19:29:56Z</time>
  <course>303.7</course>
  <speed>2.2</speed>
  <fix>3d</fix>
</trkpt>
<trkpt lat="40.0716627" lon="-105.2298267">
  <ele>1583.11</ele>
  <time>2026-08-29T19:29:56Z</time>
  <course>305.62</course>
  <speed>2.174488445588985</speed>
  <fix>3d</fix>
</trkpt>
<trkpt lat="40.0716613" lon="-105.2298241">
  <ele>1583.0</ele>
  <time>2026-08-29T19:29:56Z</time>
  <course>303.76</course>
  <speed>2.2</speed>
  <fix>3d</fix>
</trkpt>
<trkpt lat="40.0716638" lon="-105.2298288">
  <ele>1583.11</ele>
  <time>2026-08-29T19:29:56Z</time>
  <course>305.65</course>
  <speed>2.1801146758828995</speed>
  <fix>3d</fix>
</trkpt>
<trkpt lat="40.0716613" lon="-105.2298241">
  <ele>1583.0</ele>
  <time>2026-08-29T19:29:56Z</time>
  <course>303.76</course>
  <speed>2.2</speed>
  <fix>3d</fix>
</trkpt>
<trkpt lat="40.0716649" lon="-105.229831">
  <ele>1583.11</ele>
  <time>2026-08-29T19:29:56Z</time>
  <course>305.7</course>
  <speed>2.1801146758828995</speed>
  <fix>3d</fix>
</trkpt>
<trkpt lat="40.0716635" lon="-105.2298284">
  <ele>1583.0</ele>
  <time>2026-08-29T19:29:56Z</time>
  <course>303.83</course>
  <speed>2.2</speed>
  <fix>3d</fix>
</trkpt>
<trkpt lat="40.071666" lon="-105.2298332">
  <ele>1583.11</ele>
  <time>2026-08-29T19:29:56Z</time>
  <course>305.79</course>
  <speed>2.1801146758828995</speed>
  <fix>3d</fix>
</trkpt>
<trkpt lat="40.0716635" lon="-105.2298284">
  <ele>1583.0</ele>
  <time>2026-08-29T19:29:56Z</time>
  <course>303.83</course>
  <speed>2.2</speed>
  <fix>3d</fix>
</trkpt>
<trkpt lat="40.0716671" lon="-105.2298353">
  <ele>1583.11</ele>
  <time>2026-08-29T19:29:56Z</time>
  <course>305.92</course>
  <speed>2.177544488638522</speed>
  <fix>3d</fix>
</trkpt>
<trkpt lat="40.0716656" lon="-105.2298327">
  <ele>1583.0</ele>
  <time>2026-08-29T19:29:56Z</time>
  <course>303.99</course>
  <speed>2.2</speed>
  <fix>3d</fix>
</trkpt>
<trkpt lat="40.0716683" lon="-105.2298374">
  <ele>1583.11</ele>
  <time>2026-08-29T19:29:56Z</time>
  <course>306.09</course>
  <speed>2.177544488638522</speed>
  <fix>3d</fix>
</trkpt>
<trkpt lat="40.0716656" lon="-105.2298327">
  <ele>1583.0</ele>
  <time>2026-08-29T19:29:56Z</time>
  <course>303.99</course>
  <speed>2.2</speed>
  <fix>3d</fix>
</trkpt>
<trkpt lat="40.0716694" lon="-105.2298396">
  <ele>1583.1</ele>
  <time>2026-08-29T19:29:56Z</time>
  <course>306.31</course>
  <speed>2.1750632174720805</speed>
  <fix>3d</fix>
</trkpt>
<trkpt lat="40.0716656" lon="-105.2298327">
  <ele>1583.0</ele>
  <time>2026-08-29T19:29:56Z</time>
  <course>303.99</course>
  <speed>2.2</speed>
  <fix>3d</fix>
</trkpt>
<trkpt lat="40.0716705" lon="-105.2298417">
  <ele>1583.1</ele>
  <time>2026-08-29T19:29:56Z</time>
  <course>306.58</course>
  <speed>2.180825531765437</speed>
  <fix>3d</fix>
</trkpt>
<trkpt lat="40.0716678" lon="-105.229837">
  <ele>1583.0</ele>
  <time>2026-08-29T19:29:56Z</time>
  <course>304.3</course>
  <speed>2.2</speed>
  <fix>3d</fix>
</trkpt>
<trkpt lat="40.0716716" lon="-105.2298438">
  <ele>1583.1</ele>
  <time>2026-08-29T19:29:56Z</time>
  <course>306.89</course>
  <speed>2.1726711670199887</speed>
  <fix>3d</fix>
</trkpt>
<trkpt lat="40.0716678" lon="-105.229837">
  <ele>1583.0</ele>
  <time>2026-08-29T19:29:56Z</time>
  <course>304.3</course>
  <speed>2.2</speed>
  <fix>3d</fix>
</trkpt>
<trkpt lat="40.0716727" lon="-105.2298459">
  <ele>1583.1</ele>
  <time>2026-08-29T19:29:56Z</time>
  <course>307.26</course>
  <speed>2.176235281397671</speed>
  <fix>3d</fix>
</trkpt>
<trkpt lat="40.0716701" lon="-105.2298413">
  <ele>1583.0</ele>
  <time>2026-08-29T19:29:56Z</time>
  <course>304.79</course>
  <speed>2.2</speed>
  <fix>3d</fix>
</trkpt>
<trkpt lat="40.0716739" lon="-105.229848">
  <ele>1583.1</ele>
  <time>2026-08-29T19:29:56Z</time>
  <course>307.69</course>
  <speed>2.1740745157422734</speed>
  <fix>3d</fix>
</trkpt>
<trkpt lat="40.0716701" lon="-105.2298413">
  <ele>1583.0</ele>
  <time>2026-08-29T19:29:56Z</time>
  <course>304.79</course>
  <speed>2.2</speed>
  <fix>3d</fix>
</trkpt>
<trkpt lat="40.071675" lon="-105.22985">
  <ele>1583.11</ele>
  <time>2026-08-29T19:29:56Z</time>
  <course>308.19</course>
  <speed>2.1640009242142204</speed>
  <fix>3d</fix>
</trkpt>
<trkpt lat="40.0716724" lon="-105.2298456">
  <ele>1583.0</ele>
  <time>2026-08-29T19:29:56Z</time>
  <course>305.49</course>
  <speed>2.2</speed>
  <fix>3d</fix>
</trkpt>
<trkpt lat="40.0716762" lon="-105.2298521">
  <ele>1583.11</ele>
  <time>2026-08-29T19:29:56Z</time>
  <course>308.76</course>
  <speed>2.1681328372588244</speed>
  <fix>3d</fix>
</trkpt>
<trkpt lat="40.0716747" lon="-105.2298498">
  <ele>1583.0</ele>
  <time>2026-08-29T19:29:56Z</time>
  <course>306.43</course>
  <speed>2.2</speed>
  <fix>3d</fix>
</trkpt>
<trkpt lat="40.0716774" lon="-105.2298542">
  <ele>1583.11</ele>
  <time>2026-08-29T19:29:56Z</time>
  <course>309.41</course>
  <speed>2.1646246787838304</speed>
  <fix>3d</fix>
</trkpt>
<trkpt lat="40.0716747" lon="-105.2298498">
  <ele>1583.0</ele>
  <time>2026-08-29T19:29:56Z</time>
  <course>306.43</course>
  <speed>2.2</speed>
  <fix>3d</fix>
</trkpt>
<trkpt lat="40.0716786" lon="-105.2298562">
  <ele>1583.11</ele>
  <time>2026-08-29T19:29:56Z</time>
  <course>310.17</course>
  <speed>2.1614809737770075</speed>
  <fix>3d</fix>
</trkpt>
<trkpt lat="40.071677" lon="-105.2298539">
  <ele>1583.0</ele>
  <time>2026-08-29T19:29:56Z</time>
  <course>307.67</course>
  <speed>2.19</speed>
  <fix>3d</fix>
</trkpt>
<trkpt lat="40.0716799" lon="-105.2298582">
  <ele>1583.12</ele>
  <time>2026-08-29T19:29:56Z</time>
  <course>311.03</course>
  <speed>2.1587033144922905</speed>
  <fix>3d</fix>
</trkpt>
<trkpt lat="40.071677" lon="-105.2298539">
  <ele>1583.0</ele>
  <time>2026-08-29T19:29:56Z</time>
  <course>307.67</course>
  <speed>2.19</speed>
  <fix>3d</fix>
</trkpt>
<trkpt lat="40.0716811" lon="-105.2298601">
  <ele>1583.12</ele>
  <time>2026-08-29T19:29:56Z</time>
  <course>312.0</course>
  <speed>2.1552262062252305</speed>
  <fix>3d</fix>
</trkpt>
<trkpt lat="40.0716795" lon="-105.2298578">
  <ele>1583.0</ele>
  <time>2026-08-29T19:29:56Z</time>
  <course>309.3</course>
  <speed>2.19</speed>
  <fix>3d</fix>
</trkpt>
<trkpt lat="40.0716824" lon="-105.2298621">
  <ele>1583.12</ele>
  <time>2026-08-29T19:29:56Z</time>
  <course>313.14</course>
  <speed>2.1525798475317934</speed>
  <fix>3d</fix>
</trkpt>
<trkpt lat="40.0716795" lon="-105.2298578">
  <ele>1583.0</ele>
  <time>2026-08-29T19:29:56Z</time>
  <course>309.3</course>
  <speed>2.19</speed>
  <fix>3d</fix>
</trkpt>
<trkpt lat="40.0716837" lon="-105.229864">
  <ele>1583.12</ele>
  <time>2026-08-29T19:29:56Z</time>
  <course>314.45</course>
  <speed>2.1434784813475503</speed>
  <fix>3d</fix>
</trkpt>
<trkpt lat="40.071682" lon="-105.2298618">
  <ele>1583.0</ele>
  <time>2026-08-29T19:29:56Z</time>
  <course>311.45</course>
  <speed>2.18</speed>
  <fix>3d</fix>
</trkpt>
<trkpt lat="40.0716851" lon="-105.2298658">
  <ele>1583.12</ele>
  <time>2026-08-29T19:29:56Z</time>
  <course>315.96</course>
  <speed>2.142545215392198</speed>
  <fix>3d</fix>
</trkpt>
<trkpt lat="40.071682" lon="-105.2298618">
  <ele>1583.0</ele>
  <time>2026-08-29T19:29:56Z</time>
  <course>311.45</course>
  <speed>2.18</speed>
  <fix>3d</fix>
</trkpt>
<trkpt lat="40.0716865" lon="-105.2298676">
  <ele>1583.12</ele>
  <time>2026-08-29T19:29:56Z</time>
  <course>317.64</course>
  <speed>2.1362116000059546</speed>
  <fix>3d</fix>
</trkpt>
<trkpt lat="40.0716848" lon="-105.2298655">
  <ele>1583.0</ele>
  <time>2026-08-29T19:29:56Z</time>
  <course>314.28</course>
  <speed>2.17</speed>
  <fix>3d</fix>
</trkpt>
<trkpt lat="40.0716879" lon="-105.2298694">
  <ele>1583.12</ele>
  <time>2026-08-29T19:29:56Z</time>
  <course>319.49</course>
  <speed>2.1251352898109803</speed>
  <fix>3d</fix>
</trkpt>
<trkpt lat="40.0716848" lon="-105.2298655">
  <ele>1583.0</ele>
  <time>2026-08-29T19:29:56Z</time>
  <course>314.28</course>
  <speed>2.17</speed>
  <fix>3d</fix>
</trkpt>
<trkpt lat="40.0716894" lon="-105.229871">
  <ele>1583.12</ele>
  <time>2026-08-29T19:29:56Z</time>
  <course>321.57</course>
  <speed>2.117829077144801</speed>
  <fix>3d</fix>
</trkpt>
<trkpt lat="40.0716876" lon="-105.2298691">
  <ele>1583.0</ele>
  <time>2026-08-29T19:29:56Z</time>
  <course>317.84</course>
  <speed>2.16</speed>
  <fix>3d</fix>
</trkpt>
<trkpt lat="40.0716909" lon="-105.2298726">
  <ele>1583.12</ele>
  <time>2026-08-29T19:29:56Z</time>
  <course>323.93</course>
  <speed>2.114000946073582</speed>
  <fix>3d</fix>
</trkpt>
<trkpt lat="40.0716876" lon="-105.2298691">
  <ele>1583.0</ele>
  <time>2026-08-29T19:29:56Z</time>
  <course>317.84</course>
  <speed>2.16</speed>
  <fix>3d</fix>
</trkpt>
<trkpt lat="40.0716925" lon="-105.2298741">
  <ele>1583.12</ele>
  <time>2026-08-29T19:29:56Z</time>
  <course>326.63</course>
  <speed>2.1023796041628637</speed>
  <fix>3d</fix>
</trkpt>
<trkpt lat="40.0716905" lon="-105.2298724">
  <ele>1583.0</ele>
  <time>2026-08-29T19:29:56Z</time>
  <course>322.34</course>
  <speed>2.14</speed>
  <fix>3d</fix>
</trkpt>
<trkpt lat="40.0716941" lon="-105.2298754">
  <ele>1583.12</ele>
  <time>2026-08-29T19:29:56Z</time>
  <course>329.77</course>
  <speed>2.0854256160314133</speed>
  <fix>3d</fix>
</trkpt>
<trkpt lat="40.0716905" lon="-105.2298724">
  <ele>1583.0</ele>
  <time>2026-08-29T19:29:56Z</time>
  <course>322.34</course>
  <speed>2.14</speed>
  <fix>3d</fix>
</trkpt>
<trkpt lat="40.0716957" lon="-105.2298767">
  <ele>1583.12</ele>
  <time>2026-08-29T19:29:56Z</time>
  <course>333.47</course>
  <speed>2.0573040611440985</speed>
  <fix>3d</fix>
</trkpt>
<trkpt lat="40.0716905" lon="-105.2298724">
  <ele>1583.0</ele>
  <time>2026-08-29T19:29:56Z</time>
  <course>322.34</course>
  <speed>2.14</speed>
  <fix>3d</fix>
</trkpt>
<trkpt lat="40.0716974" lon="-105.2298777">
  <ele>1583.12</ele>
  <time>2026-08-29T19:29:56Z</time>
  <course>337.83</course>
  <speed>2.0353869410998984</speed>
  <fix>3d</fix>
</trkpt>
<trkpt lat="40.0716937" lon="-105.2298752">
  <ele>1583.0</ele>
  <time>2026-08-29T19:29:56Z</time>
  <course>328.3</course>
  <speed>2.11</speed>
  <fix>3d</fix>
</trkpt>
<trkpt lat="40.0716991" lon="-105.2298785">
  <ele>1583.13</ele>
  <time>2026-08-29T19:29:56Z</time>
  <course>343.11</course>
  <speed>2.008606482116395</speed>
  <fix>3d</fix>
</trkpt>
<trkpt lat="40.0716937" lon="-105.2298752">
  <ele>1583.0</ele>
  <time>2026-08-29T19:29:56Z</time>
  <course>328.3</course>
  <speed>2.11</speed>
  <fix>3d</fix>
</trkpt>
<trkpt lat="40.0717009" lon="-105.2298791">
  <ele>1583.12</ele>
  <time>2026-08-29T19:29:56Z</time>
  <course>349.48</course>
  <speed>1.9847921805569468</speed>
  <fix>3d</fix>
</trkpt>
<trkpt lat="40.071697" lon="-105.2298775">
  <ele>1583.0</ele>
  <time>2026-08-29T19:29:56Z</time>
  <course>336.55</course>
  <speed>2.06</speed>
  <fix>3d</fix>
</trkpt>
<trkpt lat="40.0717026" lon="-105.2298794">
  <ele>1583.12</ele>
  <time>2026-08-29T19:29:56Z</time>
  <course>356.93</course>
  <speed>1.9625493624365222</speed>
  <fix>3d</fix>
</trkpt>
<trkpt lat="40.071697" lon="-105.2298775">
  <ele>1583.0</ele>
  <time>2026-08-29T19:29:56Z</time>
  <course>336.55</course>
  <speed>2.06</speed>
  <fix>3d</fix>
</trkpt>
<trkpt lat="40.0717044" lon="-105.2298793">
  <ele>1583.13</ele>
  <time>2026-08-29T19:29:56Z</time>
  <course>5.45</course>
  <speed>1.9592345444075858</speed>
  <fix>3d</fix>
</trkpt>
<trkpt lat="40.0717005" lon="-105.229879">
  <ele>1583.0</ele>
  <time>2026-08-29T19:29:56Z</time>
  <course>348.31</course>
  <speed>2.01</speed>
  <fix>3d</fix>
</trkpt>
<trkpt lat="40.0717061" lon="-105.2298789">
  <ele>1583.13</ele>
  <time>2026-08-29T19:29:56Z</time>
  <course>15.04</course>
  <speed>1.9409533739891847</speed>
  <fix>3d</fix>
</trkpt>
<trkpt lat="40.0717005" lon="-105.229879">
  <ele>1583.0</ele>
  <time>2026-08-29T19:29:56Z</time>
  <course>348.31</course>
  <speed>2.01</speed>
  <fix>3d</fix>
</trkpt>
<trkpt lat="40.0717078" lon="-105.2298781">
  <ele>1583.13</ele>
  <time>2026-08-29T19:29:56Z</time>
  <course>25.61</course>
  <speed>1.9319679086361656</speed>
  <fix>3d</fix>
</trkpt>
<trkpt lat="40.0717041" lon="-105.2298793">
  <ele>1583.0</ele>
  <time>2026-08-29T19:29:56Z</time>
  <course>4.36</course>
  <speed>1.97</speed>
  <fix>3d</fix>
</trkpt>
<trkpt lat="40.0717092" lon="-105.229877">
  <ele>1583.12</ele>
  <time>2026-08-29T19:29:56Z</time>
  <course>36.24</course>
  <speed>1.9120669444347391</speed>
  <fix>3d</fix>
</trkpt>
<trkpt lat="40.0717075" lon="-105.2298783">
  <ele>1583.0</ele>
  <time>2026-08-29T19:29:56Z</time>
  <course>23.96</course>
  <speed>1.94</speed>
  <fix>3d</fix>
</trkpt>
<trkpt lat="40.0717105" lon="-105.2298754">
  <ele>1583.12</ele>
  <time>2026-08-29T19:29:56Z</time>
  <course>46.11</course>
  <speed>1.882817038376273</speed>
  <fix>3d</fix>
</trkpt>
<trkpt lat="40.0717075" lon="-105.2298783">
  <ele>1583.0</ele>
  <time>2026-08-29T19:29:56Z</time>
  <course>23.96</course>
  <speed>1.94</speed>
  <fix>3d</fix>
</trkpt>
<trkpt lat="40.0717115" lon="-105.2298737">
  <ele>1583.12</ele>
  <time>2026-08-29T19:29:56Z</time>
  <course>54.81</course>
  <speed>1.8111046352985793</speed>
  <fix>3d</fix>
</trkpt>
<trkpt lat="40.0717103" lon="-105.2298758">
  <ele>1583.0</ele>
  <time>2026-08-29T19:29:56Z</time>
  <course>43.64</course>
  <speed>1.88</speed>
  <fix>3d</fix>
</trkpt>
<trkpt lat="40.0717123" lon="-105.2298719">
  <ele>1583.12</ele>
  <time>2026-08-29T19:29:56Z</time>
  <course>62.53</course>
  <speed>1.7399425277864784</speed>
  <fix>3d</fix>
</trkpt>
<trkpt lat="40.0717103" lon="-105.2298758">
  <ele>1583.0</ele>
  <time>2026-08-29T19:29:56Z</time>
  <course>43.64</course>
  <speed>1.88</speed>
  <fix>3d</fix>
</trkpt>
<trkpt lat="40.0717129" lon="-105.22987">
  <ele>1583.12</ele>
  <time>2026-08-29T19:29:56Z</time>
  <course>69.18</course>
  <speed>1.691892431568863</speed>
  <fix>3d</fix>
</trkpt>
<trkpt lat="40.0717123" lon="-105.2298725">
  <ele>1583.0</ele>
  <time>2026-08-29T19:29:56Z</time>
  <course>60.16</course>
  <speed>1.76</speed>
  <fix>3d</fix>
</trkpt>
<trkpt lat="40.0717134" lon="-105.2298681">
  <ele>1583.12</ele>
  <time>2026-08-29T19:29:56Z</time>
  <course>74.76</course>
  <speed>1.685734261382855</speed>
  <fix>3d</fix>
</trkpt>
<trkpt lat="40.0717123" lon="-105.2298725">
  <ele>1583.0</ele>
  <time>2026-08-29T19:29:56Z</time>
  <course>60.16</course>
  <speed>1.76</speed>
  <fix>3d</fix>
</trkpt>
<trkpt lat="40.0717137" lon="-105.2298661">
  <ele>1583.12</ele>
  <time>2026-08-29T19:29:56Z</time>
  <course>79.26</course>
  <speed>1.6901183390520322</speed>
  <fix>3d</fix>
</trkpt>
<trkpt lat="40.0717135" lon="-105.2298687">
  <ele>1583.0</ele>
  <time>2026-08-29T19:29:56Z</time>
  <course>72.61</course>
  <speed>1.69</speed>
  <fix>3d</fix>
</trkpt>
<trkpt lat="40.0717139" lon="-105.2298641">
  <ele>1583.11</ele>
  <time>2026-08-29T19:29:56Z</time>
  <course>82.7</course>
  <speed>1.7084788555905512</speed>
  <fix>3d</fix>
</trkpt>
<trkpt lat="40.0717135" lon="-105.2298687">
  <ele>1583.0</ele>
  <time>2026-08-29T19:29:56Z</time>
  <course>72.61</course>
  <speed>1.69</speed>
  <fix>3d</fix>
</trkpt>
<trkpt lat="40.0717141" lon="-105.2298621">
  <ele>1583.11</ele>
  <time>2026-08-29T19:29:56Z</time>
  <course>85.0</course>
  <speed>1.7428711943227475</speed>
  <fix>3d</fix>
</trkpt>
<trkpt lat="40.0717142" lon="-105.2298648">
  <ele>1583.0</ele>
  <time>2026-08-29T19:29:56Z</time>
  <course>80.58</course>
  <speed>1.71</speed>
  <fix>3d</fix>
</trkpt>
<trkpt lat="40.0717142" lon="-105.22986">
  <ele>1583.11</ele>
  <time>2026-08-29T19:29:56Z</time>
  <course>86.42</course>
  <speed>1.7813758727455584</speed>
  <fix>3d</fix>
</trkpt>
<trkpt lat="40.0717142" lon="-105.2298648">
  <ele>1583.0</ele>
  <time>2026-08-29T19:29:56Z</time>
  <course>80.58</course>
  <speed>1.71</speed>
  <fix>3d</fix>
</trkpt>
<trkpt lat="40.0717143" lon="-105.2298579">
  <ele>1583.11</ele>
  <time>2026-08-29T19:29:56Z</time>
  <course>87.62</course>
  <speed>1.8304371062672435</speed>
  <fix>3d</fix>
</trkpt>
<trkpt lat="40.0717146" lon="-105.2298608">
  <ele>1583.0</ele>
  <time>2026-08-29T19:29:56Z</time>
  <course>84.77</course>
  <speed>1.77</speed>
  <fix>3d</fix>
</trkpt>
<trkpt lat="40.0717144" lon="-105.2298557">
  <ele>1583.11</ele>
  <time>2026-08-29T19:29:56Z</time>
  <course>88.61</course>
  <speed>1.880026595556563</speed>
  <fix>3d</fix>
</trkpt>
<trkpt lat="40.0717146" lon="-105.2298608">
  <ele>1583.0</ele>
  <time>2026-08-29T19:29:56Z</time>
  <course>84.77</course>
  <speed>1.77</speed>
  <fix>3d</fix>
</trkpt>
<trkpt lat="40.0717144" lon="-105.2298535">
  <ele>1583.11</ele>
  <time>2026-08-29T19:29:56Z</time>
  <course>89.42</course>
  <speed>1.93</speed>
  <fix>3d</fix>
</trkpt>
<trkpt lat="40.0717148" lon="-105.2298565">
  <ele>1583.0</ele>
  <time>2026-08-29T19:29:56Z</time>
  <course>87.0</course>
  <speed>1.86</speed>
  <fix>3d</fix>
</trkpt>
<trkpt lat="40.0717145" lon="-105.2298512">
  <ele>1583.11</ele>
  <time>2026-08-29T19:29:56Z</time>
  <course>90.09</course>
  <speed>1.9700253805471644</speed>
  <fix>3d</fix>
</trkpt>
<trkpt lat="40.0717148" lon="-105.2298565">
  <ele>1583.0</ele>
  <time>2026-08-29T19:29:56Z</time>
  <course>87.0</course>
  <speed>1.86</speed>
  <fix>3d</fix>
</trkpt>
<trkpt lat="40.0717145" lon="-105.2298488">
  <ele>1583.11</ele>
  <time>2026-08-29T19:29:56Z</time>
  <course>90.64</course>
  <speed>2.000099997500125</speed>
  <fix>3d</fix>
</trkpt>
<trkpt lat="40.0717148" lon="-105.2298565">
  <ele>1583.0</ele>
  <time>2026-08-29T19:29:56Z</time>
  <course>87.0</course>
  <speed>1.86</speed>
  <fix>3d</fix>
</trkpt>
<trkpt lat="40.0717146" lon="-105.2298465">
  <ele>1583.11</ele>
  <time>2026-08-29T19:29:56Z</time>
  <course>91.09</course>
  <speed>2.0302216627747818</speed>
  <fix>3d</fix>
</trkpt>
<trkpt lat="40.0717149" lon="-105.229852">
  <ele>1583.0</ele>
  <time>2026-08-29T19:29:56Z</time>
  <course>88.53</course>
  <speed>1.94</speed>
  <fix>3d</fix>
</trkpt>
<trkpt lat="40.0717146" lon="-105.2298441">
  <ele>1583.11</ele>
  <time>2026-08-29T19:29:56Z</time>
  <course>91.46</course>
  <speed>2.060388312915796</speed>
  <fix>3d</fix>
</trkpt>
<trkpt lat="40.0717149" lon="-105.229852">
  <ele>1583.0</ele>
  <time>2026-08-29T19:29:56Z</time>
  <course>88.53</course>
  <speed>1.94</speed>
  <fix>3d</fix>
</trkpt>
<trkpt lat="40.0717146" lon="-105.2298417">
  <ele>1583.11</ele>
  <time>2026-08-29T19:29:56Z</time>
  <course>91.74</course>
  <speed>2.080384579831335</speed>
  <fix>3d</fix>
</trkpt>
<trkpt lat="40.071715" lon="-105.2298474">
  <ele>1583.0</ele>
  <time>2026-08-29T19:29:56Z</time>
  <course>89.57</course>
  <speed>2.0</speed>
  <fix>3d</fix>
</trkpt>
<trkpt lat="40.0717146" lon="-105.2298393">
  <ele>1583.11</ele>
  <time>2026-08-29T19:29:56Z</time>
  <course>91.96</course>
  <speed>2.1005951537600005</speed>
  <fix>3d</fix>
</trkpt>
<trkpt lat="40.071715" lon="-105.2298474">
  <ele>1583.0</ele>
  <time>2026-08-29T19:29:56Z</time>
  <course>89.57</course>
  <speed>2.0</speed>
  <fix>3d</fix>
</trkpt>
<trkpt lat="40.0717146" lon="-105.2298369">
  <ele>1583.11</ele>
  <time>2026-08-29T19:29:56Z</time>
  <course>92.17</course>
  <speed>2.1205895406702355</speed>
  <fix>3d</fix>
</trkpt>
<trkpt lat="40.071715" lon="-105.2298426">
  <ele>1583.0</ele>
  <time>2026-08-29T19:29:56Z</time>
  <course>90.23</course>
  <speed>2.05</speed>
  <fix>3d</fix>
</trkpt>
<trkpt lat="40.0717147" lon="-105.2298344">
  <ele>1583.11</ele>
  <time>2026-08-29T19:29:56Z</time>
  <course>92.36</course>
  <speed>2.1305867736377224</speed>
  <fix>3d</fix>
</trkpt>
<trkpt lat="40.071715" lon="-105.2298377">
  <ele>1583.0</ele>
  <time>2026-08-29T19:29:56Z</time>
  <course>90.68</course>
  <speed>2.09</speed>
  <fix>3d</fix>
</trkpt>
<trkpt lat="40.0717147" lon="-105.2298319">
  <ele>1583.11</ele>
  <time>2026-08-29T19:29:56Z</time>
  <course>92.53</course>
  <speed>2.1405840324546945</speed>
  <fix>3d</fix>
</trkpt>
<trkpt lat="40.071715" lon="-105.2298377">
  <ele>1583.0</ele>
  <time>2026-08-29T19:29:56Z</time>
  <course>90.68</course>
  <speed>2.09</speed>
  <fix>3d</fix>
</trkpt>
<trkpt lat="40.0717147" lon="-105.2298294">
  <ele>1583.11</ele>
  <time>2026-08-29T19:29:56Z</time>
  <course>92.68</course>
  <speed>2.1505813167606567</speed>
  <fix>3d</fix>
</trkpt>
<trkpt lat="40.071715" lon="-105.2298328">
  <ele>1583.0</ele>
  <time>2026-08-29T19:29:56Z</time>
  <course>91.05</course>
  <speed>2.12</speed>
  <fix>3d</fix>
</trkpt>
<trkpt lat="40.0717147" lon="-105.2298269">
  <ele>1583.12</ele>
  <time>2026-08-29T19:29:56Z</time>
  <course>92.83</course>
  <speed>2.1605786262017865</speed>
  <fix>3d</fix>
</trkpt>
<trkpt lat="40.071715" lon="-105.2298328">
  <ele>1583.0</ele>
  <time>2026-08-29T19:29:56Z</time>
  <course>91.05</course>
  <speed>2.12</speed>
  <fix>3d</fix>
</trkpt>
<trkpt lat="40.0717147" lon="-105.2298244">
  <ele>1583.12</ele>
  <time>2026-08-29T19:29:56Z</time>
  <course>92.96</course>
  <speed>2.1705759604307793</speed>
  <fix>3d</fix>
</trkpt>
<trkpt lat="40.0717149" lon="-105.2298278">
  <ele>1583.0</ele>
  <time>2026-08-29T19:29:56Z</time>
  <course>91.35</course>
  <speed>2.14</speed>
  <fix>3d</fix>
</trkpt>
<trkpt lat="40.0717147" lon="-105.2298218">
  <ele>1583.12</ele>
  <time>2026-08-29T19:29:56Z</time>
  <course>93.07</course>
  <speed>2.180573319106698</speed>
  <fix>3d</fix>
</trkpt>
<trkpt lat="40.0717149" lon="-105.2298278">
  <ele>1583.0</ele>
  <time>2026-08-29T19:29:56Z</time>
  <course>91.35</course>
  <speed>2.14</speed>
  <fix>3d</fix>
</trkpt>
<trkpt lat="40.0717146" lon="-105.2298193">
  <ele>1583.13</ele>
  <time>2026-08-29T19:29:56Z</time>
  <course>93.19</course>
  <speed>2.180573319106698</speed>
  <fix>3d</fix>
</trkpt>
<trkpt lat="40.0717148" lon="-105.2298227">
  <ele>1583.0</ele>
  <time>2026-08-29T19:29:56Z</time>
  <course>91.61</course>
  <speed>2.15</speed>
  <fix>3d</fix>
</trkpt>
<trkpt lat="40.0717146" lon="-105.2298167">
  <ele>1583.13</ele>
  <time>2026-08-29T19:29:56Z</time>
  <course>93.28</course>
  <speed>2.190570701894828</speed>
  <fix>3d</fix>
</trkpt>
<trkpt lat="40.0717148" lon="-105.2298227">
  <ele>1583.0</ele>
  <time>2026-08-29T19:29:56Z</time>
  <course>91.61</course>
  <speed>2.15</speed>
  <fix>3d</fix>
</trkpt>
<trkpt lat="40.0717146" lon="-105.2298141">
  <ele>1583.13</ele>
  <time>2026-08-29T19:29:56Z</time>
  <course>93.37</course>
  <speed>2.190570701894828</speed>
  <fix>3d</fix>
</trkpt>
<trkpt lat="40.0717147" lon="-105.2298176">
  <ele>1583.0</ele>
  <time>2026-08-29T19:29:56Z</time>
  <course>91.81</course>
  <speed>2.17</speed>
  <fix>3d</fix>
</trkpt>
<trkpt lat="40.0717145" lon="-105.2298115">
  <ele>1583.13</ele>
  <time>2026-08-29T19:29:56Z</time>
  <course>93.45</course>
  <speed>2.2005681084665385</speed>
  <fix>3d</fix>
</trkpt>
<trkpt lat="40.0717147" lon="-105.2298176">
  <ele>1583.0</ele>
  <time>2026-08-29T19:29:56Z</time>
  <course>91.81</course>
  <speed>2.17</speed>
  <fix>3d</fix>
</trkpt>
<trkpt lat="40.0717145" lon="-105.229809">
  <ele>1583.14</ele>
  <time>2026-08-29T19:29:56Z</time>
  <course>93.54</course>
  <speed>2.2005681084665385</speed>
  <fix>3d</fix>
</trkpt>
<trkpt lat="40.0717146" lon="-105.2298125">
  <ele>1583.0</ele>
  <time>2026-08-29T19:29:56Z</time>
  <course>91.99</course>
  <speed>2.17</speed>
  <fix>3d</fix>
</trkpt>
<trkpt lat="40.0717145" lon="-105.2298064">
  <ele>1583.14</ele>
  <time>2026-08-29T19:29:56Z</time>
  <course>93.6</course>
  <speed>2.2005681084665385</speed>
  <fix>3d</fix>
</trkpt>
<trkpt lat="40.0717146" lon="-105.2298125">
  <ele>1583.0</ele>
  <time>2026-08-29T19:29:56Z</time>
  <course>91.99</course>
  <speed>2.17</speed>
  <fix>3d</fix>
</trkpt>
<trkpt lat="40.0717144" lon="-105.2298038">
  <ele>1583.14</ele>
  <time>2026-08-29T19:29:56Z</time>
  <course>93.66</course>
  <speed>2.2005681084665385</speed>
  <fix>3d</fix>
</trkpt>
<trkpt lat="40.0717145" lon="-105.2298074">
  <ele>1583.0</ele>
  <time>2026-08-29T19:29:56Z</time>
  <course>92.15</course>
  <speed>2.18</speed>
  <fix>3d</fix>
</trkpt>
<trkpt lat="40.0717144" lon="-105.2298012">
  <ele>1583.14</ele>
  <time>2026-08-29T19:29:56Z</time>
  <course>93.71</course>
  <speed>2.2005681084665385</speed>
  <fix>3d</fix>
</trkpt>
<trkpt lat="40.0717145" lon="-105.2298074">
  <ele>1583.0</ele>
  <time>2026-08-29T19:29:56Z</time>
  <course>92.15</course>
  <speed>2.18</speed>
  <fix>3d</fix>
</trkpt>
<trkpt lat="40.0717143" lon="-105.2297986">
  <ele>1583.14</ele>
  <time>2026-08-29T19:29:56Z</time>
  <course>93.77</course>
  <speed>2.2005681084665385</speed>
  <fix>3d</fix>
</trkpt>
<trkpt lat="40.0717145" lon="-105.2298074">
  <ele>1583.0</ele>
  <time>2026-08-29T19:29:56Z</time>
  <course>92.15</course>
  <speed>2.18</speed>
  <fix>3d</fix>
</trkpt>
<trkpt lat="40.0717142" lon="-105.2297961">
  <ele>1583.14</ele>
  <time>2026-08-29T19:29:56Z</time>
  <course>93.82</course>
  <speed>2.2005681084665385</speed>
  <fix>3d</fix>
</trkpt>
<trkpt lat="40.0717143" lon="-105.2298023">
  <ele>1583.0</ele>
  <time>2026-08-29T19:29:56Z</time>
  <course>92.27</course>
  <speed>2.18</speed>
  <fix>3d</fix>
</trkpt>
<trkpt lat="40.0717142" lon="-105.2297935">
  <ele>1583.14</ele>
  <time>2026-08-29T19:29:56Z</time>
  <course>93.88</course>
  <speed>2.2005681084665385</speed>
  <fix>3d</fix>
</trkpt>
<trkpt lat="40.0717143" lon="-105.2298023">
  <ele>1583.0</ele>
  <time>2026-08-29T19:29:56Z</time>
  <course>92.27</course>
  <speed>2.18</speed>
  <fix>3d</fix>
</trkpt>
<trkpt lat="40.0717141" lon="-105.229791">
  <ele>1583.14</ele>
  <time>2026-08-29T19:29:56Z</time>
  <course>93.92</course>
  <speed>2.2005681084665385</speed>
  <fix>3d</fix>
</trkpt>
<trkpt lat="40.0717142" lon="-105.2297971">
  <ele>1583.0</ele>
  <time>2026-08-29T19:29:56Z</time>
  <course>92.39</course>
  <speed>2.19</speed>
  <fix>3d</fix>
</trkpt>
<trkpt lat="40.0717141" lon="-105.2297885">
  <ele>1583.14</ele>
  <time>2026-08-29T19:29:56Z</time>
  <course>93.96</course>
  <speed>2.2005681084665385</speed>
  <fix>3d</fix>
</trkpt>
<trkpt lat="40.0717142" lon="-105.2297971">
  <ele>1583.0</ele>
  <time>2026-08-29T19:29:56Z</time>
  <course>92.39</course>
  <speed>2.19</speed>
  <fix>3d</fix>
</trkpt>
<trkpt lat="40.071714" lon="-105.2297859">
  <ele>1583.14</ele>
  <time>2026-08-29T19:29:56Z</time>
  <course>93.98</course>
  <speed>2.2005681084665385</speed>
  <fix>3d</fix>
</trkpt>
<trkpt lat="40.071714" lon="-105.229792">
  <ele>1583.0</ele>
  <time>2026-08-29T19:29:56Z</time>
  <course>92.5</course>
  <speed>2.19</speed>
  <fix>3d</fix>
</trkpt>
<trkpt lat="40.0717139" lon="-105.2297834">
  <ele>1583.14</ele>
  <time>2026-08-29T19:29:56Z</time>
  <course>94.0</course>
  <speed>2.190570701894828</speed>
  <fix>3d</fix>
</trkpt>
<trkpt lat="40.071714" lon="-105.229792">
  <ele>1583.0</ele>
  <time>2026-08-29T19:29:56Z</time>
  <course>92.5</course>
  <speed>2.19</speed>
  <fix>3d</fix>
</trkpt>
<trkpt lat="40.0717138" lon="-105.2297808">
  <ele>1583.14</ele>
  <time>2026-08-29T19:29:56Z</time>
  <course>94.03</course>
  <speed>2.190570701894828</speed>
  <fix>3d</fix>
</trkpt>
<trkpt lat="40.0717138" lon="-105.2297868">
  <ele>1583.0</ele>
  <time>2026-08-29T19:29:56Z</time>
  <course>92.57</course>
  <speed>2.19</speed>
  <fix>3d</fix>
</trkpt>
<trkpt lat="40.0717138" lon="-105.2297783">
  <ele>1583.14</ele>
  <time>2026-08-29T19:29:56Z</time>
  <course>94.05</course>
  <speed>2.190570701894828</speed>
  <fix>3d</fix>
</trkpt>
<trkpt lat="40.0717136" lon="-105.2297817">
  <ele>1583.0</ele>
  <time>2026-08-29T19:29:56Z</time>
  <course>92.63</course>
  <speed>2.19</speed>
  <fix>3d</fix>
</trkpt>
<trkpt lat="40.0717137" lon="-105.2297758">
  <ele>1583.14</ele>
  <time>2026-08-29T19:29:56Z</time>
  <course>94.08</course>
  <speed>2.190821763631172</speed>
  <fix>3d</fix>
</trkpt>
<trkpt lat="40.0717136" lon="-105.2297817">
  <ele>1583.0</ele>
  <time>2026-08-29T19:29:56Z</time>
  <course>92.63</course>
  <speed>2.19</speed>
  <fix>3d</fix>
</trkpt>
<trkpt lat="40.0717136" lon="-105.2297732">
  <ele>1583.14</ele>
  <time>2026-08-29T19:29:56Z</time>
  <course>94.1</course>
  <speed>2.190821763631172</speed>
  <fix>3d</fix>
</trkpt>
<trkpt lat="40.0717135" lon="-105.2297765">
  <ele>1583.0</ele>
  <time>2026-08-29T19:29:56Z</time>
  <course>92.69</course>
  <speed>2.19</speed>
  <fix>3d</fix>
</trkpt>
<trkpt lat="40.0717135" lon="-105.2297706">
  <ele>1583.14</ele>
  <time>2026-08-29T19:29:56Z</time>
  <course>94.12</course>
  <speed>2.190821763631172</speed>
  <fix>3d</fix>
</trkpt>
<trkpt lat="40.0717135" lon="-105.2297765">
  <ele>1583.0</ele>
  <time>2026-08-29T19:29:56Z</time>
  <course>92.69</course>
  <speed>2.19</speed>
  <fix>3d</fix>
</trkpt>
<trkpt lat="40.0717134" lon="-105.2297681">
  <ele>1583.14</ele>
  <time>2026-08-29T19:29:56Z</time>
  <course>94.13</course>
  <speed>2.180825531765437</speed>
  <fix>3d</fix>
</trkpt>
<trkpt lat="40.0717133" lon="-105.2297714">
  <ele>1583.0</ele>
  <time>2026-08-29T19:29:56Z</time>
  <course>92.74</course>
  <speed>2.19</speed>
  <fix>3d</fix>
</trkpt>
<trkpt lat="40.0717133" lon="-105.2297655">
  <ele>1583.14</ele>
  <time>2026-08-29T19:29:56Z</time>
  <course>94.13</course>
  <speed>2.180825531765437</speed>
  <fix>3d</fix>
</trkpt>
<trkpt lat="40.0717133" lon="-105.2297714">
  <ele>1583.0</ele>
  <time>2026-08-29T19:29:56Z</time>
  <course>92.74</course>
  <speed>2.19</speed>
  <fix>3d</fix>
</trkpt>
<trkpt lat="40.0717132" lon="-105.2297629">
  <ele>1583.13</ele>
  <time>2026-08-29T19:29:56Z</time>
  <course>94.13</course>
  <speed>2.180825531765437</speed>
  <fix>3d</fix>
</trkpt>
<trkpt lat="40.071713" lon="-105.2297663">
  <ele>1583.0</ele>
  <time>2026-08-29T19:29:56Z</time>
  <course>92.77</course>
  <speed>2.19</speed>
  <fix>3d</fix>
</trkpt>
<trkpt lat="40.0717131" lon="-105.2297603">
  <ele>1583.13</ele>
  <time>2026-08-29T19:29:56Z</time>
  <course>94.13</course>
  <speed>2.180825531765437</speed>
  <fix>3d</fix>
</trkpt>
<trkpt lat="40.071713" lon="-105.2297663">
  <ele>1583.0</ele>
  <time>2026-08-29T19:29:56Z</time>
  <course>92.77</course>
  <speed>2.19</speed>
  <fix>3d</fix>
</trkpt>
<trkpt lat="40.0717131" lon="-105.2297577">
  <ele>1583.13</ele>
  <time>2026-08-29T19:29:56Z</time>
  <course>94.12</course>
  <speed>2.180825531765437</speed>
  <fix>3d</fix>
</trkpt>
<trkpt lat="40.0717128" lon="-105.229761">
  <ele>1583.0</ele>
  <time>2026-08-29T19:29:56Z</time>
  <course>92.77</course>
  <speed>2.19</speed>
  <fix>3d</fix>
</trkpt>
<trkpt lat="40.0717129" lon="-105.2297551">
  <ele>1583.12</ele>
  <time>2026-08-29T19:29:56Z</time>
  <course>94.12</course>
  <speed>2.1811235636707975</speed>
  <fix>3d</fix>
</trkpt>
<trkpt lat="40.0717128" lon="-105.229761">
  <ele>1583.0</ele>
  <time>2026-08-29T19:29:56Z</time>
  <course>92.77</course>
  <speed>2.19</speed>
  <fix>3d</fix>
</trkpt>
<trkpt lat="40.0717128" lon="-105.2297525">
  <ele>1583.12</ele>
  <time>2026-08-29T19:29:56Z</time>
  <course>94.11</course>
  <speed>2.1811235636707975</speed>
  <fix>3d</fix>
</trkpt>
<trkpt lat="40.0717127" lon="-105.2297559">
  <ele>1583.0</ele>
  <time>2026-08-29T19:29:56Z</time>
  <course>92.77</course>
  <speed>2.19</speed>
  <fix>3d</fix>
</trkpt>
<trkpt lat="40.0717127" lon="-105.22975">
  <ele>1583.12</ele>
  <time>2026-08-29T19:29:56Z</time>
  <course>94.11</course>
  <speed>2.1811235636707975</speed>
  <fix>3d</fix>
</trkpt>
<trkpt lat="40.0717127" lon="-105.2297559">
  <ele>1583.0</ele>
  <time>2026-08-29T19:29:56Z</time>
  <course>92.77</course>
  <speed>2.19</speed>
  <fix>3d</fix>
</trkpt>
<trkpt lat="40.0717126" lon="-105.2297474">
  <ele>1583.12</ele>
  <time>2026-08-29T19:29:56Z</time>
  <course>94.1</course>
  <speed>2.1811235636707975</speed>
  <fix>3d</fix>
</trkpt>
<trkpt lat="40.0717124" lon="-105.2297507">
  <ele>1583.0</ele>
  <time>2026-08-29T19:29:56Z</time>
  <course>92.77</course>
  <speed>2.19</speed>
  <fix>3d</fix>
</trkpt>
<trkpt lat="40.0717125" lon="-105.2297448">
  <ele>1583.12</ele>
  <time>2026-08-29T19:29:56Z</time>
  <course>94.1</course>
  <speed>2.1811235636707975</speed>
  <fix>3d</fix>
</trkpt>
<trkpt lat="40.0717124" lon="-105.2297507">
  <ele>1583.0</ele>
  <time>2026-08-29T19:29:56Z</time>
  <course>92.77</course>
  <speed>2.19</speed>
  <fix>3d</fix>
</trkpt>
<trkpt lat="40.0717124" lon="-105.2297422">
  <ele>1583.13</ele>
  <time>2026-08-29T19:29:56Z</time>
  <course>94.1</course>
  <speed>2.1811235636707975</speed>
  <fix>3d</fix>
</trkpt>
<trkpt lat="40.0717124" lon="-105.2297507">
  <ele>1583.0</ele>
  <time>2026-08-29T19:29:56Z</time>
  <course>92.77</course>
  <speed>2.19</speed>
  <fix>3d</fix>
</trkpt>
<trkpt lat="40.0717123" lon="-105.2297397">
  <ele>1583.13</ele>
  <time>2026-08-29T19:29:56Z</time>
  <course>94.09</course>
  <speed>2.1811235636707975</speed>
  <fix>3d</fix>
</trkpt>
<trkpt lat="40.0717123" lon="-105.2297456">
  <ele>1583.0</ele>
  <time>2026-08-29T19:29:56Z</time>
  <course>92.77</course>
  <speed>2.19</speed>
  <fix>3d</fix>
</trkpt>
<trkpt lat="40.0717122" lon="-105.2297371">
  <ele>1583.13</ele>
  <time>2026-08-29T19:29:56Z</time>
  <course>94.09</course>
  <speed>2.1814673960433146</speed>
  <fix>3d</fix>
</trkpt>
<trkpt lat="40.0717123" lon="-105.2297456">
  <ele>1583.0</ele>
  <time>2026-08-29T19:29:56Z</time>
  <course>92.77</course>
  <speed>2.19</speed>
  <fix>3d</fix>
</trkpt>
<trkpt lat="40.0717121" lon="-105.2297346">
  <ele>1583.13</ele>
  <time>2026-08-29T19:29:56Z</time>
  <course>94.07</course>
  <speed>2.1714741536569115</speed>
  <fix>3d</fix>
</trkpt>
<trkpt lat="40.0717121" lon="-105.2297404">
  <ele>1583.0</ele>
  <time>2026-08-29T19:29:56Z</time>
  <course>92.77</course>
  <speed>2.19</speed>
  <fix>3d</fix>
</trkpt>
<trkpt lat="40.071712" lon="-105.229732">
  <ele>1583.13</ele>
  <time>2026-08-29T19:29:56Z</time>
  <course>94.03</course>
  <speed>2.1714741536569115</speed>
  <fix>3d</fix>
</trkpt>
<trkpt lat="40.0717121" lon="-105.2297404">
  <ele>1583.0</ele>
  <time>2026-08-29T19:29:56Z</time>
  <course>92.77</course>
  <speed>2.19</speed>
  <fix>3d</fix>
</trkpt>
<trkpt lat="40.0717119" lon="-105.2297295">
  <ele>1583.12</ele>
  <time>2026-08-29T19:29:56Z</time>
  <course>94.0</course>
  <speed>2.1714741536569115</speed>
  <fix>3d</fix>
</trkpt>
<trkpt lat="40.0717118" lon="-105.2297353">
  <ele>1583.0</ele>
  <time>2026-08-29T19:29:56Z</time>
  <course>92.75</course>
  <speed>2.19</speed>
  <fix>3d</fix>
</trkpt>
<trkpt lat="40.0717118" lon="-105.2297269">
  <ele>1583.12</ele>
  <time>2026-08-29T19:29:56Z</time>
  <course>93.97</course>
  <speed>2.1714741536569115</speed>
  <fix>3d</fix>
</trkpt>
<trkpt lat="40.0717117" lon="-105.2297301">
  <ele>1583.0</ele>
  <time>2026-08-29T19:29:56Z</time>
  <course>92.69</course>
  <speed>2.19</speed>
  <fix>3d</fix>
</trkpt>
<trkpt lat="40.0717117" lon="-105.2297243">
  <ele>1583.12</ele>
  <time>2026-08-29T19:29:56Z</time>
  <course>93.93</course>
  <speed>2.1714741536569115</speed>
  <fix>3d</fix>
</trkpt>
<trkpt lat="40.0717117" lon="-105.2297301">
  <ele>1583.0</ele>
  <time>2026-08-29T19:29:56Z</time>
  <course>92.69</course>
  <speed>2.19</speed>
  <fix>3d</fix>
</trkpt>
<trkpt lat="40.0717116" lon="-105.2297218">
  <ele>1583.12</ele>
  <time>2026-08-29T19:29:56Z</time>
  <course>93.9</course>
  <speed>2.1714741536569115</speed>
  <fix>3d</fix>
</trkpt>
<trkpt lat="40.0717116" lon="-105.229725">
  <ele>1583.0</ele>
  <time>2026-08-29T19:29:56Z</time>
  <course>92.63</course>
  <speed>2.19</speed>
  <fix>3d</fix>
</trkpt>
<trkpt lat="40.0717115" lon="-105.2297192">
  <ele>1583.12</ele>
  <time>2026-08-29T19:29:56Z</time>
  <course>93.87</course>
  <speed>2.1714741536569115</speed>
  <fix>3d</fix>
</trkpt>
<trkpt lat="40.0717116" lon="-105.229725">
  <ele>1583.0</ele>
  <time>2026-08-29T19:29:56Z</time>
  <course>92.63</course>
  <speed>2.19</speed>
  <fix>3d</fix>
</trkpt>
<trkpt lat="40.0717114" lon="-105.2297167">
  <ele>1583.12</ele>
  <time>2026-08-29T19:29:56Z</time>
  <course>93.85</course>
  <speed>2.1614809737770075</speed>
  <fix>3d</fix>
</trkpt>
<trkpt lat="40.0717114" lon="-105.2297198">
  <ele>1583.0</ele>
  <time>2026-08-29T19:29:56Z</time>
  <course>92.57</course>
  <speed>2.19</speed>
  <fix>3d</fix>
</trkpt>
<trkpt lat="40.0717113" lon="-105.2297141">
  <ele>1583.12</ele>
  <time>2026-08-29T19:29:56Z</time>
  <course>93.82</course>
  <speed>2.1714741536569115</speed>
  <fix>3d</fix>
</trkpt>
<trkpt lat="40.0717114" lon="-105.2297198">
  <ele>1583.0</ele>
  <time>2026-08-29T19:29:56Z</time>
  <course>92.57</course>
  <speed>2.19</speed>
  <fix>3d</fix>
</trkpt>
<trkpt lat="40.0717112" lon="-105.2297115">
  <ele>1583.12</ele>
  <time>2026-08-29T19:29:56Z</time>
  <course>93.79</course>
  <speed>2.1614809737770075</speed>
  <fix>3d</fix>
</trkpt>
<trkpt lat="40.0717111" lon="-105.2297146">
  <ele>1583.0</ele>
  <time>2026-08-29T19:29:56Z</time>
  <course>92.51</course>
  <speed>2.2</speed>
  <fix>3d</fix>
</trkpt>
<trkpt lat="40.0717111" lon="-105.2297089">
  <ele>1583.12</ele>
  <time>2026-08-29T19:29:56Z</time>
  <course>93.76</course>
  <speed>2.1714741536569115</speed>
  <fix>3d</fix>
</trkpt>
<trkpt lat="40.0717111" lon="-105.2297146">
  <ele>1583.0</ele>
  <time>2026-08-29T19:29:56Z</time>
  <course>92.51</course>
  <speed>2.2</speed>
  <fix>3d</fix>
</trkpt>
<trkpt lat="40.0717111" lon="-105.2297063">
  <ele>1583.12</ele>
  <time>2026-08-29T19:29:56Z</time>
  <course>93.73</course>
  <speed>2.1714741536569115</speed>
  <fix>3d</fix>
</trkpt>
<trkpt lat="40.071711" lon="-105.2297095">
  <ele>1583.0</ele>
  <time>2026-08-29T19:29:56Z</time>
  <course>92.46</course>
  <speed>2.2</speed>
  <fix>3d</fix>
</trkpt>
<trkpt lat="40.071711" lon="-105.2297037">
  <ele>1583.13</ele>
  <time>2026-08-29T19:29:56Z</time>
  <course>93.7</course>
  <speed>2.1714741536569115</speed>
  <fix>3d</fix>
</trkpt>
<trkpt lat="40.071711" lon="-105.2297095">
  <ele>1583.0</ele>
  <time>2026-08-29T19:29:56Z</time>
  <course>92.46</course>
  <speed>2.2</speed>
  <fix>3d</fix>
</trkpt>
<trkpt lat="40.0717109" lon="-105.2297011">
  <ele>1583.13</ele>
  <time>2026-08-29T19:29:56Z</time>
  <course>93.67</course>
  <speed>2.1714741536569115</speed>
  <fix>3d</fix>
</trkpt>
<trkpt lat="40.0717109" lon="-105.2297044">
  <ele>1583.0</ele>
  <time>2026-08-29T19:29:56Z</time>
  <course>92.4</course>
  <speed>2.2</speed>
  <fix>3d</fix>
</trkpt>
<trkpt lat="40.0717108" lon="-105.2296985">
  <ele>1583.13</ele>
  <time>2026-08-29T19:29:56Z</time>
  <course>93.64</course>
  <speed>2.1714741536569115</speed>
  <fix>3d</fix>
</trkpt>
<trkpt lat="40.0717109" lon="-105.2297044">
  <ele>1583.0</ele>
  <time>2026-08-29T19:29:56Z</time>
  <course>92.4</course>
  <speed>2.2</speed>
  <fix>3d</fix>
</trkpt>
<trkpt lat="40.0717107" lon="-105.229696">
  <ele>1583.13</ele>
  <time>2026-08-29T19:29:56Z</time>
  <course>93.62</course>
  <speed>2.1614809737770075</speed>
  <fix>3d</fix>
</trkpt>
<trkpt lat="40.0717106" lon="-105.2296992">
  <ele>1583.0</ele>
  <time>2026-08-29T19:29:56Z</time>
  <course>92.34</course>
  <speed>2.2</speed>
  <fix>3d</fix>
</trkpt>
<trkpt lat="40.0717106" lon="-105.2296934">
  <ele>1583.13</ele>
  <time>2026-08-29T19:29:56Z</time>
  <course>93.59</course>
  <speed>2.1714741536569115</speed>
  <fix>3d</fix>
</trkpt>
<trkpt lat="40.0717106" lon="-105.2296992">
  <ele>1583.0</ele>
  <time>2026-08-29T19:29:56Z</time>
  <course>92.34</course>
  <speed>2.2</speed>
  <fix>3d</fix>
</trkpt>
<trkpt lat="40.0717105" lon="-105.2296908">
  <ele>1583.14</ele>
  <time>2026-08-29T19:29:56Z</time>
  <course>93.55</course>
  <speed>2.1614809737770075</speed>
  <fix>3d</fix>
</trkpt>
<trkpt lat="40.0717106" lon="-105.2296992">
  <ele>1583.0</ele>
  <time>2026-08-29T19:29:56Z</time>
  <course>92.34</course>
  <speed>2.2</speed>
  <fix>3d</fix>
</trkpt>
<trkpt lat="40.0717104" lon="-105.2296882">
  <ele>1583.13</ele>
  <time>2026-08-29T19:29:56Z</time>
  <course>93.51</course>
  <speed>2.1614809737770075</speed>
  <fix>3d</fix>
</trkpt>
<trkpt lat="40.0717105" lon="-105.229694">
  <ele>1583.0</ele>
  <time>2026-08-29T19:29:56Z</time>
  <course>92.27</course>
  <speed>2.2</speed>
  <fix>3d</fix>
</trkpt>
<trkpt lat="40.0717103" lon="-105.2296857">
  <ele>1583.14</ele>
  <time>2026-08-29T19:29:56Z</time>
  <course>93.47</course>
  <speed>2.1614809737770075</speed>
  <fix>3d</fix>
</trkpt>
<trkpt lat="40.0717105" lon="-105.229694">
  <ele>1583.0</ele>
  <time>2026-08-29T19:29:56Z</time>
  <course>92.27</course>
  <speed>2.2</speed>
  <fix>3d</fix>
</trkpt>
<trkpt lat="40.0717103" lon="-105.2296831">
  <ele>1583.13</ele>
  <time>2026-08-29T19:29:56Z</time>
  <course>93.44</course>
  <speed>2.1614809737770075</speed>
  <fix>3d</fix>
</trkpt>
<trkpt lat="40.0717104" lon="-105.2296889">
  <ele>1583.0</ele>
  <time>2026-08-29T19:29:56Z</time>
  <course>92.2</course>
  <speed>2.2</speed>
  <fix>3d</fix>
</trkpt>
<trkpt lat="40.0717102" lon="-105.2296806">
  <ele>1583.13</ele>
  <time>2026-08-29T19:29:56Z</time>
  <course>93.4</course>
  <speed>2.1614809737770075</speed>
  <fix>3d</fix>
</trkpt>
<trkpt lat="40.0717104" lon="-105.2296889">
  <ele>1583.0</ele>
  <time>2026-08-29T19:29:56Z</time>
  <course>92.2</course>
  <speed>2.2</speed>
  <fix>3d</fix>
</trkpt>
<trkpt lat="40.0717101" lon="-105.229678">
  <ele>1583.13</ele>
  <time>2026-08-29T19:29:56Z</time>
  <course>93.36</course>
  <speed>2.1614809737770075</speed>
  <fix>3d</fix>
</trkpt>
<trkpt lat="40.0717102" lon="-105.2296837">
  <ele>1583.0</ele>
  <time>2026-08-29T19:29:56Z</time>
  <course>92.12</course>
  <speed>2.2</speed>
  <fix>3d</fix>
</trkpt>
<trkpt lat="40.07171" lon="-105.2296755">
  <ele>1583.13</ele>
  <time>2026-08-29T19:29:56Z</time>
  <course>93.32</course>
  <speed>2.1614809737770075</speed>
  <fix>3d</fix>
</trkpt>
<trkpt lat="40.0717102" lon="-105.2296837">
  <ele>1583.0</ele>
  <time>2026-08-29T19:29:56Z</time>
  <course>92.12</course>
  <speed>2.2</speed>
  <fix>3d</fix>
</trkpt>
<trkpt lat="40.0717099" lon="-105.2296729">
  <ele>1583.13</ele>
  <time>2026-08-29T19:29:56Z</time>
  <course>93.28</course>
  <speed>2.1614809737770075</speed>
  <fix>3d</fix>
</trkpt>
<trkpt lat="40.0717101" lon="-105.2296785">
  <ele>1583.0</ele>
  <time>2026-08-29T19:29:56Z</time>
  <course>92.05</course>
  <speed>2.2</speed>
  <fix>3d</fix>
</trkpt>
<trkpt lat="40.0717099" lon="-105.2296704">
  <ele>1583.13</ele>
  <time>2026-08-29T19:29:56Z</time>
  <course>93.25</course>
  <speed>2.1614809737770075</speed>
  <fix>3d</fix>
</trkpt>
<trkpt lat="40.0717099" lon="-105.2296734">
  <ele>1583.0</ele>
  <time>2026-08-29T19:29:56Z</time>
  <course>91.97</course>
  <speed>2.2</speed>
  <fix>3d</fix>
</trkpt>
<trkpt lat="40.0717098" lon="-105.2296678">
  <ele>1583.12</ele>
  <time>2026-08-29T19:29:56Z</time>
  <course>93.22</course>
  <speed>2.1614809737770075</speed>
  <fix>3d</fix>
</trkpt>
<trkpt lat="40.0717099" lon="-105.2296734">
  <ele>1583.0</ele>
  <time>2026-08-29T19:29:56Z</time>
  <course>91.97</course>
  <speed>2.2</speed>
  <fix>3d</fix>
</trkpt>
<trkpt lat="40.0717097" lon="-105.2296653">
  <ele>1583.12</ele>
  <time>2026-08-29T19:29:56Z</time>
  <course>93.18</course>
  <speed>2.1614809737770075</speed>
  <fix>3d</fix>
</trkpt>
<trkpt lat="40.0717098" lon="-105.2296681">
  <ele>1583.0</ele>
  <time>2026-08-29T19:29:56Z</time>
  <course>91.9</course>
  <speed>2.2</speed>
  <fix>3d</fix>
</trkpt>
<trkpt lat="40.0717097" lon="-105.2296627">
  <ele>1583.12</ele>
  <time>2026-08-29T19:29:56Z</time>
  <course>93.15</course>
  <speed>2.1614809737770075</speed>
  <fix>3d</fix>
</trkpt>
<trkpt lat="40.0717098" lon="-105.2296681">
  <ele>1583.0</ele>
  <time>2026-08-29T19:29:56Z</time>
  <course>91.9</course>
  <speed>2.2</speed>
  <fix>3d</fix>
</trkpt>
<trkpt lat="40.0717096" lon="-105.2296601">
  <ele>1583.12</ele>
  <time>2026-08-29T19:29:56Z</time>
  <course>93.12</course>
  <speed>2.1614809737770075</speed>
  <fix>3d</fix>
</trkpt>
<trkpt lat="40.0717097" lon="-105.2296629">
  <ele>1583.0</ele>
  <time>2026-08-29T19:29:56Z</time>
  <course>91.83</course>
  <speed>2.2</speed>
  <fix>3d</fix>
</trkpt>
<trkpt lat="40.0717095" lon="-105.2296575">
  <ele>1583.12</ele>
  <time>2026-08-29T19:29:56Z</time>
  <course>93.09</course>
  <speed>2.1614809737770075</speed>
  <fix>3d</fix>
</trkpt>
<trkpt lat="40.0717097" lon="-105.2296629">
  <ele>1583.0</ele>
  <time>2026-08-29T19:29:56Z</time>
  <course>91.83</course>
  <speed>2.2</speed>
  <fix>3d</fix>
</trkpt>
<trkpt lat="40.0717094" lon="-105.2296548">
  <ele>1583.12</ele>
  <time>2026-08-29T19:29:56Z</time>
  <course>93.06</course>
  <speed>2.1614809737770075</speed>
  <fix>3d</fix>
</trkpt>
<trkpt lat="40.0717095" lon="-105.2296578">
  <ele>1583.0</ele>
  <time>2026-08-29T19:29:56Z</time>
  <course>91.76</course>
  <speed>2.2</speed>
  <fix>3d</fix>
</trkpt>
<trkpt lat="40.0717094" lon="-105.2296522">
  <ele>1583.13</ele>
  <time>2026-08-29T19:29:56Z</time>
  <course>93.03</course>
  <speed>2.1614809737770075</speed>
  <fix>3d</fix>
</trkpt>
<trkpt lat="40.0717095" lon="-105.2296578">
  <ele>1583.0</ele>
  <time>2026-08-29T19:29:56Z</time>
  <course>91.76</course>
  <speed>2.2</speed>
  <fix>3d</fix>
</trkpt>
<trkpt lat="40.0717093" lon="-105.2296496">
  <ele>1583.13</ele>
  <time>2026-08-29T19:29:56Z</time>
  <course>93.0</course>
  <speed>2.1614809737770075</speed>
  <fix>3d</fix>
</trkpt>
<trkpt lat="40.0717094" lon="-105.2296527">
  <ele>1583.0</ele>
  <time>2026-08-29T19:29:56Z</time>
  <course>91.7</course>
  <speed>2.2</speed>
  <fix>3d</fix>
</trkpt>
<trkpt lat="40.0717092" lon="-105.229647">
  <ele>1583.13</ele>
  <time>2026-08-29T19:29:56Z</time>
  <course>92.97</course>
  <speed>2.1614809737770075</speed>
  <fix>3d</fix>
</trkpt>
<trkpt lat="40.0717094" lon="-105.2296527">
  <ele>1583.0</ele>
  <time>2026-08-29T19:29:56Z</time>
  <course>91.7</course>
  <speed>2.2</speed>
  <fix>3d</fix>
</trkpt>
<trkpt lat="40.0717092" lon="-105.2296444">
  <ele>1583.13</ele>
  <time>2026-08-29T19:29:56Z</time>
  <course>92.94</course>
  <speed>2.1614809737770075</speed>
  <fix>3d</fix>
</trkpt>
<trkpt lat="40.0717093" lon="-105.2296475">
  <ele>1583.0</ele>
  <time>2026-08-29T19:29:56Z</time>
  <course>91.64</course>
  <speed>2.2</speed>
  <fix>3d</fix>
</trkpt>
<trkpt lat="40.0717091" lon="-105.2296418">
  <ele>1583.13</ele>
  <time>2026-08-29T19:29:56Z</time>
  <course>92.92</course>
  <speed>2.1614809737770075</speed>
  <fix>3d</fix>
</trkpt>
<trkpt lat="40.0717093" lon="-105.2296475">
  <ele>1583.0</ele>
  <time>2026-08-29T19:29:56Z</time>
  <course>91.64</course>
  <speed>2.2</speed>
  <fix>3d</fix>
</trkpt>
<trkpt lat="40.071709" lon="-105.2296392">
  <ele>1583.13</ele>
  <time>2026-08-29T19:29:56Z</time>
  <course>92.89</course>
  <speed>2.1614809737770075</speed>
  <fix>3d</fix>
</trkpt>
<trkpt lat="40.0717093" lon="-105.2296475">
  <ele>1583.0</ele>
  <time>2026-08-29T19:29:56Z</time>
  <course>91.64</course>
  <speed>2.2</speed>
  <fix>3d</fix>
</trkpt>
<trkpt lat="40.071709" lon="-105.2296367">
  <ele>1583.12</ele>
  <time>2026-08-29T19:29:56Z</time>
  <course>92.86</course>
  <speed>2.1614809737770075</speed>
  <fix>3d</fix>
</trkpt>
<trkpt lat="40.0717092" lon="-105.2296423">
  <ele>1583.0</ele>
  <time>2026-08-29T19:29:56Z</time>
  <course>91.58</course>
  <speed>2.2</speed>
  <fix>3d</fix>
</trkpt>
<trkpt lat="40.0717089" lon="-105.2296341">
  <ele>1583.12</ele>
  <time>2026-08-29T19:29:56Z</time>
  <course>92.83</course>
  <speed>2.1614809737770075</speed>
  <fix>3d</fix>
</trkpt>
<trkpt lat="40.0717092" lon="-105.2296423">
  <ele>1583.0</ele>
  <time>2026-08-29T19:29:56Z</time>
  <course>91.58</course>
  <speed>2.2</speed>
  <fix>3d</fix>
</trkpt>
<trkpt lat="40.0717089" lon="-105.2296315">
  <ele>1583.12</ele>
  <time>2026-08-29T19:29:56Z</time>
  <course>92.8</course>
  <speed>2.1614809737770075</speed>
  <fix>3d</fix>
</trkpt>
<trkpt lat="40.0717091" lon="-105.229637">
  <ele>1583.0</ele>
  <time>2026-08-29T19:29:56Z</time>
  <course>91.52</course>
  <speed>2.2</speed>
  <fix>3d</fix>
</trkpt>
<trkpt lat="40.0717088" lon="-105.2296289">
  <ele>1583.12</ele>
  <time>2026-08-29T19:29:56Z</time>
  <course>92.77</course>
  <speed>2.1614809737770075</speed>
  <fix>3d</fix>
</trkpt>
<trkpt lat="40.0717091" lon="-105.229637">
  <ele>1583.0</ele>
  <time>2026-08-29T19:29:56Z</time>
  <course>91.52</course>
  <speed>2.2</speed>
  <fix>3d</fix>
</trkpt>
<trkpt lat="40.0717088" lon="-105.2296264">
  <ele>1583.11</ele>
  <time>2026-08-29T19:29:56Z</time>
  <course>92.74</course>
  <speed>2.1611339616044165</speed>
  <fix>3d</fix>
</trkpt>
<trkpt lat="40.071709" lon="-105.2296319">
  <ele>1583.0</ele>
  <time>2026-08-29T19:29:56Z</time>
  <course>91.46</course>
  <speed>2.2</speed>
  <fix>3d</fix>
</trkpt>
<trkpt lat="40.0717087" lon="-105.2296238">
  <ele>1583.11</ele>
  <time>2026-08-29T19:29:56Z</time>
  <course>92.71</course>
  <speed>2.1611339616044165</speed>
  <fix>3d</fix>
</trkpt>
<trkpt lat="40.071709" lon="-105.2296319">
  <ele>1583.0</ele>
  <time>2026-08-29T19:29:56Z</time>
  <course>91.46</course>
  <speed>2.2</speed>
  <fix>3d</fix>
</trkpt>
<trkpt lat="40.0717087" lon="-105.2296212">
  <ele>1583.11</ele>
  <time>2026-08-29T19:29:56Z</time>
  <course>92.68</course>
  <speed>2.1611339616044165</speed>
  <fix>3d</fix>
</trkpt>
<trkpt lat="40.0717089" lon="-105.2296267">
  <ele>1583.0</ele>
  <time>2026-08-29T19:29:56Z</time>
  <course>91.4</course>
  <speed>2.2</speed>
  <fix>3d</fix>
</trkpt>
<trkpt lat="40.0717086" lon="-105.2296187">
  <ele>1583.11</ele>
  <time>2026-08-29T19:29:56Z</time>
  <course>92.65</course>
  <speed>2.1611339616044165</speed>
  <fix>3d</fix>
</trkpt>
<trkpt lat="40.0717088" lon="-105.2296216">
  <ele>1583.0</ele>
  <time>2026-08-29T19:29:56Z</time>
  <course>91.34</course>
  <speed>2.2</speed>
  <fix>3d</fix>
</trkpt>
<trkpt lat="40.0717086" lon="-105.2296161">
  <ele>1583.11</ele>
  <time>2026-08-29T19:29:56Z</time>
  <course>92.62</course>
  <speed>2.1611339616044165</speed>
  <fix>3d</fix>
</trkpt>
<trkpt lat="40.0717088" lon="-105.2296216">
  <ele>1583.0</ele>
  <time>2026-08-29T19:29:56Z</time>
  <course>91.34</course>
  <speed>2.2</speed>
  <fix>3d</fix>
</trkpt>
<trkpt lat="40.0717085" lon="-105.2296135">
  <ele>1583.11</ele>
  <time>2026-08-29T19:29:56Z</time>
  <course>92.59</course>
  <speed>2.1611339616044165</speed>
  <fix>3d</fix>
</trkpt>
<trkpt lat="40.0717087" lon="-105.2296164">
  <ele>1583.0</ele>
  <time>2026-08-29T19:29:56Z</time>
  <course>91.28</course>
  <speed>2.2</speed>
  <fix>3d</fix>
</trkpt>
<trkpt lat="40.0717085" lon="-105.2296109">
  <ele>1583.11</ele>
  <time>2026-08-29T19:29:56Z</time>
  <course>92.56</course>
  <speed>2.1611339616044165</speed>
  <fix>3d</fix>
</trkpt>
<trkpt lat="40.0717087" lon="-105.2296164">
  <ele>1583.0</ele>
  <time>2026-08-29T19:29:56Z</time>
  <course>91.28</course>
  <speed>2.2</speed>
  <fix>3d</fix>
</trkpt>
<trkpt lat="40.0717084" lon="-105.2296083">
  <ele>1583.11</ele>
  <time>2026-08-29T19:29:56Z</time>
  <course>92.53</course>
  <speed>2.1611339616044165</speed>
  <fix>3d</fix>
</trkpt>
<trkpt lat="40.0717086" lon="-105.2296111">
  <ele>1583.0</ele>
  <time>2026-08-29T19:29:56Z</time>
  <course>91.22</course>
  <speed>2.2</speed>
  <fix>3d</fix>
</trkpt>
<trkpt lat="40.0717084" lon="-105.2296057">
  <ele>1583.1</ele>
  <time>2026-08-29T19:29:56Z</time>
  <course>92.5</course>
  <speed>2.1711287386979152</speed>
  <fix>3d</fix>
</trkpt>
<trkpt lat="40.0717086" lon="-105.2296111">
  <ele>1583.0</ele>
  <time>2026-08-29T19:29:56Z</time>
  <course>91.22</course>
  <speed>2.2</speed>
  <fix>3d</fix>
</trkpt>
<trkpt lat="40.0717083" lon="-105.2296031">
  <ele>1583.1</ele>
  <time>2026-08-29T19:29:56Z</time>
  <course>92.47</course>
  <speed>2.1711287386979152</speed>
  <fix>3d</fix>
</trkpt>
<trkpt lat="40.0717085" lon="-105.229606">
  <ele>1583.0</ele>
  <time>2026-08-29T19:29:56Z</time>
  <course>91.16</course>
  <speed>2.2</speed>
  <fix>3d</fix>
</trkpt>
<trkpt lat="40.0717083" lon="-105.2296004">
  <ele>1583.1</ele>
  <time>2026-08-29T19:29:56Z</time>
  <course>92.44</course>
  <speed>2.1711287386979152</speed>
  <fix>3d</fix>
</trkpt>
<trkpt lat="40.0717085" lon="-105.229606">
  <ele>1583.0</ele>
  <time>2026-08-29T19:29:56Z</time>
  <course>91.16</course>
  <speed>2.2</speed>
  <fix>3d</fix>
</trkpt>
<trkpt lat="40.0717082" lon="-105.2295978">
  <ele>1583.09</ele>
  <time>2026-08-29T19:29:57Z</time>
  <course>92.41</course>
  <speed>2.1711287386979152</speed>
  <fix>3d</fix>
</trkpt>
<trkpt lat="40.0717085" lon="-105.2296009">
  <ele>1583.0</ele>
  <time>2026-08-29T19:29:57Z</time>
  <course>91.1</course>
  <speed>2.21</speed>
  <fix>3d</fix>
</trkpt>
<trkpt lat="40.0717082" lon="-105.2295952">
  <ele>1583.09</ele>
  <time>2026-08-29T19:29:57Z</time>
  <course>92.39</course>
  <speed>2.1711287386979152</speed>
  <fix>3d</fix>
</trkpt>
<trkpt lat="40.0717085" lon="-105.2296009">
  <ele>1583.0</ele>
  <time>2026-08-29T19:29:57Z</time>
  <course>91.1</course>
  <speed>2.21</speed>
  <fix>3d</fix>
</trkpt>
<trkpt lat="40.0717082" lon="-105.2295926">
  <ele>1583.09</ele>
  <time>2026-08-29T19:29:57Z</time>
  <course>92.37</course>
  <speed>2.1711287386979152</speed>
  <fix>3d</fix>
</trkpt>
<trkpt lat="40.0717084" lon="-105.2295956">
  <ele>1583.0</ele>
  <time>2026-08-29T19:29:57Z</time>
  <course>91.05</course>
  <speed>2.21</speed>
  <fix>3d</fix>
</trkpt>
<trkpt lat="40.0717081" lon="-105.22959">
  <ele>1583.09</ele>
  <time>2026-08-29T19:29:57Z</time>
  <course>92.35</course>
  <speed>2.1711287386979152</speed>
  <fix>3d</fix>
</trkpt>
<trkpt lat="40.0717084" lon="-105.2295956">
  <ele>1583.0</ele>
  <time>2026-08-29T19:29:57Z</time>
  <course>91.05</course>
  <speed>2.21</speed>
  <fix>3d</fix>
</trkpt>
<trkpt lat="40.0717081" lon="-105.2295874">
  <ele>1583.09</ele>
  <time>2026-08-29T19:29:57Z</time>
  <course>92.34</course>
  <speed>2.1711287386979152</speed>
  <fix>3d</fix>
</trkpt>
<trkpt lat="40.0717083" lon="-105.2295905">
  <ele>1583.0</ele>
  <time>2026-08-29T19:29:57Z</time>
  <course>91.02</course>
  <speed>2.21</speed>
  <fix>3d</fix>
</trkpt>
<trkpt lat="40.071708" lon="-105.2295848">
  <ele>1583.1</ele>
  <time>2026-08-29T19:29:57Z</time>
  <course>92.33</course>
  <speed>2.1711287386979152</speed>
  <fix>3d</fix>
</trkpt>
<trkpt lat="40.0717083" lon="-105.2295905">
  <ele>1583.0</ele>
  <time>2026-08-29T19:29:57Z</time>
  <course>91.02</course>
  <speed>2.21</speed>
  <fix>3d</fix>
</trkpt>
<trkpt lat="40.071708" lon="-105.2295822">
  <ele>1583.1</ele>
  <time>2026-08-29T19:29:57Z</time>
  <course>92.32</course>
  <speed>2.1711287386979152</speed>
  <fix>3d</fix>
</trkpt>
<trkpt lat="40.0717083" lon="-105.2295905">
  <ele>1583.0</ele>
  <time>2026-08-29T19:29:57Z</time>
  <course>91.02</course>
  <speed>2.21</speed>
  <fix>3d</fix>
</trkpt>
<trkpt lat="40.071708" lon="-105.2295796">
  <ele>1583.1</ele>
  <time>2026-08-29T19:29:57Z</time>
  <course>92.32</course>
  <speed>2.1711287386979152</speed>
  <fix>3d</fix>
</trkpt>
<trkpt lat="40.0717082" lon="-105.2295853">
  <ele>1583.0</ele>
  <time>2026-08-29T19:29:57Z</time>
  <course>90.99</course>
  <speed>2.21</speed>
  <fix>3d</fix>
</trkpt>
<trkpt lat="40.0717079" lon="-105.229577">
  <ele>1583.1</ele>
  <time>2026-08-29T19:29:57Z</time>
  <course>92.3</course>
  <speed>2.1711287386979152</speed>
  <fix>3d</fix>
</trkpt>
<trkpt lat="40.0717082" lon="-105.2295853">
  <ele>1583.0</ele>
  <time>2026-08-29T19:29:57Z</time>
  <course>90.99</course>
  <speed>2.21</speed>
  <fix>3d</fix>
</trkpt>
<trkpt lat="40.0717079" lon="-105.2295744">
  <ele>1583.11</ele>
  <time>2026-08-29T19:29:57Z</time>
  <course>92.3</course>
  <speed>2.170829334609241</speed>
  <fix>3d</fix>
</trkpt>
<trkpt lat="40.0717081" lon="-105.22958">
  <ele>1583.0</ele>
  <time>2026-08-29T19:29:57Z</time>
  <course>90.98</course>
  <speed>2.21</speed>
  <fix>3d</fix>
</trkpt>
<trkpt lat="40.0717079" lon="-105.2295718">
  <ele>1583.11</ele>
  <time>2026-08-29T19:29:57Z</time>
  <course>92.29</course>
  <speed>2.1711287386979152</speed>
  <fix>3d</fix>
</trkpt>
<trkpt lat="40.0717081" lon="-105.22958">
  <ele>1583.0</ele>
  <time>2026-08-29T19:29:57Z</time>
  <course>90.98</course>
  <speed>2.21</speed>
  <fix>3d</fix>
</trkpt>
<trkpt lat="40.0717078" lon="-105.2295693">
  <ele>1583.11</ele>
  <time>2026-08-29T19:29:57Z</time>
  <course>92.27</course>
  <speed>2.170829334609241</speed>
  <fix>3d</fix>
</trkpt>
<trkpt lat="40.0717081" lon="-105.2295748">
  <ele>1583.0</ele>
  <time>2026-08-29T19:29:57Z</time>
  <course>90.97</course>
  <speed>2.21</speed>
  <fix>3d</fix>
</trkpt>
<trkpt lat="40.0717078" lon="-105.2295667">
  <ele>1583.11</ele>
  <time>2026-08-29T19:29:57Z</time>
  <course>92.27</course>
  <speed>2.170829334609241</speed>
  <fix>3d</fix>
</trkpt>
<trkpt lat="40.071708" lon="-105.2295697">
  <ele>1583.0</ele>
  <time>2026-08-29T19:29:57Z</time>
  <course>90.95</course>
  <speed>2.21</speed>
  <fix>3d</fix>
</trkpt>
<trkpt lat="40.0717078" lon="-105.2295641">
  <ele>1583.11</ele>
  <time>2026-08-29T19:29:57Z</time>
  <course>92.26</course>
  <speed>2.170829334609241</speed>
  <fix>3d</fix>
</trkpt>
<trkpt lat="40.071708" lon="-105.2295697">
  <ele>1583.0</ele>
  <time>2026-08-29T19:29:57Z</time>
  <course>90.95</course>
  <speed>2.21</speed>
  <fix>3d</fix>
</trkpt>
<trkpt lat="40.0717077" lon="-105.2295615">
  <ele>1583.11</ele>
  <time>2026-08-29T19:29:57Z</time>
  <course>92.26</course>
  <speed>2.170829334609241</speed>
  <fix>3d</fix>
</trkpt>
<trkpt lat="40.071708" lon="-105.2295645">
  <ele>1583.0</ele>
  <time>2026-08-29T19:29:57Z</time>
  <course>90.94</course>
  <speed>2.21</speed>
  <fix>3d</fix>
</trkpt>
<trkpt lat="40.0717077" lon="-105.2295589">
  <ele>1583.11</ele>
  <time>2026-08-29T19:29:57Z</time>
  <course>92.25</course>
  <speed>2.170829334609241</speed>
  <fix>3d</fix>
</trkpt>
<trkpt lat="40.071708" lon="-105.2295645">
  <ele>1583.0</ele>
  <time>2026-08-29T19:29:57Z</time>
  <course>90.94</course>
  <speed>2.21</speed>
  <fix>3d</fix>
</trkpt>
<trkpt lat="40.0717076" lon="-105.2295563">
  <ele>1583.12</ele>
  <time>2026-08-29T19:29:57Z</time>
  <course>92.25</course>
  <speed>2.170829334609241</speed>
  <fix>3d</fix>
</trkpt>
<trkpt lat="40.0717079" lon="-105.2295592">
  <ele>1583.0</ele>
  <time>2026-08-29T19:29:57Z</time>
  <course>90.94</course>
  <speed>2.21</speed>
  <fix>3d</fix>
</trkpt>
<trkpt lat="40.0717076" lon="-105.2295537">
  <ele>1583.12</ele>
  <time>2026-08-29T19:29:57Z</time>
  <course>92.24</course>
  <speed>2.170829334609241</speed>
  <fix>3d</fix>
</trkpt>
<trkpt lat="40.0717079" lon="-105.2295592">
  <ele>1583.0</ele>
  <time>2026-08-29T19:29:57Z</time>
  <course>90.94</course>
  <speed>2.21</speed>
  <fix>3d</fix>
</trkpt>
<trkpt lat="40.0717076" lon="-105.2295511">
  <ele>1583.13</ele>
  <time>2026-08-29T19:29:57Z</time>
  <course>92.24</course>
  <speed>2.180825531765437</speed>
  <fix>3d</fix>
</trkpt>
<trkpt lat="40.0717078" lon="-105.2295541">
  <ele>1583.0</ele>
  <time>2026-08-29T19:29:57Z</time>
  <course>90.93</course>
  <speed>2.21</speed>
  <fix>3d</fix>
</trkpt>
<trkpt lat="40.0717076" lon="-105.2295484">
  <ele>1583.13</ele>
  <time>2026-08-29T19:29:57Z</time>
  <course>92.24</course>
  <speed>2.180825531765437</speed>
  <fix>3d</fix>
</trkpt>
<trkpt lat="40.0717078" lon="-105.2295541">
  <ele>1583.0</ele>
  <time>2026-08-29T19:29:57Z</time>
  <course>90.93</course>
  <speed>2.21</speed>
  <fix>3d</fix>
</trkpt>
<trkpt lat="40.0717075" lon="-105.2295458">
  <ele>1583.14</ele>
  <time>2026-08-29T19:29:57Z</time>
  <course>92.24</course>
  <speed>2.180825531765437</speed>
  <fix>3d</fix>
</trkpt>
<trkpt lat="40.0717078" lon="-105.2295489">
  <ele>1583.0</ele>
  <time>2026-08-29T19:29:57Z</time>
  <course>90.93</course>
  <speed>2.21</speed>
  <fix>3d</fix>
</trkpt>
<trkpt lat="40.0717075" lon="-105.2295432">
  <ele>1583.14</ele>
  <time>2026-08-29T19:29:57Z</time>
  <course>92.24</course>
  <speed>2.180825531765437</speed>
  <fix>3d</fix>
</trkpt>
<trkpt lat="40.0717078" lon="-105.2295489">
  <ele>1583.0</ele>
  <time>2026-08-29T19:29:57Z</time>
  <course>90.93</course>
  <speed>2.21</speed>
  <fix>3d</fix>
</trkpt>
<trkpt lat="40.0717075" lon="-105.2295406">
  <ele>1583.14</ele>
  <time>2026-08-29T19:29:57Z</time>
  <course>92.23</course>
  <speed>2.180825531765437</speed>
  <fix>3d</fix>
</trkpt>
<trkpt lat="40.0717077" lon="-105.2295436">
  <ele>1583.0</ele>
  <time>2026-08-29T19:29:57Z</time>
  <course>90.93</course>
  <speed>2.21</speed>
  <fix>3d</fix>
</trkpt>
<trkpt lat="40.0717074" lon="-105.229538">
  <ele>1583.14</ele>
  <time>2026-08-29T19:29:57Z</time>
  <course>92.23</course>
  <speed>2.180825531765437</speed>
  <fix>3d</fix>
</trkpt>
<trkpt lat="40.0717077" lon="-105.2295436">
  <ele>1583.0</ele>
  <time>2026-08-29T19:29:57Z</time>
  <course>90.93</course>
  <speed>2.21</speed>
  <fix>3d</fix>
</trkpt>
<trkpt lat="40.0717074" lon="-105.2295353">
  <ele>1583.14</ele>
  <time>2026-08-29T19:29:57Z</time>
  <course>92.23</course>
  <speed>2.180825531765437</speed>
  <fix>3d</fix>
</trkpt>
<trkpt lat="40.0717076" lon="-105.2295385">
  <ele>1583.0</ele>
  <time>2026-08-29T19:29:57Z</time>
  <course>90.93</course>
  <speed>2.21</speed>
  <fix>3d</fix>
</trkpt>
<trkpt lat="40.0717074" lon="-105.2295327">
  <ele>1583.14</ele>
  <time>2026-08-29T19:29:57Z</time>
  <course>92.23</course>
  <speed>2.180825531765437</speed>
  <fix>3d</fix>
</trkpt>
<trkpt lat="40.0717076" lon="-105.2295385">
  <ele>1583.0</ele>
  <time>2026-08-29T19:29:57Z</time>
  <course>90.93</course>
  <speed>2.21</speed>
  <fix>3d</fix>
</trkpt>
<trkpt lat="40.0717073" lon="-105.2295301">
  <ele>1583.14</ele>
  <time>2026-08-29T19:29:57Z</time>
  <course>92.22</course>
  <speed>2.180825531765437</speed>
  <fix>3d</fix>
</trkpt>
<trkpt lat="40.0717076" lon="-105.2295385">
  <ele>1583.0</ele>
  <time>2026-08-29T19:29:57Z</time>
  <course>90.93</course>
  <speed>2.21</speed>
  <fix>3d</fix>
</trkpt>
<trkpt lat="40.0717073" lon="-105.2295275">
  <ele>1583.14</ele>
  <time>2026-08-29T19:29:57Z</time>
  <course>92.22</course>
  <speed>2.180825531765437</speed>
  <fix>3d</fix>
</trkpt>
<trkpt lat="40.0717075" lon="-105.2295333">
  <ele>1583.0</ele>
  <time>2026-08-29T19:29:57Z</time>
  <course>90.93</course>
  <speed>2.21</speed>
  <fix>3d</fix>
</trkpt>
<trkpt lat="40.0717072" lon="-105.2295249">
  <ele>1583.14</ele>
  <time>2026-08-29T19:29:57Z</time>
  <course>92.21</course>
  <speed>2.180825531765437</speed>
  <fix>3d</fix>
</trkpt>
<trkpt lat="40.0717075" lon="-105.2295333">
  <ele>1583.0</ele>
  <time>2026-08-29T19:29:57Z</time>
  <course>90.93</course>
  <speed>2.21</speed>
  <fix>3d</fix>
</trkpt>
<trkpt lat="40.0717072" lon="-105.2295224">
  <ele>1583.14</ele>
  <time>2026-08-29T19:29:57Z</time>
  <course>92.21</course>
  <speed>2.180825531765437</speed>
  <fix>3d</fix>
</trkpt>
<trkpt lat="40.0717075" lon="-105.2295281">
  <ele>1583.0</ele>
  <time>2026-08-29T19:29:57Z</time>
  <course>90.93</course>
  <speed>2.21</speed>
  <fix>3d</fix>
</trkpt>
<trkpt lat="40.0717072" lon="-105.2295198">
  <ele>1583.14</ele>
  <time>2026-08-29T19:29:57Z</time>
  <course>92.21</course>
  <speed>2.180825531765437</speed>
  <fix>3d</fix>
</trkpt>
<trkpt lat="40.0717075" lon="-105.2295281">
  <ele>1583.0</ele>
  <time>2026-08-29T19:29:57Z</time>
  <course>90.93</course>
  <speed>2.21</speed>
  <fix>3d</fix>
</trkpt>
<trkpt lat="40.0717071" lon="-105.2295172">
  <ele>1583.14</ele>
  <time>2026-08-29T19:29:57Z</time>
  <course>92.2</course>
  <speed>2.180825531765437</speed>
  <fix>3d</fix>
</trkpt>
<trkpt lat="40.0717074" lon="-105.2295229">
  <ele>1583.0</ele>
  <time>2026-08-29T19:29:57Z</time>
  <course>90.92</course>
  <speed>2.21</speed>
  <fix>3d</fix>
</trkpt>
<trkpt lat="40.0717071" lon="-105.2295146">
  <ele>1583.13</ele>
  <time>2026-08-29T19:29:57Z</time>
  <course>92.2</course>
  <speed>2.180825531765437</speed>
  <fix>3d</fix>
</trkpt>
<trkpt lat="40.0717074" lon="-105.2295229">
  <ele>1583.0</ele>
  <time>2026-08-29T19:29:57Z</time>
  <course>90.92</course>
  <speed>2.21</speed>
  <fix>3d</fix>
</trkpt>
<trkpt lat="40.0717071" lon="-105.2295121">
  <ele>1583.13</ele>
  <time>2026-08-29T19:29:57Z</time>
  <course>92.2</course>
  <speed>2.180825531765437</speed>
  <fix>3d</fix>
</trkpt>
<trkpt lat="40.0717074" lon="-105.2295178">
  <ele>1583.0</ele>
  <time>2026-08-29T19:29:57Z</time>
  <course>90.92</course>
  <speed>2.21</speed>
  <fix>3d</fix>
</trkpt>
<trkpt lat="40.0717071" lon="-105.2295095">
  <ele>1583.13</ele>
  <time>2026-08-29T19:29:57Z</time>
  <course>92.19</course>
  <speed>2.170829334609241</speed>
  <fix>3d</fix>
</trkpt>
<trkpt lat="40.0717073" lon="-105.2295125">
  <ele>1583.0</ele>
  <time>2026-08-29T19:29:57Z</time>
  <course>90.92</course>
  <speed>2.21</speed>
  <fix>3d</fix>
</trkpt>
<trkpt lat="40.071707" lon="-105.2295069">
  <ele>1583.13</ele>
  <time>2026-08-29T19:29:57Z</time>
  <course>92.19</course>
  <speed>2.180825531765437</speed>
  <fix>3d</fix>
</trkpt>
<trkpt lat="40.0717073" lon="-105.2295125">
  <ele>1583.0</ele>
  <time>2026-08-29T19:29:57Z</time>
  <course>90.92</course>
  <speed>2.21</speed>
  <fix>3d</fix>
</trkpt>
<trkpt lat="40.071707" lon="-105.2295043">
  <ele>1583.13</ele>
  <time>2026-08-29T19:29:57Z</time>
  <course>92.19</course>
  <speed>2.180825531765437</speed>
  <fix>3d</fix>
</trkpt>
<trkpt lat="40.0717073" lon="-105.2295073">
  <ele>1583.0</ele>
  <time>2026-08-29T19:29:57Z</time>
  <course>90.92</course>
  <speed>2.21</speed>
  <fix>3d</fix>
</trkpt>
<trkpt lat="40.071707" lon="-105.2295017">
  <ele>1583.12</ele>
  <time>2026-08-29T19:29:57Z</time>
  <course>92.19</course>
  <speed>2.180825531765437</speed>
  <fix>3d</fix>
</trkpt>
<trkpt lat="40.0717073" lon="-105.2295073">
  <ele>1583.0</ele>
  <time>2026-08-29T19:29:57Z</time>
  <course>90.92</course>
  <speed>2.21</speed>
  <fix>3d</fix>
</trkpt>
<trkpt lat="40.0717069" lon="-105.2294991">
  <ele>1583.12</ele>
  <time>2026-08-29T19:29:57Z</time>
  <course>92.18</course>
  <speed>2.180825531765437</speed>
  <fix>3d</fix>
</trkpt>
<trkpt lat="40.0717072" lon="-105.2295022">
  <ele>1583.0</ele>
  <time>2026-08-29T19:29:57Z</time>
  <course>90.92</course>
  <speed>2.21</speed>
  <fix>3d</fix>
</trkpt>
<trkpt lat="40.0717069" lon="-105.2294965">
  <ele>1583.12</ele>
  <time>2026-08-29T19:29:57Z</time>
  <course>92.18</course>
  <speed>2.180825531765437</speed>
  <fix>3d</fix>
</trkpt>
<trkpt lat="40.0717072" lon="-105.2295022">
  <ele>1583.0</ele>
  <time>2026-08-29T19:29:57Z</time>
  <course>90.92</course>
  <speed>2.21</speed>
  <fix>3d</fix>
</trkpt>
<trkpt lat="40.0717069" lon="-105.2294939">
  <ele>1583.12</ele>
  <time>2026-08-29T19:29:57Z</time>
  <course>92.18</course>
  <speed>2.180825531765437</speed>
  <fix>3d</fix>
</trkpt>
<trkpt lat="40.0717071" lon="-105.229497">
  <ele>1583.0</ele>
  <time>2026-08-29T19:29:57Z</time>
  <course>90.92</course>
  <speed>2.21</speed>
  <fix>3d</fix>
</trkpt>
<trkpt lat="40.0717069" lon="-105.2294913">
  <ele>1583.12</ele>
  <time>2026-08-29T19:29:57Z</time>
  <course>92.18</course>
  <speed>2.180825531765437</speed>
  <fix>3d</fix>
</trkpt>
<trkpt lat="40.0717071" lon="-105.229497">
  <ele>1583.0</ele>
  <time>2026-08-29T19:29:57Z</time>
  <course>90.92</course>
  <speed>2.21</speed>
  <fix>3d</fix>
</trkpt>
<trkpt lat="40.0717068" lon="-105.2294887">
  <ele>1583.12</ele>
  <time>2026-08-29T19:29:57Z</time>
  <course>92.17</course>
  <speed>2.180825531765437</speed>
  <fix>3d</fix>
</trkpt>
<trkpt lat="40.0717071" lon="-105.2294917">
  <ele>1583.0</ele>
  <time>2026-08-29T19:29:57Z</time>
  <course>90.92</course>
  <speed>2.21</speed>
  <fix>3d</fix>
</trkpt>
<trkpt lat="40.0717068" lon="-105.229486">
  <ele>1583.12</ele>
  <time>2026-08-29T19:29:57Z</time>
  <course>92.17</course>
  <speed>2.180825531765437</speed>
  <fix>3d</fix>
</trkpt>
<trkpt lat="40.0717071" lon="-105.2294917">
  <ele>1583.0</ele>
  <time>2026-08-29T19:29:57Z</time>
  <course>90.92</course>
  <speed>2.21</speed>
  <fix>3d</fix>
</trkpt>
<trkpt lat="40.0717068" lon="-105.2294834">
  <ele>1583.12</ele>
  <time>2026-08-29T19:29:57Z</time>
  <course>92.17</course>
  <speed>2.180825531765437</speed>
  <fix>3d</fix>
</trkpt>
<trkpt lat="40.071707" lon="-105.2294866">
  <ele>1583.0</ele>
  <time>2026-08-29T19:29:57Z</time>
  <course>90.92</course>
  <speed>2.21</speed>
  <fix>3d</fix>
</trkpt>
<trkpt lat="40.0717067" lon="-105.2294808">
  <ele>1583.12</ele>
  <time>2026-08-29T19:29:57Z</time>
  <course>92.17</course>
  <speed>2.180825531765437</speed>
  <fix>3d</fix>
</trkpt>
<trkpt lat="40.071707" lon="-105.2294866">
  <ele>1583.0</ele>
  <time>2026-08-29T19:29:57Z</time>
  <course>90.92</course>
  <speed>2.21</speed>
  <fix>3d</fix>
</trkpt>
<trkpt lat="40.0717067" lon="-105.2294782">
  <ele>1583.13</ele>
  <time>2026-08-29T19:29:57Z</time>
  <course>92.16</course>
  <speed>2.180825531765437</speed>
  <fix>3d</fix>
</trkpt>
<trkpt lat="40.0717069" lon="-105.2294814">
  <ele>1583.0</ele>
  <time>2026-08-29T19:29:57Z</time>
  <course>90.92</course>
  <speed>2.21</speed>
  <fix>3d</fix>
</trkpt>
<trkpt lat="40.0717067" lon="-105.2294756">
  <ele>1583.13</ele>
  <time>2026-08-29T19:29:57Z</time>
  <course>92.16</course>
  <speed>2.180825531765437</speed>
  <fix>3d</fix>
</trkpt>
<trkpt lat="40.0717069" lon="-105.2294814">
  <ele>1583.0</ele>
  <time>2026-08-29T19:29:57Z</time>
  <course>90.92</course>
  <speed>2.21</speed>
  <fix>3d</fix>
</trkpt>
<trkpt lat="40.0717066" lon="-105.229473">
  <ele>1583.13</ele>
  <time>2026-08-29T19:29:57Z</time>
  <course>92.16</course>
  <speed>2.180825531765437</speed>
  <fix>3d</fix>
</trkpt>
<trkpt lat="40.0717069" lon="-105.2294814">
  <ele>1583.0</ele>
  <time>2026-08-29T19:29:57Z</time>
  <course>90.92</course>
  <speed>2.21</speed>
  <fix>3d</fix>
</trkpt>
<trkpt lat="40.0717066" lon="-105.2294704">
  <ele>1583.12</ele>
  <time>2026-08-29T19:29:57Z</time>
  <course>92.16</course>
  <speed>2.180825531765437</speed>
  <fix>3d</fix>
</trkpt>
<trkpt lat="40.0717068" lon="-105.2294761">
  <ele>1583.0</ele>
  <time>2026-08-29T19:29:57Z</time>
  <course>90.92</course>
  <speed>2.21</speed>
  <fix>3d</fix>
</trkpt>
<trkpt lat="40.0717066" lon="-105.2294678">
  <ele>1583.12</ele>
  <time>2026-08-29T19:29:57Z</time>
  <course>92.16</course>
  <speed>2.180825531765437</speed>
  <fix>3d</fix>
</trkpt>
<trkpt lat="40.0717068" lon="-105.2294761">
  <ele>1583.0</ele>
  <time>2026-08-29T19:29:57Z</time>
  <course>90.92</course>
  <speed>2.21</speed>
  <fix>3d</fix>
</trkpt>
<trkpt lat="40.0717065" lon="-105.2294652">
  <ele>1583.12</ele>
  <time>2026-08-29T19:29:57Z</time>
  <course>92.15</course>
  <speed>2.180825531765437</speed>
  <fix>3d</fix>
</trkpt>
<trkpt lat="40.0717068" lon="-105.2294709">
  <ele>1583.0</ele>
  <time>2026-08-29T19:29:57Z</time>
  <course>90.92</course>
  <speed>2.21</speed>
  <fix>3d</fix>
</trkpt>
<trkpt lat="40.0717065" lon="-105.2294626">
  <ele>1583.12</ele>
  <time>2026-08-29T19:29:57Z</time>
  <course>92.15</course>
  <speed>2.180825531765437</speed>
  <fix>3d</fix>
</trkpt>
<trkpt lat="40.0717068" lon="-105.2294709">
  <ele>1583.0</ele>
  <time>2026-08-29T19:29:57Z</time>
  <course>90.92</course>
  <speed>2.21</speed>
  <fix>3d</fix>
</trkpt>
<trkpt lat="40.0717065" lon="-105.2294601">
  <ele>1583.12</ele>
  <time>2026-08-29T19:29:57Z</time>
  <course>92.15</course>
  <speed>2.180825531765437</speed>
  <fix>3d</fix>
</trkpt>
<trkpt lat="40.0717067" lon="-105.2294658">
  <ele>1583.0</ele>
  <time>2026-08-29T19:29:57Z</time>
  <course>90.92</course>
  <speed>2.21</speed>
  <fix>3d</fix>
</trkpt>
<trkpt lat="40.0717064" lon="-105.2294575">
  <ele>1583.12</ele>
  <time>2026-08-29T19:29:57Z</time>
  <course>92.15</course>
  <speed>2.180825531765437</speed>
  <fix>3d</fix>
</trkpt>
<trkpt lat="40.0717067" lon="-105.2294606">
  <ele>1583.0</ele>
  <time>2026-08-29T19:29:57Z</time>
  <course>90.92</course>
  <speed>2.21</speed>
  <fix>3d</fix>
</trkpt>
<trkpt lat="40.0717064" lon="-105.2294549">
  <ele>1583.12</ele>
  <time>2026-08-29T19:29:57Z</time>
  <course>92.15</course>
  <speed>2.180825531765437</speed>
  <fix>3d</fix>
</trkpt>
<trkpt lat="40.0717067" lon="-105.2294606">
  <ele>1583.0</ele>
  <time>2026-08-29T19:29:57Z</time>
  <course>90.92</course>
  <speed>2.21</speed>
  <fix>3d</fix>
</trkpt>
<trkpt lat="40.0717064" lon="-105.2294523">
  <ele>1583.12</ele>
  <time>2026-08-29T19:29:57Z</time>
  <course>92.14</course>
  <speed>2.180825531765437</speed>
  <fix>3d</fix>
</trkpt>
<trkpt lat="40.0717066" lon="-105.2294553">
  <ele>1583.0</ele>
  <time>2026-08-29T19:29:57Z</time>
  <course>90.92</course>
  <speed>2.21</speed>
  <fix>3d</fix>
</trkpt>
<trkpt lat="40.0717064" lon="-105.2294497">
  <ele>1583.11</ele>
  <time>2026-08-29T19:29:57Z</time>
  <course>92.14</course>
  <speed>2.180825531765437</speed>
  <fix>3d</fix>
</trkpt>
<trkpt lat="40.0717066" lon="-105.2294553">
  <ele>1583.0</ele>
  <time>2026-08-29T19:29:57Z</time>
  <course>90.92</course>
  <speed>2.21</speed>
  <fix>3d</fix>
</trkpt>
<trkpt lat="40.0717063" lon="-105.2294471">
  <ele>1583.11</ele>
  <time>2026-08-29T19:29:57Z</time>
  <course>92.14</course>
  <speed>2.180825531765437</speed>
  <fix>3d</fix>
</trkpt>
<trkpt lat="40.0717066" lon="-105.2294502">
  <ele>1583.0</ele>
  <time>2026-08-29T19:29:57Z</time>
  <course>90.92</course>
  <speed>2.21</speed>
  <fix>3d</fix>
</trkpt>
<trkpt lat="40.0717063" lon="-105.2294445">
  <ele>1583.12</ele>
  <time>2026-08-29T19:29:57Z</time>
  <course>92.14</course>
  <speed>2.180825531765437</speed>
  <fix>3d</fix>
</trkpt>
<trkpt lat="40.0717066" lon="-105.2294502">
  <ele>1583.0</ele>
  <time>2026-08-29T19:29:57Z</time>
  <course>90.92</course>
  <speed>2.21</speed>
  <fix>3d</fix>
</trkpt>
<trkpt lat="40.0717063" lon="-105.2294419">
  <ele>1583.11</ele>
  <time>2026-08-29T19:29:57Z</time>
  <course>92.14</course>
  <speed>2.180825531765437</speed>
  <fix>3d</fix>
</trkpt>
<trkpt lat="40.0717065" lon="-105.229445">
  <ele>1583.0</ele>
  <time>2026-08-29T19:29:57Z</time>
  <course>90.92</course>
  <speed>2.21</speed>
  <fix>3d</fix>
</trkpt>
<trkpt lat="40.0717062" lon="-105.2294392">
  <ele>1583.11</ele>
  <time>2026-08-29T19:29:57Z</time>
  <course>92.13</course>
  <speed>2.180825531765437</speed>
  <fix>3d</fix>
</trkpt>
<trkpt lat="40.0717065" lon="-105.229445">
  <ele>1583.0</ele>
  <time>2026-08-29T19:29:57Z</time>
  <course>90.92</course>
  <speed>2.21</speed>
  <fix>3d</fix>
</trkpt>
<trkpt lat="40.0717062" lon="-105.2294366">
  <ele>1583.11</ele>
  <time>2026-08-29T19:29:57Z</time>
  <course>92.13</course>
  <speed>2.180825531765437</speed>
  <fix>3d</fix>
</trkpt>
<trkpt lat="40.0717064" lon="-105.2294398">
  <ele>1583.0</ele>
  <time>2026-08-29T19:29:57Z</time>
  <course>90.92</course>
  <speed>2.21</speed>
  <fix>3d</fix>
</trkpt>
<trkpt lat="40.0717062" lon="-105.229434">
  <ele>1583.11</ele>
  <time>2026-08-29T19:29:57Z</time>
  <course>92.13</course>
  <speed>2.180825531765437</speed>
  <fix>3d</fix>
</trkpt>
<trkpt lat="40.0717064" lon="-105.2294398">
  <ele>1583.0</ele>
  <time>2026-08-29T19:29:57Z</time>
  <course>90.92</course>
  <speed>2.21</speed>
  <fix>3d</fix>
</trkpt>
<trkpt lat="40.0717061" lon="-105.2294314">
  <ele>1583.11</ele>
  <time>2026-08-29T19:29:57Z</time>
  <course>92.13</course>
  <speed>2.180825531765437</speed>
  <fix>3d</fix>
</trkpt>
<trkpt lat="40.0717063" lon="-105.2294345">
  <ele>1583.0</ele>
  <time>2026-08-29T19:29:57Z</time>
  <course>90.92</course>
  <speed>2.21</speed>
  <fix>3d</fix>
</trkpt>
<trkpt lat="40.0717061" lon="-105.2294288">
  <ele>1583.11</ele>
  <time>2026-08-29T19:29:57Z</time>
  <course>92.12</course>
  <speed>2.180825531765437</speed>
  <fix>3d</fix>
</trkpt>
<trkpt lat="40.0717063" lon="-105.2294345">
  <ele>1583.0</ele>
  <time>2026-08-29T19:29:57Z</time>
  <course>90.92</course>
  <speed>2.21</speed>
  <fix>3d</fix>
</trkpt>
<trkpt lat="40.0717061" lon="-105.2294262">
  <ele>1583.11</ele>
  <time>2026-08-29T19:29:57Z</time>
  <course>92.12</course>
  <speed>2.190821763631172</speed>
  <fix>3d</fix>
</trkpt>
<trkpt lat="40.0717063" lon="-105.2294293">
  <ele>1583.0</ele>
  <time>2026-08-29T19:29:57Z</time>
  <course>90.92</course>
  <speed>2.21</speed>
  <fix>3d</fix>
</trkpt>
<trkpt lat="40.0717061" lon="-105.2294236">
  <ele>1583.11</ele>
  <time>2026-08-29T19:29:57Z</time>
  <course>92.12</course>
  <speed>2.190821763631172</speed>
  <fix>3d</fix>
</trkpt>
<trkpt lat="40.0717063" lon="-105.2294293">
  <ele>1583.0</ele>
  <time>2026-08-29T19:29:57Z</time>
  <course>90.92</course>
  <speed>2.21</speed>
  <fix>3d</fix>
</trkpt>
<trkpt lat="40.071706" lon="-105.2294209">
  <ele>1583.11</ele>
  <time>2026-08-29T19:29:57Z</time>
  <course>92.13</course>
  <speed>2.190821763631172</speed>
  <fix>3d</fix>
</trkpt>
<trkpt lat="40.0717063" lon="-105.2294293">
  <ele>1583.0</ele>
  <time>2026-08-29T19:29:57Z</time>
  <course>90.92</course>
  <speed>2.21</speed>
  <fix>3d</fix>
</trkpt>
<trkpt lat="40.071706" lon="-105.2294184">
  <ele>1583.11</ele>
  <time>2026-08-29T19:29:57Z</time>
  <course>92.15</course>
  <speed>2.190821763631172</speed>
  <fix>3d</fix>
</trkpt>
<trkpt lat="40.0717062" lon="-105.2294242">
  <ele>1583.0</ele>
  <time>2026-08-29T19:29:57Z</time>
  <course>90.92</course>
  <speed>2.21</speed>
  <fix>3d</fix>
</trkpt>
<trkpt lat="40.071706" lon="-105.2294158">
  <ele>1583.11</ele>
  <time>2026-08-29T19:29:57Z</time>
  <course>92.16</course>
  <speed>2.190821763631172</speed>
  <fix>3d</fix>
</trkpt>
<trkpt lat="40.0717062" lon="-105.2294242">
  <ele>1583.0</ele>
  <time>2026-08-29T19:29:57Z</time>
  <course>90.92</course>
  <speed>2.21</speed>
  <fix>3d</fix>
</trkpt>
<trkpt lat="40.0717059" lon="-105.2294132">
  <ele>1583.1</ele>
  <time>2026-08-29T19:29:57Z</time>
  <course>92.18</course>
  <speed>2.180825531765437</speed>
  <fix>3d</fix>
</trkpt>
<trkpt lat="40.0717062" lon="-105.2294189">
  <ele>1583.0</ele>
  <time>2026-08-29T19:29:57Z</time>
  <course>90.95</course>
  <speed>2.21</speed>
  <fix>3d</fix>
</trkpt>
<trkpt lat="40.0717059" lon="-105.2294106">
  <ele>1583.1</ele>
  <time>2026-08-29T19:29:57Z</time>
  <course>92.2</course>
  <speed>2.180825531765437</speed>
  <fix>3d</fix>
</trkpt>
<trkpt lat="40.0717062" lon="-105.2294189">
  <ele>1583.0</ele>
  <time>2026-08-29T19:29:57Z</time>
  <course>90.95</course>
  <speed>2.21</speed>
  <fix>3d</fix>
</trkpt>
<trkpt lat="40.0717059" lon="-105.229408">
  <ele>1583.1</ele>
  <time>2026-08-29T19:29:57Z</time>
  <course>92.22</course>
  <speed>2.180825531765437</speed>
  <fix>3d</fix>
</trkpt>
<trkpt lat="40.0717061" lon="-105.2294138">
  <ele>1583.0</ele>
  <time>2026-08-29T19:29:57Z</time>
  <course>90.98</course>
  <speed>2.21</speed>
  <fix>3d</fix>
</trkpt>
<trkpt lat="40.0717058" lon="-105.2294055">
  <ele>1583.1</ele>
  <time>2026-08-29T19:29:57Z</time>
  <course>92.24</course>
  <speed>2.180825531765437</speed>
  <fix>3d</fix>
</trkpt>
<trkpt lat="40.0717061" lon="-105.2294138">
  <ele>1583.0</ele>
  <time>2026-08-29T19:29:57Z</time>
  <course>90.98</course>
  <speed>2.21</speed>
  <fix>3d</fix>
</trkpt>
<trkpt lat="40.0717058" lon="-105.2294029">
  <ele>1583.1</ele>
  <time>2026-08-29T19:29:57Z</time>
  <course>92.27</course>
  <speed>2.180825531765437</speed>
  <fix>3d</fix>
</trkpt>
<trkpt lat="40.071706" lon="-105.2294086">
  <ele>1583.0</ele>
  <time>2026-08-29T19:29:57Z</time>
  <course>91.03</course>
  <speed>2.21</speed>
  <fix>3d</fix>
</trkpt>
<trkpt lat="40.0717057" lon="-105.2294003">
  <ele>1583.1</ele>
  <time>2026-08-29T19:29:57Z</time>
  <course>92.29</course>
  <speed>2.180825531765437</speed>
  <fix>3d</fix>
</trkpt>
<trkpt lat="40.071706" lon="-105.2294034">
  <ele>1583.0</ele>
  <time>2026-08-29T19:29:57Z</time>
  <course>91.08</course>
  <speed>2.21</speed>
  <fix>3d</fix>
</trkpt>
<trkpt lat="40.0717057" lon="-105.2293977">
  <ele>1583.1</ele>
  <time>2026-08-29T19:29:57Z</time>
  <course>92.32</course>
  <speed>2.180825531765437</speed>
  <fix>3d</fix>
</trkpt>
<trkpt lat="40.071706" lon="-105.2294034">
  <ele>1583.0</ele>
  <time>2026-08-29T19:29:57Z</time>
  <course>91.08</course>
  <speed>2.21</speed>
  <fix>3d</fix>
</trkpt>
<trkpt lat="40.0717057" lon="-105.2293952">
  <ele>1583.1</ele>
  <time>2026-08-29T19:29:57Z</time>
  <course>92.35</course>
  <speed>2.180825531765437</speed>
  <fix>3d</fix>
</trkpt>
<trkpt lat="40.0717059" lon="-105.2293981">
  <ele>1583.0</ele>
  <time>2026-08-29T19:29:57Z</time>
  <course>91.13</course>
  <speed>2.21</speed>
  <fix>3d</fix>
</trkpt>
<trkpt lat="40.0717056" lon="-105.2293925">
  <ele>1583.1</ele>
  <time>2026-08-29T19:29:57Z</time>
  <course>92.38</course>
  <speed>2.180825531765437</speed>
  <fix>3d</fix>
</trkpt>
<trkpt lat="40.0717059" lon="-105.2293981">
  <ele>1583.0</ele>
  <time>2026-08-29T19:29:57Z</time>
  <course>91.13</course>
  <speed>2.21</speed>
  <fix>3d</fix>
</trkpt>
<trkpt lat="40.0717056" lon="-105.2293899">
  <ele>1583.11</ele>
  <time>2026-08-29T19:29:57Z</time>
  <course>92.41</course>
  <speed>2.1811235636707975</speed>
  <fix>3d</fix>
</trkpt>
<trkpt lat="40.0717058" lon="-105.2293929">
  <ele>1583.0</ele>
  <time>2026-08-29T19:29:57Z</time>
  <course>91.19</course>
  <speed>2.21</speed>
  <fix>3d</fix>
</trkpt>
<trkpt lat="40.0717056" lon="-105.2293873">
  <ele>1583.11</ele>
  <time>2026-08-29T19:29:57Z</time>
  <course>92.43</course>
  <speed>2.1811235636707975</speed>
  <fix>3d</fix>
</trkpt>
<trkpt lat="40.0717058" lon="-105.2293929">
  <ele>1583.0</ele>
  <time>2026-08-29T19:29:57Z</time>
  <course>91.19</course>
  <speed>2.21</speed>
  <fix>3d</fix>
</trkpt>
<trkpt lat="40.0717055" lon="-105.2293847">
  <ele>1583.11</ele>
  <time>2026-08-29T19:29:57Z</time>
  <course>92.46</course>
  <speed>2.1811235636707975</speed>
  <fix>3d</fix>
</trkpt>
<trkpt lat="40.0717057" lon="-105.2293878">
  <ele>1583.0</ele>
  <time>2026-08-29T19:29:57Z</time>
  <course>91.25</course>
  <speed>2.21</speed>
  <fix>3d</fix>
</trkpt>
<trkpt lat="40.0717055" lon="-105.2293821">
  <ele>1583.11</ele>
  <time>2026-08-29T19:29:57Z</time>
  <course>92.49</course>
  <speed>2.1811235636707975</speed>
  <fix>3d</fix>
</trkpt>
<trkpt lat="40.0717057" lon="-105.2293878">
  <ele>1583.0</ele>
  <time>2026-08-29T19:29:57Z</time>
  <course>91.25</course>
  <speed>2.21</speed>
  <fix>3d</fix>
</trkpt>
<trkpt lat="40.0717054" lon="-105.2293794">
  <ele>1583.12</ele>
  <time>2026-08-29T19:29:57Z</time>
  <course>92.52</course>
  <speed>2.1811235636707975</speed>
  <fix>3d</fix>
</trkpt>
<trkpt lat="40.0717056" lon="-105.2293825">
  <ele>1583.0</ele>
  <time>2026-08-29T19:29:57Z</time>
  <course>91.31</course>
  <speed>2.21</speed>
  <fix>3d</fix>
</trkpt>
<trkpt lat="40.0717054" lon="-105.2293768">
  <ele>1583.12</ele>
  <time>2026-08-29T19:29:57Z</time>
  <course>92.55</course>
  <speed>2.1811235636707975</speed>
  <fix>3d</fix>
</trkpt>
<trkpt lat="40.0717056" lon="-105.2293825">
  <ele>1583.0</ele>
  <time>2026-08-29T19:29:57Z</time>
  <course>91.31</course>
  <speed>2.21</speed>
  <fix>3d</fix>
</trkpt>
<trkpt lat="40.0717053" lon="-105.2293742">
  <ele>1583.12</ele>
  <time>2026-08-29T19:29:57Z</time>
  <course>92.58</course>
  <speed>2.1811235636707975</speed>
  <fix>3d</fix>
</trkpt>
<trkpt lat="40.0717055" lon="-105.2293774">
  <ele>1583.0</ele>
  <time>2026-08-29T19:29:57Z</time>
  <course>91.37</course>
  <speed>2.21</speed>
  <fix>3d</fix>
</trkpt>
<trkpt lat="40.0717053" lon="-105.2293716">
  <ele>1583.12</ele>
  <time>2026-08-29T19:29:57Z</time>
  <course>92.6</course>
  <speed>2.1811235636707975</speed>
  <fix>3d</fix>
</trkpt>
<trkpt lat="40.0717055" lon="-105.2293774">
  <ele>1583.0</ele>
  <time>2026-08-29T19:29:57Z</time>
  <course>91.37</course>
  <speed>2.21</speed>
  <fix>3d</fix>
</trkpt>
<trkpt lat="40.0717052" lon="-105.229369">
  <ele>1583.12</ele>
  <time>2026-08-29T19:29:57Z</time>
  <course>92.63</course>
  <speed>2.1814673960433146</speed>
  <fix>3d</fix>
</trkpt>
<trkpt lat="40.0717054" lon="-105.2293723">
  <ele>1583.0</ele>
  <time>2026-08-29T19:29:57Z</time>
  <course>91.43</course>
  <speed>2.21</speed>
  <fix>3d</fix>
</trkpt>
<trkpt lat="40.0717052" lon="-105.2293664">
  <ele>1583.12</ele>
  <time>2026-08-29T19:29:57Z</time>
  <course>92.66</course>
  <speed>2.1814673960433146</speed>
  <fix>3d</fix>
</trkpt>
<trkpt lat="40.0717054" lon="-105.2293723">
  <ele>1583.0</ele>
  <time>2026-08-29T19:29:57Z</time>
  <course>91.43</course>
  <speed>2.21</speed>
  <fix>3d</fix>
</trkpt>
<trkpt lat="40.0717051" lon="-105.2293638">
  <ele>1583.12</ele>
  <time>2026-08-29T19:29:57Z</time>
  <course>92.69</course>
  <speed>2.1814673960433146</speed>
  <fix>3d</fix>
</trkpt>
<trkpt lat="40.0717054" lon="-105.2293723">
  <ele>1583.0</ele>
  <time>2026-08-29T19:29:57Z</time>
  <course>91.43</course>
  <speed>2.21</speed>
  <fix>3d</fix>
</trkpt>
<trkpt lat="40.0717051" lon="-105.2293612">
  <ele>1583.13</ele>
  <time>2026-08-29T19:29:57Z</time>
  <course>92.72</course>
  <speed>2.1814673960433146</speed>
  <fix>3d</fix>
</trkpt>
<trkpt lat="40.0717053" lon="-105.229367">
  <ele>1583.0</ele>
  <time>2026-08-29T19:29:57Z</time>
  <course>91.49</course>
  <speed>2.21</speed>
  <fix>3d</fix>
</trkpt>
<trkpt lat="40.071705" lon="-105.2293586">
  <ele>1583.13</ele>
  <time>2026-08-29T19:29:57Z</time>
  <course>92.75</course>
  <speed>2.1814673960433146</speed>
  <fix>3d</fix>
</trkpt>
<trkpt lat="40.0717053" lon="-105.229367">
  <ele>1583.0</ele>
  <time>2026-08-29T19:29:57Z</time>
  <course>91.49</course>
  <speed>2.21</speed>
  <fix>3d</fix>
</trkpt>
<trkpt lat="40.0717049" lon="-105.229356">
  <ele>1583.13</ele>
  <time>2026-08-29T19:29:57Z</time>
  <course>92.78</course>
  <speed>2.1814673960433146</speed>
  <fix>3d</fix>
</trkpt>
<trkpt lat="40.0717052" lon="-105.2293618">
  <ele>1583.0</ele>
  <time>2026-08-29T19:29:57Z</time>
  <course>91.55</course>
  <speed>2.21</speed>
  <fix>3d</fix>
</trkpt>
<trkpt lat="40.0717049" lon="-105.2293535">
  <ele>1583.13</ele>
  <time>2026-08-29T19:29:57Z</time>
  <course>92.81</course>
  <speed>2.1814673960433146</speed>
  <fix>3d</fix>
</trkpt>
<trkpt lat="40.0717052" lon="-105.2293618">
  <ele>1583.0</ele>
  <time>2026-08-29T19:29:57Z</time>
  <course>91.55</course>
  <speed>2.21</speed>
  <fix>3d</fix>
</trkpt>
<trkpt lat="40.0717048" lon="-105.2293509">
  <ele>1583.12</ele>
  <time>2026-08-29T19:29:57Z</time>
  <course>92.83</course>
  <speed>2.1814673960433146</speed>
  <fix>3d</fix>
</trkpt>
<trkpt lat="40.0717051" lon="-105.2293567">
  <ele>1583.0</ele>
  <time>2026-08-29T19:29:57Z</time>
  <course>91.61</course>
  <speed>2.21</speed>
  <fix>3d</fix>
</trkpt>
<trkpt lat="40.0717048" lon="-105.2293483">
  <ele>1583.12</ele>
  <time>2026-08-29T19:29:57Z</time>
  <course>92.86</course>
  <speed>2.1814673960433146</speed>
  <fix>3d</fix>
</trkpt>
<trkpt lat="40.071705" lon="-105.2293514">
  <ele>1583.0</ele>
  <time>2026-08-29T19:29:57Z</time>
  <course>91.67</course>
  <speed>2.21</speed>
  <fix>3d</fix>
</trkpt>
<trkpt lat="40.0717047" lon="-105.2293457">
  <ele>1583.12</ele>
  <time>2026-08-29T19:29:57Z</time>
  <course>92.89</course>
  <speed>2.1818570072303087</speed>
  <fix>3d</fix>
</trkpt>
<trkpt lat="40.071705" lon="-105.2293514">
  <ele>1583.0</ele>
  <time>2026-08-29T19:29:57Z</time>
  <course>91.67</course>
  <speed>2.21</speed>
  <fix>3d</fix>
</trkpt>
<trkpt lat="40.0717047" lon="-105.2293431">
  <ele>1583.12</ele>
  <time>2026-08-29T19:29:57Z</time>
  <course>92.92</course>
  <speed>2.1818570072303087</speed>
  <fix>3d</fix>
</trkpt>
<trkpt lat="40.0717049" lon="-105.2293463">
  <ele>1583.0</ele>
  <time>2026-08-29T19:29:57Z</time>
  <course>91.73</course>
  <speed>2.21</speed>
  <fix>3d</fix>
</trkpt>
<trkpt lat="40.0717046" lon="-105.2293406">
  <ele>1583.12</ele>
  <time>2026-08-29T19:29:57Z</time>
  <course>92.97</course>
  <speed>2.1818570072303087</speed>
  <fix>3d</fix>
</trkpt>
<trkpt lat="40.0717049" lon="-105.2293463">
  <ele>1583.0</ele>
  <time>2026-08-29T19:29:57Z</time>
  <course>91.73</course>
  <speed>2.21</speed>
  <fix>3d</fix>
</trkpt>
<trkpt lat="40.0717045" lon="-105.229338">
  <ele>1583.12</ele>
  <time>2026-08-29T19:29:57Z</time>
  <course>93.02</course>
  <speed>2.1818570072303087</speed>
  <fix>3d</fix>
</trkpt>
<trkpt lat="40.0717048" lon="-105.2293411">
  <ele>1583.0</ele>
  <time>2026-08-29T19:29:57Z</time>
  <course>91.82</course>
  <speed>2.21</speed>
  <fix>3d</fix>
</trkpt>
<trkpt lat="40.0717045" lon="-105.2293354">
  <ele>1583.12</ele>
  <time>2026-08-29T19:29:57Z</time>
  <course>93.08</course>
  <speed>2.1818570072303087</speed>
  <fix>3d</fix>
</trkpt>
<trkpt lat="40.0717048" lon="-105.2293411">
  <ele>1583.0</ele>
  <time>2026-08-29T19:29:57Z</time>
  <course>91.82</course>
  <speed>2.21</speed>
  <fix>3d</fix>
</trkpt>
<trkpt lat="40.0717044" lon="-105.2293328">
  <ele>1583.12</ele>
  <time>2026-08-29T19:29:57Z</time>
  <course>93.13</course>
  <speed>2.1818570072303087</speed>
  <fix>3d</fix>
</trkpt>
<trkpt lat="40.0717046" lon="-105.2293359">
  <ele>1583.0</ele>
  <time>2026-08-29T19:29:57Z</time>
  <course>91.93</course>
  <speed>2.2</speed>
  <fix>3d</fix>
</trkpt>
<trkpt lat="40.0717043" lon="-105.2293301">
  <ele>1583.12</ele>
  <time>2026-08-29T19:29:57Z</time>
  <course>93.19</course>
  <speed>2.182292372712694</speed>
  <fix>3d</fix>
</trkpt>
<trkpt lat="40.0717046" lon="-105.2293359">
  <ele>1583.0</ele>
  <time>2026-08-29T19:29:57Z</time>
  <course>91.93</course>
  <speed>2.2</speed>
  <fix>3d</fix>
</trkpt>
<trkpt lat="40.0717043" lon="-105.2293275">
  <ele>1583.12</ele>
  <time>2026-08-29T19:29:57Z</time>
  <course>93.25</course>
  <speed>2.182292372712694</speed>
  <fix>3d</fix>
</trkpt>
<trkpt lat="40.0717045" lon="-105.2293307">
  <ele>1583.0</ele>
  <time>2026-08-29T19:29:57Z</time>
  <course>92.05</course>
  <speed>2.2</speed>
  <fix>3d</fix>
</trkpt>
<trkpt lat="40.0717042" lon="-105.2293249">
  <ele>1583.12</ele>
  <time>2026-08-29T19:29:57Z</time>
  <course>93.31</course>
  <speed>2.182292372712694</speed>
  <fix>3d</fix>
</trkpt>
<trkpt lat="40.0717045" lon="-105.2293307">
  <ele>1583.0</ele>
  <time>2026-08-29T19:29:57Z</time>
  <course>92.05</course>
  <speed>2.2</speed>
  <fix>3d</fix>
</trkpt>
<trkpt lat="40.0717041" lon="-105.2293223">
  <ele>1583.12</ele>
  <time>2026-08-29T19:29:57Z</time>
  <course>93.38</course>
  <speed>2.182292372712694</speed>
  <fix>3d</fix>
</trkpt>
<trkpt lat="40.0717044" lon="-105.2293256">
  <ele>1583.0</ele>
  <time>2026-08-29T19:29:57Z</time>
  <course>92.17</course>
  <speed>2.2</speed>
  <fix>3d</fix>
</trkpt>
<trkpt lat="40.071704" lon="-105.2293197">
  <ele>1583.12</ele>
  <time>2026-08-29T19:29:57Z</time>
  <course>93.47</course>
  <speed>2.1827734651126764</speed>
  <fix>3d</fix>
</trkpt>
<trkpt lat="40.0717044" lon="-105.2293256">
  <ele>1583.0</ele>
  <time>2026-08-29T19:29:57Z</time>
  <course>92.17</course>
  <speed>2.2</speed>
  <fix>3d</fix>
</trkpt>
<trkpt lat="40.071704" lon="-105.2293171">
  <ele>1583.12</ele>
  <time>2026-08-29T19:29:57Z</time>
  <course>93.56</course>
  <speed>2.1827734651126764</speed>
  <fix>3d</fix>
</trkpt>
<trkpt lat="40.0717042" lon="-105.2293203">
  <ele>1583.0</ele>
  <time>2026-08-29T19:29:57Z</time>
  <course>92.33</course>
  <speed>2.2</speed>
  <fix>3d</fix>
</trkpt>
<trkpt lat="40.0717039" lon="-105.2293145">
  <ele>1583.12</ele>
  <time>2026-08-29T19:29:57Z</time>
  <course>93.65</course>
  <speed>2.1827734651126764</speed>
  <fix>3d</fix>
</trkpt>
<trkpt lat="40.0717042" lon="-105.2293203">
  <ele>1583.0</ele>
  <time>2026-08-29T19:29:57Z</time>
  <course>92.33</course>
  <speed>2.2</speed>
  <fix>3d</fix>
</trkpt>
<trkpt lat="40.0717038" lon="-105.2293119">
  <ele>1583.13</ele>
  <time>2026-08-29T19:29:57Z</time>
  <course>93.76</course>
  <speed>2.183300254202339</speed>
  <fix>3d</fix>
</trkpt>
<trkpt lat="40.0717042" lon="-105.2293203">
  <ele>1583.0</ele>
  <time>2026-08-29T19:29:57Z</time>
  <course>92.33</course>
  <speed>2.2</speed>
  <fix>3d</fix>
</trkpt>
<trkpt lat="40.0717037" lon="-105.2293094">
  <ele>1583.13</ele>
  <time>2026-08-29T19:29:57Z</time>
  <course>93.88</course>
  <speed>2.183300254202339</speed>
  <fix>3d</fix>
</trkpt>
<trkpt lat="40.071704" lon="-105.2293152">
  <ele>1583.0</ele>
  <time>2026-08-29T19:29:57Z</time>
  <course>92.52</course>
  <speed>2.2</speed>
  <fix>3d</fix>
</trkpt>
<trkpt lat="40.0717036" lon="-105.2293068">
  <ele>1583.13</ele>
  <time>2026-08-29T19:29:57Z</time>
  <course>94.01</course>
  <speed>2.1738905216224667</speed>
  <fix>3d</fix>
</trkpt>
<trkpt lat="40.071704" lon="-105.2293152">
  <ele>1583.0</ele>
  <time>2026-08-29T19:29:57Z</time>
  <course>92.52</course>
  <speed>2.2</speed>
  <fix>3d</fix>
</trkpt>
<trkpt lat="40.0717035" lon="-105.2293042">
  <ele>1583.13</ele>
  <time>2026-08-29T19:29:57Z</time>
  <course>94.17</course>
  <speed>2.1738905216224667</speed>
  <fix>3d</fix>
</trkpt>
<trkpt lat="40.0717039" lon="-105.22931">
  <ele>1583.0</ele>
  <time>2026-08-29T19:29:57Z</time>
  <course>92.75</course>
  <speed>2.2</speed>
  <fix>3d</fix>
</trkpt>
<trkpt lat="40.0717034" lon="-105.2293017">
  <ele>1583.13</ele>
  <time>2026-08-29T19:29:57Z</time>
  <course>94.35</course>
  <speed>2.1745114393812695</speed>
  <fix>3d</fix>
</trkpt>
<trkpt lat="40.0717039" lon="-105.22931">
  <ele>1583.0</ele>
  <time>2026-08-29T19:29:57Z</time>
  <course>92.75</course>
  <speed>2.2</speed>
  <fix>3d</fix>
</trkpt>
<trkpt lat="40.0717033" lon="-105.2292991">
  <ele>1583.13</ele>
  <time>2026-08-29T19:29:57Z</time>
  <course>94.58</course>
  <speed>2.175178153623284</speed>
  <fix>3d</fix>
</trkpt>
<trkpt lat="40.0717037" lon="-105.2293048">
  <ele>1583.0</ele>
  <time>2026-08-29T19:29:57Z</time>
  <course>93.05</course>
  <speed>2.2</speed>
  <fix>3d</fix>
</trkpt>
<trkpt lat="40.0717032" lon="-105.2292966">
  <ele>1583.13</ele>
  <time>2026-08-29T19:29:57Z</time>
  <course>95.0</course>
  <speed>2.166679487141557</speed>
  <fix>3d</fix>
</trkpt>
<trkpt lat="40.0717034" lon="-105.2292997">
  <ele>1583.0</ele>
  <time>2026-08-29T19:29:57Z</time>
  <course>93.55</course>
  <speed>2.2</speed>
  <fix>3d</fix>
</trkpt>
<trkpt lat="40.071703" lon="-105.229294">
  <ele>1583.12</ele>
  <time>2026-08-29T19:29:57Z</time>
  <course>96.51</course>
  <speed>2.171174797200815</speed>
  <fix>3d</fix>
</trkpt>
<trkpt lat="40.0717034" lon="-105.2292997">
  <ele>1583.0</ele>
  <time>2026-08-29T19:29:57Z</time>
  <course>93.55</course>
  <speed>2.2</speed>
  <fix>3d</fix>
</trkpt>
<trkpt lat="40.0717028" lon="-105.2292914">
  <ele>1583.12</ele>
  <time>2026-08-29T19:29:57Z</time>
  <course>99.14</course>
  <speed>2.163792966066763</speed>
  <fix>3d</fix>
</trkpt>
<trkpt lat="40.071703" lon="-105.2292945">
  <ele>1583.0</ele>
  <time>2026-08-29T19:29:57Z</time>
  <course>95.95</course>
  <speed>2.19</speed>
  <fix>3d</fix>
</trkpt>
<trkpt lat="40.0717024" lon="-105.2292889">
  <ele>1583.12</ele>
  <time>2026-08-29T19:29:57Z</time>
  <course>102.84</course>
  <speed>2.1595601403989657</speed>
  <fix>3d</fix>
</trkpt>
<trkpt lat="40.071703" lon="-105.2292945">
  <ele>1583.0</ele>
  <time>2026-08-29T19:29:57Z</time>
  <course>95.95</course>
  <speed>2.19</speed>
  <fix>3d</fix>
</trkpt>
<trkpt lat="40.0717019" lon="-105.2292864">
  <ele>1583.12</ele>
  <time>2026-08-29T19:29:57Z</time>
  <course>107.69</course>
  <speed>2.14758003343298</speed>
  <fix>3d</fix>
</trkpt>
<trkpt lat="40.0717025" lon="-105.2292894">
  <ele>1583.0</ele>
  <time>2026-08-29T19:29:57Z</time>
  <course>102.33</course>
  <speed>2.18</speed>
  <fix>3d</fix>
</trkpt>
<trkpt lat="40.0717012" lon="-105.229284">
  <ele>1583.12</ele>
  <time>2026-08-29T19:29:57Z</time>
  <course>113.3</course>
  <speed>2.141611542740653</speed>
  <fix>3d</fix>
</trkpt>
<trkpt lat="40.0717025" lon="-105.2292894">
  <ele>1583.0</ele>
  <time>2026-08-29T19:29:57Z</time>
  <course>102.33</course>
  <speed>2.18</speed>
  <fix>3d</fix>
</trkpt>
<trkpt lat="40.0717004" lon="-105.2292817">
  <ele>1583.12</ele>
  <time>2026-08-29T19:29:57Z</time>
  <course>118.84</course>
  <speed>2.1125576915199265</speed>
  <fix>3d</fix>
</trkpt>
<trkpt lat="40.0717013" lon="-105.2292845">
  <ele>1583.0</ele>
  <time>2026-08-29T19:29:57Z</time>
  <course>112.18</course>
  <speed>2.16</speed>
  <fix>3d</fix>
</trkpt>
<trkpt lat="40.0716994" lon="-105.2292796">
  <ele>1583.12</ele>
  <time>2026-08-29T19:29:57Z</time>
  <course>124.4</course>
  <speed>2.0858571379651103</speed>
  <fix>3d</fix>
</trkpt>
<trkpt lat="40.0717013" lon="-105.2292845">
  <ele>1583.0</ele>
  <time>2026-08-29T19:29:57Z</time>
  <course>112.18</course>
  <speed>2.16</speed>
  <fix>3d</fix>
</trkpt>
<trkpt lat="40.0716982" lon="-105.2292776">
  <ele>1583.12</ele>
  <time>2026-08-29T19:29:57Z</time>
  <course>130.01</course>
  <speed>2.05</speed>
  <fix>3d</fix>
</trkpt>
<trkpt lat="40.0716995" lon="-105.2292801">
  <ele>1583.0</ele>
  <time>2026-08-29T19:29:57Z</time>
  <course>123.28</course>
  <speed>2.11</speed>
  <fix>3d</fix>
</trkpt>
<trkpt lat="40.0716969" lon="-105.2292759">
  <ele>1583.11</ele>
  <time>2026-08-29T19:29:57Z</time>
  <course>135.58</course>
  <speed>1.9944924166313596</speed>
  <fix>3d</fix>
</trkpt>
<trkpt lat="40.0716995" lon="-105.2292801">
  <ele>1583.0</ele>
  <time>2026-08-29T19:29:57Z</time>
  <course>123.28</course>
  <speed>2.11</speed>
  <fix>3d</fix>
</trkpt>
<trkpt lat="40.0716956" lon="-105.2292743">
  <ele>1583.11</ele>
  <time>2026-08-29T19:29:57Z</time>
  <course>140.42</course>
  <speed>1.9412624758130983</speed>
  <fix>3d</fix>
</trkpt>
<trkpt lat="40.0716972" lon="-105.2292763">
  <ele>1583.0</ele>
  <time>2026-08-29T19:29:57Z</time>
  <course>134.0</course>
  <speed>2.02</speed>
  <fix>3d</fix>
</trkpt>
<trkpt lat="40.0716942" lon="-105.2292729">
  <ele>1583.1</ele>
  <time>2026-08-29T19:29:57Z</time>
  <course>144.11</course>
  <speed>1.894887859478761</speed>
  <fix>3d</fix>
</trkpt>
<trkpt lat="40.0716972" lon="-105.2292763">
  <ele>1583.0</ele>
  <time>2026-08-29T19:29:57Z</time>
  <course>134.0</course>
  <speed>2.02</speed>
  <fix>3d</fix>
</trkpt>
<trkpt lat="40.0716927" lon="-105.2292717">
  <ele>1583.1</ele>
  <time>2026-08-29T19:29:57Z</time>
  <course>146.7</course>
  <speed>1.8476200908195386</speed>
  <fix>3d</fix>
</trkpt>
<trkpt lat="40.0716946" lon="-105.2292732">
  <ele>1583.0</ele>
  <time>2026-08-29T19:29:57Z</time>
  <course>142.4</course>
  <speed>1.92</speed>
  <fix>3d</fix>
</trkpt>
<trkpt lat="40.0716913" lon="-105.2292706">
  <ele>1583.1</ele>
  <time>2026-08-29T19:29:57Z</time>
  <course>148.19</course>
  <speed>1.8024705268048076</speed>
  <fix>3d</fix>
</trkpt>
<trkpt lat="40.0716946" lon="-105.2292732">
  <ele>1583.0</ele>
  <time>2026-08-29T19:29:57Z</time>
  <course>142.4</course>
  <speed>1.92</speed>
  <fix>3d</fix>
</trkpt>
<trkpt lat="40.0716899" lon="-105.2292695">
  <ele>1583.1</ele>
  <time>2026-08-29T19:29:57Z</time>
  <course>148.56</course>
  <speed>1.7613914953808538</speed>
  <fix>3d</fix>
</trkpt>
<trkpt lat="40.0716946" lon="-105.2292732">
  <ele>1583.0</ele>
  <time>2026-08-29T19:29:57Z</time>
  <course>142.4</course>
  <speed>1.92</speed>
  <fix>3d</fix>
</trkpt>
<trkpt lat="40.0716886" lon="-105.2292684">
  <ele>1583.1</ele>
  <time>2026-08-29T19:29:57Z</time>
  <course>147.85</course>
  <speed>1.7184295155751952</speed>
  <fix>3d</fix>
</trkpt>
<trkpt lat="40.0716918" lon="-105.2292707">
  <ele>1583.0</ele>
  <time>2026-08-29T19:29:57Z</time>
  <course>146.53</course>
  <speed>1.83</speed>
  <fix>3d</fix>
</trkpt>
<trkpt lat="40.0716873" lon="-105.2292673">
  <ele>1583.1</ele>
  <time>2026-08-29T19:29:57Z</time>
  <course>146.04</course>
  <speed>1.678153747426022</speed>
  <fix>3d</fix>
</trkpt>
<trkpt lat="40.0716918" lon="-105.2292707">
  <ele>1583.0</ele>
  <time>2026-08-29T19:29:57Z</time>
  <course>146.53</course>
  <speed>1.83</speed>
  <fix>3d</fix>
</trkpt>
<trkpt lat="40.0716861" lon="-105.2292662">
  <ele>1583.1</ele>
  <time>2026-08-29T19:29:57Z</time>
  <course>144.16</course>
  <speed>1.6450227961946302</speed>
  <fix>3d</fix>
</trkpt>
<trkpt lat="40.0716891" lon="-105.2292684">
  <ele>1583.0</ele>
  <time>2026-08-29T19:29:57Z</time>
  <course>146.24</course>
  <speed>1.74</speed>
  <fix>3d</fix>
</trkpt>
<trkpt lat="40.0716849" lon="-105.229265">
  <ele>1583.1</ele>
  <time>2026-08-29T19:29:57Z</time>
  <course>142.64</course>
  <speed>1.616044553841261</speed>
  <fix>3d</fix>
</trkpt>
<trkpt lat="40.0716891" lon="-105.2292684">
  <ele>1583.0</ele>
  <time>2026-08-29T19:29:57Z</time>
  <course>146.24</course>
  <speed>1.74</speed>
  <fix>3d</fix>
</trkpt>
<trkpt lat="40.0716838" lon="-105.2292638">
  <ele>1583.1</ele>
  <time>2026-08-29T19:29:57Z</time>
  <course>141.35</course>
  <speed>1.5822136391777186</speed>
  <fix>3d</fix>
</trkpt>
<trkpt lat="40.0716866" lon="-105.229266">
  <ele>1583.0</ele>
  <time>2026-08-29T19:29:57Z</time>
  <course>143.28</course>
  <speed>1.67</speed>
  <fix>3d</fix>
</trkpt>
<trkpt lat="40.0716827" lon="-105.2292626">
  <ele>1583.09</ele>
  <time>2026-08-29T19:29:57Z</time>
  <course>140.26</course>
  <speed>1.5648642113614843</speed>
  <fix>3d</fix>
</trkpt>
<trkpt lat="40.0716866" lon="-105.229266">
  <ele>1583.0</ele>
  <time>2026-08-29T19:29:57Z</time>
  <course>143.28</course>
  <speed>1.67</speed>
  <fix>3d</fix>
</trkpt>
<trkpt lat="40.0716817" lon="-105.2292614">
  <ele>1583.09</ele>
  <time>2026-08-29T19:29:57Z</time>
  <course>139.35</course>
  <speed>1.533883959105121</speed>
  <fix>3d</fix>
</trkpt>
<trkpt lat="40.0716843" lon="-105.2292636">
  <ele>1583.0</ele>
  <time>2026-08-29T19:29:57Z</time>
  <course>140.4</course>
  <speed>1.61</speed>
  <fix>3d</fix>
</trkpt>
<trkpt lat="40.0716806" lon="-105.2292602">
  <ele>1583.09</ele>
  <time>2026-08-29T19:29:57Z</time>
  <course>138.59</course>
  <speed>1.5174320413119</speed>
  <fix>3d</fix>
</trkpt>
<trkpt lat="40.0716821" lon="-105.2292612">
  <ele>1583.0</ele>
  <time>2026-08-29T19:29:57Z</time>
  <course>138.38</course>
  <speed>1.56</speed>
  <fix>3d</fix>
</trkpt>
<trkpt lat="40.0716796" lon="-105.229259">
  <ele>1583.09</ele>
  <time>2026-08-29T19:29:57Z</time>
  <course>137.94</course>
  <speed>1.5023315213360866</speed>
  <fix>3d</fix>
</trkpt>
<trkpt lat="40.0716821" lon="-105.2292612">
  <ele>1583.0</ele>
  <time>2026-08-29T19:29:57Z</time>
  <course>138.38</course>
  <speed>1.56</speed>
  <fix>3d</fix>
</trkpt>
<trkpt lat="40.0716786" lon="-105.2292577">
  <ele>1583.1</ele>
  <time>2026-08-29T19:29:57Z</time>
  <course>137.4</course>
  <speed>1.4940214188558343</speed>
  <fix>3d</fix>
</trkpt>
<trkpt lat="40.07168" lon="-105.2292588">
  <ele>1583.0</ele>
  <time>2026-08-29T19:29:57Z</time>
  <course>136.95</course>
  <speed>1.53</speed>
  <fix>3d</fix>
</trkpt>
<trkpt lat="40.0716777" lon="-105.2292565">
  <ele>1583.1</ele>
  <time>2026-08-29T19:29:57Z</time>
  <course>136.94</course>
  <speed>1.4792227688891217</speed>
  <fix>3d</fix>
</trkpt>
<trkpt lat="40.07168" lon="-105.2292588">
  <ele>1583.0</ele>
  <time>2026-08-29T19:29:57Z</time>
  <course>136.95</course>
  <speed>1.53</speed>
  <fix>3d</fix>
</trkpt>
<trkpt lat="40.0716767" lon="-105.2292553">
  <ele>1583.1</ele>
  <time>2026-08-29T19:29:57Z</time>
  <course>136.56</course>
  <speed>1.4718695594379279</speed>
  <fix>3d</fix>
</trkpt>
<trkpt lat="40.0716781" lon="-105.2292563">
  <ele>1583.0</ele>
  <time>2026-08-29T19:29:57Z</time>
  <course>135.93</course>
  <speed>1.5</speed>
  <fix>3d</fix>
</trkpt>
<trkpt lat="40.0716758" lon="-105.229254">
  <ele>1583.1</ele>
  <time>2026-08-29T19:29:57Z</time>
  <course>136.24</course>
  <speed>1.4713938969562161</speed>
  <fix>3d</fix>
</trkpt>
<trkpt lat="40.0716781" lon="-105.2292563">
  <ele>1583.0</ele>
  <time>2026-08-29T19:29:57Z</time>
  <course>135.93</course>
  <speed>1.5</speed>
  <fix>3d</fix>
</trkpt>
<trkpt lat="40.0716748" lon="-105.2292527">
  <ele>1583.1</ele>
  <time>2026-08-29T19:29:57Z</time>
  <course>135.96</course>
  <speed>1.464137971640651</speed>
  <fix>3d</fix>
</trkpt>
<trkpt lat="40.0716762" lon="-105.2292538">
  <ele>1583.0</ele>
  <time>2026-08-29T19:29:57Z</time>
  <course>135.21</course>
  <speed>1.49</speed>
  <fix>3d</fix>
</trkpt>
<trkpt lat="40.0716739" lon="-105.2292515">
  <ele>1583.1</ele>
  <time>2026-08-29T19:29:57Z</time>
  <course>135.73</course>
  <speed>1.4710540438746633</speed>
  <fix>3d</fix>
</trkpt>
<trkpt lat="40.0716762" lon="-105.2292538">
  <ele>1583.0</ele>
  <time>2026-08-29T19:29:57Z</time>
  <course>135.21</course>
  <speed>1.49</speed>
  <fix>3d</fix>
</trkpt>
<trkpt lat="40.0716729" lon="-105.2292502">
  <ele>1583.1</ele>
  <time>2026-08-29T19:29:57Z</time>
  <course>135.53</course>
  <speed>1.4638647478507023</speed>
  <fix>3d</fix>
</trkpt>
<trkpt lat="40.0716743" lon="-105.2292514">
  <ele>1583.0</ele>
  <time>2026-08-29T19:29:57Z</time>
  <course>134.7</course>
  <speed>1.48</speed>
  <fix>3d</fix>
</trkpt>
<trkpt lat="40.071672" lon="-105.2292489">
  <ele>1583.11</ele>
  <time>2026-08-29T19:29:57Z</time>
  <course>135.37</course>
  <speed>1.4708500943332057</speed>
  <fix>3d</fix>
</trkpt>
<trkpt lat="40.0716743" lon="-105.2292514">
  <ele>1583.0</ele>
  <time>2026-08-29T19:29:57Z</time>
  <course>134.7</course>
  <speed>1.48</speed>
  <fix>3d</fix>
</trkpt>
<trkpt lat="40.0716711" lon="-105.2292477">
  <ele>1583.11</ele>
  <time>2026-08-29T19:29:57Z</time>
  <course>135.24</course>
  <speed>1.4637281168304446</speed>
  <fix>3d</fix>
</trkpt>
<trkpt lat="40.0716724" lon="-105.2292489">
  <ele>1583.0</ele>
  <time>2026-08-29T19:29:57Z</time>
  <course>134.34</course>
  <speed>1.48</speed>
  <fix>3d</fix>
</trkpt>
<trkpt lat="40.0716701" lon="-105.2292464">
  <ele>1583.11</ele>
  <time>2026-08-29T19:29:57Z</time>
  <course>135.12</course>
  <speed>1.4637281168304446</speed>
  <fix>3d</fix>
</trkpt>
<trkpt lat="40.0716724" lon="-105.2292489">
  <ele>1583.0</ele>
  <time>2026-08-29T19:29:57Z</time>
  <course>134.34</course>
  <speed>1.48</speed>
  <fix>3d</fix>
</trkpt>
<trkpt lat="40.0716692" lon="-105.2292451">
  <ele>1583.11</ele>
  <time>2026-08-29T19:29:57Z</time>
  <course>135.03</course>
  <speed>1.4707821048680187</speed>
  <fix>3d</fix>
</trkpt>
<trkpt lat="40.0716706" lon="-105.2292464">
  <ele>1583.0</ele>
  <time>2026-08-29T19:29:57Z</time>
  <course>134.09</course>
  <speed>1.48</speed>
  <fix>3d</fix>
</trkpt>
<trkpt lat="40.0716683" lon="-105.2292439">
  <ele>1583.11</ele>
  <time>2026-08-29T19:29:57Z</time>
  <course>134.95</course>
  <speed>1.4707821048680187</speed>
  <fix>3d</fix>
</trkpt>
<trkpt lat="40.0716706" lon="-105.2292464">
  <ele>1583.0</ele>
  <time>2026-08-29T19:29:57Z</time>
  <course>134.09</course>
  <speed>1.48</speed>
  <fix>3d</fix>
</trkpt>
<trkpt lat="40.0716673" lon="-105.2292426">
  <ele>1583.11</ele>
  <time>2026-08-29T19:29:57Z</time>
  <course>134.89</course>
  <speed>1.4707821048680187</speed>
  <fix>3d</fix>
</trkpt>
<trkpt lat="40.0716706" lon="-105.2292464">
  <ele>1583.0</ele>
  <time>2026-08-29T19:29:57Z</time>
  <course>134.09</course>
  <speed>1.48</speed>
  <fix>3d</fix>
</trkpt>
<trkpt lat="40.0716664" lon="-105.2292413">
  <ele>1583.11</ele>
  <time>2026-08-29T19:29:57Z</time>
  <course>134.83</course>
  <speed>1.4778700890132392</speed>
  <fix>3d</fix>
</trkpt>
<trkpt lat="40.0716687" lon="-105.2292439">
  <ele>1583.0</ele>
  <time>2026-08-29T19:29:57Z</time>
  <course>133.91</course>
  <speed>1.48</speed>
  <fix>3d</fix>
</trkpt>
<trkpt lat="40.0716655" lon="-105.2292401">
  <ele>1583.11</ele>
  <time>2026-08-29T19:29:57Z</time>
  <course>134.79</course>
  <speed>1.4778700890132392</speed>
  <fix>3d</fix>
</trkpt>
<trkpt lat="40.0716687" lon="-105.2292439">
  <ele>1583.0</ele>
  <time>2026-08-29T19:29:57Z</time>
  <course>133.91</course>
  <speed>1.48</speed>
  <fix>3d</fix>
</trkpt>
<trkpt lat="40.0716646" lon="-105.2292388">
  <ele>1583.11</ele>
  <time>2026-08-29T19:29:57Z</time>
  <course>134.75</course>
  <speed>1.4778700890132392</speed>
  <fix>3d</fix>
</trkpt>
<trkpt lat="40.0716668" lon="-105.2292414">
  <ele>1583.0</ele>
  <time>2026-08-29T19:29:57Z</time>
  <course>133.79</course>
  <speed>1.48</speed>
  <fix>3d</fix>
</trkpt>
<trkpt lat="40.0716637" lon="-105.2292375">
  <ele>1583.11</ele>
  <time>2026-08-29T19:29:57Z</time>
  <course>134.72</course>
  <speed>1.4778700890132392</speed>
  <fix>3d</fix>
</trkpt>
<trkpt lat="40.0716668" lon="-105.2292414">
  <ele>1583.0</ele>
  <time>2026-08-29T19:29:57Z</time>
  <course>133.79</course>
  <speed>1.48</speed>
  <fix>3d</fix>
</trkpt>
<trkpt lat="40.0716628" lon="-105.2292363">
  <ele>1583.11</ele>
  <time>2026-08-29T19:29:57Z</time>
  <course>134.7</course>
  <speed>1.4849915824677256</speed>
  <fix>3d</fix>
</trkpt>
<trkpt lat="40.071665" lon="-105.2292388">
  <ele>1583.0</ele>
  <time>2026-08-29T19:29:57Z</time>
  <course>133.71</course>
  <speed>1.49</speed>
  <fix>3d</fix>
</trkpt>
<trkpt lat="40.0716618" lon="-105.229235">
  <ele>1583.11</ele>
  <time>2026-08-29T19:29:57Z</time>
  <course>134.68</course>
  <speed>1.4849915824677256</speed>
  <fix>3d</fix>
</trkpt>
<trkpt lat="40.0716632" lon="-105.2292363">
  <ele>1583.0</ele>
  <time>2026-08-29T19:29:57Z</time>
  <course>133.65</course>
  <speed>1.49</speed>
  <fix>3d</fix>
</trkpt>
<trkpt lat="40.0716609" lon="-105.2292337">
  <ele>1583.11</ele>
  <time>2026-08-29T19:29:57Z</time>
  <course>134.66</course>
  <speed>1.4849915824677256</speed>
  <fix>3d</fix>
</trkpt>
<trkpt lat="40.0716632" lon="-105.2292363">
  <ele>1583.0</ele>
  <time>2026-08-29T19:29:57Z</time>
  <course>133.65</course>
  <speed>1.49</speed>
  <fix>3d</fix>
</trkpt>
<trkpt lat="40.07166" lon="-105.2292324">
  <ele>1583.11</ele>
  <time>2026-08-29T19:29:57Z</time>
  <course>134.64</course>
  <speed>1.4849915824677256</speed>
  <fix>3d</fix>
</trkpt>
<trkpt lat="40.0716613" lon="-105.2292338">
  <ele>1583.0</ele>
  <time>2026-08-29T19:29:57Z</time>
  <course>133.61</course>
  <speed>1.49</speed>
  <fix>3d</fix>
</trkpt>
<trkpt lat="40.0716591" lon="-105.2292311">
  <ele>1583.11</ele>
  <time>2026-08-29T19:29:57Z</time>
  <course>134.63</course>
  <speed>1.4849915824677256</speed>
  <fix>3d</fix>
</trkpt>
<trkpt lat="40.0716613" lon="-105.2292338">
  <ele>1583.0</ele>
  <time>2026-08-29T19:29:57Z</time>
  <course>133.61</course>
  <speed>1.49</speed>
  <fix>3d</fix>
</trkpt>
<trkpt lat="40.0716581" lon="-105.2292299">
  <ele>1583.11</ele>
  <time>2026-08-29T19:29:57Z</time>
  <course>134.63</course>
  <speed>1.4849915824677256</speed>
  <fix>3d</fix>
</trkpt>
<trkpt lat="40.0716594" lon="-105.2292313">
  <ele>1583.0</ele>
  <time>2026-08-29T19:29:57Z</time>
  <course>133.59</course>
  <speed>1.5</speed>
  <fix>3d</fix>
</trkpt>
<trkpt lat="40.0716572" lon="-105.2292286">
  <ele>1583.11</ele>
  <time>2026-08-29T19:29:57Z</time>
  <course>134.63</course>
  <speed>1.4921461054467824</speed>
  <fix>3d</fix>
</trkpt>
<trkpt lat="40.0716594" lon="-105.2292313">
  <ele>1583.0</ele>
  <time>2026-08-29T19:29:57Z</time>
  <course>133.59</course>
  <speed>1.5</speed>
  <fix>3d</fix>
</trkpt>
<trkpt lat="40.0716563" lon="-105.2292273">
  <ele>1583.11</ele>
  <time>2026-08-29T19:29:57Z</time>
  <course>134.63</course>
  <speed>1.4921461054467824</speed>
  <fix>3d</fix>
</trkpt>
<trkpt lat="40.0716575" lon="-105.2292286">
  <ele>1583.0</ele>
  <time>2026-08-29T19:29:57Z</time>
  <course>133.59</course>
  <speed>1.5</speed>
  <fix>3d</fix>
</trkpt>
<trkpt lat="40.0716553" lon="-105.229226">
  <ele>1583.11</ele>
  <time>2026-08-29T19:29:57Z</time>
  <course>134.63</course>
  <speed>1.4991330828182001</speed>
  <fix>3d</fix>
</trkpt>
<trkpt lat="40.0716575" lon="-105.2292286">
  <ele>1583.0</ele>
  <time>2026-08-29T19:29:57Z</time>
  <course>133.59</course>
  <speed>1.5</speed>
  <fix>3d</fix>
</trkpt>
<trkpt lat="40.0716544" lon="-105.2292247">
  <ele>1583.11</ele>
  <time>2026-08-29T19:29:57Z</time>
  <course>134.63</course>
  <speed>1.4991330828182001</speed>
  <fix>3d</fix>
</trkpt>
<trkpt lat="40.0716557" lon="-105.2292261">
  <ele>1583.0</ele>
  <time>2026-08-29T19:29:57Z</time>
  <course>133.59</course>
  <speed>1.5</speed>
  <fix>3d</fix>
</trkpt>
<trkpt lat="40.0716535" lon="-105.2292234">
  <ele>1583.11</ele>
  <time>2026-08-29T19:29:57Z</time>
  <course>134.63</course>
  <speed>1.4991330828182001</speed>
  <fix>3d</fix>
</trkpt>
<trkpt lat="40.0716557" lon="-105.2292261">
  <ele>1583.0</ele>
  <time>2026-08-29T19:29:57Z</time>
  <course>133.59</course>
  <speed>1.5</speed>
  <fix>3d</fix>
</trkpt>
<trkpt lat="40.0716525" lon="-105.2292221">
  <ele>1583.11</ele>
  <time>2026-08-29T19:29:57Z</time>
  <course>134.63</course>
  <speed>1.4991330828182001</speed>
  <fix>3d</fix>
</trkpt>
<trkpt lat="40.0716538" lon="-105.2292235">
  <ele>1583.0</ele>
  <time>2026-08-29T19:29:57Z</time>
  <course>133.59</course>
  <speed>1.5</speed>
  <fix>3d</fix>
</trkpt>
<trkpt lat="40.0716516" lon="-105.2292208">
  <ele>1583.1</ele>
  <time>2026-08-29T19:29:57Z</time>
  <course>134.63</course>
  <speed>1.4991330828182001</speed>
  <fix>3d</fix>
</trkpt>
<trkpt lat="40.0716538" lon="-105.2292235">
  <ele>1583.0</ele>
  <time>2026-08-29T19:29:57Z</time>
  <course>133.59</course>
  <speed>1.5</speed>
  <fix>3d</fix>
</trkpt>
<trkpt lat="40.0716506" lon="-105.2292195">
  <ele>1583.1</ele>
  <time>2026-08-29T19:29:57Z</time>
  <course>134.63</course>
  <speed>1.4991330828182001</speed>
  <fix>3d</fix>
</trkpt>
<trkpt lat="40.071652" lon="-105.229221">
  <ele>1583.0</ele>
  <time>2026-08-29T19:29:57Z</time>
  <course>133.59</course>
  <speed>1.51</speed>
  <fix>3d</fix>
</trkpt>
<trkpt lat="40.0716497" lon="-105.2292182">
  <ele>1583.1</ele>
  <time>2026-08-29T19:29:57Z</time>
  <course>134.63</course>
  <speed>1.4991330828182001</speed>
  <fix>3d</fix>
</trkpt>
<trkpt lat="40.071652" lon="-105.229221">
  <ele>1583.0</ele>
  <time>2026-08-29T19:29:57Z</time>
  <course>133.59</course>
  <speed>1.51</speed>
  <fix>3d</fix>
</trkpt>
<trkpt lat="40.0716488" lon="-105.2292169">
  <ele>1583.1</ele>
  <time>2026-08-29T19:29:57Z</time>
  <course>134.63</course>
  <speed>1.4991330828182001</speed>
  <fix>3d</fix>
</trkpt>
<trkpt lat="40.071652" lon="-105.229221">
  <ele>1583.0</ele>
  <time>2026-08-29T19:29:57Z</time>
  <course>133.59</course>
  <speed>1.51</speed>
  <fix>3d</fix>
</trkpt>
<trkpt lat="40.0716478" lon="-105.2292156">
  <ele>1583.1</ele>
  <time>2026-08-29T19:29:57Z</time>
  <course>134.63</course>
  <speed>1.4991330828182001</speed>
  <fix>3d</fix>
</trkpt>
<trkpt lat="40.0716501" lon="-105.2292184">
  <ele>1583.0</ele>
  <time>2026-08-29T19:29:57Z</time>
  <course>133.59</course>
  <speed>1.51</speed>
  <fix>3d</fix>
</trkpt>
<trkpt lat="40.0716469" lon="-105.2292143">
  <ele>1583.09</ele>
  <time>2026-08-29T19:29:57Z</time>
  <course>134.63</course>
  <speed>1.4991330828182001</speed>
  <fix>3d</fix>
</trkpt>
<trkpt lat="40.0716501" lon="-105.2292184">
  <ele>1583.0</ele>
  <time>2026-08-29T19:29:57Z</time>
  <course>133.59</course>
  <speed>1.51</speed>
  <fix>3d</fix>
</trkpt>
<trkpt lat="40.071646" lon="-105.2292131">
  <ele>1583.09</ele>
  <time>2026-08-29T19:29:57Z</time>
  <course>134.63</course>
  <speed>1.4991330828182001</speed>
  <fix>3d</fix>
</trkpt>
<trkpt lat="40.0716482" lon="-105.2292158">
  <ele>1583.0</ele>
  <time>2026-08-29T19:29:57Z</time>
  <course>133.59</course>
  <speed>1.51</speed>
  <fix>3d</fix>
</trkpt>
<trkpt lat="40.071645" lon="-105.2292118">
  <ele>1583.09</ele>
  <time>2026-08-29T19:29:57Z</time>
  <course>135.11</course>
  <speed>1.4990663761154805</speed>
  <fix>3d</fix>
</trkpt>
<trkpt lat="40.0716482" lon="-105.2292158">
  <ele>1583.0</ele>
  <time>2026-08-29T19:29:57Z</time>
  <course>133.59</course>
  <speed>1.51</speed>
  <fix>3d</fix>
</trkpt>
<trkpt lat="40.0716441" lon="-105.2292105">
  <ele>1583.09</ele>
  <time>2026-08-29T19:29:57Z</time>
  <course>136.78</course>
  <speed>1.4996666296213967</speed>
  <fix>3d</fix>
</trkpt>
<trkpt lat="40.0716463" lon="-105.2292133">
  <ele>1583.0</ele>
  <time>2026-08-29T19:29:57Z</time>
  <course>133.83</course>
  <speed>1.51</speed>
  <fix>3d</fix>
</trkpt>
<trkpt lat="40.0716431" lon="-105.2292094">
  <ele>1583.09</ele>
  <time>2026-08-29T19:29:57Z</time>
  <course>139.55</course>
  <speed>1.4892279879185724</speed>
  <fix>3d</fix>
</trkpt>
<trkpt lat="40.0716463" lon="-105.2292133">
  <ele>1583.0</ele>
  <time>2026-08-29T19:29:57Z</time>
  <course>133.83</course>
  <speed>1.51</speed>
  <fix>3d</fix>
</trkpt>
<trkpt lat="40.0716421" lon="-105.2292082">
  <ele>1583.09</ele>
  <time>2026-08-29T19:29:57Z</time>
  <course>143.44</course>
  <speed>1.4860013458944108</speed>
  <fix>3d</fix>
</trkpt>
<trkpt lat="40.0716444" lon="-105.2292107">
  <ele>1583.0</ele>
  <time>2026-08-29T19:29:57Z</time>
  <course>136.32</course>
  <speed>1.51</speed>
  <fix>3d</fix>
</trkpt>
<trkpt lat="40.071641" lon="-105.2292073">
  <ele>1583.09</ele>
  <time>2026-08-29T19:29:57Z</time>
  <course>148.38</course>
  <speed>1.4681280598094977</speed>
  <fix>3d</fix>
</trkpt>
<trkpt lat="40.0716424" lon="-105.2292085">
  <ele>1583.0</ele>
  <time>2026-08-29T19:29:57Z</time>
  <course>142.93</course>
  <speed>1.49</speed>
  <fix>3d</fix>
</trkpt>
<trkpt lat="40.0716398" lon="-105.2292064">
  <ele>1583.09</ele>
  <time>2026-08-29T19:29:57Z</time>
  <course>153.93</course>
  <speed>1.4446106741956464</speed>
  <fix>3d</fix>
</trkpt>
<trkpt lat="40.0716424" lon="-105.2292085">
  <ele>1583.0</ele>
  <time>2026-08-29T19:29:57Z</time>
  <course>142.93</course>
  <speed>1.49</speed>
  <fix>3d</fix>
</trkpt>
<trkpt lat="40.0716387" lon="-105.2292058">
  <ele>1583.09</ele>
  <time>2026-08-29T19:29:57Z</time>
  <course>159.37</course>
  <speed>1.4080127840328722</speed>
  <fix>3d</fix>
</trkpt>
<trkpt lat="40.0716401" lon="-105.2292066">
  <ele>1583.0</ele>
  <time>2026-08-29T19:29:57Z</time>
  <course>152.78</course>
  <speed>1.45</speed>
  <fix>3d</fix>
</trkpt>
<trkpt lat="40.0716375" lon="-105.2292053">
  <ele>1583.09</ele>
  <time>2026-08-29T19:29:57Z</time>
  <course>164.87</course>
  <speed>1.3656134152826707</speed>
  <fix>3d</fix>
</trkpt>
<trkpt lat="40.0716401" lon="-105.2292066">
  <ele>1583.0</ele>
  <time>2026-08-29T19:29:57Z</time>
  <course>152.78</course>
  <speed>1.45</speed>
  <fix>3d</fix>
</trkpt>
<trkpt lat="40.0716363" lon="-105.2292049">
  <ele>1583.09</ele>
  <time>2026-08-29T19:29:57Z</time>
  <course>170.37</course>
  <speed>1.3168523075880605</speed>
  <fix>3d</fix>
</trkpt>
<trkpt lat="40.0716378" lon="-105.2292054">
  <ele>1583.0</ele>
  <time>2026-08-29T19:29:57Z</time>
  <course>163.72</course>
  <speed>1.37</speed>
  <fix>3d</fix>
</trkpt>
<trkpt lat="40.0716351" lon="-105.2292048">
  <ele>1583.1</ele>
  <time>2026-08-29T19:29:57Z</time>
  <course>175.87</course>
  <speed>1.2519584657647393</speed>
  <fix>3d</fix>
</trkpt>
<trkpt lat="40.0716378" lon="-105.2292054">
  <ele>1583.0</ele>
  <time>2026-08-29T19:29:57Z</time>
  <course>163.72</course>
  <speed>1.37</speed>
  <fix>3d</fix>
</trkpt>
<trkpt lat="40.071634" lon="-105.2292048">
  <ele>1583.1</ele>
  <time>2026-08-29T19:29:57Z</time>
  <course>181.42</course>
  <speed>1.1906720791217034</speed>
  <fix>3d</fix>
</trkpt>
<trkpt lat="40.0716354" lon="-105.2292048">
  <ele>1583.0</ele>
  <time>2026-08-29T19:29:57Z</time>
  <course>174.66</course>
  <speed>1.26</speed>
  <fix>3d</fix>
</trkpt>
<trkpt lat="40.0716329" lon="-105.2292049">
  <ele>1583.1</ele>
  <time>2026-08-29T19:29:57Z</time>
  <course>186.92</course>
  <speed>1.1399122773266372</speed>
  <fix>3d</fix>
</trkpt>
<trkpt lat="40.0716354" lon="-105.2292048">
  <ele>1583.0</ele>
  <time>2026-08-29T19:29:57Z</time>
  <course>174.66</course>
  <speed>1.26</speed>
  <fix>3d</fix>
</trkpt>
<trkpt lat="40.071632" lon="-105.2292051">
  <ele>1583.1</ele>
  <time>2026-08-29T19:29:57Z</time>
  <course>192.41</course>
  <speed>1.0988175462741756</speed>
  <fix>3d</fix>
</trkpt>
<trkpt lat="40.0716333" lon="-105.2292047">
  <ele>1583.0</ele>
  <time>2026-08-29T19:29:57Z</time>
  <course>185.67</course>
  <speed>1.16</speed>
  <fix>3d</fix>
</trkpt>
<trkpt lat="40.071631" lon="-105.2292055">
  <ele>1583.1</ele>
  <time>2026-08-29T19:29:57Z</time>
  <course>197.77</course>
  <speed>1.0656922632730332</speed>
  <fix>3d</fix>
</trkpt>
<trkpt lat="40.0716333" lon="-105.2292047">
  <ele>1583.0</ele>
  <time>2026-08-29T19:29:57Z</time>
  <course>185.67</course>
  <speed>1.16</speed>
  <fix>3d</fix>
</trkpt>
<trkpt lat="40.0716301" lon="-105.2292059">
  <ele>1583.1</ele>
  <time>2026-08-29T19:29:57Z</time>
  <course>202.3</course>
  <speed>1.0438869670610895</speed>
  <fix>3d</fix>
</trkpt>
<trkpt lat="40.0716313" lon="-105.2292052">
  <ele>1583.0</ele>
  <time>2026-08-29T19:29:57Z</time>
  <course>196.23</course>
  <speed>1.08</speed>
  <fix>3d</fix>
</trkpt>
<trkpt lat="40.0716293" lon="-105.2292064">
  <ele>1583.1</ele>
  <time>2026-08-29T19:29:57Z</time>
  <course>206.09</course>
  <speed>1.0376897416858277</speed>
  <fix>3d</fix>
</trkpt>
<trkpt lat="40.0716313" lon="-105.2292052">
  <ele>1583.0</ele>
  <time>2026-08-29T19:29:57Z</time>
  <course>196.23</course>
  <speed>1.08</speed>
  <fix>3d</fix>
</trkpt>
<trkpt lat="40.0716284" lon="-105.229207">
  <ele>1583.09</ele>
  <time>2026-08-29T19:29:57Z</time>
  <course>209.28</course>
  <speed>1.0444615837837217</speed>
  <fix>3d</fix>
</trkpt>
<trkpt lat="40.0716295" lon="-105.2292061">
  <ele>1583.0</ele>
  <time>2026-08-29T19:29:57Z</time>
  <course>204.77</course>
  <speed>1.05</speed>
  <fix>3d</fix>
</trkpt>
<trkpt lat="40.0716276" lon="-105.2292076">
  <ele>1583.09</ele>
  <time>2026-08-29T19:29:57Z</time>
  <course>211.93</course>
  <speed>1.0484750831564857</speed>
  <fix>3d</fix>
</trkpt>
<trkpt lat="40.0716295" lon="-105.2292061">
  <ele>1583.0</ele>
  <time>2026-08-29T19:29:57Z</time>
  <course>204.77</course>
  <speed>1.05</speed>
  <fix>3d</fix>
</trkpt>
<trkpt lat="40.0716269" lon="-105.2292083">
  <ele>1583.09</ele>
  <time>2026-08-29T19:29:57Z</time>
  <course>214.15</course>
  <speed>1.054371850914088</speed>
  <fix>3d</fix>
</trkpt>
<trkpt lat="40.0716295" lon="-105.2292061">
  <ele>1583.0</ele>
  <time>2026-08-29T19:29:57Z</time>
  <course>204.77</course>
  <speed>1.05</speed>
  <fix>3d</fix>
</trkpt>
<trkpt lat="40.0716261" lon="-105.229209">
  <ele>1583.09</ele>
  <time>2026-08-29T19:29:57Z</time>
  <course>216.39</course>
  <speed>1.0621205204683695</speed>
  <fix>3d</fix>
</trkpt>
<trkpt lat="40.0716278" lon="-105.2292072">
  <ele>1583.0</ele>
  <time>2026-08-29T19:29:57Z</time>
  <course>210.73</course>
  <speed>1.05</speed>
  <fix>3d</fix>
</trkpt>
<trkpt lat="40.0716253" lon="-105.2292098">
  <ele>1583.09</ele>
  <time>2026-08-29T19:29:57Z</time>
  <course>219.17</course>
  <speed>1.064048871058092</speed>
  <fix>3d</fix>
</trkpt>
<trkpt lat="40.0716278" lon="-105.2292072">
  <ele>1583.0</ele>
  <time>2026-08-29T19:29:57Z</time>
  <course>210.73</course>
  <speed>1.05</speed>
  <fix>3d</fix>
</trkpt>
<trkpt lat="40.0716246" lon="-105.2292106">
  <ele>1583.09</ele>
  <time>2026-08-29T19:29:57Z</time>
  <course>221.5</course>
  <speed>1.0756393447619885</speed>
  <fix>3d</fix>
</trkpt>
<trkpt lat="40.0716263" lon="-105.2292086">
  <ele>1583.0</ele>
  <time>2026-08-29T19:29:57Z</time>
  <course>215.7</course>
  <speed>1.06</speed>
  <fix>3d</fix>
</trkpt>
<trkpt lat="40.0716239" lon="-105.2292114">
  <ele>1583.09</ele>
  <time>2026-08-29T19:29:57Z</time>
  <course>223.54</course>
  <speed>1.0960383204979651</speed>
  <fix>3d</fix>
</trkpt>
<trkpt lat="40.0716263" lon="-105.2292086">
  <ele>1583.0</ele>
  <time>2026-08-29T19:29:57Z</time>
  <course>215.7</course>
  <speed>1.06</speed>
  <fix>3d</fix>
</trkpt>
<trkpt lat="40.0716232" lon="-105.2292123">
  <ele>1583.09</ele>
  <time>2026-08-29T19:29:57Z</time>
  <course>225.35</course>
  <speed>1.1175866856758807</speed>
  <fix>3d</fix>
</trkpt>
<trkpt lat="40.0716247" lon="-105.2292102">
  <ele>1583.0</ele>
  <time>2026-08-29T19:29:57Z</time>
  <course>220.41</course>
  <speed>1.08</speed>
  <fix>3d</fix>
</trkpt>
<trkpt lat="40.0716225" lon="-105.2292133">
  <ele>1583.09</ele>
  <time>2026-08-29T19:29:57Z</time>
  <course>226.95</course>
  <speed>1.1327841806805037</speed>
  <fix>3d</fix>
</trkpt>
<trkpt lat="40.0716233" lon="-105.2292119">
  <ele>1583.0</ele>
  <time>2026-08-29T19:29:57Z</time>
  <course>224.3</course>
  <speed>1.11</speed>
  <fix>3d</fix>
</trkpt>
<trkpt lat="40.0716218" lon="-105.2292143">
  <ele>1583.09</ele>
  <time>2026-08-29T19:29:57Z</time>
  <course>228.34</course>
  <speed>1.1627553482998907</speed>
  <fix>3d</fix>
</trkpt>
<trkpt lat="40.0716233" lon="-105.2292119">
  <ele>1583.0</ele>
  <time>2026-08-29T19:29:57Z</time>
  <course>224.3</course>
  <speed>1.11</speed>
  <fix>3d</fix>
</trkpt>
<trkpt lat="40.0716211" lon="-105.2292153">
  <ele>1583.1</ele>
  <time>2026-08-29T19:29:57Z</time>
  <course>229.56</course>
  <speed>1.1933147112141038</speed>
  <fix>3d</fix>
</trkpt>
<trkpt lat="40.0716218" lon="-105.2292138">
  <ele>1583.0</ele>
  <time>2026-08-29T19:29:57Z</time>
  <course>227.3</course>
  <speed>1.16</speed>
  <fix>3d</fix>
</trkpt>
<trkpt lat="40.0716204" lon="-105.2292164">
  <ele>1583.1</ele>
  <time>2026-08-29T19:29:57Z</time>
  <course>230.63</course>
  <speed>1.2306502346320827</speed>
  <fix>3d</fix>
</trkpt>
<trkpt lat="40.0716218" lon="-105.2292138">
  <ele>1583.0</ele>
  <time>2026-08-29T19:29:57Z</time>
  <course>227.3</course>
  <speed>1.16</speed>
  <fix>3d</fix>
</trkpt>
<trkpt lat="40.0716197" lon="-105.2292176">
  <ele>1583.1</ele>
  <time>2026-08-29T19:29:57Z</time>
  <course>231.58</course>
  <speed>1.2621014222319853</speed>
  <fix>3d</fix>
</trkpt>
<trkpt lat="40.0716204" lon="-105.229216">
  <ele>1583.0</ele>
  <time>2026-08-29T19:29:57Z</time>
  <course>229.62</course>
  <speed>1.22</speed>
  <fix>3d</fix>
</trkpt>
<trkpt lat="40.0716189" lon="-105.2292187">
  <ele>1583.11</ele>
  <time>2026-08-29T19:29:57Z</time>
  <course>232.41</course>
  <speed>1.2920139318134307</speed>
  <fix>3d</fix>
</trkpt>
<trkpt lat="40.0716204" lon="-105.229216">
  <ele>1583.0</ele>
  <time>2026-08-29T19:29:57Z</time>
  <course>229.62</course>
  <speed>1.22</speed>
  <fix>3d</fix>
</trkpt>
<trkpt lat="40.0716182" lon="-105.22922">
  <ele>1583.11</ele>
  <time>2026-08-29T19:29:57Z</time>
  <course>233.14</course>
  <speed>1.3300375934536586</speed>
  <fix>3d</fix>
</trkpt>
<trkpt lat="40.071619" lon="-105.2292183">
  <ele>1583.0</ele>
  <time>2026-08-29T19:29:57Z</time>
  <course>231.41</course>
  <speed>1.29</speed>
  <fix>3d</fix>
</trkpt>
<trkpt lat="40.0716175" lon="-105.2292212">
  <ele>1583.11</ele>
  <time>2026-08-29T19:29:57Z</time>
  <course>233.77</course>
  <speed>1.3601470508735443</speed>
  <fix>3d</fix>
</trkpt>
<trkpt lat="40.071619" lon="-105.2292183">
  <ele>1583.0</ele>
  <time>2026-08-29T19:29:57Z</time>
  <course>231.41</course>
  <speed>1.29</speed>
  <fix>3d</fix>
</trkpt>
<trkpt lat="40.0716167" lon="-105.2292226">
  <ele>1583.11</ele>
  <time>2026-08-29T19:29:57Z</time>
  <course>234.33</course>
  <speed>1.3984634424967999</speed>
  <fix>3d</fix>
</trkpt>
<trkpt lat="40.0716175" lon="-105.2292207">
  <ele>1583.0</ele>
  <time>2026-08-29T19:29:57Z</time>
  <course>232.78</course>
  <speed>1.35</speed>
  <fix>3d</fix>
</trkpt>
<trkpt lat="40.071616" lon="-105.2292239">
  <ele>1583.11</ele>
  <time>2026-08-29T19:29:57Z</time>
  <course>234.8</course>
  <speed>1.4287407042567242</speed>
  <fix>3d</fix>
</trkpt>
<trkpt lat="40.0716175" lon="-105.2292207">
  <ele>1583.0</ele>
  <time>2026-08-29T19:29:57Z</time>
  <course>232.78</course>
  <speed>1.35</speed>
  <fix>3d</fix>
</trkpt>
<trkpt lat="40.0716152" lon="-105.2292253">
  <ele>1583.11</ele>
  <time>2026-08-29T19:29:57Z</time>
  <course>235.21</course>
  <speed>1.4590750494748377</speed>
  <fix>3d</fix>
</trkpt>
<trkpt lat="40.071616" lon="-105.2292233">
  <ele>1583.0</ele>
  <time>2026-08-29T19:29:57Z</time>
  <course>233.82</course>
  <speed>1.41</speed>
  <fix>3d</fix>
</trkpt>
<trkpt lat="40.0716144" lon="-105.2292267">
  <ele>1583.11</ele>
  <time>2026-08-29T19:29:57Z</time>
  <course>235.56</course>
  <speed>1.481215716902842</speed>
  <fix>3d</fix>
</trkpt>
<trkpt lat="40.071616" lon="-105.2292233">
  <ele>1583.0</ele>
  <time>2026-08-29T19:29:57Z</time>
  <course>233.82</course>
  <speed>1.41</speed>
  <fix>3d</fix>
</trkpt>
<trkpt lat="40.0716136" lon="-105.2292281">
  <ele>1583.11</ele>
  <time>2026-08-29T19:29:57Z</time>
  <course>235.85</course>
  <speed>1.5116216457830973</speed>
  <fix>3d</fix>
</trkpt>
<trkpt lat="40.0716145" lon="-105.229226">
  <ele>1583.0</ele>
  <time>2026-08-29T19:29:57Z</time>
  <course>234.58</course>
  <speed>1.47</speed>
  <fix>3d</fix>
</trkpt>
<trkpt lat="40.0716129" lon="-105.2292296">
  <ele>1583.11</ele>
  <time>2026-08-29T19:29:57Z</time>
  <course>236.09</course>
  <speed>1.5337861650177969</speed>
  <fix>3d</fix>
</trkpt>
<trkpt lat="40.0716145" lon="-105.229226">
  <ele>1583.0</ele>
  <time>2026-08-29T19:29:57Z</time>
  <course>234.58</course>
  <speed>1.47</speed>
  <fix>3d</fix>
</trkpt>
<trkpt lat="40.0716121" lon="-105.2292311">
  <ele>1583.11</ele>
  <time>2026-08-29T19:29:57Z</time>
  <course>236.3</course>
  <speed>1.5642570121306791</speed>
  <fix>3d</fix>
</trkpt>
<trkpt lat="40.0716145" lon="-105.229226">
  <ele>1583.0</ele>
  <time>2026-08-29T19:29:57Z</time>
  <course>234.58</course>
  <speed>1.47</speed>
  <fix>3d</fix>
</trkpt>
<trkpt lat="40.0716113" lon="-105.2292326">
  <ele>1583.11</ele>
  <time>2026-08-29T19:29:57Z</time>
  <course>236.46</course>
  <speed>1.578131806916013</speed>
  <fix>3d</fix>
</trkpt>
<trkpt lat="40.071613" lon="-105.2292289">
  <ele>1583.0</ele>
  <time>2026-08-29T19:29:57Z</time>
  <course>235.12</course>
  <speed>1.52</speed>
  <fix>3d</fix>
</trkpt>
<trkpt lat="40.0716105" lon="-105.2292341">
  <ele>1583.11</ele>
  <time>2026-08-29T19:29:57Z</time>
  <course>236.58</course>
  <speed>1.6003124694883808</speed>
  <fix>3d</fix>
</trkpt>
<trkpt lat="40.071613" lon="-105.2292289">
  <ele>1583.0</ele>
  <time>2026-08-29T19:29:57Z</time>
  <course>235.12</course>
  <speed>1.52</speed>
  <fix>3d</fix>
</trkpt>
<trkpt lat="40.0716096" lon="-105.2292357">
  <ele>1583.11</ele>
  <time>2026-08-29T19:29:57Z</time>
  <course>236.68</course>
  <speed>1.622498073958795</speed>
  <fix>3d</fix>
</trkpt>
<trkpt lat="40.0716113" lon="-105.2292319">
  <ele>1583.0</ele>
  <time>2026-08-29T19:29:57Z</time>
  <course>235.49</course>
  <speed>1.56</speed>
  <fix>3d</fix>
</trkpt>
<trkpt lat="40.0716088" lon="-105.2292372">
  <ele>1583.11</ele>
  <time>2026-08-29T19:29:57Z</time>
  <course>236.74</course>
  <speed>1.630828010551695</speed>
  <fix>3d</fix>
</trkpt>
<trkpt lat="40.0716113" lon="-105.2292319">
  <ele>1583.0</ele>
  <time>2026-08-29T19:29:57Z</time>
  <course>235.49</course>
  <speed>1.56</speed>
  <fix>3d</fix>
</trkpt>
<trkpt lat="40.071608" lon="-105.2292388">
  <ele>1583.11</ele>
  <time>2026-08-29T19:29:57Z</time>
  <course>236.77</course>
  <speed>1.6446884203398529</speed>
  <fix>3d</fix>
</trkpt>
<trkpt lat="40.0716098" lon="-105.229235">
  <ele>1583.0</ele>
  <time>2026-08-29T19:29:57Z</time>
  <course>235.71</course>
  <speed>1.6</speed>
  <fix>3d</fix>
</trkpt>
<trkpt lat="40.0716072" lon="-105.2292404">
  <ele>1583.11</ele>
  <time>2026-08-29T19:29:57Z</time>
  <course>236.79</course>
  <speed>1.6668833192518306</speed>
  <fix>3d</fix>
</trkpt>
<trkpt lat="40.0716081" lon="-105.2292382">
  <ele>1583.0</ele>
  <time>2026-08-29T19:29:57Z</time>
  <course>235.81</course>
  <speed>1.64</speed>
  <fix>3d</fix>
</trkpt>
<trkpt lat="40.0716063" lon="-105.229242">
  <ele>1583.12</ele>
  <time>2026-08-29T19:29:57Z</time>
  <course>236.79</course>
  <speed>1.6807438829280326</speed>
  <fix>3d</fix>
</trkpt>
<trkpt lat="40.0716081" lon="-105.2292382">
  <ele>1583.0</ele>
  <time>2026-08-29T19:29:57Z</time>
  <course>235.81</course>
  <speed>1.64</speed>
  <fix>3d</fix>
</trkpt>
<trkpt lat="40.0716055" lon="-105.2292436">
  <ele>1583.11</ele>
  <time>2026-08-29T19:29:57Z</time>
  <course>236.78</course>
  <speed>1.6862977198585072</speed>
  <fix>3d</fix>
</trkpt>
<trkpt lat="40.0716064" lon="-105.2292414">
  <ele>1583.0</ele>
  <time>2026-08-29T19:29:57Z</time>
  <course>235.83</course>
  <speed>1.66</speed>
  <fix>3d</fix>
</trkpt>
<trkpt lat="40.0716046" lon="-105.2292453">
  <ele>1583.11</ele>
  <time>2026-08-29T19:29:57Z</time>
  <course>236.74</course>
  <speed>1.7001764614298127</speed>
  <fix>3d</fix>
</trkpt>
<trkpt lat="40.0716064" lon="-105.2292414">
  <ele>1583.0</ele>
  <time>2026-08-29T19:29:57Z</time>
  <course>235.83</course>
  <speed>1.66</speed>
  <fix>3d</fix>
</trkpt>
<trkpt lat="40.0716037" lon="-105.2292469">
  <ele>1583.11</ele>
  <time>2026-08-29T19:29:57Z</time>
  <course>236.7</course>
  <speed>1.7084788555905512</speed>
  <fix>3d</fix>
</trkpt>
<trkpt lat="40.0716047" lon="-105.2292446">
  <ele>1583.0</ele>
  <time>2026-08-29T19:29:57Z</time>
  <course>235.79</course>
  <speed>1.69</speed>
  <fix>3d</fix>
</trkpt>
<trkpt lat="40.0716029" lon="-105.2292486">
  <ele>1583.11</ele>
  <time>2026-08-29T19:29:57Z</time>
  <course>236.63</course>
  <speed>1.7223530416264836</speed>
  <fix>3d</fix>
</trkpt>
<trkpt lat="40.0716047" lon="-105.2292446">
  <ele>1583.0</ele>
  <time>2026-08-29T19:29:57Z</time>
  <course>235.79</course>
  <speed>1.69</speed>
  <fix>3d</fix>
</trkpt>
<trkpt lat="40.071602" lon="-105.2292503">
  <ele>1583.11</ele>
  <time>2026-08-29T19:29:57Z</time>
  <course>236.55</course>
  <speed>1.727946758439044</speed>
  <fix>3d</fix>
</trkpt>
<trkpt lat="40.071603" lon="-105.2292479">
  <ele>1583.0</ele>
  <time>2026-08-29T19:29:57Z</time>
  <course>235.67</course>
  <speed>1.71</speed>
  <fix>3d</fix>
</trkpt>
<trkpt lat="40.0716011" lon="-105.2292519">
  <ele>1583.11</ele>
  <time>2026-08-29T19:29:57Z</time>
  <course>236.45</course>
  <speed>1.727946758439044</speed>
  <fix>3d</fix>
</trkpt>
<trkpt lat="40.071603" lon="-105.2292479">
  <ele>1583.0</ele>
  <time>2026-08-29T19:29:57Z</time>
  <course>235.67</course>
  <speed>1.71</speed>
  <fix>3d</fix>
</trkpt>
<trkpt lat="40.0716002" lon="-105.2292536">
  <ele>1583.11</ele>
  <time>2026-08-29T19:29:57Z</time>
  <course>236.35</course>
  <speed>1.7418381095842403</speed>
  <fix>3d</fix>
</trkpt>
<trkpt lat="40.0716013" lon="-105.2292512">
  <ele>1583.0</ele>
  <time>2026-08-29T19:29:57Z</time>
  <course>235.5</course>
  <speed>1.72</speed>
  <fix>3d</fix>
</trkpt>
<trkpt lat="40.0715993" lon="-105.2292553">
  <ele>1583.11</ele>
  <time>2026-08-29T19:29:57Z</time>
  <course>236.23</course>
  <speed>1.747483905505284</speed>
  <fix>3d</fix>
</trkpt>
<trkpt lat="40.0716013" lon="-105.2292512">
  <ele>1583.0</ele>
  <time>2026-08-29T19:29:57Z</time>
  <course>235.5</course>
  <speed>1.72</speed>
  <fix>3d</fix>
</trkpt>
<trkpt lat="40.0715984" lon="-105.229257">
  <ele>1583.11</ele>
  <time>2026-08-29T19:29:57Z</time>
  <course>236.11</course>
  <speed>1.747483905505284</speed>
  <fix>3d</fix>
</trkpt>
<trkpt lat="40.0715995" lon="-105.2292546">
  <ele>1583.0</ele>
  <time>2026-08-29T19:29:57Z</time>
  <course>235.29</course>
  <speed>1.73</speed>
  <fix>3d</fix>
</trkpt>
<trkpt lat="40.0715975" lon="-105.2292587">
  <ele>1583.11</ele>
  <time>2026-08-29T19:29:57Z</time>
  <course>235.97</course>
  <speed>1.75316856006489</speed>
  <fix>3d</fix>
</trkpt>
<trkpt lat="40.0715995" lon="-105.2292546">
  <ele>1583.0</ele>
  <time>2026-08-29T19:29:57Z</time>
  <course>235.29</course>
  <speed>1.73</speed>
  <fix>3d</fix>
</trkpt>
<trkpt lat="40.0715966" lon="-105.2292603">
  <ele>1583.11</ele>
  <time>2026-08-29T19:29:57Z</time>
  <course>235.83</course>
  <speed>1.75316856006489</speed>
  <fix>3d</fix>
</trkpt>
<trkpt lat="40.0715977" lon="-105.2292579">
  <ele>1583.0</ele>
  <time>2026-08-29T19:29:57Z</time>
  <course>235.03</course>
  <speed>1.74</speed>
  <fix>3d</fix>
</trkpt>
<trkpt lat="40.0715956" lon="-105.229262">
  <ele>1583.11</ele>
  <time>2026-08-29T19:29:57Z</time>
  <course>235.69</course>
  <speed>1.7588916964952674</speed>
  <fix>3d</fix>
</trkpt>
<trkpt lat="40.0715977" lon="-105.2292579">
  <ele>1583.0</ele>
  <time>2026-08-29T19:29:57Z</time>
  <course>235.03</course>
  <speed>1.74</speed>
  <fix>3d</fix>
</trkpt>
<trkpt lat="40.0715947" lon="-105.2292637">
  <ele>1583.12</ele>
  <time>2026-08-29T19:29:57Z</time>
  <course>235.54</course>
  <speed>1.7588916964952674</speed>
  <fix>3d</fix>
</trkpt>
<trkpt lat="40.0715977" lon="-105.2292579">
  <ele>1583.0</ele>
  <time>2026-08-29T19:29:57Z</time>
  <course>235.03</course>
  <speed>1.74</speed>
  <fix>3d</fix>
</trkpt>
<trkpt lat="40.0715938" lon="-105.2292654">
  <ele>1583.12</ele>
  <time>2026-08-29T19:29:57Z</time>
  <course>235.39</course>
  <speed>1.7565022060902742</speed>
  <fix>3d</fix>
</trkpt>
<trkpt lat="40.0715959" lon="-105.2292614">
  <ele>1583.0</ele>
  <time>2026-08-29T19:29:57Z</time>
  <course>234.75</course>
  <speed>1.75</speed>
  <fix>3d</fix>
</trkpt>
<trkpt lat="40.0715929" lon="-105.229267">
  <ele>1583.13</ele>
  <time>2026-08-29T19:29:57Z</time>
  <course>235.22</course>
  <speed>1.7565022060902742</speed>
  <fix>3d</fix>
</trkpt>
<trkpt lat="40.0715959" lon="-105.2292614">
  <ele>1583.0</ele>
  <time>2026-08-29T19:29:57Z</time>
  <course>234.75</course>
  <speed>1.75</speed>
  <fix>3d</fix>
</trkpt>
<trkpt lat="40.071592" lon="-105.2292687">
  <ele>1583.13</ele>
  <time>2026-08-29T19:29:57Z</time>
  <course>235.05</course>
  <speed>1.7623280057923383</speed>
  <fix>3d</fix>
</trkpt>
<trkpt lat="40.0715941" lon="-105.2292647">
  <ele>1583.0</ele>
  <time>2026-08-29T19:29:57Z</time>
  <course>234.44</course>
  <speed>1.75</speed>
  <fix>3d</fix>
</trkpt>
<trkpt lat="40.0715911" lon="-105.2292703">
  <ele>1583.13</ele>
  <time>2026-08-29T19:29:57Z</time>
  <course>234.88</course>
  <speed>1.754223474931287</speed>
  <fix>3d</fix>
</trkpt>
<trkpt lat="40.0715941" lon="-105.2292647">
  <ele>1583.0</ele>
  <time>2026-08-29T19:29:57Z</time>
  <course>234.44</course>
  <speed>1.75</speed>
  <fix>3d</fix>
</trkpt>
<trkpt lat="40.0715901" lon="-105.229272">
  <ele>1583.12</ele>
  <time>2026-08-29T19:29:57Z</time>
  <course>234.71</course>
  <speed>1.754223474931287</speed>
  <fix>3d</fix>
</trkpt>
<trkpt lat="40.0715922" lon="-105.229268">
  <ele>1583.0</ele>
  <time>2026-08-29T19:29:57Z</time>
  <course>234.12</course>
  <speed>1.75</speed>
  <fix>3d</fix>
</trkpt>
<trkpt lat="40.0715892" lon="-105.2292736">
  <ele>1583.12</ele>
  <time>2026-08-29T19:29:57Z</time>
  <course>234.55</course>
  <speed>1.752055935180153</speed>
  <fix>3d</fix>
</trkpt>
<trkpt lat="40.0715922" lon="-105.229268">
  <ele>1583.0</ele>
  <time>2026-08-29T19:29:57Z</time>
  <course>234.12</course>
  <speed>1.75</speed>
  <fix>3d</fix>
</trkpt>
<trkpt lat="40.0715883" lon="-105.2292752">
  <ele>1583.12</ele>
  <time>2026-08-29T19:29:57Z</time>
  <course>234.38</course>
  <speed>1.752055935180153</speed>
  <fix>3d</fix>
</trkpt>
<trkpt lat="40.0715904" lon="-105.2292713">
  <ele>1583.0</ele>
  <time>2026-08-29T19:29:57Z</time>
  <course>233.78</course>
  <speed>1.75</speed>
  <fix>3d</fix>
</trkpt>
<trkpt lat="40.0715873" lon="-105.2292769">
  <ele>1583.11</ele>
  <time>2026-08-29T19:29:57Z</time>
  <course>234.22</course>
  <speed>1.744018348527331</speed>
  <fix>3d</fix>
</trkpt>
<trkpt lat="40.0715885" lon="-105.2292747">
  <ele>1583.0</ele>
  <time>2026-08-29T19:29:57Z</time>
  <course>233.46</course>
  <speed>1.75</speed>
  <fix>3d</fix>
</trkpt>
<trkpt lat="40.0715864" lon="-105.2292785">
  <ele>1583.11</ele>
  <time>2026-08-29T19:29:57Z</time>
  <course>234.08</course>
  <speed>1.744018348527331</speed>
  <fix>3d</fix>
</trkpt>
<trkpt lat="40.0715885" lon="-105.2292747">
  <ele>1583.0</ele>
  <time>2026-08-29T19:29:57Z</time>
  <course>233.46</course>
  <speed>1.75</speed>
  <fix>3d</fix>
</trkpt>
<trkpt lat="40.0715855" lon="-105.2292801">
  <ele>1583.11</ele>
  <time>2026-08-29T19:29:57Z</time>
  <course>233.94</course>
  <speed>1.7360011520733505</speed>
  <fix>3d</fix>
</trkpt>
<trkpt lat="40.0715866" lon="-105.229278">
  <ele>1583.0</ele>
  <time>2026-08-29T19:29:57Z</time>
  <course>233.15</course>
  <speed>1.75</speed>
  <fix>3d</fix>
</trkpt>
<trkpt lat="40.0715845" lon="-105.2292818">
  <ele>1583.11</ele>
  <time>2026-08-29T19:29:57Z</time>
  <course>233.8</course>
  <speed>1.7420103329199859</speed>
  <fix>3d</fix>
</trkpt>
<trkpt lat="40.0715866" lon="-105.229278">
  <ele>1583.0</ele>
  <time>2026-08-29T19:29:57Z</time>
  <course>233.15</course>
  <speed>1.75</speed>
  <fix>3d</fix>
</trkpt>
<trkpt lat="40.0715836" lon="-105.2292834">
  <ele>1583.1</ele>
  <time>2026-08-29T19:29:57Z</time>
  <course>233.68</course>
  <speed>1.7340415219942111</speed>
  <fix>3d</fix>
</trkpt>
<trkpt lat="40.0715847" lon="-105.2292813">
  <ele>1583.0</ele>
  <time>2026-08-29T19:29:57Z</time>
  <course>232.88</course>
  <speed>1.75</speed>
  <fix>3d</fix>
</trkpt>
<trkpt lat="40.0715826" lon="-105.229285">
  <ele>1583.1</ele>
  <time>2026-08-29T19:29:57Z</time>
  <course>233.57</course>
  <speed>1.7340415219942111</speed>
  <fix>3d</fix>
</trkpt>
<trkpt lat="40.0715847" lon="-105.2292813">
  <ele>1583.0</ele>
  <time>2026-08-29T19:29:57Z</time>
  <course>232.88</course>
  <speed>1.75</speed>
  <fix>3d</fix>
</trkpt>
<trkpt lat="40.0715817" lon="-105.2292867">
  <ele>1583.1</ele>
  <time>2026-08-29T19:29:57Z</time>
  <course>233.45</course>
  <speed>1.7340415219942111</speed>
  <fix>3d</fix>
</trkpt>
<trkpt lat="40.0715828" lon="-105.2292846">
  <ele>1583.0</ele>
  <time>2026-08-29T19:29:57Z</time>
  <course>232.64</course>
  <speed>1.74</speed>
  <fix>3d</fix>
</trkpt>
<trkpt lat="40.0715807" lon="-105.2292883">
  <ele>1583.1</ele>
  <time>2026-08-29T19:29:57Z</time>
  <course>233.33</course>
  <speed>1.7260938560808332</speed>
  <fix>3d</fix>
</trkpt>
<trkpt lat="40.0715828" lon="-105.2292846">
  <ele>1583.0</ele>
  <time>2026-08-29T19:29:57Z</time>
  <course>232.64</course>
  <speed>1.74</speed>
  <fix>3d</fix>
</trkpt>
<trkpt lat="40.0715797" lon="-105.2292899">
  <ele>1583.1</ele>
  <time>2026-08-29T19:29:57Z</time>
  <course>233.23</course>
  <speed>1.7260938560808332</speed>
  <fix>3d</fix>
</trkpt>
<trkpt lat="40.0715809" lon="-105.2292878">
  <ele>1583.0</ele>
  <time>2026-08-29T19:29:57Z</time>
  <course>232.41</course>
  <speed>1.74</speed>
  <fix>3d</fix>
</trkpt>
<trkpt lat="40.0715788" lon="-105.2292915">
  <ele>1583.1</ele>
  <time>2026-08-29T19:29:57Z</time>
  <course>233.13</course>
  <speed>1.7260938560808332</speed>
  <fix>3d</fix>
</trkpt>
<trkpt lat="40.0715809" lon="-105.2292878">
  <ele>1583.0</ele>
  <time>2026-08-29T19:29:57Z</time>
  <course>232.41</course>
  <speed>1.74</speed>
  <fix>3d</fix>
</trkpt>
<trkpt lat="40.0715778" lon="-105.2292932">
  <ele>1583.1</ele>
  <time>2026-08-29T19:29:57Z</time>
  <course>233.04</course>
  <speed>1.7181676286090366</speed>
  <fix>3d</fix>
</trkpt>
<trkpt lat="40.071579" lon="-105.2292911">
  <ele>1583.0</ele>
  <time>2026-08-29T19:29:57Z</time>
  <course>232.2</course>
  <speed>1.73</speed>
  <fix>3d</fix>
</trkpt>
<trkpt lat="40.0715768" lon="-105.2292948">
  <ele>1583.1</ele>
  <time>2026-08-29T19:29:57Z</time>
  <course>232.95</course>
  <speed>1.7181676286090366</speed>
  <fix>3d</fix>
</trkpt>
<trkpt lat="40.071579" lon="-105.2292911">
  <ele>1583.0</ele>
  <time>2026-08-29T19:29:57Z</time>
  <course>232.2</course>
  <speed>1.73</speed>
  <fix>3d</fix>
</trkpt>
<trkpt lat="40.0715759" lon="-105.2292964">
  <ele>1583.1</ele>
  <time>2026-08-29T19:29:57Z</time>
  <course>232.85</course>
  <speed>1.7181676286090366</speed>
  <fix>3d</fix>
</trkpt>
<trkpt lat="40.0715771" lon="-105.2292942">
  <ele>1583.0</ele>
  <time>2026-08-29T19:29:57Z</time>
  <course>232.01</course>
  <speed>1.73</speed>
  <fix>3d</fix>
</trkpt>
<trkpt lat="40.0715749" lon="-105.229298">
  <ele>1583.1</ele>
  <time>2026-08-29T19:29:57Z</time>
  <course>232.76</course>
  <speed>1.710263137648707</speed>
  <fix>3d</fix>
</trkpt>
<trkpt lat="40.0715771" lon="-105.2292942">
  <ele>1583.0</ele>
  <time>2026-08-29T19:29:57Z</time>
  <course>232.01</course>
  <speed>1.73</speed>
  <fix>3d</fix>
</trkpt>
<trkpt lat="40.071574" lon="-105.2292996">
  <ele>1583.1</ele>
  <time>2026-08-29T19:29:57Z</time>
  <course>232.69</course>
  <speed>1.710263137648707</speed>
  <fix>3d</fix>
</trkpt>
<trkpt lat="40.0715771" lon="-105.2292942">
  <ele>1583.0</ele>
  <time>2026-08-29T19:29:57Z</time>
  <course>232.01</course>
  <speed>1.73</speed>
  <fix>3d</fix>
</trkpt>
<trkpt lat="40.071573" lon="-105.2293012">
  <ele>1583.09</ele>
  <time>2026-08-29T19:29:57Z</time>
  <course>232.61</course>
  <speed>1.710263137648707</speed>
  <fix>3d</fix>
</trkpt>
<trkpt lat="40.0715752" lon="-105.2292975">
  <ele>1583.0</ele>
  <time>2026-08-29T19:29:57Z</time>
  <course>231.83</course>
  <speed>1.72</speed>
  <fix>3d</fix>
</trkpt>
<trkpt lat="40.0715721" lon="-105.2293027">
  <ele>1583.09</ele>
  <time>2026-08-29T19:29:57Z</time>
  <course>232.54</course>
  <speed>1.7023806859806652</speed>
  <fix>3d</fix>
</trkpt>
<trkpt lat="40.0715752" lon="-105.2292975">
  <ele>1583.0</ele>
  <time>2026-08-29T19:29:57Z</time>
  <course>231.83</course>
  <speed>1.72</speed>
  <fix>3d</fix>
</trkpt>
<trkpt lat="40.0715711" lon="-105.2293043">
  <ele>1583.09</ele>
  <time>2026-08-29T19:29:57Z</time>
  <course>232.47</course>
  <speed>1.7023806859806652</speed>
  <fix>3d</fix>
</trkpt>
<trkpt lat="40.0715733" lon="-105.2293007">
  <ele>1583.0</ele>
  <time>2026-08-29T19:29:57Z</time>
  <course>231.68</course>
  <speed>1.72</speed>
  <fix>3d</fix>
</trkpt>
<trkpt lat="40.0715702" lon="-105.2293059">
  <ele>1583.09</ele>
  <time>2026-08-29T19:29:57Z</time>
  <course>232.4</course>
  <speed>1.6945205811674284</speed>
  <fix>3d</fix>
</trkpt>
<trkpt lat="40.0715733" lon="-105.2293007">
  <ele>1583.0</ele>
  <time>2026-08-29T19:29:57Z</time>
  <course>231.68</course>
  <speed>1.72</speed>
  <fix>3d</fix>
</trkpt>
<trkpt lat="40.0715692" lon="-105.2293074">
  <ele>1583.1</ele>
  <time>2026-08-29T19:29:57Z</time>
  <course>232.33</course>
  <speed>1.6945205811674284</speed>
  <fix>3d</fix>
</trkpt>
<trkpt lat="40.0715713" lon="-105.2293038">
  <ele>1583.0</ele>
  <time>2026-08-29T19:29:57Z</time>
  <course>231.53</course>
  <speed>1.72</speed>
  <fix>3d</fix>
</trkpt>
<trkpt lat="40.0715683" lon="-105.229309">
  <ele>1583.1</ele>
  <time>2026-08-29T19:29:57Z</time>
  <course>232.26</course>
  <speed>1.6945205811674284</speed>
  <fix>3d</fix>
</trkpt>
<trkpt lat="40.0715694" lon="-105.229307">
  <ele>1583.0</ele>
  <time>2026-08-29T19:29:57Z</time>
  <course>231.4</course>
  <speed>1.71</speed>
  <fix>3d</fix>
</trkpt>
<trkpt lat="40.0715673" lon="-105.2293105">
  <ele>1583.1</ele>
  <time>2026-08-29T19:29:57Z</time>
  <course>232.21</course>
  <speed>1.6804761230080003</speed>
  <fix>3d</fix>
</trkpt>
<trkpt lat="40.0715694" lon="-105.229307">
  <ele>1583.0</ele>
  <time>2026-08-29T19:29:57Z</time>
  <course>231.4</course>
  <speed>1.71</speed>
  <fix>3d</fix>
</trkpt>
<trkpt lat="40.0715664" lon="-105.2293121">
  <ele>1583.11</ele>
  <time>2026-08-29T19:29:57Z</time>
  <course>232.16</course>
  <speed>1.6804761230080003</speed>
  <fix>3d</fix>
</trkpt>
<trkpt lat="40.0715675" lon="-105.2293101">
  <ele>1583.0</ele>
  <time>2026-08-29T19:29:57Z</time>
  <course>231.28</course>
  <speed>1.71</speed>
  <fix>3d</fix>
</trkpt>
<trkpt lat="40.0715654" lon="-105.2293137">
  <ele>1583.11</ele>
  <time>2026-08-29T19:29:57Z</time>
  <course>232.12</course>
  <speed>1.6804761230080003</speed>
  <fix>3d</fix>
</trkpt>
<trkpt lat="40.0715675" lon="-105.2293101">
  <ele>1583.0</ele>
  <time>2026-08-29T19:29:57Z</time>
  <course>231.28</course>
  <speed>1.71</speed>
  <fix>3d</fix>
</trkpt>
<trkpt lat="40.0715645" lon="-105.2293152">
  <ele>1583.11</ele>
  <time>2026-08-29T19:29:57Z</time>
  <course>232.07</course>
  <speed>1.6804761230080003</speed>
  <fix>3d</fix>
</trkpt>
<trkpt lat="40.0715656" lon="-105.2293132">
  <ele>1583.0</ele>
  <time>2026-08-29T19:29:57Z</time>
  <course>231.18</course>
  <speed>1.7</speed>
  <fix>3d</fix>
</trkpt>
<trkpt lat="40.0715635" lon="-105.2293168">
  <ele>1583.12</ele>
  <time>2026-08-29T19:29:57Z</time>
  <course>232.03</course>
  <speed>1.6804761230080003</speed>
  <fix>3d</fix>
</trkpt>
<trkpt lat="40.0715656" lon="-105.2293132">
  <ele>1583.0</ele>
  <time>2026-08-29T19:29:57Z</time>
  <course>231.18</course>
  <speed>1.7</speed>
  <fix>3d</fix>
</trkpt>
<trkpt lat="40.0715626" lon="-105.2293183">
  <ele>1583.12</ele>
  <time>2026-08-29T19:29:57Z</time>
  <course>231.99</course>
  <speed>1.6726326554267679</speed>
  <fix>3d</fix>
</trkpt>
<trkpt lat="40.0715636" lon="-105.2293163">
  <ele>1583.0</ele>
  <time>2026-08-29T19:29:57Z</time>
  <course>231.09</course>
  <speed>1.7</speed>
  <fix>3d</fix>
</trkpt>
<trkpt lat="40.0715616" lon="-105.2293199">
  <ele>1583.12</ele>
  <time>2026-08-29T19:29:57Z</time>
  <course>231.94</course>
  <speed>1.6726326554267679</speed>
  <fix>3d</fix>
</trkpt>
<trkpt lat="40.0715636" lon="-105.2293163">
  <ele>1583.0</ele>
  <time>2026-08-29T19:29:57Z</time>
  <course>231.09</course>
  <speed>1.7</speed>
  <fix>3d</fix>
</trkpt>
<trkpt lat="40.0715606" lon="-105.2293215">
  <ele>1583.12</ele>
  <time>2026-08-29T19:29:57Z</time>
  <course>231.9</course>
  <speed>1.6726326554267679</speed>
  <fix>3d</fix>
</trkpt>
<trkpt lat="40.0715617" lon="-105.2293195">
  <ele>1583.0</ele>
  <time>2026-08-29T19:29:57Z</time>
  <course>231.0</course>
  <speed>1.7</speed>
  <fix>3d</fix>
</trkpt>
<trkpt lat="40.0715597" lon="-105.229323">
  <ele>1583.12</ele>
  <time>2026-08-29T19:29:57Z</time>
  <course>231.85</course>
  <speed>1.6726326554267679</speed>
  <fix>3d</fix>
</trkpt>
<trkpt lat="40.0715617" lon="-105.2293195">
  <ele>1583.0</ele>
  <time>2026-08-29T19:29:57Z</time>
  <course>231.0</course>
  <speed>1.7</speed>
  <fix>3d</fix>
</trkpt>
<trkpt lat="40.0715587" lon="-105.2293246">
  <ele>1583.12</ele>
  <time>2026-08-29T19:29:57Z</time>
  <course>231.81</course>
  <speed>1.6726326554267679</speed>
  <fix>3d</fix>
</trkpt>
<trkpt lat="40.0715598" lon="-105.2293226">
  <ele>1583.0</ele>
  <time>2026-08-29T19:29:57Z</time>
  <course>230.9</course>
  <speed>1.69</speed>
  <fix>3d</fix>
</trkpt>
<trkpt lat="40.0715578" lon="-105.2293261">
  <ele>1583.12</ele>
  <time>2026-08-29T19:29:57Z</time>
  <course>231.76</course>
  <speed>1.6726326554267679</speed>
  <fix>3d</fix>
</trkpt>
<trkpt lat="40.0715598" lon="-105.2293226">
  <ele>1583.0</ele>
  <time>2026-08-29T19:29:57Z</time>
  <course>230.9</course>
  <speed>1.69</speed>
  <fix>3d</fix>
</trkpt>
<trkpt lat="40.0715568" lon="-105.2293277">
  <ele>1583.12</ele>
  <time>2026-08-29T19:29:57Z</time>
  <course>231.72</course>
  <speed>1.6648123017325407</speed>
  <fix>3d</fix>
</trkpt>
<trkpt lat="40.0715579" lon="-105.2293257">
  <ele>1583.0</ele>
  <time>2026-08-29T19:29:57Z</time>
  <course>230.81</course>
  <speed>1.69</speed>
  <fix>3d</fix>
</trkpt>
<trkpt lat="40.0715558" lon="-105.2293292">
  <ele>1583.12</ele>
  <time>2026-08-29T19:29:57Z</time>
  <course>231.67</course>
  <speed>1.6648123017325407</speed>
  <fix>3d</fix>
</trkpt>
<trkpt lat="40.0715579" lon="-105.2293257">
  <ele>1583.0</ele>
  <time>2026-08-29T19:29:57Z</time>
  <course>230.81</course>
  <speed>1.69</speed>
  <fix>3d</fix>
</trkpt>
<trkpt lat="40.0715549" lon="-105.2293308">
  <ele>1583.12</ele>
  <time>2026-08-29T19:29:57Z</time>
  <course>231.63</course>
  <speed>1.6648123017325407</speed>
  <fix>3d</fix>
</trkpt>
<trkpt lat="40.0715579" lon="-105.2293257">
  <ele>1583.0</ele>
  <time>2026-08-29T19:29:57Z</time>
  <course>230.81</course>
  <speed>1.69</speed>
  <fix>3d</fix>
</trkpt>
<trkpt lat="40.0715539" lon="-105.2293323">
  <ele>1583.12</ele>
  <time>2026-08-29T19:29:57Z</time>
  <course>231.61</course>
  <speed>1.6648123017325407</speed>
  <fix>3d</fix>
</trkpt>
<trkpt lat="40.0715559" lon="-105.2293287">
  <ele>1583.0</ele>
  <time>2026-08-29T19:29:57Z</time>
  <course>230.72</course>
  <speed>1.69</speed>
  <fix>3d</fix>
</trkpt>
<trkpt lat="40.071553" lon="-105.2293338">
  <ele>1583.11</ele>
  <time>2026-08-29T19:29:57Z</time>
  <course>231.59</course>
  <speed>1.6585837331892532</speed>
  <fix>3d</fix>
</trkpt>
<trkpt lat="40.0715559" lon="-105.2293287">
  <ele>1583.0</ele>
  <time>2026-08-29T19:29:57Z</time>
  <course>230.72</course>
  <speed>1.69</speed>
  <fix>3d</fix>
</trkpt>
<trkpt lat="40.071552" lon="-105.2293353">
  <ele>1583.11</ele>
  <time>2026-08-29T19:29:57Z</time>
  <course>231.56</course>
  <speed>1.6585837331892532</speed>
  <fix>3d</fix>
</trkpt>
<trkpt lat="40.071554" lon="-105.2293318">
  <ele>1583.0</ele>
  <time>2026-08-29T19:29:57Z</time>
  <course>230.66</course>
  <speed>1.69</speed>
  <fix>3d</fix>
</trkpt>
<trkpt lat="40.0715511" lon="-105.2293368">
  <ele>1583.11</ele>
  <time>2026-08-29T19:29:57Z</time>
  <course>231.54</course>
  <speed>1.6507574019219178</speed>
  <fix>3d</fix>
</trkpt>
<trkpt lat="40.071554" lon="-105.2293318">
  <ele>1583.0</ele>
  <time>2026-08-29T19:29:57Z</time>
  <course>230.66</course>
  <speed>1.69</speed>
  <fix>3d</fix>
</trkpt>
<trkpt lat="40.0715501" lon="-105.2293383">
  <ele>1583.11</ele>
  <time>2026-08-29T19:29:57Z</time>
  <course>231.52</course>
  <speed>1.6507574019219178</speed>
  <fix>3d</fix>
</trkpt>
<trkpt lat="40.0715521" lon="-105.2293349">
  <ele>1583.0</ele>
  <time>2026-08-29T19:29:57Z</time>
  <course>230.61</course>
  <speed>1.68</speed>
  <fix>3d</fix>
</trkpt>
<trkpt lat="40.0715492" lon="-105.2293399">
  <ele>1583.11</ele>
  <time>2026-08-29T19:29:57Z</time>
  <course>231.5</course>
  <speed>1.6507574019219178</speed>
  <fix>3d</fix>
</trkpt>
<trkpt lat="40.0715521" lon="-105.2293349">
  <ele>1583.0</ele>
  <time>2026-08-29T19:29:57Z</time>
  <course>230.61</course>
  <speed>1.68</speed>
  <fix>3d</fix>
</trkpt>
<trkpt lat="40.0715482" lon="-105.2293414">
  <ele>1583.11</ele>
  <time>2026-08-29T19:29:57Z</time>
  <course>231.48</course>
  <speed>1.6507574019219178</speed>
  <fix>3d</fix>
</trkpt>
<trkpt lat="40.0715502" lon="-105.229338">
  <ele>1583.0</ele>
  <time>2026-08-29T19:29:57Z</time>
  <course>230.56</course>
  <speed>1.68</speed>
  <fix>3d</fix>
</trkpt>
<trkpt lat="40.0715473" lon="-105.2293429">
  <ele>1583.11</ele>
  <time>2026-08-29T19:29:57Z</time>
  <course>231.47</course>
  <speed>1.6507574019219178</speed>
  <fix>3d</fix>
</trkpt>
<trkpt lat="40.0715482" lon="-105.229341">
  <ele>1583.0</ele>
  <time>2026-08-29T19:29:57Z</time>
  <course>230.53</course>
  <speed>1.68</speed>
  <fix>3d</fix>
</trkpt>
<trkpt lat="40.0715463" lon="-105.2293444">
  <ele>1583.11</ele>
  <time>2026-08-29T19:29:57Z</time>
  <course>231.47</course>
  <speed>1.6507574019219178</speed>
  <fix>3d</fix>
</trkpt>
<trkpt lat="40.0715482" lon="-105.229341">
  <ele>1583.0</ele>
  <time>2026-08-29T19:29:57Z</time>
  <course>230.53</course>
  <speed>1.68</speed>
  <fix>3d</fix>
</trkpt>
<trkpt lat="40.0715454" lon="-105.2293459">
  <ele>1583.11</ele>
  <time>2026-08-29T19:29:57Z</time>
  <course>231.47</course>
  <speed>1.6507574019219178</speed>
  <fix>3d</fix>
</trkpt>
<trkpt lat="40.0715463" lon="-105.229344">
  <ele>1583.0</ele>
  <time>2026-08-29T19:29:57Z</time>
  <course>230.52</course>
  <speed>1.68</speed>
  <fix>3d</fix>
</trkpt>
<trkpt lat="40.0715444" lon="-105.2293475">
  <ele>1583.11</ele>
  <time>2026-08-29T19:29:57Z</time>
  <course>231.48</course>
  <speed>1.6445364088398895</speed>
  <fix>3d</fix>
</trkpt>
<trkpt lat="40.0715463" lon="-105.229344">
  <ele>1583.0</ele>
  <time>2026-08-29T19:29:57Z</time>
  <course>230.52</course>
  <speed>1.68</speed>
  <fix>3d</fix>
</trkpt>
<trkpt lat="40.0715435" lon="-105.229349">
  <ele>1583.11</ele>
  <time>2026-08-29T19:29:57Z</time>
  <course>231.48</course>
  <speed>1.6445364088398895</speed>
  <fix>3d</fix>
</trkpt>
<trkpt lat="40.0715444" lon="-105.2293471">
  <ele>1583.0</ele>
  <time>2026-08-29T19:29:57Z</time>
  <course>230.52</course>
  <speed>1.68</speed>
  <fix>3d</fix>
</trkpt>
<trkpt lat="40.0715425" lon="-105.2293505">
  <ele>1583.12</ele>
  <time>2026-08-29T19:29:57Z</time>
  <course>231.48</course>
  <speed>1.6445364088398895</speed>
  <fix>3d</fix>
</trkpt>
<trkpt lat="40.0715444" lon="-105.2293471">
  <ele>1583.0</ele>
  <time>2026-08-29T19:29:57Z</time>
  <course>230.52</course>
  <speed>1.68</speed>
  <fix>3d</fix>
</trkpt>
<trkpt lat="40.0715415" lon="-105.2293521">
  <ele>1583.12</ele>
  <time>2026-08-29T19:29:57Z</time>
  <course>231.48</course>
  <speed>1.6445364088398895</speed>
  <fix>3d</fix>
</trkpt>
<trkpt lat="40.0715425" lon="-105.2293502">
  <ele>1583.0</ele>
  <time>2026-08-29T19:29:57Z</time>
  <course>230.52</course>
  <speed>1.67</speed>
  <fix>3d</fix>
</trkpt>
<trkpt lat="40.0715406" lon="-105.2293536">
  <ele>1583.12</ele>
  <time>2026-08-29T19:29:57Z</time>
  <course>231.48</course>
  <speed>1.6445364088398895</speed>
  <fix>3d</fix>
</trkpt>
<trkpt lat="40.0715425" lon="-105.2293502">
  <ele>1583.0</ele>
  <time>2026-08-29T19:29:57Z</time>
  <course>230.52</course>
  <speed>1.67</speed>
  <fix>3d</fix>
</trkpt>
<trkpt lat="40.0715396" lon="-105.2293551">
  <ele>1583.13</ele>
  <time>2026-08-29T19:29:57Z</time>
  <course>231.48</course>
  <speed>1.6445364088398895</speed>
  <fix>3d</fix>
</trkpt>
<trkpt lat="40.0715406" lon="-105.2293531">
  <ele>1583.0</ele>
  <time>2026-08-29T19:29:57Z</time>
  <course>230.52</course>
  <speed>1.67</speed>
  <fix>3d</fix>
</trkpt>
<trkpt lat="40.0715387" lon="-105.2293567">
  <ele>1583.13</ele>
  <time>2026-08-29T19:29:57Z</time>
  <course>231.48</course>
  <speed>1.6445364088398895</speed>
  <fix>3d</fix>
</trkpt>
<trkpt lat="40.0715406" lon="-105.2293531">
  <ele>1583.0</ele>
  <time>2026-08-29T19:29:57Z</time>
  <course>230.52</course>
  <speed>1.67</speed>
  <fix>3d</fix>
</trkpt>
<trkpt lat="40.0715377" lon="-105.2293582">
  <ele>1583.13</ele>
  <time>2026-08-29T19:29:57Z</time>
  <course>231.48</course>
  <speed>1.6445364088398895</speed>
  <fix>3d</fix>
</trkpt>
<trkpt lat="40.0715386" lon="-105.2293562">
  <ele>1583.0</ele>
  <time>2026-08-29T19:29:57Z</time>
  <course>230.52</course>
  <speed>1.67</speed>
  <fix>3d</fix>
</trkpt>
<trkpt lat="40.0715367" lon="-105.2293597">
  <ele>1583.13</ele>
  <time>2026-08-29T19:29:57Z</time>
  <course>231.49</course>
  <speed>1.6445364088398895</speed>
  <fix>3d</fix>
</trkpt>
<trkpt lat="40.0715386" lon="-105.2293562">
  <ele>1583.0</ele>
  <time>2026-08-29T19:29:57Z</time>
  <course>230.52</course>
  <speed>1.67</speed>
  <fix>3d</fix>
</trkpt>
<trkpt lat="40.0715358" lon="-105.2293612">
  <ele>1583.13</ele>
  <time>2026-08-29T19:29:57Z</time>
  <course>231.51</course>
  <speed>1.6445364088398895</speed>
  <fix>3d</fix>
</trkpt>
<trkpt lat="40.0715367" lon="-105.2293593">
  <ele>1583.0</ele>
  <time>2026-08-29T19:29:57Z</time>
  <course>230.53</course>
  <speed>1.67</speed>
  <fix>3d</fix>
</trkpt>
<trkpt lat="40.0715348" lon="-105.2293628">
  <ele>1583.13</ele>
  <time>2026-08-29T19:29:57Z</time>
  <course>231.53</course>
  <speed>1.6445364088398895</speed>
  <fix>3d</fix>
</trkpt>
<trkpt lat="40.0715367" lon="-105.2293593">
  <ele>1583.0</ele>
  <time>2026-08-29T19:29:57Z</time>
  <course>230.53</course>
  <speed>1.67</speed>
  <fix>3d</fix>
</trkpt>
<trkpt lat="40.0715339" lon="-105.2293643">
  <ele>1583.13</ele>
  <time>2026-08-29T19:29:57Z</time>
  <course>231.55</course>
  <speed>1.6445364088398895</speed>
  <fix>3d</fix>
</trkpt>
<trkpt lat="40.0715367" lon="-105.2293593">
  <ele>1583.0</ele>
  <time>2026-08-29T19:29:57Z</time>
  <course>230.53</course>
  <speed>1.67</speed>
  <fix>3d</fix>
</trkpt>
<trkpt lat="40.0715329" lon="-105.2293658">
  <ele>1583.13</ele>
  <time>2026-08-29T19:29:57Z</time>
  <course>231.58</course>
  <speed>1.6445364088398895</speed>
  <fix>3d</fix>
</trkpt>
<trkpt lat="40.0715348" lon="-105.2293623">
  <ele>1583.0</ele>
  <time>2026-08-29T19:29:57Z</time>
  <course>230.57</course>
  <speed>1.67</speed>
  <fix>3d</fix>
</trkpt>
<trkpt lat="40.071532" lon="-105.2293673">
  <ele>1583.13</ele>
  <time>2026-08-29T19:29:57Z</time>
  <course>231.63</course>
  <speed>1.6445364088398895</speed>
  <fix>3d</fix>
</trkpt>
<trkpt lat="40.0715348" lon="-105.2293623">
  <ele>1583.0</ele>
  <time>2026-08-29T19:29:57Z</time>
  <course>230.57</course>
  <speed>1.67</speed>
  <fix>3d</fix>
</trkpt>
<trkpt lat="40.071531" lon="-105.2293688">
  <ele>1583.12</ele>
  <time>2026-08-29T19:29:57Z</time>
  <course>231.67</course>
  <speed>1.6445364088398895</speed>
  <fix>3d</fix>
</trkpt>
<trkpt lat="40.0715329" lon="-105.2293654">
  <ele>1583.0</ele>
  <time>2026-08-29T19:29:57Z</time>
  <course>230.63</course>
  <speed>1.67</speed>
  <fix>3d</fix>
</trkpt>
<trkpt lat="40.0715301" lon="-105.2293704">
  <ele>1583.12</ele>
  <time>2026-08-29T19:29:57Z</time>
  <course>231.71</course>
  <speed>1.6445364088398895</speed>
  <fix>3d</fix>
</trkpt>
<trkpt lat="40.0715329" lon="-105.2293654">
  <ele>1583.0</ele>
  <time>2026-08-29T19:29:57Z</time>
  <course>230.63</course>
  <speed>1.67</speed>
  <fix>3d</fix>
</trkpt>
<trkpt lat="40.0715291" lon="-105.2293719">
  <ele>1583.12</ele>
  <time>2026-08-29T19:29:57Z</time>
  <course>231.76</course>
  <speed>1.63835283135227</speed>
  <fix>3d</fix>
</trkpt>
<trkpt lat="40.071531" lon="-105.2293684">
  <ele>1583.0</ele>
  <time>2026-08-29T19:29:57Z</time>
  <course>230.71</course>
  <speed>1.67</speed>
  <fix>3d</fix>
</trkpt>
<trkpt lat="40.0715282" lon="-105.2293734">
  <ele>1583.12</ele>
  <time>2026-08-29T19:29:57Z</time>
  <course>231.8</course>
  <speed>1.63835283135227</speed>
  <fix>3d</fix>
</trkpt>
<trkpt lat="40.0715291" lon="-105.2293714">
  <ele>1583.0</ele>
  <time>2026-08-29T19:29:57Z</time>
  <course>230.8</course>
  <speed>1.67</speed>
  <fix>3d</fix>
</trkpt>
<trkpt lat="40.0715272" lon="-105.2293749">
  <ele>1583.12</ele>
  <time>2026-08-29T19:29:57Z</time>
  <course>231.84</course>
  <speed>1.6462381358722071</speed>
  <fix>3d</fix>
</trkpt>
<trkpt lat="40.0715291" lon="-105.2293714">
  <ele>1583.0</ele>
  <time>2026-08-29T19:29:57Z</time>
  <course>230.8</course>
  <speed>1.67</speed>
  <fix>3d</fix>
</trkpt>
<trkpt lat="40.0715263" lon="-105.2293764">
  <ele>1583.12</ele>
  <time>2026-08-29T19:29:57Z</time>
  <course>231.87</course>
  <speed>1.6462381358722071</speed>
  <fix>3d</fix>
</trkpt>
<trkpt lat="40.0715272" lon="-105.2293745">
  <ele>1583.0</ele>
  <time>2026-08-29T19:29:57Z</time>
  <course>230.88</course>
  <speed>1.67</speed>
  <fix>3d</fix>
</trkpt>
<trkpt lat="40.0715253" lon="-105.229378">
  <ele>1583.12</ele>
  <time>2026-08-29T19:29:57Z</time>
  <course>231.9</course>
  <speed>1.6462381358722071</speed>
  <fix>3d</fix>
</trkpt>
<trkpt lat="40.0715272" lon="-105.2293745">
  <ele>1583.0</ele>
  <time>2026-08-29T19:29:57Z</time>
  <course>230.88</course>
  <speed>1.67</speed>
  <fix>3d</fix>
</trkpt>
<trkpt lat="40.0715244" lon="-105.2293795">
  <ele>1583.12</ele>
  <time>2026-08-29T19:29:58Z</time>
  <course>231.93</course>
  <speed>1.6462381358722071</speed>
  <fix>3d</fix>
</trkpt>
<trkpt lat="40.0715253" lon="-105.2293775">
  <ele>1583.0</ele>
  <time>2026-08-29T19:29:58Z</time>
  <course>230.95</course>
  <speed>1.67</speed>
  <fix>3d</fix>
</trkpt>
<trkpt lat="40.0715234" lon="-105.229381">
  <ele>1583.12</ele>
  <time>2026-08-29T19:29:58Z</time>
  <course>231.96</course>
  <speed>1.6462381358722071</speed>
  <fix>3d</fix>
</trkpt>
<trkpt lat="40.0715253" lon="-105.2293775">
  <ele>1583.0</ele>
  <time>2026-08-29T19:29:58Z</time>
  <course>230.95</course>
  <speed>1.67</speed>
  <fix>3d</fix>
</trkpt>
<trkpt lat="40.0715225" lon="-105.2293826">
  <ele>1583.12</ele>
  <time>2026-08-29T19:29:58Z</time>
  <course>231.99</course>
  <speed>1.6462381358722071</speed>
  <fix>3d</fix>
</trkpt>
<trkpt lat="40.0715234" lon="-105.2293806">
  <ele>1583.0</ele>
  <time>2026-08-29T19:29:58Z</time>
  <course>231.01</course>
  <speed>1.67</speed>
  <fix>3d</fix>
</trkpt>
<trkpt lat="40.0715215" lon="-105.2293841">
  <ele>1583.12</ele>
  <time>2026-08-29T19:29:58Z</time>
  <course>232.03</course>
  <speed>1.6462381358722071</speed>
  <fix>3d</fix>
</trkpt>
<trkpt lat="40.0715234" lon="-105.2293806">
  <ele>1583.0</ele>
  <time>2026-08-29T19:29:58Z</time>
  <course>231.01</course>
  <speed>1.67</speed>
  <fix>3d</fix>
</trkpt>
<trkpt lat="40.0715206" lon="-105.2293857">
  <ele>1583.12</ele>
  <time>2026-08-29T19:29:58Z</time>
  <course>232.05</course>
  <speed>1.6541463055002117</speed>
  <fix>3d</fix>
</trkpt>
<trkpt lat="40.0715215" lon="-105.2293837">
  <ele>1583.0</ele>
  <time>2026-08-29T19:29:58Z</time>
  <course>231.08</course>
  <speed>1.67</speed>
  <fix>3d</fix>
</trkpt>
<trkpt lat="40.0715196" lon="-105.2293872">
  <ele>1583.12</ele>
  <time>2026-08-29T19:29:58Z</time>
  <course>232.09</course>
  <speed>1.6541463055002117</speed>
  <fix>3d</fix>
</trkpt>
<trkpt lat="40.0715215" lon="-105.2293837">
  <ele>1583.0</ele>
  <time>2026-08-29T19:29:58Z</time>
  <course>231.08</course>
  <speed>1.67</speed>
  <fix>3d</fix>
</trkpt>
<trkpt lat="40.0715187" lon="-105.2293888">
  <ele>1583.12</ele>
  <time>2026-08-29T19:29:58Z</time>
  <course>232.13</course>
  <speed>1.6541463055002117</speed>
  <fix>3d</fix>
</trkpt>
<trkpt lat="40.0715196" lon="-105.2293867">
  <ele>1583.0</ele>
  <time>2026-08-29T19:29:58Z</time>
  <course>231.14</course>
  <speed>1.68</speed>
  <fix>3d</fix>
</trkpt>
<trkpt lat="40.0715177" lon="-105.2293903">
  <ele>1583.12</ele>
  <time>2026-08-29T19:29:58Z</time>
  <course>232.16</course>
  <speed>1.6541463055002117</speed>
  <fix>3d</fix>
</trkpt>
<trkpt lat="40.0715196" lon="-105.2293867">
  <ele>1583.0</ele>
  <time>2026-08-29T19:29:58Z</time>
  <course>231.14</course>
  <speed>1.68</speed>
  <fix>3d</fix>
</trkpt>
<trkpt lat="40.0715168" lon="-105.2293919">
  <ele>1583.12</ele>
  <time>2026-08-29T19:29:58Z</time>
  <course>232.2</course>
  <speed>1.6541463055002117</speed>
  <fix>3d</fix>
</trkpt>
<trkpt lat="40.0715177" lon="-105.2293898">
  <ele>1583.0</ele>
  <time>2026-08-29T19:29:58Z</time>
  <course>231.22</course>
  <speed>1.68</speed>
  <fix>3d</fix>
</trkpt>
<trkpt lat="40.0715158" lon="-105.2293934">
  <ele>1583.12</ele>
  <time>2026-08-29T19:29:58Z</time>
  <course>232.24</course>
  <speed>1.6541463055002117</speed>
  <fix>3d</fix>
</trkpt>
<trkpt lat="40.0715177" lon="-105.2293898">
  <ele>1583.0</ele>
  <time>2026-08-29T19:29:58Z</time>
  <course>231.22</course>
  <speed>1.68</speed>
  <fix>3d</fix>
</trkpt>
<trkpt lat="40.0715149" lon="-105.229395">
  <ele>1583.12</ele>
  <time>2026-08-29T19:29:58Z</time>
  <course>232.28</course>
  <speed>1.6541463055002117</speed>
  <fix>3d</fix>
</trkpt>
<trkpt lat="40.0715177" lon="-105.2293898">
  <ele>1583.0</ele>
  <time>2026-08-29T19:29:58Z</time>
  <course>231.22</course>
  <speed>1.68</speed>
  <fix>3d</fix>
</trkpt>
<trkpt lat="40.0715139" lon="-105.2293965">
  <ele>1583.12</ele>
  <time>2026-08-29T19:29:58Z</time>
  <course>232.32</course>
  <speed>1.6620770138594663</speed>
  <fix>3d</fix>
</trkpt>
<trkpt lat="40.0715158" lon="-105.2293929">
  <ele>1583.0</ele>
  <time>2026-08-29T19:29:58Z</time>
  <course>231.3</course>
  <speed>1.68</speed>
  <fix>3d</fix>
</trkpt>
<trkpt lat="40.071513" lon="-105.229398">
  <ele>1583.12</ele>
  <time>2026-08-29T19:29:58Z</time>
  <course>232.36</course>
  <speed>1.6620770138594663</speed>
  <fix>3d</fix>
</trkpt>
<trkpt lat="40.0715158" lon="-105.2293929">
  <ele>1583.0</ele>
  <time>2026-08-29T19:29:58Z</time>
  <course>231.3</course>
  <speed>1.68</speed>
  <fix>3d</fix>
</trkpt>
<trkpt lat="40.0715121" lon="-105.2293996">
  <ele>1583.13</ele>
  <time>2026-08-29T19:29:58Z</time>
  <course>232.41</course>
  <speed>1.6620770138594663</speed>
  <fix>3d</fix>
</trkpt>
<trkpt lat="40.0715139" lon="-105.229396">
  <ele>1583.0</ele>
  <time>2026-08-29T19:29:58Z</time>
  <course>231.38</course>
  <speed>1.68</speed>
  <fix>3d</fix>
</trkpt>
<trkpt lat="40.0715111" lon="-105.2294011">
  <ele>1583.12</ele>
  <time>2026-08-29T19:29:58Z</time>
  <course>232.45</course>
  <speed>1.6620770138594663</speed>
  <fix>3d</fix>
</trkpt>
<trkpt lat="40.0715139" lon="-105.229396">
  <ele>1583.0</ele>
  <time>2026-08-29T19:29:58Z</time>
  <course>231.38</course>
  <speed>1.68</speed>
  <fix>3d</fix>
</trkpt>
<trkpt lat="40.0715102" lon="-105.2294027">
  <ele>1583.12</ele>
  <time>2026-08-29T19:29:58Z</time>
  <course>232.5</course>
  <speed>1.6620770138594663</speed>
  <fix>3d</fix>
</trkpt>
<trkpt lat="40.071512" lon="-105.2293991">
  <ele>1583.0</ele>
  <time>2026-08-29T19:29:58Z</time>
  <course>231.48</course>
  <speed>1.68</speed>
  <fix>3d</fix>
</trkpt>
<trkpt lat="40.0715093" lon="-105.2294042">
  <ele>1583.12</ele>
  <time>2026-08-29T19:29:58Z</time>
  <course>232.54</course>
  <speed>1.6620770138594663</speed>
  <fix>3d</fix>
</trkpt>
<trkpt lat="40.071512" lon="-105.2293991">
  <ele>1583.0</ele>
  <time>2026-08-29T19:29:58Z</time>
  <course>231.48</course>
  <speed>1.68</speed>
  <fix>3d</fix>
</trkpt>
<trkpt lat="40.0715083" lon="-105.2294057">
  <ele>1583.12</ele>
  <time>2026-08-29T19:29:58Z</time>
  <course>232.59</course>
  <speed>1.6560193235587561</speed>
  <fix>3d</fix>
</trkpt>
<trkpt lat="40.0715101" lon="-105.2294022">
  <ele>1583.0</ele>
  <time>2026-08-29T19:29:58Z</time>
  <course>231.57</course>
  <speed>1.68</speed>
  <fix>3d</fix>
</trkpt>
<trkpt lat="40.0715074" lon="-105.2294073">
  <ele>1583.12</ele>
  <time>2026-08-29T19:29:58Z</time>
  <course>232.63</course>
  <speed>1.6560193235587561</speed>
  <fix>3d</fix>
</trkpt>
<trkpt lat="40.0715083" lon="-105.2294053">
  <ele>1583.0</ele>
  <time>2026-08-29T19:29:58Z</time>
  <course>231.66</course>
  <speed>1.68</speed>
  <fix>3d</fix>
</trkpt>
<trkpt lat="40.0715064" lon="-105.2294088">
  <ele>1583.12</ele>
  <time>2026-08-29T19:29:58Z</time>
  <course>232.68</course>
  <speed>1.6560193235587561</speed>
  <fix>3d</fix>
</trkpt>
<trkpt lat="40.0715083" lon="-105.2294053">
  <ele>1583.0</ele>
  <time>2026-08-29T19:29:58Z</time>
  <course>231.66</course>
  <speed>1.68</speed>
  <fix>3d</fix>
</trkpt>
<trkpt lat="40.0715055" lon="-105.2294104">
  <ele>1583.12</ele>
  <time>2026-08-29T19:29:58Z</time>
  <course>232.72</course>
  <speed>1.664001201922643</speed>
  <fix>3d</fix>
</trkpt>
<trkpt lat="40.0715064" lon="-105.2294084">
  <ele>1583.0</ele>
  <time>2026-08-29T19:29:58Z</time>
  <course>231.75</course>
  <speed>1.69</speed>
  <fix>3d</fix>
</trkpt>
<trkpt lat="40.0715046" lon="-105.229412">
  <ele>1583.12</ele>
  <time>2026-08-29T19:29:58Z</time>
  <course>232.76</course>
  <speed>1.664001201922643</speed>
  <fix>3d</fix>
</trkpt>
<trkpt lat="40.0715064" lon="-105.2294084">
  <ele>1583.0</ele>
  <time>2026-08-29T19:29:58Z</time>
  <course>231.75</course>
  <speed>1.69</speed>
  <fix>3d</fix>
</trkpt>
<trkpt lat="40.0715036" lon="-105.2294135">
  <ele>1583.11</ele>
  <time>2026-08-29T19:29:58Z</time>
  <course>232.82</course>
  <speed>1.664001201922643</speed>
  <fix>3d</fix>
</trkpt>
<trkpt lat="40.0715045" lon="-105.2294115">
  <ele>1583.0</ele>
  <time>2026-08-29T19:29:58Z</time>
  <course>231.85</course>
  <speed>1.69</speed>
  <fix>3d</fix>
</trkpt>
<trkpt lat="40.0715027" lon="-105.2294151">
  <ele>1583.11</ele>
  <time>2026-08-29T19:29:58Z</time>
  <course>232.88</course>
  <speed>1.664001201922643</speed>
  <fix>3d</fix>
</trkpt>
<trkpt lat="40.0715045" lon="-105.2294115">
  <ele>1583.0</ele>
  <time>2026-08-29T19:29:58Z</time>
  <course>231.85</course>
  <speed>1.69</speed>
  <fix>3d</fix>
</trkpt>
<trkpt lat="40.0715017" lon="-105.2294167">
  <ele>1583.11</ele>
  <time>2026-08-29T19:29:58Z</time>
  <course>232.94</course>
  <speed>1.664001201922643</speed>
  <fix>3d</fix>
</trkpt>
<trkpt lat="40.0715026" lon="-105.2294147">
  <ele>1583.0</ele>
  <time>2026-08-29T19:29:58Z</time>
  <course>231.96</course>
  <speed>1.69</speed>
  <fix>3d</fix>
</trkpt>
<trkpt lat="40.0715008" lon="-105.2294183">
  <ele>1583.11</ele>
  <time>2026-08-29T19:29:58Z</time>
  <course>233.01</course>
  <speed>1.6720047846821493</speed>
  <fix>3d</fix>
</trkpt>
<trkpt lat="40.0715026" lon="-105.2294147">
  <ele>1583.0</ele>
  <time>2026-08-29T19:29:58Z</time>
  <course>231.96</course>
  <speed>1.69</speed>
  <fix>3d</fix>
</trkpt>
<trkpt lat="40.0714998" lon="-105.2294199">
  <ele>1583.11</ele>
  <time>2026-08-29T19:29:58Z</time>
  <course>233.08</course>
  <speed>1.6720047846821493</speed>
  <fix>3d</fix>
</trkpt>
<trkpt lat="40.0715007" lon="-105.2294178">
  <ele>1583.0</ele>
  <time>2026-08-29T19:29:58Z</time>
  <course>232.09</course>
  <speed>1.69</speed>
  <fix>3d</fix>
</trkpt>
<trkpt lat="40.0714989" lon="-105.2294215">
  <ele>1583.11</ele>
  <time>2026-08-29T19:29:58Z</time>
  <course>233.15</course>
  <speed>1.6720047846821493</speed>
  <fix>3d</fix>
</trkpt>
<trkpt lat="40.0715007" lon="-105.2294178">
  <ele>1583.0</ele>
  <time>2026-08-29T19:29:58Z</time>
  <course>232.09</course>
  <speed>1.69</speed>
  <fix>3d</fix>
</trkpt>
<trkpt lat="40.071498" lon="-105.229423">
  <ele>1583.11</ele>
  <time>2026-08-29T19:29:58Z</time>
  <course>233.21</course>
  <speed>1.6720047846821493</speed>
  <fix>3d</fix>
</trkpt>
<trkpt lat="40.0714989" lon="-105.229421">
  <ele>1583.0</ele>
  <time>2026-08-29T19:29:58Z</time>
  <course>232.23</course>
  <speed>1.69</speed>
  <fix>3d</fix>
</trkpt>
<trkpt lat="40.071497" lon="-105.2294246">
  <ele>1583.11</ele>
  <time>2026-08-29T19:29:58Z</time>
  <course>233.29</course>
  <speed>1.6800297616411441</speed>
  <fix>3d</fix>
</trkpt>
<trkpt lat="40.0714989" lon="-105.229421">
  <ele>1583.0</ele>
  <time>2026-08-29T19:29:58Z</time>
  <course>232.23</course>
  <speed>1.69</speed>
  <fix>3d</fix>
</trkpt>
<trkpt lat="40.0714961" lon="-105.2294262">
  <ele>1583.11</ele>
  <time>2026-08-29T19:29:58Z</time>
  <course>233.38</course>
  <speed>1.6800297616411441</speed>
  <fix>3d</fix>
</trkpt>
<trkpt lat="40.0714989" lon="-105.229421">
  <ele>1583.0</ele>
  <time>2026-08-29T19:29:58Z</time>
  <course>232.23</course>
  <speed>1.69</speed>
  <fix>3d</fix>
</trkpt>
<trkpt lat="40.0714951" lon="-105.2294278">
  <ele>1583.1</ele>
  <time>2026-08-29T19:29:58Z</time>
  <course>233.47</course>
  <speed>1.6800297616411441</speed>
  <fix>3d</fix>
</trkpt>
<trkpt lat="40.071497" lon="-105.2294241">
  <ele>1583.0</ele>
  <time>2026-08-29T19:29:58Z</time>
  <course>232.39</course>
  <speed>1.7</speed>
  <fix>3d</fix>
</trkpt>
<trkpt lat="40.0714942" lon="-105.2294294">
  <ele>1583.1</ele>
  <time>2026-08-29T19:29:58Z</time>
  <course>233.56</course>
  <speed>1.6880758276807353</speed>
  <fix>3d</fix>
</trkpt>
<trkpt lat="40.071497" lon="-105.2294241">
  <ele>1583.0</ele>
  <time>2026-08-29T19:29:58Z</time>
  <course>232.39</course>
  <speed>1.7</speed>
  <fix>3d</fix>
</trkpt>
<trkpt lat="40.0714933" lon="-105.229431">
  <ele>1583.1</ele>
  <time>2026-08-29T19:29:58Z</time>
  <course>233.65</course>
  <speed>1.6821712160181557</speed>
  <fix>3d</fix>
</trkpt>
<trkpt lat="40.0714952" lon="-105.2294273">
  <ele>1583.0</ele>
  <time>2026-08-29T19:29:58Z</time>
  <course>232.57</course>
  <speed>1.7</speed>
  <fix>3d</fix>
</trkpt>
<trkpt lat="40.0714924" lon="-105.2294326">
  <ele>1583.1</ele>
  <time>2026-08-29T19:29:58Z</time>
  <course>233.75</course>
  <speed>1.6821712160181557</speed>
  <fix>3d</fix>
</trkpt>
<trkpt lat="40.0714952" lon="-105.2294273">
  <ele>1583.0</ele>
  <time>2026-08-29T19:29:58Z</time>
  <course>232.57</course>
  <speed>1.7</speed>
  <fix>3d</fix>
</trkpt>
<trkpt lat="40.0714915" lon="-105.2294342">
  <ele>1583.11</ele>
  <time>2026-08-29T19:29:58Z</time>
  <course>233.87</course>
  <speed>1.6821712160181557</speed>
  <fix>3d</fix>
</trkpt>
<trkpt lat="40.0714933" lon="-105.2294305">
  <ele>1583.0</ele>
  <time>2026-08-29T19:29:58Z</time>
  <course>232.75</course>
  <speed>1.7</speed>
  <fix>3d</fix>
</trkpt>
<trkpt lat="40.0714906" lon="-105.2294357">
  <ele>1583.11</ele>
  <time>2026-08-29T19:29:58Z</time>
  <course>233.98</course>
  <speed>1.690266251216062</speed>
  <fix>3d</fix>
</trkpt>
<trkpt lat="40.0714933" lon="-105.2294305">
  <ele>1583.0</ele>
  <time>2026-08-29T19:29:58Z</time>
  <course>232.75</course>
  <speed>1.7</speed>
  <fix>3d</fix>
</trkpt>
<trkpt lat="40.0714896" lon="-105.2294373">
  <ele>1583.1</ele>
  <time>2026-08-29T19:29:58Z</time>
  <course>234.1</course>
  <speed>1.6844286865284621</speed>
  <fix>3d</fix>
</trkpt>
<trkpt lat="40.0714914" lon="-105.2294336">
  <ele>1583.0</ele>
  <time>2026-08-29T19:29:58Z</time>
  <course>232.97</course>
  <speed>1.7</speed>
  <fix>3d</fix>
</trkpt>
<trkpt lat="40.0714887" lon="-105.2294389">
  <ele>1583.1</ele>
  <time>2026-08-29T19:29:58Z</time>
  <course>234.24</course>
  <speed>1.6844286865284621</speed>
  <fix>3d</fix>
</trkpt>
<trkpt lat="40.0714896" lon="-105.2294369">
  <ele>1583.0</ele>
  <time>2026-08-29T19:29:58Z</time>
  <course>233.21</course>
  <speed>1.71</speed>
  <fix>3d</fix>
</trkpt>
<trkpt lat="40.0714878" lon="-105.2294406">
  <ele>1583.1</ele>
  <time>2026-08-29T19:29:58Z</time>
  <course>234.38</course>
  <speed>1.6925720073308552</speed>
  <fix>3d</fix>
</trkpt>
<trkpt lat="40.0714896" lon="-105.2294369">
  <ele>1583.0</ele>
  <time>2026-08-29T19:29:58Z</time>
  <course>233.21</course>
  <speed>1.71</speed>
  <fix>3d</fix>
</trkpt>
<trkpt lat="40.0714869" lon="-105.2294422">
  <ele>1583.1</ele>
  <time>2026-08-29T19:29:58Z</time>
  <course>234.53</course>
  <speed>1.6925720073308552</speed>
  <fix>3d</fix>
</trkpt>
<trkpt lat="40.0714878" lon="-105.2294401">
  <ele>1583.0</ele>
  <time>2026-08-29T19:29:58Z</time>
  <course>233.49</course>
  <speed>1.71</speed>
  <fix>3d</fix>
</trkpt>
<trkpt lat="40.071486" lon="-105.2294438">
  <ele>1583.1</ele>
  <time>2026-08-29T19:29:58Z</time>
  <course>234.69</course>
  <speed>1.6925720073308552</speed>
  <fix>3d</fix>
</trkpt>
<trkpt lat="40.0714878" lon="-105.2294401">
  <ele>1583.0</ele>
  <time>2026-08-29T19:29:58Z</time>
  <course>233.49</course>
  <speed>1.71</speed>
  <fix>3d</fix>
</trkpt>
<trkpt lat="40.0714851" lon="-105.2294454">
  <ele>1583.1</ele>
  <time>2026-08-29T19:29:58Z</time>
  <course>234.87</course>
  <speed>1.6949926253526886</speed>
  <fix>3d</fix>
</trkpt>
<trkpt lat="40.0714859" lon="-105.2294433">
  <ele>1583.0</ele>
  <time>2026-08-29T19:29:58Z</time>
  <course>233.81</course>
  <speed>1.72</speed>
  <fix>3d</fix>
</trkpt>
<trkpt lat="40.0714842" lon="-105.2294471">
  <ele>1583.1</ele>
  <time>2026-08-29T19:29:58Z</time>
  <course>235.05</course>
  <speed>1.703202865192517</speed>
  <fix>3d</fix>
</trkpt>
<trkpt lat="40.0714859" lon="-105.2294433">
  <ele>1583.0</ele>
  <time>2026-08-29T19:29:58Z</time>
  <course>233.81</course>
  <speed>1.72</speed>
  <fix>3d</fix>
</trkpt>
<trkpt lat="40.0714832" lon="-105.2294487">
  <ele>1583.1</ele>
  <time>2026-08-29T19:29:58Z</time>
  <course>235.26</course>
  <speed>1.703202865192517</speed>
  <fix>3d</fix>
</trkpt>
<trkpt lat="40.0714841" lon="-105.2294466">
  <ele>1583.0</ele>
  <time>2026-08-29T19:29:58Z</time>
  <course>234.18</course>
  <speed>1.72</speed>
  <fix>3d</fix>
</trkpt>
<trkpt lat="40.0714823" lon="-105.2294504">
  <ele>1583.1</ele>
  <time>2026-08-29T19:29:58Z</time>
  <course>235.49</course>
  <speed>1.70578427709954</speed>
  <fix>3d</fix>
</trkpt>
<trkpt lat="40.0714841" lon="-105.2294466">
  <ele>1583.0</ele>
  <time>2026-08-29T19:29:58Z</time>
  <course>234.18</course>
  <speed>1.72</speed>
  <fix>3d</fix>
</trkpt>
<trkpt lat="40.0714814" lon="-105.2294521">
  <ele>1583.1</ele>
  <time>2026-08-29T19:29:58Z</time>
  <course>235.73</course>
  <speed>1.70578427709954</speed>
  <fix>3d</fix>
</trkpt>
<trkpt lat="40.0714823" lon="-105.2294499">
  <ele>1583.0</ele>
  <time>2026-08-29T19:29:58Z</time>
  <course>234.61</course>
  <speed>1.72</speed>
  <fix>3d</fix>
</trkpt>
<trkpt lat="40.0714805" lon="-105.2294538">
  <ele>1583.1</ele>
  <time>2026-08-29T19:29:58Z</time>
  <course>236.0</course>
  <speed>1.7084788555905512</speed>
  <fix>3d</fix>
</trkpt>
<trkpt lat="40.0714823" lon="-105.2294499">
  <ele>1583.0</ele>
  <time>2026-08-29T19:29:58Z</time>
  <course>234.61</course>
  <speed>1.72</speed>
  <fix>3d</fix>
</trkpt>
<trkpt lat="40.0714796" lon="-105.2294554">
  <ele>1583.1</ele>
  <time>2026-08-29T19:29:58Z</time>
  <course>236.29</course>
  <speed>1.7167993476233616</speed>
  <fix>3d</fix>
</trkpt>
<trkpt lat="40.0714805" lon="-105.2294532">
  <ele>1583.0</ele>
  <time>2026-08-29T19:29:58Z</time>
  <course>235.13</course>
  <speed>1.73</speed>
  <fix>3d</fix>
</trkpt>
<trkpt lat="40.0714787" lon="-105.2294571">
  <ele>1583.1</ele>
  <time>2026-08-29T19:29:58Z</time>
  <course>236.62</course>
  <speed>1.7196511274092776</speed>
  <fix>3d</fix>
</trkpt>
<trkpt lat="40.0714805" lon="-105.2294532">
  <ele>1583.0</ele>
  <time>2026-08-29T19:29:58Z</time>
  <course>235.13</course>
  <speed>1.73</speed>
  <fix>3d</fix>
</trkpt>
<trkpt lat="40.0714779" lon="-105.2294588">
  <ele>1583.1</ele>
  <time>2026-08-29T19:29:58Z</time>
  <course>236.98</course>
  <speed>1.7280335644888383</speed>
  <fix>3d</fix>
</trkpt>
<trkpt lat="40.0714787" lon="-105.2294566">
  <ele>1583.0</ele>
  <time>2026-08-29T19:29:58Z</time>
  <course>235.75</course>
  <speed>1.74</speed>
  <fix>3d</fix>
</trkpt>
<trkpt lat="40.071477" lon="-105.2294606">
  <ele>1583.1</ele>
  <time>2026-08-29T19:29:58Z</time>
  <course>237.38</course>
  <speed>1.731040149736568</speed>
  <fix>3d</fix>
</trkpt>
<trkpt lat="40.0714787" lon="-105.2294566">
  <ele>1583.0</ele>
  <time>2026-08-29T19:29:58Z</time>
  <course>235.75</course>
  <speed>1.74</speed>
  <fix>3d</fix>
</trkpt>
<trkpt lat="40.0714761" lon="-105.2294623">
  <ele>1583.1</ele>
  <time>2026-08-29T19:29:58Z</time>
  <course>237.83</course>
  <speed>1.734156855650607</speed>
  <fix>3d</fix>
</trkpt>
<trkpt lat="40.0714787" lon="-105.2294566">
  <ele>1583.0</ele>
  <time>2026-08-29T19:29:58Z</time>
  <course>235.75</course>
  <speed>1.74</speed>
  <fix>3d</fix>
</trkpt>
<trkpt lat="40.0714753" lon="-105.229464">
  <ele>1583.1</ele>
  <time>2026-08-29T19:29:58Z</time>
  <course>238.35</course>
  <speed>1.73738308959193</speed>
  <fix>3d</fix>
</trkpt>
<trkpt lat="40.071477" lon="-105.22946">
  <ele>1583.0</ele>
  <time>2026-08-29T19:29:58Z</time>
  <course>236.53</course>
  <speed>1.75</speed>
  <fix>3d</fix>
</trkpt>
<trkpt lat="40.0714744" lon="-105.2294658">
  <ele>1583.1</ele>
  <time>2026-08-29T19:29:58Z</time>
  <course>238.93</course>
  <speed>1.7492855684535902</speed>
  <fix>3d</fix>
</trkpt>
<trkpt lat="40.071477" lon="-105.22946">
  <ele>1583.0</ele>
  <time>2026-08-29T19:29:58Z</time>
  <course>236.53</course>
  <speed>1.75</speed>
  <fix>3d</fix>
</trkpt>
<trkpt lat="40.0714736" lon="-105.2294675">
  <ele>1583.1</ele>
  <time>2026-08-29T19:29:58Z</time>
  <course>239.6</course>
  <speed>1.7477127910500627</speed>
  <fix>3d</fix>
</trkpt>
<trkpt lat="40.0714753" lon="-105.2294635">
  <ele>1583.0</ele>
  <time>2026-08-29T19:29:58Z</time>
  <course>237.51</course>
  <speed>1.75</speed>
  <fix>3d</fix>
</trkpt>
<trkpt lat="40.0714728" lon="-105.2294693">
  <ele>1583.1</ele>
  <time>2026-08-29T19:29:58Z</time>
  <course>240.39</course>
  <speed>1.755135322418189</speed>
  <fix>3d</fix>
</trkpt>
<trkpt lat="40.0714753" lon="-105.2294635">
  <ele>1583.0</ele>
  <time>2026-08-29T19:29:58Z</time>
  <course>237.51</course>
  <speed>1.75</speed>
  <fix>3d</fix>
</trkpt>
<trkpt lat="40.071472" lon="-105.2294711">
  <ele>1583.11</ele>
  <time>2026-08-29T19:29:58Z</time>
  <course>241.33</course>
  <speed>1.762980430974774</speed>
  <fix>3d</fix>
</trkpt>
<trkpt lat="40.0714736" lon="-105.229467">
  <ele>1583.0</ele>
  <time>2026-08-29T19:29:58Z</time>
  <course>238.8</course>
  <speed>1.77</speed>
  <fix>3d</fix>
</trkpt>
<trkpt lat="40.0714712" lon="-105.2294729">
  <ele>1583.11</ele>
  <time>2026-08-29T19:29:58Z</time>
  <course>242.47</course>
  <speed>1.766635219845908</speed>
  <fix>3d</fix>
</trkpt>
<trkpt lat="40.071472" lon="-105.2294706">
  <ele>1583.0</ele>
  <time>2026-08-29T19:29:58Z</time>
  <course>240.57</course>
  <speed>1.78</speed>
  <fix>3d</fix>
</trkpt>
<trkpt lat="40.0714705" lon="-105.2294748">
  <ele>1583.11</ele>
  <time>2026-08-29T19:29:58Z</time>
  <course>243.87</course>
  <speed>1.78</speed>
  <fix>3d</fix>
</trkpt>
<trkpt lat="40.071472" lon="-105.2294706">
  <ele>1583.0</ele>
  <time>2026-08-29T19:29:58Z</time>
  <course>240.57</course>
  <speed>1.78</speed>
  <fix>3d</fix>
</trkpt>
<trkpt lat="40.0714698" lon="-105.2294767">
  <ele>1583.11</ele>
  <time>2026-08-29T19:29:58Z</time>
  <course>245.5</course>
  <speed>1.7860011198204777</speed>
  <fix>3d</fix>
</trkpt>
<trkpt lat="40.0714704" lon="-105.2294743">
  <ele>1583.0</ele>
  <time>2026-08-29T19:29:58Z</time>
  <course>243.13</course>
  <speed>1.8</speed>
  <fix>3d</fix>
</trkpt>
<trkpt lat="40.0714691" lon="-105.2294787">
  <ele>1583.11</ele>
  <time>2026-08-29T19:29:58Z</time>
  <course>247.33</course>
  <speed>1.8069310999592652</speed>
  <fix>3d</fix>
</trkpt>
<trkpt lat="40.0714704" lon="-105.2294743">
  <ele>1583.0</ele>
  <time>2026-08-29T19:29:58Z</time>
  <course>243.13</course>
  <speed>1.8</speed>
  <fix>3d</fix>
</trkpt>
<trkpt lat="40.0714685" lon="-105.2294806">
  <ele>1583.11</ele>
  <time>2026-08-29T19:29:58Z</time>
  <course>249.48</course>
  <speed>1.822361105818493</speed>
  <fix>3d</fix>
</trkpt>
<trkpt lat="40.0714691" lon="-105.2294781">
  <ele>1583.0</ele>
  <time>2026-08-29T19:29:58Z</time>
  <course>246.66</course>
  <speed>1.82</speed>
  <fix>3d</fix>
</trkpt>
<trkpt lat="40.0714679" lon="-105.2294827">
  <ele>1583.1</ele>
  <time>2026-08-29T19:29:58Z</time>
  <course>252.0</course>
  <speed>1.8374166647769363</speed>
  <fix>3d</fix>
</trkpt>
<trkpt lat="40.0714691" lon="-105.2294781">
  <ele>1583.0</ele>
  <time>2026-08-29T19:29:58Z</time>
  <course>246.66</course>
  <speed>1.82</speed>
  <fix>3d</fix>
</trkpt>
<trkpt lat="40.0714675" lon="-105.2294848">
  <ele>1583.1</ele>
  <time>2026-08-29T19:29:58Z</time>
  <course>254.7</course>
  <speed>1.8532404053441098</speed>
  <fix>3d</fix>
</trkpt>
<trkpt lat="40.0714679" lon="-105.2294822">
  <ele>1583.0</ele>
  <time>2026-08-29T19:29:58Z</time>
  <course>251.28</course>
  <speed>1.85</speed>
  <fix>3d</fix>
</trkpt>
<trkpt lat="40.071467" lon="-105.229487">
  <ele>1583.1</ele>
  <time>2026-08-29T19:29:58Z</time>
  <course>257.33</course>
  <speed>1.873205808233575</speed>
  <fix>3d</fix>
</trkpt>
<trkpt lat="40.0714679" lon="-105.2294822">
  <ele>1583.0</ele>
  <time>2026-08-29T19:29:58Z</time>
  <course>251.28</course>
  <speed>1.85</speed>
  <fix>3d</fix>
</trkpt>
<trkpt lat="40.0714667" lon="-105.2294892">
  <ele>1583.1</ele>
  <time>2026-08-29T19:29:58Z</time>
  <course>259.73</course>
  <speed>1.8971821209362056</speed>
  <fix>3d</fix>
</trkpt>
<trkpt lat="40.071467" lon="-105.2294864">
  <ele>1583.0</ele>
  <time>2026-08-29T19:29:58Z</time>
  <course>256.41</course>
  <speed>1.89</speed>
  <fix>3d</fix>
</trkpt>
<trkpt lat="40.0714664" lon="-105.2294914">
  <ele>1583.09</ele>
  <time>2026-08-29T19:29:58Z</time>
  <course>261.67</course>
  <speed>1.927615106809448</speed>
  <fix>3d</fix>
</trkpt>
<trkpt lat="40.071467" lon="-105.2294864">
  <ele>1583.0</ele>
  <time>2026-08-29T19:29:58Z</time>
  <course>256.41</course>
  <speed>1.89</speed>
  <fix>3d</fix>
</trkpt>
<trkpt lat="40.0714662" lon="-105.2294937">
  <ele>1583.09</ele>
  <time>2026-08-29T19:29:58Z</time>
  <course>262.83</course>
  <speed>1.892828571212935</speed>
  <fix>3d</fix>
</trkpt>
<trkpt lat="40.0714663" lon="-105.2294908">
  <ele>1583.0</ele>
  <time>2026-08-29T19:29:58Z</time>
  <course>260.43</course>
  <speed>1.91</speed>
  <fix>3d</fix>
</trkpt>
<trkpt lat="40.071466" lon="-105.2294959">
  <ele>1583.09</ele>
  <time>2026-08-29T19:29:58Z</time>
  <course>262.95</course>
  <speed>1.9226284092356485</speed>
  <fix>3d</fix>
</trkpt>
<trkpt lat="40.0714663" lon="-105.2294908">
  <ele>1583.0</ele>
  <time>2026-08-29T19:29:58Z</time>
  <course>260.43</course>
  <speed>1.91</speed>
  <fix>3d</fix>
</trkpt>
<trkpt lat="40.0714657" lon="-105.2294982">
  <ele>1583.09</ele>
  <time>2026-08-29T19:29:58Z</time>
  <course>262.95</course>
  <speed>1.952434377898525</speed>
  <fix>3d</fix>
</trkpt>
<trkpt lat="40.0714658" lon="-105.2294953">
  <ele>1583.0</ele>
  <time>2026-08-29T19:29:58Z</time>
  <course>262.05</course>
  <speed>1.93</speed>
  <fix>3d</fix>
</trkpt>
<trkpt lat="40.0714655" lon="-105.2295005">
  <ele>1583.09</ele>
  <time>2026-08-29T19:29:58Z</time>
  <course>262.97</course>
  <speed>1.972308292331602</speed>
  <fix>3d</fix>
</trkpt>
<trkpt lat="40.0714658" lon="-105.2294953">
  <ele>1583.0</ele>
  <time>2026-08-29T19:29:58Z</time>
  <course>262.05</course>
  <speed>1.93</speed>
  <fix>3d</fix>
</trkpt>
<trkpt lat="40.0714653" lon="-105.2295029">
  <ele>1583.09</ele>
  <time>2026-08-29T19:29:58Z</time>
  <course>262.96</course>
  <speed>1.9921847303902316</speed>
  <fix>3d</fix>
</trkpt>
<trkpt lat="40.0714658" lon="-105.2294953">
  <ele>1583.0</ele>
  <time>2026-08-29T19:29:58Z</time>
  <course>262.05</course>
  <speed>1.93</speed>
  <fix>3d</fix>
</trkpt>
<trkpt lat="40.071465" lon="-105.2295052">
  <ele>1583.09</ele>
  <time>2026-08-29T19:29:58Z</time>
  <course>262.96</course>
  <speed>2.013181561608391</speed>
  <fix>3d</fix>
</trkpt>
<trkpt lat="40.0714653" lon="-105.2294999">
  <ele>1583.0</ele>
  <time>2026-08-29T19:29:58Z</time>
  <course>262.12</course>
  <speed>1.98</speed>
  <fix>3d</fix>
</trkpt>
<trkpt lat="40.0714648" lon="-105.2295076">
  <ele>1583.09</ele>
  <time>2026-08-29T19:29:58Z</time>
  <course>262.96</course>
  <speed>2.033051893090779</speed>
  <fix>3d</fix>
</trkpt>
<trkpt lat="40.0714653" lon="-105.2294999">
  <ele>1583.0</ele>
  <time>2026-08-29T19:29:58Z</time>
  <course>262.12</course>
  <speed>1.98</speed>
  <fix>3d</fix>
</trkpt>
<trkpt lat="40.0714646" lon="-105.2295099">
  <ele>1583.09</ele>
  <time>2026-08-29T19:29:58Z</time>
  <course>262.96</course>
  <speed>2.0429880077964238</speed>
  <fix>3d</fix>
</trkpt>
<trkpt lat="40.0714648" lon="-105.2295045">
  <ele>1583.0</ele>
  <time>2026-08-29T19:29:58Z</time>
  <course>262.13</course>
  <speed>2.02</speed>
  <fix>3d</fix>
</trkpt>
<trkpt lat="40.0714643" lon="-105.2295123">
  <ele>1583.09</ele>
  <time>2026-08-29T19:29:58Z</time>
  <course>262.95</course>
  <speed>2.0640009689920205</speed>
  <fix>3d</fix>
</trkpt>
<trkpt lat="40.0714648" lon="-105.2295045">
  <ele>1583.0</ele>
  <time>2026-08-29T19:29:58Z</time>
  <course>262.13</course>
  <speed>2.02</speed>
  <fix>3d</fix>
</trkpt>
<trkpt lat="40.0714641" lon="-105.2295147">
  <ele>1583.09</ele>
  <time>2026-08-29T19:29:58Z</time>
  <course>262.95</course>
  <speed>2.0739334608419817</speed>
  <fix>3d</fix>
</trkpt>
<trkpt lat="40.0714643" lon="-105.2295092">
  <ele>1583.0</ele>
  <time>2026-08-29T19:29:58Z</time>
  <course>262.13</course>
  <speed>2.05</speed>
  <fix>3d</fix>
</trkpt>
<trkpt lat="40.0714638" lon="-105.2295171">
  <ele>1583.08</ele>
  <time>2026-08-29T19:29:58Z</time>
  <course>262.95</course>
  <speed>2.0838665984174707</speed>
  <fix>3d</fix>
</trkpt>
<trkpt lat="40.0714643" lon="-105.2295092">
  <ele>1583.0</ele>
  <time>2026-08-29T19:29:58Z</time>
  <course>262.13</course>
  <speed>2.05</speed>
  <fix>3d</fix>
</trkpt>
<trkpt lat="40.0714636" lon="-105.2295196">
  <ele>1583.08</ele>
  <time>2026-08-29T19:29:58Z</time>
  <course>262.95</course>
  <speed>2.093800372528384</speed>
  <fix>3d</fix>
</trkpt>
<trkpt lat="40.0714638" lon="-105.229514">
  <ele>1583.0</ele>
  <time>2026-08-29T19:29:58Z</time>
  <course>262.13</course>
  <speed>2.08</speed>
  <fix>3d</fix>
</trkpt>
<trkpt lat="40.0714633" lon="-105.229522">
  <ele>1583.08</ele>
  <time>2026-08-29T19:29:58Z</time>
  <course>262.95</course>
  <speed>2.093800372528384</speed>
  <fix>3d</fix>
</trkpt>
<trkpt lat="40.0714633" lon="-105.2295189">
  <ele>1583.0</ele>
  <time>2026-08-29T19:29:58Z</time>
  <course>262.13</course>
  <speed>2.1</speed>
  <fix>3d</fix>
</trkpt>
<trkpt lat="40.071463" lon="-105.2295245">
  <ele>1583.08</ele>
  <time>2026-08-29T19:29:58Z</time>
  <course>262.94</course>
  <speed>2.104899047460471</speed>
  <fix>3d</fix>
</trkpt>
<trkpt lat="40.0714633" lon="-105.2295189">
  <ele>1583.0</ele>
  <time>2026-08-29T19:29:58Z</time>
  <course>262.13</course>
  <speed>2.1</speed>
  <fix>3d</fix>
</trkpt>
<trkpt lat="40.0714628" lon="-105.2295269">
  <ele>1583.08</ele>
  <time>2026-08-29T19:29:58Z</time>
  <course>262.94</course>
  <speed>2.1148285982556603</speed>
  <fix>3d</fix>
</trkpt>
<trkpt lat="40.0714627" lon="-105.2295238">
  <ele>1583.0</ele>
  <time>2026-08-29T19:29:58Z</time>
  <course>262.13</course>
  <speed>2.11</speed>
  <fix>3d</fix>
</trkpt>
<trkpt lat="40.0714625" lon="-105.2295294">
  <ele>1583.08</ele>
  <time>2026-08-29T19:29:58Z</time>
  <course>262.94</course>
  <speed>2.1148285982556603</speed>
  <fix>3d</fix>
</trkpt>
<trkpt lat="40.0714627" lon="-105.2295238">
  <ele>1583.0</ele>
  <time>2026-08-29T19:29:58Z</time>
  <course>262.13</course>
  <speed>2.11</speed>
  <fix>3d</fix>
</trkpt>
<trkpt lat="40.0714623" lon="-105.2295319">
  <ele>1583.08</ele>
  <time>2026-08-29T19:29:58Z</time>
  <course>262.94</course>
  <speed>2.1247588098417194</speed>
  <fix>3d</fix>
</trkpt>
<trkpt lat="40.0714622" lon="-105.2295288">
  <ele>1583.0</ele>
  <time>2026-08-29T19:29:58Z</time>
  <course>262.13</course>
  <speed>2.12</speed>
  <fix>3d</fix>
</trkpt>
<trkpt lat="40.071462" lon="-105.2295344">
  <ele>1583.09</ele>
  <time>2026-08-29T19:29:58Z</time>
  <course>262.93</course>
  <speed>2.1247588098417194</speed>
  <fix>3d</fix>
</trkpt>
<trkpt lat="40.0714622" lon="-105.2295288">
  <ele>1583.0</ele>
  <time>2026-08-29T19:29:58Z</time>
  <course>262.13</course>
  <speed>2.12</speed>
  <fix>3d</fix>
</trkpt>
<trkpt lat="40.0714617" lon="-105.2295369">
  <ele>1583.09</ele>
  <time>2026-08-29T19:29:58Z</time>
  <course>262.93</course>
  <speed>2.135883891975404</speed>
  <fix>3d</fix>
</trkpt>
<trkpt lat="40.0714617" lon="-105.2295337">
  <ele>1583.0</ele>
  <time>2026-08-29T19:29:58Z</time>
  <course>262.13</course>
  <speed>2.13</speed>
  <fix>3d</fix>
</trkpt>
<trkpt lat="40.0714614" lon="-105.2295394">
  <ele>1583.09</ele>
  <time>2026-08-29T19:29:58Z</time>
  <course>262.93</course>
  <speed>2.135883891975404</speed>
  <fix>3d</fix>
</trkpt>
<trkpt lat="40.0714617" lon="-105.2295337">
  <ele>1583.0</ele>
  <time>2026-08-29T19:29:58Z</time>
  <course>262.13</course>
  <speed>2.13</speed>
  <fix>3d</fix>
</trkpt>
<trkpt lat="40.0714612" lon="-105.229542">
  <ele>1583.1</ele>
  <time>2026-08-29T19:29:58Z</time>
  <course>262.93</course>
  <speed>2.145809870421888</speed>
  <fix>3d</fix>
</trkpt>
<trkpt lat="40.0714612" lon="-105.2295387">
  <ele>1583.0</ele>
  <time>2026-08-29T19:29:58Z</time>
  <course>262.13</course>
  <speed>2.14</speed>
  <fix>3d</fix>
</trkpt>
<trkpt lat="40.0714609" lon="-105.2295445">
  <ele>1583.1</ele>
  <time>2026-08-29T19:29:58Z</time>
  <course>262.93</course>
  <speed>2.145809870421888</speed>
  <fix>3d</fix>
</trkpt>
<trkpt lat="40.0714612" lon="-105.2295387">
  <ele>1583.0</ele>
  <time>2026-08-29T19:29:58Z</time>
  <course>262.13</course>
  <speed>2.14</speed>
  <fix>3d</fix>
</trkpt>
<trkpt lat="40.0714606" lon="-105.229547">
  <ele>1583.1</ele>
  <time>2026-08-29T19:29:58Z</time>
  <course>262.92</course>
  <speed>2.145809870421888</speed>
  <fix>3d</fix>
</trkpt>
<trkpt lat="40.0714606" lon="-105.2295437">
  <ele>1583.0</ele>
  <time>2026-08-29T19:29:58Z</time>
  <course>262.13</course>
  <speed>2.15</speed>
  <fix>3d</fix>
</trkpt>
<trkpt lat="40.0714603" lon="-105.2295495">
  <ele>1583.1</ele>
  <time>2026-08-29T19:29:58Z</time>
  <course>262.92</course>
  <speed>2.155736533067063</speed>
  <fix>3d</fix>
</trkpt>
<trkpt lat="40.0714606" lon="-105.2295437">
  <ele>1583.0</ele>
  <time>2026-08-29T19:29:58Z</time>
  <course>262.13</course>
  <speed>2.15</speed>
  <fix>3d</fix>
</trkpt>
<trkpt lat="40.0714601" lon="-105.2295521">
  <ele>1583.1</ele>
  <time>2026-08-29T19:29:58Z</time>
  <course>262.92</course>
  <speed>2.155736533067063</speed>
  <fix>3d</fix>
</trkpt>
<trkpt lat="40.0714601" lon="-105.2295488">
  <ele>1583.0</ele>
  <time>2026-08-29T19:29:58Z</time>
  <course>262.13</course>
  <speed>2.15</speed>
  <fix>3d</fix>
</trkpt>
<trkpt lat="40.0714598" lon="-105.2295546">
  <ele>1583.1</ele>
  <time>2026-08-29T19:29:58Z</time>
  <course>262.92</course>
  <speed>2.156965461012299</speed>
  <fix>3d</fix>
</trkpt>
<trkpt lat="40.0714601" lon="-105.2295488">
  <ele>1583.0</ele>
  <time>2026-08-29T19:29:58Z</time>
  <course>262.13</course>
  <speed>2.15</speed>
  <fix>3d</fix>
</trkpt>
<trkpt lat="40.0714595" lon="-105.2295571">
  <ele>1583.1</ele>
  <time>2026-08-29T19:29:58Z</time>
  <course>262.92</course>
  <speed>2.156965461012299</speed>
  <fix>3d</fix>
</trkpt>
<trkpt lat="40.0714601" lon="-105.2295488">
  <ele>1583.0</ele>
  <time>2026-08-29T19:29:58Z</time>
  <course>262.13</course>
  <speed>2.15</speed>
  <fix>3d</fix>
</trkpt>
<trkpt lat="40.0714593" lon="-105.2295596">
  <ele>1583.1</ele>
  <time>2026-08-29T19:29:58Z</time>
  <course>262.92</course>
  <speed>2.156965461012299</speed>
  <fix>3d</fix>
</trkpt>
<trkpt lat="40.0714596" lon="-105.2295537">
  <ele>1583.0</ele>
  <time>2026-08-29T19:29:58Z</time>
  <course>262.13</course>
  <speed>2.16</speed>
  <fix>3d</fix>
</trkpt>
<trkpt lat="40.071459" lon="-105.2295621">
  <ele>1583.1</ele>
  <time>2026-08-29T19:29:58Z</time>
  <course>262.92</course>
  <speed>2.156965461012299</speed>
  <fix>3d</fix>
</trkpt>
<trkpt lat="40.0714596" lon="-105.2295537">
  <ele>1583.0</ele>
  <time>2026-08-29T19:29:58Z</time>
  <course>262.13</course>
  <speed>2.16</speed>
  <fix>3d</fix>
</trkpt>
<trkpt lat="40.0714587" lon="-105.2295646">
  <ele>1583.09</ele>
  <time>2026-08-29T19:29:58Z</time>
  <course>262.92</course>
  <speed>2.156965461012299</speed>
  <fix>3d</fix>
</trkpt>
<trkpt lat="40.071459" lon="-105.2295588">
  <ele>1583.0</ele>
  <time>2026-08-29T19:29:58Z</time>
  <course>262.13</course>
  <speed>2.16</speed>
  <fix>3d</fix>
</trkpt>
<trkpt lat="40.0714584" lon="-105.2295671">
  <ele>1583.09</ele>
  <time>2026-08-29T19:29:58Z</time>
  <course>262.92</course>
  <speed>2.156965461012299</speed>
  <fix>3d</fix>
</trkpt>
<trkpt lat="40.071459" lon="-105.2295588">
  <ele>1583.0</ele>
  <time>2026-08-29T19:29:58Z</time>
  <course>262.13</course>
  <speed>2.16</speed>
  <fix>3d</fix>
</trkpt>
<trkpt lat="40.0714582" lon="-105.2295696">
  <ele>1583.09</ele>
  <time>2026-08-29T19:29:58Z</time>
  <course>262.92</course>
  <speed>2.156965461012299</speed>
  <fix>3d</fix>
</trkpt>
<trkpt lat="40.0714585" lon="-105.2295638">
  <ele>1583.0</ele>
  <time>2026-08-29T19:29:58Z</time>
  <course>262.13</course>
  <speed>2.16</speed>
  <fix>3d</fix>
</trkpt>
<trkpt lat="40.0714579" lon="-105.2295721">
  <ele>1583.09</ele>
  <time>2026-08-29T19:29:58Z</time>
  <course>262.92</course>
  <speed>2.156965461012299</speed>
  <fix>3d</fix>
</trkpt>
<trkpt lat="40.071458" lon="-105.2295689">
  <ele>1583.0</ele>
  <time>2026-08-29T19:29:58Z</time>
  <course>262.13</course>
  <speed>2.16</speed>
  <fix>3d</fix>
</trkpt>
<trkpt lat="40.0714576" lon="-105.2295746">
  <ele>1583.09</ele>
  <time>2026-08-29T19:29:58Z</time>
  <course>263.21</course>
  <speed>2.155736533067063</speed>
  <fix>3d</fix>
</trkpt>
<trkpt lat="40.071458" lon="-105.2295689">
  <ele>1583.0</ele>
  <time>2026-08-29T19:29:58Z</time>
  <course>262.13</course>
  <speed>2.16</speed>
  <fix>3d</fix>
</trkpt>
<trkpt lat="40.0714574" lon="-105.2295772">
  <ele>1583.09</ele>
  <time>2026-08-29T19:29:58Z</time>
  <course>264.67</course>
  <speed>2.1592822881689187</speed>
  <fix>3d</fix>
</trkpt>
<trkpt lat="40.0714575" lon="-105.2295739">
  <ele>1583.0</ele>
  <time>2026-08-29T19:29:58Z</time>
  <course>263.01</course>
  <speed>2.16</speed>
  <fix>3d</fix>
</trkpt>
<trkpt lat="40.0714572" lon="-105.2295797">
  <ele>1583.09</ele>
  <time>2026-08-29T19:29:58Z</time>
  <course>267.22</course>
  <speed>2.1627991122617005</speed>
  <fix>3d</fix>
</trkpt>
<trkpt lat="40.0714575" lon="-105.2295739">
  <ele>1583.0</ele>
  <time>2026-08-29T19:29:58Z</time>
  <course>263.01</course>
  <speed>2.16</speed>
  <fix>3d</fix>
</trkpt>
<trkpt lat="40.0714572" lon="-105.2295822">
  <ele>1583.09</ele>
  <time>2026-08-29T19:29:58Z</time>
  <course>270.89</course>
  <speed>2.160092590608097</speed>
  <fix>3d</fix>
</trkpt>
<trkpt lat="40.0714571" lon="-105.229579">
  <ele>1583.0</ele>
  <time>2026-08-29T19:29:58Z</time>
  <course>267.03</course>
  <speed>2.16</speed>
  <fix>3d</fix>
</trkpt>
<trkpt lat="40.0714573" lon="-105.2295848">
  <ele>1583.1</ele>
  <time>2026-08-29T19:29:58Z</time>
  <course>275.65</course>
  <speed>2.169239498073</speed>
  <fix>3d</fix>
</trkpt>
<trkpt lat="40.0714571" lon="-105.229579">
  <ele>1583.0</ele>
  <time>2026-08-29T19:29:58Z</time>
  <course>267.03</course>
  <speed>2.16</speed>
  <fix>3d</fix>
</trkpt>
<trkpt lat="40.0714574" lon="-105.2295873">
  <ele>1583.1</ele>
  <time>2026-08-29T19:29:58Z</time>
  <course>281.51</course>
  <speed>2.1631689716709603</speed>
  <fix>3d</fix>
</trkpt>
<trkpt lat="40.0714572" lon="-105.229584">
  <ele>1583.0</ele>
  <time>2026-08-29T19:29:58Z</time>
  <course>275.49</course>
  <speed>2.17</speed>
  <fix>3d</fix>
</trkpt>
<trkpt lat="40.071458" lon="-105.2295898">
  <ele>1583.1</ele>
  <time>2026-08-29T19:29:58Z</time>
  <course>288.51</course>
  <speed>2.1630071659613153</speed>
  <fix>3d</fix>
</trkpt>
<trkpt lat="40.0714572" lon="-105.229584">
  <ele>1583.0</ele>
  <time>2026-08-29T19:29:58Z</time>
  <course>275.49</course>
  <speed>2.17</speed>
  <fix>3d</fix>
</trkpt>
<trkpt lat="40.0714587" lon="-105.2295922">
  <ele>1583.1</ele>
  <time>2026-08-29T19:29:58Z</time>
  <course>296.54</course>
  <speed>2.1511159894343215</speed>
  <fix>3d</fix>
</trkpt>
<trkpt lat="40.0714579" lon="-105.229589">
  <ele>1583.0</ele>
  <time>2026-08-29T19:29:58Z</time>
  <course>288.27</course>
  <speed>2.16</speed>
  <fix>3d</fix>
</trkpt>
<trkpt lat="40.0714598" lon="-105.2295943">
  <ele>1583.1</ele>
  <time>2026-08-29T19:29:58Z</time>
  <course>305.63</course>
  <speed>2.1402102700435766</speed>
  <fix>3d</fix>
</trkpt>
<trkpt lat="40.0714579" lon="-105.229589">
  <ele>1583.0</ele>
  <time>2026-08-29T19:29:58Z</time>
  <course>288.27</course>
  <speed>2.16</speed>
  <fix>3d</fix>
</trkpt>
<trkpt lat="40.071461" lon="-105.2295962">
  <ele>1583.1</ele>
  <time>2026-08-29T19:29:58Z</time>
  <course>315.77</course>
  <speed>2.1148285982556603</speed>
  <fix>3d</fix>
</trkpt>
<trkpt lat="40.0714596" lon="-105.2295935">
  <ele>1583.0</ele>
  <time>2026-08-29T19:29:58Z</time>
  <course>305.32</course>
  <speed>2.12</speed>
  <fix>3d</fix>
</trkpt>
<trkpt lat="40.0714626" lon="-105.2295977">
  <ele>1583.1</ele>
  <time>2026-08-29T19:29:58Z</time>
  <course>326.68</course>
  <speed>2.086144769664848</speed>
  <fix>3d</fix>
</trkpt>
<trkpt lat="40.0714596" lon="-105.2295935">
  <ele>1583.0</ele>
  <time>2026-08-29T19:29:58Z</time>
  <course>305.32</course>
  <speed>2.12</speed>
  <fix>3d</fix>
</trkpt>
<trkpt lat="40.0714643" lon="-105.2295988">
  <ele>1583.1</ele>
  <time>2026-08-29T19:29:58Z</time>
  <course>337.56</course>
  <speed>2.061286006356226</speed>
  <fix>3d</fix>
</trkpt>
<trkpt lat="40.0714622" lon="-105.229597">
  <ele>1583.0</ele>
  <time>2026-08-29T19:29:58Z</time>
  <course>325.78</course>
  <speed>2.07</speed>
  <fix>3d</fix>
</trkpt>
<trkpt lat="40.0714661" lon="-105.2295994">
  <ele>1583.1</ele>
  <time>2026-08-29T19:29:58Z</time>
  <course>348.44</course>
  <speed>2.0419843290289963</speed>
  <fix>3d</fix>
</trkpt>
<trkpt lat="40.0714622" lon="-105.229597">
  <ele>1583.0</ele>
  <time>2026-08-29T19:29:58Z</time>
  <course>325.78</course>
  <speed>2.07</speed>
  <fix>3d</fix>
</trkpt>
<trkpt lat="40.0714679" lon="-105.2295996">
  <ele>1583.1</ele>
  <time>2026-08-29T19:29:58Z</time>
  <course>359.34</course>
  <speed>2.030098519776811</speed>
  <fix>3d</fix>
</trkpt>
<trkpt lat="40.0714622" lon="-105.229597">
  <ele>1583.0</ele>
  <time>2026-08-29T19:29:58Z</time>
  <course>325.78</course>
  <speed>2.07</speed>
  <fix>3d</fix>
</trkpt>
<trkpt lat="40.0714698" lon="-105.2295993">
  <ele>1583.1</ele>
  <time>2026-08-29T19:29:58Z</time>
  <course>10.22</course>
  <speed>2.022003956474863</speed>
  <fix>3d</fix>
</trkpt>
<trkpt lat="40.0714656" lon="-105.2295989">
  <ele>1583.0</ele>
  <time>2026-08-29T19:29:58Z</time>
  <course>347.64</course>
  <speed>2.03</speed>
  <fix>3d</fix>
</trkpt>
<trkpt lat="40.0714715" lon="-105.2295986">
  <ele>1583.1</ele>
  <time>2026-08-29T19:29:58Z</time>
  <course>21.11</course>
  <speed>2.0038463014912096</speed>
  <fix>3d</fix>
</trkpt>
<trkpt lat="40.0714656" lon="-105.2295989">
  <ele>1583.0</ele>
  <time>2026-08-29T19:29:58Z</time>
  <course>347.64</course>
  <speed>2.03</speed>
  <fix>3d</fix>
</trkpt>
<trkpt lat="40.071473" lon="-105.2295975">
  <ele>1583.1</ele>
  <time>2026-08-29T19:29:58Z</time>
  <course>31.98</course>
  <speed>1.9913814300630606</speed>
  <fix>3d</fix>
</trkpt>
<trkpt lat="40.0714692" lon="-105.2295989">
  <ele>1583.0</ele>
  <time>2026-08-29T19:29:58Z</time>
  <course>9.46</course>
  <speed>1.99</speed>
  <fix>3d</fix>
</trkpt>
<trkpt lat="40.0714744" lon="-105.229596">
  <ele>1583.1</ele>
  <time>2026-08-29T19:29:58Z</time>
  <course>42.79</course>
  <speed>1.9588006534611937</speed>
  <fix>3d</fix>
</trkpt>
<trkpt lat="40.0714692" lon="-105.2295989">
  <ele>1583.0</ele>
  <time>2026-08-29T19:29:58Z</time>
  <course>9.46</course>
  <speed>1.99</speed>
  <fix>3d</fix>
</trkpt>
<trkpt lat="40.0714755" lon="-105.2295942">
  <ele>1583.1</ele>
  <time>2026-08-29T19:29:58Z</time>
  <course>52.74</course>
  <speed>1.8925115587493777</speed>
  <fix>3d</fix>
</trkpt>
<trkpt lat="40.0714725" lon="-105.2295973">
  <ele>1583.0</ele>
  <time>2026-08-29T19:29:58Z</time>
  <course>31.13</course>
  <speed>1.95</speed>
  <fix>3d</fix>
</trkpt>
<trkpt lat="40.0714763" lon="-105.2295924">
  <ele>1583.1</ele>
  <time>2026-08-29T19:29:58Z</time>
  <course>61.63</course>
  <speed>1.8022763384120648</speed>
  <fix>3d</fix>
</trkpt>
<trkpt lat="40.0714725" lon="-105.2295973">
  <ele>1583.0</ele>
  <time>2026-08-29T19:29:58Z</time>
  <course>31.13</course>
  <speed>1.95</speed>
  <fix>3d</fix>
</trkpt>
<trkpt lat="40.0714769" lon="-105.2295904">
  <ele>1583.1</ele>
  <time>2026-08-29T19:29:58Z</time>
  <course>69.57</course>
  <speed>1.7424408167854653</speed>
  <fix>3d</fix>
</trkpt>
<trkpt lat="40.0714751" lon="-105.2295945">
  <ele>1583.0</ele>
  <time>2026-08-29T19:29:58Z</time>
  <course>51.11</course>
  <speed>1.85</speed>
  <fix>3d</fix>
</trkpt>
<trkpt lat="40.0714773" lon="-105.2295885">
  <ele>1583.1</ele>
  <time>2026-08-29T19:29:58Z</time>
  <course>76.43</course>
  <speed>1.7062825088478168</speed>
  <fix>3d</fix>
</trkpt>
<trkpt lat="40.0714767" lon="-105.229591">
  <ele>1583.0</ele>
  <time>2026-08-29T19:29:58Z</time>
  <course>68.06</course>
  <speed>1.73</speed>
  <fix>3d</fix>
</trkpt>
<trkpt lat="40.0714776" lon="-105.2295865">
  <ele>1583.11</ele>
  <time>2026-08-29T19:29:58Z</time>
  <course>82.25</course>
  <speed>1.6995587662684688</speed>
  <fix>3d</fix>
</trkpt>
<trkpt lat="40.0714767" lon="-105.229591">
  <ele>1583.0</ele>
  <time>2026-08-29T19:29:58Z</time>
  <course>68.06</course>
  <speed>1.73</speed>
  <fix>3d</fix>
</trkpt>
<trkpt lat="40.0714776" lon="-105.2295845">
  <ele>1583.11</ele>
  <time>2026-08-29T19:29:58Z</time>
  <course>86.97</course>
  <speed>1.7004705231199981</speed>
  <fix>3d</fix>
</trkpt>
<trkpt lat="40.0714775" lon="-105.2295871">
  <ele>1583.0</ele>
  <time>2026-08-29T19:29:58Z</time>
  <course>80.9</course>
  <speed>1.68</speed>
  <fix>3d</fix>
</trkpt>
<trkpt lat="40.0714776" lon="-105.2295825">
  <ele>1583.11</ele>
  <time>2026-08-29T19:29:58Z</time>
  <course>90.67</course>
  <speed>1.710730837975396</speed>
  <fix>3d</fix>
</trkpt>
<trkpt lat="40.0714775" lon="-105.2295871">
  <ele>1583.0</ele>
  <time>2026-08-29T19:29:58Z</time>
  <course>80.9</course>
  <speed>1.68</speed>
  <fix>3d</fix>
</trkpt>
<trkpt lat="40.0714776" lon="-105.2295805">
  <ele>1583.1</ele>
  <time>2026-08-29T19:29:58Z</time>
  <course>93.32</course>
  <speed>1.734877517290486</speed>
  <fix>3d</fix>
</trkpt>
<trkpt lat="40.0714777" lon="-105.2295831">
  <ele>1583.0</ele>
  <time>2026-08-29T19:29:58Z</time>
  <course>89.4</course>
  <speed>1.7</speed>
  <fix>3d</fix>
</trkpt>
<trkpt lat="40.0714775" lon="-105.2295784">
  <ele>1583.1</ele>
  <time>2026-08-29T19:29:58Z</time>
  <course>95.53</course>
  <speed>1.7713271860387625</speed>
  <fix>3d</fix>
</trkpt>
<trkpt lat="40.0714777" lon="-105.2295831">
  <ele>1583.0</ele>
  <time>2026-08-29T19:29:58Z</time>
  <course>89.4</course>
  <speed>1.7</speed>
  <fix>3d</fix>
</trkpt>
<trkpt lat="40.0714773" lon="-105.2295763">
  <ele>1583.1</ele>
  <time>2026-08-29T19:29:58Z</time>
  <course>97.45</course>
  <speed>1.7988885457415085</speed>
  <fix>3d</fix>
</trkpt>
<trkpt lat="40.0714776" lon="-105.2295791">
  <ele>1583.0</ele>
  <time>2026-08-29T19:29:58Z</time>
  <course>94.63</course>
  <speed>1.75</speed>
  <fix>3d</fix>
</trkpt>
<trkpt lat="40.071477" lon="-105.2295742">
  <ele>1583.1</ele>
  <time>2026-08-29T19:29:58Z</time>
  <course>99.05</course>
  <speed>1.8363550854886426</speed>
  <fix>3d</fix>
</trkpt>
<trkpt lat="40.0714776" lon="-105.2295791">
  <ele>1583.0</ele>
  <time>2026-08-29T19:29:58Z</time>
  <course>94.63</course>
  <speed>1.75</speed>
  <fix>3d</fix>
</trkpt>
<trkpt lat="40.0714767" lon="-105.2295721">
  <ele>1583.1</ele>
  <time>2026-08-29T19:29:58Z</time>
  <course>100.43</course>
  <speed>1.8748866632412744</speed>
  <fix>3d</fix>
</trkpt>
<trkpt lat="40.0714773" lon="-105.229575">
  <ele>1583.0</ele>
  <time>2026-08-29T19:29:58Z</time>
  <course>98.17</course>
  <speed>1.82</speed>
  <fix>3d</fix>
</trkpt>
<trkpt lat="40.0714764" lon="-105.2295699">
  <ele>1583.1</ele>
  <time>2026-08-29T19:29:58Z</time>
  <course>101.59</course>
  <speed>1.9123022773609823</speed>
  <fix>3d</fix>
</trkpt>
<trkpt lat="40.0714773" lon="-105.229575">
  <ele>1583.0</ele>
  <time>2026-08-29T19:29:58Z</time>
  <course>98.17</course>
  <speed>1.82</speed>
  <fix>3d</fix>
</trkpt>
<trkpt lat="40.0714761" lon="-105.2295677">
  <ele>1583.1</ele>
  <time>2026-08-29T19:29:58Z</time>
  <course>102.56</course>
  <speed>1.9382982226685346</speed>
  <fix>3d</fix>
</trkpt>
<trkpt lat="40.0714768" lon="-105.2295707">
  <ele>1583.0</ele>
  <time>2026-08-29T19:29:58Z</time>
  <course>100.73</course>
  <speed>1.89</speed>
  <fix>3d</fix>
</trkpt>
<trkpt lat="40.0714757" lon="-105.2295654">
  <ele>1583.1</ele>
  <time>2026-08-29T19:29:58Z</time>
  <course>103.36</course>
  <speed>1.9646119209655633</speed>
  <fix>3d</fix>
</trkpt>
<trkpt lat="40.0714768" lon="-105.2295707">
  <ele>1583.0</ele>
  <time>2026-08-29T19:29:58Z</time>
  <course>100.73</course>
  <speed>1.89</speed>
  <fix>3d</fix>
</trkpt>
<trkpt lat="40.0714753" lon="-105.2295632">
  <ele>1583.09</ele>
  <time>2026-08-29T19:29:58Z</time>
  <course>104.02</course>
  <speed>1.9815398053029367</speed>
  <fix>3d</fix>
</trkpt>
<trkpt lat="40.0714761" lon="-105.2295662">
  <ele>1583.0</ele>
  <time>2026-08-29T19:29:58Z</time>
  <course>102.53</course>
  <speed>1.94</speed>
  <fix>3d</fix>
</trkpt>
<trkpt lat="40.0714749" lon="-105.2295609">
  <ele>1583.09</ele>
  <time>2026-08-29T19:29:58Z</time>
  <course>104.57</course>
  <speed>1.9937151250868315</speed>
  <fix>3d</fix>
</trkpt>
<trkpt lat="40.0714761" lon="-105.2295662">
  <ele>1583.0</ele>
  <time>2026-08-29T19:29:58Z</time>
  <course>102.53</course>
  <speed>1.94</speed>
  <fix>3d</fix>
</trkpt>
<trkpt lat="40.0714744" lon="-105.2295586">
  <ele>1583.09</ele>
  <time>2026-08-29T19:29:58Z</time>
  <course>105.03</course>
  <speed>2.0084820138602186</speed>
  <fix>3d</fix>
</trkpt>
<trkpt lat="40.0714761" lon="-105.2295662">
  <ele>1583.0</ele>
  <time>2026-08-29T19:29:58Z</time>
  <course>102.53</course>
  <speed>1.94</speed>
  <fix>3d</fix>
</trkpt>
<trkpt lat="40.071474" lon="-105.2295564">
  <ele>1583.09</ele>
  <time>2026-08-29T19:29:58Z</time>
  <course>105.4</course>
  <speed>2.0207424378183383</speed>
  <fix>3d</fix>
</trkpt>
<trkpt lat="40.0714753" lon="-105.2295617">
  <ele>1583.0</ele>
  <time>2026-08-29T19:29:58Z</time>
  <course>103.77</course>
  <speed>1.98</speed>
  <fix>3d</fix>
</trkpt>
<trkpt lat="40.0714736" lon="-105.2295541">
  <ele>1583.09</ele>
  <time>2026-08-29T19:29:58Z</time>
  <course>105.71</course>
  <speed>2.02338824747007</speed>
  <fix>3d</fix>
</trkpt>
<trkpt lat="40.0714753" lon="-105.2295617">
  <ele>1583.0</ele>
  <time>2026-08-29T19:29:58Z</time>
  <course>103.77</course>
  <speed>1.98</speed>
  <fix>3d</fix>
</trkpt>
<trkpt lat="40.0714731" lon="-105.2295518">
  <ele>1583.09</ele>
  <time>2026-08-29T19:29:58Z</time>
  <course>105.97</course>
  <speed>2.035706265648362</speed>
  <fix>3d</fix>
</trkpt>
<trkpt lat="40.0714744" lon="-105.2295571">
  <ele>1583.0</ele>
  <time>2026-08-29T19:29:58Z</time>
  <course>104.62</course>
  <speed>2.01</speed>
  <fix>3d</fix>
</trkpt>
<trkpt lat="40.0714726" lon="-105.2295495">
  <ele>1583.09</ele>
  <time>2026-08-29T19:29:58Z</time>
  <course>106.18</course>
  <speed>2.035706265648362</speed>
  <fix>3d</fix>
</trkpt>
<trkpt lat="40.0714744" lon="-105.2295571">
  <ele>1583.0</ele>
  <time>2026-08-29T19:29:58Z</time>
  <course>104.62</course>
  <speed>2.01</speed>
  <fix>3d</fix>
</trkpt>
<trkpt lat="40.0714722" lon="-105.2295472">
  <ele>1583.09</ele>
  <time>2026-08-29T19:29:58Z</time>
  <course>106.35</course>
  <speed>2.0384307689985453</speed>
  <fix>3d</fix>
</trkpt>
<trkpt lat="40.0714734" lon="-105.2295526">
  <ele>1583.0</ele>
  <time>2026-08-29T19:29:58Z</time>
  <course>105.19</course>
  <speed>2.03</speed>
  <fix>3d</fix>
</trkpt>
<trkpt lat="40.0714717" lon="-105.2295449">
  <ele>1583.08</ele>
  <time>2026-08-29T19:29:58Z</time>
  <course>106.49</course>
  <speed>2.0384307689985453</speed>
  <fix>3d</fix>
</trkpt>
<trkpt lat="40.0714725" lon="-105.229548">
  <ele>1583.0</ele>
  <time>2026-08-29T19:29:58Z</time>
  <course>105.58</course>
  <speed>2.04</speed>
  <fix>3d</fix>
</trkpt>
<trkpt lat="40.0714712" lon="-105.2295426">
  <ele>1583.09</ele>
  <time>2026-08-29T19:29:58Z</time>
  <course>106.6</course>
  <speed>2.0384307689985453</speed>
  <fix>3d</fix>
</trkpt>
<trkpt lat="40.0714725" lon="-105.229548">
  <ele>1583.0</ele>
  <time>2026-08-29T19:29:58Z</time>
  <course>105.58</course>
  <speed>2.04</speed>
  <fix>3d</fix>
</trkpt>
<trkpt lat="40.0714707" lon="-105.2295403">
  <ele>1583.09</ele>
  <time>2026-08-29T19:29:58Z</time>
  <course>106.68</course>
  <speed>2.0384307689985453</speed>
  <fix>3d</fix>
</trkpt>
<trkpt lat="40.0714715" lon="-105.2295433">
  <ele>1583.0</ele>
  <time>2026-08-29T19:29:58Z</time>
  <course>105.83</course>
  <speed>2.05</speed>
  <fix>3d</fix>
</trkpt>
<trkpt lat="40.0714702" lon="-105.229538">
  <ele>1583.09</ele>
  <time>2026-08-29T19:29:58Z</time>
  <course>106.74</course>
  <speed>2.0384307689985453</speed>
  <fix>3d</fix>
</trkpt>
<trkpt lat="40.0714715" lon="-105.2295433">
  <ele>1583.0</ele>
  <time>2026-08-29T19:29:58Z</time>
  <course>105.83</course>
  <speed>2.05</speed>
  <fix>3d</fix>
</trkpt>
<trkpt lat="40.0714697" lon="-105.2295357">
  <ele>1583.09</ele>
  <time>2026-08-29T19:29:58Z</time>
  <course>106.79</course>
  <speed>2.0384307689985453</speed>
  <fix>3d</fix>
</trkpt>
<trkpt lat="40.0714704" lon="-105.2295387">
  <ele>1583.0</ele>
  <time>2026-08-29T19:29:58Z</time>
  <course>105.99</course>
  <speed>2.05</speed>
  <fix>3d</fix>
</trkpt>
<trkpt lat="40.0714692" lon="-105.2295334">
  <ele>1583.09</ele>
  <time>2026-08-29T19:29:58Z</time>
  <course>106.82</course>
  <speed>2.0384307689985453</speed>
  <fix>3d</fix>
</trkpt>
<trkpt lat="40.0714704" lon="-105.2295387">
  <ele>1583.0</ele>
  <time>2026-08-29T19:29:58Z</time>
  <course>105.99</course>
  <speed>2.05</speed>
  <fix>3d</fix>
</trkpt>
<trkpt lat="40.0714687" lon="-105.2295311">
  <ele>1583.09</ele>
  <time>2026-08-29T19:29:58Z</time>
  <course>106.85</course>
  <speed>2.0384307689985453</speed>
  <fix>3d</fix>
</trkpt>
<trkpt lat="40.0714695" lon="-105.229534">
  <ele>1583.0</ele>
  <time>2026-08-29T19:29:58Z</time>
  <course>106.07</course>
  <speed>2.05</speed>
  <fix>3d</fix>
</trkpt>
<trkpt lat="40.0714682" lon="-105.2295287">
  <ele>1583.08</ele>
  <time>2026-08-29T19:29:58Z</time>
  <course>106.87</course>
  <speed>2.0384307689985453</speed>
  <fix>3d</fix>
</trkpt>
<trkpt lat="40.0714695" lon="-105.229534">
  <ele>1583.0</ele>
  <time>2026-08-29T19:29:58Z</time>
  <course>106.07</course>
  <speed>2.05</speed>
  <fix>3d</fix>
</trkpt>
<trkpt lat="40.0714677" lon="-105.2295264">
  <ele>1583.08</ele>
  <time>2026-08-29T19:29:58Z</time>
  <course>106.87</course>
  <speed>2.0384307689985453</speed>
  <fix>3d</fix>
</trkpt>
<trkpt lat="40.0714684" lon="-105.2295293">
  <ele>1583.0</ele>
  <time>2026-08-29T19:29:58Z</time>
  <course>106.11</course>
  <speed>2.06</speed>
  <fix>3d</fix>
</trkpt>
<trkpt lat="40.0714672" lon="-105.2295241">
  <ele>1583.08</ele>
  <time>2026-08-29T19:29:58Z</time>
  <course>106.87</course>
  <speed>2.035706265648362</speed>
  <fix>3d</fix>
</trkpt>
<trkpt lat="40.0714684" lon="-105.2295293">
  <ele>1583.0</ele>
  <time>2026-08-29T19:29:58Z</time>
  <course>106.11</course>
  <speed>2.06</speed>
  <fix>3d</fix>
</trkpt>
<trkpt lat="40.0714667" lon="-105.2295217">
  <ele>1583.08</ele>
  <time>2026-08-29T19:29:58Z</time>
  <course>106.87</course>
  <speed>2.035706265648362</speed>
  <fix>3d</fix>
</trkpt>
<trkpt lat="40.0714673" lon="-105.2295248">
  <ele>1583.0</ele>
  <time>2026-08-29T19:29:58Z</time>
  <course>106.12</course>
  <speed>2.06</speed>
  <fix>3d</fix>
</trkpt>
<trkpt lat="40.0714662" lon="-105.2295194">
  <ele>1583.08</ele>
  <time>2026-08-29T19:29:58Z</time>
  <course>106.87</course>
  <speed>2.035706265648362</speed>
  <fix>3d</fix>
</trkpt>
<trkpt lat="40.0714673" lon="-105.2295248">
  <ele>1583.0</ele>
  <time>2026-08-29T19:29:58Z</time>
  <course>106.12</course>
  <speed>2.06</speed>
  <fix>3d</fix>
</trkpt>
<trkpt lat="40.0714657" lon="-105.2295171">
  <ele>1583.08</ele>
  <time>2026-08-29T19:29:58Z</time>
  <course>106.87</course>
  <speed>2.035706265648362</speed>
  <fix>3d</fix>
</trkpt>
<trkpt lat="40.0714664" lon="-105.2295201">
  <ele>1583.0</ele>
  <time>2026-08-29T19:29:58Z</time>
  <course>106.12</course>
  <speed>2.06</speed>
  <fix>3d</fix>
</trkpt>
<trkpt lat="40.0714652" lon="-105.2295148">
  <ele>1583.09</ele>
  <time>2026-08-29T19:29:58Z</time>
  <course>106.87</course>
  <speed>2.035706265648362</speed>
  <fix>3d</fix>
</trkpt>
<trkpt lat="40.0714664" lon="-105.2295201">
  <ele>1583.0</ele>
  <time>2026-08-29T19:29:58Z</time>
  <course>106.12</course>
  <speed>2.06</speed>
  <fix>3d</fix>
</trkpt>
<trkpt lat="40.0714647" lon="-105.2295124">
  <ele>1583.09</ele>
  <time>2026-08-29T19:29:58Z</time>
  <course>106.87</course>
  <speed>2.035706265648362</speed>
  <fix>3d</fix>
</trkpt>
<trkpt lat="40.0714664" lon="-105.2295201">
  <ele>1583.0</ele>
  <time>2026-08-29T19:29:58Z</time>
  <course>106.12</course>
  <speed>2.06</speed>
  <fix>3d</fix>
</trkpt>
<trkpt lat="40.0714642" lon="-105.2295101">
  <ele>1583.09</ele>
  <time>2026-08-29T19:29:58Z</time>
  <course>106.87</course>
  <speed>2.035706265648362</speed>
  <fix>3d</fix>
</trkpt>
<trkpt lat="40.0714653" lon="-105.2295154">
  <ele>1583.0</ele>
  <time>2026-08-29T19:29:58Z</time>
  <course>106.12</course>
  <speed>2.06</speed>
  <fix>3d</fix>
</trkpt>
<trkpt lat="40.0714637" lon="-105.2295078">
  <ele>1583.09</ele>
  <time>2026-08-29T19:29:58Z</time>
  <course>106.87</course>
  <speed>2.035706265648362</speed>
  <fix>3d</fix>
</trkpt>
<trkpt lat="40.0714653" lon="-105.2295154">
  <ele>1583.0</ele>
  <time>2026-08-29T19:29:58Z</time>
  <course>106.12</course>
  <speed>2.06</speed>
  <fix>3d</fix>
</trkpt>
<trkpt lat="40.0714632" lon="-105.2295055">
  <ele>1583.09</ele>
  <time>2026-08-29T19:29:58Z</time>
  <course>106.87</course>
  <speed>2.026079958935481</speed>
  <fix>3d</fix>
</trkpt>
<trkpt lat="40.0714643" lon="-105.2295107">
  <ele>1583.0</ele>
  <time>2026-08-29T19:29:58Z</time>
  <course>106.12</course>
  <speed>2.06</speed>
  <fix>3d</fix>
</trkpt>
<trkpt lat="40.0714627" lon="-105.2295032">
  <ele>1583.09</ele>
  <time>2026-08-29T19:29:58Z</time>
  <course>106.87</course>
  <speed>2.02338824747007</speed>
  <fix>3d</fix>
</trkpt>
<trkpt lat="40.0714643" lon="-105.2295107">
  <ele>1583.0</ele>
  <time>2026-08-29T19:29:58Z</time>
  <course>106.12</course>
  <speed>2.06</speed>
  <fix>3d</fix>
</trkpt>
<trkpt lat="40.0714622" lon="-105.2295009">
  <ele>1583.1</ele>
  <time>2026-08-29T19:29:58Z</time>
  <course>106.85</course>
  <speed>2.02338824747007</speed>
  <fix>3d</fix>
</trkpt>
<trkpt lat="40.0714633" lon="-105.2295061">
  <ele>1583.0</ele>
  <time>2026-08-29T19:29:58Z</time>
  <course>106.12</course>
  <speed>2.06</speed>
  <fix>3d</fix>
</trkpt>
<trkpt lat="40.0714617" lon="-105.2294986">
  <ele>1583.1</ele>
  <time>2026-08-29T19:29:58Z</time>
  <course>106.83</course>
  <speed>2.02338824747007</speed>
  <fix>3d</fix>
</trkpt>
<trkpt lat="40.0714623" lon="-105.2295015">
  <ele>1583.0</ele>
  <time>2026-08-29T19:29:58Z</time>
  <course>106.1</course>
  <speed>2.06</speed>
  <fix>3d</fix>
</trkpt>
<trkpt lat="40.0714612" lon="-105.2294963">
  <ele>1583.1</ele>
  <time>2026-08-29T19:29:58Z</time>
  <course>106.82</course>
  <speed>2.02338824747007</speed>
  <fix>3d</fix>
</trkpt>
<trkpt lat="40.0714623" lon="-105.2295015">
  <ele>1583.0</ele>
  <time>2026-08-29T19:29:58Z</time>
  <course>106.1</course>
  <speed>2.06</speed>
  <fix>3d</fix>
</trkpt>
<trkpt lat="40.0714607" lon="-105.229494">
  <ele>1583.1</ele>
  <time>2026-08-29T19:29:58Z</time>
  <course>106.79</course>
  <speed>2.02338824747007</speed>
  <fix>3d</fix>
</trkpt>
<trkpt lat="40.0714612" lon="-105.2294968">
  <ele>1583.0</ele>
  <time>2026-08-29T19:29:58Z</time>
  <course>106.06</course>
  <speed>2.06</speed>
  <fix>3d</fix>
</trkpt>
<trkpt lat="40.0714602" lon="-105.2294917">
  <ele>1583.1</ele>
  <time>2026-08-29T19:29:58Z</time>
  <course>106.77</course>
  <speed>2.02338824747007</speed>
  <fix>3d</fix>
</trkpt>
<trkpt lat="40.0714612" lon="-105.2294968">
  <ele>1583.0</ele>
  <time>2026-08-29T19:29:58Z</time>
  <course>106.06</course>
  <speed>2.06</speed>
  <fix>3d</fix>
</trkpt>
<trkpt lat="40.0714597" lon="-105.2294894">
  <ele>1583.11</ele>
  <time>2026-08-29T19:29:58Z</time>
  <course>106.75</course>
  <speed>2.02338824747007</speed>
  <fix>3d</fix>
</trkpt>
<trkpt lat="40.0714602" lon="-105.2294921">
  <ele>1583.0</ele>
  <time>2026-08-29T19:29:58Z</time>
  <course>106.02</course>
  <speed>2.06</speed>
  <fix>3d</fix>
</trkpt>
<trkpt lat="40.0714592" lon="-105.229487">
  <ele>1583.11</ele>
  <time>2026-08-29T19:29:58Z</time>
  <course>106.73</course>
  <speed>2.02338824747007</speed>
  <fix>3d</fix>
</trkpt>
<trkpt lat="40.0714602" lon="-105.2294921">
  <ele>1583.0</ele>
  <time>2026-08-29T19:29:58Z</time>
  <course>106.02</course>
  <speed>2.06</speed>
  <fix>3d</fix>
</trkpt>
<trkpt lat="40.0714587" lon="-105.2294847">
  <ele>1583.11</ele>
  <time>2026-08-29T19:29:58Z</time>
  <course>106.71</course>
  <speed>2.02338824747007</speed>
  <fix>3d</fix>
</trkpt>
<trkpt lat="40.0714592" lon="-105.2294875">
  <ele>1583.0</ele>
  <time>2026-08-29T19:29:58Z</time>
  <course>105.98</course>
  <speed>2.06</speed>
  <fix>3d</fix>
</trkpt>
<trkpt lat="40.0714582" lon="-105.2294824">
  <ele>1583.12</ele>
  <time>2026-08-29T19:29:58Z</time>
  <course>106.69</course>
  <speed>2.02338824747007</speed>
  <fix>3d</fix>
</trkpt>
<trkpt lat="40.0714592" lon="-105.2294875">
  <ele>1583.0</ele>
  <time>2026-08-29T19:29:58Z</time>
  <course>105.98</course>
  <speed>2.06</speed>
  <fix>3d</fix>
</trkpt>
<trkpt lat="40.0714577" lon="-105.22948">
  <ele>1583.12</ele>
  <time>2026-08-29T19:29:58Z</time>
  <course>106.67</course>
  <speed>2.02338824747007</speed>
  <fix>3d</fix>
</trkpt>
<trkpt lat="40.0714581" lon="-105.2294828">
  <ele>1583.0</ele>
  <time>2026-08-29T19:29:58Z</time>
  <course>105.95</course>
  <speed>2.06</speed>
  <fix>3d</fix>
</trkpt>
<trkpt lat="40.0714572" lon="-105.2294777">
  <ele>1583.12</ele>
  <time>2026-08-29T19:29:58Z</time>
  <course>106.66</course>
  <speed>2.02338824747007</speed>
  <fix>3d</fix>
</trkpt>
<trkpt lat="40.0714581" lon="-105.2294828">
  <ele>1583.0</ele>
  <time>2026-08-29T19:29:58Z</time>
  <course>105.95</course>
  <speed>2.06</speed>
  <fix>3d</fix>
</trkpt>
<trkpt lat="40.0714567" lon="-105.2294753">
  <ele>1583.12</ele>
  <time>2026-08-29T19:29:58Z</time>
  <course>106.64</course>
  <speed>2.02338824747007</speed>
  <fix>3d</fix>
</trkpt>
<trkpt lat="40.0714572" lon="-105.2294781">
  <ele>1583.0</ele>
  <time>2026-08-29T19:29:58Z</time>
  <course>105.91</course>
  <speed>2.06</speed>
  <fix>3d</fix>
</trkpt>
<trkpt lat="40.0714562" lon="-105.229473">
  <ele>1583.12</ele>
  <time>2026-08-29T19:29:58Z</time>
  <course>106.6</course>
  <speed>2.02338824747007</speed>
  <fix>3d</fix>
</trkpt>
<trkpt lat="40.0714572" lon="-105.2294781">
  <ele>1583.0</ele>
  <time>2026-08-29T19:29:58Z</time>
  <course>105.91</course>
  <speed>2.06</speed>
  <fix>3d</fix>
</trkpt>
<trkpt lat="40.0714556" lon="-105.2294707">
  <ele>1583.13</ele>
  <time>2026-08-29T19:29:58Z</time>
  <course>106.57</course>
  <speed>2.02338824747007</speed>
  <fix>3d</fix>
</trkpt>
<trkpt lat="40.0714561" lon="-105.2294735">
  <ele>1583.0</ele>
  <time>2026-08-29T19:29:58Z</time>
  <course>105.86</course>
  <speed>2.06</speed>
  <fix>3d</fix>
</trkpt>
<trkpt lat="40.0714551" lon="-105.2294683">
  <ele>1583.13</ele>
  <time>2026-08-29T19:29:58Z</time>
  <course>106.55</course>
  <speed>2.02338824747007</speed>
  <fix>3d</fix>
</trkpt>
<trkpt lat="40.0714561" lon="-105.2294735">
  <ele>1583.0</ele>
  <time>2026-08-29T19:29:58Z</time>
  <course>105.86</course>
  <speed>2.06</speed>
  <fix>3d</fix>
</trkpt>
<trkpt lat="40.0714546" lon="-105.229466">
  <ele>1583.12</ele>
  <time>2026-08-29T19:29:58Z</time>
  <course>106.52</course>
  <speed>2.02338824747007</speed>
  <fix>3d</fix>
</trkpt>
<trkpt lat="40.0714561" lon="-105.2294735">
  <ele>1583.0</ele>
  <time>2026-08-29T19:29:58Z</time>
  <course>105.86</course>
  <speed>2.06</speed>
  <fix>3d</fix>
</trkpt>
<trkpt lat="40.0714541" lon="-105.2294637">
  <ele>1583.12</ele>
  <time>2026-08-29T19:29:58Z</time>
  <course>106.5</course>
  <speed>2.02338824747007</speed>
  <fix>3d</fix>
</trkpt>
<trkpt lat="40.071455" lon="-105.2294688">
  <ele>1583.0</ele>
  <time>2026-08-29T19:29:58Z</time>
  <course>105.8</course>
  <speed>2.06</speed>
  <fix>3d</fix>
</trkpt>
<trkpt lat="40.0714536" lon="-105.2294614">
  <ele>1583.11</ele>
  <time>2026-08-29T19:29:58Z</time>
  <course>106.48</course>
  <speed>2.02338824747007</speed>
  <fix>3d</fix>
</trkpt>
<trkpt lat="40.071455" lon="-105.2294688">
  <ele>1583.0</ele>
  <time>2026-08-29T19:29:58Z</time>
  <course>105.8</course>
  <speed>2.06</speed>
  <fix>3d</fix>
</trkpt>
<trkpt lat="40.0714531" lon="-105.2294591">
  <ele>1583.11</ele>
  <time>2026-08-29T19:29:58Z</time>
  <course>106.47</course>
  <speed>2.02338824747007</speed>
  <fix>3d</fix>
</trkpt>
<trkpt lat="40.071454" lon="-105.2294641">
  <ele>1583.0</ele>
  <time>2026-08-29T19:29:58Z</time>
  <course>105.75</course>
  <speed>2.06</speed>
  <fix>3d</fix>
</trkpt>
<trkpt lat="40.0714526" lon="-105.2294568">
  <ele>1583.1</ele>
  <time>2026-08-29T19:29:58Z</time>
  <course>106.74</course>
  <speed>2.0164572894063486</speed>
  <fix>3d</fix>
</trkpt>
<trkpt lat="40.071454" lon="-105.2294641">
  <ele>1583.0</ele>
  <time>2026-08-29T19:29:58Z</time>
  <course>105.75</course>
  <speed>2.06</speed>
  <fix>3d</fix>
</trkpt>
<trkpt lat="40.0714521" lon="-105.2294545">
  <ele>1583.09</ele>
  <time>2026-08-29T19:29:58Z</time>
  <course>109.06</course>
  <speed>2.0112185361118766</speed>
  <fix>3d</fix>
</trkpt>
<trkpt lat="40.0714531" lon="-105.2294594">
  <ele>1583.0</ele>
  <time>2026-08-29T19:29:58Z</time>
  <course>105.87</course>
  <speed>2.06</speed>
  <fix>3d</fix>
</trkpt>
<trkpt lat="40.0714514" lon="-105.2294522">
  <ele>1583.09</ele>
  <time>2026-08-29T19:29:58Z</time>
  <course>113.19</course>
  <speed>2.0038463014912096</speed>
  <fix>3d</fix>
</trkpt>
<trkpt lat="40.0714531" lon="-105.2294594">
  <ele>1583.0</ele>
  <time>2026-08-29T19:29:58Z</time>
  <course>105.87</course>
  <speed>2.06</speed>
  <fix>3d</fix>
</trkpt>
<trkpt lat="40.0714506" lon="-105.2294501">
  <ele>1583.08</ele>
  <time>2026-08-29T19:29:58Z</time>
  <course>119.13</course>
  <speed>1.9960210419732554</speed>
  <fix>3d</fix>
</trkpt>
<trkpt lat="40.071452" lon="-105.2294549">
  <ele>1583.0</ele>
  <time>2026-08-29T19:29:58Z</time>
  <course>109.25</course>
  <speed>2.06</speed>
  <fix>3d</fix>
</trkpt>
<trkpt lat="40.0714496" lon="-105.2294481">
  <ele>1583.07</ele>
  <time>2026-08-29T19:29:58Z</time>
  <course>126.73</course>
  <speed>1.972004056790959</speed>
  <fix>3d</fix>
</trkpt>
<trkpt lat="40.0714505" lon="-105.2294505">
  <ele>1583.0</ele>
  <time>2026-08-29T19:29:58Z</time>
  <course>119.22</course>
  <speed>2.03</speed>
  <fix>3d</fix>
</trkpt>
<trkpt lat="40.0714484" lon="-105.2294463">
  <ele>1583.06</ele>
  <time>2026-08-29T19:29:58Z</time>
  <course>135.91</course>
  <speed>1.9237983262286096</speed>
  <fix>3d</fix>
</trkpt>
<trkpt lat="40.0714505" lon="-105.2294505">
  <ele>1583.0</ele>
  <time>2026-08-29T19:29:58Z</time>
  <course>119.22</course>
  <speed>2.03</speed>
  <fix>3d</fix>
</trkpt>
<trkpt lat="40.071447" lon="-105.229445">
  <ele>1583.05</ele>
  <time>2026-08-29T19:29:58Z</time>
  <course>146.41</course>
  <speed>1.866815470259447</speed>
  <fix>3d</fix>
</trkpt>
<trkpt lat="40.0714483" lon="-105.2294467">
  <ele>1583.0</ele>
  <time>2026-08-29T19:29:58Z</time>
  <course>135.68</course>
  <speed>1.95</speed>
  <fix>3d</fix>
</trkpt>
<trkpt lat="40.0714455" lon="-105.229444">
  <ele>1583.05</ele>
  <time>2026-08-29T19:29:58Z</time>
  <course>158.17</course>
  <speed>1.79075403112767</speed>
  <fix>3d</fix>
</trkpt>
<trkpt lat="40.0714483" lon="-105.2294467">
  <ele>1583.0</ele>
  <time>2026-08-29T19:29:58Z</time>
  <course>135.68</course>
  <speed>1.95</speed>
  <fix>3d</fix>
</trkpt>
<trkpt lat="40.0714439" lon="-105.2294435">
  <ele>1583.04</ele>
  <time>2026-08-29T19:29:58Z</time>
  <course>169.75</course>
  <speed>1.7168575945604807</speed>
  <fix>3d</fix>
</trkpt>
<trkpt lat="40.0714456" lon="-105.2294442">
  <ele>1583.0</ele>
  <time>2026-08-29T19:29:58Z</time>
  <course>157.0</course>
  <speed>1.81</speed>
  <fix>3d</fix>
</trkpt>
<trkpt lat="40.0714424" lon="-105.2294434">
  <ele>1583.04</ele>
  <time>2026-08-29T19:29:58Z</time>
  <course>180.76</course>
  <speed>1.6324827717314507</speed>
  <fix>3d</fix>
</trkpt>
<trkpt lat="40.0714456" lon="-105.2294442">
  <ele>1583.0</ele>
  <time>2026-08-29T19:29:58Z</time>
  <course>157.0</course>
  <speed>1.81</speed>
  <fix>3d</fix>
</trkpt>
<trkpt lat="40.0714409" lon="-105.2294437">
  <ele>1583.03</ele>
  <time>2026-08-29T19:29:58Z</time>
  <course>191.25</course>
  <speed>1.557080601638849</speed>
  <fix>3d</fix>
</trkpt>
<trkpt lat="40.0714425" lon="-105.2294433">
  <ele>1583.0</ele>
  <time>2026-08-29T19:29:58Z</time>
  <course>179.31</course>
  <speed>1.65</speed>
  <fix>3d</fix>
</trkpt>
<trkpt lat="40.0714396" lon="-105.2294443">
  <ele>1583.02</ele>
  <time>2026-08-29T19:29:58Z</time>
  <course>201.18</course>
  <speed>1.5037619492459569</speed>
  <fix>3d</fix>
</trkpt>
<trkpt lat="40.0714425" lon="-105.2294433">
  <ele>1583.0</ele>
  <time>2026-08-29T19:29:58Z</time>
  <course>179.31</course>
  <speed>1.65</speed>
  <fix>3d</fix>
</trkpt>
<trkpt lat="40.0714384" lon="-105.2294452">
  <ele>1583.02</ele>
  <time>2026-08-29T19:29:58Z</time>
  <course>210.77</course>
  <speed>1.475567687366459</speed>
  <fix>3d</fix>
</trkpt>
<trkpt lat="40.0714397" lon="-105.2294439">
  <ele>1583.0</ele>
  <time>2026-08-29T19:29:58Z</time>
  <course>200.03</course>
  <speed>1.51</speed>
  <fix>3d</fix>
</trkpt>
<trkpt lat="40.0714373" lon="-105.2294463">
  <ele>1583.01</ele>
  <time>2026-08-29T19:29:58Z</time>
  <course>220.19</course>
  <speed>1.4782760229402356</speed>
  <fix>3d</fix>
</trkpt>
<trkpt lat="40.0714397" lon="-105.2294439">
  <ele>1583.0</ele>
  <time>2026-08-29T19:29:58Z</time>
  <course>200.03</course>
  <speed>1.51</speed>
  <fix>3d</fix>
</trkpt>
<trkpt lat="40.0714364" lon="-105.2294476">
  <ele>1583.0</ele>
  <time>2026-08-29T19:29:58Z</time>
  <course>229.51</course>
  <speed>1.4780054127099804</speed>
  <fix>3d</fix>
</trkpt>
<trkpt lat="40.0714374" lon="-105.2294456">
  <ele>1583.0</ele>
  <time>2026-08-29T19:29:58Z</time>
  <course>219.38</course>
  <speed>1.45</speed>
  <fix>3d</fix>
</trkpt>
<trkpt lat="40.0714356" lon="-105.2294489">
  <ele>1582.99</ele>
  <time>2026-08-29T19:29:58Z</time>
  <course>238.66</course>
  <speed>1.449413674559475</speed>
  <fix>3d</fix>
</trkpt>
<trkpt lat="40.0714374" lon="-105.2294456">
  <ele>1583.0</ele>
  <time>2026-08-29T19:29:58Z</time>
  <course>219.38</course>
  <speed>1.45</speed>
  <fix>3d</fix>
</trkpt>
<trkpt lat="40.0714351" lon="-105.2294504">
  <ele>1582.99</ele>
  <time>2026-08-29T19:29:58Z</time>
  <course>247.49</course>
  <speed>1.3978555004005242</speed>
  <fix>3d</fix>
</trkpt>
<trkpt lat="40.0714357" lon="-105.2294481">
  <ele>1583.0</ele>
  <time>2026-08-29T19:29:58Z</time>
  <course>237.54</course>
  <speed>1.39</speed>
  <fix>3d</fix>
</trkpt>
<trkpt lat="40.0714348" lon="-105.229452">
  <ele>1582.99</ele>
  <time>2026-08-29T19:29:58Z</time>
  <course>256.03</course>
  <speed>1.3748090776540574</speed>
  <fix>3d</fix>
</trkpt>
<trkpt lat="40.0714357" lon="-105.2294481">
  <ele>1583.0</ele>
  <time>2026-08-29T19:29:58Z</time>
  <course>237.54</course>
  <speed>1.39</speed>
  <fix>3d</fix>
</trkpt>
<trkpt lat="40.0714346" lon="-105.2294535">
  <ele>1582.99</ele>
  <time>2026-08-29T19:29:58Z</time>
  <course>264.44</course>
  <speed>1.3717871555019021</speed>
  <fix>3d</fix>
</trkpt>
<trkpt lat="40.0714357" lon="-105.2294481">
  <ele>1583.0</ele>
  <time>2026-08-29T19:29:58Z</time>
  <course>237.54</course>
  <speed>1.39</speed>
  <fix>3d</fix>
</trkpt>
<trkpt lat="40.0714346" lon="-105.2294551">
  <ele>1583.0</ele>
  <time>2026-08-29T19:29:58Z</time>
  <course>272.85</course>
  <speed>1.3943457247038842</speed>
  <fix>3d</fix>
</trkpt>
<trkpt lat="40.0714347" lon="-105.2294511">
  <ele>1583.0</ele>
  <time>2026-08-29T19:29:58Z</time>
  <course>255.23</course>
  <speed>1.32</speed>
  <fix>3d</fix>
</trkpt>
<trkpt lat="40.0714348" lon="-105.2294567">
  <ele>1583.0</ele>
  <time>2026-08-29T19:29:58Z</time>
  <course>280.33</course>
  <speed>1.4297202523570827</speed>
  <fix>3d</fix>
</trkpt>
<trkpt lat="40.0714347" lon="-105.2294511">
  <ele>1583.0</ele>
  <time>2026-08-29T19:29:58Z</time>
  <course>255.23</course>
  <speed>1.32</speed>
  <fix>3d</fix>
</trkpt>
<trkpt lat="40.0714367" lon="-105.2294632">
  <ele>1583.02</ele>
  <time>2026-08-29T19:29:58Z</time>
  <course>297.99</course>
  <speed>1.6688319268278635</speed>
  <fix>3d</fix>
</trkpt>
<trkpt lat="40.0714357" lon="-105.2294605">
  <ele>1583.0</ele>
  <time>2026-08-29T19:29:58Z</time>
  <course>294.39</course>
  <speed>1.55</speed>
  <fix>3d</fix>
</trkpt>
<trkpt lat="40.0714382" lon="-105.2294666">
  <ele>1583.02</ele>
  <time>2026-08-29T19:29:58Z</time>
  <course>300.94</course>
  <speed>1.7990275150758535</speed>
  <fix>3d</fix>
</trkpt>
<trkpt lat="40.0714371" lon="-105.2294639">
  <ele>1583.0</ele>
  <time>2026-08-29T19:29:58Z</time>
  <course>298.87</course>
  <speed>1.68</speed>
  <fix>3d</fix>
</trkpt>
<trkpt lat="40.071439" lon="-105.2294684">
  <ele>1583.02</ele>
  <time>2026-08-29T19:29:58Z</time>
  <course>301.99</course>
  <speed>1.850756602041446</speed>
  <fix>3d</fix>
</trkpt>
<trkpt lat="40.0714371" lon="-105.2294639">
  <ele>1583.0</ele>
  <time>2026-08-29T19:29:58Z</time>
  <course>298.87</course>
  <speed>1.68</speed>
  <fix>3d</fix>
</trkpt>
<trkpt lat="40.0714399" lon="-105.2294702">
  <ele>1583.02</ele>
  <time>2026-08-29T19:29:58Z</time>
  <course>302.81</course>
  <speed>1.9028662590944219</speed>
  <fix>3d</fix>
</trkpt>
<trkpt lat="40.0714386" lon="-105.2294675">
  <ele>1583.0</ele>
  <time>2026-08-29T19:29:58Z</time>
  <course>301.26</course>
  <speed>1.8</speed>
  <fix>3d</fix>
</trkpt>
<trkpt lat="40.0714408" lon="-105.229472">
  <ele>1583.02</ele>
  <time>2026-08-29T19:29:58Z</time>
  <course>303.45</course>
  <speed>1.9359752064528097</speed>
  <fix>3d</fix>
</trkpt>
<trkpt lat="40.0714386" lon="-105.2294675">
  <ele>1583.0</ele>
  <time>2026-08-29T19:29:58Z</time>
  <course>301.26</course>
  <speed>1.8</speed>
  <fix>3d</fix>
</trkpt>
<trkpt lat="40.0714418" lon="-105.2294739">
  <ele>1583.02</ele>
  <time>2026-08-29T19:29:58Z</time>
  <course>303.92</course>
  <speed>1.9691876497682999</speed>
  <fix>3d</fix>
</trkpt>
<trkpt lat="40.0714404" lon="-105.2294711">
  <ele>1583.0</ele>
  <time>2026-08-29T19:29:58Z</time>
  <course>302.74</course>
  <speed>1.89</speed>
  <fix>3d</fix>
</trkpt>
<trkpt lat="40.0714428" lon="-105.2294759">
  <ele>1583.03</ele>
  <time>2026-08-29T19:29:58Z</time>
  <course>304.29</course>
  <speed>2.0024984394500787</speed>
  <fix>3d</fix>
</trkpt>
<trkpt lat="40.0714404" lon="-105.2294711">
  <ele>1583.0</ele>
  <time>2026-08-29T19:29:58Z</time>
  <course>302.74</course>
  <speed>1.89</speed>
  <fix>3d</fix>
</trkpt>
<trkpt lat="40.0714438" lon="-105.2294778">
  <ele>1583.03</ele>
  <time>2026-08-29T19:29:58Z</time>
  <course>304.57</course>
  <speed>2.0302709178826355</speed>
  <fix>3d</fix>
</trkpt>
<trkpt lat="40.0714423" lon="-105.2294749">
  <ele>1583.0</ele>
  <time>2026-08-29T19:29:58Z</time>
  <course>303.6</course>
  <speed>1.96</speed>
  <fix>3d</fix>
</trkpt>
<trkpt lat="40.0714448" lon="-105.2294797">
  <ele>1583.04</ele>
  <time>2026-08-29T19:29:58Z</time>
  <course>304.78</course>
  <speed>2.0498048687619024</speed>
  <fix>3d</fix>
</trkpt>
<trkpt lat="40.0714423" lon="-105.2294749">
  <ele>1583.0</ele>
  <time>2026-08-29T19:29:58Z</time>
  <course>303.6</course>
  <speed>1.96</speed>
  <fix>3d</fix>
</trkpt>
<trkpt lat="40.071446" lon="-105.2294821">
  <ele>1583.04</ele>
  <time>2026-08-29T19:29:58Z</time>
  <course>304.96</course>
  <speed>2.0719555979798407</speed>
  <fix>3d</fix>
</trkpt>
<trkpt lat="40.0714443" lon="-105.2294788">
  <ele>1583.0</ele>
  <time>2026-08-29T19:29:58Z</time>
  <course>304.1</course>
  <speed>2.01</speed>
  <fix>3d</fix>
</trkpt>
<trkpt lat="40.0714471" lon="-105.2294841">
  <ele>1583.05</ele>
  <time>2026-08-29T19:29:58Z</time>
  <course>305.07</course>
  <speed>2.0858571379651103</speed>
  <fix>3d</fix>
</trkpt>
<trkpt lat="40.0714443" lon="-105.2294788">
  <ele>1583.0</ele>
  <time>2026-08-29T19:29:58Z</time>
  <course>304.1</course>
  <speed>2.01</speed>
  <fix>3d</fix>
</trkpt>
<trkpt lat="40.0714481" lon="-105.2294861">
  <ele>1583.05</ele>
  <time>2026-08-29T19:29:58Z</time>
  <course>305.11</course>
  <speed>2.0498048687619024</speed>
  <fix>3d</fix>
</trkpt>
<trkpt lat="40.0714464" lon="-105.2294828">
  <ele>1583.0</ele>
  <time>2026-08-29T19:29:58Z</time>
  <course>304.37</course>
  <speed>2.04</speed>
  <fix>3d</fix>
</trkpt>
<trkpt lat="40.0714491" lon="-105.229488">
  <ele>1583.05</ele>
  <time>2026-08-29T19:29:58Z</time>
  <course>305.1</course>
  <speed>1.9498974332000132</speed>
  <fix>3d</fix>
</trkpt>
<trkpt lat="40.0714464" lon="-105.2294828">
  <ele>1583.0</ele>
  <time>2026-08-29T19:29:58Z</time>
  <course>304.37</course>
  <speed>2.04</speed>
  <fix>3d</fix>
</trkpt>
<trkpt lat="40.0714501" lon="-105.2294898">
  <ele>1583.04</ele>
  <time>2026-08-29T19:29:58Z</time>
  <course>305.11</course>
  <speed>1.855640051303054</speed>
  <fix>3d</fix>
</trkpt>
<trkpt lat="40.0714483" lon="-105.2294867">
  <ele>1583.0</ele>
  <time>2026-08-29T19:29:58Z</time>
  <course>304.45</course>
  <speed>1.95</speed>
  <fix>3d</fix>
</trkpt>
<trkpt lat="40.0714534" lon="-105.2294963">
  <ele>1583.01</ele>
  <time>2026-08-29T19:29:58Z</time>
  <course>305.12</course>
  <speed>1.578131806916013</speed>
  <fix>3d</fix>
</trkpt>
<trkpt lat="40.071452" lon="-105.2294936">
  <ele>1583.0</ele>
  <time>2026-08-29T19:29:58Z</time>
  <course>304.45</course>
  <speed>1.63</speed>
  <fix>3d</fix>
</trkpt>
<trkpt lat="40.0714542" lon="-105.2294978">
  <ele>1583.01</ele>
  <time>2026-08-29T19:29:58Z</time>
  <course>305.12</course>
  <speed>1.5337861650177969</speed>
  <fix>3d</fix>
</trkpt>
<trkpt lat="40.071452" lon="-105.2294936">
  <ele>1583.0</ele>
  <time>2026-08-29T19:29:58Z</time>
  <course>304.45</course>
  <speed>1.63</speed>
  <fix>3d</fix>
</trkpt>
<trkpt lat="40.0714549" lon="-105.2294992">
  <ele>1583.0</ele>
  <time>2026-08-29T19:29:58Z</time>
  <course>305.12</course>
  <speed>1.5060212481900777</speed>
  <fix>3d</fix>
</trkpt>
<trkpt lat="40.0714536" lon="-105.2294967">
  <ele>1583.0</ele>
  <time>2026-08-29T19:29:58Z</time>
  <course>304.45</course>
  <speed>1.54</speed>
  <fix>3d</fix>
</trkpt>
<trkpt lat="40.0714555" lon="-105.2295003">
  <ele>1583.0</ele>
  <time>2026-08-29T19:29:58Z</time>
  <course>305.13</course>
  <speed>1.4782760229402356</speed>
  <fix>3d</fix>
</trkpt>
<trkpt lat="40.0714536" lon="-105.2294967">
  <ele>1583.0</ele>
  <time>2026-08-29T19:29:58Z</time>
  <course>304.45</course>
  <speed>1.54</speed>
  <fix>3d</fix>
</trkpt>
<trkpt lat="40.0714562" lon="-105.2295017">
  <ele>1582.99</ele>
  <time>2026-08-29T19:29:58Z</time>
  <course>305.13</course>
  <speed>1.4560906565183365</speed>
  <fix>3d</fix>
</trkpt>
<trkpt lat="40.0714552" lon="-105.2294996">
  <ele>1583.0</ele>
  <time>2026-08-29T19:29:58Z</time>
  <course>304.45</course>
  <speed>1.48</speed>
  <fix>3d</fix>
</trkpt>
<trkpt lat="40.0714569" lon="-105.2295031">
  <ele>1582.99</ele>
  <time>2026-08-29T19:29:58Z</time>
  <course>305.13</course>
  <speed>1.428355697996826</speed>
  <fix>3d</fix>
</trkpt>
<trkpt lat="40.0714552" lon="-105.2294996">
  <ele>1583.0</ele>
  <time>2026-08-29T19:29:58Z</time>
  <course>304.45</course>
  <speed>1.48</speed>
  <fix>3d</fix>
</trkpt>
<trkpt lat="40.0714576" lon="-105.2295044">
  <ele>1583.0</ele>
  <time>2026-08-29T19:29:58Z</time>
  <course>305.13</course>
  <speed>1.3923002549737609</speed>
  <fix>3d</fix>
</trkpt>
<trkpt lat="40.0714567" lon="-105.2295024">
  <ele>1583.0</ele>
  <time>2026-08-29T19:29:58Z</time>
  <course>304.45</course>
  <speed>1.43</speed>
  <fix>3d</fix>
</trkpt>
<trkpt lat="40.0714583" lon="-105.2295057">
  <ele>1583.0</ele>
  <time>2026-08-29T19:29:58Z</time>
  <course>305.14</course>
  <speed>1.356244815658294</speed>
  <fix>3d</fix>
</trkpt>
<trkpt lat="40.0714567" lon="-105.2295024">
  <ele>1583.0</ele>
  <time>2026-08-29T19:29:58Z</time>
  <course>304.45</course>
  <speed>1.43</speed>
  <fix>3d</fix>
</trkpt>
<trkpt lat="40.0714589" lon="-105.229507">
  <ele>1583.0</ele>
  <time>2026-08-29T19:29:58Z</time>
  <course>305.14</course>
  <speed>1.3201893803541975</speed>
  <fix>3d</fix>
</trkpt>
<trkpt lat="40.0714581" lon="-105.2295051">
  <ele>1583.0</ele>
  <time>2026-08-29T19:29:58Z</time>
  <course>304.45</course>
  <speed>1.37</speed>
  <fix>3d</fix>
</trkpt>
<trkpt lat="40.0714596" lon="-105.2295083">
  <ele>1583.0</ele>
  <time>2026-08-29T19:29:58Z</time>
  <course>305.14</course>
  <speed>1.2841339493993607</speed>
  <fix>3d</fix>
</trkpt>
<trkpt lat="40.0714581" lon="-105.2295051">
  <ele>1583.0</ele>
  <time>2026-08-29T19:29:58Z</time>
  <course>304.45</course>
  <speed>1.37</speed>
  <fix>3d</fix>
</trkpt>
<trkpt lat="40.0714602" lon="-105.2295095">
  <ele>1583.0</ele>
  <time>2026-08-29T19:29:58Z</time>
  <course>305.14</course>
  <speed>1.2564234954823155</speed>
  <fix>3d</fix>
</trkpt>
<trkpt lat="40.0714594" lon="-105.2295077">
  <ele>1583.0</ele>
  <time>2026-08-29T19:29:58Z</time>
  <course>304.45</course>
  <speed>1.3</speed>
  <fix>3d</fix>
</trkpt>
<trkpt lat="40.0714609" lon="-105.2295107">
  <ele>1583.01</ele>
  <time>2026-08-29T19:29:58Z</time>
  <course>305.15</course>
  <speed>1.234220401711137</speed>
  <fix>3d</fix>
</trkpt>
<trkpt lat="40.0714594" lon="-105.2295077">
  <ele>1583.0</ele>
  <time>2026-08-29T19:29:58Z</time>
  <course>304.45</course>
  <speed>1.3</speed>
  <fix>3d</fix>
</trkpt>
<trkpt lat="40.0714634" lon="-105.2295156">
  <ele>1583.02</ele>
  <time>2026-08-29T19:29:58Z</time>
  <course>305.15</course>
  <speed>1.1399122773266372</speed>
  <fix>3d</fix>
</trkpt>
<trkpt lat="40.0714619" lon="-105.2295125">
  <ele>1583.0</ele>
  <time>2026-08-29T19:29:58Z</time>
  <course>304.45</course>
  <speed>1.21</speed>
  <fix>3d</fix>
</trkpt>
<trkpt lat="40.0714642" lon="-105.2295171">
  <ele>1583.02</ele>
  <time>2026-08-29T19:29:58Z</time>
  <course>305.15</course>
  <speed>1.1177208953938367</speed>
  <fix>3d</fix>
</trkpt>
<trkpt lat="40.0714631" lon="-105.2295149">
  <ele>1583.0</ele>
  <time>2026-08-29T19:29:58Z</time>
  <course>304.45</course>
  <speed>1.18</speed>
  <fix>3d</fix>
</trkpt>
<trkpt lat="40.0714645" lon="-105.2295178">
  <ele>1583.02</ele>
  <time>2026-08-29T19:29:58Z</time>
  <course>305.15</course>
  <speed>1.1122050170719426</speed>
  <fix>3d</fix>
</trkpt>
<trkpt lat="40.0714631" lon="-105.2295149">
  <ele>1583.0</ele>
  <time>2026-08-29T19:29:58Z</time>
  <course>304.45</course>
  <speed>1.18</speed>
  <fix>3d</fix>
</trkpt>
<trkpt lat="40.0714651" lon="-105.2295188">
  <ele>1583.02</ele>
  <time>2026-08-29T19:29:58Z</time>
  <course>305.15</course>
  <speed>1.09</speed>
  <fix>3d</fix>
</trkpt>
<trkpt lat="40.0714643" lon="-105.2295172">
  <ele>1583.0</ele>
  <time>2026-08-29T19:29:58Z</time>
  <course>304.45</course>
  <speed>1.15</speed>
  <fix>3d</fix>
</trkpt>
<trkpt lat="40.0714656" lon="-105.2295199">
  <ele>1583.01</ele>
  <time>2026-08-29T19:29:58Z</time>
  <course>305.16</course>
  <speed>1.0816653826391969</speed>
  <fix>3d</fix>
</trkpt>
<trkpt lat="40.0714643" lon="-105.2295172">
  <ele>1583.0</ele>
  <time>2026-08-29T19:29:58Z</time>
  <course>304.45</course>
  <speed>1.15</speed>
  <fix>3d</fix>
</trkpt>
<trkpt lat="40.0714662" lon="-105.229521">
  <ele>1583.01</ele>
  <time>2026-08-29T19:29:58Z</time>
  <course>305.16</course>
  <speed>1.0678014796768172</speed>
  <fix>3d</fix>
</trkpt>
<trkpt lat="40.0714655" lon="-105.2295193">
  <ele>1583.0</ele>
  <time>2026-08-29T19:29:58Z</time>
  <course>304.45</course>
  <speed>1.12</speed>
  <fix>3d</fix>
</trkpt>
<trkpt lat="40.0714667" lon="-105.229522">
  <ele>1583.0</ele>
  <time>2026-08-29T19:29:58Z</time>
  <course>305.16</course>
  <speed>1.0539449701004318</speed>
  <fix>3d</fix>
</trkpt>
<trkpt lat="40.0714655" lon="-105.2295193">
  <ele>1583.0</ele>
  <time>2026-08-29T19:29:58Z</time>
  <course>304.45</course>
  <speed>1.12</speed>
  <fix>3d</fix>
</trkpt>
<trkpt lat="40.0714672" lon="-105.229523">
  <ele>1583.0</ele>
  <time>2026-08-29T19:29:58Z</time>
  <course>305.16</course>
  <speed>1.045609869884557</speed>
  <fix>3d</fix>
</trkpt>
<trkpt lat="40.0714667" lon="-105.2295215">
  <ele>1583.0</ele>
  <time>2026-08-29T19:29:58Z</time>
  <course>304.45</course>
  <speed>1.1</speed>
  <fix>3d</fix>
</trkpt>
<trkpt lat="40.0714678" lon="-105.2295241">
  <ele>1583.0</ele>
  <time>2026-08-29T19:29:58Z</time>
  <course>305.16</course>
  <speed>1.031746092796091</speed>
  <fix>3d</fix>
</trkpt>
<trkpt lat="40.0714667" lon="-105.2295215">
  <ele>1583.0</ele>
  <time>2026-08-29T19:29:58Z</time>
  <course>304.45</course>
  <speed>1.1</speed>
  <fix>3d</fix>
</trkpt>
<trkpt lat="40.0714682" lon="-105.2295249">
  <ele>1582.99</ele>
  <time>2026-08-29T19:29:58Z</time>
  <course>305.16</course>
  <speed>1.031746092796091</speed>
  <fix>3d</fix>
</trkpt>
<trkpt lat="40.0714678" lon="-105.2295236">
  <ele>1583.0</ele>
  <time>2026-08-29T19:29:58Z</time>
  <course>304.45</course>
  <speed>1.08</speed>
  <fix>3d</fix>
</trkpt>
<trkpt lat="40.0714688" lon="-105.2295259">
  <ele>1582.99</ele>
  <time>2026-08-29T19:29:58Z</time>
  <course>305.16</course>
  <speed>1.0234256201600582</speed>
  <fix>3d</fix>
</trkpt>
<trkpt lat="40.0714678" lon="-105.2295236">
  <ele>1583.0</ele>
  <time>2026-08-29T19:29:58Z</time>
  <course>304.45</course>
  <speed>1.08</speed>
  <fix>3d</fix>
</trkpt>
<trkpt lat="40.0714693" lon="-105.2295269">
  <ele>1582.98</ele>
  <time>2026-08-29T19:29:58Z</time>
  <course>305.16</course>
  <speed>1.009554357129917</speed>
  <fix>3d</fix>
</trkpt>
<trkpt lat="40.0714689" lon="-105.2295257">
  <ele>1583.0</ele>
  <time>2026-08-29T19:29:58Z</time>
  <course>304.45</course>
  <speed>1.07</speed>
  <fix>3d</fix>
</trkpt>
<trkpt lat="40.0714698" lon="-105.2295279">
  <ele>1582.98</ele>
  <time>2026-08-29T19:29:58Z</time>
  <course>305.16</course>
  <speed>1.009554357129917</speed>
  <fix>3d</fix>
</trkpt>
<trkpt lat="40.0714689" lon="-105.2295257">
  <ele>1583.0</ele>
  <time>2026-08-29T19:29:58Z</time>
  <course>304.45</course>
  <speed>1.07</speed>
  <fix>3d</fix>
</trkpt>
<trkpt lat="40.0714704" lon="-105.2295289">
  <ele>1582.97</ele>
  <time>2026-08-29T19:29:58Z</time>
  <course>305.16</course>
  <speed>1.0012492197250393</speed>
  <fix>3d</fix>
</trkpt>
<trkpt lat="40.07147" lon="-105.2295278">
  <ele>1583.0</ele>
  <time>2026-08-29T19:29:58Z</time>
  <course>304.45</course>
  <speed>1.05</speed>
  <fix>3d</fix>
</trkpt>
<trkpt lat="40.0714709" lon="-105.2295299">
  <ele>1582.97</ele>
  <time>2026-08-29T19:29:58Z</time>
  <course>305.16</course>
  <speed>0.9929753269845127</speed>
  <fix>3d</fix>
</trkpt>
<trkpt lat="40.07147" lon="-105.2295278">
  <ele>1583.0</ele>
  <time>2026-08-29T19:29:58Z</time>
  <course>304.45</course>
  <speed>1.05</speed>
  <fix>3d</fix>
</trkpt>
<trkpt lat="40.0714714" lon="-105.2295309">
  <ele>1582.96</ele>
  <time>2026-08-29T19:29:58Z</time>
  <course>305.17</course>
  <speed>0.9929753269845127</speed>
  <fix>3d</fix>
</trkpt>
<trkpt lat="40.071471" lon="-105.2295298">
  <ele>1583.0</ele>
  <time>2026-08-29T19:29:58Z</time>
  <course>304.45</course>
  <speed>1.04</speed>
  <fix>3d</fix>
</trkpt>
<trkpt lat="40.071472" lon="-105.2295319">
  <ele>1582.96</ele>
  <time>2026-08-29T19:29:58Z</time>
  <course>305.17</course>
  <speed>0.979081201943945</speed>
  <fix>3d</fix>
</trkpt>
<trkpt lat="40.071471" lon="-105.2295298">
  <ele>1583.0</ele>
  <time>2026-08-29T19:29:58Z</time>
  <course>304.45</course>
  <speed>1.04</speed>
  <fix>3d</fix>
</trkpt>
<trkpt lat="40.0714725" lon="-105.2295329">
  <ele>1582.95</ele>
  <time>2026-08-29T19:29:58Z</time>
  <course>305.17</course>
  <speed>0.979081201943945</speed>
  <fix>3d</fix>
</trkpt>
<trkpt lat="40.0714721" lon="-105.2295319">
  <ele>1583.0</ele>
  <time>2026-08-29T19:29:58Z</time>
  <course>304.45</course>
  <speed>1.03</speed>
  <fix>3d</fix>
</trkpt>
<trkpt lat="40.0714731" lon="-105.2295341">
  <ele>1582.94</ele>
  <time>2026-08-29T19:29:58Z</time>
  <course>305.17</course>
  <speed>0.979081201943945</speed>
  <fix>3d</fix>
</trkpt>
<trkpt lat="40.0714721" lon="-105.2295319">
  <ele>1583.0</ele>
  <time>2026-08-29T19:29:58Z</time>
  <course>304.45</course>
  <speed>1.03</speed>
  <fix>3d</fix>
</trkpt>
<trkpt lat="40.0714737" lon="-105.229535">
  <ele>1582.94</ele>
  <time>2026-08-29T19:29:58Z</time>
  <course>305.17</course>
  <speed>0.97082439194738</speed>
  <fix>3d</fix>
</trkpt>
<trkpt lat="40.0714732" lon="-105.2295338">
  <ele>1583.0</ele>
  <time>2026-08-29T19:29:58Z</time>
  <course>304.45</course>
  <speed>1.03</speed>
  <fix>3d</fix>
</trkpt>
<trkpt lat="40.0714742" lon="-105.229536">
  <ele>1582.94</ele>
  <time>2026-08-29T19:29:58Z</time>
  <course>305.17</course>
  <speed>0.97082439194738</speed>
  <fix>3d</fix>
</trkpt>
<trkpt lat="40.0714732" lon="-105.2295338">
  <ele>1583.0</ele>
  <time>2026-08-29T19:29:58Z</time>
  <course>304.45</course>
  <speed>1.03</speed>
  <fix>3d</fix>
</trkpt>
<trkpt lat="40.0714747" lon="-105.229537">
  <ele>1582.95</ele>
  <time>2026-08-29T19:29:58Z</time>
  <course>305.18</course>
  <speed>0.9626006440887103</speed>
  <fix>3d</fix>
</trkpt>
<trkpt lat="40.0714742" lon="-105.2295359">
  <ele>1583.0</ele>
  <time>2026-08-29T19:29:58Z</time>
  <course>304.45</course>
  <speed>1.02</speed>
  <fix>3d</fix>
</trkpt>
<trkpt lat="40.0714753" lon="-105.229538">
  <ele>1582.95</ele>
  <time>2026-08-29T19:29:58Z</time>
  <course>305.18</course>
  <speed>0.9626006440887103</speed>
  <fix>3d</fix>
</trkpt>
<trkpt lat="40.0714742" lon="-105.2295359">
  <ele>1583.0</ele>
  <time>2026-08-29T19:29:58Z</time>
  <course>304.45</course>
  <speed>1.02</speed>
  <fix>3d</fix>
</trkpt>
<trkpt lat="40.0714758" lon="-105.2295389">
  <ele>1582.95</ele>
  <time>2026-08-29T19:29:58Z</time>
  <course>305.18</course>
  <speed>0.9626006440887103</speed>
  <fix>3d</fix>
</trkpt>
<trkpt lat="40.0714752" lon="-105.2295378">
  <ele>1583.0</ele>
  <time>2026-08-29T19:29:58Z</time>
  <course>304.45</course>
  <speed>1.01</speed>
  <fix>3d</fix>
</trkpt>
<trkpt lat="40.0714763" lon="-105.2295399">
  <ele>1582.96</ele>
  <time>2026-08-29T19:29:58Z</time>
  <course>305.18</course>
  <speed>0.9626006440887103</speed>
  <fix>3d</fix>
</trkpt>
<trkpt lat="40.0714752" lon="-105.2295378">
  <ele>1583.0</ele>
  <time>2026-08-29T19:29:58Z</time>
  <course>304.45</course>
  <speed>1.01</speed>
  <fix>3d</fix>
</trkpt>
<trkpt lat="40.0714768" lon="-105.2295409">
  <ele>1582.96</ele>
  <time>2026-08-29T19:29:58Z</time>
  <course>305.19</course>
  <speed>0.9544108130150245</speed>
  <fix>3d</fix>
</trkpt>
<trkpt lat="40.0714763" lon="-105.2295398">
  <ele>1583.0</ele>
  <time>2026-08-29T19:29:58Z</time>
  <course>304.44</course>
  <speed>1.01</speed>
  <fix>3d</fix>
</trkpt>
<trkpt lat="40.0714773" lon="-105.2295418">
  <ele>1582.97</ele>
  <time>2026-08-29T19:29:58Z</time>
  <course>305.19</course>
  <speed>0.9544108130150245</speed>
  <fix>3d</fix>
</trkpt>
<trkpt lat="40.0714763" lon="-105.2295398">
  <ele>1583.0</ele>
  <time>2026-08-29T19:29:58Z</time>
  <course>304.44</course>
  <speed>1.01</speed>
  <fix>3d</fix>
</trkpt>
<trkpt lat="40.0714778" lon="-105.2295428">
  <ele>1582.97</ele>
  <time>2026-08-29T19:29:58Z</time>
  <course>305.19</course>
  <speed>0.9544108130150245</speed>
  <fix>3d</fix>
</trkpt>
<trkpt lat="40.0714773" lon="-105.2295417">
  <ele>1583.0</ele>
  <time>2026-08-29T19:29:58Z</time>
  <course>304.44</course>
  <speed>1.0</speed>
  <fix>3d</fix>
</trkpt>
<trkpt lat="40.0714783" lon="-105.2295437">
  <ele>1582.97</ele>
  <time>2026-08-29T19:29:58Z</time>
  <course>305.19</course>
  <speed>0.9544108130150245</speed>
  <fix>3d</fix>
</trkpt>
<trkpt lat="40.0714773" lon="-105.2295417">
  <ele>1583.0</ele>
  <time>2026-08-29T19:29:58Z</time>
  <course>304.44</course>
  <speed>1.0</speed>
  <fix>3d</fix>
</trkpt>
<trkpt lat="40.0714789" lon="-105.2295447">
  <ele>1582.98</ele>
  <time>2026-08-29T19:29:58Z</time>
  <course>305.2</course>
  <speed>0.9462557793746889</speed>
  <fix>3d</fix>
</trkpt>
<trkpt lat="40.0714783" lon="-105.2295437">
  <ele>1583.0</ele>
  <time>2026-08-29T19:29:58Z</time>
  <course>304.44</course>
  <speed>1.0</speed>
  <fix>3d</fix>
</trkpt>
<trkpt lat="40.0714793" lon="-105.2295454">
  <ele>1582.98</ele>
  <time>2026-08-29T19:29:58Z</time>
  <course>305.2</course>
  <speed>0.9462557793746889</speed>
  <fix>3d</fix>
</trkpt>
<trkpt lat="40.0714783" lon="-105.2295437">
  <ele>1583.0</ele>
  <time>2026-08-29T19:29:58Z</time>
  <course>304.44</course>
  <speed>1.0</speed>
  <fix>3d</fix>
</trkpt>
<trkpt lat="40.0714798" lon="-105.2295464">
  <ele>1582.98</ele>
  <time>2026-08-29T19:29:58Z</time>
  <course>305.2</course>
  <speed>0.9462557793746889</speed>
  <fix>3d</fix>
</trkpt>
<trkpt lat="40.0714794" lon="-105.2295456">
  <ele>1583.0</ele>
  <time>2026-08-29T19:29:58Z</time>
  <course>304.44</course>
  <speed>0.99</speed>
  <fix>3d</fix>
</trkpt>
<trkpt lat="40.0714803" lon="-105.2295473">
  <ele>1582.98</ele>
  <time>2026-08-29T19:29:58Z</time>
  <course>305.2</course>
  <speed>0.9462557793746889</speed>
  <fix>3d</fix>
</trkpt>
<trkpt lat="40.0714794" lon="-105.2295456">
  <ele>1583.0</ele>
  <time>2026-08-29T19:29:58Z</time>
  <course>304.44</course>
  <speed>0.99</speed>
  <fix>3d</fix>
</trkpt>
<trkpt lat="40.0714808" lon="-105.2295483">
  <ele>1582.98</ele>
  <time>2026-08-29T19:29:58Z</time>
  <course>305.21</course>
  <speed>0.9462557793746889</speed>
  <fix>3d</fix>
</trkpt>
<trkpt lat="40.0714804" lon="-105.2295475">
  <ele>1583.0</ele>
  <time>2026-08-29T19:29:58Z</time>
  <course>304.44</course>
  <speed>0.99</speed>
  <fix>3d</fix>
</trkpt>
<trkpt lat="40.0714813" lon="-105.2295493">
  <ele>1582.99</ele>
  <time>2026-08-29T19:29:58Z</time>
  <course>305.21</course>
  <speed>0.9462557793746889</speed>
  <fix>3d</fix>
</trkpt>
<trkpt lat="40.0714804" lon="-105.2295475">
  <ele>1583.0</ele>
  <time>2026-08-29T19:29:58Z</time>
  <course>304.44</course>
  <speed>0.99</speed>
  <fix>3d</fix>
</trkpt>
<trkpt lat="40.0714819" lon="-105.2295502">
  <ele>1582.99</ele>
  <time>2026-08-29T19:29:58Z</time>
  <course>305.21</course>
  <speed>0.9462557793746889</speed>
  <fix>3d</fix>
</trkpt>
<trkpt lat="40.0714813" lon="-105.2295495">
  <ele>1583.0</ele>
  <time>2026-08-29T19:29:58Z</time>
  <course>304.44</course>
  <speed>0.99</speed>
  <fix>3d</fix>
</trkpt>
<trkpt lat="40.0714824" lon="-105.2295512">
  <ele>1582.99</ele>
  <time>2026-08-29T19:29:58Z</time>
  <course>304.45</course>
  <speed>1.0486181383134663</speed>
  <fix>3d</fix>
</trkpt>
<trkpt lat="40.0714813" lon="-105.2295495">
  <ele>1583.0</ele>
  <time>2026-08-29T19:29:58Z</time>
  <course>304.44</course>
  <speed>0.99</speed>
  <fix>3d</fix>
</trkpt>
<trkpt lat="40.071483" lon="-105.2295524">
  <ele>1583.0</ele>
  <time>2026-08-29T19:29:58Z</time>
  <course>302.48</course>
  <speed>1.151216747619665</speed>
  <fix>3d</fix>
</trkpt>
<trkpt lat="40.0714824" lon="-105.2295515">
  <ele>1583.0</ele>
  <time>2026-08-29T19:29:58Z</time>
  <course>302.95</course>
  <speed>1.09</speed>
  <fix>3d</fix>
</trkpt>
<trkpt lat="40.0714835" lon="-105.2295536">
  <ele>1583.0</ele>
  <time>2026-08-29T19:29:58Z</time>
  <course>299.43</course>
  <speed>1.231665539016173</speed>
  <fix>3d</fix>
</trkpt>
<trkpt lat="40.0714824" lon="-105.2295515">
  <ele>1583.0</ele>
  <time>2026-08-29T19:29:58Z</time>
  <course>302.95</course>
  <speed>1.09</speed>
  <fix>3d</fix>
</trkpt>
<trkpt lat="40.0714842" lon="-105.2295553">
  <ele>1583.0</ele>
  <time>2026-08-29T19:29:58Z</time>
  <course>294.31</course>
  <speed>1.293560976529518</speed>
  <fix>3d</fix>
</trkpt>
<trkpt lat="40.0714835" lon="-105.2295538">
  <ele>1583.0</ele>
  <time>2026-08-29T19:29:58Z</time>
  <course>297.91</course>
  <speed>1.25</speed>
  <fix>3d</fix>
</trkpt>
<trkpt lat="40.0714846" lon="-105.2295568">
  <ele>1583.0</ele>
  <time>2026-08-29T19:29:58Z</time>
  <course>288.86</course>
  <speed>1.3313526955694348</speed>
  <fix>3d</fix>
</trkpt>
<trkpt lat="40.0714835" lon="-105.2295538">
  <ele>1583.0</ele>
  <time>2026-08-29T19:29:58Z</time>
  <course>297.91</course>
  <speed>1.25</speed>
  <fix>3d</fix>
</trkpt>
<trkpt lat="40.071485" lon="-105.2295584">
  <ele>1583.0</ele>
  <time>2026-08-29T19:29:58Z</time>
  <course>282.35</course>
  <speed>1.359154148726332</speed>
  <fix>3d</fix>
</trkpt>
<trkpt lat="40.0714844" lon="-105.2295567">
  <ele>1583.0</ele>
  <time>2026-08-29T19:29:58Z</time>
  <course>288.57</course>
  <speed>1.35</speed>
  <fix>3d</fix>
</trkpt>
<trkpt lat="40.0714851" lon="-105.2295601">
  <ele>1583.0</ele>
  <time>2026-08-29T19:29:58Z</time>
  <course>274.81</course>
  <speed>1.3636715146984628</speed>
  <fix>3d</fix>
</trkpt>
<trkpt lat="40.0714844" lon="-105.2295567">
  <ele>1583.0</ele>
  <time>2026-08-29T19:29:58Z</time>
  <course>288.57</course>
  <speed>1.35</speed>
  <fix>3d</fix>
</trkpt>
<trkpt lat="40.0714851" lon="-105.2295618">
  <ele>1583.0</ele>
  <time>2026-08-29T19:29:58Z</time>
  <course>267.48</course>
  <speed>1.3717871555019021</speed>
  <fix>3d</fix>
</trkpt>
<trkpt lat="40.0714849" lon="-105.2295599">
  <ele>1583.0</ele>
  <time>2026-08-29T19:29:58Z</time>
  <course>275.41</course>
  <speed>1.39</speed>
  <fix>3d</fix>
</trkpt>
<trkpt lat="40.071485" lon="-105.2295634">
  <ele>1583.0</ele>
  <time>2026-08-29T19:29:58Z</time>
  <course>261.29</course>
  <speed>1.367808466123821</speed>
  <fix>3d</fix>
</trkpt>
<trkpt lat="40.0714849" lon="-105.2295599">
  <ele>1583.0</ele>
  <time>2026-08-29T19:29:58Z</time>
  <course>275.41</course>
  <speed>1.39</speed>
  <fix>3d</fix>
</trkpt>
<trkpt lat="40.0714847" lon="-105.2295651">
  <ele>1583.0</ele>
  <time>2026-08-29T19:29:58Z</time>
  <course>256.14</course>
  <speed>1.375281789307195</speed>
  <fix>3d</fix>
</trkpt>
<trkpt lat="40.0714849" lon="-105.2295632">
  <ele>1583.0</ele>
  <time>2026-08-29T19:29:58Z</time>
  <course>262.1</course>
  <speed>1.4</speed>
  <fix>3d</fix>
</trkpt>
<trkpt lat="40.0714843" lon="-105.2295667">
  <ele>1583.0</ele>
  <time>2026-08-29T19:29:58Z</time>
  <course>252.01</course>
  <speed>1.3851353724455961</speed>
  <fix>3d</fix>
</trkpt>
<trkpt lat="40.0714849" lon="-105.2295632">
  <ele>1583.0</ele>
  <time>2026-08-29T19:29:58Z</time>
  <course>262.1</course>
  <speed>1.4</speed>
  <fix>3d</fix>
</trkpt>
<trkpt lat="40.0714838" lon="-105.2295682">
  <ele>1583.0</ele>
  <time>2026-08-29T19:29:58Z</time>
  <course>248.54</course>
  <speed>1.4076931483814221</speed>
  <fix>3d</fix>
</trkpt>
<trkpt lat="40.0714844" lon="-105.2295664">
  <ele>1583.0</ele>
  <time>2026-08-29T19:29:58Z</time>
  <course>252.26</course>
  <speed>1.42</speed>
  <fix>3d</fix>
</trkpt>
<trkpt lat="40.0714834" lon="-105.2295698">
  <ele>1583.0</ele>
  <time>2026-08-29T19:29:58Z</time>
  <course>245.65</course>
  <speed>1.431258187749506</speed>
  <fix>3d</fix>
</trkpt>
<trkpt lat="40.0714844" lon="-105.2295664">
  <ele>1583.0</ele>
  <time>2026-08-29T19:29:58Z</time>
  <course>252.26</course>
  <speed>1.42</speed>
  <fix>3d</fix>
</trkpt>
<trkpt lat="40.0714828" lon="-105.2295714">
  <ele>1583.0</ele>
  <time>2026-08-29T19:29:58Z</time>
  <course>243.24</course>
  <speed>1.449413674559475</speed>
  <fix>3d</fix>
</trkpt>
<trkpt lat="40.0714835" lon="-105.2295695">
  <ele>1583.0</ele>
  <time>2026-08-29T19:29:58Z</time>
  <course>245.56</course>
  <speed>1.46</speed>
  <fix>3d</fix>
</trkpt>
<trkpt lat="40.0714822" lon="-105.2295726">
  <ele>1583.0</ele>
  <time>2026-08-29T19:29:58Z</time>
  <course>241.59</course>
  <speed>1.4735331689514153</speed>
  <fix>3d</fix>
</trkpt>
<trkpt lat="40.0714835" lon="-105.2295695">
  <ele>1583.0</ele>
  <time>2026-08-29T19:29:58Z</time>
  <course>245.56</course>
  <speed>1.46</speed>
  <fix>3d</fix>
</trkpt>
<trkpt lat="40.0714815" lon="-105.2295742">
  <ele>1583.0</ele>
  <time>2026-08-29T19:29:58Z</time>
  <course>239.85</course>
  <speed>1.4989329538041387</speed>
  <fix>3d</fix>
</trkpt>
<trkpt lat="40.0714823" lon="-105.2295726">
  <ele>1583.0</ele>
  <time>2026-08-29T19:29:58Z</time>
  <course>240.91</course>
  <speed>1.51</speed>
  <fix>3d</fix>
</trkpt>
<trkpt lat="40.0714808" lon="-105.2295757">
  <ele>1583.0</ele>
  <time>2026-08-29T19:29:58Z</time>
  <course>238.4</course>
  <speed>1.5255490814785344</speed>
  <fix>3d</fix>
</trkpt>
<trkpt lat="40.0714823" lon="-105.2295726">
  <ele>1583.0</ele>
  <time>2026-08-29T19:29:58Z</time>
  <course>240.91</course>
  <speed>1.51</speed>
  <fix>3d</fix>
</trkpt>
<trkpt lat="40.07148" lon="-105.2295773">
  <ele>1583.0</ele>
  <time>2026-08-29T19:29:58Z</time>
  <course>237.21</course>
  <speed>1.5559562975867929</speed>
  <fix>3d</fix>
</trkpt>
<trkpt lat="40.0714808" lon="-105.2295757">
  <ele>1583.0</ele>
  <time>2026-08-29T19:29:58Z</time>
  <course>237.68</course>
  <speed>1.56</speed>
  <fix>3d</fix>
</trkpt>
<trkpt lat="40.0714792" lon="-105.2295789">
  <ele>1583.0</ele>
  <time>2026-08-29T19:29:58Z</time>
  <course>236.21</course>
  <speed>1.578670326572334</speed>
  <fix>3d</fix>
</trkpt>
<trkpt lat="40.0714808" lon="-105.2295757">
  <ele>1583.0</ele>
  <time>2026-08-29T19:29:58Z</time>
  <course>237.68</course>
  <speed>1.56</speed>
  <fix>3d</fix>
</trkpt>
<trkpt lat="40.0714783" lon="-105.2295804">
  <ele>1583.0</ele>
  <time>2026-08-29T19:29:58Z</time>
  <course>235.38</course>
  <speed>1.604244370412438</speed>
  <fix>3d</fix>
</trkpt>
<trkpt lat="40.0714792" lon="-105.2295789">
  <ele>1583.0</ele>
  <time>2026-08-29T19:29:58Z</time>
  <course>235.44</course>
  <speed>1.61</speed>
  <fix>3d</fix>
</trkpt>
<trkpt lat="40.0714775" lon="-105.229582">
  <ele>1583.01</ele>
  <time>2026-08-29T19:29:58Z</time>
  <course>234.69</course>
  <speed>1.616044553841261</speed>
  <fix>3d</fix>
</trkpt>
<trkpt lat="40.0714792" lon="-105.2295789">
  <ele>1583.0</ele>
  <time>2026-08-29T19:29:58Z</time>
  <course>235.44</course>
  <speed>1.61</speed>
  <fix>3d</fix>
</trkpt>
<trkpt lat="40.0714766" lon="-105.2295836">
  <ele>1583.01</ele>
  <time>2026-08-29T19:29:58Z</time>
  <course>234.1</course>
  <speed>1.6340440630533806</speed>
  <fix>3d</fix>
</trkpt>
<trkpt lat="40.0714775" lon="-105.229582">
  <ele>1583.0</ele>
  <time>2026-08-29T19:29:58Z</time>
  <course>233.89</course>
  <speed>1.65</speed>
  <fix>3d</fix>
</trkpt>
<trkpt lat="40.0714756" lon="-105.2295852">
  <ele>1583.01</ele>
  <time>2026-08-29T19:29:58Z</time>
  <course>233.63</course>
  <speed>1.6401219466856725</speed>
  <fix>3d</fix>
</trkpt>
<trkpt lat="40.0714775" lon="-105.229582">
  <ele>1583.0</ele>
  <time>2026-08-29T19:29:58Z</time>
  <course>233.89</course>
  <speed>1.65</speed>
  <fix>3d</fix>
</trkpt>
<trkpt lat="40.0714747" lon="-105.2295868">
  <ele>1583.01</ele>
  <time>2026-08-29T19:29:58Z</time>
  <course>233.23</course>
  <speed>1.6523922052587878</speed>
  <fix>3d</fix>
</trkpt>
<trkpt lat="40.0714758" lon="-105.2295852">
  <ele>1583.0</ele>
  <time>2026-08-29T19:29:58Z</time>
  <course>232.81</course>
  <speed>1.68</speed>
  <fix>3d</fix>
</trkpt>
<trkpt lat="40.0714736" lon="-105.2295887">
  <ele>1583.01</ele>
  <time>2026-08-29T19:29:58Z</time>
  <course>232.85</course>
  <speed>1.6585837331892532</speed>
  <fix>3d</fix>
</trkpt>
<trkpt lat="40.0714758" lon="-105.2295852">
  <ele>1583.0</ele>
  <time>2026-08-29T19:29:58Z</time>
  <course>232.81</course>
  <speed>1.68</speed>
  <fix>3d</fix>
</trkpt>
<trkpt lat="40.0714726" lon="-105.2295903">
  <ele>1583.02</ele>
  <time>2026-08-29T19:29:58Z</time>
  <course>232.58</course>
  <speed>1.6648123017325407</speed>
  <fix>3d</fix>
</trkpt>
<trkpt lat="40.0714739" lon="-105.2295883">
  <ele>1583.0</ele>
  <time>2026-08-29T19:29:58Z</time>
  <course>232.07</course>
  <speed>1.69</speed>
  <fix>3d</fix>
</trkpt>
<trkpt lat="40.0714717" lon="-105.2295919">
  <ele>1583.02</ele>
  <time>2026-08-29T19:29:58Z</time>
  <course>232.37</course>
  <speed>1.6648123017325407</speed>
  <fix>3d</fix>
</trkpt>
<trkpt lat="40.0714739" lon="-105.2295883">
  <ele>1583.0</ele>
  <time>2026-08-29T19:29:58Z</time>
  <course>232.07</course>
  <speed>1.69</speed>
  <fix>3d</fix>
</trkpt>
<trkpt lat="40.0714707" lon="-105.2295935">
  <ele>1583.02</ele>
  <time>2026-08-29T19:29:58Z</time>
  <course>232.19</course>
  <speed>1.6648123017325407</speed>
  <fix>3d</fix>
</trkpt>
<trkpt lat="40.071472" lon="-105.2295914">
  <ele>1583.0</ele>
  <time>2026-08-29T19:29:59Z</time>
  <course>231.56</course>
  <speed>1.7</speed>
  <fix>3d</fix>
</trkpt>
<trkpt lat="40.0714697" lon="-105.229595">
  <ele>1583.02</ele>
  <time>2026-08-29T19:29:59Z</time>
  <course>232.04</course>
  <speed>1.6710774967068402</speed>
  <fix>3d</fix>
</trkpt>
<trkpt lat="40.071472" lon="-105.2295914">
  <ele>1583.0</ele>
  <time>2026-08-29T19:29:59Z</time>
  <course>231.56</course>
  <speed>1.7</speed>
  <fix>3d</fix>
</trkpt>
<trkpt lat="40.0714688" lon="-105.2295966">
  <ele>1583.02</ele>
  <time>2026-08-29T19:29:59Z</time>
  <course>231.92</course>
  <speed>1.6633099530754933</speed>
  <fix>3d</fix>
</trkpt>
<trkpt lat="40.0714701" lon="-105.2295945">
  <ele>1583.0</ele>
  <time>2026-08-29T19:29:59Z</time>
  <course>231.21</course>
  <speed>1.7</speed>
  <fix>3d</fix>
</trkpt>
<trkpt lat="40.0714678" lon="-105.2295982">
  <ele>1583.02</ele>
  <time>2026-08-29T19:29:59Z</time>
  <course>231.82</course>
  <speed>1.6633099530754933</speed>
  <fix>3d</fix>
</trkpt>
<trkpt lat="40.0714701" lon="-105.2295945">
  <ele>1583.0</ele>
  <time>2026-08-29T19:29:59Z</time>
  <course>231.21</course>
  <speed>1.7</speed>
  <fix>3d</fix>
</trkpt>
<trkpt lat="40.0714669" lon="-105.2295997">
  <ele>1583.02</ele>
  <time>2026-08-29T19:29:59Z</time>
  <course>231.73</course>
  <speed>1.6633099530754933</speed>
  <fix>3d</fix>
</trkpt>
<trkpt lat="40.0714682" lon="-105.2295977">
  <ele>1583.0</ele>
  <time>2026-08-29T19:29:59Z</time>
  <course>230.96</course>
  <speed>1.7</speed>
  <fix>3d</fix>
</trkpt>
<trkpt lat="40.0714659" lon="-105.2296012">
  <ele>1583.02</ele>
  <time>2026-08-29T19:29:59Z</time>
  <course>231.67</course>
  <speed>1.6633099530754933</speed>
  <fix>3d</fix>
</trkpt>
<trkpt lat="40.0714682" lon="-105.2295977">
  <ele>1583.0</ele>
  <time>2026-08-29T19:29:59Z</time>
  <course>230.96</course>
  <speed>1.7</speed>
  <fix>3d</fix>
</trkpt>
<trkpt lat="40.071465" lon="-105.2296028">
  <ele>1583.03</ele>
  <time>2026-08-29T19:29:59Z</time>
  <course>231.61</course>
  <speed>1.6555663683464943</speed>
  <fix>3d</fix>
</trkpt>
<trkpt lat="40.0714663" lon="-105.2296007">
  <ele>1583.0</ele>
  <time>2026-08-29T19:29:59Z</time>
  <course>230.8</course>
  <speed>1.69</speed>
  <fix>3d</fix>
</trkpt>
<trkpt lat="40.071464" lon="-105.2296043">
  <ele>1583.03</ele>
  <time>2026-08-29T19:29:59Z</time>
  <course>231.57</course>
  <speed>1.6492422502470643</speed>
  <fix>3d</fix>
</trkpt>
<trkpt lat="40.0714663" lon="-105.2296007">
  <ele>1583.0</ele>
  <time>2026-08-29T19:29:59Z</time>
  <course>230.8</course>
  <speed>1.69</speed>
  <fix>3d</fix>
</trkpt>
<trkpt lat="40.0714633" lon="-105.2296055">
  <ele>1583.03</ele>
  <time>2026-08-29T19:29:59Z</time>
  <course>231.54</course>
  <speed>1.6492422502470643</speed>
  <fix>3d</fix>
</trkpt>
<trkpt lat="40.0714643" lon="-105.2296038">
  <ele>1583.0</ele>
  <time>2026-08-29T19:29:59Z</time>
  <course>230.69</course>
  <speed>1.69</speed>
  <fix>3d</fix>
</trkpt>
<trkpt lat="40.0714623" lon="-105.2296071">
  <ele>1583.03</ele>
  <time>2026-08-29T19:29:59Z</time>
  <course>231.52</course>
  <speed>1.6492422502470643</speed>
  <fix>3d</fix>
</trkpt>
<trkpt lat="40.0714643" lon="-105.2296038">
  <ele>1583.0</ele>
  <time>2026-08-29T19:29:59Z</time>
  <course>230.69</course>
  <speed>1.69</speed>
  <fix>3d</fix>
</trkpt>
<trkpt lat="40.0714613" lon="-105.2296086">
  <ele>1583.03</ele>
  <time>2026-08-29T19:29:59Z</time>
  <course>231.5</course>
  <speed>1.6492422502470643</speed>
  <fix>3d</fix>
</trkpt>
<trkpt lat="40.0714624" lon="-105.2296069">
  <ele>1583.0</ele>
  <time>2026-08-29T19:29:59Z</time>
  <course>230.63</course>
  <speed>1.69</speed>
  <fix>3d</fix>
</trkpt>
<trkpt lat="40.0714604" lon="-105.2296101">
  <ele>1583.03</ele>
  <time>2026-08-29T19:29:59Z</time>
  <course>231.47</course>
  <speed>1.6492422502470643</speed>
  <fix>3d</fix>
</trkpt>
<trkpt lat="40.0714624" lon="-105.2296069">
  <ele>1583.0</ele>
  <time>2026-08-29T19:29:59Z</time>
  <course>230.63</course>
  <speed>1.69</speed>
  <fix>3d</fix>
</trkpt>
<trkpt lat="40.0714594" lon="-105.2296117">
  <ele>1583.04</ele>
  <time>2026-08-29T19:29:59Z</time>
  <course>231.46</course>
  <speed>1.6492422502470643</speed>
  <fix>3d</fix>
</trkpt>
<trkpt lat="40.0714605" lon="-105.22961">
  <ele>1583.0</ele>
  <time>2026-08-29T19:29:59Z</time>
  <course>230.59</course>
  <speed>1.69</speed>
  <fix>3d</fix>
</trkpt>
<trkpt lat="40.0714585" lon="-105.2296132">
  <ele>1583.04</ele>
  <time>2026-08-29T19:29:59Z</time>
  <course>231.45</course>
  <speed>1.642954655491137</speed>
  <fix>3d</fix>
</trkpt>
<trkpt lat="40.0714605" lon="-105.22961">
  <ele>1583.0</ele>
  <time>2026-08-29T19:29:59Z</time>
  <course>230.59</course>
  <speed>1.69</speed>
  <fix>3d</fix>
</trkpt>
<trkpt lat="40.0714575" lon="-105.2296148">
  <ele>1583.04</ele>
  <time>2026-08-29T19:29:59Z</time>
  <course>231.45</course>
  <speed>1.6351758315239373</speed>
  <fix>3d</fix>
</trkpt>
<trkpt lat="40.0714586" lon="-105.2296131">
  <ele>1583.0</ele>
  <time>2026-08-29T19:29:59Z</time>
  <course>230.56</course>
  <speed>1.68</speed>
  <fix>3d</fix>
</trkpt>
<trkpt lat="40.0714566" lon="-105.2296163">
  <ele>1583.04</ele>
  <time>2026-08-29T19:29:59Z</time>
  <course>231.45</course>
  <speed>1.642954655491137</speed>
  <fix>3d</fix>
</trkpt>
<trkpt lat="40.0714586" lon="-105.2296131">
  <ele>1583.0</ele>
  <time>2026-08-29T19:29:59Z</time>
  <course>230.56</course>
  <speed>1.68</speed>
  <fix>3d</fix>
</trkpt>
<trkpt lat="40.0714556" lon="-105.2296179">
  <ele>1583.04</ele>
  <time>2026-08-29T19:29:59Z</time>
  <course>231.45</course>
  <speed>1.642954655491137</speed>
  <fix>3d</fix>
</trkpt>
<trkpt lat="40.0714566" lon="-105.2296161">
  <ele>1583.0</ele>
  <time>2026-08-29T19:29:59Z</time>
  <course>230.55</course>
  <speed>1.68</speed>
  <fix>3d</fix>
</trkpt>
<trkpt lat="40.0714546" lon="-105.2296194">
  <ele>1583.04</ele>
  <time>2026-08-29T19:29:59Z</time>
  <course>231.45</course>
  <speed>1.642954655491137</speed>
  <fix>3d</fix>
</trkpt>
<trkpt lat="40.0714566" lon="-105.2296161">
  <ele>1583.0</ele>
  <time>2026-08-29T19:29:59Z</time>
  <course>230.55</course>
  <speed>1.68</speed>
  <fix>3d</fix>
</trkpt>
<trkpt lat="40.0714535" lon="-105.2296212">
  <ele>1583.04</ele>
  <time>2026-08-29T19:29:59Z</time>
  <course>231.45</course>
  <speed>1.642954655491137</speed>
  <fix>3d</fix>
</trkpt>
<trkpt lat="40.0714547" lon="-105.2296192">
  <ele>1583.0</ele>
  <time>2026-08-29T19:29:59Z</time>
  <course>230.55</course>
  <speed>1.68</speed>
  <fix>3d</fix>
</trkpt>
<trkpt lat="40.0714525" lon="-105.2296228">
  <ele>1583.03</ele>
  <time>2026-08-29T19:29:59Z</time>
  <course>231.45</course>
  <speed>1.6367040050051813</speed>
  <fix>3d</fix>
</trkpt>
<trkpt lat="40.0714547" lon="-105.2296192">
  <ele>1583.0</ele>
  <time>2026-08-29T19:29:59Z</time>
  <course>230.55</course>
  <speed>1.68</speed>
  <fix>3d</fix>
</trkpt>
<trkpt lat="40.0714516" lon="-105.2296243">
  <ele>1583.04</ele>
  <time>2026-08-29T19:29:59Z</time>
  <course>231.45</course>
  <speed>1.6367040050051813</speed>
  <fix>3d</fix>
</trkpt>
<trkpt lat="40.0714528" lon="-105.2296222">
  <ele>1583.0</ele>
  <time>2026-08-29T19:29:59Z</time>
  <course>230.55</course>
  <speed>1.68</speed>
  <fix>3d</fix>
</trkpt>
<trkpt lat="40.0714506" lon="-105.2296259">
  <ele>1583.04</ele>
  <time>2026-08-29T19:29:59Z</time>
  <course>231.45</course>
  <speed>1.6367040050051813</speed>
  <fix>3d</fix>
</trkpt>
<trkpt lat="40.0714528" lon="-105.2296222">
  <ele>1583.0</ele>
  <time>2026-08-29T19:29:59Z</time>
  <course>230.55</course>
  <speed>1.68</speed>
  <fix>3d</fix>
</trkpt>
<trkpt lat="40.0714497" lon="-105.2296274">
  <ele>1583.04</ele>
  <time>2026-08-29T19:29:59Z</time>
  <course>231.45</course>
  <speed>1.6367040050051813</speed>
  <fix>3d</fix>
</trkpt>
<trkpt lat="40.0714509" lon="-105.2296253">
  <ele>1583.0</ele>
  <time>2026-08-29T19:29:59Z</time>
  <course>230.55</course>
  <speed>1.67</speed>
  <fix>3d</fix>
</trkpt>
<trkpt lat="40.0714487" lon="-105.2296289">
  <ele>1583.04</ele>
  <time>2026-08-29T19:29:59Z</time>
  <course>231.45</course>
  <speed>1.6367040050051813</speed>
  <fix>3d</fix>
</trkpt>
<trkpt lat="40.0714509" lon="-105.2296253">
  <ele>1583.0</ele>
  <time>2026-08-29T19:29:59Z</time>
  <course>230.55</course>
  <speed>1.67</speed>
  <fix>3d</fix>
</trkpt>
<trkpt lat="40.0714478" lon="-105.2296304">
  <ele>1583.04</ele>
  <time>2026-08-29T19:29:59Z</time>
  <course>231.45</course>
  <speed>1.6367040050051813</speed>
  <fix>3d</fix>
</trkpt>
<trkpt lat="40.071449" lon="-105.2296283">
  <ele>1583.0</ele>
  <time>2026-08-29T19:29:59Z</time>
  <course>230.55</course>
  <speed>1.67</speed>
  <fix>3d</fix>
</trkpt>
<trkpt lat="40.0714469" lon="-105.2296319">
  <ele>1583.04</ele>
  <time>2026-08-29T19:29:59Z</time>
  <course>231.45</course>
  <speed>1.6367040050051813</speed>
  <fix>3d</fix>
</trkpt>
<trkpt lat="40.071449" lon="-105.2296283">
  <ele>1583.0</ele>
  <time>2026-08-29T19:29:59Z</time>
  <course>230.55</course>
  <speed>1.67</speed>
  <fix>3d</fix>
</trkpt>
<trkpt lat="40.0714459" lon="-105.2296335">
  <ele>1583.04</ele>
  <time>2026-08-29T19:29:59Z</time>
  <course>231.45</course>
  <speed>1.6367040050051813</speed>
  <fix>3d</fix>
</trkpt>
<trkpt lat="40.071447" lon="-105.2296313">
  <ele>1583.0</ele>
  <time>2026-08-29T19:29:59Z</time>
  <course>230.55</course>
  <speed>1.67</speed>
  <fix>3d</fix>
</trkpt>
<trkpt lat="40.071445" lon="-105.229635">
  <ele>1583.04</ele>
  <time>2026-08-29T19:29:59Z</time>
  <course>231.45</course>
  <speed>1.6304907236779973</speed>
  <fix>3d</fix>
</trkpt>
<trkpt lat="40.071447" lon="-105.2296313">
  <ele>1583.0</ele>
  <time>2026-08-29T19:29:59Z</time>
  <course>230.55</course>
  <speed>1.67</speed>
  <fix>3d</fix>
</trkpt>
<trkpt lat="40.071444" lon="-105.2296365">
  <ele>1583.04</ele>
  <time>2026-08-29T19:29:59Z</time>
  <course>231.45</course>
  <speed>1.6304907236779973</speed>
  <fix>3d</fix>
</trkpt>
<trkpt lat="40.0714451" lon="-105.2296344">
  <ele>1583.0</ele>
  <time>2026-08-29T19:29:59Z</time>
  <course>230.55</course>
  <speed>1.67</speed>
  <fix>3d</fix>
</trkpt>
<trkpt lat="40.0714433" lon="-105.2296377">
  <ele>1583.03</ele>
  <time>2026-08-29T19:29:59Z</time>
  <course>231.45</course>
  <speed>1.6304907236779973</speed>
  <fix>3d</fix>
</trkpt>
<trkpt lat="40.0714451" lon="-105.2296344">
  <ele>1583.0</ele>
  <time>2026-08-29T19:29:59Z</time>
  <course>230.55</course>
  <speed>1.67</speed>
  <fix>3d</fix>
</trkpt>
<trkpt lat="40.0714423" lon="-105.2296392">
  <ele>1583.04</ele>
  <time>2026-08-29T19:29:59Z</time>
  <course>231.45</course>
  <speed>1.6304907236779973</speed>
  <fix>3d</fix>
</trkpt>
<trkpt lat="40.0714432" lon="-105.2296374">
  <ele>1583.0</ele>
  <time>2026-08-29T19:29:59Z</time>
  <course>230.55</course>
  <speed>1.67</speed>
  <fix>3d</fix>
</trkpt>
<trkpt lat="40.0714414" lon="-105.2296407">
  <ele>1583.04</ele>
  <time>2026-08-29T19:29:59Z</time>
  <course>231.44</course>
  <speed>1.6304907236779973</speed>
  <fix>3d</fix>
</trkpt>
<trkpt lat="40.0714432" lon="-105.2296374">
  <ele>1583.0</ele>
  <time>2026-08-29T19:29:59Z</time>
  <course>230.55</course>
  <speed>1.67</speed>
  <fix>3d</fix>
</trkpt>
<trkpt lat="40.0714405" lon="-105.2296422">
  <ele>1583.04</ele>
  <time>2026-08-29T19:29:59Z</time>
  <course>231.44</course>
  <speed>1.6304907236779973</speed>
  <fix>3d</fix>
</trkpt>
<trkpt lat="40.0714413" lon="-105.2296404">
  <ele>1583.0</ele>
  <time>2026-08-29T19:29:59Z</time>
  <course>230.55</course>
  <speed>1.67</speed>
  <fix>3d</fix>
</trkpt>
<trkpt lat="40.0714395" lon="-105.2296438">
  <ele>1583.04</ele>
  <time>2026-08-29T19:29:59Z</time>
  <course>231.44</course>
  <speed>1.6304907236779973</speed>
  <fix>3d</fix>
</trkpt>
<trkpt lat="40.0714413" lon="-105.2296404">
  <ele>1583.0</ele>
  <time>2026-08-29T19:29:59Z</time>
  <course>230.55</course>
  <speed>1.67</speed>
  <fix>3d</fix>
</trkpt>
<trkpt lat="40.0714385" lon="-105.2296453">
  <ele>1583.04</ele>
  <time>2026-08-29T19:29:59Z</time>
  <course>231.44</course>
  <speed>1.6304907236779973</speed>
  <fix>3d</fix>
</trkpt>
<trkpt lat="40.0714394" lon="-105.2296435">
  <ele>1583.0</ele>
  <time>2026-08-29T19:29:59Z</time>
  <course>230.55</course>
  <speed>1.67</speed>
  <fix>3d</fix>
</trkpt>
<trkpt lat="40.0714376" lon="-105.2296468">
  <ele>1583.04</ele>
  <time>2026-08-29T19:29:59Z</time>
  <course>231.44</course>
  <speed>1.6304907236779973</speed>
  <fix>3d</fix>
</trkpt>
<trkpt lat="40.0714394" lon="-105.2296435">
  <ele>1583.0</ele>
  <time>2026-08-29T19:29:59Z</time>
  <course>230.55</course>
  <speed>1.67</speed>
  <fix>3d</fix>
</trkpt>
<trkpt lat="40.0714366" lon="-105.2296484">
  <ele>1583.04</ele>
  <time>2026-08-29T19:29:59Z</time>
  <course>231.45</course>
  <speed>1.6304907236779973</speed>
  <fix>3d</fix>
</trkpt>
<trkpt lat="40.0714375" lon="-105.2296466">
  <ele>1583.0</ele>
  <time>2026-08-29T19:29:59Z</time>
  <course>230.56</course>
  <speed>1.67</speed>
  <fix>3d</fix>
</trkpt>
<trkpt lat="40.0714357" lon="-105.2296499">
  <ele>1583.04</ele>
  <time>2026-08-29T19:29:59Z</time>
  <course>231.45</course>
  <speed>1.6304907236779973</speed>
  <fix>3d</fix>
</trkpt>
<trkpt lat="40.0714375" lon="-105.2296466">
  <ele>1583.0</ele>
  <time>2026-08-29T19:29:59Z</time>
  <course>230.56</course>
  <speed>1.67</speed>
  <fix>3d</fix>
</trkpt>
<trkpt lat="40.0714347" lon="-105.2296514">
  <ele>1583.05</ele>
  <time>2026-08-29T19:29:59Z</time>
  <course>231.46</course>
  <speed>1.6304907236779973</speed>
  <fix>3d</fix>
</trkpt>
<trkpt lat="40.0714356" lon="-105.2296495">
  <ele>1583.0</ele>
  <time>2026-08-29T19:29:59Z</time>
  <course>230.57</course>
  <speed>1.67</speed>
  <fix>3d</fix>
</trkpt>
<trkpt lat="40.0714336" lon="-105.2296533">
  <ele>1583.05</ele>
  <time>2026-08-29T19:29:59Z</time>
  <course>231.47</course>
  <speed>1.6304907236779973</speed>
  <fix>3d</fix>
</trkpt>
<trkpt lat="40.0714356" lon="-105.2296495">
  <ele>1583.0</ele>
  <time>2026-08-29T19:29:59Z</time>
  <course>230.57</course>
  <speed>1.67</speed>
  <fix>3d</fix>
</trkpt>
<trkpt lat="40.0714326" lon="-105.2296548">
  <ele>1583.05</ele>
  <time>2026-08-29T19:29:59Z</time>
  <course>231.47</course>
  <speed>1.6304907236779973</speed>
  <fix>3d</fix>
</trkpt>
<trkpt lat="40.0714337" lon="-105.2296526">
  <ele>1583.0</ele>
  <time>2026-08-29T19:29:59Z</time>
  <course>230.58</course>
  <speed>1.67</speed>
  <fix>3d</fix>
</trkpt>
<trkpt lat="40.0714317" lon="-105.2296563">
  <ele>1583.05</ele>
  <time>2026-08-29T19:29:59Z</time>
  <course>231.49</course>
  <speed>1.63835283135227</speed>
  <fix>3d</fix>
</trkpt>
<trkpt lat="40.0714337" lon="-105.2296526">
  <ele>1583.0</ele>
  <time>2026-08-29T19:29:59Z</time>
  <course>230.58</course>
  <speed>1.67</speed>
  <fix>3d</fix>
</trkpt>
<trkpt lat="40.0714307" lon="-105.2296579">
  <ele>1583.05</ele>
  <time>2026-08-29T19:29:59Z</time>
  <course>231.49</course>
  <speed>1.63835283135227</speed>
  <fix>3d</fix>
</trkpt>
<trkpt lat="40.0714318" lon="-105.2296557">
  <ele>1583.0</ele>
  <time>2026-08-29T19:29:59Z</time>
  <course>230.61</course>
  <speed>1.67</speed>
  <fix>3d</fix>
</trkpt>
<trkpt lat="40.0714297" lon="-105.2296594">
  <ele>1583.05</ele>
  <time>2026-08-29T19:29:59Z</time>
  <course>231.5</course>
  <speed>1.63835283135227</speed>
  <fix>3d</fix>
</trkpt>
<trkpt lat="40.0714318" lon="-105.2296557">
  <ele>1583.0</ele>
  <time>2026-08-29T19:29:59Z</time>
  <course>230.61</course>
  <speed>1.67</speed>
  <fix>3d</fix>
</trkpt>
<trkpt lat="40.0714288" lon="-105.2296609">
  <ele>1583.05</ele>
  <time>2026-08-29T19:29:59Z</time>
  <course>231.51</course>
  <speed>1.63835283135227</speed>
  <fix>3d</fix>
</trkpt>
<trkpt lat="40.0714298" lon="-105.2296587">
  <ele>1583.0</ele>
  <time>2026-08-29T19:29:59Z</time>
  <course>230.62</course>
  <speed>1.67</speed>
  <fix>3d</fix>
</trkpt>
<trkpt lat="40.0714278" lon="-105.2296624">
  <ele>1583.05</ele>
  <time>2026-08-29T19:29:59Z</time>
  <course>231.52</course>
  <speed>1.63835283135227</speed>
  <fix>3d</fix>
</trkpt>
<trkpt lat="40.0714298" lon="-105.2296587">
  <ele>1583.0</ele>
  <time>2026-08-29T19:29:59Z</time>
  <course>230.62</course>
  <speed>1.67</speed>
  <fix>3d</fix>
</trkpt>
<trkpt lat="40.0714269" lon="-105.229664">
  <ele>1583.05</ele>
  <time>2026-08-29T19:29:59Z</time>
  <course>231.53</course>
  <speed>1.63835283135227</speed>
  <fix>3d</fix>
</trkpt>
<trkpt lat="40.0714279" lon="-105.2296618">
  <ele>1583.0</ele>
  <time>2026-08-29T19:29:59Z</time>
  <course>230.64</course>
  <speed>1.67</speed>
  <fix>3d</fix>
</trkpt>
<trkpt lat="40.071426" lon="-105.2296655">
  <ele>1583.05</ele>
  <time>2026-08-29T19:29:59Z</time>
  <course>231.54</course>
  <speed>1.63835283135227</speed>
  <fix>3d</fix>
</trkpt>
<trkpt lat="40.0714279" lon="-105.2296618">
  <ele>1583.0</ele>
  <time>2026-08-29T19:29:59Z</time>
  <course>230.64</course>
  <speed>1.67</speed>
  <fix>3d</fix>
</trkpt>
<trkpt lat="40.071425" lon="-105.229667">
  <ele>1583.05</ele>
  <time>2026-08-29T19:29:59Z</time>
  <course>231.55</course>
  <speed>1.63835283135227</speed>
  <fix>3d</fix>
</trkpt>
<trkpt lat="40.071426" lon="-105.2296648">
  <ele>1583.0</ele>
  <time>2026-08-29T19:29:59Z</time>
  <course>230.66</course>
  <speed>1.67</speed>
  <fix>3d</fix>
</trkpt>
<trkpt lat="40.0714241" lon="-105.2296685">
  <ele>1583.06</ele>
  <time>2026-08-29T19:29:59Z</time>
  <course>231.55</course>
  <speed>1.63835283135227</speed>
  <fix>3d</fix>
</trkpt>
<trkpt lat="40.071426" lon="-105.2296648">
  <ele>1583.0</ele>
  <time>2026-08-29T19:29:59Z</time>
  <course>230.66</course>
  <speed>1.67</speed>
  <fix>3d</fix>
</trkpt>
<trkpt lat="40.0714233" lon="-105.2296697">
  <ele>1583.06</ele>
  <time>2026-08-29T19:29:59Z</time>
  <course>231.56</course>
  <speed>1.63835283135227</speed>
  <fix>3d</fix>
</trkpt>
<trkpt lat="40.0714241" lon="-105.2296678">
  <ele>1583.0</ele>
  <time>2026-08-29T19:29:59Z</time>
  <course>230.68</course>
  <speed>1.67</speed>
  <fix>3d</fix>
</trkpt>
<trkpt lat="40.0714223" lon="-105.2296713">
  <ele>1583.06</ele>
  <time>2026-08-29T19:29:59Z</time>
  <course>231.57</course>
  <speed>1.63835283135227</speed>
  <fix>3d</fix>
</trkpt>
<trkpt lat="40.0714241" lon="-105.2296678">
  <ele>1583.0</ele>
  <time>2026-08-29T19:29:59Z</time>
  <course>230.68</course>
  <speed>1.67</speed>
  <fix>3d</fix>
</trkpt>
<trkpt lat="40.0714214" lon="-105.2296728">
  <ele>1583.06</ele>
  <time>2026-08-29T19:29:59Z</time>
  <course>231.58</course>
  <speed>1.63835283135227</speed>
  <fix>3d</fix>
</trkpt>
<trkpt lat="40.0714222" lon="-105.2296709">
  <ele>1583.0</ele>
  <time>2026-08-29T19:29:59Z</time>
  <course>230.7</course>
  <speed>1.67</speed>
  <fix>3d</fix>
</trkpt>
<trkpt lat="40.0714204" lon="-105.2296743">
  <ele>1583.06</ele>
  <time>2026-08-29T19:29:59Z</time>
  <course>231.59</course>
  <speed>1.63835283135227</speed>
  <fix>3d</fix>
</trkpt>
<trkpt lat="40.0714222" lon="-105.2296709">
  <ele>1583.0</ele>
  <time>2026-08-29T19:29:59Z</time>
  <course>230.7</course>
  <speed>1.67</speed>
  <fix>3d</fix>
</trkpt>
<trkpt lat="40.0714195" lon="-105.2296758">
  <ele>1583.06</ele>
  <time>2026-08-29T19:29:59Z</time>
  <course>231.59</course>
  <speed>1.63835283135227</speed>
  <fix>3d</fix>
</trkpt>
<trkpt lat="40.0714203" lon="-105.2296739">
  <ele>1583.0</ele>
  <time>2026-08-29T19:29:59Z</time>
  <course>230.72</course>
  <speed>1.67</speed>
  <fix>3d</fix>
</trkpt>
<trkpt lat="40.0714185" lon="-105.2296774">
  <ele>1583.06</ele>
  <time>2026-08-29T19:29:59Z</time>
  <course>231.6</course>
  <speed>1.63835283135227</speed>
  <fix>3d</fix>
</trkpt>
<trkpt lat="40.0714203" lon="-105.2296739">
  <ele>1583.0</ele>
  <time>2026-08-29T19:29:59Z</time>
  <course>230.72</course>
  <speed>1.67</speed>
  <fix>3d</fix>
</trkpt>
<trkpt lat="40.0714176" lon="-105.2296789">
  <ele>1583.06</ele>
  <time>2026-08-29T19:29:59Z</time>
  <course>231.61</course>
  <speed>1.63835283135227</speed>
  <fix>3d</fix>
</trkpt>
<trkpt lat="40.0714184" lon="-105.229677">
  <ele>1583.0</ele>
  <time>2026-08-29T19:29:59Z</time>
  <course>230.73</course>
  <speed>1.67</speed>
  <fix>3d</fix>
</trkpt>
<trkpt lat="40.0714166" lon="-105.2296805">
  <ele>1583.06</ele>
  <time>2026-08-29T19:29:59Z</time>
  <course>231.61</course>
  <speed>1.6462381358722071</speed>
  <fix>3d</fix>
</trkpt>
<trkpt lat="40.0714184" lon="-105.229677">
  <ele>1583.0</ele>
  <time>2026-08-29T19:29:59Z</time>
  <course>230.73</course>
  <speed>1.67</speed>
  <fix>3d</fix>
</trkpt>
<trkpt lat="40.0714156" lon="-105.229682">
  <ele>1583.06</ele>
  <time>2026-08-29T19:29:59Z</time>
  <course>231.63</course>
  <speed>1.6462381358722071</speed>
  <fix>3d</fix>
</trkpt>
<trkpt lat="40.0714165" lon="-105.22968">
  <ele>1583.0</ele>
  <time>2026-08-29T19:29:59Z</time>
  <course>230.75</course>
  <speed>1.67</speed>
  <fix>3d</fix>
</trkpt>
<trkpt lat="40.0714147" lon="-105.2296835">
  <ele>1583.05</ele>
  <time>2026-08-29T19:29:59Z</time>
  <course>231.63</course>
  <speed>1.6462381358722071</speed>
  <fix>3d</fix>
</trkpt>
<trkpt lat="40.0714165" lon="-105.22968">
  <ele>1583.0</ele>
  <time>2026-08-29T19:29:59Z</time>
  <course>230.75</course>
  <speed>1.67</speed>
  <fix>3d</fix>
</trkpt>
<trkpt lat="40.0714135" lon="-105.2296854">
  <ele>1583.05</ele>
  <time>2026-08-29T19:29:59Z</time>
  <course>231.64</course>
  <speed>1.6462381358722071</speed>
  <fix>3d</fix>
</trkpt>
<trkpt lat="40.0714146" lon="-105.229683">
  <ele>1583.0</ele>
  <time>2026-08-29T19:29:59Z</time>
  <course>230.77</course>
  <speed>1.67</speed>
  <fix>3d</fix>
</trkpt>
<trkpt lat="40.0714126" lon="-105.2296869">
  <ele>1583.05</ele>
  <time>2026-08-29T19:29:59Z</time>
  <course>231.65</course>
  <speed>1.6462381358722071</speed>
  <fix>3d</fix>
</trkpt>
<trkpt lat="40.0714146" lon="-105.229683">
  <ele>1583.0</ele>
  <time>2026-08-29T19:29:59Z</time>
  <course>230.77</course>
  <speed>1.67</speed>
  <fix>3d</fix>
</trkpt>
<trkpt lat="40.0714116" lon="-105.2296884">
  <ele>1583.04</ele>
  <time>2026-08-29T19:29:59Z</time>
  <course>231.66</course>
  <speed>1.6462381358722071</speed>
  <fix>3d</fix>
</trkpt>
<trkpt lat="40.0714127" lon="-105.2296861">
  <ele>1583.0</ele>
  <time>2026-08-29T19:29:59Z</time>
  <course>230.78</course>
  <speed>1.67</speed>
  <fix>3d</fix>
</trkpt>
<trkpt lat="40.0714107" lon="-105.22969">
  <ele>1583.04</ele>
  <time>2026-08-29T19:29:59Z</time>
  <course>231.66</course>
  <speed>1.6462381358722071</speed>
  <fix>3d</fix>
</trkpt>
<trkpt lat="40.0714127" lon="-105.2296861">
  <ele>1583.0</ele>
  <time>2026-08-29T19:29:59Z</time>
  <course>230.78</course>
  <speed>1.67</speed>
  <fix>3d</fix>
</trkpt>
<trkpt lat="40.0714097" lon="-105.2296915">
  <ele>1583.04</ele>
  <time>2026-08-29T19:29:59Z</time>
  <course>231.67</course>
  <speed>1.6462381358722071</speed>
  <fix>3d</fix>
</trkpt>
<trkpt lat="40.0714108" lon="-105.2296891">
  <ele>1583.0</ele>
  <time>2026-08-29T19:29:59Z</time>
  <course>230.8</course>
  <speed>1.67</speed>
  <fix>3d</fix>
</trkpt>
<trkpt lat="40.0714088" lon="-105.229693">
  <ele>1583.04</ele>
  <time>2026-08-29T19:29:59Z</time>
  <course>231.68</course>
  <speed>1.6462381358722071</speed>
  <fix>3d</fix>
</trkpt>
<trkpt lat="40.0714108" lon="-105.2296891">
  <ele>1583.0</ele>
  <time>2026-08-29T19:29:59Z</time>
  <course>230.8</course>
  <speed>1.67</speed>
  <fix>3d</fix>
</trkpt>
<trkpt lat="40.0714078" lon="-105.2296945">
  <ele>1583.04</ele>
  <time>2026-08-29T19:29:59Z</time>
  <course>231.69</course>
  <speed>1.6462381358722071</speed>
  <fix>3d</fix>
</trkpt>
<trkpt lat="40.0714089" lon="-105.2296921">
  <ele>1583.0</ele>
  <time>2026-08-29T19:29:59Z</time>
  <course>230.82</course>
  <speed>1.67</speed>
  <fix>3d</fix>
</trkpt>
<trkpt lat="40.0714069" lon="-105.2296961">
  <ele>1583.04</ele>
  <time>2026-08-29T19:29:59Z</time>
  <course>231.7</course>
  <speed>1.6462381358722071</speed>
  <fix>3d</fix>
</trkpt>
<trkpt lat="40.0714089" lon="-105.2296921">
  <ele>1583.0</ele>
  <time>2026-08-29T19:29:59Z</time>
  <course>230.82</course>
  <speed>1.67</speed>
  <fix>3d</fix>
</trkpt>
<trkpt lat="40.0714059" lon="-105.2296976">
  <ele>1583.04</ele>
  <time>2026-08-29T19:29:59Z</time>
  <course>231.71</course>
  <speed>1.6462381358722071</speed>
  <fix>3d</fix>
</trkpt>
<trkpt lat="40.071407" lon="-105.2296952">
  <ele>1583.0</ele>
  <time>2026-08-29T19:29:59Z</time>
  <course>230.83</course>
  <speed>1.67</speed>
  <fix>3d</fix>
</trkpt>
<trkpt lat="40.071405" lon="-105.2296991">
  <ele>1583.04</ele>
  <time>2026-08-29T19:29:59Z</time>
  <course>231.71</course>
  <speed>1.6462381358722071</speed>
  <fix>3d</fix>
</trkpt>
<trkpt lat="40.071407" lon="-105.2296952">
  <ele>1583.0</ele>
  <time>2026-08-29T19:29:59Z</time>
  <course>230.83</course>
  <speed>1.67</speed>
  <fix>3d</fix>
</trkpt>
<trkpt lat="40.0714041" lon="-105.2297006">
  <ele>1583.05</ele>
  <time>2026-08-29T19:29:59Z</time>
  <course>231.72</course>
  <speed>1.6462381358722071</speed>
  <fix>3d</fix>
</trkpt>
<trkpt lat="40.0714051" lon="-105.2296983">
  <ele>1583.0</ele>
  <time>2026-08-29T19:29:59Z</time>
  <course>230.85</course>
  <speed>1.67</speed>
  <fix>3d</fix>
</trkpt>
<trkpt lat="40.0714033" lon="-105.2297018">
  <ele>1583.05</ele>
  <time>2026-08-29T19:29:59Z</time>
  <course>231.72</course>
  <speed>1.6462381358722071</speed>
  <fix>3d</fix>
</trkpt>
<trkpt lat="40.0714051" lon="-105.2296983">
  <ele>1583.0</ele>
  <time>2026-08-29T19:29:59Z</time>
  <course>230.85</course>
  <speed>1.67</speed>
  <fix>3d</fix>
</trkpt>
<trkpt lat="40.0714024" lon="-105.2297033">
  <ele>1583.05</ele>
  <time>2026-08-29T19:29:59Z</time>
  <course>231.74</course>
  <speed>1.6462381358722071</speed>
  <fix>3d</fix>
</trkpt>
<trkpt lat="40.0714032" lon="-105.2297013">
  <ele>1583.0</ele>
  <time>2026-08-29T19:29:59Z</time>
  <course>230.87</course>
  <speed>1.67</speed>
  <fix>3d</fix>
</trkpt>
<trkpt lat="40.0714014" lon="-105.2297048">
  <ele>1583.04</ele>
  <time>2026-08-29T19:29:59Z</time>
  <course>231.74</course>
  <speed>1.6462381358722071</speed>
  <fix>3d</fix>
</trkpt>
<trkpt lat="40.0714032" lon="-105.2297013">
  <ele>1583.0</ele>
  <time>2026-08-29T19:29:59Z</time>
  <course>230.87</course>
  <speed>1.67</speed>
  <fix>3d</fix>
</trkpt>
<trkpt lat="40.0714005" lon="-105.2297063">
  <ele>1583.04</ele>
  <time>2026-08-29T19:29:59Z</time>
  <course>231.75</course>
  <speed>1.6462381358722071</speed>
  <fix>3d</fix>
</trkpt>
<trkpt lat="40.0714013" lon="-105.2297044">
  <ele>1583.0</ele>
  <time>2026-08-29T19:29:59Z</time>
  <course>230.88</course>
  <speed>1.67</speed>
  <fix>3d</fix>
</trkpt>
<trkpt lat="40.0713995" lon="-105.2297079">
  <ele>1583.04</ele>
  <time>2026-08-29T19:29:59Z</time>
  <course>231.75</course>
  <speed>1.6462381358722071</speed>
  <fix>3d</fix>
</trkpt>
<trkpt lat="40.0714013" lon="-105.2297044">
  <ele>1583.0</ele>
  <time>2026-08-29T19:29:59Z</time>
  <course>230.88</course>
  <speed>1.67</speed>
  <fix>3d</fix>
</trkpt>
<trkpt lat="40.0713986" lon="-105.2297094">
  <ele>1583.04</ele>
  <time>2026-08-29T19:29:59Z</time>
  <course>231.76</course>
  <speed>1.6462381358722071</speed>
  <fix>3d</fix>
</trkpt>
<trkpt lat="40.0713994" lon="-105.2297074">
  <ele>1583.0</ele>
  <time>2026-08-29T19:29:59Z</time>
  <course>230.9</course>
  <speed>1.67</speed>
  <fix>3d</fix>
</trkpt>
<trkpt lat="40.0713976" lon="-105.229711">
  <ele>1583.04</ele>
  <time>2026-08-29T19:29:59Z</time>
  <course>231.77</course>
  <speed>1.6462381358722071</speed>
  <fix>3d</fix>
</trkpt>
<trkpt lat="40.0713994" lon="-105.2297074">
  <ele>1583.0</ele>
  <time>2026-08-29T19:29:59Z</time>
  <course>230.9</course>
  <speed>1.67</speed>
  <fix>3d</fix>
</trkpt>
<trkpt lat="40.0713966" lon="-105.2297125">
  <ele>1583.04</ele>
  <time>2026-08-29T19:29:59Z</time>
  <course>231.77</course>
  <speed>1.6462381358722071</speed>
  <fix>3d</fix>
</trkpt>
<trkpt lat="40.0713975" lon="-105.2297105">
  <ele>1583.0</ele>
  <time>2026-08-29T19:29:59Z</time>
  <course>230.91</course>
  <speed>1.67</speed>
  <fix>3d</fix>
</trkpt>
<trkpt lat="40.0713957" lon="-105.229714">
  <ele>1583.04</ele>
  <time>2026-08-29T19:29:59Z</time>
  <course>231.78</course>
  <speed>1.6462381358722071</speed>
  <fix>3d</fix>
</trkpt>
<trkpt lat="40.0713975" lon="-105.2297105">
  <ele>1583.0</ele>
  <time>2026-08-29T19:29:59Z</time>
  <course>230.91</course>
  <speed>1.67</speed>
  <fix>3d</fix>
</trkpt>
<trkpt lat="40.0713945" lon="-105.2297159">
  <ele>1583.05</ele>
  <time>2026-08-29T19:29:59Z</time>
  <course>231.79</course>
  <speed>1.6462381358722071</speed>
  <fix>3d</fix>
</trkpt>
<trkpt lat="40.0713956" lon="-105.2297136">
  <ele>1583.0</ele>
  <time>2026-08-29T19:29:59Z</time>
  <course>230.93</course>
  <speed>1.67</speed>
  <fix>3d</fix>
</trkpt>
<trkpt lat="40.0713936" lon="-105.2297174">
  <ele>1583.05</ele>
  <time>2026-08-29T19:29:59Z</time>
  <course>231.8</course>
  <speed>1.6462381358722071</speed>
  <fix>3d</fix>
</trkpt>
<trkpt lat="40.0713956" lon="-105.2297136">
  <ele>1583.0</ele>
  <time>2026-08-29T19:29:59Z</time>
  <course>230.93</course>
  <speed>1.67</speed>
  <fix>3d</fix>
</trkpt>
<trkpt lat="40.0713926" lon="-105.229719">
  <ele>1583.05</ele>
  <time>2026-08-29T19:29:59Z</time>
  <course>231.8</course>
  <speed>1.6462381358722071</speed>
  <fix>3d</fix>
</trkpt>
<trkpt lat="40.0713937" lon="-105.2297166">
  <ele>1583.0</ele>
  <time>2026-08-29T19:29:59Z</time>
  <course>230.94</course>
  <speed>1.67</speed>
  <fix>3d</fix>
</trkpt>
<trkpt lat="40.0713916" lon="-105.2297205">
  <ele>1583.04</ele>
  <time>2026-08-29T19:29:59Z</time>
  <course>231.81</course>
  <speed>1.6602710622064096</speed>
  <fix>3d</fix>
</trkpt>
<trkpt lat="40.0713937" lon="-105.2297166">
  <ele>1583.0</ele>
  <time>2026-08-29T19:29:59Z</time>
  <course>230.94</course>
  <speed>1.67</speed>
  <fix>3d</fix>
</trkpt>
<trkpt lat="40.0713907" lon="-105.2297221">
  <ele>1583.04</ele>
  <time>2026-08-29T19:29:59Z</time>
  <course>231.82</course>
  <speed>1.6602710622064096</speed>
  <fix>3d</fix>
</trkpt>
<trkpt lat="40.0713918" lon="-105.2297197">
  <ele>1583.0</ele>
  <time>2026-08-29T19:29:59Z</time>
  <course>230.95</course>
  <speed>1.67</speed>
  <fix>3d</fix>
</trkpt>
<trkpt lat="40.0713897" lon="-105.2297236">
  <ele>1583.04</ele>
  <time>2026-08-29T19:29:59Z</time>
  <course>231.82</course>
  <speed>1.6602710622064096</speed>
  <fix>3d</fix>
</trkpt>
<trkpt lat="40.0713918" lon="-105.2297197">
  <ele>1583.0</ele>
  <time>2026-08-29T19:29:59Z</time>
  <course>230.95</course>
  <speed>1.67</speed>
  <fix>3d</fix>
</trkpt>
<trkpt lat="40.0713888" lon="-105.2297251">
  <ele>1583.04</ele>
  <time>2026-08-29T19:29:59Z</time>
  <course>231.83</course>
  <speed>1.6602710622064096</speed>
  <fix>3d</fix>
</trkpt>
<trkpt lat="40.0713899" lon="-105.2297227">
  <ele>1583.0</ele>
  <time>2026-08-29T19:29:59Z</time>
  <course>230.97</course>
  <speed>1.67</speed>
  <fix>3d</fix>
</trkpt>
<trkpt lat="40.0713878" lon="-105.2297267">
  <ele>1583.04</ele>
  <time>2026-08-29T19:29:59Z</time>
  <course>231.84</course>
  <speed>1.6602710622064096</speed>
  <fix>3d</fix>
</trkpt>
<trkpt lat="40.0713899" lon="-105.2297227">
  <ele>1583.0</ele>
  <time>2026-08-29T19:29:59Z</time>
  <course>230.97</course>
  <speed>1.67</speed>
  <fix>3d</fix>
</trkpt>
<trkpt lat="40.0713869" lon="-105.2297282">
  <ele>1583.04</ele>
  <time>2026-08-29T19:29:59Z</time>
  <course>231.84</course>
  <speed>1.6602710622064096</speed>
  <fix>3d</fix>
</trkpt>
<trkpt lat="40.071388" lon="-105.2297258">
  <ele>1583.0</ele>
  <time>2026-08-29T19:29:59Z</time>
  <course>230.98</course>
  <speed>1.68</speed>
  <fix>3d</fix>
</trkpt>
<trkpt lat="40.0713859" lon="-105.2297297">
  <ele>1583.04</ele>
  <time>2026-08-29T19:29:59Z</time>
  <course>231.86</course>
  <speed>1.6602710622064096</speed>
  <fix>3d</fix>
</trkpt>
<trkpt lat="40.071388" lon="-105.2297258">
  <ele>1583.0</ele>
  <time>2026-08-29T19:29:59Z</time>
  <course>230.98</course>
  <speed>1.68</speed>
  <fix>3d</fix>
</trkpt>
<trkpt lat="40.071385" lon="-105.2297312">
  <ele>1583.04</ele>
  <time>2026-08-29T19:29:59Z</time>
  <course>231.86</course>
  <speed>1.6541463055002117</speed>
  <fix>3d</fix>
</trkpt>
<trkpt lat="40.0713861" lon="-105.2297289">
  <ele>1583.0</ele>
  <time>2026-08-29T19:29:59Z</time>
  <course>231.0</course>
  <speed>1.68</speed>
  <fix>3d</fix>
</trkpt>
<trkpt lat="40.0713842" lon="-105.2297324">
  <ele>1583.04</ele>
  <time>2026-08-29T19:29:59Z</time>
  <course>231.87</course>
  <speed>1.6541463055002117</speed>
  <fix>3d</fix>
</trkpt>
<trkpt lat="40.0713861" lon="-105.2297289">
  <ele>1583.0</ele>
  <time>2026-08-29T19:29:59Z</time>
  <course>231.0</course>
  <speed>1.68</speed>
  <fix>3d</fix>
</trkpt>
<trkpt lat="40.0713833" lon="-105.229734">
  <ele>1583.04</ele>
  <time>2026-08-29T19:29:59Z</time>
  <course>231.87</course>
  <speed>1.6541463055002117</speed>
  <fix>3d</fix>
</trkpt>
<trkpt lat="40.0713842" lon="-105.229732">
  <ele>1583.0</ele>
  <time>2026-08-29T19:29:59Z</time>
  <course>231.01</course>
  <speed>1.68</speed>
  <fix>3d</fix>
</trkpt>
<trkpt lat="40.0713823" lon="-105.2297355">
  <ele>1583.04</ele>
  <time>2026-08-29T19:29:59Z</time>
  <course>231.88</course>
  <speed>1.6602710622064096</speed>
  <fix>3d</fix>
</trkpt>
<trkpt lat="40.0713842" lon="-105.229732">
  <ele>1583.0</ele>
  <time>2026-08-29T19:29:59Z</time>
  <course>231.01</course>
  <speed>1.68</speed>
  <fix>3d</fix>
</trkpt>
<trkpt lat="40.0713814" lon="-105.229737">
  <ele>1583.04</ele>
  <time>2026-08-29T19:29:59Z</time>
  <course>231.88</course>
  <speed>1.6602710622064096</speed>
  <fix>3d</fix>
</trkpt>
<trkpt lat="40.0713823" lon="-105.229735">
  <ele>1583.0</ele>
  <time>2026-08-29T19:29:59Z</time>
  <course>231.02</course>
  <speed>1.68</speed>
  <fix>3d</fix>
</trkpt>
<trkpt lat="40.0713804" lon="-105.2297386">
  <ele>1583.04</ele>
  <time>2026-08-29T19:29:59Z</time>
  <course>231.9</course>
  <speed>1.6602710622064096</speed>
  <fix>3d</fix>
</trkpt>
<trkpt lat="40.0713823" lon="-105.229735">
  <ele>1583.0</ele>
  <time>2026-08-29T19:29:59Z</time>
  <course>231.02</course>
  <speed>1.68</speed>
  <fix>3d</fix>
</trkpt>
<trkpt lat="40.0713795" lon="-105.2297401">
  <ele>1583.04</ele>
  <time>2026-08-29T19:29:59Z</time>
  <course>231.9</course>
  <speed>1.6602710622064096</speed>
  <fix>3d</fix>
</trkpt>
<trkpt lat="40.0713804" lon="-105.2297381">
  <ele>1583.0</ele>
  <time>2026-08-29T19:29:59Z</time>
  <course>231.04</course>
  <speed>1.68</speed>
  <fix>3d</fix>
</trkpt>
<trkpt lat="40.0713785" lon="-105.2297416">
  <ele>1583.04</ele>
  <time>2026-08-29T19:29:59Z</time>
  <course>231.91</course>
  <speed>1.6602710622064096</speed>
  <fix>3d</fix>
</trkpt>
<trkpt lat="40.0713804" lon="-105.2297381">
  <ele>1583.0</ele>
  <time>2026-08-29T19:29:59Z</time>
  <course>231.04</course>
  <speed>1.68</speed>
  <fix>3d</fix>
</trkpt>
<trkpt lat="40.0713776" lon="-105.2297432">
  <ele>1583.04</ele>
  <time>2026-08-29T19:29:59Z</time>
  <course>231.91</course>
  <speed>1.6602710622064096</speed>
  <fix>3d</fix>
</trkpt>
<trkpt lat="40.0713785" lon="-105.2297411">
  <ele>1583.0</ele>
  <time>2026-08-29T19:29:59Z</time>
  <course>231.05</course>
  <speed>1.68</speed>
  <fix>3d</fix>
</trkpt>
<trkpt lat="40.0713766" lon="-105.2297447">
  <ele>1583.04</ele>
  <time>2026-08-29T19:29:59Z</time>
  <course>231.92</course>
  <speed>1.6602710622064096</speed>
  <fix>3d</fix>
</trkpt>
<trkpt lat="40.0713785" lon="-105.2297411">
  <ele>1583.0</ele>
  <time>2026-08-29T19:29:59Z</time>
  <course>231.05</course>
  <speed>1.68</speed>
  <fix>3d</fix>
</trkpt>
<trkpt lat="40.0713757" lon="-105.2297463">
  <ele>1583.04</ele>
  <time>2026-08-29T19:29:59Z</time>
  <course>231.92</course>
  <speed>1.6602710622064096</speed>
  <fix>3d</fix>
</trkpt>
<trkpt lat="40.0713766" lon="-105.2297442">
  <ele>1583.0</ele>
  <time>2026-08-29T19:29:59Z</time>
  <course>231.07</course>
  <speed>1.68</speed>
  <fix>3d</fix>
</trkpt>
<trkpt lat="40.0713745" lon="-105.2297481">
  <ele>1583.04</ele>
  <time>2026-08-29T19:29:59Z</time>
  <course>231.93</course>
  <speed>1.6602710622064096</speed>
  <fix>3d</fix>
</trkpt>
<trkpt lat="40.0713766" lon="-105.2297442">
  <ele>1583.0</ele>
  <time>2026-08-29T19:29:59Z</time>
  <course>231.07</course>
  <speed>1.68</speed>
  <fix>3d</fix>
</trkpt>
<trkpt lat="40.0713736" lon="-105.2297497">
  <ele>1583.04</ele>
  <time>2026-08-29T19:29:59Z</time>
  <course>231.94</course>
  <speed>1.6602710622064096</speed>
  <fix>3d</fix>
</trkpt>
<trkpt lat="40.0713747" lon="-105.2297473">
  <ele>1583.0</ele>
  <time>2026-08-29T19:29:59Z</time>
  <course>231.08</course>
  <speed>1.68</speed>
  <fix>3d</fix>
</trkpt>
<trkpt lat="40.0713726" lon="-105.2297512">
  <ele>1583.03</ele>
  <time>2026-08-29T19:29:59Z</time>
  <course>231.94</course>
  <speed>1.6602710622064096</speed>
  <fix>3d</fix>
</trkpt>
<trkpt lat="40.0713747" lon="-105.2297473">
  <ele>1583.0</ele>
  <time>2026-08-29T19:29:59Z</time>
  <course>231.08</course>
  <speed>1.68</speed>
  <fix>3d</fix>
</trkpt>
<trkpt lat="40.0713716" lon="-105.2297528">
  <ele>1583.03</ele>
  <time>2026-08-29T19:29:59Z</time>
  <course>231.95</course>
  <speed>1.6602710622064096</speed>
  <fix>3d</fix>
</trkpt>
<trkpt lat="40.0713728" lon="-105.2297504">
  <ele>1583.0</ele>
  <time>2026-08-29T19:29:59Z</time>
  <course>231.1</course>
  <speed>1.68</speed>
  <fix>3d</fix>
</trkpt>
<trkpt lat="40.0713707" lon="-105.2297543">
  <ele>1583.02</ele>
  <time>2026-08-29T19:29:59Z</time>
  <course>231.96</course>
  <speed>1.6602710622064096</speed>
  <fix>3d</fix>
</trkpt>
<trkpt lat="40.0713728" lon="-105.2297504">
  <ele>1583.0</ele>
  <time>2026-08-29T19:29:59Z</time>
  <course>231.1</course>
  <speed>1.68</speed>
  <fix>3d</fix>
</trkpt>
<trkpt lat="40.0713697" lon="-105.2297559">
  <ele>1583.02</ele>
  <time>2026-08-29T19:29:59Z</time>
  <course>231.97</course>
  <speed>1.6602710622064096</speed>
  <fix>3d</fix>
</trkpt>
<trkpt lat="40.0713709" lon="-105.2297534">
  <ele>1583.0</ele>
  <time>2026-08-29T19:29:59Z</time>
  <course>231.11</course>
  <speed>1.68</speed>
  <fix>3d</fix>
</trkpt>
<trkpt lat="40.0713688" lon="-105.2297574">
  <ele>1583.02</ele>
  <time>2026-08-29T19:29:59Z</time>
  <course>231.97</course>
  <speed>1.6602710622064096</speed>
  <fix>3d</fix>
</trkpt>
<trkpt lat="40.0713709" lon="-105.2297534">
  <ele>1583.0</ele>
  <time>2026-08-29T19:29:59Z</time>
  <course>231.11</course>
  <speed>1.68</speed>
  <fix>3d</fix>
</trkpt>
<trkpt lat="40.0713679" lon="-105.2297589">
  <ele>1583.02</ele>
  <time>2026-08-29T19:29:59Z</time>
  <course>231.98</course>
  <speed>1.6602710622064096</speed>
  <fix>3d</fix>
</trkpt>
<trkpt lat="40.071369" lon="-105.2297565">
  <ele>1583.0</ele>
  <time>2026-08-29T19:29:59Z</time>
  <course>231.12</course>
  <speed>1.68</speed>
  <fix>3d</fix>
</trkpt>
<trkpt lat="40.0713669" lon="-105.2297604">
  <ele>1583.02</ele>
  <time>2026-08-29T19:29:59Z</time>
  <course>231.99</course>
  <speed>1.6602710622064096</speed>
  <fix>3d</fix>
</trkpt>
<trkpt lat="40.071369" lon="-105.2297565">
  <ele>1583.0</ele>
  <time>2026-08-29T19:29:59Z</time>
  <course>231.12</course>
  <speed>1.68</speed>
  <fix>3d</fix>
</trkpt>
<trkpt lat="40.071366" lon="-105.229762">
  <ele>1583.02</ele>
  <time>2026-08-29T19:29:59Z</time>
  <course>231.99</course>
  <speed>1.6602710622064096</speed>
  <fix>3d</fix>
</trkpt>
<trkpt lat="40.0713671" lon="-105.2297596">
  <ele>1583.0</ele>
  <time>2026-08-29T19:29:59Z</time>
  <course>231.14</course>
  <speed>1.68</speed>
  <fix>3d</fix>
</trkpt>
<trkpt lat="40.071365" lon="-105.2297635">
  <ele>1583.01</ele>
  <time>2026-08-29T19:29:59Z</time>
  <course>232.0</course>
  <speed>1.6602710622064096</speed>
  <fix>3d</fix>
</trkpt>
<trkpt lat="40.0713671" lon="-105.2297596">
  <ele>1583.0</ele>
  <time>2026-08-29T19:29:59Z</time>
  <course>231.14</course>
  <speed>1.68</speed>
  <fix>3d</fix>
</trkpt>
<trkpt lat="40.0713643" lon="-105.2297647">
  <ele>1583.01</ele>
  <time>2026-08-29T19:29:59Z</time>
  <course>232.01</course>
  <speed>1.6602710622064096</speed>
  <fix>3d</fix>
</trkpt>
<trkpt lat="40.0713652" lon="-105.2297627">
  <ele>1583.0</ele>
  <time>2026-08-29T19:29:59Z</time>
  <course>231.15</course>
  <speed>1.68</speed>
  <fix>3d</fix>
</trkpt>
<trkpt lat="40.0713633" lon="-105.2297662">
  <ele>1583.02</ele>
  <time>2026-08-29T19:29:59Z</time>
  <course>232.01</course>
  <speed>1.6602710622064096</speed>
  <fix>3d</fix>
</trkpt>
<trkpt lat="40.0713652" lon="-105.2297627">
  <ele>1583.0</ele>
  <time>2026-08-29T19:29:59Z</time>
  <course>231.15</course>
  <speed>1.68</speed>
  <fix>3d</fix>
</trkpt>
<trkpt lat="40.0713624" lon="-105.2297678">
  <ele>1583.02</ele>
  <time>2026-08-29T19:29:59Z</time>
  <course>232.02</course>
  <speed>1.6602710622064096</speed>
  <fix>3d</fix>
</trkpt>
<trkpt lat="40.0713633" lon="-105.2297658">
  <ele>1583.0</ele>
  <time>2026-08-29T19:29:59Z</time>
  <course>231.16</course>
  <speed>1.68</speed>
  <fix>3d</fix>
</trkpt>
<trkpt lat="40.0713614" lon="-105.2297693">
  <ele>1583.02</ele>
  <time>2026-08-29T19:29:59Z</time>
  <course>232.03</course>
  <speed>1.6602710622064096</speed>
  <fix>3d</fix>
</trkpt>
<trkpt lat="40.0713633" lon="-105.2297658">
  <ele>1583.0</ele>
  <time>2026-08-29T19:29:59Z</time>
  <course>231.16</course>
  <speed>1.68</speed>
  <fix>3d</fix>
</trkpt>
<trkpt lat="40.0713605" lon="-105.2297709">
  <ele>1583.02</ele>
  <time>2026-08-29T19:29:59Z</time>
  <course>232.04</course>
  <speed>1.6602710622064096</speed>
  <fix>3d</fix>
</trkpt>
<trkpt lat="40.0713614" lon="-105.2297689">
  <ele>1583.0</ele>
  <time>2026-08-29T19:29:59Z</time>
  <course>231.18</course>
  <speed>1.68</speed>
  <fix>3d</fix>
</trkpt>
<trkpt lat="40.0713595" lon="-105.2297724">
  <ele>1583.02</ele>
  <time>2026-08-29T19:29:59Z</time>
  <course>232.04</course>
  <speed>1.6602710622064096</speed>
  <fix>3d</fix>
</trkpt>
<trkpt lat="40.0713614" lon="-105.2297689">
  <ele>1583.0</ele>
  <time>2026-08-29T19:29:59Z</time>
  <course>231.18</course>
  <speed>1.68</speed>
  <fix>3d</fix>
</trkpt>
<trkpt lat="40.0713586" lon="-105.229774">
  <ele>1583.02</ele>
  <time>2026-08-29T19:29:59Z</time>
  <course>232.04</course>
  <speed>1.6602710622064096</speed>
  <fix>3d</fix>
</trkpt>
<trkpt lat="40.0713595" lon="-105.2297719">
  <ele>1583.0</ele>
  <time>2026-08-29T19:29:59Z</time>
  <course>231.19</course>
  <speed>1.68</speed>
  <fix>3d</fix>
</trkpt>
<trkpt lat="40.0713576" lon="-105.2297755">
  <ele>1583.03</ele>
  <time>2026-08-29T19:29:59Z</time>
  <course>232.04</course>
  <speed>1.6602710622064096</speed>
  <fix>3d</fix>
</trkpt>
<trkpt lat="40.0713595" lon="-105.2297719">
  <ele>1583.0</ele>
  <time>2026-08-29T19:29:59Z</time>
  <course>231.19</course>
  <speed>1.68</speed>
  <fix>3d</fix>
</trkpt>
<trkpt lat="40.0713566" lon="-105.2297771">
  <ele>1583.03</ele>
  <time>2026-08-29T19:29:59Z</time>
  <course>232.06</course>
  <speed>1.6602710622064096</speed>
  <fix>3d</fix>
</trkpt>
<trkpt lat="40.0713576" lon="-105.229775">
  <ele>1583.0</ele>
  <time>2026-08-29T19:29:59Z</time>
  <course>231.2</course>
  <speed>1.68</speed>
  <fix>3d</fix>
</trkpt>
<trkpt lat="40.0713557" lon="-105.2297786">
  <ele>1583.03</ele>
  <time>2026-08-29T19:29:59Z</time>
  <course>232.06</course>
  <speed>1.6602710622064096</speed>
  <fix>3d</fix>
</trkpt>
<trkpt lat="40.0713576" lon="-105.229775">
  <ele>1583.0</ele>
  <time>2026-08-29T19:29:59Z</time>
  <course>231.2</course>
  <speed>1.68</speed>
  <fix>3d</fix>
</trkpt>
<trkpt lat="40.0713545" lon="-105.2297805">
  <ele>1583.03</ele>
  <time>2026-08-29T19:29:59Z</time>
  <course>232.07</course>
  <speed>1.6602710622064096</speed>
  <fix>3d</fix>
</trkpt>
<trkpt lat="40.0713557" lon="-105.2297781">
  <ele>1583.0</ele>
  <time>2026-08-29T19:29:59Z</time>
  <course>231.22</course>
  <speed>1.68</speed>
  <fix>3d</fix>
</trkpt>
<trkpt lat="40.0713536" lon="-105.229782">
  <ele>1583.03</ele>
  <time>2026-08-29T19:29:59Z</time>
  <course>232.08</course>
  <speed>1.6602710622064096</speed>
  <fix>3d</fix>
</trkpt>
<trkpt lat="40.0713557" lon="-105.2297781">
  <ele>1583.0</ele>
  <time>2026-08-29T19:29:59Z</time>
  <course>231.22</course>
  <speed>1.68</speed>
  <fix>3d</fix>
</trkpt>
<trkpt lat="40.0713526" lon="-105.2297836">
  <ele>1583.03</ele>
  <time>2026-08-29T19:29:59Z</time>
  <course>232.09</course>
  <speed>1.6602710622064096</speed>
  <fix>3d</fix>
</trkpt>
<trkpt lat="40.0713538" lon="-105.2297812">
  <ele>1583.0</ele>
  <time>2026-08-29T19:29:59Z</time>
  <course>231.23</course>
  <speed>1.68</speed>
  <fix>3d</fix>
</trkpt>
<trkpt lat="40.0713517" lon="-105.2297851">
  <ele>1583.03</ele>
  <time>2026-08-29T19:29:59Z</time>
  <course>232.09</course>
  <speed>1.6681726529349412</speed>
  <fix>3d</fix>
</trkpt>
<trkpt lat="40.0713538" lon="-105.2297812">
  <ele>1583.0</ele>
  <time>2026-08-29T19:29:59Z</time>
  <course>231.23</course>
  <speed>1.68</speed>
  <fix>3d</fix>
</trkpt>
<trkpt lat="40.0713507" lon="-105.2297867">
  <ele>1583.03</ele>
  <time>2026-08-29T19:29:59Z</time>
  <course>232.1</course>
  <speed>1.6681726529349412</speed>
  <fix>3d</fix>
</trkpt>
<trkpt lat="40.0713519" lon="-105.2297843">
  <ele>1583.0</ele>
  <time>2026-08-29T19:29:59Z</time>
  <course>231.24</course>
  <speed>1.68</speed>
  <fix>3d</fix>
</trkpt>
<trkpt lat="40.0713498" lon="-105.2297882">
  <ele>1583.04</ele>
  <time>2026-08-29T19:29:59Z</time>
  <course>232.1</course>
  <speed>1.6681726529349412</speed>
  <fix>3d</fix>
</trkpt>
<trkpt lat="40.0713519" lon="-105.2297843">
  <ele>1583.0</ele>
  <time>2026-08-29T19:29:59Z</time>
  <course>231.24</course>
  <speed>1.68</speed>
  <fix>3d</fix>
</trkpt>
<trkpt lat="40.0713488" lon="-105.2297898">
  <ele>1583.04</ele>
  <time>2026-08-29T19:29:59Z</time>
  <course>232.11</course>
  <speed>1.6681726529349412</speed>
  <fix>3d</fix>
</trkpt>
<trkpt lat="40.07135" lon="-105.2297874">
  <ele>1583.0</ele>
  <time>2026-08-29T19:29:59Z</time>
  <course>231.25</course>
  <speed>1.68</speed>
  <fix>3d</fix>
</trkpt>
<trkpt lat="40.0713479" lon="-105.2297913">
  <ele>1583.04</ele>
  <time>2026-08-29T19:29:59Z</time>
  <course>232.11</course>
  <speed>1.6602710622064096</speed>
  <fix>3d</fix>
</trkpt>
<trkpt lat="40.07135" lon="-105.2297874">
  <ele>1583.0</ele>
  <time>2026-08-29T19:29:59Z</time>
  <course>231.25</course>
  <speed>1.68</speed>
  <fix>3d</fix>
</trkpt>
<trkpt lat="40.071347" lon="-105.2297928">
  <ele>1583.04</ele>
  <time>2026-08-29T19:29:59Z</time>
  <course>232.12</course>
  <speed>1.6602710622064096</speed>
  <fix>3d</fix>
</trkpt>
<trkpt lat="40.0713481" lon="-105.2297904">
  <ele>1583.0</ele>
  <time>2026-08-29T19:29:59Z</time>
  <course>231.27</course>
  <speed>1.68</speed>
  <fix>3d</fix>
</trkpt>
<trkpt lat="40.071346" lon="-105.2297943">
  <ele>1583.04</ele>
  <time>2026-08-29T19:29:59Z</time>
  <course>232.13</course>
  <speed>1.6602710622064096</speed>
  <fix>3d</fix>
</trkpt>
<trkpt lat="40.0713481" lon="-105.2297904">
  <ele>1583.0</ele>
  <time>2026-08-29T19:29:59Z</time>
  <course>231.27</course>
  <speed>1.68</speed>
  <fix>3d</fix>
</trkpt>
<trkpt lat="40.0713451" lon="-105.2297959">
  <ele>1583.04</ele>
  <time>2026-08-29T19:29:59Z</time>
  <course>232.14</course>
  <speed>1.6602710622064096</speed>
  <fix>3d</fix>
</trkpt>
<trkpt lat="40.0713462" lon="-105.2297935">
  <ele>1583.0</ele>
  <time>2026-08-29T19:29:59Z</time>
  <course>231.28</course>
  <speed>1.68</speed>
  <fix>3d</fix>
</trkpt>
<trkpt lat="40.0713443" lon="-105.2297971">
  <ele>1583.04</ele>
  <time>2026-08-29T19:29:59Z</time>
  <course>232.14</course>
  <speed>1.6602710622064096</speed>
  <fix>3d</fix>
</trkpt>
<trkpt lat="40.0713462" lon="-105.2297935">
  <ele>1583.0</ele>
  <time>2026-08-29T19:29:59Z</time>
  <course>231.28</course>
  <speed>1.68</speed>
  <fix>3d</fix>
</trkpt>
<trkpt lat="40.0713434" lon="-105.2297986">
  <ele>1583.04</ele>
  <time>2026-08-29T19:29:59Z</time>
  <course>232.15</course>
  <speed>1.6602710622064096</speed>
  <fix>3d</fix>
</trkpt>
<trkpt lat="40.0713443" lon="-105.2297966">
  <ele>1583.0</ele>
  <time>2026-08-29T19:29:59Z</time>
  <course>231.29</course>
  <speed>1.68</speed>
  <fix>3d</fix>
</trkpt>
<trkpt lat="40.0713424" lon="-105.2298002">
  <ele>1583.04</ele>
  <time>2026-08-29T19:29:59Z</time>
  <course>232.15</course>
  <speed>1.6602710622064096</speed>
  <fix>3d</fix>
</trkpt>
<trkpt lat="40.0713443" lon="-105.2297966">
  <ele>1583.0</ele>
  <time>2026-08-29T19:29:59Z</time>
  <course>231.29</course>
  <speed>1.68</speed>
  <fix>3d</fix>
</trkpt>
<trkpt lat="40.0713415" lon="-105.2298017">
  <ele>1583.04</ele>
  <time>2026-08-29T19:29:59Z</time>
  <course>232.17</course>
  <speed>1.6602710622064096</speed>
  <fix>3d</fix>
</trkpt>
<trkpt lat="40.0713424" lon="-105.2297997">
  <ele>1583.0</ele>
  <time>2026-08-29T19:29:59Z</time>
  <course>231.31</course>
  <speed>1.68</speed>
  <fix>3d</fix>
</trkpt>
<trkpt lat="40.0713405" lon="-105.2298032">
  <ele>1583.04</ele>
  <time>2026-08-29T19:29:59Z</time>
  <course>232.17</course>
  <speed>1.6602710622064096</speed>
  <fix>3d</fix>
</trkpt>
<trkpt lat="40.0713424" lon="-105.2297997">
  <ele>1583.0</ele>
  <time>2026-08-29T19:29:59Z</time>
  <course>231.31</course>
  <speed>1.68</speed>
  <fix>3d</fix>
</trkpt>
<trkpt lat="40.0713396" lon="-105.2298048">
  <ele>1583.04</ele>
  <time>2026-08-29T19:29:59Z</time>
  <course>232.18</course>
  <speed>1.6602710622064096</speed>
  <fix>3d</fix>
</trkpt>
<trkpt lat="40.0713405" lon="-105.2298028">
  <ele>1583.0</ele>
  <time>2026-08-29T19:29:59Z</time>
  <course>231.32</course>
  <speed>1.68</speed>
  <fix>3d</fix>
</trkpt>
<trkpt lat="40.0713386" lon="-105.2298063">
  <ele>1583.04</ele>
  <time>2026-08-29T19:29:59Z</time>
  <course>232.19</course>
  <speed>1.6602710622064096</speed>
  <fix>3d</fix>
</trkpt>
<trkpt lat="40.0713405" lon="-105.2298028">
  <ele>1583.0</ele>
  <time>2026-08-29T19:29:59Z</time>
  <course>231.32</course>
  <speed>1.68</speed>
  <fix>3d</fix>
</trkpt>
<trkpt lat="40.0713377" lon="-105.2298079">
  <ele>1583.03</ele>
  <time>2026-08-29T19:29:59Z</time>
  <course>232.19</course>
  <speed>1.6602710622064096</speed>
  <fix>3d</fix>
</trkpt>
<trkpt lat="40.0713386" lon="-105.2298059">
  <ele>1583.0</ele>
  <time>2026-08-29T19:29:59Z</time>
  <course>231.33</course>
  <speed>1.68</speed>
  <fix>3d</fix>
</trkpt>
<trkpt lat="40.0713367" lon="-105.2298095">
  <ele>1583.03</ele>
  <time>2026-08-29T19:29:59Z</time>
  <course>232.2</course>
  <speed>1.6602710622064096</speed>
  <fix>3d</fix>
</trkpt>
<trkpt lat="40.0713386" lon="-105.2298059">
  <ele>1583.0</ele>
  <time>2026-08-29T19:29:59Z</time>
  <course>231.33</course>
  <speed>1.68</speed>
  <fix>3d</fix>
</trkpt>
<trkpt lat="40.0713357" lon="-105.229811">
  <ele>1583.04</ele>
  <time>2026-08-29T19:29:59Z</time>
  <course>232.21</course>
  <speed>1.6681726529349412</speed>
  <fix>3d</fix>
</trkpt>
<trkpt lat="40.0713367" lon="-105.229809">
  <ele>1583.0</ele>
  <time>2026-08-29T19:29:59Z</time>
  <course>231.35</course>
  <speed>1.68</speed>
  <fix>3d</fix>
</trkpt>
<trkpt lat="40.0713346" lon="-105.2298129">
  <ele>1583.04</ele>
  <time>2026-08-29T19:29:59Z</time>
  <course>232.21</course>
  <speed>1.6681726529349412</speed>
  <fix>3d</fix>
</trkpt>
<trkpt lat="40.0713367" lon="-105.229809">
  <ele>1583.0</ele>
  <time>2026-08-29T19:29:59Z</time>
  <course>231.35</course>
  <speed>1.68</speed>
  <fix>3d</fix>
</trkpt>
<trkpt lat="40.0713336" lon="-105.2298144">
  <ele>1583.04</ele>
  <time>2026-08-29T19:29:59Z</time>
  <course>232.22</course>
  <speed>1.6681726529349412</speed>
  <fix>3d</fix>
</trkpt>
<trkpt lat="40.0713348" lon="-105.2298121">
  <ele>1583.0</ele>
  <time>2026-08-29T19:29:59Z</time>
  <course>231.36</course>
  <speed>1.68</speed>
  <fix>3d</fix>
</trkpt>
<trkpt lat="40.0713327" lon="-105.229816">
  <ele>1583.04</ele>
  <time>2026-08-29T19:29:59Z</time>
  <course>232.23</course>
  <speed>1.6681726529349412</speed>
  <fix>3d</fix>
</trkpt>
<trkpt lat="40.0713348" lon="-105.2298121">
  <ele>1583.0</ele>
  <time>2026-08-29T19:29:59Z</time>
  <course>231.36</course>
  <speed>1.68</speed>
  <fix>3d</fix>
</trkpt>
<trkpt lat="40.0713317" lon="-105.2298176">
  <ele>1583.04</ele>
  <time>2026-08-29T19:29:59Z</time>
  <course>232.24</course>
  <speed>1.6681726529349412</speed>
  <fix>3d</fix>
</trkpt>
<trkpt lat="40.0713329" lon="-105.2298152">
  <ele>1583.0</ele>
  <time>2026-08-29T19:29:59Z</time>
  <course>231.37</course>
  <speed>1.68</speed>
  <fix>3d</fix>
</trkpt>
<trkpt lat="40.0713308" lon="-105.2298191">
  <ele>1583.04</ele>
  <time>2026-08-29T19:29:59Z</time>
  <course>232.24</course>
  <speed>1.6681726529349412</speed>
  <fix>3d</fix>
</trkpt>
<trkpt lat="40.0713329" lon="-105.2298152">
  <ele>1583.0</ele>
  <time>2026-08-29T19:29:59Z</time>
  <course>231.37</course>
  <speed>1.68</speed>
  <fix>3d</fix>
</trkpt>
<trkpt lat="40.0713298" lon="-105.2298207">
  <ele>1583.04</ele>
  <time>2026-08-29T19:29:59Z</time>
  <course>232.25</course>
  <speed>1.6681726529349412</speed>
  <fix>3d</fix>
</trkpt>
<trkpt lat="40.071331" lon="-105.2298183">
  <ele>1583.0</ele>
  <time>2026-08-29T19:29:59Z</time>
  <course>231.39</course>
  <speed>1.68</speed>
  <fix>3d</fix>
</trkpt>
<trkpt lat="40.0713289" lon="-105.2298222">
  <ele>1583.04</ele>
  <time>2026-08-29T19:29:59Z</time>
  <course>232.26</course>
  <speed>1.6681726529349412</speed>
  <fix>3d</fix>
</trkpt>
<trkpt lat="40.071331" lon="-105.2298183">
  <ele>1583.0</ele>
  <time>2026-08-29T19:29:59Z</time>
  <course>231.39</course>
  <speed>1.68</speed>
  <fix>3d</fix>
</trkpt>
<trkpt lat="40.0713279" lon="-105.2298238">
  <ele>1583.04</ele>
  <time>2026-08-29T19:29:59Z</time>
  <course>232.26</course>
  <speed>1.6681726529349412</speed>
  <fix>3d</fix>
</trkpt>
<trkpt lat="40.0713291" lon="-105.2298214">
  <ele>1583.0</ele>
  <time>2026-08-29T19:29:59Z</time>
  <course>231.4</course>
  <speed>1.69</speed>
  <fix>3d</fix>
</trkpt>
<trkpt lat="40.071327" lon="-105.2298253">
  <ele>1583.04</ele>
  <time>2026-08-29T19:29:59Z</time>
  <course>232.27</course>
  <speed>1.6681726529349412</speed>
  <fix>3d</fix>
</trkpt>
<trkpt lat="40.0713291" lon="-105.2298214">
  <ele>1583.0</ele>
  <time>2026-08-29T19:29:59Z</time>
  <course>231.4</course>
  <speed>1.69</speed>
  <fix>3d</fix>
</trkpt>
<trkpt lat="40.0713261" lon="-105.2298268">
  <ele>1583.04</ele>
  <time>2026-08-29T19:29:59Z</time>
  <course>232.28</course>
  <speed>1.6681726529349412</speed>
  <fix>3d</fix>
</trkpt>
<trkpt lat="40.0713273" lon="-105.2298245">
  <ele>1583.0</ele>
  <time>2026-08-29T19:29:59Z</time>
  <course>231.42</course>
  <speed>1.69</speed>
  <fix>3d</fix>
</trkpt>
<trkpt lat="40.0713251" lon="-105.2298284">
  <ele>1583.03</ele>
  <time>2026-08-29T19:29:59Z</time>
  <course>232.28</course>
  <speed>1.6681726529349412</speed>
  <fix>3d</fix>
</trkpt>
<trkpt lat="40.0713273" lon="-105.2298245">
  <ele>1583.0</ele>
  <time>2026-08-29T19:29:59Z</time>
  <course>231.42</course>
  <speed>1.69</speed>
  <fix>3d</fix>
</trkpt>
<trkpt lat="40.0713244" lon="-105.2298296">
  <ele>1583.03</ele>
  <time>2026-08-29T19:29:59Z</time>
  <course>232.29</course>
  <speed>1.6681726529349412</speed>
  <fix>3d</fix>
</trkpt>
<trkpt lat="40.0713254" lon="-105.2298276">
  <ele>1583.0</ele>
  <time>2026-08-29T19:29:59Z</time>
  <course>231.43</course>
  <speed>1.69</speed>
  <fix>3d</fix>
</trkpt>
<trkpt lat="40.0713234" lon="-105.2298312">
  <ele>1583.03</ele>
  <time>2026-08-29T19:29:59Z</time>
  <course>232.3</course>
  <speed>1.6681726529349412</speed>
  <fix>3d</fix>
</trkpt>
<trkpt lat="40.0713254" lon="-105.2298276">
  <ele>1583.0</ele>
  <time>2026-08-29T19:29:59Z</time>
  <course>231.43</course>
  <speed>1.69</speed>
  <fix>3d</fix>
</trkpt>
<trkpt lat="40.0713225" lon="-105.2298327">
  <ele>1583.03</ele>
  <time>2026-08-29T19:29:59Z</time>
  <course>232.3</course>
  <speed>1.6681726529349412</speed>
  <fix>3d</fix>
</trkpt>
<trkpt lat="40.0713235" lon="-105.2298307">
  <ele>1583.0</ele>
  <time>2026-08-29T19:29:59Z</time>
  <course>231.44</course>
  <speed>1.69</speed>
  <fix>3d</fix>
</trkpt>
<trkpt lat="40.0713215" lon="-105.2298343">
  <ele>1583.03</ele>
  <time>2026-08-29T19:29:59Z</time>
  <course>232.31</course>
  <speed>1.6681726529349412</speed>
  <fix>3d</fix>
</trkpt>
<trkpt lat="40.0713235" lon="-105.2298307">
  <ele>1583.0</ele>
  <time>2026-08-29T19:29:59Z</time>
  <course>231.44</course>
  <speed>1.69</speed>
  <fix>3d</fix>
</trkpt>
<trkpt lat="40.0713206" lon="-105.2298358">
  <ele>1583.03</ele>
  <time>2026-08-29T19:29:59Z</time>
  <course>232.31</course>
  <speed>1.6681726529349412</speed>
  <fix>3d</fix>
</trkpt>
<trkpt lat="40.0713216" lon="-105.2298338">
  <ele>1583.0</ele>
  <time>2026-08-29T19:29:59Z</time>
  <course>231.45</course>
  <speed>1.69</speed>
  <fix>3d</fix>
</trkpt>
<trkpt lat="40.0713196" lon="-105.2298374">
  <ele>1583.03</ele>
  <time>2026-08-29T19:29:59Z</time>
  <course>232.33</course>
  <speed>1.6681726529349412</speed>
  <fix>3d</fix>
</trkpt>
<trkpt lat="40.0713216" lon="-105.2298338">
  <ele>1583.0</ele>
  <time>2026-08-29T19:29:59Z</time>
  <course>231.45</course>
  <speed>1.69</speed>
  <fix>3d</fix>
</trkpt>
<trkpt lat="40.0713187" lon="-105.2298389">
  <ele>1583.04</ele>
  <time>2026-08-29T19:29:59Z</time>
  <course>232.33</course>
  <speed>1.6681726529349412</speed>
  <fix>3d</fix>
</trkpt>
<trkpt lat="40.0713197" lon="-105.2298369">
  <ele>1583.0</ele>
  <time>2026-08-29T19:29:59Z</time>
  <course>231.47</course>
  <speed>1.69</speed>
  <fix>3d</fix>
</trkpt>
<trkpt lat="40.0713177" lon="-105.2298405">
  <ele>1583.04</ele>
  <time>2026-08-29T19:29:59Z</time>
  <course>232.34</course>
  <speed>1.6681726529349412</speed>
  <fix>3d</fix>
</trkpt>
<trkpt lat="40.0713197" lon="-105.2298369">
  <ele>1583.0</ele>
  <time>2026-08-29T19:29:59Z</time>
  <course>231.47</course>
  <speed>1.69</speed>
  <fix>3d</fix>
</trkpt>
<trkpt lat="40.0713168" lon="-105.2298421">
  <ele>1583.04</ele>
  <time>2026-08-29T19:29:59Z</time>
  <course>232.34</course>
  <speed>1.6681726529349412</speed>
  <fix>3d</fix>
</trkpt>
<trkpt lat="40.0713178" lon="-105.22984">
  <ele>1583.0</ele>
  <time>2026-08-29T19:29:59Z</time>
  <course>231.48</course>
  <speed>1.69</speed>
  <fix>3d</fix>
</trkpt>
<trkpt lat="40.0713158" lon="-105.2298436">
  <ele>1583.05</ele>
  <time>2026-08-29T19:29:59Z</time>
  <course>232.35</course>
  <speed>1.6681726529349412</speed>
  <fix>3d</fix>
</trkpt>
<trkpt lat="40.0713178" lon="-105.22984">
  <ele>1583.0</ele>
  <time>2026-08-29T19:29:59Z</time>
  <course>231.48</course>
  <speed>1.69</speed>
  <fix>3d</fix>
</trkpt>
<trkpt lat="40.0713147" lon="-105.2298455">
  <ele>1583.05</ele>
  <time>2026-08-29T19:29:59Z</time>
  <course>232.35</course>
  <speed>1.6681726529349412</speed>
  <fix>3d</fix>
</trkpt>
<trkpt lat="40.0713159" lon="-105.2298431">
  <ele>1583.0</ele>
  <time>2026-08-29T19:29:59Z</time>
  <course>231.49</course>
  <speed>1.69</speed>
  <fix>3d</fix>
</trkpt>
<trkpt lat="40.0713138" lon="-105.2298471">
  <ele>1583.05</ele>
  <time>2026-08-29T19:29:59Z</time>
  <course>232.37</course>
  <speed>1.6681726529349412</speed>
  <fix>3d</fix>
</trkpt>
<trkpt lat="40.0713159" lon="-105.2298431">
  <ele>1583.0</ele>
  <time>2026-08-29T19:29:59Z</time>
  <course>231.49</course>
  <speed>1.69</speed>
  <fix>3d</fix>
</trkpt>
<trkpt lat="40.0713128" lon="-105.2298486">
  <ele>1583.05</ele>
  <time>2026-08-29T19:29:59Z</time>
  <course>232.37</course>
  <speed>1.6681726529349412</speed>
  <fix>3d</fix>
</trkpt>
<trkpt lat="40.071314" lon="-105.2298462">
  <ele>1583.0</ele>
  <time>2026-08-29T19:29:59Z</time>
  <course>231.5</course>
  <speed>1.69</speed>
  <fix>3d</fix>
</trkpt>
<trkpt lat="40.0713119" lon="-105.2298502">
  <ele>1583.05</ele>
  <time>2026-08-29T19:29:59Z</time>
  <course>232.38</course>
  <speed>1.6681726529349412</speed>
  <fix>3d</fix>
</trkpt>
<trkpt lat="40.071314" lon="-105.2298462">
  <ele>1583.0</ele>
  <time>2026-08-29T19:29:59Z</time>
  <course>231.5</course>
  <speed>1.69</speed>
  <fix>3d</fix>
</trkpt>
<trkpt lat="40.0713109" lon="-105.2298517">
  <ele>1583.05</ele>
  <time>2026-08-29T19:29:59Z</time>
  <course>232.38</course>
  <speed>1.6681726529349412</speed>
  <fix>3d</fix>
</trkpt>
<trkpt lat="40.0713121" lon="-105.2298494">
  <ele>1583.0</ele>
  <time>2026-08-29T19:29:59Z</time>
  <course>231.52</course>
  <speed>1.69</speed>
  <fix>3d</fix>
</trkpt>
<trkpt lat="40.07131" lon="-105.2298533">
  <ele>1583.05</ele>
  <time>2026-08-29T19:29:59Z</time>
  <course>232.39</course>
  <speed>1.6681726529349412</speed>
  <fix>3d</fix>
</trkpt>
<trkpt lat="40.0713121" lon="-105.2298494">
  <ele>1583.0</ele>
  <time>2026-08-29T19:29:59Z</time>
  <course>231.52</course>
  <speed>1.69</speed>
  <fix>3d</fix>
</trkpt>
<trkpt lat="40.071309" lon="-105.2298548">
  <ele>1583.05</ele>
  <time>2026-08-29T19:29:59Z</time>
  <course>232.4</course>
  <speed>1.6681726529349412</speed>
  <fix>3d</fix>
</trkpt>
<trkpt lat="40.0713102" lon="-105.2298525">
  <ele>1583.0</ele>
  <time>2026-08-29T19:29:59Z</time>
  <course>231.53</course>
  <speed>1.69</speed>
  <fix>3d</fix>
</trkpt>
<trkpt lat="40.0713081" lon="-105.2298564">
  <ele>1583.05</ele>
  <time>2026-08-29T19:29:59Z</time>
  <course>232.41</course>
  <speed>1.6681726529349412</speed>
  <fix>3d</fix>
</trkpt>
<trkpt lat="40.0713102" lon="-105.2298525">
  <ele>1583.0</ele>
  <time>2026-08-29T19:29:59Z</time>
  <course>231.53</course>
  <speed>1.69</speed>
  <fix>3d</fix>
</trkpt>
<trkpt lat="40.0713072" lon="-105.2298579">
  <ele>1583.05</ele>
  <time>2026-08-29T19:29:59Z</time>
  <course>232.42</course>
  <speed>1.6681726529349412</speed>
  <fix>3d</fix>
</trkpt>
<trkpt lat="40.0713083" lon="-105.2298556">
  <ele>1583.0</ele>
  <time>2026-08-29T19:29:59Z</time>
  <course>231.54</course>
  <speed>1.69</speed>
  <fix>3d</fix>
</trkpt>
<trkpt lat="40.0713062" lon="-105.2298595">
  <ele>1583.05</ele>
  <time>2026-08-29T19:29:59Z</time>
  <course>232.42</course>
  <speed>1.6681726529349412</speed>
  <fix>3d</fix>
</trkpt>
<trkpt lat="40.0713083" lon="-105.2298556">
  <ele>1583.0</ele>
  <time>2026-08-29T19:29:59Z</time>
  <course>231.54</course>
  <speed>1.69</speed>
  <fix>3d</fix>
</trkpt>
<trkpt lat="40.0713053" lon="-105.229861">
  <ele>1583.05</ele>
  <time>2026-08-29T19:29:59Z</time>
  <course>232.42</course>
  <speed>1.6681726529349412</speed>
  <fix>3d</fix>
</trkpt>
<trkpt lat="40.0713064" lon="-105.2298587">
  <ele>1583.0</ele>
  <time>2026-08-29T19:29:59Z</time>
  <course>231.56</course>
  <speed>1.69</speed>
  <fix>3d</fix>
</trkpt>
<trkpt lat="40.0713045" lon="-105.2298622">
  <ele>1583.05</ele>
  <time>2026-08-29T19:29:59Z</time>
  <course>232.44</course>
  <speed>1.6681726529349412</speed>
  <fix>3d</fix>
</trkpt>
<trkpt lat="40.0713064" lon="-105.2298587">
  <ele>1583.0</ele>
  <time>2026-08-29T19:29:59Z</time>
  <course>231.56</course>
  <speed>1.69</speed>
  <fix>3d</fix>
</trkpt>
<trkpt lat="40.0713036" lon="-105.2298638">
  <ele>1583.05</ele>
  <time>2026-08-29T19:29:59Z</time>
  <course>232.44</course>
  <speed>1.6681726529349412</speed>
  <fix>3d</fix>
</trkpt>
<trkpt lat="40.0713045" lon="-105.2298618">
  <ele>1583.0</ele>
  <time>2026-08-29T19:29:59Z</time>
  <course>231.57</course>
  <speed>1.69</speed>
  <fix>3d</fix>
</trkpt>
<trkpt lat="40.0713026" lon="-105.2298653">
  <ele>1583.05</ele>
  <time>2026-08-29T19:29:59Z</time>
  <course>232.45</course>
  <speed>1.6681726529349412</speed>
  <fix>3d</fix>
</trkpt>
<trkpt lat="40.0713045" lon="-105.2298618">
  <ele>1583.0</ele>
  <time>2026-08-29T19:29:59Z</time>
  <course>231.57</course>
  <speed>1.69</speed>
  <fix>3d</fix>
</trkpt>
<trkpt lat="40.0713017" lon="-105.2298669">
  <ele>1583.05</ele>
  <time>2026-08-29T19:29:59Z</time>
  <course>232.46</course>
  <speed>1.6681726529349412</speed>
  <fix>3d</fix>
</trkpt>
<trkpt lat="40.0713027" lon="-105.2298649">
  <ele>1583.0</ele>
  <time>2026-08-29T19:29:59Z</time>
  <course>231.59</course>
  <speed>1.69</speed>
  <fix>3d</fix>
</trkpt>
<trkpt lat="40.0713008" lon="-105.2298684">
  <ele>1583.05</ele>
  <time>2026-08-29T19:29:59Z</time>
  <course>232.47</course>
  <speed>1.6681726529349412</speed>
  <fix>3d</fix>
</trkpt>
<trkpt lat="40.0713027" lon="-105.2298649">
  <ele>1583.0</ele>
  <time>2026-08-29T19:29:59Z</time>
  <course>231.59</course>
  <speed>1.69</speed>
  <fix>3d</fix>
</trkpt>
<trkpt lat="40.0712998" lon="-105.22987">
  <ele>1583.05</ele>
  <time>2026-08-29T19:29:59Z</time>
  <course>232.47</course>
  <speed>1.6681726529349412</speed>
  <fix>3d</fix>
</trkpt>
<trkpt lat="40.0713008" lon="-105.2298681">
  <ele>1583.0</ele>
  <time>2026-08-29T19:29:59Z</time>
  <course>231.61</course>
  <speed>1.69</speed>
  <fix>3d</fix>
</trkpt>
<trkpt lat="40.0712989" lon="-105.2298716">
  <ele>1583.05</ele>
  <time>2026-08-29T19:29:59Z</time>
  <course>232.48</course>
  <speed>1.6681726529349412</speed>
  <fix>3d</fix>
</trkpt>
<trkpt lat="40.0713008" lon="-105.2298681">
  <ele>1583.0</ele>
  <time>2026-08-29T19:29:59Z</time>
  <course>231.61</course>
  <speed>1.69</speed>
  <fix>3d</fix>
</trkpt>
<trkpt lat="40.0712979" lon="-105.2298732">
  <ele>1583.05</ele>
  <time>2026-08-29T19:29:59Z</time>
  <course>232.48</course>
  <speed>1.6681726529349412</speed>
  <fix>3d</fix>
</trkpt>
<trkpt lat="40.0712989" lon="-105.2298712">
  <ele>1583.0</ele>
  <time>2026-08-29T19:29:59Z</time>
  <course>231.62</course>
  <speed>1.69</speed>
  <fix>3d</fix>
</trkpt>
<trkpt lat="40.071297" lon="-105.2298747">
  <ele>1583.06</ele>
  <time>2026-08-29T19:29:59Z</time>
  <course>232.5</course>
  <speed>1.6681726529349412</speed>
  <fix>3d</fix>
</trkpt>
<trkpt lat="40.0712989" lon="-105.2298712">
  <ele>1583.0</ele>
  <time>2026-08-29T19:29:59Z</time>
  <course>231.62</course>
  <speed>1.69</speed>
  <fix>3d</fix>
</trkpt>
<trkpt lat="40.0712958" lon="-105.2298766">
  <ele>1583.06</ele>
  <time>2026-08-29T19:29:59Z</time>
  <course>232.5</course>
  <speed>1.6681726529349412</speed>
  <fix>3d</fix>
</trkpt>
<trkpt lat="40.071297" lon="-105.2298743">
  <ele>1583.0</ele>
  <time>2026-08-29T19:29:59Z</time>
  <course>231.63</course>
  <speed>1.69</speed>
  <fix>3d</fix>
</trkpt>
<trkpt lat="40.0712949" lon="-105.2298782">
  <ele>1583.06</ele>
  <time>2026-08-29T19:29:59Z</time>
  <course>232.51</course>
  <speed>1.6760966559241146</speed>
  <fix>3d</fix>
</trkpt>
<trkpt lat="40.071297" lon="-105.2298743">
  <ele>1583.0</ele>
  <time>2026-08-29T19:29:59Z</time>
  <course>231.63</course>
  <speed>1.69</speed>
  <fix>3d</fix>
</trkpt>
<trkpt lat="40.0712939" lon="-105.2298798">
  <ele>1583.05</ele>
  <time>2026-08-29T19:29:59Z</time>
  <course>232.51</course>
  <speed>1.6760966559241146</speed>
  <fix>3d</fix>
</trkpt>
<trkpt lat="40.0712951" lon="-105.2298774">
  <ele>1583.0</ele>
  <time>2026-08-29T19:29:59Z</time>
  <course>231.64</course>
  <speed>1.69</speed>
  <fix>3d</fix>
</trkpt>
<trkpt lat="40.071293" lon="-105.2298813">
  <ele>1583.05</ele>
  <time>2026-08-29T19:29:59Z</time>
  <course>232.53</course>
  <speed>1.6760966559241146</speed>
  <fix>3d</fix>
</trkpt>
<trkpt lat="40.0712951" lon="-105.2298774">
  <ele>1583.0</ele>
  <time>2026-08-29T19:29:59Z</time>
  <course>231.64</course>
  <speed>1.69</speed>
  <fix>3d</fix>
</trkpt>
<trkpt lat="40.071292" lon="-105.2298829">
  <ele>1583.05</ele>
  <time>2026-08-29T19:29:59Z</time>
  <course>232.53</course>
  <speed>1.6760966559241146</speed>
  <fix>3d</fix>
</trkpt>
<trkpt lat="40.0712932" lon="-105.2298805">
  <ele>1583.0</ele>
  <time>2026-08-29T19:29:59Z</time>
  <course>231.66</course>
  <speed>1.69</speed>
  <fix>3d</fix>
</trkpt>
<trkpt lat="40.0712911" lon="-105.2298845">
  <ele>1583.06</ele>
  <time>2026-08-29T19:29:59Z</time>
  <course>232.54</course>
  <speed>1.6760966559241146</speed>
  <fix>3d</fix>
</trkpt>
<trkpt lat="40.0712932" lon="-105.2298805">
  <ele>1583.0</ele>
  <time>2026-08-29T19:29:59Z</time>
  <course>231.66</course>
  <speed>1.69</speed>
  <fix>3d</fix>
</trkpt>
<trkpt lat="40.0712901" lon="-105.229886">
  <ele>1583.05</ele>
  <time>2026-08-29T19:29:59Z</time>
  <course>232.55</course>
  <speed>1.6760966559241146</speed>
  <fix>3d</fix>
</trkpt>
<trkpt lat="40.0712913" lon="-105.2298836">
  <ele>1583.0</ele>
  <time>2026-08-29T19:29:59Z</time>
  <course>231.67</course>
  <speed>1.69</speed>
  <fix>3d</fix>
</trkpt>
<trkpt lat="40.0712892" lon="-105.2298876">
  <ele>1583.05</ele>
  <time>2026-08-29T19:29:59Z</time>
  <course>232.55</course>
  <speed>1.6760966559241146</speed>
  <fix>3d</fix>
</trkpt>
<trkpt lat="40.0712913" lon="-105.2298836">
  <ele>1583.0</ele>
  <time>2026-08-29T19:29:59Z</time>
  <course>231.67</course>
  <speed>1.69</speed>
  <fix>3d</fix>
</trkpt>
<trkpt lat="40.0712882" lon="-105.2298891">
  <ele>1583.05</ele>
  <time>2026-08-29T19:29:59Z</time>
  <course>232.57</course>
  <speed>1.6760966559241146</speed>
  <fix>3d</fix>
</trkpt>
<trkpt lat="40.0712894" lon="-105.2298868">
  <ele>1583.0</ele>
  <time>2026-08-29T19:29:59Z</time>
  <course>231.69</course>
  <speed>1.69</speed>
  <fix>3d</fix>
</trkpt>
<trkpt lat="40.0712873" lon="-105.2298907">
  <ele>1583.05</ele>
  <time>2026-08-29T19:29:59Z</time>
  <course>232.57</course>
  <speed>1.6760966559241146</speed>
  <fix>3d</fix>
</trkpt>
<trkpt lat="40.0712894" lon="-105.2298868">
  <ele>1583.0</ele>
  <time>2026-08-29T19:29:59Z</time>
  <course>231.69</course>
  <speed>1.69</speed>
  <fix>3d</fix>
</trkpt>
<trkpt lat="40.0712864" lon="-105.2298922">
  <ele>1583.05</ele>
  <time>2026-08-29T19:29:59Z</time>
  <course>232.59</course>
  <speed>1.6760966559241146</speed>
  <fix>3d</fix>
</trkpt>
<trkpt lat="40.0712875" lon="-105.2298899">
  <ele>1583.0</ele>
  <time>2026-08-29T19:29:59Z</time>
  <course>231.71</course>
  <speed>1.69</speed>
  <fix>3d</fix>
</trkpt>
<trkpt lat="40.0712854" lon="-105.2298938">
  <ele>1583.05</ele>
  <time>2026-08-29T19:29:59Z</time>
  <course>232.59</course>
  <speed>1.6760966559241146</speed>
  <fix>3d</fix>
</trkpt>
<trkpt lat="40.0712875" lon="-105.2298899">
  <ele>1583.0</ele>
  <time>2026-08-29T19:29:59Z</time>
  <course>231.71</course>
  <speed>1.69</speed>
  <fix>3d</fix>
</trkpt>
<trkpt lat="40.0712847" lon="-105.229895">
  <ele>1583.05</ele>
  <time>2026-08-29T19:29:59Z</time>
  <course>232.6</course>
  <speed>1.6760966559241146</speed>
  <fix>3d</fix>
</trkpt>
<trkpt lat="40.0712856" lon="-105.2298931">
  <ele>1583.0</ele>
  <time>2026-08-29T19:29:59Z</time>
  <course>231.73</course>
  <speed>1.69</speed>
  <fix>3d</fix>
</trkpt>
<trkpt lat="40.0712837" lon="-105.2298966">
  <ele>1583.06</ele>
  <time>2026-08-29T19:29:59Z</time>
  <course>232.61</course>
  <speed>1.6760966559241146</speed>
  <fix>3d</fix>
</trkpt>
<trkpt lat="40.0712856" lon="-105.2298931">
  <ele>1583.0</ele>
  <time>2026-08-29T19:29:59Z</time>
  <course>231.73</course>
  <speed>1.69</speed>
  <fix>3d</fix>
</trkpt>
<trkpt lat="40.0712828" lon="-105.2298982">
  <ele>1583.06</ele>
  <time>2026-08-29T19:29:59Z</time>
  <course>232.62</course>
  <speed>1.6760966559241146</speed>
  <fix>3d</fix>
</trkpt>
<trkpt lat="40.0712838" lon="-105.2298962">
  <ele>1583.0</ele>
  <time>2026-08-29T19:29:59Z</time>
  <course>231.74</course>
  <speed>1.69</speed>
  <fix>3d</fix>
</trkpt>
<trkpt lat="40.0712818" lon="-105.2298997">
  <ele>1583.06</ele>
  <time>2026-08-29T19:29:59Z</time>
  <course>232.62</course>
  <speed>1.6760966559241146</speed>
  <fix>3d</fix>
</trkpt>
<trkpt lat="40.0712838" lon="-105.2298962">
  <ele>1583.0</ele>
  <time>2026-08-29T19:29:59Z</time>
  <course>231.74</course>
  <speed>1.69</speed>
  <fix>3d</fix>
</trkpt>
<trkpt lat="40.0712809" lon="-105.2299013">
  <ele>1583.06</ele>
  <time>2026-08-29T19:29:59Z</time>
  <course>232.63</course>
  <speed>1.6760966559241146</speed>
  <fix>3d</fix>
</trkpt>
<trkpt lat="40.0712819" lon="-105.2298993">
  <ele>1583.0</ele>
  <time>2026-08-29T19:29:59Z</time>
  <course>231.76</course>
  <speed>1.69</speed>
  <fix>3d</fix>
</trkpt>
<trkpt lat="40.07128" lon="-105.2299029">
  <ele>1583.07</ele>
  <time>2026-08-29T19:29:59Z</time>
  <course>232.64</course>
  <speed>1.6760966559241146</speed>
  <fix>3d</fix>
</trkpt>
<trkpt lat="40.0712819" lon="-105.2298993">
  <ele>1583.0</ele>
  <time>2026-08-29T19:29:59Z</time>
  <course>231.76</course>
  <speed>1.69</speed>
  <fix>3d</fix>
</trkpt>
<trkpt lat="40.071279" lon="-105.2299044">
  <ele>1583.07</ele>
  <time>2026-08-29T19:29:59Z</time>
  <course>232.65</course>
  <speed>1.6760966559241146</speed>
  <fix>3d</fix>
</trkpt>
<trkpt lat="40.07128" lon="-105.2299024">
  <ele>1583.0</ele>
  <time>2026-08-29T19:29:59Z</time>
  <course>231.77</course>
  <speed>1.69</speed>
  <fix>3d</fix>
</trkpt>
<trkpt lat="40.0712781" lon="-105.229906">
  <ele>1583.07</ele>
  <time>2026-08-29T19:29:59Z</time>
  <course>232.66</course>
  <speed>1.6760966559241146</speed>
  <fix>3d</fix>
</trkpt>
<trkpt lat="40.07128" lon="-105.2299024">
  <ele>1583.0</ele>
  <time>2026-08-29T19:29:59Z</time>
  <course>231.77</course>
  <speed>1.69</speed>
  <fix>3d</fix>
</trkpt>
<trkpt lat="40.0712771" lon="-105.2299076">
  <ele>1583.07</ele>
  <time>2026-08-29T19:29:59Z</time>
  <course>232.66</course>
  <speed>1.6760966559241146</speed>
  <fix>3d</fix>
</trkpt>
<trkpt lat="40.0712781" lon="-105.2299056">
  <ele>1583.0</ele>
  <time>2026-08-29T19:29:59Z</time>
  <course>231.79</course>
  <speed>1.69</speed>
  <fix>3d</fix>
</trkpt>
<trkpt lat="40.071276" lon="-105.2299095">
  <ele>1583.06</ele>
  <time>2026-08-29T19:29:59Z</time>
  <course>232.68</course>
  <speed>1.6760966559241146</speed>
  <fix>3d</fix>
</trkpt>
<trkpt lat="40.0712781" lon="-105.2299056">
  <ele>1583.0</ele>
  <time>2026-08-29T19:29:59Z</time>
  <course>231.79</course>
  <speed>1.69</speed>
  <fix>3d</fix>
</trkpt>
<trkpt lat="40.071275" lon="-105.2299111">
  <ele>1583.06</ele>
  <time>2026-08-29T19:29:59Z</time>
  <course>232.69</course>
  <speed>1.6760966559241146</speed>
  <fix>3d</fix>
</trkpt>
<trkpt lat="40.0712762" lon="-105.2299087">
  <ele>1583.0</ele>
  <time>2026-08-29T19:29:59Z</time>
  <course>231.81</course>
  <speed>1.69</speed>
  <fix>3d</fix>
</trkpt>
<trkpt lat="40.0712741" lon="-105.2299127">
  <ele>1583.06</ele>
  <time>2026-08-29T19:29:59Z</time>
  <course>232.7</course>
  <speed>1.6760966559241146</speed>
  <fix>3d</fix>
</trkpt>
<trkpt lat="40.0712762" lon="-105.2299087">
  <ele>1583.0</ele>
  <time>2026-08-29T19:29:59Z</time>
  <course>231.81</course>
  <speed>1.69</speed>
  <fix>3d</fix>
</trkpt>
<trkpt lat="40.0712731" lon="-105.2299142">
  <ele>1583.07</ele>
  <time>2026-08-29T19:29:59Z</time>
  <course>232.71</course>
  <speed>1.6760966559241146</speed>
  <fix>3d</fix>
</trkpt>
<trkpt lat="40.0712743" lon="-105.2299118">
  <ele>1583.0</ele>
  <time>2026-08-29T19:29:59Z</time>
  <course>231.83</course>
  <speed>1.69</speed>
  <fix>3d</fix>
</trkpt>
<trkpt lat="40.0712722" lon="-105.2299158">
  <ele>1583.07</ele>
  <time>2026-08-29T19:29:59Z</time>
  <course>232.72</course>
  <speed>1.6760966559241146</speed>
  <fix>3d</fix>
</trkpt>
<trkpt lat="40.0712743" lon="-105.2299118">
  <ele>1583.0</ele>
  <time>2026-08-29T19:29:59Z</time>
  <course>231.83</course>
  <speed>1.69</speed>
  <fix>3d</fix>
</trkpt>
<trkpt lat="40.0712712" lon="-105.2299174">
  <ele>1583.07</ele>
  <time>2026-08-29T19:29:59Z</time>
  <course>232.72</course>
  <speed>1.6760966559241146</speed>
  <fix>3d</fix>
</trkpt>
<trkpt lat="40.0712724" lon="-105.229915">
  <ele>1583.0</ele>
  <time>2026-08-29T19:29:59Z</time>
  <course>231.84</course>
  <speed>1.7</speed>
  <fix>3d</fix>
</trkpt>
<trkpt lat="40.0712703" lon="-105.2299189">
  <ele>1583.07</ele>
  <time>2026-08-29T19:29:59Z</time>
  <course>232.73</course>
  <speed>1.6760966559241146</speed>
  <fix>3d</fix>
</trkpt>
<trkpt lat="40.0712724" lon="-105.229915">
  <ele>1583.0</ele>
  <time>2026-08-29T19:29:59Z</time>
  <course>231.84</course>
  <speed>1.7</speed>
  <fix>3d</fix>
</trkpt>
<trkpt lat="40.0712694" lon="-105.2299205">
  <ele>1583.07</ele>
  <time>2026-08-29T19:29:59Z</time>
  <course>232.75</course>
  <speed>1.6760966559241146</speed>
  <fix>3d</fix>
</trkpt>
<trkpt lat="40.0712705" lon="-105.2299181">
  <ele>1583.0</ele>
  <time>2026-08-29T19:29:59Z</time>
  <course>231.87</course>
  <speed>1.7</speed>
  <fix>3d</fix>
</trkpt>
<trkpt lat="40.0712684" lon="-105.2299221">
  <ele>1583.07</ele>
  <time>2026-08-29T19:29:59Z</time>
  <course>232.76</course>
  <speed>1.6760966559241146</speed>
  <fix>3d</fix>
</trkpt>
<trkpt lat="40.0712705" lon="-105.2299181">
  <ele>1583.0</ele>
  <time>2026-08-29T19:29:59Z</time>
  <course>231.87</course>
  <speed>1.7</speed>
  <fix>3d</fix>
</trkpt>
<trkpt lat="40.0712675" lon="-105.2299236">
  <ele>1583.07</ele>
  <time>2026-08-29T19:29:59Z</time>
  <course>232.77</course>
  <speed>1.6760966559241146</speed>
  <fix>3d</fix>
</trkpt>
<trkpt lat="40.0712687" lon="-105.2299213">
  <ele>1583.0</ele>
  <time>2026-08-29T19:29:59Z</time>
  <course>231.89</course>
  <speed>1.7</speed>
  <fix>3d</fix>
</trkpt>
<trkpt lat="40.0712666" lon="-105.2299252">
  <ele>1583.07</ele>
  <time>2026-08-29T19:29:59Z</time>
  <course>232.79</course>
  <speed>1.6760966559241146</speed>
  <fix>3d</fix>
</trkpt>
<trkpt lat="40.0712687" lon="-105.2299213">
  <ele>1583.0</ele>
  <time>2026-08-29T19:29:59Z</time>
  <course>231.89</course>
  <speed>1.7</speed>
  <fix>3d</fix>
</trkpt>
<trkpt lat="40.0712658" lon="-105.2299264">
  <ele>1583.07</ele>
  <time>2026-08-29T19:29:59Z</time>
  <course>232.79</course>
  <speed>1.670029939851379</speed>
  <fix>3d</fix>
</trkpt>
<trkpt lat="40.0712668" lon="-105.2299244">
  <ele>1583.0</ele>
  <time>2026-08-29T19:29:59Z</time>
  <course>231.91</course>
  <speed>1.7</speed>
  <fix>3d</fix>
</trkpt>
<trkpt lat="40.0712649" lon="-105.229928">
  <ele>1583.08</ele>
  <time>2026-08-29T19:29:59Z</time>
  <course>232.8</course>
  <speed>1.670029939851379</speed>
  <fix>3d</fix>
</trkpt>
<trkpt lat="40.0712668" lon="-105.2299244">
  <ele>1583.0</ele>
  <time>2026-08-29T19:29:59Z</time>
  <course>231.91</course>
  <speed>1.7</speed>
  <fix>3d</fix>
</trkpt>
<trkpt lat="40.0712639" lon="-105.2299296">
  <ele>1583.08</ele>
  <time>2026-08-29T19:29:59Z</time>
  <course>232.81</course>
  <speed>1.670029939851379</speed>
  <fix>3d</fix>
</trkpt>
<trkpt lat="40.0712649" lon="-105.2299276">
  <ele>1583.0</ele>
  <time>2026-08-29T19:29:59Z</time>
  <course>231.93</course>
  <speed>1.7</speed>
  <fix>3d</fix>
</trkpt>
<trkpt lat="40.071263" lon="-105.2299311">
  <ele>1583.07</ele>
  <time>2026-08-29T19:29:59Z</time>
  <course>232.82</course>
  <speed>1.670029939851379</speed>
  <fix>3d</fix>
</trkpt>
<trkpt lat="40.0712649" lon="-105.2299276">
  <ele>1583.0</ele>
  <time>2026-08-29T19:29:59Z</time>
  <course>231.93</course>
  <speed>1.7</speed>
  <fix>3d</fix>
</trkpt>
<trkpt lat="40.071262" lon="-105.2299327">
  <ele>1583.07</ele>
  <time>2026-08-29T19:29:59Z</time>
  <course>232.84</course>
  <speed>1.670029939851379</speed>
  <fix>3d</fix>
</trkpt>
<trkpt lat="40.071263" lon="-105.2299307">
  <ele>1583.0</ele>
  <time>2026-08-29T19:29:59Z</time>
  <course>231.95</course>
  <speed>1.7</speed>
  <fix>3d</fix>
</trkpt>
<trkpt lat="40.0712611" lon="-105.2299343">
  <ele>1583.07</ele>
  <time>2026-08-29T19:29:59Z</time>
  <course>232.84</course>
  <speed>1.670029939851379</speed>
  <fix>3d</fix>
</trkpt>
<trkpt lat="40.071263" lon="-105.2299307">
  <ele>1583.0</ele>
  <time>2026-08-29T19:29:59Z</time>
  <course>231.95</course>
  <speed>1.7</speed>
  <fix>3d</fix>
</trkpt>
<trkpt lat="40.0712602" lon="-105.2299359">
  <ele>1583.06</ele>
  <time>2026-08-29T19:29:59Z</time>
  <course>232.86</course>
  <speed>1.6780047675736802</speed>
  <fix>3d</fix>
</trkpt>
<trkpt lat="40.0712611" lon="-105.2299338">
  <ele>1583.0</ele>
  <time>2026-08-29T19:29:59Z</time>
  <course>231.98</course>
  <speed>1.7</speed>
  <fix>3d</fix>
</trkpt>
<trkpt lat="40.0712592" lon="-105.2299375">
  <ele>1583.06</ele>
  <time>2026-08-29T19:29:59Z</time>
  <course>232.86</course>
  <speed>1.6840427548016705</speed>
  <fix>3d</fix>
</trkpt>
<trkpt lat="40.0712611" lon="-105.2299338">
  <ele>1583.0</ele>
  <time>2026-08-29T19:29:59Z</time>
  <course>231.98</course>
  <speed>1.7</speed>
  <fix>3d</fix>
</trkpt>
<trkpt lat="40.0712583" lon="-105.229939">
  <ele>1583.06</ele>
  <time>2026-08-29T19:29:59Z</time>
  <course>232.88</course>
  <speed>1.6780047675736802</speed>
  <fix>3d</fix>
</trkpt>
<trkpt lat="40.0712592" lon="-105.229937">
  <ele>1583.0</ele>
  <time>2026-08-29T19:29:59Z</time>
  <course>231.99</course>
  <speed>1.7</speed>
  <fix>3d</fix>
</trkpt>
<trkpt lat="40.0712573" lon="-105.2299406">
  <ele>1583.06</ele>
  <time>2026-08-29T19:29:59Z</time>
  <course>232.88</course>
  <speed>1.6840427548016705</speed>
  <fix>3d</fix>
</trkpt>
<trkpt lat="40.0712592" lon="-105.229937">
  <ele>1583.0</ele>
  <time>2026-08-29T19:29:59Z</time>
  <course>231.99</course>
  <speed>1.7</speed>
  <fix>3d</fix>
</trkpt>
<trkpt lat="40.0712562" lon="-105.2299425">
  <ele>1583.06</ele>
  <time>2026-08-29T19:29:59Z</time>
  <course>232.9</course>
  <speed>1.6840427548016705</speed>
  <fix>3d</fix>
</trkpt>
<trkpt lat="40.0712573" lon="-105.2299401">
  <ele>1583.0</ele>
  <time>2026-08-29T19:29:59Z</time>
  <course>232.02</course>
  <speed>1.7</speed>
  <fix>3d</fix>
</trkpt>
<trkpt lat="40.0712552" lon="-105.2299441">
  <ele>1583.06</ele>
  <time>2026-08-29T19:29:59Z</time>
  <course>232.91</course>
  <speed>1.6840427548016705</speed>
  <fix>3d</fix>
</trkpt>
<trkpt lat="40.0712573" lon="-105.2299401">
  <ele>1583.0</ele>
  <time>2026-08-29T19:29:59Z</time>
  <course>232.02</course>
  <speed>1.7</speed>
  <fix>3d</fix>
</trkpt>
<trkpt lat="40.0712543" lon="-105.2299457">
  <ele>1583.06</ele>
  <time>2026-08-29T19:29:59Z</time>
  <course>232.93</course>
  <speed>1.6840427548016705</speed>
  <fix>3d</fix>
</trkpt>
<trkpt lat="40.0712555" lon="-105.2299433">
  <ele>1583.0</ele>
  <time>2026-08-29T19:29:59Z</time>
  <course>232.04</course>
  <speed>1.7</speed>
  <fix>3d</fix>
</trkpt>
<trkpt lat="40.0712533" lon="-105.2299473">
  <ele>1583.06</ele>
  <time>2026-08-29T19:29:59Z</time>
  <course>232.94</course>
  <speed>1.6840427548016705</speed>
  <fix>3d</fix>
</trkpt>
<trkpt lat="40.0712555" lon="-105.2299433">
  <ele>1583.0</ele>
  <time>2026-08-29T19:29:59Z</time>
  <course>232.04</course>
  <speed>1.7</speed>
  <fix>3d</fix>
</trkpt>
<trkpt lat="40.0712524" lon="-105.2299489">
  <ele>1583.06</ele>
  <time>2026-08-29T19:29:59Z</time>
  <course>232.95</course>
  <speed>1.6840427548016705</speed>
  <fix>3d</fix>
</trkpt>
<trkpt lat="40.0712536" lon="-105.2299465">
  <ele>1583.0</ele>
  <time>2026-08-29T19:29:59Z</time>
  <course>232.07</course>
  <speed>1.7</speed>
  <fix>3d</fix>
</trkpt>
<trkpt lat="40.0712514" lon="-105.2299504">
  <ele>1583.06</ele>
  <time>2026-08-29T19:29:59Z</time>
  <course>232.96</course>
  <speed>1.6840427548016705</speed>
  <fix>3d</fix>
</trkpt>
<trkpt lat="40.0712536" lon="-105.2299465">
  <ele>1583.0</ele>
  <time>2026-08-29T19:29:59Z</time>
  <course>232.07</course>
  <speed>1.7</speed>
  <fix>3d</fix>
</trkpt>
<trkpt lat="40.0712505" lon="-105.229952">
  <ele>1583.06</ele>
  <time>2026-08-29T19:29:59Z</time>
  <course>232.97</course>
  <speed>1.6780047675736802</speed>
  <fix>3d</fix>
</trkpt>
<trkpt lat="40.0712517" lon="-105.2299496">
  <ele>1583.0</ele>
  <time>2026-08-29T19:29:59Z</time>
  <course>232.09</course>
  <speed>1.7</speed>
  <fix>3d</fix>
</trkpt>
<trkpt lat="40.0712496" lon="-105.2299536">
  <ele>1583.06</ele>
  <time>2026-08-29T19:29:59Z</time>
  <course>232.98</course>
  <speed>1.6780047675736802</speed>
  <fix>3d</fix>
</trkpt>
<trkpt lat="40.0712517" lon="-105.2299496">
  <ele>1583.0</ele>
  <time>2026-08-29T19:29:59Z</time>
  <course>232.09</course>
  <speed>1.7</speed>
  <fix>3d</fix>
</trkpt>
<trkpt lat="40.0712487" lon="-105.2299551">
  <ele>1583.06</ele>
  <time>2026-08-29T19:29:59Z</time>
  <course>233.0</course>
  <speed>1.6780047675736802</speed>
  <fix>3d</fix>
</trkpt>
<trkpt lat="40.0712498" lon="-105.2299528">
  <ele>1583.0</ele>
  <time>2026-08-29T19:29:59Z</time>
  <course>232.11</course>
  <speed>1.7</speed>
  <fix>3d</fix>
</trkpt>
<trkpt lat="40.0712477" lon="-105.2299567">
  <ele>1583.06</ele>
  <time>2026-08-29T19:29:59Z</time>
  <course>233.01</course>
  <speed>1.6780047675736802</speed>
  <fix>3d</fix>
</trkpt>
<trkpt lat="40.0712498" lon="-105.2299528">
  <ele>1583.0</ele>
  <time>2026-08-29T19:29:59Z</time>
  <course>232.11</course>
  <speed>1.7</speed>
  <fix>3d</fix>
</trkpt>
<trkpt lat="40.0712468" lon="-105.2299583">
  <ele>1583.06</ele>
  <time>2026-08-29T19:29:59Z</time>
  <course>233.03</course>
  <speed>1.6780047675736802</speed>
  <fix>3d</fix>
</trkpt>
<trkpt lat="40.0712479" lon="-105.2299559">
  <ele>1583.0</ele>
  <time>2026-08-29T19:29:59Z</time>
  <course>232.14</course>
  <speed>1.7</speed>
  <fix>3d</fix>
</trkpt>
<trkpt lat="40.071246" lon="-105.2299595">
  <ele>1583.06</ele>
  <time>2026-08-29T19:29:59Z</time>
  <course>233.04</course>
  <speed>1.6780047675736802</speed>
  <fix>3d</fix>
</trkpt>
<trkpt lat="40.0712479" lon="-105.2299559">
  <ele>1583.0</ele>
  <time>2026-08-29T19:29:59Z</time>
  <course>232.14</course>
  <speed>1.7</speed>
  <fix>3d</fix>
</trkpt>
<trkpt lat="40.0712451" lon="-105.2299611">
  <ele>1583.07</ele>
  <time>2026-08-29T19:29:59Z</time>
  <course>233.05</course>
  <speed>1.6780047675736802</speed>
  <fix>3d</fix>
</trkpt>
<trkpt lat="40.071246" lon="-105.2299591">
  <ele>1583.0</ele>
  <time>2026-08-29T19:29:59Z</time>
  <course>232.16</course>
  <speed>1.7</speed>
  <fix>3d</fix>
</trkpt>
<trkpt lat="40.0712442" lon="-105.2299627">
  <ele>1583.07</ele>
  <time>2026-08-29T19:29:59Z</time>
  <course>233.07</course>
  <speed>1.6780047675736802</speed>
  <fix>3d</fix>
</trkpt>
<trkpt lat="40.071246" lon="-105.2299591">
  <ele>1583.0</ele>
  <time>2026-08-29T19:29:59Z</time>
  <course>232.16</course>
  <speed>1.7</speed>
  <fix>3d</fix>
</trkpt>
<trkpt lat="40.0712432" lon="-105.2299642">
  <ele>1583.07</ele>
  <time>2026-08-29T19:29:59Z</time>
  <course>233.08</course>
  <speed>1.6780047675736802</speed>
  <fix>3d</fix>
</trkpt>
<trkpt lat="40.0712442" lon="-105.2299623">
  <ele>1583.0</ele>
  <time>2026-08-29T19:29:59Z</time>
  <course>232.19</course>
  <speed>1.7</speed>
  <fix>3d</fix>
</trkpt>
<trkpt lat="40.0712423" lon="-105.2299658">
  <ele>1583.07</ele>
  <time>2026-08-29T19:29:59Z</time>
  <course>233.1</course>
  <speed>1.6780047675736802</speed>
  <fix>3d</fix>
</trkpt>
<trkpt lat="40.0712442" lon="-105.2299623">
  <ele>1583.0</ele>
  <time>2026-08-29T19:29:59Z</time>
  <course>232.19</course>
  <speed>1.7</speed>
  <fix>3d</fix>
</trkpt>
<trkpt lat="40.0712413" lon="-105.2299674">
  <ele>1583.07</ele>
  <time>2026-08-29T19:29:59Z</time>
  <course>233.11</course>
  <speed>1.6780047675736802</speed>
  <fix>3d</fix>
</trkpt>
<trkpt lat="40.0712423" lon="-105.2299654">
  <ele>1583.0</ele>
  <time>2026-08-29T19:29:59Z</time>
  <course>232.22</course>
  <speed>1.7</speed>
  <fix>3d</fix>
</trkpt>
<trkpt lat="40.0712404" lon="-105.229969">
  <ele>1583.07</ele>
  <time>2026-08-29T19:29:59Z</time>
  <course>233.12</course>
  <speed>1.6780047675736802</speed>
  <fix>3d</fix>
</trkpt>
<trkpt lat="40.0712423" lon="-105.2299654">
  <ele>1583.0</ele>
  <time>2026-08-29T19:29:59Z</time>
  <course>232.22</course>
  <speed>1.7</speed>
  <fix>3d</fix>
</trkpt>
<trkpt lat="40.0712394" lon="-105.2299706">
  <ele>1583.07</ele>
  <time>2026-08-29T19:29:59Z</time>
  <course>233.14</course>
  <speed>1.6780047675736802</speed>
  <fix>3d</fix>
</trkpt>
<trkpt lat="40.0712404" lon="-105.2299686">
  <ele>1583.0</ele>
  <time>2026-08-29T19:29:59Z</time>
  <course>232.25</course>
  <speed>1.7</speed>
  <fix>3d</fix>
</trkpt>
<trkpt lat="40.0712385" lon="-105.2299722">
  <ele>1583.07</ele>
  <time>2026-08-29T19:29:59Z</time>
  <course>233.15</course>
  <speed>1.6780047675736802</speed>
  <fix>3d</fix>
</trkpt>
<trkpt lat="40.0712404" lon="-105.2299686">
  <ele>1583.0</ele>
  <time>2026-08-29T19:29:59Z</time>
  <course>232.25</course>
  <speed>1.7</speed>
  <fix>3d</fix>
</trkpt>
<trkpt lat="40.0712376" lon="-105.2299738">
  <ele>1583.06</ele>
  <time>2026-08-29T19:29:59Z</time>
  <course>233.18</course>
  <speed>1.686001186239203</speed>
  <fix>3d</fix>
</trkpt>
<trkpt lat="40.0712385" lon="-105.2299717">
  <ele>1583.0</ele>
  <time>2026-08-29T19:29:59Z</time>
  <course>232.28</course>
  <speed>1.7</speed>
  <fix>3d</fix>
</trkpt>
<trkpt lat="40.0712364" lon="-105.2299757">
  <ele>1583.06</ele>
  <time>2026-08-29T19:29:59Z</time>
  <course>233.19</course>
  <speed>1.686001186239203</speed>
  <fix>3d</fix>
</trkpt>
<trkpt lat="40.0712385" lon="-105.2299717">
  <ele>1583.0</ele>
  <time>2026-08-29T19:29:59Z</time>
  <course>232.28</course>
  <speed>1.7</speed>
  <fix>3d</fix>
</trkpt>
<trkpt lat="40.0712355" lon="-105.2299773">
  <ele>1583.06</ele>
  <time>2026-08-29T19:29:59Z</time>
  <course>233.2</course>
  <speed>1.686001186239203</speed>
  <fix>3d</fix>
</trkpt>
<trkpt lat="40.0712367" lon="-105.229975">
  <ele>1583.0</ele>
  <time>2026-08-29T19:29:59Z</time>
  <course>232.31</course>
  <speed>1.7</speed>
  <fix>3d</fix>
</trkpt>
<trkpt lat="40.0712345" lon="-105.2299789">
  <ele>1583.06</ele>
  <time>2026-08-29T19:29:59Z</time>
  <course>233.22</course>
  <speed>1.686001186239203</speed>
  <fix>3d</fix>
</trkpt>
<trkpt lat="40.0712367" lon="-105.229975">
  <ele>1583.0</ele>
  <time>2026-08-29T19:29:59Z</time>
  <course>232.31</course>
  <speed>1.7</speed>
  <fix>3d</fix>
</trkpt>
<trkpt lat="40.0712336" lon="-105.2299805">
  <ele>1583.06</ele>
  <time>2026-08-29T19:29:59Z</time>
  <course>233.24</course>
  <speed>1.686001186239203</speed>
  <fix>3d</fix>
</trkpt>
<trkpt lat="40.0712348" lon="-105.2299782">
  <ele>1583.0</ele>
  <time>2026-08-29T19:29:59Z</time>
  <course>232.34</course>
  <speed>1.71</speed>
  <fix>3d</fix>
</trkpt>
<trkpt lat="40.0712326" lon="-105.2299821">
  <ele>1583.06</ele>
  <time>2026-08-29T19:29:59Z</time>
  <course>233.26</course>
  <speed>1.686001186239203</speed>
  <fix>3d</fix>
</trkpt>
<trkpt lat="40.0712348" lon="-105.2299782">
  <ele>1583.0</ele>
  <time>2026-08-29T19:29:59Z</time>
  <course>232.34</course>
  <speed>1.71</speed>
  <fix>3d</fix>
</trkpt>
<trkpt lat="40.0712317" lon="-105.2299837">
  <ele>1583.06</ele>
  <time>2026-08-29T19:29:59Z</time>
  <course>233.27</course>
  <speed>1.686001186239203</speed>
  <fix>3d</fix>
</trkpt>
<trkpt lat="40.0712329" lon="-105.2299813">
  <ele>1583.0</ele>
  <time>2026-08-29T19:29:59Z</time>
  <course>232.37</course>
  <speed>1.71</speed>
  <fix>3d</fix>
</trkpt>
<trkpt lat="40.0712308" lon="-105.2299853">
  <ele>1583.06</ele>
  <time>2026-08-29T19:29:59Z</time>
  <course>233.29</course>
  <speed>1.686001186239203</speed>
  <fix>3d</fix>
</trkpt>
<trkpt lat="40.0712329" lon="-105.2299813">
  <ele>1583.0</ele>
  <time>2026-08-29T19:29:59Z</time>
  <course>232.37</course>
  <speed>1.71</speed>
  <fix>3d</fix>
</trkpt>
<trkpt lat="40.0712299" lon="-105.2299869">
  <ele>1583.06</ele>
  <time>2026-08-29T19:29:59Z</time>
  <course>233.31</course>
  <speed>1.686001186239203</speed>
  <fix>3d</fix>
</trkpt>
<trkpt lat="40.071231" lon="-105.2299845">
  <ele>1583.0</ele>
  <time>2026-08-29T19:29:59Z</time>
  <course>232.41</course>
  <speed>1.71</speed>
  <fix>3d</fix>
</trkpt>
<trkpt lat="40.0712289" lon="-105.2299885">
  <ele>1583.06</ele>
  <time>2026-08-29T19:29:59Z</time>
  <course>233.32</course>
  <speed>1.686001186239203</speed>
  <fix>3d</fix>
</trkpt>
<trkpt lat="40.071231" lon="-105.2299845">
  <ele>1583.0</ele>
  <time>2026-08-29T19:29:59Z</time>
  <course>232.41</course>
  <speed>1.71</speed>
  <fix>3d</fix>
</trkpt>
<trkpt lat="40.071228" lon="-105.2299901">
  <ele>1583.06</ele>
  <time>2026-08-29T19:29:59Z</time>
  <course>233.34</course>
  <speed>1.686001186239203</speed>
  <fix>3d</fix>
</trkpt>
<trkpt lat="40.0712292" lon="-105.2299877">
  <ele>1583.0</ele>
  <time>2026-08-29T19:29:59Z</time>
  <course>232.45</course>
  <speed>1.71</speed>
  <fix>3d</fix>
</trkpt>
<trkpt lat="40.0712271" lon="-105.2299916">
  <ele>1583.05</ele>
  <time>2026-08-29T19:29:59Z</time>
  <course>233.37</course>
  <speed>1.686001186239203</speed>
  <fix>3d</fix>
</trkpt>
<trkpt lat="40.0712292" lon="-105.2299877">
  <ele>1583.0</ele>
  <time>2026-08-29T19:29:59Z</time>
  <course>232.45</course>
  <speed>1.71</speed>
  <fix>3d</fix>
</trkpt>
<trkpt lat="40.0712263" lon="-105.2299929">
  <ele>1583.05</ele>
  <time>2026-08-29T19:29:59Z</time>
  <course>233.38</course>
  <speed>1.686001186239203</speed>
  <fix>3d</fix>
</trkpt>
<trkpt lat="40.0712273" lon="-105.2299908">
  <ele>1583.0</ele>
  <time>2026-08-29T19:29:59Z</time>
  <course>232.48</course>
  <speed>1.71</speed>
  <fix>3d</fix>
</trkpt>
<trkpt lat="40.0712254" lon="-105.2299945">
  <ele>1583.05</ele>
  <time>2026-08-29T19:29:59Z</time>
  <course>233.4</course>
  <speed>1.686001186239203</speed>
  <fix>3d</fix>
</trkpt>
<trkpt lat="40.0712273" lon="-105.2299908">
  <ele>1583.0</ele>
  <time>2026-08-29T19:29:59Z</time>
  <course>232.48</course>
  <speed>1.71</speed>
  <fix>3d</fix>
</trkpt>
<trkpt lat="40.0712245" lon="-105.2299961">
  <ele>1583.05</ele>
  <time>2026-08-29T19:29:59Z</time>
  <course>233.42</course>
  <speed>1.686001186239203</speed>
  <fix>3d</fix>
</trkpt>
<trkpt lat="40.0712254" lon="-105.2299941">
  <ele>1583.0</ele>
  <time>2026-08-29T19:29:59Z</time>
  <course>232.52</course>
  <speed>1.71</speed>
  <fix>3d</fix>
</trkpt>
<trkpt lat="40.0712235" lon="-105.2299977">
  <ele>1583.05</ele>
  <time>2026-08-29T19:29:59Z</time>
  <course>233.44</course>
  <speed>1.686001186239203</speed>
  <fix>3d</fix>
</trkpt>
<trkpt lat="40.0712254" lon="-105.2299941">
  <ele>1583.0</ele>
  <time>2026-08-29T19:29:59Z</time>
  <course>232.52</course>
  <speed>1.71</speed>
  <fix>3d</fix>
</trkpt>
<trkpt lat="40.0712226" lon="-105.2299993">
  <ele>1583.06</ele>
  <time>2026-08-29T19:29:59Z</time>
  <course>233.46</course>
  <speed>1.686001186239203</speed>
  <fix>3d</fix>
</trkpt>
<trkpt lat="40.0712235" lon="-105.2299972">
  <ele>1583.0</ele>
  <time>2026-08-29T19:29:59Z</time>
  <course>232.56</course>
  <speed>1.71</speed>
  <fix>3d</fix>
</trkpt>
<trkpt lat="40.0712216" lon="-105.2300009">
  <ele>1583.05</ele>
  <time>2026-08-29T19:29:59Z</time>
  <course>233.48</course>
  <speed>1.686001186239203</speed>
  <fix>3d</fix>
</trkpt>
<trkpt lat="40.0712235" lon="-105.2299972">
  <ele>1583.0</ele>
  <time>2026-08-29T19:29:59Z</time>
  <course>232.56</course>
  <speed>1.71</speed>
  <fix>3d</fix>
</trkpt>
<trkpt lat="40.0712207" lon="-105.2300025">
  <ele>1583.05</ele>
  <time>2026-08-29T19:29:59Z</time>
  <course>233.5</course>
  <speed>1.694018890095385</speed>
  <fix>3d</fix>
</trkpt>
<trkpt lat="40.0712216" lon="-105.2300004">
  <ele>1583.0</ele>
  <time>2026-08-29T19:29:59Z</time>
  <course>232.6</course>
  <speed>1.71</speed>
  <fix>3d</fix>
</trkpt>
<trkpt lat="40.0712197" lon="-105.2300041">
  <ele>1583.05</ele>
  <time>2026-08-29T19:29:59Z</time>
  <course>233.53</course>
  <speed>1.694018890095385</speed>
  <fix>3d</fix>
</trkpt>
<trkpt lat="40.0712216" lon="-105.2300004">
  <ele>1583.0</ele>
  <time>2026-08-29T19:29:59Z</time>
  <course>232.6</course>
  <speed>1.71</speed>
  <fix>3d</fix>
</trkpt>
<trkpt lat="40.0712188" lon="-105.2300057">
  <ele>1583.05</ele>
  <time>2026-08-29T19:29:59Z</time>
  <course>233.55</course>
  <speed>1.694018890095385</speed>
  <fix>3d</fix>
</trkpt>
<trkpt lat="40.0712198" lon="-105.2300037">
  <ele>1583.0</ele>
  <time>2026-08-29T19:29:59Z</time>
  <course>232.65</course>
  <speed>1.71</speed>
  <fix>3d</fix>
</trkpt>
<trkpt lat="40.0712179" lon="-105.2300073">
  <ele>1583.04</ele>
  <time>2026-08-29T19:29:59Z</time>
  <course>233.58</course>
  <speed>1.694018890095385</speed>
  <fix>3d</fix>
</trkpt>
<trkpt lat="40.0712198" lon="-105.2300037">
  <ele>1583.0</ele>
  <time>2026-08-29T19:29:59Z</time>
  <course>232.65</course>
  <speed>1.71</speed>
  <fix>3d</fix>
</trkpt>
<trkpt lat="40.0712167" lon="-105.2300093">
  <ele>1583.04</ele>
  <time>2026-08-29T19:29:59Z</time>
  <course>233.61</course>
  <speed>1.694018890095385</speed>
  <fix>3d</fix>
</trkpt>
<trkpt lat="40.0712179" lon="-105.2300069">
  <ele>1583.0</ele>
  <time>2026-08-29T19:29:59Z</time>
  <course>232.7</course>
  <speed>1.71</speed>
  <fix>3d</fix>
</trkpt>
<trkpt lat="40.0712158" lon="-105.2300109">
  <ele>1583.04</ele>
  <time>2026-08-29T19:29:59Z</time>
  <course>233.63</course>
  <speed>1.694018890095385</speed>
  <fix>3d</fix>
</trkpt>
<trkpt lat="40.0712179" lon="-105.2300069">
  <ele>1583.0</ele>
  <time>2026-08-29T19:29:59Z</time>
  <course>232.7</course>
  <speed>1.71</speed>
  <fix>3d</fix>
</trkpt>
<trkpt lat="40.0712149" lon="-105.2300125">
  <ele>1583.04</ele>
  <time>2026-08-29T19:29:59Z</time>
  <course>233.67</course>
  <speed>1.694018890095385</speed>
  <fix>3d</fix>
</trkpt>
<trkpt lat="40.0712161" lon="-105.23001">
  <ele>1583.0</ele>
  <time>2026-08-29T19:29:59Z</time>
  <course>232.75</course>
  <speed>1.71</speed>
  <fix>3d</fix>
</trkpt>
<trkpt lat="40.0712139" lon="-105.2300141">
  <ele>1583.04</ele>
  <time>2026-08-29T19:29:59Z</time>
  <course>233.69</course>
  <speed>1.694018890095385</speed>
  <fix>3d</fix>
</trkpt>
<trkpt lat="40.0712161" lon="-105.23001">
  <ele>1583.0</ele>
  <time>2026-08-29T19:29:59Z</time>
  <course>232.75</course>
  <speed>1.71</speed>
  <fix>3d</fix>
</trkpt>
<trkpt lat="40.071213" lon="-105.2300157">
  <ele>1583.05</ele>
  <time>2026-08-29T19:29:59Z</time>
  <course>233.72</course>
  <speed>1.694018890095385</speed>
  <fix>3d</fix>
</trkpt>
<trkpt lat="40.0712142" lon="-105.2300133">
  <ele>1583.0</ele>
  <time>2026-08-29T19:29:59Z</time>
  <course>232.81</course>
  <speed>1.71</speed>
  <fix>3d</fix>
</trkpt>
<trkpt lat="40.0712121" lon="-105.2300173">
  <ele>1583.05</ele>
  <time>2026-08-29T19:29:59Z</time>
  <course>233.76</course>
  <speed>1.7020575783445164</speed>
  <fix>3d</fix>
</trkpt>
<trkpt lat="40.0712142" lon="-105.2300133">
  <ele>1583.0</ele>
  <time>2026-08-29T19:29:59Z</time>
  <course>232.81</course>
  <speed>1.71</speed>
  <fix>3d</fix>
</trkpt>
<trkpt lat="40.0712111" lon="-105.2300189">
  <ele>1583.05</ele>
  <time>2026-08-29T19:29:59Z</time>
  <course>233.78</course>
  <speed>1.7020575783445164</speed>
  <fix>3d</fix>
</trkpt>
<trkpt lat="40.0712123" lon="-105.2300165">
  <ele>1583.0</ele>
  <time>2026-08-29T19:29:59Z</time>
  <course>232.87</course>
  <speed>1.71</speed>
  <fix>3d</fix>
</trkpt>
<trkpt lat="40.0712102" lon="-105.2300205">
  <ele>1583.05</ele>
  <time>2026-08-29T19:29:59Z</time>
  <course>233.81</course>
  <speed>1.7020575783445164</speed>
  <fix>3d</fix>
</trkpt>
<trkpt lat="40.0712123" lon="-105.2300165">
  <ele>1583.0</ele>
  <time>2026-08-29T19:29:59Z</time>
  <course>232.87</course>
  <speed>1.71</speed>
  <fix>3d</fix>
</trkpt>
<trkpt lat="40.0712093" lon="-105.2300221">
  <ele>1583.05</ele>
  <time>2026-08-29T19:29:59Z</time>
  <course>233.84</course>
  <speed>1.6961426826773742</speed>
  <fix>3d</fix>
</trkpt>
<trkpt lat="40.0712104" lon="-105.2300197">
  <ele>1583.0</ele>
  <time>2026-08-29T19:29:59Z</time>
  <course>232.93</course>
  <speed>1.72</speed>
  <fix>3d</fix>
</trkpt>
<trkpt lat="40.0712084" lon="-105.2300237">
  <ele>1583.04</ele>
  <time>2026-08-29T19:29:59Z</time>
  <course>233.88</course>
  <speed>1.6961426826773742</speed>
  <fix>3d</fix>
</trkpt>
<trkpt lat="40.0712104" lon="-105.2300197">
  <ele>1583.0</ele>
  <time>2026-08-29T19:29:59Z</time>
  <course>232.93</course>
  <speed>1.72</speed>
  <fix>3d</fix>
</trkpt>
<trkpt lat="40.0712075" lon="-105.2300253">
  <ele>1583.04</ele>
  <time>2026-08-29T19:29:59Z</time>
  <course>233.91</course>
  <speed>1.6961426826773742</speed>
  <fix>3d</fix>
</trkpt>
<trkpt lat="40.0712086" lon="-105.2300229">
  <ele>1583.0</ele>
  <time>2026-08-29T19:29:59Z</time>
  <course>232.99</course>
  <speed>1.72</speed>
  <fix>3d</fix>
</trkpt>
<trkpt lat="40.0712067" lon="-105.2300266">
  <ele>1583.04</ele>
  <time>2026-08-29T19:29:59Z</time>
  <course>233.94</course>
  <speed>1.6961426826773742</speed>
  <fix>3d</fix>
</trkpt>
<trkpt lat="40.0712086" lon="-105.2300229">
  <ele>1583.0</ele>
  <time>2026-08-29T19:29:59Z</time>
  <course>232.99</course>
  <speed>1.72</speed>
  <fix>3d</fix>
</trkpt>
<trkpt lat="40.0712058" lon="-105.2300282">
  <ele>1583.04</ele>
  <time>2026-08-29T19:29:59Z</time>
  <course>233.98</course>
  <speed>1.6961426826773742</speed>
  <fix>3d</fix>
</trkpt>
<trkpt lat="40.0712067" lon="-105.2300262">
  <ele>1583.0</ele>
  <time>2026-08-29T19:29:59Z</time>
  <course>233.06</course>
  <speed>1.72</speed>
  <fix>3d</fix>
</trkpt>
<trkpt lat="40.0712049" lon="-105.2300298">
  <ele>1583.04</ele>
  <time>2026-08-29T19:29:59Z</time>
  <course>234.03</course>
  <speed>1.6961426826773742</speed>
  <fix>3d</fix>
</trkpt>
<trkpt lat="40.0712067" lon="-105.2300262">
  <ele>1583.0</ele>
  <time>2026-08-29T19:29:59Z</time>
  <course>233.06</course>
  <speed>1.72</speed>
  <fix>3d</fix>
</trkpt>
<trkpt lat="40.0712039" lon="-105.2300314">
  <ele>1583.05</ele>
  <time>2026-08-29T19:29:59Z</time>
  <course>234.07</course>
  <speed>1.6961426826773742</speed>
  <fix>3d</fix>
</trkpt>
<trkpt lat="40.0712049" lon="-105.2300294">
  <ele>1583.0</ele>
  <time>2026-08-29T19:29:59Z</time>
  <course>233.15</course>
  <speed>1.72</speed>
  <fix>3d</fix>
</trkpt>
<trkpt lat="40.071203" lon="-105.230033">
  <ele>1583.05</ele>
  <time>2026-08-29T19:29:59Z</time>
  <course>234.12</course>
  <speed>1.6961426826773742</speed>
  <fix>3d</fix>
</trkpt>
<trkpt lat="40.0712049" lon="-105.2300294">
  <ele>1583.0</ele>
  <time>2026-08-29T19:29:59Z</time>
  <course>233.15</course>
  <speed>1.72</speed>
  <fix>3d</fix>
</trkpt>
<trkpt lat="40.0712021" lon="-105.2300347">
  <ele>1583.05</ele>
  <time>2026-08-29T19:29:59Z</time>
  <course>234.17</course>
  <speed>1.6961426826773742</speed>
  <fix>3d</fix>
</trkpt>
<trkpt lat="40.071203" lon="-105.2300327">
  <ele>1583.0</ele>
  <time>2026-08-29T19:29:59Z</time>
  <course>233.24</course>
  <speed>1.72</speed>
  <fix>3d</fix>
</trkpt>
<trkpt lat="40.0712011" lon="-105.2300363">
  <ele>1583.05</ele>
  <time>2026-08-29T19:29:59Z</time>
  <course>234.22</course>
  <speed>1.7042300314218146</speed>
  <fix>3d</fix>
</trkpt>
<trkpt lat="40.071203" lon="-105.2300327">
  <ele>1583.0</ele>
  <time>2026-08-29T19:29:59Z</time>
  <course>233.24</course>
  <speed>1.72</speed>
  <fix>3d</fix>
</trkpt>
<trkpt lat="40.0712002" lon="-105.230038">
  <ele>1583.05</ele>
  <time>2026-08-29T19:29:59Z</time>
  <course>234.26</course>
  <speed>1.7042300314218146</speed>
  <fix>3d</fix>
</trkpt>
<trkpt lat="40.0712012" lon="-105.2300359">
  <ele>1583.0</ele>
  <time>2026-08-29T19:29:59Z</time>
  <course>233.34</course>
  <speed>1.72</speed>
  <fix>3d</fix>
</trkpt>
<trkpt lat="40.0711993" lon="-105.2300396">
  <ele>1583.04</ele>
  <time>2026-08-29T19:29:59Z</time>
  <course>234.33</course>
  <speed>1.7042300314218146</speed>
  <fix>3d</fix>
</trkpt>
<trkpt lat="40.0712012" lon="-105.2300359">
  <ele>1583.0</ele>
  <time>2026-08-29T19:29:59Z</time>
  <course>233.34</course>
  <speed>1.72</speed>
  <fix>3d</fix>
</trkpt>
<trkpt lat="40.0711984" lon="-105.2300412">
  <ele>1583.04</ele>
  <time>2026-08-29T19:29:59Z</time>
  <course>234.39</course>
  <speed>1.7042300314218146</speed>
  <fix>3d</fix>
</trkpt>
<trkpt lat="40.0711993" lon="-105.2300391">
  <ele>1583.0</ele>
  <time>2026-08-29T19:29:59Z</time>
  <course>233.45</course>
  <speed>1.72</speed>
  <fix>3d</fix>
</trkpt>
<trkpt lat="40.0711972" lon="-105.2300432">
  <ele>1583.04</ele>
  <time>2026-08-29T19:29:59Z</time>
  <course>234.47</course>
  <speed>1.712337583538947</speed>
  <fix>3d</fix>
</trkpt>
<trkpt lat="40.0711993" lon="-105.2300391">
  <ele>1583.0</ele>
  <time>2026-08-29T19:29:59Z</time>
  <course>233.45</course>
  <speed>1.72</speed>
  <fix>3d</fix>
</trkpt>
<trkpt lat="40.0711963" lon="-105.2300449">
  <ele>1583.04</ele>
  <time>2026-08-29T19:29:59Z</time>
  <course>234.51</course>
  <speed>1.7065169205138284</speed>
  <fix>3d</fix>
</trkpt>
<trkpt lat="40.0711974" lon="-105.2300424">
  <ele>1583.0</ele>
  <time>2026-08-29T19:29:59Z</time>
  <course>233.56</course>
  <speed>1.73</speed>
  <fix>3d</fix>
</trkpt>
<trkpt lat="40.0711954" lon="-105.2300465">
  <ele>1583.04</ele>
  <time>2026-08-29T19:29:59Z</time>
  <course>234.21</course>
  <speed>1.7042300314218146</speed>
  <fix>3d</fix>
</trkpt>
<trkpt lat="40.0711974" lon="-105.2300424">
  <ele>1583.0</ele>
  <time>2026-08-29T19:29:59Z</time>
  <course>233.56</course>
  <speed>1.73</speed>
  <fix>3d</fix>
</trkpt>
<trkpt lat="40.0711944" lon="-105.2300481">
  <ele>1583.04</ele>
  <time>2026-08-29T19:29:59Z</time>
  <course>233.1</course>
  <speed>1.7060187572239645</speed>
  <fix>3d</fix>
</trkpt>
<trkpt lat="40.0711956" lon="-105.2300457">
  <ele>1583.0</ele>
  <time>2026-08-29T19:29:59Z</time>
  <course>233.07</course>
  <speed>1.73</speed>
  <fix>3d</fix>
</trkpt>
<trkpt lat="40.0711934" lon="-105.2300497">
  <ele>1583.04</ele>
  <time>2026-08-29T19:29:59Z</time>
  <course>230.84</course>
  <speed>1.7055204484262274</speed>
  <fix>3d</fix>
</trkpt>
<trkpt lat="40.0711956" lon="-105.2300457">
  <ele>1583.0</ele>
  <time>2026-08-29T19:29:59Z</time>
  <course>233.07</course>
  <speed>1.73</speed>
  <fix>3d</fix>
</trkpt>
<trkpt lat="40.0711924" lon="-105.2300512">
  <ele>1583.04</ele>
  <time>2026-08-29T19:29:59Z</time>
  <course>227.48</course>
  <speed>1.7053152201279387</speed>
  <fix>3d</fix>
</trkpt>
<trkpt lat="40.0711936" lon="-105.2300489">
  <ele>1583.0</ele>
  <time>2026-08-29T19:29:59Z</time>
  <course>229.92</course>
  <speed>1.72</speed>
  <fix>3d</fix>
</trkpt>
<trkpt lat="40.0711913" lon="-105.2300526">
  <ele>1583.04</ele>
  <time>2026-08-29T19:29:59Z</time>
  <course>223.07</course>
  <speed>1.6985287751463027</speed>
  <fix>3d</fix>
</trkpt>
<trkpt lat="40.0711936" lon="-105.2300489">
  <ele>1583.0</ele>
  <time>2026-08-29T19:29:59Z</time>
  <course>229.92</course>
  <speed>1.72</speed>
  <fix>3d</fix>
</trkpt>
<trkpt lat="40.0711901" lon="-105.2300539">
  <ele>1583.04</ele>
  <time>2026-08-29T19:29:59Z</time>
  <course>218.64</course>
  <speed>1.6743058263053379</speed>
  <fix>3d</fix>
</trkpt>
<trkpt lat="40.0711916" lon="-105.2300518">
  <ele>1583.0</ele>
  <time>2026-08-29T19:29:59Z</time>
  <course>222.97</course>
  <speed>1.71</speed>
  <fix>3d</fix>
</trkpt>
<trkpt lat="40.0711889" lon="-105.230055">
  <ele>1583.04</ele>
  <time>2026-08-29T19:29:59Z</time>
  <course>214.48</course>
  <speed>1.6502424064360968</speed>
  <fix>3d</fix>
</trkpt>
<trkpt lat="40.0711916" lon="-105.2300518">
  <ele>1583.0</ele>
  <time>2026-08-29T19:29:59Z</time>
  <course>222.97</course>
  <speed>1.71</speed>
  <fix>3d</fix>
</trkpt>
<trkpt lat="40.0711876" lon="-105.230056">
  <ele>1583.04</ele>
  <time>2026-08-29T19:29:59Z</time>
  <course>210.53</course>
  <speed>1.6037767924496225</speed>
  <fix>3d</fix>
</trkpt>
<trkpt lat="40.0711892" lon="-105.2300543">
  <ele>1583.0</ele>
  <time>2026-08-29T19:29:59Z</time>
  <course>214.54</course>
  <speed>1.66</speed>
  <fix>3d</fix>
</trkpt>
<trkpt lat="40.0711863" lon="-105.2300569">
  <ele>1583.04</ele>
  <time>2026-08-29T19:29:59Z</time>
  <course>207.37</course>
  <speed>1.5652475842498526</speed>
  <fix>3d</fix>
</trkpt>
<trkpt lat="40.0711892" lon="-105.2300543">
  <ele>1583.0</ele>
  <time>2026-08-29T19:29:59Z</time>
  <course>214.54</course>
  <speed>1.66</speed>
  <fix>3d</fix>
</trkpt>
<trkpt lat="40.0711853" lon="-105.2300575">
  <ele>1583.04</ele>
  <time>2026-08-29T19:29:59Z</time>
  <course>205.65</course>
  <speed>1.5302614155757832</speed>
  <fix>3d</fix>
</trkpt>
<trkpt lat="40.0711867" lon="-105.2300563">
  <ele>1583.0</ele>
  <time>2026-08-29T19:29:59Z</time>
  <course>207.64</course>
  <speed>1.59</speed>
  <fix>3d</fix>
</trkpt>
<trkpt lat="40.071184" lon="-105.2300582">
  <ele>1583.04</ele>
  <time>2026-08-29T19:29:59Z</time>
  <course>204.51</course>
  <speed>1.4824641648282766</speed>
  <fix>3d</fix>
</trkpt>
<trkpt lat="40.0711867" lon="-105.2300563">
  <ele>1583.0</ele>
  <time>2026-08-29T19:29:59Z</time>
  <course>207.64</course>
  <speed>1.59</speed>
  <fix>3d</fix>
</trkpt>
<trkpt lat="40.0711828" lon="-105.2300589">
  <ele>1583.04</ele>
  <time>2026-08-29T19:29:59Z</time>
  <course>204.47</course>
  <speed>1.437810835958611</speed>
  <fix>3d</fix>
</trkpt>
<trkpt lat="40.0711842" lon="-105.2300578">
  <ele>1583.0</ele>
  <time>2026-08-29T19:29:59Z</time>
  <course>204.19</course>
  <speed>1.51</speed>
  <fix>3d</fix>
</trkpt>
<trkpt lat="40.0711816" lon="-105.2300595">
  <ele>1583.04</ele>
  <time>2026-08-29T19:29:59Z</time>
  <course>205.53</course>
  <speed>1.4052757736472938</speed>
  <fix>3d</fix>
</trkpt>
<trkpt lat="40.0711842" lon="-105.2300578">
  <ele>1583.0</ele>
  <time>2026-08-29T19:29:59Z</time>
  <course>204.19</course>
  <speed>1.51</speed>
  <fix>3d</fix>
</trkpt>
<trkpt lat="40.0711805" lon="-105.2300602">
  <ele>1583.04</ele>
  <time>2026-08-29T19:29:59Z</time>
  <course>207.71</course>
  <speed>1.3774251340817039</speed>
  <fix>3d</fix>
</trkpt>
<trkpt lat="40.0711818" lon="-105.2300592">
  <ele>1583.0</ele>
  <time>2026-08-29T19:29:59Z</time>
  <course>205.18</course>
  <speed>1.43</speed>
  <fix>3d</fix>
</trkpt>
<trkpt lat="40.0711794" lon="-105.230061">
  <ele>1583.04</ele>
  <time>2026-08-29T19:29:59Z</time>
  <course>210.64</course>
  <speed>1.3482581355215328</speed>
  <fix>3d</fix>
</trkpt>
<trkpt lat="40.0711818" lon="-105.2300592">
  <ele>1583.0</ele>
  <time>2026-08-29T19:29:59Z</time>
  <course>205.18</course>
  <speed>1.43</speed>
  <fix>3d</fix>
</trkpt>
<trkpt lat="40.0711783" lon="-105.2300618">
  <ele>1583.04</ele>
  <time>2026-08-29T19:29:59Z</time>
  <course>213.03</course>
  <speed>1.334541119636259</speed>
  <fix>3d</fix>
</trkpt>
<trkpt lat="40.0711795" lon="-105.2300607">
  <ele>1583.0</ele>
  <time>2026-08-29T19:29:59Z</time>
  <course>209.48</course>
  <speed>1.38</speed>
  <fix>3d</fix>
</trkpt>
<trkpt lat="40.0711773" lon="-105.2300626">
  <ele>1583.04</ele>
  <time>2026-08-29T19:29:59Z</time>
  <course>215.05</course>
  <speed>1.317459676802292</speed>
  <fix>3d</fix>
</trkpt>
<trkpt lat="40.0711795" lon="-105.2300607">
  <ele>1583.0</ele>
  <time>2026-08-29T19:29:59Z</time>
  <course>209.48</course>
  <speed>1.38</speed>
  <fix>3d</fix>
</trkpt>
<trkpt lat="40.0711763" lon="-105.2300635">
  <ele>1583.04</ele>
  <time>2026-08-29T19:30:00Z</time>
  <course>216.72</course>
  <speed>1.3101526628603246</speed>
  <fix>3d</fix>
</trkpt>
<trkpt lat="40.0711774" lon="-105.2300625">
  <ele>1583.0</ele>
  <time>2026-08-29T19:30:00Z</time>
  <course>213.99</course>
  <speed>1.35</speed>
  <fix>3d</fix>
</trkpt>
<trkpt lat="40.0711751" lon="-105.2300647">
  <ele>1583.04</ele>
  <time>2026-08-29T19:30:00Z</time>
  <course>218.37</course>
  <speed>1.298075498574717</speed>
  <fix>3d</fix>
</trkpt>
<trkpt lat="40.0711774" lon="-105.2300625">
  <ele>1583.0</ele>
  <time>2026-08-29T19:30:00Z</time>
  <course>213.99</course>
  <speed>1.35</speed>
  <fix>3d</fix>
</trkpt>
<trkpt lat="40.0711742" lon="-105.2300656">
  <ele>1583.04</ele>
  <time>2026-08-29T19:30:00Z</time>
  <course>219.5</course>
  <speed>1.2868954891520912</speed>
  <fix>3d</fix>
</trkpt>
<trkpt lat="40.0711754" lon="-105.2300643">
  <ele>1583.0</ele>
  <time>2026-08-29T19:30:00Z</time>
  <course>217.11</course>
  <speed>1.34</speed>
  <fix>3d</fix>
</trkpt>
<trkpt lat="40.0711733" lon="-105.2300666">
  <ele>1583.04</ele>
  <time>2026-08-29T19:30:00Z</time>
  <course>220.44</course>
  <speed>1.2918978287774927</speed>
  <fix>3d</fix>
</trkpt>
<trkpt lat="40.0711754" lon="-105.2300643">
  <ele>1583.0</ele>
  <time>2026-08-29T19:30:00Z</time>
  <course>217.11</course>
  <speed>1.34</speed>
  <fix>3d</fix>
</trkpt>
<trkpt lat="40.0711724" lon="-105.2300676">
  <ele>1583.04</ele>
  <time>2026-08-29T19:30:00Z</time>
  <course>221.23</course>
  <speed>1.283160161476345</speed>
  <fix>3d</fix>
</trkpt>
<trkpt lat="40.0711735" lon="-105.2300663">
  <ele>1583.0</ele>
  <time>2026-08-29T19:30:00Z</time>
  <course>219.29</course>
  <speed>1.32</speed>
  <fix>3d</fix>
</trkpt>
<trkpt lat="40.0711715" lon="-105.2300686">
  <ele>1583.04</ele>
  <time>2026-08-29T19:30:00Z</time>
  <course>221.88</course>
  <speed>1.2822246293064254</speed>
  <fix>3d</fix>
</trkpt>
<trkpt lat="40.0711735" lon="-105.2300663">
  <ele>1583.0</ele>
  <time>2026-08-29T19:30:00Z</time>
  <course>219.29</course>
  <speed>1.32</speed>
  <fix>3d</fix>
</trkpt>
<trkpt lat="40.0711706" lon="-105.2300697">
  <ele>1583.04</ele>
  <time>2026-08-29T19:30:00Z</time>
  <course>222.42</course>
  <speed>1.288875478857442</speed>
  <fix>3d</fix>
</trkpt>
<trkpt lat="40.0711718" lon="-105.2300683">
  <ele>1583.0</ele>
  <time>2026-08-29T19:30:00Z</time>
  <course>220.81</course>
  <speed>1.32</speed>
  <fix>3d</fix>
</trkpt>
<trkpt lat="40.0711697" lon="-105.2300707">
  <ele>1583.04</ele>
  <time>2026-08-29T19:30:00Z</time>
  <course>222.87</course>
  <speed>1.2949517365523704</speed>
  <fix>3d</fix>
</trkpt>
<trkpt lat="40.0711718" lon="-105.2300683">
  <ele>1583.0</ele>
  <time>2026-08-29T19:30:00Z</time>
  <course>220.81</course>
  <speed>1.32</speed>
  <fix>3d</fix>
</trkpt>
<trkpt lat="40.0711688" lon="-105.2300718">
  <ele>1583.04</ele>
  <time>2026-08-29T19:30:00Z</time>
  <course>223.26</course>
  <speed>1.3017680284904833</speed>
  <fix>3d</fix>
</trkpt>
<trkpt lat="40.0711699" lon="-105.2300703">
  <ele>1583.0</ele>
  <time>2026-08-29T19:30:00Z</time>
  <course>221.87</course>
  <speed>1.33</speed>
  <fix>3d</fix>
</trkpt>
<trkpt lat="40.071168" lon="-105.2300728">
  <ele>1583.04</ele>
  <time>2026-08-29T19:30:00Z</time>
  <course>223.57</course>
  <speed>1.3086252328302401</speed>
  <fix>3d</fix>
</trkpt>
<trkpt lat="40.0711699" lon="-105.2300703">
  <ele>1583.0</ele>
  <time>2026-08-29T19:30:00Z</time>
  <course>221.87</course>
  <speed>1.33</speed>
  <fix>3d</fix>
</trkpt>
<trkpt lat="40.0711671" lon="-105.2300739">
  <ele>1583.03</ele>
  <time>2026-08-29T19:30:00Z</time>
  <course>223.83</course>
  <speed>1.3155227098001767</speed>
  <fix>3d</fix>
</trkpt>
<trkpt lat="40.0711682" lon="-105.2300725">
  <ele>1583.0</ele>
  <time>2026-08-29T19:30:00Z</time>
  <course>222.59</course>
  <speed>1.34</speed>
  <fix>3d</fix>
</trkpt>
<trkpt lat="40.0711662" lon="-105.230075">
  <ele>1583.03</ele>
  <time>2026-08-29T19:30:00Z</time>
  <course>224.05</course>
  <speed>1.3224598292575847</speed>
  <fix>3d</fix>
</trkpt>
<trkpt lat="40.0711682" lon="-105.2300725">
  <ele>1583.0</ele>
  <time>2026-08-29T19:30:00Z</time>
  <course>222.59</course>
  <speed>1.34</speed>
  <fix>3d</fix>
</trkpt>
<trkpt lat="40.0711653" lon="-105.2300761">
  <ele>1583.03</ele>
  <time>2026-08-29T19:30:00Z</time>
  <course>224.23</course>
  <speed>1.3294359706281458</speed>
  <fix>3d</fix>
</trkpt>
<trkpt lat="40.0711663" lon="-105.2300746">
  <ele>1583.0</ele>
  <time>2026-08-29T19:30:00Z</time>
  <course>223.1</course>
  <speed>1.36</speed>
  <fix>3d</fix>
</trkpt>
<trkpt lat="40.0711646" lon="-105.230077">
  <ele>1583.03</ele>
  <time>2026-08-29T19:30:00Z</time>
  <course>224.35</course>
  <speed>1.3435773144854748</speed>
  <fix>3d</fix>
</trkpt>
<trkpt lat="40.0711663" lon="-105.2300746">
  <ele>1583.0</ele>
  <time>2026-08-29T19:30:00Z</time>
  <course>223.1</course>
  <speed>1.36</speed>
  <fix>3d</fix>
</trkpt>
<trkpt lat="40.0711637" lon="-105.2300781">
  <ele>1583.03</ele>
  <time>2026-08-29T19:30:00Z</time>
  <course>224.48</course>
  <speed>1.3435773144854748</speed>
  <fix>3d</fix>
</trkpt>
<trkpt lat="40.0711646" lon="-105.2300769">
  <ele>1583.0</ele>
  <time>2026-08-29T19:30:00Z</time>
  <course>223.45</course>
  <speed>1.37</speed>
  <fix>3d</fix>
</trkpt>
<trkpt lat="40.0711628" lon="-105.2300792">
  <ele>1583.03</ele>
  <time>2026-08-29T19:30:00Z</time>
  <course>224.59</course>
  <speed>1.3577186748365804</speed>
  <fix>3d</fix>
</trkpt>
<trkpt lat="40.0711646" lon="-105.2300769">
  <ele>1583.0</ele>
  <time>2026-08-29T19:30:00Z</time>
  <course>223.45</course>
  <speed>1.37</speed>
  <fix>3d</fix>
</trkpt>
<trkpt lat="40.0711619" lon="-105.2300804">
  <ele>1583.02</ele>
  <time>2026-08-29T19:30:00Z</time>
  <course>224.68</course>
  <speed>1.364734406395618</speed>
  <fix>3d</fix>
</trkpt>
<trkpt lat="40.0711627" lon="-105.230079">
  <ele>1583.0</ele>
  <time>2026-08-29T19:30:00Z</time>
  <course>223.69</course>
  <speed>1.39</speed>
  <fix>3d</fix>
</trkpt>
<trkpt lat="40.071161" lon="-105.2300815">
  <ele>1583.02</ele>
  <time>2026-08-29T19:30:00Z</time>
  <course>224.75</course>
  <speed>1.3788763541376725</speed>
  <fix>3d</fix>
</trkpt>
<trkpt lat="40.0711627" lon="-105.230079">
  <ele>1583.0</ele>
  <time>2026-08-29T19:30:00Z</time>
  <course>223.69</course>
  <speed>1.39</speed>
  <fix>3d</fix>
</trkpt>
<trkpt lat="40.0711601" lon="-105.2300827">
  <ele>1583.02</ele>
  <time>2026-08-29T19:30:00Z</time>
  <course>224.81</course>
  <speed>1.3859292911256333</speed>
  <fix>3d</fix>
</trkpt>
<trkpt lat="40.071161" lon="-105.2300813">
  <ele>1583.0</ele>
  <time>2026-08-29T19:30:00Z</time>
  <course>223.85</course>
  <speed>1.41</speed>
  <fix>3d</fix>
</trkpt>
<trkpt lat="40.0711592" lon="-105.2300839">
  <ele>1583.02</ele>
  <time>2026-08-29T19:30:00Z</time>
  <course>224.86</course>
  <speed>1.393018305694509</speed>
  <fix>3d</fix>
</trkpt>
<trkpt lat="40.071161" lon="-105.2300813">
  <ele>1583.0</ele>
  <time>2026-08-29T19:30:00Z</time>
  <course>223.85</course>
  <speed>1.41</speed>
  <fix>3d</fix>
</trkpt>
<trkpt lat="40.0711582" lon="-105.230085">
  <ele>1583.02</ele>
  <time>2026-08-29T19:30:00Z</time>
  <course>224.89</course>
  <speed>1.4000714267493641</speed>
  <fix>3d</fix>
</trkpt>
<trkpt lat="40.0711591" lon="-105.2300837">
  <ele>1583.0</ele>
  <time>2026-08-29T19:30:00Z</time>
  <course>223.96</course>
  <speed>1.42</speed>
  <fix>3d</fix>
</trkpt>
<trkpt lat="40.0711573" lon="-105.2300862">
  <ele>1583.01</ele>
  <time>2026-08-29T19:30:00Z</time>
  <course>224.93</course>
  <speed>1.4000714267493641</speed>
  <fix>3d</fix>
</trkpt>
<trkpt lat="40.0711591" lon="-105.2300837">
  <ele>1583.0</ele>
  <time>2026-08-29T19:30:00Z</time>
  <course>223.96</course>
  <speed>1.42</speed>
  <fix>3d</fix>
</trkpt>
<trkpt lat="40.0711562" lon="-105.2300877">
  <ele>1583.01</ele>
  <time>2026-08-29T19:30:00Z</time>
  <course>224.95</course>
  <speed>1.4142135623730951</speed>
  <fix>3d</fix>
</trkpt>
<trkpt lat="40.0711573" lon="-105.230086">
  <ele>1583.0</ele>
  <time>2026-08-29T19:30:00Z</time>
  <course>224.03</course>
  <speed>1.43</speed>
  <fix>3d</fix>
</trkpt>
<trkpt lat="40.0711552" lon="-105.2300889">
  <ele>1583.01</ele>
  <time>2026-08-29T19:30:00Z</time>
  <course>224.97</course>
  <speed>1.4213022197970424</speed>
  <fix>3d</fix>
</trkpt>
<trkpt lat="40.0711573" lon="-105.230086">
  <ele>1583.0</ele>
  <time>2026-08-29T19:30:00Z</time>
  <course>224.03</course>
  <speed>1.43</speed>
  <fix>3d</fix>
</trkpt>
<trkpt lat="40.0711543" lon="-105.2300901">
  <ele>1583.01</ele>
  <time>2026-08-29T19:30:00Z</time>
  <course>224.99</course>
  <speed>1.428355697996826</speed>
  <fix>3d</fix>
</trkpt>
<trkpt lat="40.0711554" lon="-105.2300884">
  <ele>1583.0</ele>
  <time>2026-08-29T19:30:00Z</time>
  <course>224.08</course>
  <speed>1.44</speed>
  <fix>3d</fix>
</trkpt>
<trkpt lat="40.0711533" lon="-105.2300913">
  <ele>1583.01</ele>
  <time>2026-08-29T19:30:00Z</time>
  <course>224.99</course>
  <speed>1.428355697996826</speed>
  <fix>3d</fix>
</trkpt>
<trkpt lat="40.0711554" lon="-105.2300884">
  <ele>1583.0</ele>
  <time>2026-08-29T19:30:00Z</time>
  <course>224.08</course>
  <speed>1.44</speed>
  <fix>3d</fix>
</trkpt>
<trkpt lat="40.0711524" lon="-105.2300925">
  <ele>1583.01</ele>
  <time>2026-08-29T19:30:00Z</time>
  <course>225.0</course>
  <speed>1.4354441821262156</speed>
  <fix>3d</fix>
</trkpt>
<trkpt lat="40.0711535" lon="-105.2300908">
  <ele>1583.0</ele>
  <time>2026-08-29T19:30:00Z</time>
  <course>224.11</course>
  <speed>1.45</speed>
  <fix>3d</fix>
</trkpt>
<trkpt lat="40.0711514" lon="-105.2300937">
  <ele>1583.01</ele>
  <time>2026-08-29T19:30:00Z</time>
  <course>225.0</course>
  <speed>1.442497833620557</speed>
  <fix>3d</fix>
</trkpt>
<trkpt lat="40.0711535" lon="-105.2300908">
  <ele>1583.0</ele>
  <time>2026-08-29T19:30:00Z</time>
  <course>224.11</course>
  <speed>1.45</speed>
  <fix>3d</fix>
</trkpt>
<trkpt lat="40.0711505" lon="-105.2300949">
  <ele>1583.01</ele>
  <time>2026-08-29T19:30:00Z</time>
  <course>225.0</course>
  <speed>1.442497833620557</speed>
  <fix>3d</fix>
</trkpt>
<trkpt lat="40.0711516" lon="-105.2300932">
  <ele>1583.0</ele>
  <time>2026-08-29T19:30:00Z</time>
  <course>224.12</course>
  <speed>1.46</speed>
  <fix>3d</fix>
</trkpt>
<trkpt lat="40.0711496" lon="-105.2300961">
  <ele>1583.01</ele>
  <time>2026-08-29T19:30:00Z</time>
  <course>225.0</course>
  <speed>1.4495861478366852</speed>
  <fix>3d</fix>
</trkpt>
<trkpt lat="40.0711516" lon="-105.2300932">
  <ele>1583.0</ele>
  <time>2026-08-29T19:30:00Z</time>
  <course>224.12</course>
  <speed>1.46</speed>
  <fix>3d</fix>
</trkpt>
<trkpt lat="40.0711486" lon="-105.2300973">
  <ele>1583.01</ele>
  <time>2026-08-29T19:30:00Z</time>
  <course>225.0</course>
  <speed>1.4495861478366852</speed>
  <fix>3d</fix>
</trkpt>
<trkpt lat="40.0711497" lon="-105.2300956">
  <ele>1583.0</ele>
  <time>2026-08-29T19:30:00Z</time>
  <course>224.12</course>
  <speed>1.47</speed>
  <fix>3d</fix>
</trkpt>
<trkpt lat="40.0711477" lon="-105.2300985">
  <ele>1583.01</ele>
  <time>2026-08-29T19:30:00Z</time>
  <course>225.0</course>
  <speed>1.456639969244288</speed>
  <fix>3d</fix>
</trkpt>
<trkpt lat="40.0711497" lon="-105.2300956">
  <ele>1583.0</ele>
  <time>2026-08-29T19:30:00Z</time>
  <course>224.12</course>
  <speed>1.47</speed>
  <fix>3d</fix>
</trkpt>
<trkpt lat="40.0711467" lon="-105.2300997">
  <ele>1583.02</ele>
  <time>2026-08-29T19:30:00Z</time>
  <course>225.0</course>
  <speed>1.456639969244288</speed>
  <fix>3d</fix>
</trkpt>
<trkpt lat="40.0711478" lon="-105.230098">
  <ele>1583.0</ele>
  <time>2026-08-29T19:30:00Z</time>
  <course>224.12</course>
  <speed>1.48</speed>
  <fix>3d</fix>
</trkpt>
<trkpt lat="40.0711459" lon="-105.2301007">
  <ele>1583.02</ele>
  <time>2026-08-29T19:30:00Z</time>
  <course>224.99</course>
  <speed>1.456639969244288</speed>
  <fix>3d</fix>
</trkpt>
<trkpt lat="40.0711478" lon="-105.230098">
  <ele>1583.0</ele>
  <time>2026-08-29T19:30:00Z</time>
  <course>224.12</course>
  <speed>1.48</speed>
  <fix>3d</fix>
</trkpt>
<trkpt lat="40.071145" lon="-105.2301019">
  <ele>1583.02</ele>
  <time>2026-08-29T19:30:00Z</time>
  <course>224.99</course>
  <speed>1.4637281168304446</speed>
  <fix>3d</fix>
</trkpt>
<trkpt lat="40.0711459" lon="-105.2301004">
  <ele>1583.0</ele>
  <time>2026-08-29T19:30:00Z</time>
  <course>224.12</course>
  <speed>1.48</speed>
  <fix>3d</fix>
</trkpt>
<trkpt lat="40.071144" lon="-105.2301032">
  <ele>1583.02</ele>
  <time>2026-08-29T19:30:00Z</time>
  <course>224.99</course>
  <speed>1.4637281168304446</speed>
  <fix>3d</fix>
</trkpt>
<trkpt lat="40.0711459" lon="-105.2301004">
  <ele>1583.0</ele>
  <time>2026-08-29T19:30:00Z</time>
  <course>224.12</course>
  <speed>1.48</speed>
  <fix>3d</fix>
</trkpt>
<trkpt lat="40.0711431" lon="-105.2301044">
  <ele>1583.02</ele>
  <time>2026-08-29T19:30:00Z</time>
  <course>224.99</course>
  <speed>1.4637281168304446</speed>
  <fix>3d</fix>
</trkpt>
<trkpt lat="40.071144" lon="-105.2301028">
  <ele>1583.0</ele>
  <time>2026-08-29T19:30:00Z</time>
  <course>224.12</course>
  <speed>1.48</speed>
  <fix>3d</fix>
</trkpt>
<trkpt lat="40.0711421" lon="-105.2301056">
  <ele>1583.02</ele>
  <time>2026-08-29T19:30:00Z</time>
  <course>224.5</course>
  <speed>1.4708500943332057</speed>
  <fix>3d</fix>
</trkpt>
<trkpt lat="40.071144" lon="-105.2301028">
  <ele>1583.0</ele>
  <time>2026-08-29T19:30:00Z</time>
  <course>224.12</course>
  <speed>1.48</speed>
  <fix>3d</fix>
</trkpt>
<trkpt lat="40.0711411" lon="-105.2301068">
  <ele>1583.02</ele>
  <time>2026-08-29T19:30:00Z</time>
  <course>222.82</course>
  <speed>1.4718695594379279</speed>
  <fix>3d</fix>
</trkpt>
<trkpt lat="40.0711421" lon="-105.2301052">
  <ele>1583.0</ele>
  <time>2026-08-29T19:30:00Z</time>
  <course>223.02</course>
  <speed>1.49</speed>
  <fix>3d</fix>
</trkpt>
<trkpt lat="40.0711401" lon="-105.2301079">
  <ele>1583.02</ele>
  <time>2026-08-29T19:30:00Z</time>
  <course>220.04</course>
  <speed>1.4621901381147393</speed>
  <fix>3d</fix>
</trkpt>
<trkpt lat="40.0711421" lon="-105.2301052">
  <ele>1583.0</ele>
  <time>2026-08-29T19:30:00Z</time>
  <course>223.02</course>
  <speed>1.49</speed>
  <fix>3d</fix>
</trkpt>
<trkpt lat="40.071139" lon="-105.230109">
  <ele>1583.02</ele>
  <time>2026-08-29T19:30:00Z</time>
  <course>216.17</course>
  <speed>1.4601369798755184</speed>
  <fix>3d</fix>
</trkpt>
<trkpt lat="40.0711401" lon="-105.2301076">
  <ele>1583.0</ele>
  <time>2026-08-29T19:30:00Z</time>
  <course>218.61</course>
  <speed>1.48</speed>
  <fix>3d</fix>
</trkpt>
<trkpt lat="40.0711379" lon="-105.23011">
  <ele>1583.02</ele>
  <time>2026-08-29T19:30:00Z</time>
  <course>211.18</course>
  <speed>1.4440221604947758</speed>
  <fix>3d</fix>
</trkpt>
<trkpt lat="40.0711401" lon="-105.2301076">
  <ele>1583.0</ele>
  <time>2026-08-29T19:30:00Z</time>
  <course>218.61</course>
  <speed>1.48</speed>
  <fix>3d</fix>
</trkpt>
<trkpt lat="40.0711367" lon="-105.2301107">
  <ele>1583.02</ele>
  <time>2026-08-29T19:30:00Z</time>
  <course>205.62</course>
  <speed>1.4136477637657834</speed>
  <fix>3d</fix>
</trkpt>
<trkpt lat="40.0711379" lon="-105.2301095">
  <ele>1583.0</ele>
  <time>2026-08-29T19:30:00Z</time>
  <course>210.09</course>
  <speed>1.45</speed>
  <fix>3d</fix>
</trkpt>
<trkpt lat="40.0711352" lon="-105.2301114">
  <ele>1583.02</ele>
  <time>2026-08-29T19:30:00Z</time>
  <course>199.04</course>
  <speed>1.3692698784388708</speed>
  <fix>3d</fix>
</trkpt>
<trkpt lat="40.0711379" lon="-105.2301095">
  <ele>1583.0</ele>
  <time>2026-08-29T19:30:00Z</time>
  <course>210.09</course>
  <speed>1.45</speed>
  <fix>3d</fix>
</trkpt>
<trkpt lat="40.071134" lon="-105.2301118">
  <ele>1583.02</ele>
  <time>2026-08-29T19:30:00Z</time>
  <course>193.55</course>
  <speed>1.322195144447294</speed>
  <fix>3d</fix>
</trkpt>
<trkpt lat="40.0711356" lon="-105.2301109">
  <ele>1583.0</ele>
  <time>2026-08-29T19:30:00Z</time>
  <course>199.44</course>
  <speed>1.39</speed>
  <fix>3d</fix>
</trkpt>
<trkpt lat="40.0711328" lon="-105.2301121">
  <ele>1583.02</ele>
  <time>2026-08-29T19:30:00Z</time>
  <course>188.06</course>
  <speed>1.2701181047445942</speed>
  <fix>3d</fix>
</trkpt>
<trkpt lat="40.0711356" lon="-105.2301109">
  <ele>1583.0</ele>
  <time>2026-08-29T19:30:00Z</time>
  <course>199.44</course>
  <speed>1.39</speed>
  <fix>3d</fix>
</trkpt>
<trkpt lat="40.0711317" lon="-105.2301121">
  <ele>1583.02</ele>
  <time>2026-08-29T19:30:00Z</time>
  <course>182.57</course>
  <speed>1.2103718436910205</speed>
  <fix>3d</fix>
</trkpt>
<trkpt lat="40.0711332" lon="-105.2301117">
  <ele>1583.0</ele>
  <time>2026-08-29T19:30:00Z</time>
  <course>188.53</course>
  <speed>1.29</speed>
  <fix>3d</fix>
</trkpt>
<trkpt lat="40.0711306" lon="-105.2301121">
  <ele>1583.02</ele>
  <time>2026-08-29T19:30:00Z</time>
  <course>177.07</course>
  <speed>1.1527792503337315</speed>
  <fix>3d</fix>
</trkpt>
<trkpt lat="40.0711332" lon="-105.2301117">
  <ele>1583.0</ele>
  <time>2026-08-29T19:30:00Z</time>
  <course>188.53</course>
  <speed>1.29</speed>
  <fix>3d</fix>
</trkpt>
<trkpt lat="40.0711296" lon="-105.2301119">
  <ele>1583.02</ele>
  <time>2026-08-29T19:30:00Z</time>
  <course>171.58</course>
  <speed>1.1047624178980746</speed>
  <fix>3d</fix>
</trkpt>
<trkpt lat="40.071131" lon="-105.2301118">
  <ele>1583.0</ele>
  <time>2026-08-29T19:30:00Z</time>
  <course>177.53</course>
  <speed>1.18</speed>
  <fix>3d</fix>
</trkpt>
<trkpt lat="40.0711286" lon="-105.2301116">
  <ele>1583.02</ele>
  <time>2026-08-29T19:30:00Z</time>
  <course>166.09</course>
  <speed>1.067379969832674</speed>
  <fix>3d</fix>
</trkpt>
<trkpt lat="40.071131" lon="-105.2301118">
  <ele>1583.0</ele>
  <time>2026-08-29T19:30:00Z</time>
  <course>177.53</course>
  <speed>1.18</speed>
  <fix>3d</fix>
</trkpt>
<trkpt lat="40.0711277" lon="-105.2301111">
  <ele>1583.02</ele>
  <time>2026-08-29T19:30:00Z</time>
  <course>160.84</course>
  <speed>1.0381714694596456</speed>
  <fix>3d</fix>
</trkpt>
<trkpt lat="40.071129" lon="-105.2301114">
  <ele>1583.0</ele>
  <time>2026-08-29T19:30:00Z</time>
  <course>166.5</course>
  <speed>1.09</speed>
  <fix>3d</fix>
</trkpt>
<trkpt lat="40.0711269" lon="-105.2301106">
  <ele>1583.02</ele>
  <time>2026-08-29T19:30:00Z</time>
  <course>156.47</course>
  <speed>1.0288342918079665</speed>
  <fix>3d</fix>
</trkpt>
<trkpt lat="40.071129" lon="-105.2301114">
  <ele>1583.0</ele>
  <time>2026-08-29T19:30:00Z</time>
  <course>166.5</course>
  <speed>1.09</speed>
  <fix>3d</fix>
</trkpt>
<trkpt lat="40.071126" lon="-105.2301101">
  <ele>1583.02</ele>
  <time>2026-08-29T19:30:00Z</time>
  <course>152.79</course>
  <speed>1.0295630140987</speed>
  <fix>3d</fix>
</trkpt>
<trkpt lat="40.0711272" lon="-105.2301107">
  <ele>1583.0</ele>
  <time>2026-08-29T19:30:00Z</time>
  <course>156.77</course>
  <speed>1.05</speed>
  <fix>3d</fix>
</trkpt>
<trkpt lat="40.0711252" lon="-105.2301095">
  <ele>1583.02</ele>
  <time>2026-08-29T19:30:00Z</time>
  <course>149.71</course>
  <speed>1.029271587094485</speed>
  <fix>3d</fix>
</trkpt>
<trkpt lat="40.0711272" lon="-105.2301107">
  <ele>1583.0</ele>
  <time>2026-08-29T19:30:00Z</time>
  <course>156.77</course>
  <speed>1.05</speed>
  <fix>3d</fix>
</trkpt>
<trkpt lat="40.0711246" lon="-105.2301089">
  <ele>1583.02</ele>
  <time>2026-08-29T19:30:00Z</time>
  <course>147.6</course>
  <speed>1.0346980235798269</speed>
  <fix>3d</fix>
</trkpt>
<trkpt lat="40.0711255" lon="-105.2301096">
  <ele>1583.0</ele>
  <time>2026-08-29T19:30:00Z</time>
  <course>149.64</course>
  <speed>1.05</speed>
  <fix>3d</fix>
</trkpt>
<trkpt lat="40.0711238" lon="-105.2301082">
  <ele>1583.02</ele>
  <time>2026-08-29T19:30:00Z</time>
  <course>145.38</course>
  <speed>1.05</speed>
  <fix>3d</fix>
</trkpt>
<trkpt lat="40.0711255" lon="-105.2301096">
  <ele>1583.0</ele>
  <time>2026-08-29T19:30:00Z</time>
  <course>149.64</course>
  <speed>1.05</speed>
  <fix>3d</fix>
</trkpt>
<trkpt lat="40.0711231" lon="-105.2301074">
  <ele>1583.02</ele>
  <time>2026-08-29T19:30:00Z</time>
  <course>143.73</course>
  <speed>1.0526157893552612</speed>
  <fix>3d</fix>
</trkpt>
<trkpt lat="40.0711239" lon="-105.2301083">
  <ele>1583.0</ele>
  <time>2026-08-29T19:30:00Z</time>
  <course>144.77</course>
  <speed>1.06</speed>
  <fix>3d</fix>
</trkpt>
<trkpt lat="40.0711223" lon="-105.2301066">
  <ele>1583.02</ele>
  <time>2026-08-29T19:30:00Z</time>
  <course>143.23</course>
  <speed>1.0589145385724006</speed>
  <fix>3d</fix>
</trkpt>
<trkpt lat="40.0711239" lon="-105.2301083">
  <ele>1583.0</ele>
  <time>2026-08-29T19:30:00Z</time>
  <course>144.77</course>
  <speed>1.06</speed>
  <fix>3d</fix>
</trkpt>
<trkpt lat="40.0711215" lon="-105.2301058">
  <ele>1583.02</ele>
  <time>2026-08-29T19:30:00Z</time>
  <course>143.24</course>
  <speed>1.0666770832824712</speed>
  <fix>3d</fix>
</trkpt>
<trkpt lat="40.0711223" lon="-105.2301068">
  <ele>1583.0</ele>
  <time>2026-08-29T19:30:00Z</time>
  <course>142.61</course>
  <speed>1.07</speed>
  <fix>3d</fix>
</trkpt>
<trkpt lat="40.0711208" lon="-105.230105">
  <ele>1583.02</ele>
  <time>2026-08-29T19:30:00Z</time>
  <course>143.18</course>
  <speed>1.0729864864013898</speed>
  <fix>3d</fix>
</trkpt>
<trkpt lat="40.0711223" lon="-105.2301068">
  <ele>1583.0</ele>
  <time>2026-08-29T19:30:00Z</time>
  <course>142.61</course>
  <speed>1.07</speed>
  <fix>3d</fix>
</trkpt>
<trkpt lat="40.07112" lon="-105.2301042">
  <ele>1583.03</ele>
  <time>2026-08-29T19:30:00Z</time>
  <course>143.12</course>
  <speed>1.0807404868885038</speed>
  <fix>3d</fix>
</trkpt>
<trkpt lat="40.0711208" lon="-105.2301052">
  <ele>1583.0</ele>
  <time>2026-08-29T19:30:00Z</time>
  <course>142.3</course>
  <speed>1.09</speed>
  <fix>3d</fix>
</trkpt>
<trkpt lat="40.0711192" lon="-105.2301034">
  <ele>1583.03</ele>
  <time>2026-08-29T19:30:00Z</time>
  <course>143.05</course>
  <speed>1.0870602559196063</speed>
  <fix>3d</fix>
</trkpt>
<trkpt lat="40.0711208" lon="-105.2301052">
  <ele>1583.0</ele>
  <time>2026-08-29T19:30:00Z</time>
  <course>142.3</course>
  <speed>1.09</speed>
  <fix>3d</fix>
</trkpt>
<trkpt lat="40.0711184" lon="-105.2301026">
  <ele>1583.03</ele>
  <time>2026-08-29T19:30:00Z</time>
  <course>142.98</course>
  <speed>1.094805918873295</speed>
  <fix>3d</fix>
</trkpt>
<trkpt lat="40.0711193" lon="-105.2301037">
  <ele>1583.0</ele>
  <time>2026-08-29T19:30:00Z</time>
  <course>142.16</course>
  <speed>1.1</speed>
  <fix>3d</fix>
</trkpt>
<trkpt lat="40.0711176" lon="-105.2301018">
  <ele>1583.03</ele>
  <time>2026-08-29T19:30:00Z</time>
  <course>142.9</course>
  <speed>1.101135777277262</speed>
  <fix>3d</fix>
</trkpt>
<trkpt lat="40.0711193" lon="-105.2301037">
  <ele>1583.0</ele>
  <time>2026-08-29T19:30:00Z</time>
  <course>142.16</course>
  <speed>1.1</speed>
  <fix>3d</fix>
</trkpt>
<trkpt lat="40.0711167" lon="-105.2301008">
  <ele>1583.04</ele>
  <time>2026-08-29T19:30:00Z</time>
  <course>142.79</course>
  <speed>1.108873302050329</speed>
  <fix>3d</fix>
</trkpt>
<trkpt lat="40.0711177" lon="-105.2301021">
  <ele>1583.0</ele>
  <time>2026-08-29T19:30:00Z</time>
  <course>142.0</course>
  <speed>1.12</speed>
  <fix>3d</fix>
</trkpt>
<trkpt lat="40.0711159" lon="-105.2300999">
  <ele>1583.04</ele>
  <time>2026-08-29T19:30:00Z</time>
  <course>142.69</course>
  <speed>1.1229425630903835</speed>
  <fix>3d</fix>
</trkpt>
<trkpt lat="40.0711177" lon="-105.2301021">
  <ele>1583.0</ele>
  <time>2026-08-29T19:30:00Z</time>
  <course>142.0</course>
  <speed>1.12</speed>
  <fix>3d</fix>
</trkpt>
<trkpt lat="40.0711151" lon="-105.2300991">
  <ele>1583.04</ele>
  <time>2026-08-29T19:30:00Z</time>
  <course>142.58</course>
  <speed>1.1229425630903835</speed>
  <fix>3d</fix>
</trkpt>
<trkpt lat="40.0711161" lon="-105.2301004">
  <ele>1583.0</ele>
  <time>2026-08-29T19:30:00Z</time>
  <course>141.8</course>
  <speed>1.14</speed>
  <fix>3d</fix>
</trkpt>
<trkpt lat="40.0711142" lon="-105.2300983">
  <ele>1583.04</ele>
  <time>2026-08-29T19:30:00Z</time>
  <course>142.48</course>
  <speed>1.1370136322841515</speed>
  <fix>3d</fix>
</trkpt>
<trkpt lat="40.0711161" lon="-105.2301004">
  <ele>1583.0</ele>
  <time>2026-08-29T19:30:00Z</time>
  <course>141.8</course>
  <speed>1.14</speed>
  <fix>3d</fix>
</trkpt>
<trkpt lat="40.0711134" lon="-105.2300974">
  <ele>1583.05</ele>
  <time>2026-08-29T19:30:00Z</time>
  <course>142.38</course>
  <speed>1.1433722053644648</speed>
  <fix>3d</fix>
</trkpt>
<trkpt lat="40.0711144" lon="-105.2300987">
  <ele>1583.0</ele>
  <time>2026-08-29T19:30:00Z</time>
  <course>141.59</course>
  <speed>1.16</speed>
  <fix>3d</fix>
</trkpt>
<trkpt lat="40.0711126" lon="-105.2300966">
  <ele>1583.05</ele>
  <time>2026-08-29T19:30:00Z</time>
  <course>142.29</course>
  <speed>1.151086443322134</speed>
  <fix>3d</fix>
</trkpt>
<trkpt lat="40.0711144" lon="-105.2300987">
  <ele>1583.0</ele>
  <time>2026-08-29T19:30:00Z</time>
  <course>141.59</course>
  <speed>1.16</speed>
  <fix>3d</fix>
</trkpt>
<trkpt lat="40.0711118" lon="-105.2300957">
  <ele>1583.05</ele>
  <time>2026-08-29T19:30:00Z</time>
  <course>142.21</course>
  <speed>1.151086443322134</speed>
  <fix>3d</fix>
</trkpt>
<trkpt lat="40.0711127" lon="-105.230097">
  <ele>1583.0</ele>
  <time>2026-08-29T19:30:00Z</time>
  <course>141.4</course>
  <speed>1.17</speed>
  <fix>3d</fix>
</trkpt>
<trkpt lat="40.0711109" lon="-105.2300948">
  <ele>1583.05</ele>
  <time>2026-08-29T19:30:00Z</time>
  <course>142.14</course>
  <speed>1.1651609330903607</speed>
  <fix>3d</fix>
</trkpt>
<trkpt lat="40.0711127" lon="-105.230097">
  <ele>1583.0</ele>
  <time>2026-08-29T19:30:00Z</time>
  <course>141.4</course>
  <speed>1.17</speed>
  <fix>3d</fix>
</trkpt>
<trkpt lat="40.0711101" lon="-105.230094">
  <ele>1583.05</ele>
  <time>2026-08-29T19:30:00Z</time>
  <course>142.08</course>
  <speed>1.1651609330903607</speed>
  <fix>3d</fix>
</trkpt>
<trkpt lat="40.0711111" lon="-105.2300952">
  <ele>1583.0</ele>
  <time>2026-08-29T19:30:00Z</time>
  <course>141.24</course>
  <speed>1.19</speed>
  <fix>3d</fix>
</trkpt>
<trkpt lat="40.0711093" lon="-105.2300931">
  <ele>1583.05</ele>
  <time>2026-08-29T19:30:00Z</time>
  <course>142.02</course>
  <speed>1.1792370414806346</speed>
  <fix>3d</fix>
</trkpt>
<trkpt lat="40.0711111" lon="-105.2300952">
  <ele>1583.0</ele>
  <time>2026-08-29T19:30:00Z</time>
  <course>141.24</course>
  <speed>1.19</speed>
  <fix>3d</fix>
</trkpt>
<trkpt lat="40.0711084" lon="-105.2300922">
  <ele>1583.05</ele>
  <time>2026-08-29T19:30:00Z</time>
  <course>141.97</course>
  <speed>1.1792370414806346</speed>
  <fix>3d</fix>
</trkpt>
<trkpt lat="40.0711094" lon="-105.2300935">
  <ele>1583.0</ele>
  <time>2026-08-29T19:30:00Z</time>
  <course>141.12</course>
  <speed>1.2</speed>
  <fix>3d</fix>
</trkpt>
<trkpt lat="40.0711077" lon="-105.2300915">
  <ele>1583.05</ele>
  <time>2026-08-29T19:30:00Z</time>
  <course>141.93</course>
  <speed>1.1792370414806346</speed>
  <fix>3d</fix>
</trkpt>
<trkpt lat="40.0711094" lon="-105.2300935">
  <ele>1583.0</ele>
  <time>2026-08-29T19:30:00Z</time>
  <course>141.12</course>
  <speed>1.2</speed>
  <fix>3d</fix>
</trkpt>
<trkpt lat="40.0711069" lon="-105.2300906">
  <ele>1583.05</ele>
  <time>2026-08-29T19:30:00Z</time>
  <course>141.89</course>
  <speed>1.1869709347747317</speed>
  <fix>3d</fix>
</trkpt>
<trkpt lat="40.0711077" lon="-105.2300917">
  <ele>1583.0</ele>
  <time>2026-08-29T19:30:00Z</time>
  <course>141.02</course>
  <speed>1.22</speed>
  <fix>3d</fix>
</trkpt>
<trkpt lat="40.071106" lon="-105.2300897">
  <ele>1583.05</ele>
  <time>2026-08-29T19:30:00Z</time>
  <course>141.86</course>
  <speed>1.1933147112141038</speed>
  <fix>3d</fix>
</trkpt>
<trkpt lat="40.0711077" lon="-105.2300917">
  <ele>1583.0</ele>
  <time>2026-08-29T19:30:00Z</time>
  <course>141.02</course>
  <speed>1.22</speed>
  <fix>3d</fix>
</trkpt>
<trkpt lat="40.0711052" lon="-105.2300888">
  <ele>1583.05</ele>
  <time>2026-08-29T19:30:00Z</time>
  <course>141.82</course>
  <speed>1.2010412149464313</speed>
  <fix>3d</fix>
</trkpt>
<trkpt lat="40.071106" lon="-105.2300899">
  <ele>1583.0</ele>
  <time>2026-08-29T19:30:00Z</time>
  <course>140.94</course>
  <speed>1.23</speed>
  <fix>3d</fix>
</trkpt>
<trkpt lat="40.0711043" lon="-105.2300879">
  <ele>1583.05</ele>
  <time>2026-08-29T19:30:00Z</time>
  <course>141.8</course>
  <speed>1.2010412149464313</speed>
  <fix>3d</fix>
</trkpt>
<trkpt lat="40.071106" lon="-105.2300899">
  <ele>1583.0</ele>
  <time>2026-08-29T19:30:00Z</time>
  <course>140.94</course>
  <speed>1.23</speed>
  <fix>3d</fix>
</trkpt>
<trkpt lat="40.0711034" lon="-105.230087">
  <ele>1583.05</ele>
  <time>2026-08-29T19:30:00Z</time>
  <course>141.8</course>
  <speed>1.2088010589009262</speed>
  <fix>3d</fix>
</trkpt>
<trkpt lat="40.0711043" lon="-105.230088">
  <ele>1583.0</ele>
  <time>2026-08-29T19:30:00Z</time>
  <course>140.89</course>
  <speed>1.24</speed>
  <fix>3d</fix>
</trkpt>
<trkpt lat="40.0711026" lon="-105.2300861">
  <ele>1583.05</ele>
  <time>2026-08-29T19:30:00Z</time>
  <course>141.82</course>
  <speed>1.2151131634543344</speed>
  <fix>3d</fix>
</trkpt>
<trkpt lat="40.0711043" lon="-105.230088">
  <ele>1583.0</ele>
  <time>2026-08-29T19:30:00Z</time>
  <course>140.89</course>
  <speed>1.24</speed>
  <fix>3d</fix>
</trkpt>
<trkpt lat="40.0711017" lon="-105.2300852">
  <ele>1583.05</ele>
  <time>2026-08-29T19:30:00Z</time>
  <course>141.87</course>
  <speed>1.2151131634543344</speed>
  <fix>3d</fix>
</trkpt>
<trkpt lat="40.0711026" lon="-105.2300862">
  <ele>1583.0</ele>
  <time>2026-08-29T19:30:00Z</time>
  <course>140.91</course>
  <speed>1.25</speed>
  <fix>3d</fix>
</trkpt>
<trkpt lat="40.0711008" lon="-105.2300842">
  <ele>1583.04</ele>
  <time>2026-08-29T19:30:00Z</time>
  <course>141.95</course>
  <speed>1.2228654872879519</speed>
  <fix>3d</fix>
</trkpt>
<trkpt lat="40.0711026" lon="-105.2300862">
  <ele>1583.0</ele>
  <time>2026-08-29T19:30:00Z</time>
  <course>140.91</course>
  <speed>1.25</speed>
  <fix>3d</fix>
</trkpt>
<trkpt lat="40.0710999" lon="-105.2300833">
  <ele>1583.04</ele>
  <time>2026-08-29T19:30:00Z</time>
  <course>142.06</course>
  <speed>1.2165936051122412</speed>
  <fix>3d</fix>
</trkpt>
<trkpt lat="40.0711008" lon="-105.2300844">
  <ele>1583.0</ele>
  <time>2026-08-29T19:30:00Z</time>
  <course>141.05</course>
  <speed>1.25</speed>
  <fix>3d</fix>
</trkpt>
<trkpt lat="40.0710988" lon="-105.2300822">
  <ele>1583.04</ele>
  <time>2026-08-29T19:30:00Z</time>
  <course>142.24</course>
  <speed>1.2244182292011174</speed>
  <fix>3d</fix>
</trkpt>
<trkpt lat="40.0711008" lon="-105.2300844">
  <ele>1583.0</ele>
  <time>2026-08-29T19:30:00Z</time>
  <course>141.05</course>
  <speed>1.25</speed>
  <fix>3d</fix>
</trkpt>
<trkpt lat="40.0710979" lon="-105.2300813">
  <ele>1583.04</ele>
  <time>2026-08-29T19:30:00Z</time>
  <course>142.43</course>
  <speed>1.23227432010896</speed>
  <fix>3d</fix>
</trkpt>
<trkpt lat="40.0710991" lon="-105.2300825">
  <ele>1583.0</ele>
  <time>2026-08-29T19:30:00Z</time>
  <course>141.31</course>
  <speed>1.26</speed>
  <fix>3d</fix>
</trkpt>
<trkpt lat="40.071097" lon="-105.2300804">
  <ele>1583.04</ele>
  <time>2026-08-29T19:30:00Z</time>
  <course>142.64</course>
  <speed>1.23227432010896</speed>
  <fix>3d</fix>
</trkpt>
<trkpt lat="40.0710991" lon="-105.2300825">
  <ele>1583.0</ele>
  <time>2026-08-29T19:30:00Z</time>
  <course>141.31</course>
  <speed>1.26</speed>
  <fix>3d</fix>
</trkpt>
<trkpt lat="40.0710961" lon="-105.2300794">
  <ele>1583.04</ele>
  <time>2026-08-29T19:30:00Z</time>
  <course>142.87</course>
  <speed>1.226132129910965</speed>
  <fix>3d</fix>
</trkpt>
<trkpt lat="40.0710973" lon="-105.2300807">
  <ele>1583.0</ele>
  <time>2026-08-29T19:30:00Z</time>
  <course>141.69</course>
  <speed>1.26</speed>
  <fix>3d</fix>
</trkpt>
<trkpt lat="40.0710952" lon="-105.2300785">
  <ele>1583.04</ele>
  <time>2026-08-29T19:30:00Z</time>
  <course>143.13</course>
  <speed>1.2340583454602136</speed>
  <fix>3d</fix>
</trkpt>
<trkpt lat="40.0710973" lon="-105.2300807">
  <ele>1583.0</ele>
  <time>2026-08-29T19:30:00Z</time>
  <course>141.69</course>
  <speed>1.26</speed>
  <fix>3d</fix>
</trkpt>
<trkpt lat="40.0710943" lon="-105.2300776">
  <ele>1583.04</ele>
  <time>2026-08-29T19:30:00Z</time>
  <course>143.42</course>
  <speed>1.2280065146407002</speed>
  <fix>3d</fix>
</trkpt>
<trkpt lat="40.0710955" lon="-105.2300788">
  <ele>1583.0</ele>
  <time>2026-08-29T19:30:00Z</time>
  <course>142.18</course>
  <speed>1.26</speed>
  <fix>3d</fix>
</trkpt>
<trkpt lat="40.0710934" lon="-105.2300768">
  <ele>1583.04</ele>
  <time>2026-08-29T19:30:00Z</time>
  <course>143.73</course>
  <speed>1.2300406497347964</speed>
  <fix>3d</fix>
</trkpt>
<trkpt lat="40.0710955" lon="-105.2300788">
  <ele>1583.0</ele>
  <time>2026-08-29T19:30:00Z</time>
  <course>142.18</course>
  <speed>1.26</speed>
  <fix>3d</fix>
</trkpt>
<trkpt lat="40.0710925" lon="-105.2300759">
  <ele>1583.04</ele>
  <time>2026-08-29T19:30:00Z</time>
  <course>144.07</course>
  <speed>1.2300406497347964</speed>
  <fix>3d</fix>
</trkpt>
<trkpt lat="40.0710936" lon="-105.230077">
  <ele>1583.0</ele>
  <time>2026-08-29T19:30:00Z</time>
  <course>142.78</course>
  <speed>1.26</speed>
  <fix>3d</fix>
</trkpt>
<trkpt lat="40.0710916" lon="-105.230075">
  <ele>1583.04</ele>
  <time>2026-08-29T19:30:00Z</time>
  <course>144.41</course>
  <speed>1.22413234578619</speed>
  <fix>3d</fix>
</trkpt>
<trkpt lat="40.0710936" lon="-105.230077">
  <ele>1583.0</ele>
  <time>2026-08-29T19:30:00Z</time>
  <course>142.78</course>
  <speed>1.26</speed>
  <fix>3d</fix>
</trkpt>
<trkpt lat="40.0710907" lon="-105.2300741">
  <ele>1583.04</ele>
  <time>2026-08-29T19:30:00Z</time>
  <course>144.74</course>
  <speed>1.2182774724995944</speed>
  <fix>3d</fix>
</trkpt>
<trkpt lat="40.0710919" lon="-105.2300751">
  <ele>1583.0</ele>
  <time>2026-08-29T19:30:00Z</time>
  <course>143.44</course>
  <speed>1.26</speed>
  <fix>3d</fix>
</trkpt>
<trkpt lat="40.0710898" lon="-105.2300733">
  <ele>1583.05</ele>
  <time>2026-08-29T19:30:00Z</time>
  <course>145.06</course>
  <speed>1.2206555615733703</speed>
  <fix>3d</fix>
</trkpt>
<trkpt lat="40.0710919" lon="-105.2300751">
  <ele>1583.0</ele>
  <time>2026-08-29T19:30:00Z</time>
  <course>143.44</course>
  <speed>1.26</speed>
  <fix>3d</fix>
</trkpt>
<trkpt lat="40.071089" lon="-105.2300726">
  <ele>1583.05</ele>
  <time>2026-08-29T19:30:00Z</time>
  <course>145.3</course>
  <speed>1.2149485585818027</speed>
  <fix>3d</fix>
</trkpt>
<trkpt lat="40.07109" lon="-105.2300734">
  <ele>1583.0</ele>
  <time>2026-08-29T19:30:00Z</time>
  <course>144.09</course>
  <speed>1.25</speed>
  <fix>3d</fix>
</trkpt>
<trkpt lat="40.0710881" lon="-105.2300718">
  <ele>1583.05</ele>
  <time>2026-08-29T19:30:00Z</time>
  <course>145.61</course>
  <speed>1.2149485585818027</speed>
  <fix>3d</fix>
</trkpt>
<trkpt lat="40.07109" lon="-105.2300734">
  <ele>1583.0</ele>
  <time>2026-08-29T19:30:00Z</time>
  <course>144.09</course>
  <speed>1.25</speed>
  <fix>3d</fix>
</trkpt>
<trkpt lat="40.0710872" lon="-105.2300709">
  <ele>1583.06</ele>
  <time>2026-08-29T19:30:00Z</time>
  <course>145.9</course>
  <speed>1.209297316626478</speed>
  <fix>3d</fix>
</trkpt>
<trkpt lat="40.0710881" lon="-105.2300717">
  <ele>1583.0</ele>
  <time>2026-08-29T19:30:00Z</time>
  <course>144.71</course>
  <speed>1.25</speed>
  <fix>3d</fix>
</trkpt>
<trkpt lat="40.0710863" lon="-105.2300701">
  <ele>1583.06</ele>
  <time>2026-08-29T19:30:00Z</time>
  <course>146.18</course>
  <speed>1.2037026210821342</speed>
  <fix>3d</fix>
</trkpt>
<trkpt lat="40.0710881" lon="-105.2300717">
  <ele>1583.0</ele>
  <time>2026-08-29T19:30:00Z</time>
  <course>144.71</course>
  <speed>1.25</speed>
  <fix>3d</fix>
</trkpt>
<trkpt lat="40.0710853" lon="-105.2300693">
  <ele>1583.06</ele>
  <time>2026-08-29T19:30:00Z</time>
  <course>146.45</course>
  <speed>1.1981652640600127</speed>
  <fix>3d</fix>
</trkpt>
<trkpt lat="40.0710864" lon="-105.2300701">
  <ele>1583.0</ele>
  <time>2026-08-29T19:30:00Z</time>
  <course>145.29</course>
  <speed>1.24</speed>
  <fix>3d</fix>
</trkpt>
<trkpt lat="40.0710844" lon="-105.2300685">
  <ele>1583.06</ele>
  <time>2026-08-29T19:30:00Z</time>
  <course>146.72</course>
  <speed>1.1981652640600127</speed>
  <fix>3d</fix>
</trkpt>
<trkpt lat="40.0710864" lon="-105.2300701">
  <ele>1583.0</ele>
  <time>2026-08-29T19:30:00Z</time>
  <course>145.29</course>
  <speed>1.24</speed>
  <fix>3d</fix>
</trkpt>
<trkpt lat="40.0710835" lon="-105.2300677">
  <ele>1583.06</ele>
  <time>2026-08-29T19:30:00Z</time>
  <course>146.98</course>
  <speed>1.1926860441876563</speed>
  <fix>3d</fix>
</trkpt>
<trkpt lat="40.0710845" lon="-105.2300684">
  <ele>1583.0</ele>
  <time>2026-08-29T19:30:00Z</time>
  <course>145.84</course>
  <speed>1.23</speed>
  <fix>3d</fix>
</trkpt>
<trkpt lat="40.0710826" lon="-105.2300669">
  <ele>1583.07</ele>
  <time>2026-08-29T19:30:00Z</time>
  <course>147.25</course>
  <speed>1.1872657663724664</speed>
  <fix>3d</fix>
</trkpt>
<trkpt lat="40.0710845" lon="-105.2300684">
  <ele>1583.0</ele>
  <time>2026-08-29T19:30:00Z</time>
  <course>145.84</course>
  <speed>1.23</speed>
  <fix>3d</fix>
</trkpt>
<trkpt lat="40.0710816" lon="-105.2300661">
  <ele>1583.07</ele>
  <time>2026-08-29T19:30:00Z</time>
  <course>147.5</course>
  <speed>1.181905241548577</speed>
  <fix>3d</fix>
</trkpt>
<trkpt lat="40.0710827" lon="-105.2300668">
  <ele>1583.0</ele>
  <time>2026-08-29T19:30:00Z</time>
  <course>146.36</course>
  <speed>1.22</speed>
  <fix>3d</fix>
</trkpt>
<trkpt lat="40.0710807" lon="-105.2300653">
  <ele>1583.07</ele>
  <time>2026-08-29T19:30:00Z</time>
  <course>147.74</course>
  <speed>1.181905241548577</speed>
  <fix>3d</fix>
</trkpt>
<trkpt lat="40.0710827" lon="-105.2300668">
  <ele>1583.0</ele>
  <time>2026-08-29T19:30:00Z</time>
  <course>146.36</course>
  <speed>1.22</speed>
  <fix>3d</fix>
</trkpt>
<trkpt lat="40.0710796" lon="-105.2300644">
  <ele>1583.07</ele>
  <time>2026-08-29T19:30:00Z</time>
  <course>148.04</course>
  <speed>1.1766052864066183</speed>
  <fix>3d</fix>
</trkpt>
<trkpt lat="40.0710808" lon="-105.2300652">
  <ele>1583.0</ele>
  <time>2026-08-29T19:30:00Z</time>
  <course>146.87</course>
  <speed>1.22</speed>
  <fix>3d</fix>
</trkpt>
<trkpt lat="40.0710787" lon="-105.2300636">
  <ele>1583.08</ele>
  <time>2026-08-29T19:30:00Z</time>
  <course>148.23</course>
  <speed>1.1713667231059623</speed>
  <fix>3d</fix>
</trkpt>
<trkpt lat="40.0710808" lon="-105.2300652">
  <ele>1583.0</ele>
  <time>2026-08-29T19:30:00Z</time>
  <course>146.87</course>
  <speed>1.22</speed>
  <fix>3d</fix>
</trkpt>
<trkpt lat="40.0710777" lon="-105.2300628">
  <ele>1583.08</ele>
  <time>2026-08-29T19:30:00Z</time>
  <course>147.47</course>
  <speed>1.1734564329364767</speed>
  <fix>3d</fix>
</trkpt>
<trkpt lat="40.071079" lon="-105.2300636">
  <ele>1583.0</ele>
  <time>2026-08-29T19:30:00Z</time>
  <course>146.98</course>
  <speed>1.21</speed>
  <fix>3d</fix>
</trkpt>
<trkpt lat="40.0710768" lon="-105.230062">
  <ele>1583.08</ele>
  <time>2026-08-29T19:30:00Z</time>
  <course>145.56</course>
  <speed>1.1732433677630572</speed>
  <fix>3d</fix>
</trkpt>
<trkpt lat="40.071079" lon="-105.2300636">
  <ele>1583.0</ele>
  <time>2026-08-29T19:30:00Z</time>
  <course>146.98</course>
  <speed>1.21</speed>
  <fix>3d</fix>
</trkpt>
<trkpt lat="40.071076" lon="-105.2300612">
  <ele>1583.08</ele>
  <time>2026-08-29T19:30:00Z</time>
  <course>143.62</course>
  <speed>1.1741379816699569</speed>
  <fix>3d</fix>
</trkpt>
<trkpt lat="40.0710772" lon="-105.2300621">
  <ele>1583.0</ele>
  <time>2026-08-29T19:30:00Z</time>
  <course>144.97</course>
  <speed>1.2</speed>
  <fix>3d</fix>
</trkpt>
<trkpt lat="40.0710751" lon="-105.2300603">
  <ele>1583.08</ele>
  <time>2026-08-29T19:30:00Z</time>
  <course>142.06</course>
  <speed>1.1761377470347596</speed>
  <fix>3d</fix>
</trkpt>
<trkpt lat="40.0710772" lon="-105.2300621">
  <ele>1583.0</ele>
  <time>2026-08-29T19:30:00Z</time>
  <course>144.97</course>
  <speed>1.2</speed>
  <fix>3d</fix>
</trkpt>
<trkpt lat="40.0710743" lon="-105.2300594">
  <ele>1583.08</ele>
  <time>2026-08-29T19:30:00Z</time>
  <course>140.75</course>
  <speed>1.1729023829799308</speed>
  <fix>3d</fix>
</trkpt>
<trkpt lat="40.0710754" lon="-105.2300603">
  <ele>1583.0</ele>
  <time>2026-08-29T19:30:00Z</time>
  <course>141.6</course>
  <speed>1.2</speed>
  <fix>3d</fix>
</trkpt>
<trkpt lat="40.0710735" lon="-105.2300585">
  <ele>1583.08</ele>
  <time>2026-08-29T19:30:00Z</time>
  <course>139.65</course>
  <speed>1.1779643458101778</speed>
  <fix>3d</fix>
</trkpt>
<trkpt lat="40.0710754" lon="-105.2300603">
  <ele>1583.0</ele>
  <time>2026-08-29T19:30:00Z</time>
  <course>141.6</course>
  <speed>1.2</speed>
  <fix>3d</fix>
</trkpt>
<trkpt lat="40.0710726" lon="-105.2300575">
  <ele>1583.08</ele>
  <time>2026-08-29T19:30:00Z</time>
  <course>138.74</course>
  <speed>1.183427226321923</speed>
  <fix>3d</fix>
</trkpt>
<trkpt lat="40.0710737" lon="-105.2300585">
  <ele>1583.0</ele>
  <time>2026-08-29T19:30:00Z</time>
  <course>139.08</course>
  <speed>1.21</speed>
  <fix>3d</fix>
</trkpt>
<trkpt lat="40.0710718" lon="-105.2300566">
  <ele>1583.08</ele>
  <time>2026-08-29T19:30:00Z</time>
  <course>137.99</course>
  <speed>1.196703806294607</speed>
  <fix>3d</fix>
</trkpt>
<trkpt lat="40.0710737" lon="-105.2300585">
  <ele>1583.0</ele>
  <time>2026-08-29T19:30:00Z</time>
  <course>139.08</course>
  <speed>1.21</speed>
  <fix>3d</fix>
</trkpt>
<trkpt lat="40.071071" lon="-105.2300556">
  <ele>1583.08</ele>
  <time>2026-08-29T19:30:00Z</time>
  <course>137.35</course>
  <speed>1.2101652779682617</speed>
  <fix>3d</fix>
</trkpt>
<trkpt lat="40.0710721" lon="-105.2300566">
  <ele>1583.0</ele>
  <time>2026-08-29T19:30:00Z</time>
  <course>137.32</course>
  <speed>1.23</speed>
  <fix>3d</fix>
</trkpt>
<trkpt lat="40.0710704" lon="-105.2300548">
  <ele>1583.08</ele>
  <time>2026-08-29T19:30:00Z</time>
  <course>136.92</course>
  <speed>1.216963434126104</speed>
  <fix>3d</fix>
</trkpt>
<trkpt lat="40.0710721" lon="-105.2300566">
  <ele>1583.0</ele>
  <time>2026-08-29T19:30:00Z</time>
  <course>137.32</course>
  <speed>1.23</speed>
  <fix>3d</fix>
</trkpt>
<trkpt lat="40.0710696" lon="-105.2300537">
  <ele>1583.07</ele>
  <time>2026-08-29T19:30:00Z</time>
  <course>136.48</course>
  <speed>1.230690862889621</speed>
  <fix>3d</fix>
</trkpt>
<trkpt lat="40.0710705" lon="-105.2300546">
  <ele>1583.0</ele>
  <time>2026-08-29T19:30:00Z</time>
  <course>136.11</course>
  <speed>1.25</speed>
  <fix>3d</fix>
</trkpt>
<trkpt lat="40.0710688" lon="-105.2300527">
  <ele>1583.07</ele>
  <time>2026-08-29T19:30:00Z</time>
  <course>136.1</course>
  <speed>1.2376186811776881</speed>
  <fix>3d</fix>
</trkpt>
<trkpt lat="40.0710705" lon="-105.2300546">
  <ele>1583.0</ele>
  <time>2026-08-29T19:30:00Z</time>
  <course>136.11</course>
  <speed>1.25</speed>
  <fix>3d</fix>
</trkpt>
<trkpt lat="40.0710679" lon="-105.2300516">
  <ele>1583.07</ele>
  <time>2026-08-29T19:30:00Z</time>
  <course>135.79</course>
  <speed>1.258729518204765</speed>
  <fix>3d</fix>
</trkpt>
<trkpt lat="40.0710689" lon="-105.2300525">
  <ele>1583.0</ele>
  <time>2026-08-29T19:30:00Z</time>
  <course>135.27</course>
  <speed>1.28</speed>
  <fix>3d</fix>
</trkpt>
<trkpt lat="40.0710671" lon="-105.2300505">
  <ele>1583.07</ele>
  <time>2026-08-29T19:30:00Z</time>
  <course>135.53</course>
  <speed>1.2728707711311467</speed>
  <fix>3d</fix>
</trkpt>
<trkpt lat="40.0710689" lon="-105.2300525">
  <ele>1583.0</ele>
  <time>2026-08-29T19:30:00Z</time>
  <course>135.27</course>
  <speed>1.28</speed>
  <fix>3d</fix>
</trkpt>
<trkpt lat="40.0710663" lon="-105.2300494">
  <ele>1583.07</ele>
  <time>2026-08-29T19:30:00Z</time>
  <course>135.31</course>
  <speed>1.2869343417595163</speed>
  <fix>3d</fix>
</trkpt>
<trkpt lat="40.0710672" lon="-105.2300504">
  <ele>1583.0</ele>
  <time>2026-08-29T19:30:00Z</time>
  <course>134.69</course>
  <speed>1.3</speed>
  <fix>3d</fix>
</trkpt>
<trkpt lat="40.0710654" lon="-105.2300483">
  <ele>1583.08</ele>
  <time>2026-08-29T19:30:00Z</time>
  <course>135.13</course>
  <speed>1.3010764773832475</speed>
  <fix>3d</fix>
</trkpt>
<trkpt lat="40.0710672" lon="-105.2300504">
  <ele>1583.0</ele>
  <time>2026-08-29T19:30:00Z</time>
  <course>134.69</course>
  <speed>1.3</speed>
  <fix>3d</fix>
</trkpt>
<trkpt lat="40.0710646" lon="-105.2300471">
  <ele>1583.07</ele>
  <time>2026-08-29T19:30:00Z</time>
  <course>134.98</course>
  <speed>1.3152186130069785</speed>
  <fix>3d</fix>
</trkpt>
<trkpt lat="40.0710656" lon="-105.2300482">
  <ele>1583.0</ele>
  <time>2026-08-29T19:30:00Z</time>
  <course>134.3</course>
  <speed>1.33</speed>
  <fix>3d</fix>
</trkpt>
<trkpt lat="40.0710637" lon="-105.230046">
  <ele>1583.08</ele>
  <time>2026-08-29T19:30:00Z</time>
  <course>134.86</course>
  <speed>1.3293607486307093</speed>
  <fix>3d</fix>
</trkpt>
<trkpt lat="40.0710656" lon="-105.2300482">
  <ele>1583.0</ele>
  <time>2026-08-29T19:30:00Z</time>
  <course>134.3</course>
  <speed>1.33</speed>
  <fix>3d</fix>
</trkpt>
<trkpt lat="40.0710627" lon="-105.2300446">
  <ele>1583.07</ele>
  <time>2026-08-29T19:30:00Z</time>
  <course>134.74</course>
  <speed>1.3435773144854748</speed>
  <fix>3d</fix>
</trkpt>
<trkpt lat="40.0710639" lon="-105.2300459">
  <ele>1583.0</ele>
  <time>2026-08-29T19:30:00Z</time>
  <course>134.02</course>
  <speed>1.36</speed>
  <fix>3d</fix>
</trkpt>
<trkpt lat="40.0710618" lon="-105.2300434">
  <ele>1583.07</ele>
  <time>2026-08-29T19:30:00Z</time>
  <course>134.66</course>
  <speed>1.3577186748365804</speed>
  <fix>3d</fix>
</trkpt>
<trkpt lat="40.0710639" lon="-105.2300459">
  <ele>1583.0</ele>
  <time>2026-08-29T19:30:00Z</time>
  <course>134.02</course>
  <speed>1.36</speed>
  <fix>3d</fix>
</trkpt>
<trkpt lat="40.0710609" lon="-105.2300422">
  <ele>1583.07</ele>
  <time>2026-08-29T19:30:00Z</time>
  <course>134.6</course>
  <speed>1.364734406395618</speed>
  <fix>3d</fix>
</trkpt>
<trkpt lat="40.0710621" lon="-105.2300436">
  <ele>1583.0</ele>
  <time>2026-08-29T19:30:00Z</time>
  <course>133.84</course>
  <speed>1.38</speed>
  <fix>3d</fix>
</trkpt>
<trkpt lat="40.0710601" lon="-105.230041">
  <ele>1583.06</ele>
  <time>2026-08-29T19:30:00Z</time>
  <course>134.54</course>
  <speed>1.3718600511714012</speed>
  <fix>3d</fix>
</trkpt>
<trkpt lat="40.0710621" lon="-105.2300436">
  <ele>1583.0</ele>
  <time>2026-08-29T19:30:00Z</time>
  <course>133.84</course>
  <speed>1.38</speed>
  <fix>3d</fix>
</trkpt>
<trkpt lat="40.0710592" lon="-105.2300398">
  <ele>1583.06</ele>
  <time>2026-08-29T19:30:00Z</time>
  <course>134.5</course>
  <speed>1.386001443000692</speed>
  <fix>3d</fix>
</trkpt>
<trkpt lat="40.0710604" lon="-105.2300412">
  <ele>1583.0</ele>
  <time>2026-08-29T19:30:00Z</time>
  <course>133.72</course>
  <speed>1.4</speed>
  <fix>3d</fix>
</trkpt>
<trkpt lat="40.0710583" lon="-105.2300385">
  <ele>1583.06</ele>
  <time>2026-08-29T19:30:00Z</time>
  <course>134.46</course>
  <speed>1.400142849854971</speed>
  <fix>3d</fix>
</trkpt>
<trkpt lat="40.0710604" lon="-105.2300412">
  <ele>1583.0</ele>
  <time>2026-08-29T19:30:00Z</time>
  <course>133.72</course>
  <speed>1.4</speed>
  <fix>3d</fix>
</trkpt>
<trkpt lat="40.0710574" lon="-105.2300373">
  <ele>1583.05</ele>
  <time>2026-08-29T19:30:00Z</time>
  <course>134.44</course>
  <speed>1.400142849854971</speed>
  <fix>3d</fix>
</trkpt>
<trkpt lat="40.0710586" lon="-105.2300388">
  <ele>1583.0</ele>
  <time>2026-08-29T19:30:00Z</time>
  <course>133.64</course>
  <speed>1.42</speed>
  <fix>3d</fix>
</trkpt>
<trkpt lat="40.0710565" lon="-105.2300361">
  <ele>1583.05</ele>
  <time>2026-08-29T19:30:00Z</time>
  <course>134.42</course>
  <speed>1.4142842712835353</speed>
  <fix>3d</fix>
</trkpt>
<trkpt lat="40.0710586" lon="-105.2300388">
  <ele>1583.0</ele>
  <time>2026-08-29T19:30:00Z</time>
  <course>133.64</course>
  <speed>1.42</speed>
  <fix>3d</fix>
</trkpt>
<trkpt lat="40.0710556" lon="-105.2300349">
  <ele>1583.04</ele>
  <time>2026-08-29T19:30:00Z</time>
  <course>134.4</course>
  <speed>1.421442928857856</speed>
  <fix>3d</fix>
</trkpt>
<trkpt lat="40.0710569" lon="-105.2300363">
  <ele>1583.0</ele>
  <time>2026-08-29T19:30:00Z</time>
  <course>133.58</course>
  <speed>1.44</speed>
  <fix>3d</fix>
</trkpt>
<trkpt lat="40.0710547" lon="-105.2300336">
  <ele>1583.04</ele>
  <time>2026-08-29T19:30:00Z</time>
  <course>134.38</course>
  <speed>1.4284257068535278</speed>
  <fix>3d</fix>
</trkpt>
<trkpt lat="40.0710569" lon="-105.2300363">
  <ele>1583.0</ele>
  <time>2026-08-29T19:30:00Z</time>
  <course>133.58</course>
  <speed>1.44</speed>
  <fix>3d</fix>
</trkpt>
<trkpt lat="40.0710538" lon="-105.2300324">
  <ele>1583.04</ele>
  <time>2026-08-29T19:30:00Z</time>
  <course>134.37</course>
  <speed>1.4284257068535278</speed>
  <fix>3d</fix>
</trkpt>
<trkpt lat="40.071055" lon="-105.2300339">
  <ele>1583.0</ele>
  <time>2026-08-29T19:30:00Z</time>
  <course>133.55</course>
  <speed>1.45</speed>
  <fix>3d</fix>
</trkpt>
<trkpt lat="40.0710531" lon="-105.2300314">
  <ele>1583.03</ele>
  <time>2026-08-29T19:30:00Z</time>
  <course>134.36</course>
  <speed>1.4355835050598764</speed>
  <fix>3d</fix>
</trkpt>
<trkpt lat="40.071055" lon="-105.2300339">
  <ele>1583.0</ele>
  <time>2026-08-29T19:30:00Z</time>
  <course>133.55</course>
  <speed>1.45</speed>
  <fix>3d</fix>
</trkpt>
<trkpt lat="40.0710522" lon="-105.2300302">
  <ele>1583.03</ele>
  <time>2026-08-29T19:30:00Z</time>
  <course>134.36</course>
  <speed>1.4425671561490647</speed>
  <fix>3d</fix>
</trkpt>
<trkpt lat="40.0710533" lon="-105.2300314">
  <ele>1583.0</ele>
  <time>2026-08-29T19:30:00Z</time>
  <course>133.53</course>
  <speed>1.46</speed>
  <fix>3d</fix>
</trkpt>
<trkpt lat="40.0710512" lon="-105.2300289">
  <ele>1583.03</ele>
  <time>2026-08-29T19:30:00Z</time>
  <course>134.36</course>
  <speed>1.4425671561490647</speed>
  <fix>3d</fix>
</trkpt>
<trkpt lat="40.0710533" lon="-105.2300314">
  <ele>1583.0</ele>
  <time>2026-08-29T19:30:00Z</time>
  <course>133.53</course>
  <speed>1.46</speed>
  <fix>3d</fix>
</trkpt>
<trkpt lat="40.0710503" lon="-105.2300276">
  <ele>1583.02</ele>
  <time>2026-08-29T19:30:00Z</time>
  <course>134.36</course>
  <speed>1.4497241116847024</speed>
  <fix>3d</fix>
</trkpt>
<trkpt lat="40.0710514" lon="-105.2300289">
  <ele>1583.0</ele>
  <time>2026-08-29T19:30:00Z</time>
  <course>133.53</course>
  <speed>1.47</speed>
  <fix>3d</fix>
</trkpt>
<trkpt lat="40.0710494" lon="-105.2300264">
  <ele>1583.02</ele>
  <time>2026-08-29T19:30:00Z</time>
  <course>134.36</course>
  <speed>1.4497241116847024</speed>
  <fix>3d</fix>
</trkpt>
<trkpt lat="40.0710514" lon="-105.2300289">
  <ele>1583.0</ele>
  <time>2026-08-29T19:30:00Z</time>
  <course>133.53</course>
  <speed>1.47</speed>
  <fix>3d</fix>
</trkpt>
<trkpt lat="40.0710485" lon="-105.2300251">
  <ele>1583.02</ele>
  <time>2026-08-29T19:30:00Z</time>
  <course>134.36</course>
  <speed>1.4567086187704115</speed>
  <fix>3d</fix>
</trkpt>
<trkpt lat="40.0710496" lon="-105.2300263">
  <ele>1583.0</ele>
  <time>2026-08-29T19:30:00Z</time>
  <course>133.52</course>
  <speed>1.48</speed>
  <fix>3d</fix>
</trkpt>
<trkpt lat="40.0710476" lon="-105.2300238">
  <ele>1583.02</ele>
  <time>2026-08-29T19:30:00Z</time>
  <course>134.36</course>
  <speed>1.4638647478507023</speed>
  <fix>3d</fix>
</trkpt>
<trkpt lat="40.0710496" lon="-105.2300263">
  <ele>1583.0</ele>
  <time>2026-08-29T19:30:00Z</time>
  <course>133.52</course>
  <speed>1.48</speed>
  <fix>3d</fix>
</trkpt>
<trkpt lat="40.0710466" lon="-105.2300225">
  <ele>1583.02</ele>
  <time>2026-08-29T19:30:00Z</time>
  <course>134.35</course>
  <speed>1.4638647478507023</speed>
  <fix>3d</fix>
</trkpt>
<trkpt lat="40.0710478" lon="-105.2300238">
  <ele>1583.0</ele>
  <time>2026-08-29T19:30:00Z</time>
  <course>133.52</course>
  <speed>1.49</speed>
  <fix>3d</fix>
</trkpt>
<trkpt lat="40.0710457" lon="-105.2300212">
  <ele>1583.02</ele>
  <time>2026-08-29T19:30:00Z</time>
  <course>134.35</course>
  <speed>1.4638647478507023</speed>
  <fix>3d</fix>
</trkpt>
<trkpt lat="40.0710478" lon="-105.2300238">
  <ele>1583.0</ele>
  <time>2026-08-29T19:30:00Z</time>
  <course>133.52</course>
  <speed>1.49</speed>
  <fix>3d</fix>
</trkpt>
<trkpt lat="40.0710448" lon="-105.23002">
  <ele>1583.02</ele>
  <time>2026-08-29T19:30:00Z</time>
  <course>134.35</course>
  <speed>1.4708500943332057</speed>
  <fix>3d</fix>
</trkpt>
<trkpt lat="40.0710459" lon="-105.2300213">
  <ele>1583.0</ele>
  <time>2026-08-29T19:30:00Z</time>
  <course>133.52</course>
  <speed>1.49</speed>
  <fix>3d</fix>
</trkpt>
<trkpt lat="40.0710436" lon="-105.2300184">
  <ele>1583.01</ele>
  <time>2026-08-29T19:30:00Z</time>
  <course>134.35</course>
  <speed>1.4780054127099804</speed>
  <fix>3d</fix>
</trkpt>
<trkpt lat="40.0710459" lon="-105.2300213">
  <ele>1583.0</ele>
  <time>2026-08-29T19:30:00Z</time>
  <course>133.52</course>
  <speed>1.49</speed>
  <fix>3d</fix>
</trkpt>
<trkpt lat="40.0710427" lon="-105.2300171">
  <ele>1583.01</ele>
  <time>2026-08-29T19:30:00Z</time>
  <course>134.35</course>
  <speed>1.4780054127099804</speed>
  <fix>3d</fix>
</trkpt>
<trkpt lat="40.071044" lon="-105.2300187">
  <ele>1583.0</ele>
  <time>2026-08-29T19:30:00Z</time>
  <course>133.52</course>
  <speed>1.5</speed>
  <fix>3d</fix>
</trkpt>
<trkpt lat="40.0710417" lon="-105.2300158">
  <ele>1583.01</ele>
  <time>2026-08-29T19:30:00Z</time>
  <course>134.35</course>
  <speed>1.4780054127099804</speed>
  <fix>3d</fix>
</trkpt>
<trkpt lat="40.071044" lon="-105.2300187">
  <ele>1583.0</ele>
  <time>2026-08-29T19:30:00Z</time>
  <course>133.52</course>
  <speed>1.5</speed>
  <fix>3d</fix>
</trkpt>
<trkpt lat="40.0710408" lon="-105.2300145">
  <ele>1583.01</ele>
  <time>2026-08-29T19:30:00Z</time>
  <course>134.35</course>
  <speed>1.4780054127099804</speed>
  <fix>3d</fix>
</trkpt>
<trkpt lat="40.0710422" lon="-105.2300162">
  <ele>1583.0</ele>
  <time>2026-08-29T19:30:00Z</time>
  <course>133.52</course>
  <speed>1.5</speed>
  <fix>3d</fix>
</trkpt>
<trkpt lat="40.0710399" lon="-105.2300132">
  <ele>1583.02</ele>
  <time>2026-08-29T19:30:00Z</time>
  <course>134.35</course>
  <speed>1.4780054127099804</speed>
  <fix>3d</fix>
</trkpt>
<trkpt lat="40.0710422" lon="-105.2300162">
  <ele>1583.0</ele>
  <time>2026-08-29T19:30:00Z</time>
  <course>133.52</course>
  <speed>1.5</speed>
  <fix>3d</fix>
</trkpt>
<trkpt lat="40.0710389" lon="-105.230012">
  <ele>1583.02</ele>
  <time>2026-08-29T19:30:00Z</time>
  <course>134.35</course>
  <speed>1.4849915824677256</speed>
  <fix>3d</fix>
</trkpt>
<trkpt lat="40.0710403" lon="-105.2300136">
  <ele>1583.0</ele>
  <time>2026-08-29T19:30:00Z</time>
  <course>133.52</course>
  <speed>1.51</speed>
  <fix>3d</fix>
</trkpt>
<trkpt lat="40.071038" lon="-105.2300107">
  <ele>1583.01</ele>
  <time>2026-08-29T19:30:00Z</time>
  <course>134.35</course>
  <speed>1.4849915824677256</speed>
  <fix>3d</fix>
</trkpt>
<trkpt lat="40.0710403" lon="-105.2300136">
  <ele>1583.0</ele>
  <time>2026-08-29T19:30:00Z</time>
  <course>133.52</course>
  <speed>1.51</speed>
  <fix>3d</fix>
</trkpt>
<trkpt lat="40.0710371" lon="-105.2300094">
  <ele>1583.01</ele>
  <time>2026-08-29T19:30:00Z</time>
  <course>134.35</course>
  <speed>1.4849915824677256</speed>
  <fix>3d</fix>
</trkpt>
<trkpt lat="40.0710385" lon="-105.230011">
  <ele>1583.0</ele>
  <time>2026-08-29T19:30:00Z</time>
  <course>133.52</course>
  <speed>1.51</speed>
  <fix>3d</fix>
</trkpt>
<trkpt lat="40.0710361" lon="-105.2300081">
  <ele>1583.02</ele>
  <time>2026-08-29T19:30:00Z</time>
  <course>134.35</course>
  <speed>1.4849915824677256</speed>
  <fix>3d</fix>
</trkpt>
<trkpt lat="40.0710385" lon="-105.230011">
  <ele>1583.0</ele>
  <time>2026-08-29T19:30:00Z</time>
  <course>133.52</course>
  <speed>1.51</speed>
  <fix>3d</fix>
</trkpt>
<trkpt lat="40.0710352" lon="-105.2300068">
  <ele>1583.02</ele>
  <time>2026-08-29T19:30:00Z</time>
  <course>134.35</course>
  <speed>1.4849915824677256</speed>
  <fix>3d</fix>
</trkpt>
<trkpt lat="40.0710366" lon="-105.2300085">
  <ele>1583.0</ele>
  <time>2026-08-29T19:30:00Z</time>
  <course>133.52</course>
  <speed>1.51</speed>
  <fix>3d</fix>
</trkpt>
<trkpt lat="40.0710343" lon="-105.2300056">
  <ele>1583.02</ele>
  <time>2026-08-29T19:30:00Z</time>
  <course>134.35</course>
  <speed>1.4849915824677256</speed>
  <fix>3d</fix>
</trkpt>
<trkpt lat="40.0710366" lon="-105.2300085">
  <ele>1583.0</ele>
  <time>2026-08-29T19:30:00Z</time>
  <course>133.52</course>
  <speed>1.51</speed>
  <fix>3d</fix>
</trkpt>
<trkpt lat="40.0710335" lon="-105.2300045">
  <ele>1583.02</ele>
  <time>2026-08-29T19:30:00Z</time>
  <course>134.35</course>
  <speed>1.4849915824677256</speed>
  <fix>3d</fix>
</trkpt>
<trkpt lat="40.0710347" lon="-105.2300059">
  <ele>1583.0</ele>
  <time>2026-08-29T19:30:00Z</time>
  <course>133.52</course>
  <speed>1.51</speed>
  <fix>3d</fix>
</trkpt>
<trkpt lat="40.0710326" lon="-105.2300032">
  <ele>1583.02</ele>
  <time>2026-08-29T19:30:00Z</time>
  <course>134.34</course>
  <speed>1.4849915824677256</speed>
  <fix>3d</fix>
</trkpt>
<trkpt lat="40.0710347" lon="-105.2300059">
  <ele>1583.0</ele>
  <time>2026-08-29T19:30:00Z</time>
  <course>133.52</course>
  <speed>1.51</speed>
  <fix>3d</fix>
</trkpt>
<trkpt lat="40.0710317" lon="-105.230002">
  <ele>1583.03</ele>
  <time>2026-08-29T19:30:00Z</time>
  <course>134.34</course>
  <speed>1.4849915824677256</speed>
  <fix>3d</fix>
</trkpt>
<trkpt lat="40.0710328" lon="-105.2300032">
  <ele>1583.0</ele>
  <time>2026-08-29T19:30:00Z</time>
  <course>133.52</course>
  <speed>1.51</speed>
  <fix>3d</fix>
</trkpt>
<trkpt lat="40.0710307" lon="-105.2300007">
  <ele>1583.03</ele>
  <time>2026-08-29T19:30:00Z</time>
  <course>134.34</course>
  <speed>1.4921461054467824</speed>
  <fix>3d</fix>
</trkpt>
<trkpt lat="40.0710328" lon="-105.2300032">
  <ele>1583.0</ele>
  <time>2026-08-29T19:30:00Z</time>
  <course>133.52</course>
  <speed>1.51</speed>
  <fix>3d</fix>
</trkpt>
<trkpt lat="40.0710298" lon="-105.2299994">
  <ele>1583.03</ele>
  <time>2026-08-29T19:30:00Z</time>
  <course>134.34</course>
  <speed>1.4921461054467824</speed>
  <fix>3d</fix>
</trkpt>
<trkpt lat="40.0710309" lon="-105.2300007">
  <ele>1583.0</ele>
  <time>2026-08-29T19:30:00Z</time>
  <course>133.52</course>
  <speed>1.51</speed>
  <fix>3d</fix>
</trkpt>
<trkpt lat="40.0710288" lon="-105.2299981">
  <ele>1583.03</ele>
  <time>2026-08-29T19:30:00Z</time>
  <course>134.34</course>
  <speed>1.4921461054467824</speed>
  <fix>3d</fix>
</trkpt>
<trkpt lat="40.0710309" lon="-105.2300007">
  <ele>1583.0</ele>
  <time>2026-08-29T19:30:00Z</time>
  <course>133.52</course>
  <speed>1.51</speed>
  <fix>3d</fix>
</trkpt>
<trkpt lat="40.0710279" lon="-105.2299968">
  <ele>1583.03</ele>
  <time>2026-08-29T19:30:00Z</time>
  <course>134.34</course>
  <speed>1.4921461054467824</speed>
  <fix>3d</fix>
</trkpt>
<trkpt lat="40.0710291" lon="-105.2299981">
  <ele>1583.0</ele>
  <time>2026-08-29T19:30:00Z</time>
  <course>133.52</course>
  <speed>1.52</speed>
  <fix>3d</fix>
</trkpt>
<trkpt lat="40.0710269" lon="-105.2299955">
  <ele>1583.03</ele>
  <time>2026-08-29T19:30:00Z</time>
  <course>134.34</course>
  <speed>1.4921461054467824</speed>
  <fix>3d</fix>
</trkpt>
<trkpt lat="40.0710291" lon="-105.2299981">
  <ele>1583.0</ele>
  <time>2026-08-29T19:30:00Z</time>
  <course>133.52</course>
  <speed>1.52</speed>
  <fix>3d</fix>
</trkpt>
<trkpt lat="40.071026" lon="-105.2299942">
  <ele>1583.03</ele>
  <time>2026-08-29T19:30:00Z</time>
  <course>134.34</course>
  <speed>1.4921461054467824</speed>
  <fix>3d</fix>
</trkpt>
<trkpt lat="40.0710272" lon="-105.2299956">
  <ele>1583.0</ele>
  <time>2026-08-29T19:30:00Z</time>
  <course>133.52</course>
  <speed>1.52</speed>
  <fix>3d</fix>
</trkpt>
<trkpt lat="40.071025" lon="-105.2299928">
  <ele>1583.04</ele>
  <time>2026-08-29T19:30:00Z</time>
  <course>134.34</course>
  <speed>1.4921461054467824</speed>
  <fix>3d</fix>
</trkpt>
<trkpt lat="40.0710272" lon="-105.2299956">
  <ele>1583.0</ele>
  <time>2026-08-29T19:30:00Z</time>
  <course>133.52</course>
  <speed>1.52</speed>
  <fix>3d</fix>
</trkpt>
<trkpt lat="40.0710239" lon="-105.2299913">
  <ele>1583.04</ele>
  <time>2026-08-29T19:30:00Z</time>
  <course>134.34</course>
  <speed>1.4921461054467824</speed>
  <fix>3d</fix>
</trkpt>
<trkpt lat="40.0710253" lon="-105.229993">
  <ele>1583.0</ele>
  <time>2026-08-29T19:30:00Z</time>
  <course>133.52</course>
  <speed>1.52</speed>
  <fix>3d</fix>
</trkpt>
<trkpt lat="40.071023" lon="-105.22999">
  <ele>1583.04</ele>
  <time>2026-08-29T19:30:00Z</time>
  <course>134.34</course>
  <speed>1.4921461054467824</speed>
  <fix>3d</fix>
</trkpt>
<trkpt lat="40.0710253" lon="-105.229993">
  <ele>1583.0</ele>
  <time>2026-08-29T19:30:00Z</time>
  <course>133.52</course>
  <speed>1.52</speed>
  <fix>3d</fix>
</trkpt>
<trkpt lat="40.071022" lon="-105.2299887">
  <ele>1583.04</ele>
  <time>2026-08-29T19:30:00Z</time>
  <course>134.34</course>
  <speed>1.4921461054467824</speed>
  <fix>3d</fix>
</trkpt>
<trkpt lat="40.0710234" lon="-105.2299903">
  <ele>1583.0</ele>
  <time>2026-08-29T19:30:00Z</time>
  <course>133.52</course>
  <speed>1.52</speed>
  <fix>3d</fix>
</trkpt>
<trkpt lat="40.0710211" lon="-105.2299874">
  <ele>1583.03</ele>
  <time>2026-08-29T19:30:00Z</time>
  <course>135.08</course>
  <speed>1.4990663761154805</speed>
  <fix>3d</fix>
</trkpt>
<trkpt lat="40.0710234" lon="-105.2299903">
  <ele>1583.0</ele>
  <time>2026-08-29T19:30:00Z</time>
  <course>133.52</course>
  <speed>1.52</speed>
  <fix>3d</fix>
</trkpt>
<trkpt lat="40.0710201" lon="-105.2299861">
  <ele>1583.03</ele>
  <time>2026-08-29T19:30:00Z</time>
  <course>136.99</course>
  <speed>1.4928161306738348</speed>
  <fix>3d</fix>
</trkpt>
<trkpt lat="40.0710215" lon="-105.2299878">
  <ele>1583.0</ele>
  <time>2026-08-29T19:30:00Z</time>
  <course>134.63</course>
  <speed>1.52</speed>
  <fix>3d</fix>
</trkpt>
<trkpt lat="40.0710191" lon="-105.2299849">
  <ele>1583.03</ele>
  <time>2026-08-29T19:30:00Z</time>
  <course>140.0</course>
  <speed>1.4903690818049065</speed>
  <fix>3d</fix>
</trkpt>
<trkpt lat="40.0710215" lon="-105.2299878">
  <ele>1583.0</ele>
  <time>2026-08-29T19:30:00Z</time>
  <course>134.63</course>
  <speed>1.52</speed>
  <fix>3d</fix>
</trkpt>
<trkpt lat="40.071018" lon="-105.2299839">
  <ele>1583.03</ele>
  <time>2026-08-29T19:30:00Z</time>
  <course>144.11</course>
  <speed>1.4763468427168462</speed>
  <fix>3d</fix>
</trkpt>
<trkpt lat="40.0710195" lon="-105.2299853">
  <ele>1583.0</ele>
  <time>2026-08-29T19:30:00Z</time>
  <course>139.08</course>
  <speed>1.51</speed>
  <fix>3d</fix>
</trkpt>
<trkpt lat="40.0710169" lon="-105.2299829">
  <ele>1583.03</ele>
  <time>2026-08-29T19:30:00Z</time>
  <course>149.31</course>
  <speed>1.4612323566086263</speed>
  <fix>3d</fix>
</trkpt>
<trkpt lat="40.0710195" lon="-105.2299853">
  <ele>1583.0</ele>
  <time>2026-08-29T19:30:00Z</time>
  <course>139.08</course>
  <speed>1.51</speed>
  <fix>3d</fix>
</trkpt>
<trkpt lat="40.0710158" lon="-105.2299821">
  <ele>1583.03</ele>
  <time>2026-08-29T19:30:00Z</time>
  <course>154.84</course>
  <speed>1.4317821063276353</speed>
  <fix>3d</fix>
</trkpt>
<trkpt lat="40.0710174" lon="-105.2299832">
  <ele>1583.0</ele>
  <time>2026-08-29T19:30:00Z</time>
  <course>147.66</course>
  <speed>1.48</speed>
  <fix>3d</fix>
</trkpt>
<trkpt lat="40.0710146" lon="-105.2299815">
  <ele>1583.03</ele>
  <time>2026-08-29T19:30:00Z</time>
  <course>160.33</course>
  <speed>1.3945967159003352</speed>
  <fix>3d</fix>
</trkpt>
<trkpt lat="40.0710174" lon="-105.2299832">
  <ele>1583.0</ele>
  <time>2026-08-29T19:30:00Z</time>
  <course>147.66</course>
  <speed>1.48</speed>
  <fix>3d</fix>
</trkpt>
<trkpt lat="40.0710134" lon="-105.229981">
  <ele>1583.03</ele>
  <time>2026-08-29T19:30:00Z</time>
  <course>165.83</course>
  <speed>1.3461797799699713</speed>
  <fix>3d</fix>
</trkpt>
<trkpt lat="40.071015" lon="-105.2299817">
  <ele>1583.0</ele>
  <time>2026-08-29T19:30:00Z</time>
  <course>158.34</course>
  <speed>1.42</speed>
  <fix>3d</fix>
</trkpt>
<trkpt lat="40.0710124" lon="-105.2299808">
  <ele>1583.03</ele>
  <time>2026-08-29T19:30:00Z</time>
  <course>170.28</course>
  <speed>1.3054118124178284</speed>
  <fix>3d</fix>
</trkpt>
<trkpt lat="40.071015" lon="-105.2299817">
  <ele>1583.0</ele>
  <time>2026-08-29T19:30:00Z</time>
  <course>158.34</course>
  <speed>1.42</speed>
  <fix>3d</fix>
</trkpt>
<trkpt lat="40.0710113" lon="-105.2299806">
  <ele>1583.03</ele>
  <time>2026-08-29T19:30:00Z</time>
  <course>175.79</course>
  <speed>1.251439171514141</speed>
  <fix>3d</fix>
</trkpt>
<trkpt lat="40.0710127" lon="-105.2299807">
  <ele>1583.0</ele>
  <time>2026-08-29T19:30:00Z</time>
  <course>169.27</course>
  <speed>1.33</speed>
  <fix>3d</fix>
</trkpt>
<trkpt lat="40.0710102" lon="-105.2299806">
  <ele>1583.03</ele>
  <time>2026-08-29T19:30:00Z</time>
  <course>181.29</course>
  <speed>1.1910499569707393</speed>
  <fix>3d</fix>
</trkpt>
<trkpt lat="40.0710127" lon="-105.2299807">
  <ele>1583.0</ele>
  <time>2026-08-29T19:30:00Z</time>
  <course>169.27</course>
  <speed>1.33</speed>
  <fix>3d</fix>
</trkpt>
<trkpt lat="40.0710091" lon="-105.2299807">
  <ele>1583.03</ele>
  <time>2026-08-29T19:30:00Z</time>
  <course>186.74</course>
  <speed>1.1412712210513327</speed>
  <fix>3d</fix>
</trkpt>
<trkpt lat="40.0710104" lon="-105.2299805">
  <ele>1583.0</ele>
  <time>2026-08-29T19:30:00Z</time>
  <course>180.25</course>
  <speed>1.21</speed>
  <fix>3d</fix>
</trkpt>
<trkpt lat="40.0710081" lon="-105.229981">
  <ele>1583.03</ele>
  <time>2026-08-29T19:30:00Z</time>
  <course>192.22</course>
  <speed>1.0914210919713803</speed>
  <fix>3d</fix>
</trkpt>
<trkpt lat="40.0710104" lon="-105.2299805">
  <ele>1583.0</ele>
  <time>2026-08-29T19:30:00Z</time>
  <course>180.25</course>
  <speed>1.21</speed>
  <fix>3d</fix>
</trkpt>
<trkpt lat="40.0710072" lon="-105.2299812">
  <ele>1583.03</ele>
  <time>2026-08-29T19:30:00Z</time>
  <course>197.59</course>
  <speed>1.0594810050208545</speed>
  <fix>3d</fix>
</trkpt>
<trkpt lat="40.0710083" lon="-105.2299807">
  <ele>1583.0</ele>
  <time>2026-08-29T19:30:00Z</time>
  <course>191.24</course>
  <speed>1.12</speed>
  <fix>3d</fix>
</trkpt>
<trkpt lat="40.0710063" lon="-105.2299817">
  <ele>1583.03</ele>
  <time>2026-08-29T19:30:00Z</time>
  <course>202.11</course>
  <speed>1.0519030373565805</speed>
  <fix>3d</fix>
</trkpt>
<trkpt lat="40.0710083" lon="-105.2299807">
  <ele>1583.0</ele>
  <time>2026-08-29T19:30:00Z</time>
  <course>191.24</course>
  <speed>1.12</speed>
  <fix>3d</fix>
</trkpt>
<trkpt lat="40.0710054" lon="-105.2299822">
  <ele>1583.03</ele>
  <time>2026-08-29T19:30:00Z</time>
  <course>205.93</course>
  <speed>1.0423531071570709</speed>
  <fix>3d</fix>
</trkpt>
<trkpt lat="40.0710064" lon="-105.2299813">
  <ele>1583.0</ele>
  <time>2026-08-29T19:30:00Z</time>
  <course>200.95</course>
  <speed>1.06</speed>
  <fix>3d</fix>
</trkpt>
<trkpt lat="40.0710046" lon="-105.2299828">
  <ele>1583.03</ele>
  <time>2026-08-29T19:30:00Z</time>
  <course>209.09</course>
  <speed>1.0410091258005378</speed>
  <fix>3d</fix>
</trkpt>
<trkpt lat="40.0710064" lon="-105.2299813">
  <ele>1583.0</ele>
  <time>2026-08-29T19:30:00Z</time>
  <course>200.95</course>
  <speed>1.06</speed>
  <fix>3d</fix>
</trkpt>
<trkpt lat="40.0710038" lon="-105.2299835">
  <ele>1583.03</ele>
  <time>2026-08-29T19:30:00Z</time>
  <course>211.74</course>
  <speed>1.0511898020814319</speed>
  <fix>3d</fix>
</trkpt>
<trkpt lat="40.0710047" lon="-105.2299823">
  <ele>1583.0</ele>
  <time>2026-08-29T19:30:00Z</time>
  <course>208.08</course>
  <speed>1.05</speed>
  <fix>3d</fix>
</trkpt>
<trkpt lat="40.0710028" lon="-105.2299843">
  <ele>1583.02</ele>
  <time>2026-08-29T19:30:00Z</time>
  <course>214.34</course>
  <speed>1.0580170130957252</speed>
  <fix>3d</fix>
</trkpt>
<trkpt lat="40.0710047" lon="-105.2299823">
  <ele>1583.0</ele>
  <time>2026-08-29T19:30:00Z</time>
  <course>208.08</course>
  <speed>1.05</speed>
  <fix>3d</fix>
</trkpt>
<trkpt lat="40.071002" lon="-105.229985">
  <ele>1583.02</ele>
  <time>2026-08-29T19:30:00Z</time>
  <course>215.9</course>
  <speed>1.0682696288858913</speed>
  <fix>3d</fix>
</trkpt>
<trkpt lat="40.0710031" lon="-105.2299836">
  <ele>1583.0</ele>
  <time>2026-08-29T19:30:00Z</time>
  <course>212.97</course>
  <speed>1.06</speed>
  <fix>3d</fix>
</trkpt>
<trkpt lat="40.0710013" lon="-105.2299858">
  <ele>1583.02</ele>
  <time>2026-08-29T19:30:00Z</time>
  <course>216.33</course>
  <speed>1.074476616776745</speed>
  <fix>3d</fix>
</trkpt>
<trkpt lat="40.0710031" lon="-105.2299836">
  <ele>1583.0</ele>
  <time>2026-08-29T19:30:00Z</time>
  <course>212.97</course>
  <speed>1.06</speed>
  <fix>3d</fix>
</trkpt>
<trkpt lat="40.0710005" lon="-105.2299865">
  <ele>1583.02</ele>
  <time>2026-08-29T19:30:00Z</time>
  <course>215.67</course>
  <speed>1.0761505470890214</speed>
  <fix>3d</fix>
</trkpt>
<trkpt lat="40.0710014" lon="-105.229985">
  <ele>1583.0</ele>
  <time>2026-08-29T19:30:00Z</time>
  <course>215.04</course>
  <speed>1.07</speed>
  <fix>3d</fix>
</trkpt>
<trkpt lat="40.0709997" lon="-105.2299873">
  <ele>1583.02</ele>
  <time>2026-08-29T19:30:00Z</time>
  <course>213.91</course>
  <speed>1.0881176406988355</speed>
  <fix>3d</fix>
</trkpt>
<trkpt lat="40.0710014" lon="-105.229985">
  <ele>1583.0</ele>
  <time>2026-08-29T19:30:00Z</time>
  <course>215.04</course>
  <speed>1.07</speed>
  <fix>3d</fix>
</trkpt>
<trkpt lat="40.0709988" lon="-105.2299879">
  <ele>1583.02</ele>
  <time>2026-08-29T19:30:00Z</time>
  <course>211.07</course>
  <speed>1.0845275469069469</speed>
  <fix>3d</fix>
</trkpt>
<trkpt lat="40.0709999" lon="-105.2299865">
  <ele>1583.0</ele>
  <time>2026-08-29T19:30:00Z</time>
  <course>213.04</course>
  <speed>1.08</speed>
  <fix>3d</fix>
</trkpt>
<trkpt lat="40.070998" lon="-105.2299885">
  <ele>1583.01</ele>
  <time>2026-08-29T19:30:00Z</time>
  <course>207.14</course>
  <speed>1.0830050784737808</speed>
  <fix>3d</fix>
</trkpt>
<trkpt lat="40.0709999" lon="-105.2299865">
  <ele>1583.0</ele>
  <time>2026-08-29T19:30:00Z</time>
  <course>213.04</course>
  <speed>1.08</speed>
  <fix>3d</fix>
</trkpt>
<trkpt lat="40.0709971" lon="-105.2299891">
  <ele>1583.01</ele>
  <time>2026-08-29T19:30:00Z</time>
  <course>202.35</course>
  <speed>1.0742439201596627</speed>
  <fix>3d</fix>
</trkpt>
<trkpt lat="40.0709982" lon="-105.2299878">
  <ele>1583.0</ele>
  <time>2026-08-29T19:30:00Z</time>
  <course>206.75</course>
  <speed>1.08</speed>
  <fix>3d</fix>
</trkpt>
<trkpt lat="40.0709962" lon="-105.2299895">
  <ele>1583.01</ele>
  <time>2026-08-29T19:30:00Z</time>
  <course>197.4</course>
  <speed>1.0467568963231146</speed>
  <fix>3d</fix>
</trkpt>
<trkpt lat="40.0709982" lon="-105.2299878">
  <ele>1583.0</ele>
  <time>2026-08-29T19:30:00Z</time>
  <course>206.75</course>
  <speed>1.08</speed>
  <fix>3d</fix>
</trkpt>
<trkpt lat="40.0709953" lon="-105.2299897">
  <ele>1583.01</ele>
  <time>2026-08-29T19:30:00Z</time>
  <course>192.33</course>
  <speed>1.0186756107809787</speed>
  <fix>3d</fix>
</trkpt>
<trkpt lat="40.0709964" lon="-105.2299888">
  <ele>1583.0</ele>
  <time>2026-08-29T19:30:00Z</time>
  <course>197.66</course>
  <speed>1.05</speed>
  <fix>3d</fix>
</trkpt>
<trkpt lat="40.0709944" lon="-105.2299899">
  <ele>1583.01</ele>
  <time>2026-08-29T19:30:00Z</time>
  <course>187.17</course>
  <speed>0.9800510190801294</speed>
  <fix>3d</fix>
</trkpt>
<trkpt lat="40.0709964" lon="-105.2299888">
  <ele>1583.0</ele>
  <time>2026-08-29T19:30:00Z</time>
  <course>197.66</course>
  <speed>1.05</speed>
  <fix>3d</fix>
</trkpt>
<trkpt lat="40.0709937" lon="-105.2299899">
  <ele>1583.01</ele>
  <time>2026-08-29T19:30:00Z</time>
  <course>183.06</course>
  <speed>0.9426027795418386</speed>
  <fix>3d</fix>
</trkpt>
<trkpt lat="40.0709945" lon="-105.2299893">
  <ele>1583.0</ele>
  <time>2026-08-29T19:30:00Z</time>
  <course>187.63</course>
  <speed>0.99</speed>
  <fix>3d</fix>
</trkpt>
<trkpt lat="40.0709928" lon="-105.2299899">
  <ele>1583.01</ele>
  <time>2026-08-29T19:30:00Z</time>
  <course>178.11</course>
  <speed>0.9000555538409837</speed>
  <fix>3d</fix>
</trkpt>
<trkpt lat="40.0709945" lon="-105.2299893">
  <ele>1583.0</ele>
  <time>2026-08-29T19:30:00Z</time>
  <course>187.63</course>
  <speed>0.99</speed>
  <fix>3d</fix>
</trkpt>
<trkpt lat="40.070992" lon="-105.2299898">
  <ele>1583.01</ele>
  <time>2026-08-29T19:30:00Z</time>
  <course>173.34</course>
  <speed>0.8637129152675673</speed>
  <fix>3d</fix>
</trkpt>
<trkpt lat="40.0709928" lon="-105.2299894">
  <ele>1583.0</ele>
  <time>2026-08-29T19:30:00Z</time>
  <course>177.65</course>
  <speed>0.91</speed>
  <fix>3d</fix>
</trkpt>
<trkpt lat="40.0709912" lon="-105.2299896">
  <ele>1583.01</ele>
  <time>2026-08-29T19:30:00Z</time>
  <course>168.75</course>
  <speed>0.833606621854697</speed>
  <fix>3d</fix>
</trkpt>
<trkpt lat="40.0709928" lon="-105.2299894">
  <ele>1583.0</ele>
  <time>2026-08-29T19:30:00Z</time>
  <course>177.65</course>
  <speed>0.91</speed>
  <fix>3d</fix>
</trkpt>
<trkpt lat="40.0709905" lon="-105.2299894">
  <ele>1583.01</ele>
  <time>2026-08-29T19:30:00Z</time>
  <course>164.26</course>
  <speed>0.8077747210701756</speed>
  <fix>3d</fix>
</trkpt>
<trkpt lat="40.0709913" lon="-105.2299892">
  <ele>1583.0</ele>
  <time>2026-08-29T19:30:00Z</time>
  <course>168.15</course>
  <speed>0.85</speed>
  <fix>3d</fix>
</trkpt>
<trkpt lat="40.0709898" lon="-105.229989">
  <ele>1583.02</ele>
  <time>2026-08-29T19:30:00Z</time>
  <course>159.86</course>
  <speed>0.8065358020571685</speed>
  <fix>3d</fix>
</trkpt>
<trkpt lat="40.0709913" lon="-105.2299892">
  <ele>1583.0</ele>
  <time>2026-08-29T19:30:00Z</time>
  <course>168.15</course>
  <speed>0.85</speed>
  <fix>3d</fix>
</trkpt>
<trkpt lat="40.0709891" lon="-105.2299886">
  <ele>1583.02</ele>
  <time>2026-08-29T19:30:00Z</time>
  <course>155.52</course>
  <speed>0.8102468759581859</speed>
  <fix>3d</fix>
</trkpt>
<trkpt lat="40.0709899" lon="-105.2299887">
  <ele>1583.0</ele>
  <time>2026-08-29T19:30:00Z</time>
  <course>159.1</course>
  <speed>0.83</speed>
  <fix>3d</fix>
</trkpt>
<trkpt lat="40.0709884" lon="-105.2299881">
  <ele>1583.02</ele>
  <time>2026-08-29T19:30:00Z</time>
  <course>151.16</course>
  <speed>0.8236504112789601</speed>
  <fix>3d</fix>
</trkpt>
<trkpt lat="40.0709899" lon="-105.2299887">
  <ele>1583.0</ele>
  <time>2026-08-29T19:30:00Z</time>
  <course>159.1</course>
  <speed>0.83</speed>
  <fix>3d</fix>
</trkpt>
<trkpt lat="40.0709878" lon="-105.2299875">
  <ele>1583.03</ele>
  <time>2026-08-29T19:30:00Z</time>
  <course>146.86</course>
  <speed>0.8376156636548769</speed>
  <fix>3d</fix>
</trkpt>
<trkpt lat="40.0709885" lon="-105.2299879">
  <ele>1583.0</ele>
  <time>2026-08-29T19:30:00Z</time>
  <course>150.34</course>
  <speed>0.84</speed>
  <fix>3d</fix>
</trkpt>
<trkpt lat="40.0709871" lon="-105.2299869">
  <ele>1583.03</ele>
  <time>2026-08-29T19:30:00Z</time>
  <course>142.6</course>
  <speed>0.8542833253669417</speed>
  <fix>3d</fix>
</trkpt>
<trkpt lat="40.0709885" lon="-105.2299879">
  <ele>1583.0</ele>
  <time>2026-08-29T19:30:00Z</time>
  <course>150.34</course>
  <speed>0.84</speed>
  <fix>3d</fix>
</trkpt>
<trkpt lat="40.0709864" lon="-105.2299861">
  <ele>1583.04</ele>
  <time>2026-08-29T19:30:00Z</time>
  <course>137.54</course>
  <speed>0.8631338250816034</speed>
  <fix>3d</fix>
</trkpt>
<trkpt lat="40.0709872" lon="-105.2299867">
  <ele>1583.0</ele>
  <time>2026-08-29T19:30:00Z</time>
  <course>141.77</course>
  <speed>0.87</speed>
  <fix>3d</fix>
</trkpt>
<trkpt lat="40.0709858" lon="-105.2299853">
  <ele>1583.04</ele>
  <time>2026-08-29T19:30:00Z</time>
  <course>133.45</course>
  <speed>0.8704596486914256</speed>
  <fix>3d</fix>
</trkpt>
<trkpt lat="40.0709872" lon="-105.2299867">
  <ele>1583.0</ele>
  <time>2026-08-29T19:30:00Z</time>
  <course>141.77</course>
  <speed>0.87</speed>
  <fix>3d</fix>
</trkpt>
<trkpt lat="40.0709853" lon="-105.2299844">
  <ele>1583.04</ele>
  <time>2026-08-29T19:30:00Z</time>
  <course>129.5</course>
  <speed>0.8823831367382311</speed>
  <fix>3d</fix>
</trkpt>
<trkpt lat="40.070986" lon="-105.2299853">
  <ele>1583.0</ele>
  <time>2026-08-29T19:30:00Z</time>
  <course>133.54</course>
  <speed>0.88</speed>
  <fix>3d</fix>
</trkpt>
<trkpt lat="40.0709848" lon="-105.2299836">
  <ele>1583.05</ele>
  <time>2026-08-29T19:30:00Z</time>
  <course>125.65</course>
  <speed>0.8987213138676527</speed>
  <fix>3d</fix>
</trkpt>
<trkpt lat="40.070986" lon="-105.2299853">
  <ele>1583.0</ele>
  <time>2026-08-29T19:30:00Z</time>
  <course>133.54</course>
  <speed>0.88</speed>
  <fix>3d</fix>
</trkpt>
<trkpt lat="40.0709844" lon="-105.2299826">
  <ele>1583.05</ele>
  <time>2026-08-29T19:30:00Z</time>
  <course>121.86</course>
  <speed>0.9278469701410895</speed>
  <fix>3d</fix>
</trkpt>
<trkpt lat="40.070985" lon="-105.2299837">
  <ele>1583.0</ele>
  <time>2026-08-29T19:30:00Z</time>
  <course>125.55</course>
  <speed>0.91</speed>
  <fix>3d</fix>
</trkpt>
<trkpt lat="40.070984" lon="-105.2299816">
  <ele>1583.05</ele>
  <time>2026-08-29T19:30:00Z</time>
  <course>118.14</course>
  <speed>0.9749358953285082</speed>
  <fix>3d</fix>
</trkpt>
<trkpt lat="40.070985" lon="-105.2299837">
  <ele>1583.0</ele>
  <time>2026-08-29T19:30:00Z</time>
  <course>125.55</course>
  <speed>0.91</speed>
  <fix>3d</fix>
</trkpt>
<trkpt lat="40.0709836" lon="-105.2299805">
  <ele>1583.05</ele>
  <time>2026-08-29T19:30:00Z</time>
  <course>114.48</course>
  <speed>1.0215674231297707</speed>
  <fix>3d</fix>
</trkpt>
<trkpt lat="40.0709842" lon="-105.2299818">
  <ele>1583.0</ele>
  <time>2026-08-29T19:30:00Z</time>
  <course>117.92</course>
  <speed>0.98</speed>
  <fix>3d</fix>
</trkpt>
<trkpt lat="40.0709832" lon="-105.2299793">
  <ele>1583.04</ele>
  <time>2026-08-29T19:30:00Z</time>
  <course>111.03</course>
  <speed>1.0850345616615167</speed>
  <fix>3d</fix>
</trkpt>
<trkpt lat="40.0709842" lon="-105.2299818">
  <ele>1583.0</ele>
  <time>2026-08-29T19:30:00Z</time>
  <course>117.92</course>
  <speed>0.98</speed>
  <fix>3d</fix>
</trkpt>
<trkpt lat="40.0709829" lon="-105.229978">
  <ele>1583.04</ele>
  <time>2026-08-29T19:30:00Z</time>
  <course>107.78</course>
  <speed>1.1484337159801605</speed>
  <fix>3d</fix>
</trkpt>
<trkpt lat="40.0709834" lon="-105.2299795">
  <ele>1583.0</ele>
  <time>2026-08-29T19:30:00Z</time>
  <course>110.79</course>
  <speed>1.08</speed>
  <fix>3d</fix>
</trkpt>
<trkpt lat="40.0709827" lon="-105.2299767">
  <ele>1583.04</ele>
  <time>2026-08-29T19:30:00Z</time>
  <course>104.73</course>
  <speed>1.2224974437601086</speed>
  <fix>3d</fix>
</trkpt>
<trkpt lat="40.0709834" lon="-105.2299795">
  <ele>1583.0</ele>
  <time>2026-08-29T19:30:00Z</time>
  <course>110.79</course>
  <speed>1.08</speed>
  <fix>3d</fix>
</trkpt>
<trkpt lat="40.0709824" lon="-105.2299752">
  <ele>1583.04</ele>
  <time>2026-08-29T19:30:00Z</time>
  <course>101.89</course>
  <speed>1.2924782396620842</speed>
  <fix>3d</fix>
</trkpt>
<trkpt lat="40.0709827" lon="-105.229977">
  <ele>1583.0</ele>
  <time>2026-08-29T19:30:00Z</time>
  <course>104.43</course>
  <speed>1.21</speed>
  <fix>3d</fix>
</trkpt>
<trkpt lat="40.0709823" lon="-105.2299739">
  <ele>1583.04</ele>
  <time>2026-08-29T19:30:00Z</time>
  <course>99.73</course>
  <speed>1.354843164355196</speed>
  <fix>3d</fix>
</trkpt>
<trkpt lat="40.0709827" lon="-105.229977">
  <ele>1583.0</ele>
  <time>2026-08-29T19:30:00Z</time>
  <course>104.43</course>
  <speed>1.21</speed>
  <fix>3d</fix>
</trkpt>
<trkpt lat="40.0709821" lon="-105.2299723">
  <ele>1583.04</ele>
  <time>2026-08-29T19:30:00Z</time>
  <course>97.24</course>
  <speed>1.4378456106272326</speed>
  <fix>3d</fix>
</trkpt>
<trkpt lat="40.0709823" lon="-105.229974">
  <ele>1583.0</ele>
  <time>2026-08-29T19:30:00Z</time>
  <course>98.88</course>
  <speed>1.36</speed>
  <fix>3d</fix>
</trkpt>
<trkpt lat="40.070982" lon="-105.2299705">
  <ele>1583.04</ele>
  <time>2026-08-29T19:30:00Z</time>
  <course>94.92</course>
  <speed>1.5133076356114774</speed>
  <fix>3d</fix>
</trkpt>
<trkpt lat="40.0709823" lon="-105.229974">
  <ele>1583.0</ele>
  <time>2026-08-29T19:30:00Z</time>
  <course>98.88</course>
  <speed>1.36</speed>
  <fix>3d</fix>
</trkpt>
<trkpt lat="40.0709819" lon="-105.2299687">
  <ele>1583.04</ele>
  <time>2026-08-29T19:30:00Z</time>
  <course>92.8</course>
  <speed>1.5805062480104277</speed>
  <fix>3d</fix>
</trkpt>
<trkpt lat="40.070982" lon="-105.2299707">
  <ele>1583.0</ele>
  <time>2026-08-29T19:30:00Z</time>
  <course>94.1</course>
  <speed>1.51</speed>
  <fix>3d</fix>
</trkpt>
<trkpt lat="40.0709819" lon="-105.2299667">
  <ele>1583.04</ele>
  <time>2026-08-29T19:30:00Z</time>
  <course>90.85</course>
  <speed>1.65</speed>
  <fix>3d</fix>
</trkpt>
<trkpt lat="40.070982" lon="-105.2299707">
  <ele>1583.0</ele>
  <time>2026-08-29T19:30:00Z</time>
  <course>94.1</course>
  <speed>1.51</speed>
  <fix>3d</fix>
</trkpt>
<trkpt lat="40.0709819" lon="-105.2299647">
  <ele>1583.04</ele>
  <time>2026-08-29T19:30:00Z</time>
  <course>89.05</course>
  <speed>1.710730837975396</speed>
  <fix>3d</fix>
</trkpt>
<trkpt lat="40.0709819" lon="-105.229967">
  <ele>1583.0</ele>
  <time>2026-08-29T19:30:00Z</time>
  <course>90.03</course>
  <speed>1.65</speed>
  <fix>3d</fix>
</trkpt>
<trkpt lat="40.070982" lon="-105.2299626">
  <ele>1583.04</ele>
  <time>2026-08-29T19:30:00Z</time>
  <course>87.42</course>
  <speed>1.7734147850968198</speed>
  <fix>3d</fix>
</trkpt>
<trkpt lat="40.0709819" lon="-105.229967">
  <ele>1583.0</ele>
  <time>2026-08-29T19:30:00Z</time>
  <course>90.03</course>
  <speed>1.65</speed>
  <fix>3d</fix>
</trkpt>
<trkpt lat="40.0709821" lon="-105.2299604">
  <ele>1583.04</ele>
  <time>2026-08-29T19:30:00Z</time>
  <course>85.96</course>
  <speed>1.8270194306574847</speed>
  <fix>3d</fix>
</trkpt>
<trkpt lat="40.070982" lon="-105.229963">
  <ele>1583.0</ele>
  <time>2026-08-29T19:30:00Z</time>
  <course>86.63</course>
  <speed>1.76</speed>
  <fix>3d</fix>
</trkpt>
<trkpt lat="40.0709822" lon="-105.2299582">
  <ele>1583.04</ele>
  <time>2026-08-29T19:30:00Z</time>
  <course>84.67</course>
  <speed>1.870721785835617</speed>
  <fix>3d</fix>
</trkpt>
<trkpt lat="40.070982" lon="-105.229963">
  <ele>1583.0</ele>
  <time>2026-08-29T19:30:00Z</time>
  <course>86.63</course>
  <speed>1.76</speed>
  <fix>3d</fix>
</trkpt>
<trkpt lat="40.0709825" lon="-105.2299555">
  <ele>1583.05</ele>
  <time>2026-08-29T19:30:00Z</time>
  <course>83.34</course>
  <speed>1.9262917743685666</speed>
  <fix>3d</fix>
</trkpt>
<trkpt lat="40.0709822" lon="-105.2299587">
  <ele>1583.0</ele>
  <time>2026-08-29T19:30:00Z</time>
  <course>83.9</course>
  <speed>1.86</speed>
  <fix>3d</fix>
</trkpt>
<trkpt lat="40.0709827" lon="-105.2299532">
  <ele>1583.05</ele>
  <time>2026-08-29T19:30:00Z</time>
  <course>82.38</course>
  <speed>1.9615555052049891</speed>
  <fix>3d</fix>
</trkpt>
<trkpt lat="40.0709822" lon="-105.2299587">
  <ele>1583.0</ele>
  <time>2026-08-29T19:30:00Z</time>
  <course>83.9</course>
  <speed>1.86</speed>
  <fix>3d</fix>
</trkpt>
<trkpt lat="40.070983" lon="-105.2299509">
  <ele>1583.05</ele>
  <time>2026-08-29T19:30:00Z</time>
  <course>81.55</course>
  <speed>1.9958206332233366</speed>
  <fix>3d</fix>
</trkpt>
<trkpt lat="40.0709826" lon="-105.2299543">
  <ele>1583.0</ele>
  <time>2026-08-29T19:30:00Z</time>
  <course>81.79</course>
  <speed>1.95</speed>
  <fix>3d</fix>
</trkpt>
<trkpt lat="40.0709833" lon="-105.2299485">
  <ele>1583.06</ele>
  <time>2026-08-29T19:30:00Z</time>
  <course>80.86</course>
  <speed>2.0303940504246953</speed>
  <fix>3d</fix>
</trkpt>
<trkpt lat="40.0709826" lon="-105.2299543">
  <ele>1583.0</ele>
  <time>2026-08-29T19:30:00Z</time>
  <course>81.79</course>
  <speed>1.95</speed>
  <fix>3d</fix>
</trkpt>
<trkpt lat="40.0709837" lon="-105.2299462">
  <ele>1583.05</ele>
  <time>2026-08-29T19:30:00Z</time>
  <course>80.28</course>
  <speed>2.0554318281081474</speed>
  <fix>3d</fix>
</trkpt>
<trkpt lat="40.0709832" lon="-105.2299496">
  <ele>1583.0</ele>
  <time>2026-08-29T19:30:00Z</time>
  <course>80.21</course>
  <speed>2.02</speed>
  <fix>3d</fix>
</trkpt>
<trkpt lat="40.070984" lon="-105.2299437">
  <ele>1583.05</ele>
  <time>2026-08-29T19:30:00Z</time>
  <course>79.82</course>
  <speed>2.078845833629805</speed>
  <fix>3d</fix>
</trkpt>
<trkpt lat="40.0709832" lon="-105.2299496">
  <ele>1583.0</ele>
  <time>2026-08-29T19:30:00Z</time>
  <course>80.21</course>
  <speed>2.02</speed>
  <fix>3d</fix>
</trkpt>
<trkpt lat="40.0709844" lon="-105.2299413">
  <ele>1583.05</ele>
  <time>2026-08-29T19:30:00Z</time>
  <course>79.47</course>
  <speed>2.100404722904612</speed>
  <fix>3d</fix>
</trkpt>
<trkpt lat="40.0709838" lon="-105.2299449">
  <ele>1583.0</ele>
  <time>2026-08-29T19:30:00Z</time>
  <course>79.13</course>
  <speed>2.07</speed>
  <fix>3d</fix>
</trkpt>
<trkpt lat="40.0709848" lon="-105.2299389">
  <ele>1583.05</ele>
  <time>2026-08-29T19:30:00Z</time>
  <course>79.22</course>
  <speed>2.123982109152523</speed>
  <fix>3d</fix>
</trkpt>
<trkpt lat="40.0709838" lon="-105.2299449">
  <ele>1583.0</ele>
  <time>2026-08-29T19:30:00Z</time>
  <course>79.13</course>
  <speed>2.07</speed>
  <fix>3d</fix>
</trkpt>
<trkpt lat="40.0709852" lon="-105.2299364">
  <ele>1583.05</ele>
  <time>2026-08-29T19:30:00Z</time>
  <course>79.07</course>
  <speed>2.133775995740884</speed>
  <fix>3d</fix>
</trkpt>
<trkpt lat="40.0709846" lon="-105.22994">
  <ele>1583.0</ele>
  <time>2026-08-29T19:30:00Z</time>
  <course>78.48</course>
  <speed>2.11</speed>
  <fix>3d</fix>
</trkpt>
<trkpt lat="40.0709855" lon="-105.229934">
  <ele>1583.04</ele>
  <time>2026-08-29T19:30:00Z</time>
  <course>79.0</course>
  <speed>2.155388596054085</speed>
  <fix>3d</fix>
</trkpt>
<trkpt lat="40.0709846" lon="-105.22994">
  <ele>1583.0</ele>
  <time>2026-08-29T19:30:00Z</time>
  <course>78.48</course>
  <speed>2.11</speed>
  <fix>3d</fix>
</trkpt>
<trkpt lat="40.0709859" lon="-105.2299315">
  <ele>1583.04</ele>
  <time>2026-08-29T19:30:00Z</time>
  <course>79.0</course>
  <speed>2.165178976435897</speed>
  <fix>3d</fix>
</trkpt>
<trkpt lat="40.0709854" lon="-105.2299352">
  <ele>1583.0</ele>
  <time>2026-08-29T19:30:00Z</time>
  <course>78.21</course>
  <speed>2.15</speed>
  <fix>3d</fix>
</trkpt>
<trkpt lat="40.0709863" lon="-105.229929">
  <ele>1583.04</ele>
  <time>2026-08-29T19:30:00Z</time>
  <course>79.07</course>
  <speed>2.174971264177989</speed>
  <fix>3d</fix>
</trkpt>
<trkpt lat="40.0709854" lon="-105.2299352">
  <ele>1583.0</ele>
  <time>2026-08-29T19:30:00Z</time>
  <course>78.21</course>
  <speed>2.15</speed>
  <fix>3d</fix>
</trkpt>
<trkpt lat="40.0709867" lon="-105.229927">
  <ele>1583.04</ele>
  <time>2026-08-29T19:30:00Z</time>
  <course>79.18</course>
  <speed>2.174971264177989</speed>
  <fix>3d</fix>
</trkpt>
<trkpt lat="40.0709861" lon="-105.2299301">
  <ele>1583.0</ele>
  <time>2026-08-29T19:30:00Z</time>
  <course>78.25</course>
  <speed>2.17</speed>
  <fix>3d</fix>
</trkpt>
<trkpt lat="40.070987" lon="-105.2299245">
  <ele>1583.04</ele>
  <time>2026-08-29T19:30:00Z</time>
  <course>79.38</course>
  <speed>2.1827734651126764</speed>
  <fix>3d</fix>
</trkpt>
<trkpt lat="40.0709861" lon="-105.2299301">
  <ele>1583.0</ele>
  <time>2026-08-29T19:30:00Z</time>
  <course>78.25</course>
  <speed>2.17</speed>
  <fix>3d</fix>
</trkpt>
<trkpt lat="40.0709874" lon="-105.2299219">
  <ele>1583.04</ele>
  <time>2026-08-29T19:30:00Z</time>
  <course>79.65</course>
  <speed>2.1906391761310213</speed>
  <fix>3d</fix>
</trkpt>
<trkpt lat="40.070987" lon="-105.2299252">
  <ele>1583.0</ele>
  <time>2026-08-29T19:30:00Z</time>
  <course>78.58</course>
  <speed>2.2</speed>
  <fix>3d</fix>
</trkpt>
<trkpt lat="40.0709878" lon="-105.2299194">
  <ele>1583.05</ele>
  <time>2026-08-29T19:30:00Z</time>
  <course>80.05</course>
  <speed>2.198567715582124</speed>
  <fix>3d</fix>
</trkpt>
<trkpt lat="40.070987" lon="-105.2299252">
  <ele>1583.0</ele>
  <time>2026-08-29T19:30:00Z</time>
  <course>78.58</course>
  <speed>2.2</speed>
  <fix>3d</fix>
</trkpt>
<trkpt lat="40.0709882" lon="-105.2299168">
  <ele>1583.05</ele>
  <time>2026-08-29T19:30:00Z</time>
  <course>81.17</course>
  <speed>2.2095248357961492</speed>
  <fix>3d</fix>
</trkpt>
<trkpt lat="40.0709877" lon="-105.22992">
  <ele>1583.0</ele>
  <time>2026-08-29T19:30:00Z</time>
  <course>79.58</course>
  <speed>2.21</speed>
  <fix>3d</fix>
</trkpt>
<trkpt lat="40.0709884" lon="-105.2299142">
  <ele>1583.05</ele>
  <time>2026-08-29T19:30:00Z</time>
  <course>83.22</course>
  <speed>2.207826985975124</speed>
  <fix>3d</fix>
</trkpt>
<trkpt lat="40.0709877" lon="-105.22992">
  <ele>1583.0</ele>
  <time>2026-08-29T19:30:00Z</time>
  <course>79.58</course>
  <speed>2.21</speed>
  <fix>3d</fix>
</trkpt>
<trkpt lat="40.0709887" lon="-105.2299116">
  <ele>1583.05</ele>
  <time>2026-08-29T19:30:00Z</time>
  <course>86.39</course>
  <speed>2.205810508633958</speed>
  <fix>3d</fix>
</trkpt>
<trkpt lat="40.0709883" lon="-105.2299149">
  <ele>1583.0</ele>
  <time>2026-08-29T19:30:00Z</time>
  <course>82.96</course>
  <speed>2.22</speed>
  <fix>3d</fix>
</trkpt>
<trkpt lat="40.0709887" lon="-105.229909">
  <ele>1583.05</ele>
  <time>2026-08-29T19:30:00Z</time>
  <course>90.7</course>
  <speed>2.21</speed>
  <fix>3d</fix>
</trkpt>
<trkpt lat="40.0709883" lon="-105.2299149">
  <ele>1583.0</ele>
  <time>2026-08-29T19:30:00Z</time>
  <course>82.96</course>
  <speed>2.22</speed>
  <fix>3d</fix>
</trkpt>
<trkpt lat="40.0709886" lon="-105.2299064">
  <ele>1583.05</ele>
  <time>2026-08-29T19:30:00Z</time>
  <course>96.08</course>
  <speed>2.21</speed>
  <fix>3d</fix>
</trkpt>
<trkpt lat="40.0709886" lon="-105.2299097">
  <ele>1583.0</ele>
  <time>2026-08-29T19:30:00Z</time>
  <course>90.41</course>
  <speed>2.22</speed>
  <fix>3d</fix>
</trkpt>
<trkpt lat="40.0709882" lon="-105.2299033">
  <ele>1583.05</ele>
  <time>2026-08-29T19:30:00Z</time>
  <course>103.63</course>
  <speed>2.1878985351245155</speed>
  <fix>3d</fix>
</trkpt>
<trkpt lat="40.0709886" lon="-105.2299097">
  <ele>1583.0</ele>
  <time>2026-08-29T19:30:00Z</time>
  <course>90.41</course>
  <speed>2.22</speed>
  <fix>3d</fix>
</trkpt>
<trkpt lat="40.0709876" lon="-105.2299008">
  <ele>1583.05</ele>
  <time>2026-08-29T19:30:00Z</time>
  <course>108.93</course>
  <speed>2.1630071659613153</speed>
  <fix>3d</fix>
</trkpt>
<trkpt lat="40.0709882" lon="-105.2299045">
  <ele>1583.0</ele>
  <time>2026-08-29T19:30:00Z</time>
  <course>101.13</course>
  <speed>2.2</speed>
  <fix>3d</fix>
</trkpt>
<trkpt lat="40.0709869" lon="-105.2298984">
  <ele>1583.05</ele>
  <time>2026-08-29T19:30:00Z</time>
  <course>113.37</course>
  <speed>2.1363754351705135</speed>
  <fix>3d</fix>
</trkpt>
<trkpt lat="40.0709882" lon="-105.2299045">
  <ele>1583.0</ele>
  <time>2026-08-29T19:30:00Z</time>
  <course>101.13</course>
  <speed>2.2</speed>
  <fix>3d</fix>
</trkpt>
<trkpt lat="40.0709861" lon="-105.2298961">
  <ele>1583.04</ele>
  <time>2026-08-29T19:30:00Z</time>
  <course>117.1</course>
  <speed>2.1154904868611437</speed>
  <fix>3d</fix>
</trkpt>
<trkpt lat="40.0709872" lon="-105.2298996">
  <ele>1583.0</ele>
  <time>2026-08-29T19:30:00Z</time>
  <course>111.29</course>
  <speed>2.17</speed>
  <fix>3d</fix>
</trkpt>
<trkpt lat="40.0709852" lon="-105.229894">
  <ele>1583.04</ele>
  <time>2026-08-29T19:30:00Z</time>
  <course>120.22</course>
  <speed>2.0889231675674433</speed>
  <fix>3d</fix>
</trkpt>
<trkpt lat="40.0709872" lon="-105.2298996">
  <ele>1583.0</ele>
  <time>2026-08-29T19:30:00Z</time>
  <course>111.29</course>
  <speed>2.17</speed>
  <fix>3d</fix>
</trkpt>
<trkpt lat="40.0709842" lon="-105.2298919">
  <ele>1583.05</ele>
  <time>2026-08-29T19:30:00Z</time>
  <course>122.82</course>
  <speed>2.0663494380186522</speed>
  <fix>3d</fix>
</trkpt>
<trkpt lat="40.0709855" lon="-105.229895">
  <ele>1583.0</ele>
  <time>2026-08-29T19:30:00Z</time>
  <course>118.5</course>
  <speed>2.12</speed>
  <fix>3d</fix>
</trkpt>
<trkpt lat="40.0709831" lon="-105.2298899">
  <ele>1583.05</ele>
  <time>2026-08-29T19:30:00Z</time>
  <course>124.99</course>
  <speed>2.042473990042468</speed>
  <fix>3d</fix>
</trkpt>
<trkpt lat="40.0709855" lon="-105.229895">
  <ele>1583.0</ele>
  <time>2026-08-29T19:30:00Z</time>
  <course>118.5</course>
  <speed>2.12</speed>
  <fix>3d</fix>
</trkpt>
<trkpt lat="40.070982" lon="-105.2298879">
  <ele>1583.05</ele>
  <time>2026-08-29T19:30:00Z</time>
  <course>126.78</course>
  <speed>2.018142710513803</speed>
  <fix>3d</fix>
</trkpt>
<trkpt lat="40.0709835" lon="-105.2298908">
  <ele>1583.0</ele>
  <time>2026-08-29T19:30:00Z</time>
  <course>123.54</course>
  <speed>2.08</speed>
  <fix>3d</fix>
</trkpt>
<trkpt lat="40.0709809" lon="-105.2298861">
  <ele>1583.05</ele>
  <time>2026-08-29T19:30:00Z</time>
  <course>128.27</course>
  <speed>1.9912307751739877</speed>
  <fix>3d</fix>
</trkpt>
<trkpt lat="40.0709835" lon="-105.2298908">
  <ele>1583.0</ele>
  <time>2026-08-29T19:30:00Z</time>
  <course>123.54</course>
  <speed>2.08</speed>
  <fix>3d</fix>
</trkpt>
<trkpt lat="40.0709798" lon="-105.2298843">
  <ele>1583.05</ele>
  <time>2026-08-29T19:30:00Z</time>
  <course>129.51</course>
  <speed>1.9654261624390779</speed>
  <fix>3d</fix>
</trkpt>
<trkpt lat="40.0709813" lon="-105.2298869">
  <ele>1583.0</ele>
  <time>2026-08-29T19:30:00Z</time>
  <course>127.01</course>
  <speed>2.03</speed>
  <fix>3d</fix>
</trkpt>
<trkpt lat="40.0709786" lon="-105.2298825">
  <ele>1583.05</ele>
  <time>2026-08-29T19:30:00Z</time>
  <course>130.53</course>
  <speed>1.9341406360448559</speed>
  <fix>3d</fix>
</trkpt>
<trkpt lat="40.0709813" lon="-105.2298869">
  <ele>1583.0</ele>
  <time>2026-08-29T19:30:00Z</time>
  <course>127.01</course>
  <speed>2.03</speed>
  <fix>3d</fix>
</trkpt>
<trkpt lat="40.0709777" lon="-105.2298812">
  <ele>1583.05</ele>
  <time>2026-08-29T19:30:00Z</time>
  <course>131.23</course>
  <speed>1.9117531221368518</speed>
  <fix>3d</fix>
</trkpt>
<trkpt lat="40.0709791" lon="-105.2298831">
  <ele>1583.0</ele>
  <time>2026-08-29T19:30:00Z</time>
  <course>129.41</course>
  <speed>1.97</speed>
  <fix>3d</fix>
</trkpt>
<trkpt lat="40.0709765" lon="-105.2298795">
  <ele>1583.05</ele>
  <time>2026-08-29T19:30:00Z</time>
  <course>131.95</course>
  <speed>1.8822327167489146</speed>
  <fix>3d</fix>
</trkpt>
<trkpt lat="40.0709791" lon="-105.2298831">
  <ele>1583.0</ele>
  <time>2026-08-29T19:30:00Z</time>
  <course>129.41</course>
  <speed>1.97</speed>
  <fix>3d</fix>
</trkpt>
<trkpt lat="40.0709754" lon="-105.2298778">
  <ele>1583.04</ele>
  <time>2026-08-29T19:30:00Z</time>
  <course>132.54</course>
  <speed>1.8534832073693033</speed>
  <fix>3d</fix>
</trkpt>
<trkpt lat="40.0709769" lon="-105.2298797">
  <ele>1583.0</ele>
  <time>2026-08-29T19:30:00Z</time>
  <course>131.05</course>
  <speed>1.91</speed>
  <fix>3d</fix>
</trkpt>
<trkpt lat="40.0709743" lon="-105.2298762">
  <ele>1583.04</ele>
  <time>2026-08-29T19:30:00Z</time>
  <course>133.01</course>
  <speed>1.8317477992343814</speed>
  <fix>3d</fix>
</trkpt>
<trkpt lat="40.0709769" lon="-105.2298797">
  <ele>1583.0</ele>
  <time>2026-08-29T19:30:00Z</time>
  <course>131.05</course>
  <speed>1.91</speed>
  <fix>3d</fix>
</trkpt>
<trkpt lat="40.0709731" lon="-105.2298747">
  <ele>1583.04</ele>
  <time>2026-08-29T19:30:00Z</time>
  <course>133.41</course>
  <speed>1.8032470712578461</speed>
  <fix>3d</fix>
</trkpt>
<trkpt lat="40.0709746" lon="-105.2298764">
  <ele>1583.0</ele>
  <time>2026-08-29T19:30:00Z</time>
  <course>132.15</course>
  <speed>1.86</speed>
  <fix>3d</fix>
</trkpt>
<trkpt lat="40.070972" lon="-105.2298731">
  <ele>1583.03</ele>
  <time>2026-08-29T19:30:00Z</time>
  <course>133.72</course>
  <speed>1.7748521065147935</speed>
  <fix>3d</fix>
</trkpt>
<trkpt lat="40.0709746" lon="-105.2298764">
  <ele>1583.0</ele>
  <time>2026-08-29T19:30:00Z</time>
  <course>132.15</course>
  <speed>1.86</speed>
  <fix>3d</fix>
</trkpt>
<trkpt lat="40.0709709" lon="-105.2298716">
  <ele>1583.03</ele>
  <time>2026-08-29T19:30:00Z</time>
  <course>133.98</course>
  <speed>1.7536248173426379</speed>
  <fix>3d</fix>
</trkpt>
<trkpt lat="40.0709724" lon="-105.2298732">
  <ele>1583.0</ele>
  <time>2026-08-29T19:30:00Z</time>
  <course>132.88</course>
  <speed>1.8</speed>
  <fix>3d</fix>
</trkpt>
<trkpt lat="40.0709698" lon="-105.2298701">
  <ele>1583.03</ele>
  <time>2026-08-29T19:30:00Z</time>
  <course>134.18</course>
  <speed>1.7324260445975752</speed>
  <fix>3d</fix>
</trkpt>
<trkpt lat="40.0709724" lon="-105.2298732">
  <ele>1583.0</ele>
  <time>2026-08-29T19:30:00Z</time>
  <course>132.88</course>
  <speed>1.8</speed>
  <fix>3d</fix>
</trkpt>
<trkpt lat="40.0709687" lon="-105.2298686">
  <ele>1583.03</ele>
  <time>2026-08-29T19:30:00Z</time>
  <course>134.34</course>
  <speed>1.7112568480505783</speed>
  <fix>3d</fix>
</trkpt>
<trkpt lat="40.0709703" lon="-105.2298701">
  <ele>1583.0</ele>
  <time>2026-08-29T19:30:00Z</time>
  <course>133.36</course>
  <speed>1.76</speed>
  <fix>3d</fix>
</trkpt>
<trkpt lat="40.0709676" lon="-105.2298671">
  <ele>1583.04</ele>
  <time>2026-08-29T19:30:00Z</time>
  <course>134.46</course>
  <speed>1.69</speed>
  <fix>3d</fix>
</trkpt>
<trkpt lat="40.0709703" lon="-105.2298701">
  <ele>1583.0</ele>
  <time>2026-08-29T19:30:00Z</time>
  <course>133.36</course>
  <speed>1.76</speed>
  <fix>3d</fix>
</trkpt>
<trkpt lat="40.0709663" lon="-105.2298654">
  <ele>1583.04</ele>
  <time>2026-08-29T19:30:00Z</time>
  <course>134.57</course>
  <speed>1.6688319268278635</speed>
  <fix>3d</fix>
</trkpt>
<trkpt lat="40.0709681" lon="-105.2298672">
  <ele>1583.0</ele>
  <time>2026-08-29T19:30:00Z</time>
  <course>133.65</course>
  <speed>1.72</speed>
  <fix>3d</fix>
</trkpt>
<trkpt lat="40.0709653" lon="-105.229864">
  <ele>1583.04</ele>
  <time>2026-08-29T19:30:00Z</time>
  <course>134.79</course>
  <speed>1.6546903033498443</speed>
  <fix>3d</fix>
</trkpt>
<trkpt lat="40.0709681" lon="-105.2298672">
  <ele>1583.0</ele>
  <time>2026-08-29T19:30:00Z</time>
  <course>133.65</course>
  <speed>1.72</speed>
  <fix>3d</fix>
</trkpt>
<trkpt lat="40.0709642" lon="-105.2298626">
  <ele>1583.04</ele>
  <time>2026-08-29T19:30:00Z</time>
  <course>136.11</course>
  <speed>1.6414627622946554</speed>
  <fix>3d</fix>
</trkpt>
<trkpt lat="40.070966" lon="-105.2298643">
  <ele>1583.0</ele>
  <time>2026-08-29T19:30:00Z</time>
  <course>134.36</course>
  <speed>1.68</speed>
  <fix>3d</fix>
</trkpt>
<trkpt lat="40.0709631" lon="-105.2298612">
  <ele>1583.04</ele>
  <time>2026-08-29T19:30:00Z</time>
  <course>138.54</course>
  <speed>1.623730273167314</speed>
  <fix>3d</fix>
</trkpt>
<trkpt lat="40.070966" lon="-105.2298643">
  <ele>1583.0</ele>
  <time>2026-08-29T19:30:00Z</time>
  <course>134.36</course>
  <speed>1.68</speed>
  <fix>3d</fix>
</trkpt>
<trkpt lat="40.070962" lon="-105.22986">
  <ele>1583.04</ele>
  <time>2026-08-29T19:30:00Z</time>
  <course>142.07</course>
  <speed>1.6060199251565965</speed>
  <fix>3d</fix>
</trkpt>
<trkpt lat="40.0709638" lon="-105.2298615">
  <ele>1583.0</ele>
  <time>2026-08-29T19:30:00Z</time>
  <course>137.73</course>
  <speed>1.64</speed>
  <fix>3d</fix>
</trkpt>
<trkpt lat="40.0709608" lon="-105.2298589">
  <ele>1583.04</ele>
  <time>2026-08-29T19:30:00Z</time>
  <course>146.68</course>
  <speed>1.5868522300453813</speed>
  <fix>3d</fix>
</trkpt>
<trkpt lat="40.0709638" lon="-105.2298615">
  <ele>1583.0</ele>
  <time>2026-08-29T19:30:00Z</time>
  <course>137.73</course>
  <speed>1.64</speed>
  <fix>3d</fix>
</trkpt>
<trkpt lat="40.0709596" lon="-105.229858">
  <ele>1583.04</ele>
  <time>2026-08-29T19:30:00Z</time>
  <course>152.19</course>
  <speed>1.5563097378092832</speed>
  <fix>3d</fix>
</trkpt>
<trkpt lat="40.0709615" lon="-105.2298591">
  <ele>1583.0</ele>
  <time>2026-08-29T19:30:00Z</time>
  <course>145.38</course>
  <speed>1.6</speed>
  <fix>3d</fix>
</trkpt>
<trkpt lat="40.0709584" lon="-105.2298572">
  <ele>1583.04</ele>
  <time>2026-08-29T19:30:00Z</time>
  <course>157.72</course>
  <speed>1.5192103211866352</speed>
  <fix>3d</fix>
</trkpt>
<trkpt lat="40.0709615" lon="-105.2298591">
  <ele>1583.0</ele>
  <time>2026-08-29T19:30:00Z</time>
  <course>145.38</course>
  <speed>1.6</speed>
  <fix>3d</fix>
</trkpt>
<trkpt lat="40.0709571" lon="-105.2298566">
  <ele>1583.04</ele>
  <time>2026-08-29T19:30:00Z</time>
  <course>163.24</course>
  <speed>1.472582765076381</speed>
  <fix>3d</fix>
</trkpt>
<trkpt lat="40.0709591" lon="-105.2298573">
  <ele>1583.0</ele>
  <time>2026-08-29T19:30:00Z</time>
  <course>155.73</course>
  <speed>1.53</speed>
  <fix>3d</fix>
</trkpt>
<trkpt lat="40.0709559" lon="-105.2298562">
  <ele>1583.04</ele>
  <time>2026-08-29T19:30:00Z</time>
  <course>168.76</course>
  <speed>1.4105672617780407</speed>
  <fix>3d</fix>
</trkpt>
<trkpt lat="40.0709591" lon="-105.2298573">
  <ele>1583.0</ele>
  <time>2026-08-29T19:30:00Z</time>
  <course>155.73</course>
  <speed>1.53</speed>
  <fix>3d</fix>
</trkpt>
<trkpt lat="40.0709547" lon="-105.229856">
  <ele>1583.04</ele>
  <time>2026-08-29T19:30:00Z</time>
  <course>174.28</course>
  <speed>1.3536986370680884</speed>
  <fix>3d</fix>
</trkpt>
<trkpt lat="40.0709566" lon="-105.2298562">
  <ele>1583.0</ele>
  <time>2026-08-29T19:30:00Z</time>
  <course>166.72</course>
  <speed>1.43</speed>
  <fix>3d</fix>
</trkpt>
<trkpt lat="40.0709537" lon="-105.2298559">
  <ele>1583.04</ele>
  <time>2026-08-29T19:30:00Z</time>
  <course>178.74</course>
  <speed>1.3</speed>
  <fix>3d</fix>
</trkpt>
<trkpt lat="40.0709566" lon="-105.2298562">
  <ele>1583.0</ele>
  <time>2026-08-29T19:30:00Z</time>
  <course>166.72</course>
  <speed>1.43</speed>
  <fix>3d</fix>
</trkpt>
<trkpt lat="40.0709526" lon="-105.229856">
  <ele>1583.04</ele>
  <time>2026-08-29T19:30:00Z</time>
  <course>184.26</course>
  <speed>1.2358397954427587</speed>
  <fix>3d</fix>
</trkpt>
<trkpt lat="40.0709541" lon="-105.2298557">
  <ele>1583.0</ele>
  <time>2026-08-29T19:30:00Z</time>
  <course>177.72</course>
  <speed>1.31</speed>
  <fix>3d</fix>
</trkpt>
<trkpt lat="40.0709515" lon="-105.2298561">
  <ele>1583.04</ele>
  <time>2026-08-29T19:30:00Z</time>
  <course>189.77</course>
  <speed>1.1825819210524064</speed>
  <fix>3d</fix>
</trkpt>
<trkpt lat="40.0709541" lon="-105.2298557">
  <ele>1583.0</ele>
  <time>2026-08-29T19:30:00Z</time>
  <course>177.72</course>
  <speed>1.31</speed>
  <fix>3d</fix>
</trkpt>
<trkpt lat="40.0709505" lon="-105.2298564">
  <ele>1583.04</ele>
  <time>2026-08-29T19:30:00Z</time>
  <course>195.22</course>
  <speed>1.1484337159801605</speed>
  <fix>3d</fix>
</trkpt>
<trkpt lat="40.0709519" lon="-105.2298558">
  <ele>1583.0</ele>
  <time>2026-08-29T19:30:00Z</time>
  <course>188.78</course>
  <speed>1.19</speed>
  <fix>3d</fix>
</trkpt>
<trkpt lat="40.0709496" lon="-105.2298568">
  <ele>1583.04</ele>
  <time>2026-08-29T19:30:00Z</time>
  <course>200.25</course>
  <speed>1.1216059914247962</speed>
  <fix>3d</fix>
</trkpt>
<trkpt lat="40.0709519" lon="-105.2298558">
  <ele>1583.0</ele>
  <time>2026-08-29T19:30:00Z</time>
  <course>188.78</course>
  <speed>1.19</speed>
  <fix>3d</fix>
</trkpt>
<trkpt lat="40.0709487" lon="-105.2298574">
  <ele>1583.04</ele>
  <time>2026-08-29T19:30:00Z</time>
  <course>204.42</course>
  <speed>1.1046266337545914</speed>
  <fix>3d</fix>
</trkpt>
<trkpt lat="40.0709499" lon="-105.2298565">
  <ele>1583.0</ele>
  <time>2026-08-29T19:30:00Z</time>
  <course>199.0</course>
  <speed>1.12</speed>
  <fix>3d</fix>
</trkpt>
<trkpt lat="40.0709478" lon="-105.2298579">
  <ele>1583.04</ele>
  <time>2026-08-29T19:30:00Z</time>
  <course>207.93</course>
  <speed>1.092748827498799</speed>
  <fix>3d</fix>
</trkpt>
<trkpt lat="40.0709499" lon="-105.2298565">
  <ele>1583.0</ele>
  <time>2026-08-29T19:30:00Z</time>
  <course>199.0</course>
  <speed>1.12</speed>
  <fix>3d</fix>
</trkpt>
<trkpt lat="40.0709469" lon="-105.2298586">
  <ele>1583.04</ele>
  <time>2026-08-29T19:30:00Z</time>
  <course>210.89</course>
  <speed>1.1013627921806692</speed>
  <fix>3d</fix>
</trkpt>
<trkpt lat="40.070948" lon="-105.2298575">
  <ele>1583.0</ele>
  <time>2026-08-29T19:30:00Z</time>
  <course>206.9</course>
  <speed>1.1</speed>
  <fix>3d</fix>
</trkpt>
<trkpt lat="40.0709461" lon="-105.2298593">
  <ele>1583.04</ele>
  <time>2026-08-29T19:30:00Z</time>
  <course>213.33</course>
  <speed>1.0985900054160331</speed>
  <fix>3d</fix>
</trkpt>
<trkpt lat="40.070948" lon="-105.2298575">
  <ele>1583.0</ele>
  <time>2026-08-29T19:30:00Z</time>
  <course>206.9</course>
  <speed>1.1</speed>
  <fix>3d</fix>
</trkpt>
<trkpt lat="40.0709453" lon="-105.22986">
  <ele>1583.04</ele>
  <time>2026-08-29T19:30:00Z</time>
  <course>215.38</course>
  <speed>1.1060289327137875</speed>
  <fix>3d</fix>
</trkpt>
<trkpt lat="40.0709463" lon="-105.2298587">
  <ele>1583.0</ele>
  <time>2026-08-29T19:30:00Z</time>
  <course>212.38</course>
  <speed>1.1</speed>
  <fix>3d</fix>
</trkpt>
<trkpt lat="40.0709443" lon="-105.229861">
  <ele>1583.04</ele>
  <time>2026-08-29T19:30:00Z</time>
  <course>217.51</course>
  <speed>1.108873302050329</speed>
  <fix>3d</fix>
</trkpt>
<trkpt lat="40.0709463" lon="-105.2298587">
  <ele>1583.0</ele>
  <time>2026-08-29T19:30:00Z</time>
  <course>212.38</course>
  <speed>1.1</speed>
  <fix>3d</fix>
</trkpt>
<trkpt lat="40.0709436" lon="-105.2298618">
  <ele>1583.04</ele>
  <time>2026-08-29T19:30:00Z</time>
  <course>219.14</course>
  <speed>1.120446339634344</speed>
  <fix>3d</fix>
</trkpt>
<trkpt lat="40.0709447" lon="-105.2298602">
  <ele>1583.0</ele>
  <time>2026-08-29T19:30:00Z</time>
  <course>216.36</course>
  <speed>1.11</speed>
  <fix>3d</fix>
</trkpt>
<trkpt lat="40.0709428" lon="-105.2298626">
  <ele>1583.04</ele>
  <time>2026-08-29T19:30:00Z</time>
  <course>220.62</course>
  <speed>1.1327841806805037</speed>
  <fix>3d</fix>
</trkpt>
<trkpt lat="40.0709447" lon="-105.2298602">
  <ele>1583.0</ele>
  <time>2026-08-29T19:30:00Z</time>
  <course>216.36</course>
  <speed>1.11</speed>
  <fix>3d</fix>
</trkpt>
<trkpt lat="40.070942" lon="-105.2298635">
  <ele>1583.04</ele>
  <time>2026-08-29T19:30:00Z</time>
  <course>221.99</course>
  <speed>1.1389907813498754</speed>
  <fix>3d</fix>
</trkpt>
<trkpt lat="40.070943" lon="-105.2298619">
  <ele>1583.0</ele>
  <time>2026-08-29T19:30:00Z</time>
  <course>219.54</course>
  <speed>1.12</speed>
  <fix>3d</fix>
</trkpt>
<trkpt lat="40.0709413" lon="-105.2298644">
  <ele>1583.04</ele>
  <time>2026-08-29T19:30:00Z</time>
  <course>223.24</course>
  <speed>1.1526057435220423</speed>
  <fix>3d</fix>
</trkpt>
<trkpt lat="40.070943" lon="-105.2298619">
  <ele>1583.0</ele>
  <time>2026-08-29T19:30:00Z</time>
  <course>219.54</course>
  <speed>1.12</speed>
  <fix>3d</fix>
</trkpt>
<trkpt lat="40.0709405" lon="-105.2298653">
  <ele>1583.03</ele>
  <time>2026-08-29T19:30:00Z</time>
  <course>224.39</course>
  <speed>1.1738824472663352</speed>
  <fix>3d</fix>
</trkpt>
<trkpt lat="40.0709415" lon="-105.2298637">
  <ele>1583.0</ele>
  <time>2026-08-29T19:30:00Z</time>
  <course>222.22</course>
  <speed>1.15</speed>
  <fix>3d</fix>
</trkpt>
<trkpt lat="40.0709397" lon="-105.2298663">
  <ele>1583.03</ele>
  <time>2026-08-29T19:30:00Z</time>
  <course>225.44</course>
  <speed>1.1955333537798098</speed>
  <fix>3d</fix>
</trkpt>
<trkpt lat="40.0709415" lon="-105.2298637">
  <ele>1583.0</ele>
  <time>2026-08-29T19:30:00Z</time>
  <course>222.22</course>
  <speed>1.15</speed>
  <fix>3d</fix>
</trkpt>
<trkpt lat="40.070939" lon="-105.2298673">
  <ele>1583.03</ele>
  <time>2026-08-29T19:30:00Z</time>
  <course>226.41</course>
  <speed>1.2101652779682617</speed>
  <fix>3d</fix>
</trkpt>
<trkpt lat="40.07094" lon="-105.2298655">
  <ele>1583.0</ele>
  <time>2026-08-29T19:30:00Z</time>
  <course>224.48</course>
  <speed>1.18</speed>
  <fix>3d</fix>
</trkpt>
<trkpt lat="40.0709382" lon="-105.2298683">
  <ele>1583.03</ele>
  <time>2026-08-29T19:30:00Z</time>
  <course>227.31</course>
  <speed>1.239072233568326</speed>
  <fix>3d</fix>
</trkpt>
<trkpt lat="40.07094" lon="-105.2298655">
  <ele>1583.0</ele>
  <time>2026-08-29T19:30:00Z</time>
  <course>224.48</course>
  <speed>1.18</speed>
  <fix>3d</fix>
</trkpt>
<trkpt lat="40.0709375" lon="-105.2298694">
  <ele>1583.03</ele>
  <time>2026-08-29T19:30:00Z</time>
  <course>228.12</course>
  <speed>1.2615070352558484</speed>
  <fix>3d</fix>
</trkpt>
<trkpt lat="40.0709385" lon="-105.2298675">
  <ele>1583.0</ele>
  <time>2026-08-29T19:30:00Z</time>
  <course>226.37</course>
  <speed>1.23</speed>
  <fix>3d</fix>
</trkpt>
<trkpt lat="40.0709367" lon="-105.2298705">
  <ele>1583.03</ele>
  <time>2026-08-29T19:30:00Z</time>
  <course>228.88</course>
  <speed>1.2842507543311004</speed>
  <fix>3d</fix>
</trkpt>
<trkpt lat="40.0709385" lon="-105.2298675">
  <ele>1583.0</ele>
  <time>2026-08-29T19:30:00Z</time>
  <course>226.37</course>
  <speed>1.23</speed>
  <fix>3d</fix>
</trkpt>
<trkpt lat="40.0709361" lon="-105.2298714">
  <ele>1583.04</ele>
  <time>2026-08-29T19:30:00Z</time>
  <course>229.44</course>
  <speed>1.3059862173851606</speed>
  <fix>3d</fix>
</trkpt>
<trkpt lat="40.070937" lon="-105.2298697">
  <ele>1583.0</ele>
  <time>2026-08-29T19:30:00Z</time>
  <course>227.97</course>
  <speed>1.27</speed>
  <fix>3d</fix>
</trkpt>
<trkpt lat="40.0709353" lon="-105.2298726">
  <ele>1583.04</ele>
  <time>2026-08-29T19:30:00Z</time>
  <course>230.1</course>
  <speed>1.3290974381135492</speed>
  <fix>3d</fix>
</trkpt>
<trkpt lat="40.070937" lon="-105.2298697">
  <ele>1583.0</ele>
  <time>2026-08-29T19:30:00Z</time>
  <course>227.97</course>
  <speed>1.27</speed>
  <fix>3d</fix>
</trkpt>
<trkpt lat="40.0709346" lon="-105.2298738">
  <ele>1583.04</ele>
  <time>2026-08-29T19:30:00Z</time>
  <course>230.7</course>
  <speed>1.3509256086106296</speed>
  <fix>3d</fix>
</trkpt>
<trkpt lat="40.0709354" lon="-105.229872">
  <ele>1583.0</ele>
  <time>2026-08-29T19:30:00Z</time>
  <course>229.33</course>
  <speed>1.32</speed>
  <fix>3d</fix>
</trkpt>
<trkpt lat="40.0709338" lon="-105.229875">
  <ele>1583.04</ele>
  <time>2026-08-29T19:30:00Z</time>
  <course>231.25</course>
  <speed>1.3805795884337855</speed>
  <fix>3d</fix>
</trkpt>
<trkpt lat="40.0709354" lon="-105.229872">
  <ele>1583.0</ele>
  <time>2026-08-29T19:30:00Z</time>
  <course>229.33</course>
  <speed>1.32</speed>
  <fix>3d</fix>
</trkpt>
<trkpt lat="40.070933" lon="-105.2298763">
  <ele>1583.04</ele>
  <time>2026-08-29T19:30:01Z</time>
  <course>231.76</course>
  <speed>1.4041723540933284</speed>
  <fix>3d</fix>
</trkpt>
<trkpt lat="40.0709339" lon="-105.2298744">
  <ele>1583.0</ele>
  <time>2026-08-29T19:30:01Z</time>
  <course>230.49</course>
  <speed>1.37</speed>
  <fix>3d</fix>
</trkpt>
<trkpt lat="40.0709322" lon="-105.2298775">
  <ele>1583.04</ele>
  <time>2026-08-29T19:30:01Z</time>
  <course>232.23</course>
  <speed>1.4261135999632006</speed>
  <fix>3d</fix>
</trkpt>
<trkpt lat="40.0709339" lon="-105.2298744">
  <ele>1583.0</ele>
  <time>2026-08-29T19:30:01Z</time>
  <course>230.49</course>
  <speed>1.37</speed>
  <fix>3d</fix>
</trkpt>
<trkpt lat="40.0709314" lon="-105.2298789">
  <ele>1583.04</ele>
  <time>2026-08-29T19:30:01Z</time>
  <course>232.67</course>
  <speed>1.4560219778561037</speed>
  <fix>3d</fix>
</trkpt>
<trkpt lat="40.0709322" lon="-105.2298769">
  <ele>1583.0</ele>
  <time>2026-08-29T19:30:01Z</time>
  <course>231.48</course>
  <speed>1.42</speed>
  <fix>3d</fix>
</trkpt>
<trkpt lat="40.0709306" lon="-105.2298802">
  <ele>1583.04</ele>
  <time>2026-08-29T19:30:01Z</time>
  <course>233.09</course>
  <speed>1.4720054347725757</speed>
  <fix>3d</fix>
</trkpt>
<trkpt lat="40.0709322" lon="-105.2298769">
  <ele>1583.0</ele>
  <time>2026-08-29T19:30:01Z</time>
  <course>231.48</course>
  <speed>1.42</speed>
  <fix>3d</fix>
</trkpt>
<trkpt lat="40.0709297" lon="-105.2298816">
  <ele>1583.04</ele>
  <time>2026-08-29T19:30:01Z</time>
  <course>233.46</course>
  <speed>1.4940214188558343</speed>
  <fix>3d</fix>
</trkpt>
<trkpt lat="40.0709307" lon="-105.2298797">
  <ele>1583.0</ele>
  <time>2026-08-29T19:30:01Z</time>
  <course>232.33</course>
  <speed>1.47</speed>
  <fix>3d</fix>
</trkpt>
<trkpt lat="40.0709289" lon="-105.229883">
  <ele>1583.04</ele>
  <time>2026-08-29T19:30:01Z</time>
  <course>233.76</course>
  <speed>1.516047492659778</speed>
  <fix>3d</fix>
</trkpt>
<trkpt lat="40.0709307" lon="-105.2298797">
  <ele>1583.0</ele>
  <time>2026-08-29T19:30:01Z</time>
  <course>232.33</course>
  <speed>1.47</speed>
  <fix>3d</fix>
</trkpt>
<trkpt lat="40.0709279" lon="-105.2298848">
  <ele>1583.04</ele>
  <time>2026-08-29T19:30:01Z</time>
  <course>234.03</course>
  <speed>1.5321879780235843</speed>
  <fix>3d</fix>
</trkpt>
<trkpt lat="40.0709291" lon="-105.2298825">
  <ele>1583.0</ele>
  <time>2026-08-29T19:30:01Z</time>
  <course>232.98</course>
  <speed>1.51</speed>
  <fix>3d</fix>
</trkpt>
<trkpt lat="40.0709271" lon="-105.2298862">
  <ele>1583.03</ele>
  <time>2026-08-29T19:30:01Z</time>
  <course>234.19</course>
  <speed>1.554252231782216</speed>
  <fix>3d</fix>
</trkpt>
<trkpt lat="40.0709291" lon="-105.2298825">
  <ele>1583.0</ele>
  <time>2026-08-29T19:30:01Z</time>
  <course>232.98</course>
  <speed>1.51</speed>
  <fix>3d</fix>
</trkpt>
<trkpt lat="40.0709262" lon="-105.2298877">
  <ele>1583.04</ele>
  <time>2026-08-29T19:30:01Z</time>
  <course>234.29</course>
  <speed>1.5682155464093577</speed>
  <fix>3d</fix>
</trkpt>
<trkpt lat="40.0709274" lon="-105.2298853">
  <ele>1583.0</ele>
  <time>2026-08-29T19:30:01Z</time>
  <course>233.39</course>
  <speed>1.54</speed>
  <fix>3d</fix>
</trkpt>
<trkpt lat="40.0709254" lon="-105.2298892">
  <ele>1583.04</ele>
  <time>2026-08-29T19:30:01Z</time>
  <course>234.33</course>
  <speed>1.5902829936838285</speed>
  <fix>3d</fix>
</trkpt>
<trkpt lat="40.0709274" lon="-105.2298853">
  <ele>1583.0</ele>
  <time>2026-08-29T19:30:01Z</time>
  <course>233.39</course>
  <speed>1.54</speed>
  <fix>3d</fix>
</trkpt>
<trkpt lat="40.0709245" lon="-105.2298907">
  <ele>1583.04</ele>
  <time>2026-08-29T19:30:01Z</time>
  <course>234.33</course>
  <speed>1.604244370412438</speed>
  <fix>3d</fix>
</trkpt>
<trkpt lat="40.0709257" lon="-105.2298883">
  <ele>1583.0</ele>
  <time>2026-08-29T19:30:01Z</time>
  <course>233.55</course>
  <speed>1.58</speed>
  <fix>3d</fix>
</trkpt>
<trkpt lat="40.0709237" lon="-105.2298922">
  <ele>1583.04</ele>
  <time>2026-08-29T19:30:01Z</time>
  <course>234.28</course>
  <speed>1.6182088863926065</speed>
  <fix>3d</fix>
</trkpt>
<trkpt lat="40.0709257" lon="-105.2298883">
  <ele>1583.0</ele>
  <time>2026-08-29T19:30:01Z</time>
  <course>233.55</course>
  <speed>1.58</speed>
  <fix>3d</fix>
</trkpt>
<trkpt lat="40.0709228" lon="-105.2298938">
  <ele>1583.04</ele>
  <time>2026-08-29T19:30:01Z</time>
  <course>234.19</course>
  <speed>1.6240997506310995</speed>
  <fix>3d</fix>
</trkpt>
<trkpt lat="40.070924" lon="-105.2298913">
  <ele>1583.0</ele>
  <time>2026-08-29T19:30:01Z</time>
  <course>233.52</course>
  <speed>1.6</speed>
  <fix>3d</fix>
</trkpt>
<trkpt lat="40.0709219" lon="-105.2298953">
  <ele>1583.05</ele>
  <time>2026-08-29T19:30:01Z</time>
  <course>234.05</course>
  <speed>1.638078142214223</speed>
  <fix>3d</fix>
</trkpt>
<trkpt lat="40.070924" lon="-105.2298913">
  <ele>1583.0</ele>
  <time>2026-08-29T19:30:01Z</time>
  <course>233.52</course>
  <speed>1.6</speed>
  <fix>3d</fix>
</trkpt>
<trkpt lat="40.0709211" lon="-105.2298968">
  <ele>1583.05</ele>
  <time>2026-08-29T19:30:01Z</time>
  <course>233.87</course>
  <speed>1.6440194646049662</speed>
  <fix>3d</fix>
</trkpt>
<trkpt lat="40.0709222" lon="-105.2298943">
  <ele>1583.0</ele>
  <time>2026-08-29T19:30:01Z</time>
  <course>233.3</course>
  <speed>1.63</speed>
  <fix>3d</fix>
</trkpt>
<trkpt lat="40.0709202" lon="-105.2298983">
  <ele>1583.05</ele>
  <time>2026-08-29T19:30:01Z</time>
  <course>233.64</course>
  <speed>1.65</speed>
  <fix>3d</fix>
</trkpt>
<trkpt lat="40.0709222" lon="-105.2298943">
  <ele>1583.0</ele>
  <time>2026-08-29T19:30:01Z</time>
  <course>233.3</course>
  <speed>1.63</speed>
  <fix>3d</fix>
</trkpt>
<trkpt lat="40.0709193" lon="-105.2298998">
  <ele>1583.05</ele>
  <time>2026-08-29T19:30:01Z</time>
  <course>233.38</course>
  <speed>1.6560193235587561</speed>
  <fix>3d</fix>
</trkpt>
<trkpt lat="40.0709205" lon="-105.2298974">
  <ele>1583.0</ele>
  <time>2026-08-29T19:30:01Z</time>
  <course>232.91</course>
  <speed>1.65</speed>
  <fix>3d</fix>
</trkpt>
<trkpt lat="40.0709185" lon="-105.2299011">
  <ele>1583.04</ele>
  <time>2026-08-29T19:30:01Z</time>
  <course>233.14</course>
  <speed>1.6620770138594663</speed>
  <fix>3d</fix>
</trkpt>
<trkpt lat="40.0709205" lon="-105.2298974">
  <ele>1583.0</ele>
  <time>2026-08-29T19:30:01Z</time>
  <course>232.91</course>
  <speed>1.65</speed>
  <fix>3d</fix>
</trkpt>
<trkpt lat="40.0709176" lon="-105.2299026">
  <ele>1583.04</ele>
  <time>2026-08-29T19:30:01Z</time>
  <course>232.82</course>
  <speed>1.6681726529349412</speed>
  <fix>3d</fix>
</trkpt>
<trkpt lat="40.0709186" lon="-105.2299005">
  <ele>1583.0</ele>
  <time>2026-08-29T19:30:01Z</time>
  <course>232.36</course>
  <speed>1.66</speed>
  <fix>3d</fix>
</trkpt>
<trkpt lat="40.0709167" lon="-105.2299041">
  <ele>1583.04</ele>
  <time>2026-08-29T19:30:01Z</time>
  <course>232.46</course>
  <speed>1.666433316997713</speed>
  <fix>3d</fix>
</trkpt>
<trkpt lat="40.0709186" lon="-105.2299005">
  <ele>1583.0</ele>
  <time>2026-08-29T19:30:01Z</time>
  <course>232.36</course>
  <speed>1.66</speed>
  <fix>3d</fix>
</trkpt>
<trkpt lat="40.0709157" lon="-105.2299056">
  <ele>1583.04</ele>
  <time>2026-08-29T19:30:01Z</time>
  <course>232.08</course>
  <speed>1.6726326554267679</speed>
  <fix>3d</fix>
</trkpt>
<trkpt lat="40.0709168" lon="-105.2299036">
  <ele>1583.0</ele>
  <time>2026-08-29T19:30:01Z</time>
  <course>231.68</course>
  <speed>1.67</speed>
  <fix>3d</fix>
</trkpt>
<trkpt lat="40.0709148" lon="-105.2299072">
  <ele>1583.04</ele>
  <time>2026-08-29T19:30:01Z</time>
  <course>231.66</course>
  <speed>1.6710774967068402</speed>
  <fix>3d</fix>
</trkpt>
<trkpt lat="40.0709168" lon="-105.2299036">
  <ele>1583.0</ele>
  <time>2026-08-29T19:30:01Z</time>
  <course>231.68</course>
  <speed>1.67</speed>
  <fix>3d</fix>
</trkpt>
<trkpt lat="40.0709138" lon="-105.2299087">
  <ele>1583.04</ele>
  <time>2026-08-29T19:30:01Z</time>
  <course>231.21</course>
  <speed>1.676007159889241</speed>
  <fix>3d</fix>
</trkpt>
<trkpt lat="40.0709149" lon="-105.2299067">
  <ele>1583.0</ele>
  <time>2026-08-29T19:30:01Z</time>
  <course>230.87</course>
  <speed>1.68</speed>
  <fix>3d</fix>
</trkpt>
<trkpt lat="40.0709128" lon="-105.2299102">
  <ele>1583.04</ele>
  <time>2026-08-29T19:30:01Z</time>
  <course>230.74</course>
  <speed>1.6747537132366657</speed>
  <fix>3d</fix>
</trkpt>
<trkpt lat="40.0709149" lon="-105.2299067">
  <ele>1583.0</ele>
  <time>2026-08-29T19:30:01Z</time>
  <course>230.87</course>
  <speed>1.68</speed>
  <fix>3d</fix>
</trkpt>
<trkpt lat="40.0709118" lon="-105.2299117">
  <ele>1583.04</ele>
  <time>2026-08-29T19:30:01Z</time>
  <course>230.24</course>
  <speed>1.6736188335460378</speed>
  <fix>3d</fix>
</trkpt>
<trkpt lat="40.070913" lon="-105.2299098">
  <ele>1583.0</ele>
  <time>2026-08-29T19:30:01Z</time>
  <course>229.95</course>
  <speed>1.68</speed>
  <fix>3d</fix>
</trkpt>
<trkpt lat="40.0709108" lon="-105.2299132">
  <ele>1583.04</ele>
  <time>2026-08-29T19:30:01Z</time>
  <course>229.72</course>
  <speed>1.672602762164406</speed>
  <fix>3d</fix>
</trkpt>
<trkpt lat="40.070913" lon="-105.2299098">
  <ele>1583.0</ele>
  <time>2026-08-29T19:30:01Z</time>
  <course>229.95</course>
  <speed>1.68</speed>
  <fix>3d</fix>
</trkpt>
<trkpt lat="40.0709098" lon="-105.2299147">
  <ele>1583.04</ele>
  <time>2026-08-29T19:30:01Z</time>
  <course>229.17</course>
  <speed>1.6717057157286985</speed>
  <fix>3d</fix>
</trkpt>
<trkpt lat="40.0709111" lon="-105.2299127">
  <ele>1583.0</ele>
  <time>2026-08-29T19:30:01Z</time>
  <course>228.93</course>
  <speed>1.67</speed>
  <fix>3d</fix>
</trkpt>
<trkpt lat="40.0709086" lon="-105.2299165">
  <ele>1583.04</ele>
  <time>2026-08-29T19:30:01Z</time>
  <course>228.48</course>
  <speed>1.6635203635663738</speed>
  <fix>3d</fix>
</trkpt>
<trkpt lat="40.0709111" lon="-105.2299127">
  <ele>1583.0</ele>
  <time>2026-08-29T19:30:01Z</time>
  <course>228.93</course>
  <speed>1.67</speed>
  <fix>3d</fix>
</trkpt>
<trkpt lat="40.0709076" lon="-105.2299179">
  <ele>1583.04</ele>
  <time>2026-08-29T19:30:01Z</time>
  <course>227.89</course>
  <speed>1.6555965692160635</speed>
  <fix>3d</fix>
</trkpt>
<trkpt lat="40.070909" lon="-105.2299157">
  <ele>1583.0</ele>
  <time>2026-08-29T19:30:01Z</time>
  <course>227.81</course>
  <speed>1.67</speed>
  <fix>3d</fix>
</trkpt>
<trkpt lat="40.0709065" lon="-105.2299193">
  <ele>1583.04</ele>
  <time>2026-08-29T19:30:01Z</time>
  <course>227.28</course>
  <speed>1.6551737068960466</speed>
  <fix>3d</fix>
</trkpt>
<trkpt lat="40.070909" lon="-105.2299157">
  <ele>1583.0</ele>
  <time>2026-08-29T19:30:01Z</time>
  <course>227.81</course>
  <speed>1.67</speed>
  <fix>3d</fix>
</trkpt>
<trkpt lat="40.0709055" lon="-105.2299207">
  <ele>1583.04</ele>
  <time>2026-08-29T19:30:01Z</time>
  <course>226.65</course>
  <speed>1.6476953601925328</speed>
  <fix>3d</fix>
</trkpt>
<trkpt lat="40.0709071" lon="-105.2299185">
  <ele>1583.0</ele>
  <time>2026-08-29T19:30:01Z</time>
  <course>226.61</course>
  <speed>1.66</speed>
  <fix>3d</fix>
</trkpt>
<trkpt lat="40.0709044" lon="-105.2299221">
  <ele>1583.04</ele>
  <time>2026-08-29T19:30:01Z</time>
  <course>225.88</course>
  <speed>1.6404877323527902</speed>
  <fix>3d</fix>
</trkpt>
<trkpt lat="40.0709071" lon="-105.2299185">
  <ele>1583.0</ele>
  <time>2026-08-29T19:30:01Z</time>
  <course>226.61</course>
  <speed>1.66</speed>
  <fix>3d</fix>
</trkpt>
<trkpt lat="40.0709034" lon="-105.2299234">
  <ele>1583.04</ele>
  <time>2026-08-29T19:30:01Z</time>
  <course>224.7</course>
  <speed>1.633799253274404</speed>
  <fix>3d</fix>
</trkpt>
<trkpt lat="40.070905" lon="-105.2299214">
  <ele>1583.0</ele>
  <time>2026-08-29T19:30:01Z</time>
  <course>225.08</course>
  <speed>1.64</speed>
  <fix>3d</fix>
</trkpt>
<trkpt lat="40.0709023" lon="-105.2299247">
  <ele>1583.04</ele>
  <time>2026-08-29T19:30:01Z</time>
  <course>223.11</course>
  <speed>1.621141573089778</speed>
  <fix>3d</fix>
</trkpt>
<trkpt lat="40.070905" lon="-105.2299214">
  <ele>1583.0</ele>
  <time>2026-08-29T19:30:01Z</time>
  <course>225.08</course>
  <speed>1.64</speed>
  <fix>3d</fix>
</trkpt>
<trkpt lat="40.0709012" lon="-105.229926">
  <ele>1583.05</ele>
  <time>2026-08-29T19:30:01Z</time>
  <course>221.02</course>
  <speed>1.6043067038443741</speed>
  <fix>3d</fix>
</trkpt>
<trkpt lat="40.0709029" lon="-105.2299241">
  <ele>1583.0</ele>
  <time>2026-08-29T19:30:01Z</time>
  <course>222.43</course>
  <speed>1.63</speed>
  <fix>3d</fix>
</trkpt>
<trkpt lat="40.0709001" lon="-105.2299271">
  <ele>1583.05</ele>
  <time>2026-08-29T19:30:01Z</time>
  <course>218.32</course>
  <speed>1.5980613254815976</speed>
  <fix>3d</fix>
</trkpt>
<trkpt lat="40.0709029" lon="-105.2299241">
  <ele>1583.0</ele>
  <time>2026-08-29T19:30:01Z</time>
  <course>222.43</course>
  <speed>1.63</speed>
  <fix>3d</fix>
</trkpt>
<trkpt lat="40.070899" lon="-105.2299282">
  <ele>1583.05</ele>
  <time>2026-08-29T19:30:01Z</time>
  <course>214.93</course>
  <speed>1.578131806916013</speed>
  <fix>3d</fix>
</trkpt>
<trkpt lat="40.0709006" lon="-105.2299265">
  <ele>1583.0</ele>
  <time>2026-08-29T19:30:01Z</time>
  <course>217.78</course>
  <speed>1.6</speed>
  <fix>3d</fix>
</trkpt>
<trkpt lat="40.0708978" lon="-105.2299292">
  <ele>1583.05</ele>
  <time>2026-08-29T19:30:01Z</time>
  <course>210.67</course>
  <speed>1.5492256130079958</speed>
  <fix>3d</fix>
</trkpt>
<trkpt lat="40.0709006" lon="-105.2299265">
  <ele>1583.0</ele>
  <time>2026-08-29T19:30:01Z</time>
  <course>217.78</course>
  <speed>1.6</speed>
  <fix>3d</fix>
</trkpt>
<trkpt lat="40.0708968" lon="-105.2299298">
  <ele>1583.05</ele>
  <time>2026-08-29T19:30:01Z</time>
  <course>206.59</course>
  <speed>1.525417975507041</speed>
  <fix>3d</fix>
</trkpt>
<trkpt lat="40.0708982" lon="-105.2299286">
  <ele>1583.0</ele>
  <time>2026-08-29T19:30:01Z</time>
  <course>210.39</course>
  <speed>1.55</speed>
  <fix>3d</fix>
</trkpt>
<trkpt lat="40.0708955" lon="-105.2299305">
  <ele>1583.05</ele>
  <time>2026-08-29T19:30:01Z</time>
  <course>201.14</course>
  <speed>1.477193284577208</speed>
  <fix>3d</fix>
</trkpt>
<trkpt lat="40.0708982" lon="-105.2299286">
  <ele>1583.0</ele>
  <time>2026-08-29T19:30:01Z</time>
  <course>210.39</course>
  <speed>1.55</speed>
  <fix>3d</fix>
</trkpt>
<trkpt lat="40.0708943" lon="-105.229931">
  <ele>1583.05</ele>
  <time>2026-08-29T19:30:01Z</time>
  <course>195.73</course>
  <speed>1.4236923825040295</speed>
  <fix>3d</fix>
</trkpt>
<trkpt lat="40.0708958" lon="-105.2299301">
  <ele>1583.0</ele>
  <time>2026-08-29T19:30:01Z</time>
  <course>200.52</course>
  <speed>1.47</speed>
  <fix>3d</fix>
</trkpt>
<trkpt lat="40.070893" lon="-105.2299313">
  <ele>1583.05</ele>
  <time>2026-08-29T19:30:01Z</time>
  <course>190.36</course>
  <speed>1.3662357044082838</speed>
  <fix>3d</fix>
</trkpt>
<trkpt lat="40.0708958" lon="-105.2299301">
  <ele>1583.0</ele>
  <time>2026-08-29T19:30:01Z</time>
  <course>200.52</course>
  <speed>1.47</speed>
  <fix>3d</fix>
</trkpt>
<trkpt lat="40.0708918" lon="-105.2299314">
  <ele>1583.05</ele>
  <time>2026-08-29T19:30:01Z</time>
  <course>184.95</course>
  <speed>1.3118688958886096</speed>
  <fix>3d</fix>
</trkpt>
<trkpt lat="40.0708933" lon="-105.229931">
  <ele>1583.0</ele>
  <time>2026-08-29T19:30:01Z</time>
  <course>189.73</course>
  <speed>1.37</speed>
  <fix>3d</fix>
</trkpt>
<trkpt lat="40.0708907" lon="-105.2299314">
  <ele>1583.05</ele>
  <time>2026-08-29T19:30:01Z</time>
  <course>179.52</course>
  <speed>1.2509996003196804</speed>
  <fix>3d</fix>
</trkpt>
<trkpt lat="40.0708933" lon="-105.229931">
  <ele>1583.0</ele>
  <time>2026-08-29T19:30:01Z</time>
  <course>189.73</course>
  <speed>1.37</speed>
  <fix>3d</fix>
</trkpt>
<trkpt lat="40.0708896" lon="-105.2299312">
  <ele>1583.05</ele>
  <time>2026-08-29T19:30:01Z</time>
  <course>174.11</course>
  <speed>1.1907980517283356</speed>
  <fix>3d</fix>
</trkpt>
<trkpt lat="40.070891" lon="-105.2299312">
  <ele>1583.0</ele>
  <time>2026-08-29T19:30:01Z</time>
  <course>178.92</course>
  <speed>1.25</speed>
  <fix>3d</fix>
</trkpt>
<trkpt lat="40.0708885" lon="-105.2299309">
  <ele>1583.06</ele>
  <time>2026-08-29T19:30:01Z</time>
  <course>168.66</course>
  <speed>1.140043858805441</speed>
  <fix>3d</fix>
</trkpt>
<trkpt lat="40.070891" lon="-105.2299312">
  <ele>1583.0</ele>
  <time>2026-08-29T19:30:01Z</time>
  <course>178.92</course>
  <speed>1.25</speed>
  <fix>3d</fix>
</trkpt>
<trkpt lat="40.0708875" lon="-105.2299305">
  <ele>1583.06</ele>
  <time>2026-08-29T19:30:01Z</time>
  <course>163.26</course>
  <speed>1.11</speed>
  <fix>3d</fix>
</trkpt>
<trkpt lat="40.0708889" lon="-105.229931">
  <ele>1583.0</ele>
  <time>2026-08-29T19:30:01Z</time>
  <course>168.04</course>
  <speed>1.15</speed>
  <fix>3d</fix>
</trkpt>
<trkpt lat="40.0708864" lon="-105.22993">
  <ele>1583.06</ele>
  <time>2026-08-29T19:30:01Z</time>
  <course>157.64</course>
  <speed>1.0874741376235115</speed>
  <fix>3d</fix>
</trkpt>
<trkpt lat="40.0708889" lon="-105.229931">
  <ele>1583.0</ele>
  <time>2026-08-29T19:30:01Z</time>
  <course>168.04</course>
  <speed>1.15</speed>
  <fix>3d</fix>
</trkpt>
<trkpt lat="40.0708856" lon="-105.2299294">
  <ele>1583.06</ele>
  <time>2026-08-29T19:30:01Z</time>
  <course>153.8</course>
  <speed>1.0830050784737808</speed>
  <fix>3d</fix>
</trkpt>
<trkpt lat="40.070887" lon="-105.2299302">
  <ele>1583.0</ele>
  <time>2026-08-29T19:30:01Z</time>
  <course>158.14</course>
  <speed>1.09</speed>
  <fix>3d</fix>
</trkpt>
<trkpt lat="40.0708847" lon="-105.2299288">
  <ele>1583.06</ele>
  <time>2026-08-29T19:30:01Z</time>
  <course>150.56</course>
  <speed>1.082266141020775</speed>
  <fix>3d</fix>
</trkpt>
<trkpt lat="40.070887" lon="-105.2299302">
  <ele>1583.0</ele>
  <time>2026-08-29T19:30:01Z</time>
  <course>158.14</course>
  <speed>1.09</speed>
  <fix>3d</fix>
</trkpt>
<trkpt lat="40.0708839" lon="-105.2299281">
  <ele>1583.06</ele>
  <time>2026-08-29T19:30:01Z</time>
  <course>147.86</course>
  <speed>1.084665847162157</speed>
  <fix>3d</fix>
</trkpt>
<trkpt lat="40.0708852" lon="-105.2299291">
  <ele>1583.0</ele>
  <time>2026-08-29T19:30:01Z</time>
  <course>150.63</course>
  <speed>1.08</speed>
  <fix>3d</fix>
</trkpt>
<trkpt lat="40.0708831" lon="-105.2299273">
  <ele>1583.06</ele>
  <time>2026-08-29T19:30:01Z</time>
  <course>145.59</course>
  <speed>1.0920164833920778</speed>
  <fix>3d</fix>
</trkpt>
<trkpt lat="40.0708852" lon="-105.2299291">
  <ele>1583.0</ele>
  <time>2026-08-29T19:30:01Z</time>
  <course>150.63</course>
  <speed>1.08</speed>
  <fix>3d</fix>
</trkpt>
<trkpt lat="40.0708823" lon="-105.2299265">
  <ele>1583.06</ele>
  <time>2026-08-29T19:30:01Z</time>
  <course>143.73</course>
  <speed>1.094805918873295</speed>
  <fix>3d</fix>
</trkpt>
<trkpt lat="40.0708835" lon="-105.2299278">
  <ele>1583.0</ele>
  <time>2026-08-29T19:30:01Z</time>
  <course>145.38</course>
  <speed>1.09</speed>
  <fix>3d</fix>
</trkpt>
<trkpt lat="40.0708816" lon="-105.2299257">
  <ele>1583.05</ele>
  <time>2026-08-29T19:30:01Z</time>
  <course>142.86</course>
  <speed>1.101135777277262</speed>
  <fix>3d</fix>
</trkpt>
<trkpt lat="40.0708835" lon="-105.2299278">
  <ele>1583.0</ele>
  <time>2026-08-29T19:30:01Z</time>
  <course>145.38</course>
  <speed>1.09</speed>
  <fix>3d</fix>
</trkpt>
<trkpt lat="40.0708808" lon="-105.2299249">
  <ele>1583.05</ele>
  <time>2026-08-29T19:30:01Z</time>
  <course>141.62</course>
  <speed>1.105350623105628</speed>
  <fix>3d</fix>
</trkpt>
<trkpt lat="40.0708819" lon="-105.2299262">
  <ele>1583.0</ele>
  <time>2026-08-29T19:30:01Z</time>
  <course>142.18</course>
  <speed>1.1</speed>
  <fix>3d</fix>
</trkpt>
<trkpt lat="40.0708801" lon="-105.229924">
  <ele>1583.05</ele>
  <time>2026-08-29T19:30:01Z</time>
  <course>139.2</course>
  <speed>1.1175866856758807</speed>
  <fix>3d</fix>
</trkpt>
<trkpt lat="40.0708819" lon="-105.2299262">
  <ele>1583.0</ele>
  <time>2026-08-29T19:30:01Z</time>
  <course>142.18</course>
  <speed>1.1</speed>
  <fix>3d</fix>
</trkpt>
<trkpt lat="40.0708794" lon="-105.2299231">
  <ele>1583.05</ele>
  <time>2026-08-29T19:30:01Z</time>
  <course>136.88</course>
  <speed>1.1173182178770737</speed>
  <fix>3d</fix>
</trkpt>
<trkpt lat="40.0708804" lon="-105.2299246">
  <ele>1583.0</ele>
  <time>2026-08-29T19:30:01Z</time>
  <course>138.79</course>
  <speed>1.12</speed>
  <fix>3d</fix>
</trkpt>
<trkpt lat="40.0708787" lon="-105.2299222">
  <ele>1583.05</ele>
  <time>2026-08-29T19:30:01Z</time>
  <course>134.98</course>
  <speed>1.1395174417269793</speed>
  <fix>3d</fix>
</trkpt>
<trkpt lat="40.0708804" lon="-105.2299246">
  <ele>1583.0</ele>
  <time>2026-08-29T19:30:01Z</time>
  <course>138.79</course>
  <speed>1.12</speed>
  <fix>3d</fix>
</trkpt>
<trkpt lat="40.070878" lon="-105.2299212">
  <ele>1583.05</ele>
  <time>2026-08-29T19:30:01Z</time>
  <course>133.35</course>
  <speed>1.1627553482998907</speed>
  <fix>3d</fix>
</trkpt>
<trkpt lat="40.0708789" lon="-105.2299227">
  <ele>1583.0</ele>
  <time>2026-08-29T19:30:01Z</time>
  <course>134.61</course>
  <speed>1.14</speed>
  <fix>3d</fix>
</trkpt>
<trkpt lat="40.0708774" lon="-105.2299203">
  <ele>1583.05</ele>
  <time>2026-08-29T19:30:01Z</time>
  <course>132.24</course>
  <speed>1.1715374513859982</speed>
  <fix>3d</fix>
</trkpt>
<trkpt lat="40.0708789" lon="-105.2299227">
  <ele>1583.0</ele>
  <time>2026-08-29T19:30:01Z</time>
  <course>134.61</course>
  <speed>1.14</speed>
  <fix>3d</fix>
</trkpt>
<trkpt lat="40.0708767" lon="-105.2299193">
  <ele>1583.05</ele>
  <time>2026-08-29T19:30:01Z</time>
  <course>131.05</course>
  <speed>1.202538980657176</speed>
  <fix>3d</fix>
</trkpt>
<trkpt lat="40.0708774" lon="-105.2299207">
  <ele>1583.0</ele>
  <time>2026-08-29T19:30:01Z</time>
  <course>131.49</course>
  <speed>1.19</speed>
  <fix>3d</fix>
</trkpt>
<trkpt lat="40.070876" lon="-105.2299182">
  <ele>1583.05</ele>
  <time>2026-08-29T19:30:01Z</time>
  <course>130.04</course>
  <speed>1.226132129910965</speed>
  <fix>3d</fix>
</trkpt>
<trkpt lat="40.0708774" lon="-105.2299207">
  <ele>1583.0</ele>
  <time>2026-08-29T19:30:01Z</time>
  <course>131.49</course>
  <speed>1.19</speed>
  <fix>3d</fix>
</trkpt>
<trkpt lat="40.0708753" lon="-105.229917">
  <ele>1583.05</ele>
  <time>2026-08-29T19:30:01Z</time>
  <course>129.2</course>
  <speed>1.2580143083447024</speed>
  <fix>3d</fix>
</trkpt>
<trkpt lat="40.0708761" lon="-105.2299185">
  <ele>1583.0</ele>
  <time>2026-08-29T19:30:01Z</time>
  <course>129.26</course>
  <speed>1.24</speed>
  <fix>3d</fix>
</trkpt>
<trkpt lat="40.0708746" lon="-105.2299158">
  <ele>1583.04</ele>
  <time>2026-08-29T19:30:01Z</time>
  <course>128.49</course>
  <speed>1.2880993750483694</speed>
  <fix>3d</fix>
</trkpt>
<trkpt lat="40.0708761" lon="-105.2299185">
  <ele>1583.0</ele>
  <time>2026-08-29T19:30:01Z</time>
  <course>129.26</course>
  <speed>1.24</speed>
  <fix>3d</fix>
</trkpt>
<trkpt lat="40.0708739" lon="-105.2299146">
  <ele>1583.04</ele>
  <time>2026-08-29T19:30:01Z</time>
  <course>127.89</course>
  <speed>1.318256424221024</speed>
  <fix>3d</fix>
</trkpt>
<trkpt lat="40.0708747" lon="-105.2299162">
  <ele>1583.0</ele>
  <time>2026-08-29T19:30:01Z</time>
  <course>127.68</course>
  <speed>1.3</speed>
  <fix>3d</fix>
</trkpt>
<trkpt lat="40.0708732" lon="-105.2299133">
  <ele>1583.04</ele>
  <time>2026-08-29T19:30:01Z</time>
  <course>127.4</course>
  <speed>1.3484806264830058</speed>
  <fix>3d</fix>
</trkpt>
<trkpt lat="40.0708747" lon="-105.2299162">
  <ele>1583.0</ele>
  <time>2026-08-29T19:30:01Z</time>
  <course>127.68</course>
  <speed>1.3</speed>
  <fix>3d</fix>
</trkpt>
<trkpt lat="40.0708725" lon="-105.229912">
  <ele>1583.04</ele>
  <time>2026-08-29T19:30:01Z</time>
  <course>126.98</course>
  <speed>1.3648443134658255</speed>
  <fix>3d</fix>
</trkpt>
<trkpt lat="40.0708732" lon="-105.2299137">
  <ele>1583.0</ele>
  <time>2026-08-29T19:30:01Z</time>
  <course>126.56</course>
  <speed>1.36</speed>
  <fix>3d</fix>
</trkpt>
<trkpt lat="40.0708717" lon="-105.2299106">
  <ele>1583.04</ele>
  <time>2026-08-29T19:30:01Z</time>
  <course>126.63</course>
  <speed>1.3952060779684126</speed>
  <fix>3d</fix>
</trkpt>
<trkpt lat="40.0708732" lon="-105.2299137">
  <ele>1583.0</ele>
  <time>2026-08-29T19:30:01Z</time>
  <course>126.56</course>
  <speed>1.36</speed>
  <fix>3d</fix>
</trkpt>
<trkpt lat="40.0708708" lon="-105.229909">
  <ele>1583.04</ele>
  <time>2026-08-29T19:30:01Z</time>
  <course>126.29</course>
  <speed>1.431258187749506</speed>
  <fix>3d</fix>
</trkpt>
<trkpt lat="40.0708717" lon="-105.2299111">
  <ele>1583.0</ele>
  <time>2026-08-29T19:30:01Z</time>
  <course>125.78</course>
  <speed>1.41</speed>
  <fix>3d</fix>
</trkpt>
<trkpt lat="40.0708701" lon="-105.2299076">
  <ele>1583.04</ele>
  <time>2026-08-29T19:30:01Z</time>
  <course>126.06</course>
  <speed>1.453409783921933</speed>
  <fix>3d</fix>
</trkpt>
<trkpt lat="40.0708717" lon="-105.2299111">
  <ele>1583.0</ele>
  <time>2026-08-29T19:30:01Z</time>
  <course>125.78</course>
  <speed>1.41</speed>
  <fix>3d</fix>
</trkpt>
<trkpt lat="40.0708693" lon="-105.2299061">
  <ele>1583.03</ele>
  <time>2026-08-29T19:30:01Z</time>
  <course>125.88</course>
  <speed>1.475567687366459</speed>
  <fix>3d</fix>
</trkpt>
<trkpt lat="40.0708702" lon="-105.2299084">
  <ele>1583.0</ele>
  <time>2026-08-29T19:30:01Z</time>
  <course>125.25</course>
  <speed>1.47</speed>
  <fix>3d</fix>
</trkpt>
<trkpt lat="40.0708685" lon="-105.2299047">
  <ele>1583.03</ele>
  <time>2026-08-29T19:30:01Z</time>
  <course>125.73</course>
  <speed>1.4977316181479245</speed>
  <fix>3d</fix>
</trkpt>
<trkpt lat="40.0708702" lon="-105.2299084">
  <ele>1583.0</ele>
  <time>2026-08-29T19:30:01Z</time>
  <course>125.25</course>
  <speed>1.47</speed>
  <fix>3d</fix>
</trkpt>
<trkpt lat="40.0708677" lon="-105.2299032">
  <ele>1583.03</ele>
  <time>2026-08-29T19:30:01Z</time>
  <course>125.61</course>
  <speed>1.5199013125857876</speed>
  <fix>3d</fix>
</trkpt>
<trkpt lat="40.0708687" lon="-105.2299055">
  <ele>1583.0</ele>
  <time>2026-08-29T19:30:01Z</time>
  <course>124.88</course>
  <speed>1.51</speed>
  <fix>3d</fix>
</trkpt>
<trkpt lat="40.0708669" lon="-105.2299017">
  <ele>1583.04</ele>
  <time>2026-08-29T19:30:01Z</time>
  <course>125.5</course>
  <speed>1.5337861650177969</speed>
  <fix>3d</fix>
</trkpt>
<trkpt lat="40.0708687" lon="-105.2299055">
  <ele>1583.0</ele>
  <time>2026-08-29T19:30:01Z</time>
  <course>124.88</course>
  <speed>1.51</speed>
  <fix>3d</fix>
</trkpt>
<trkpt lat="40.0708661" lon="-105.2299002">
  <ele>1583.04</ele>
  <time>2026-08-29T19:30:01Z</time>
  <course>125.43</course>
  <speed>1.5420765220960988</speed>
  <fix>3d</fix>
</trkpt>
<trkpt lat="40.0708671" lon="-105.2299025">
  <ele>1583.0</ele>
  <time>2026-08-29T19:30:01Z</time>
  <course>124.64</course>
  <speed>1.55</speed>
  <fix>3d</fix>
</trkpt>
<trkpt lat="40.0708653" lon="-105.2298987">
  <ele>1583.04</ele>
  <time>2026-08-29T19:30:01Z</time>
  <course>125.37</course>
  <speed>1.5642570121306791</speed>
  <fix>3d</fix>
</trkpt>
<trkpt lat="40.0708671" lon="-105.2299025">
  <ele>1583.0</ele>
  <time>2026-08-29T19:30:01Z</time>
  <course>124.64</course>
  <speed>1.55</speed>
  <fix>3d</fix>
</trkpt>
<trkpt lat="40.0708645" lon="-105.2298972">
  <ele>1583.04</ele>
  <time>2026-08-29T19:30:01Z</time>
  <course>125.33</course>
  <speed>1.578131806916013</speed>
  <fix>3d</fix>
</trkpt>
<trkpt lat="40.0708654" lon="-105.2298994">
  <ele>1583.0</ele>
  <time>2026-08-29T19:30:01Z</time>
  <course>124.5</course>
  <speed>1.59</speed>
  <fix>3d</fix>
</trkpt>
<trkpt lat="40.0708637" lon="-105.2298957">
  <ele>1583.05</ele>
  <time>2026-08-29T19:30:01Z</time>
  <course>125.3</course>
  <speed>1.583729774930054</speed>
  <fix>3d</fix>
</trkpt>
<trkpt lat="40.0708654" lon="-105.2298994">
  <ele>1583.0</ele>
  <time>2026-08-29T19:30:01Z</time>
  <course>124.5</course>
  <speed>1.59</speed>
  <fix>3d</fix>
</trkpt>
<trkpt lat="40.0708629" lon="-105.2298941">
  <ele>1583.05</ele>
  <time>2026-08-29T19:30:01Z</time>
  <course>125.27</course>
  <speed>1.5920113064925134</speed>
  <fix>3d</fix>
</trkpt>
<trkpt lat="40.0708639" lon="-105.2298963">
  <ele>1583.0</ele>
  <time>2026-08-29T19:30:01Z</time>
  <course>124.41</course>
  <speed>1.61</speed>
  <fix>3d</fix>
</trkpt>
<trkpt lat="40.0708622" lon="-105.2298929">
  <ele>1583.05</ele>
  <time>2026-08-29T19:30:01Z</time>
  <course>125.27</course>
  <speed>1.6058953888718903</speed>
  <fix>3d</fix>
</trkpt>
<trkpt lat="40.0708639" lon="-105.2298963">
  <ele>1583.0</ele>
  <time>2026-08-29T19:30:01Z</time>
  <course>124.41</course>
  <speed>1.61</speed>
  <fix>3d</fix>
</trkpt>
<trkpt lat="40.0708614" lon="-105.2298913">
  <ele>1583.05</ele>
  <time>2026-08-29T19:30:01Z</time>
  <course>125.27</course>
  <speed>1.614187101918486</speed>
  <fix>3d</fix>
</trkpt>
<trkpt lat="40.0708622" lon="-105.2298931">
  <ele>1583.0</ele>
  <time>2026-08-29T19:30:01Z</time>
  <course>124.37</course>
  <speed>1.64</speed>
  <fix>3d</fix>
</trkpt>
<trkpt lat="40.0708605" lon="-105.2298897">
  <ele>1583.05</ele>
  <time>2026-08-29T19:30:01Z</time>
  <course>125.26</course>
  <speed>1.6197839362087771</speed>
  <fix>3d</fix>
</trkpt>
<trkpt lat="40.0708622" lon="-105.2298931">
  <ele>1583.0</ele>
  <time>2026-08-29T19:30:01Z</time>
  <course>124.37</course>
  <speed>1.64</speed>
  <fix>3d</fix>
</trkpt>
<trkpt lat="40.0708597" lon="-105.2298881">
  <ele>1583.06</ele>
  <time>2026-08-29T19:30:01Z</time>
  <course>125.27</course>
  <speed>1.6336768346279504</speed>
  <fix>3d</fix>
</trkpt>
<trkpt lat="40.0708605" lon="-105.22989">
  <ele>1583.0</ele>
  <time>2026-08-29T19:30:01Z</time>
  <course>124.36</course>
  <speed>1.66</speed>
  <fix>3d</fix>
</trkpt>
<trkpt lat="40.0708588" lon="-105.2298865">
  <ele>1583.06</ele>
  <time>2026-08-29T19:30:01Z</time>
  <course>125.28</course>
  <speed>1.6336768346279504</speed>
  <fix>3d</fix>
</trkpt>
<trkpt lat="40.0708605" lon="-105.22989">
  <ele>1583.0</ele>
  <time>2026-08-29T19:30:01Z</time>
  <course>124.36</course>
  <speed>1.66</speed>
  <fix>3d</fix>
</trkpt>
<trkpt lat="40.070858" lon="-105.2298849">
  <ele>1583.06</ele>
  <time>2026-08-29T19:30:01Z</time>
  <course>125.3</course>
  <speed>1.647573974060042</speed>
  <fix>3d</fix>
</trkpt>
<trkpt lat="40.0708588" lon="-105.2298867">
  <ele>1583.0</ele>
  <time>2026-08-29T19:30:01Z</time>
  <course>124.37</course>
  <speed>1.67</speed>
  <fix>3d</fix>
</trkpt>
<trkpt lat="40.0708571" lon="-105.2298832">
  <ele>1583.06</ele>
  <time>2026-08-29T19:30:01Z</time>
  <course>125.33</course>
  <speed>1.647573974060042</speed>
  <fix>3d</fix>
</trkpt>
<trkpt lat="40.0708588" lon="-105.2298867">
  <ele>1583.0</ele>
  <time>2026-08-29T19:30:01Z</time>
  <course>124.37</course>
  <speed>1.67</speed>
  <fix>3d</fix>
</trkpt>
<trkpt lat="40.0708562" lon="-105.2298816">
  <ele>1583.06</ele>
  <time>2026-08-29T19:30:01Z</time>
  <course>125.37</course>
  <speed>1.6532392446346051</speed>
  <fix>3d</fix>
</trkpt>
<trkpt lat="40.0708571" lon="-105.2298835">
  <ele>1583.0</ele>
  <time>2026-08-29T19:30:01Z</time>
  <course>124.43</course>
  <speed>1.69</speed>
  <fix>3d</fix>
</trkpt>
<trkpt lat="40.0708553" lon="-105.2298799">
  <ele>1583.05</ele>
  <time>2026-08-29T19:30:01Z</time>
  <course>125.41</course>
  <speed>1.6614752480852673</speed>
  <fix>3d</fix>
</trkpt>
<trkpt lat="40.0708571" lon="-105.2298835">
  <ele>1583.0</ele>
  <time>2026-08-29T19:30:01Z</time>
  <course>124.43</course>
  <speed>1.69</speed>
  <fix>3d</fix>
</trkpt>
<trkpt lat="40.0708545" lon="-105.2298783">
  <ele>1583.05</ele>
  <time>2026-08-29T19:30:01Z</time>
  <course>125.46</course>
  <speed>1.66715326230074</speed>
  <fix>3d</fix>
</trkpt>
<trkpt lat="40.0708554" lon="-105.2298802">
  <ele>1583.0</ele>
  <time>2026-08-29T19:30:01Z</time>
  <course>124.51</course>
  <speed>1.7</speed>
  <fix>3d</fix>
</trkpt>
<trkpt lat="40.0708534" lon="-105.2298763">
  <ele>1583.05</ele>
  <time>2026-08-29T19:30:01Z</time>
  <course>125.55</course>
  <speed>1.66715326230074</speed>
  <fix>3d</fix>
</trkpt>
<trkpt lat="40.0708554" lon="-105.2298802">
  <ele>1583.0</ele>
  <time>2026-08-29T19:30:01Z</time>
  <course>124.51</course>
  <speed>1.7</speed>
  <fix>3d</fix>
</trkpt>
<trkpt lat="40.0708525" lon="-105.2298746">
  <ele>1583.05</ele>
  <time>2026-08-29T19:30:01Z</time>
  <course>125.62</course>
  <speed>1.6728717822953436</speed>
  <fix>3d</fix>
</trkpt>
<trkpt lat="40.0708537" lon="-105.2298769">
  <ele>1583.0</ele>
  <time>2026-08-29T19:30:01Z</time>
  <course>124.63</course>
  <speed>1.71</speed>
  <fix>3d</fix>
</trkpt>
<trkpt lat="40.0708516" lon="-105.229873">
  <ele>1583.05</ele>
  <time>2026-08-29T19:30:01Z</time>
  <course>125.71</course>
  <speed>1.6728717822953436</speed>
  <fix>3d</fix>
</trkpt>
<trkpt lat="40.0708537" lon="-105.2298769">
  <ele>1583.0</ele>
  <time>2026-08-29T19:30:01Z</time>
  <course>124.63</course>
  <speed>1.71</speed>
  <fix>3d</fix>
</trkpt>
<trkpt lat="40.0708507" lon="-105.2298713">
  <ele>1583.05</ele>
  <time>2026-08-29T19:30:01Z</time>
  <course>125.81</course>
  <speed>1.6786303941010956</speed>
  <fix>3d</fix>
</trkpt>
<trkpt lat="40.0708518" lon="-105.2298736">
  <ele>1583.0</ele>
  <time>2026-08-29T19:30:01Z</time>
  <course>124.79</course>
  <speed>1.71</speed>
  <fix>3d</fix>
</trkpt>
<trkpt lat="40.0708498" lon="-105.2298697">
  <ele>1583.05</ele>
  <time>2026-08-29T19:30:01Z</time>
  <course>125.94</course>
  <speed>1.6786303941010956</speed>
  <fix>3d</fix>
</trkpt>
<trkpt lat="40.0708518" lon="-105.2298736">
  <ele>1583.0</ele>
  <time>2026-08-29T19:30:01Z</time>
  <course>124.79</course>
  <speed>1.71</speed>
  <fix>3d</fix>
</trkpt>
<trkpt lat="40.0708489" lon="-105.229868">
  <ele>1583.05</ele>
  <time>2026-08-29T19:30:01Z</time>
  <course>126.05</course>
  <speed>1.6844286865284621</speed>
  <fix>3d</fix>
</trkpt>
<trkpt lat="40.0708501" lon="-105.2298702">
  <ele>1583.0</ele>
  <time>2026-08-29T19:30:01Z</time>
  <course>125.0</course>
  <speed>1.72</speed>
  <fix>3d</fix>
</trkpt>
<trkpt lat="40.070848" lon="-105.2298664">
  <ele>1583.04</ele>
  <time>2026-08-29T19:30:01Z</time>
  <course>126.2</course>
  <speed>1.6844286865284621</speed>
  <fix>3d</fix>
</trkpt>
<trkpt lat="40.0708501" lon="-105.2298702">
  <ele>1583.0</ele>
  <time>2026-08-29T19:30:01Z</time>
  <course>125.0</course>
  <speed>1.72</speed>
  <fix>3d</fix>
</trkpt>
<trkpt lat="40.0708471" lon="-105.2298648">
  <ele>1583.04</ele>
  <time>2026-08-29T19:30:01Z</time>
  <course>126.4</course>
  <speed>1.6821712160181557</speed>
  <fix>3d</fix>
</trkpt>
<trkpt lat="40.0708484" lon="-105.2298669">
  <ele>1583.0</ele>
  <time>2026-08-29T19:30:01Z</time>
  <course>125.28</course>
  <speed>1.72</speed>
  <fix>3d</fix>
</trkpt>
<trkpt lat="40.0708462" lon="-105.2298631">
  <ele>1583.04</ele>
  <time>2026-08-29T19:30:01Z</time>
  <course>126.62</course>
  <speed>1.6821712160181557</speed>
  <fix>3d</fix>
</trkpt>
<trkpt lat="40.0708484" lon="-105.2298669">
  <ele>1583.0</ele>
  <time>2026-08-29T19:30:01Z</time>
  <course>125.28</course>
  <speed>1.72</speed>
  <fix>3d</fix>
</trkpt>
<trkpt lat="40.0708453" lon="-105.2298615">
  <ele>1583.05</ele>
  <time>2026-08-29T19:30:01Z</time>
  <course>126.93</course>
  <speed>1.6800297616411441</speed>
  <fix>3d</fix>
</trkpt>
<trkpt lat="40.0708465" lon="-105.2298636">
  <ele>1583.0</ele>
  <time>2026-08-29T19:30:01Z</time>
  <course>125.71</course>
  <speed>1.72</speed>
  <fix>3d</fix>
</trkpt>
<trkpt lat="40.0708444" lon="-105.2298599">
  <ele>1583.05</ele>
  <time>2026-08-29T19:30:01Z</time>
  <course>127.46</course>
  <speed>1.6780047675736802</speed>
  <fix>3d</fix>
</trkpt>
<trkpt lat="40.0708465" lon="-105.2298636">
  <ele>1583.0</ele>
  <time>2026-08-29T19:30:01Z</time>
  <course>125.71</course>
  <speed>1.72</speed>
  <fix>3d</fix>
</trkpt>
<trkpt lat="40.0708437" lon="-105.2298586">
  <ele>1583.05</ele>
  <time>2026-08-29T19:30:01Z</time>
  <course>128.19</course>
  <speed>1.6743058263053379</speed>
  <fix>3d</fix>
</trkpt>
<trkpt lat="40.0708447" lon="-105.2298603">
  <ele>1583.0</ele>
  <time>2026-08-29T19:30:01Z</time>
  <course>126.63</course>
  <speed>1.72</speed>
  <fix>3d</fix>
</trkpt>
<trkpt lat="40.0708427" lon="-105.229857">
  <ele>1583.04</ele>
  <time>2026-08-29T19:30:01Z</time>
  <course>129.29</course>
  <speed>1.6710774967068402</speed>
  <fix>3d</fix>
</trkpt>
<trkpt lat="40.0708447" lon="-105.2298603">
  <ele>1583.0</ele>
  <time>2026-08-29T19:30:01Z</time>
  <course>126.63</course>
  <speed>1.72</speed>
  <fix>3d</fix>
</trkpt>
<trkpt lat="40.0708417" lon="-105.2298555">
  <ele>1583.04</ele>
  <time>2026-08-29T19:30:01Z</time>
  <course>130.53</course>
  <speed>1.6671232707871366</speed>
  <fix>3d</fix>
</trkpt>
<trkpt lat="40.0708428" lon="-105.2298572">
  <ele>1583.0</ele>
  <time>2026-08-29T19:30:01Z</time>
  <course>128.46</course>
  <speed>1.71</speed>
  <fix>3d</fix>
</trkpt>
<trkpt lat="40.0708407" lon="-105.229854">
  <ele>1583.04</ele>
  <time>2026-08-29T19:30:01Z</time>
  <course>132.16</course>
  <speed>1.656804152578089</speed>
  <fix>3d</fix>
</trkpt>
<trkpt lat="40.0708428" lon="-105.2298572">
  <ele>1583.0</ele>
  <time>2026-08-29T19:30:01Z</time>
  <course>128.46</course>
  <speed>1.71</speed>
  <fix>3d</fix>
</trkpt>
<trkpt lat="40.0708397" lon="-105.2298525">
  <ele>1583.04</ele>
  <time>2026-08-29T19:30:01Z</time>
  <course>133.93</course>
  <speed>1.6548715962273326</speed>
  <fix>3d</fix>
</trkpt>
<trkpt lat="40.0708408" lon="-105.2298541">
  <ele>1583.0</ele>
  <time>2026-08-29T19:30:01Z</time>
  <course>131.34</course>
  <speed>1.7</speed>
  <fix>3d</fix>
</trkpt>
<trkpt lat="40.0708386" lon="-105.2298511">
  <ele>1583.03</ele>
  <time>2026-08-29T19:30:01Z</time>
  <course>134.58</course>
  <speed>1.647573974060042</speed>
  <fix>3d</fix>
</trkpt>
<trkpt lat="40.0708408" lon="-105.2298541">
  <ele>1583.0</ele>
  <time>2026-08-29T19:30:01Z</time>
  <course>131.34</course>
  <speed>1.7</speed>
  <fix>3d</fix>
</trkpt>
<trkpt lat="40.0708376" lon="-105.2298497">
  <ele>1583.03</ele>
  <time>2026-08-29T19:30:01Z</time>
  <course>134.5</course>
  <speed>1.633431969810803</speed>
  <fix>3d</fix>
</trkpt>
<trkpt lat="40.0708388" lon="-105.2298511">
  <ele>1583.0</ele>
  <time>2026-08-29T19:30:01Z</time>
  <course>133.34</course>
  <speed>1.69</speed>
  <fix>3d</fix>
</trkpt>
<trkpt lat="40.0708365" lon="-105.2298482">
  <ele>1583.03</ele>
  <time>2026-08-29T19:30:01Z</time>
  <course>134.5</course>
  <speed>1.6192899678562824</speed>
  <fix>3d</fix>
</trkpt>
<trkpt lat="40.0708388" lon="-105.2298511">
  <ele>1583.0</ele>
  <time>2026-08-29T19:30:01Z</time>
  <course>133.34</course>
  <speed>1.69</speed>
  <fix>3d</fix>
</trkpt>
<trkpt lat="40.0708355" lon="-105.2298468">
  <ele>1583.03</ele>
  <time>2026-08-29T19:30:01Z</time>
  <course>134.49</course>
  <speed>1.6122654868228121</speed>
  <fix>3d</fix>
</trkpt>
<trkpt lat="40.0708367" lon="-105.2298482">
  <ele>1583.0</ele>
  <time>2026-08-29T19:30:01Z</time>
  <course>133.62</course>
  <speed>1.66</speed>
  <fix>3d</fix>
</trkpt>
<trkpt lat="40.0708344" lon="-105.2298454">
  <ele>1583.03</ele>
  <time>2026-08-29T19:30:01Z</time>
  <course>134.49</course>
  <speed>1.6051479682571324</speed>
  <fix>3d</fix>
</trkpt>
<trkpt lat="40.0708367" lon="-105.2298482">
  <ele>1583.0</ele>
  <time>2026-08-29T19:30:01Z</time>
  <course>133.62</course>
  <speed>1.66</speed>
  <fix>3d</fix>
</trkpt>
<trkpt lat="40.0708332" lon="-105.2298438">
  <ele>1583.03</ele>
  <time>2026-08-29T19:30:01Z</time>
  <course>134.48</course>
  <speed>1.5910059710761615</speed>
  <fix>3d</fix>
</trkpt>
<trkpt lat="40.0708347" lon="-105.2298455">
  <ele>1583.0</ele>
  <time>2026-08-29T19:30:01Z</time>
  <course>133.62</course>
  <speed>1.64</speed>
  <fix>3d</fix>
</trkpt>
<trkpt lat="40.0708322" lon="-105.2298424">
  <ele>1583.03</ele>
  <time>2026-08-29T19:30:01Z</time>
  <course>134.47</course>
  <speed>1.5768639763784318</speed>
  <fix>3d</fix>
</trkpt>
<trkpt lat="40.0708347" lon="-105.2298455">
  <ele>1583.0</ele>
  <time>2026-08-29T19:30:01Z</time>
  <course>133.62</course>
  <speed>1.64</speed>
  <fix>3d</fix>
</trkpt>
<trkpt lat="40.0708312" lon="-105.229841">
  <ele>1583.03</ele>
  <time>2026-08-29T19:30:01Z</time>
  <course>134.45</course>
  <speed>1.5698407562552326</speed>
  <fix>3d</fix>
</trkpt>
<trkpt lat="40.0708326" lon="-105.2298427">
  <ele>1583.0</ele>
  <time>2026-08-29T19:30:01Z</time>
  <course>133.6</course>
  <speed>1.62</speed>
  <fix>3d</fix>
</trkpt>
<trkpt lat="40.0708302" lon="-105.2298396">
  <ele>1583.03</ele>
  <time>2026-08-29T19:30:01Z</time>
  <course>134.44</course>
  <speed>1.5627219842313604</speed>
  <fix>3d</fix>
</trkpt>
<trkpt lat="40.0708326" lon="-105.2298427">
  <ele>1583.0</ele>
  <time>2026-08-29T19:30:01Z</time>
  <course>133.6</course>
  <speed>1.62</speed>
  <fix>3d</fix>
</trkpt>
<trkpt lat="40.0708292" lon="-105.2298383">
  <ele>1583.03</ele>
  <time>2026-08-29T19:30:01Z</time>
  <course>134.42</course>
  <speed>1.5556991997169631</speed>
  <fix>3d</fix>
</trkpt>
<trkpt lat="40.0708307" lon="-105.22984">
  <ele>1583.0</ele>
  <time>2026-08-29T19:30:01Z</time>
  <course>133.58</course>
  <speed>1.6</speed>
  <fix>3d</fix>
</trkpt>
<trkpt lat="40.0708282" lon="-105.2298369">
  <ele>1583.03</ele>
  <time>2026-08-29T19:30:01Z</time>
  <course>134.4</course>
  <speed>1.5485799947048264</speed>
  <fix>3d</fix>
</trkpt>
<trkpt lat="40.0708307" lon="-105.22984">
  <ele>1583.0</ele>
  <time>2026-08-29T19:30:01Z</time>
  <course>133.58</course>
  <speed>1.6</speed>
  <fix>3d</fix>
</trkpt>
<trkpt lat="40.0708272" lon="-105.2298356">
  <ele>1583.03</ele>
  <time>2026-08-29T19:30:01Z</time>
  <course>134.39</course>
  <speed>1.5415576538034508</speed>
  <fix>3d</fix>
</trkpt>
<trkpt lat="40.0708286" lon="-105.2298372">
  <ele>1583.0</ele>
  <time>2026-08-29T19:30:01Z</time>
  <course>133.55</course>
  <speed>1.59</speed>
  <fix>3d</fix>
</trkpt>
<trkpt lat="40.0708262" lon="-105.2298343">
  <ele>1583.02</ele>
  <time>2026-08-29T19:30:01Z</time>
  <course>134.37</course>
  <speed>1.5344380078712856</speed>
  <fix>3d</fix>
</trkpt>
<trkpt lat="40.0708286" lon="-105.2298372">
  <ele>1583.0</ele>
  <time>2026-08-29T19:30:01Z</time>
  <course>133.55</course>
  <speed>1.59</speed>
  <fix>3d</fix>
</trkpt>
<trkpt lat="40.0708253" lon="-105.229833">
  <ele>1583.02</ele>
  <time>2026-08-29T19:30:01Z</time>
  <course>134.36</course>
  <speed>1.5274161188098023</speed>
  <fix>3d</fix>
</trkpt>
<trkpt lat="40.0708267" lon="-105.2298345">
  <ele>1583.0</ele>
  <time>2026-08-29T19:30:01Z</time>
  <course>133.52</course>
  <speed>1.57</speed>
  <fix>3d</fix>
</trkpt>
<trkpt lat="40.0708243" lon="-105.2298316">
  <ele>1583.02</ele>
  <time>2026-08-29T19:30:01Z</time>
  <course>134.35</course>
  <speed>1.5274161188098023</speed>
  <fix>3d</fix>
</trkpt>
<trkpt lat="40.0708267" lon="-105.2298345">
  <ele>1583.0</ele>
  <time>2026-08-29T19:30:01Z</time>
  <course>133.52</course>
  <speed>1.57</speed>
  <fix>3d</fix>
</trkpt>
<trkpt lat="40.0708234" lon="-105.2298303">
  <ele>1583.02</ele>
  <time>2026-08-29T19:30:01Z</time>
  <course>134.33</course>
  <speed>1.52029602380589</speed>
  <fix>3d</fix>
</trkpt>
<trkpt lat="40.0708247" lon="-105.2298318">
  <ele>1583.0</ele>
  <time>2026-08-29T19:30:01Z</time>
  <course>133.49</course>
  <speed>1.56</speed>
  <fix>3d</fix>
</trkpt>
<trkpt lat="40.0708226" lon="-105.2298293">
  <ele>1583.02</ele>
  <time>2026-08-29T19:30:01Z</time>
  <course>134.32</course>
  <speed>1.5132745950421558</speed>
  <fix>3d</fix>
</trkpt>
<trkpt lat="40.0708247" lon="-105.2298318">
  <ele>1583.0</ele>
  <time>2026-08-29T19:30:01Z</time>
  <course>133.49</course>
  <speed>1.56</speed>
  <fix>3d</fix>
</trkpt>
<trkpt lat="40.0708216" lon="-105.229828">
  <ele>1583.02</ele>
  <time>2026-08-29T19:30:01Z</time>
  <course>134.31</course>
  <speed>1.5132745950421558</speed>
  <fix>3d</fix>
</trkpt>
<trkpt lat="40.0708228" lon="-105.2298291">
  <ele>1583.0</ele>
  <time>2026-08-29T19:30:01Z</time>
  <course>133.46</course>
  <speed>1.56</speed>
  <fix>3d</fix>
</trkpt>
<trkpt lat="40.0708207" lon="-105.2298266">
  <ele>1583.02</ele>
  <time>2026-08-29T19:30:01Z</time>
  <course>134.3</course>
  <speed>1.5132745950421558</speed>
  <fix>3d</fix>
</trkpt>
<trkpt lat="40.0708228" lon="-105.2298291">
  <ele>1583.0</ele>
  <time>2026-08-29T19:30:01Z</time>
  <course>133.46</course>
  <speed>1.56</speed>
  <fix>3d</fix>
</trkpt>
<trkpt lat="40.0708197" lon="-105.2298253">
  <ele>1583.02</ele>
  <time>2026-08-29T19:30:01Z</time>
  <course>134.29</course>
  <speed>1.5132745950421558</speed>
  <fix>3d</fix>
</trkpt>
<trkpt lat="40.0708209" lon="-105.2298265">
  <ele>1583.0</ele>
  <time>2026-08-29T19:30:01Z</time>
  <course>133.44</course>
  <speed>1.55</speed>
  <fix>3d</fix>
</trkpt>
<trkpt lat="40.0708187" lon="-105.229824">
  <ele>1583.03</ele>
  <time>2026-08-29T19:30:01Z</time>
  <course>134.28</course>
  <speed>1.5061540425866142</speed>
  <fix>3d</fix>
</trkpt>
<trkpt lat="40.0708209" lon="-105.2298265">
  <ele>1583.0</ele>
  <time>2026-08-29T19:30:01Z</time>
  <course>133.44</course>
  <speed>1.55</speed>
  <fix>3d</fix>
</trkpt>
<trkpt lat="40.0708178" lon="-105.2298227">
  <ele>1583.03</ele>
  <time>2026-08-29T19:30:01Z</time>
  <course>134.27</course>
  <speed>1.5061540425866142</speed>
  <fix>3d</fix>
</trkpt>
<trkpt lat="40.070819" lon="-105.2298238">
  <ele>1583.0</ele>
  <time>2026-08-29T19:30:01Z</time>
  <course>133.42</course>
  <speed>1.54</speed>
  <fix>3d</fix>
</trkpt>
<trkpt lat="40.0708168" lon="-105.2298213">
  <ele>1583.04</ele>
  <time>2026-08-29T19:30:01Z</time>
  <course>134.26</course>
  <speed>1.4991330828182001</speed>
  <fix>3d</fix>
</trkpt>
<trkpt lat="40.070819" lon="-105.2298238">
  <ele>1583.0</ele>
  <time>2026-08-29T19:30:01Z</time>
  <course>133.42</course>
  <speed>1.54</speed>
  <fix>3d</fix>
</trkpt>
<trkpt lat="40.0708159" lon="-105.22982">
  <ele>1583.04</ele>
  <time>2026-08-29T19:30:01Z</time>
  <course>134.25</course>
  <speed>1.4991330828182001</speed>
  <fix>3d</fix>
</trkpt>
<trkpt lat="40.0708171" lon="-105.2298213">
  <ele>1583.0</ele>
  <time>2026-08-29T19:30:01Z</time>
  <course>133.41</course>
  <speed>1.54</speed>
  <fix>3d</fix>
</trkpt>
<trkpt lat="40.0708149" lon="-105.2298187">
  <ele>1583.04</ele>
  <time>2026-08-29T19:30:01Z</time>
  <course>134.24</course>
  <speed>1.4991330828182001</speed>
  <fix>3d</fix>
</trkpt>
<trkpt lat="40.0708171" lon="-105.2298213">
  <ele>1583.0</ele>
  <time>2026-08-29T19:30:01Z</time>
  <course>133.41</course>
  <speed>1.54</speed>
  <fix>3d</fix>
</trkpt>
<trkpt lat="40.070814" lon="-105.2298173">
  <ele>1583.04</ele>
  <time>2026-08-29T19:30:01Z</time>
  <course>134.24</course>
  <speed>1.4991330828182001</speed>
  <fix>3d</fix>
</trkpt>
<trkpt lat="40.0708151" lon="-105.2298186">
  <ele>1583.0</ele>
  <time>2026-08-29T19:30:01Z</time>
  <course>133.4</course>
  <speed>1.54</speed>
  <fix>3d</fix>
</trkpt>
<trkpt lat="40.0708128" lon="-105.2298158">
  <ele>1583.05</ele>
  <time>2026-08-29T19:30:01Z</time>
  <course>134.23</course>
  <speed>1.4991330828182001</speed>
  <fix>3d</fix>
</trkpt>
<trkpt lat="40.0708151" lon="-105.2298186">
  <ele>1583.0</ele>
  <time>2026-08-29T19:30:01Z</time>
  <course>133.4</course>
  <speed>1.54</speed>
  <fix>3d</fix>
</trkpt>
<trkpt lat="40.0708118" lon="-105.2298144">
  <ele>1583.05</ele>
  <time>2026-08-29T19:30:01Z</time>
  <course>134.23</course>
  <speed>1.4991330828182001</speed>
  <fix>3d</fix>
</trkpt>
<trkpt lat="40.0708132" lon="-105.229816">
  <ele>1583.0</ele>
  <time>2026-08-29T19:30:01Z</time>
  <course>133.39</course>
  <speed>1.53</speed>
  <fix>3d</fix>
</trkpt>
<trkpt lat="40.0708109" lon="-105.2298131">
  <ele>1583.05</ele>
  <time>2026-08-29T19:30:01Z</time>
  <course>134.23</course>
  <speed>1.4991330828182001</speed>
  <fix>3d</fix>
</trkpt>
<trkpt lat="40.0708132" lon="-105.229816">
  <ele>1583.0</ele>
  <time>2026-08-29T19:30:01Z</time>
  <course>133.39</course>
  <speed>1.53</speed>
  <fix>3d</fix>
</trkpt>
<trkpt lat="40.0708099" lon="-105.2298118">
  <ele>1583.05</ele>
  <time>2026-08-29T19:30:01Z</time>
  <course>134.22</course>
  <speed>1.4991330828182001</speed>
  <fix>3d</fix>
</trkpt>
<trkpt lat="40.0708113" lon="-105.2298133">
  <ele>1583.0</ele>
  <time>2026-08-29T19:30:01Z</time>
  <course>133.39</course>
  <speed>1.53</speed>
  <fix>3d</fix>
</trkpt>
<trkpt lat="40.070809" lon="-105.2298105">
  <ele>1583.05</ele>
  <time>2026-08-29T19:30:01Z</time>
  <course>134.22</course>
  <speed>1.4991330828182001</speed>
  <fix>3d</fix>
</trkpt>
<trkpt lat="40.0708113" lon="-105.2298133">
  <ele>1583.0</ele>
  <time>2026-08-29T19:30:01Z</time>
  <course>133.39</course>
  <speed>1.53</speed>
  <fix>3d</fix>
</trkpt>
<trkpt lat="40.070808" lon="-105.2298092">
  <ele>1583.05</ele>
  <time>2026-08-29T19:30:01Z</time>
  <course>134.51</course>
  <speed>1.5061540425866142</speed>
  <fix>3d</fix>
</trkpt>
<trkpt lat="40.0708094" lon="-105.2298108">
  <ele>1583.0</ele>
  <time>2026-08-29T19:30:01Z</time>
  <course>133.46</course>
  <speed>1.53</speed>
  <fix>3d</fix>
</trkpt>
<trkpt lat="40.0708071" lon="-105.2298079">
  <ele>1583.05</ele>
  <time>2026-08-29T19:30:01Z</time>
  <course>135.97</course>
  <speed>1.499333185119305</speed>
  <fix>3d</fix>
</trkpt>
<trkpt lat="40.0708094" lon="-105.2298108">
  <ele>1583.0</ele>
  <time>2026-08-29T19:30:01Z</time>
  <course>133.46</course>
  <speed>1.53</speed>
  <fix>3d</fix>
</trkpt>
<trkpt lat="40.0708061" lon="-105.2298067">
  <ele>1583.05</ele>
  <time>2026-08-29T19:30:01Z</time>
  <course>138.54</course>
  <speed>1.4957606760441324</speed>
  <fix>3d</fix>
</trkpt>
<trkpt lat="40.0708075" lon="-105.2298082">
  <ele>1583.0</ele>
  <time>2026-08-29T19:30:01Z</time>
  <course>135.33</course>
  <speed>1.53</speed>
  <fix>3d</fix>
</trkpt>
<trkpt lat="40.070805" lon="-105.2298055">
  <ele>1583.05</ele>
  <time>2026-08-29T19:30:01Z</time>
  <course>142.21</course>
  <speed>1.484048516727132</speed>
  <fix>3d</fix>
</trkpt>
<trkpt lat="40.0708075" lon="-105.2298082">
  <ele>1583.0</ele>
  <time>2026-08-29T19:30:01Z</time>
  <course>135.33</course>
  <speed>1.53</speed>
  <fix>3d</fix>
</trkpt>
<trkpt lat="40.0708039" lon="-105.2298045">
  <ele>1583.05</ele>
  <time>2026-08-29T19:30:01Z</time>
  <course>146.97</course>
  <speed>1.4787156589419075</speed>
  <fix>3d</fix>
</trkpt>
<trkpt lat="40.0708055" lon="-105.2298058">
  <ele>1583.0</ele>
  <time>2026-08-29T19:30:01Z</time>
  <course>141.12</course>
  <speed>1.51</speed>
  <fix>3d</fix>
</trkpt>
<trkpt lat="40.0708028" lon="-105.2298036">
  <ele>1583.05</ele>
  <time>2026-08-29T19:30:01Z</time>
  <course>152.51</course>
  <speed>1.4534441853748632</speed>
  <fix>3d</fix>
</trkpt>
<trkpt lat="40.0708055" lon="-105.2298058">
  <ele>1583.0</ele>
  <time>2026-08-29T19:30:01Z</time>
  <course>141.12</course>
  <speed>1.51</speed>
  <fix>3d</fix>
</trkpt>
<trkpt lat="40.0708018" lon="-105.229803">
  <ele>1583.05</ele>
  <time>2026-08-29T19:30:01Z</time>
  <course>156.96</course>
  <speed>1.4261837188805655</speed>
  <fix>3d</fix>
</trkpt>
<trkpt lat="40.0708033" lon="-105.2298037">
  <ele>1583.0</ele>
  <time>2026-08-29T19:30:01Z</time>
  <course>150.55</course>
  <speed>1.48</speed>
  <fix>3d</fix>
</trkpt>
<trkpt lat="40.0708006" lon="-105.2298025">
  <ele>1583.05</ele>
  <time>2026-08-29T19:30:01Z</time>
  <course>162.45</course>
  <speed>1.386001443000692</speed>
  <fix>3d</fix>
</trkpt>
<trkpt lat="40.0708033" lon="-105.2298037">
  <ele>1583.0</ele>
  <time>2026-08-29T19:30:01Z</time>
  <course>150.55</course>
  <speed>1.48</speed>
  <fix>3d</fix>
</trkpt>
<trkpt lat="40.0707994" lon="-105.2298021">
  <ele>1583.05</ele>
  <time>2026-08-29T19:30:01Z</time>
  <course>167.95</course>
  <speed>1.3434656675925887</speed>
  <fix>3d</fix>
</trkpt>
<trkpt lat="40.0708008" lon="-105.2298024">
  <ele>1583.0</ele>
  <time>2026-08-29T19:30:01Z</time>
  <course>161.46</course>
  <speed>1.41</speed>
  <fix>3d</fix>
</trkpt>
<trkpt lat="40.0707982" lon="-105.2298018">
  <ele>1583.05</ele>
  <time>2026-08-29T19:30:01Z</time>
  <course>173.39</course>
  <speed>1.2847178678604885</speed>
  <fix>3d</fix>
</trkpt>
<trkpt lat="40.0708008" lon="-105.2298024">
  <ele>1583.0</ele>
  <time>2026-08-29T19:30:01Z</time>
  <course>161.46</course>
  <speed>1.41</speed>
  <fix>3d</fix>
</trkpt>
<trkpt lat="40.0707971" lon="-105.2298017">
  <ele>1583.05</ele>
  <time>2026-08-29T19:30:01Z</time>
  <course>178.88</course>
  <speed>1.23</speed>
  <fix>3d</fix>
</trkpt>
<trkpt lat="40.0707985" lon="-105.2298017">
  <ele>1583.0</ele>
  <time>2026-08-29T19:30:01Z</time>
  <course>172.38</course>
  <speed>1.3</speed>
  <fix>3d</fix>
</trkpt>
<trkpt lat="40.070796" lon="-105.2298018">
  <ele>1583.05</ele>
  <time>2026-08-29T19:30:01Z</time>
  <course>184.36</course>
  <speed>1.1761377470347596</speed>
  <fix>3d</fix>
</trkpt>
<trkpt lat="40.0707985" lon="-105.2298017">
  <ele>1583.0</ele>
  <time>2026-08-29T19:30:01Z</time>
  <course>172.38</course>
  <speed>1.3</speed>
  <fix>3d</fix>
</trkpt>
<trkpt lat="40.070795" lon="-105.2298019">
  <ele>1583.05</ele>
  <time>2026-08-29T19:30:01Z</time>
  <course>189.83</course>
  <speed>1.1237882362794158</speed>
  <fix>3d</fix>
</trkpt>
<trkpt lat="40.0707963" lon="-105.2298016">
  <ele>1583.0</ele>
  <time>2026-08-29T19:30:01Z</time>
  <course>183.34</course>
  <speed>1.19</speed>
  <fix>3d</fix>
</trkpt>
<trkpt lat="40.070794" lon="-105.2298022">
  <ele>1583.05</ele>
  <time>2026-08-29T19:30:01Z</time>
  <course>195.33</course>
  <speed>1.0881176406988355</speed>
  <fix>3d</fix>
</trkpt>
<trkpt lat="40.0707963" lon="-105.2298016">
  <ele>1583.0</ele>
  <time>2026-08-29T19:30:01Z</time>
  <course>183.34</course>
  <speed>1.19</speed>
  <fix>3d</fix>
</trkpt>
<trkpt lat="40.0707931" lon="-105.2298026">
  <ele>1583.04</ele>
  <time>2026-08-29T19:30:01Z</time>
  <course>200.2</course>
  <speed>1.0584894897919392</speed>
  <fix>3d</fix>
</trkpt>
<trkpt lat="40.0707943" lon="-105.2298019">
  <ele>1583.0</ele>
  <time>2026-08-29T19:30:01Z</time>
  <course>194.07</course>
  <speed>1.1</speed>
  <fix>3d</fix>
</trkpt>
<trkpt lat="40.0707922" lon="-105.2298031">
  <ele>1583.04</ele>
  <time>2026-08-29T19:30:01Z</time>
  <course>204.25</course>
  <speed>1.050951949424901</speed>
  <fix>3d</fix>
</trkpt>
<trkpt lat="40.0707943" lon="-105.2298019">
  <ele>1583.0</ele>
  <time>2026-08-29T19:30:01Z</time>
  <course>194.07</course>
  <speed>1.1</speed>
  <fix>3d</fix>
</trkpt>
<trkpt lat="40.0707912" lon="-105.2298038">
  <ele>1583.04</ele>
  <time>2026-08-29T19:30:01Z</time>
  <course>208.26</course>
  <speed>1.0530906893520615</speed>
  <fix>3d</fix>
</trkpt>
<trkpt lat="40.0707924" lon="-105.2298026">
  <ele>1583.0</ele>
  <time>2026-08-29T19:30:01Z</time>
  <course>203.08</course>
  <speed>1.06</speed>
  <fix>3d</fix>
</trkpt>
<trkpt lat="40.0707904" lon="-105.2298044">
  <ele>1583.04</ele>
  <time>2026-08-29T19:30:01Z</time>
  <course>211.01</course>
  <speed>1.0539449701004318</speed>
  <fix>3d</fix>
</trkpt>
<trkpt lat="40.0707924" lon="-105.2298026">
  <ele>1583.0</ele>
  <time>2026-08-29T19:30:01Z</time>
  <course>203.08</course>
  <speed>1.06</speed>
  <fix>3d</fix>
</trkpt>
<trkpt lat="40.0707896" lon="-105.2298051">
  <ele>1583.04</ele>
  <time>2026-08-29T19:30:01Z</time>
  <course>213.3</course>
  <speed>1.0683164325236227</speed>
  <fix>3d</fix>
</trkpt>
<trkpt lat="40.0707907" lon="-105.2298037">
  <ele>1583.0</ele>
  <time>2026-08-29T19:30:01Z</time>
  <course>209.46</course>
  <speed>1.06</speed>
  <fix>3d</fix>
</trkpt>
<trkpt lat="40.0707888" lon="-105.2298058">
  <ele>1583.04</ele>
  <time>2026-08-29T19:30:01Z</time>
  <course>215.18</course>
  <speed>1.0700467279516348</speed>
  <fix>3d</fix>
</trkpt>
<trkpt lat="40.0707907" lon="-105.2298037">
  <ele>1583.0</ele>
  <time>2026-08-29T19:30:01Z</time>
  <course>209.46</course>
  <speed>1.06</speed>
  <fix>3d</fix>
</trkpt>
<trkpt lat="40.070788" lon="-105.2298066">
  <ele>1583.03</ele>
  <time>2026-08-29T19:30:01Z</time>
  <course>216.08</course>
  <speed>1.0761505470890214</speed>
  <fix>3d</fix>
</trkpt>
<trkpt lat="40.0707891" lon="-105.229805">
  <ele>1583.0</ele>
  <time>2026-08-29T19:30:01Z</time>
  <course>213.63</course>
  <speed>1.07</speed>
  <fix>3d</fix>
</trkpt>
<trkpt lat="40.0707872" lon="-105.2298073">
  <ele>1583.03</ele>
  <time>2026-08-29T19:30:01Z</time>
  <course>216.85</course>
  <speed>1.0807404868885038</speed>
  <fix>3d</fix>
</trkpt>
<trkpt lat="40.0707891" lon="-105.229805">
  <ele>1583.0</ele>
  <time>2026-08-29T19:30:01Z</time>
  <course>213.63</course>
  <speed>1.07</speed>
  <fix>3d</fix>
</trkpt>
<trkpt lat="40.0707865" lon="-105.2298081">
  <ele>1583.03</ele>
  <time>2026-08-29T19:30:01Z</time>
  <course>218.27</course>
  <speed>1.0857716150277645</speed>
  <fix>3d</fix>
</trkpt>
<trkpt lat="40.0707875" lon="-105.2298065">
  <ele>1583.0</ele>
  <time>2026-08-29T19:30:01Z</time>
  <course>216.22</course>
  <speed>1.08</speed>
  <fix>3d</fix>
</trkpt>
<trkpt lat="40.0707857" lon="-105.2298089">
  <ele>1583.03</ele>
  <time>2026-08-29T19:30:01Z</time>
  <course>219.34</course>
  <speed>1.0987720418721982</speed>
  <fix>3d</fix>
</trkpt>
<trkpt lat="40.0707875" lon="-105.2298065">
  <ele>1583.0</ele>
  <time>2026-08-29T19:30:01Z</time>
  <course>216.22</course>
  <speed>1.08</speed>
  <fix>3d</fix>
</trkpt>
<trkpt lat="40.070785" lon="-105.2298097">
  <ele>1583.03</ele>
  <time>2026-08-29T19:30:01Z</time>
  <course>220.25</course>
  <speed>1.1119802156513396</speed>
  <fix>3d</fix>
</trkpt>
<trkpt lat="40.070786" lon="-105.229808">
  <ele>1583.0</ele>
  <time>2026-08-29T19:30:01Z</time>
  <course>218.27</course>
  <speed>1.09</speed>
  <fix>3d</fix>
</trkpt>
<trkpt lat="40.0707842" lon="-105.2298105">
  <ele>1583.03</ele>
  <time>2026-08-29T19:30:01Z</time>
  <course>221.01</course>
  <speed>1.1253888216967503</speed>
  <fix>3d</fix>
</trkpt>
<trkpt lat="40.070786" lon="-105.229808">
  <ele>1583.0</ele>
  <time>2026-08-29T19:30:01Z</time>
  <course>218.27</course>
  <speed>1.09</speed>
  <fix>3d</fix>
</trkpt>
<trkpt lat="40.0707834" lon="-105.2298114">
  <ele>1583.03</ele>
  <time>2026-08-29T19:30:01Z</time>
  <course>221.65</course>
  <speed>1.1389907813498754</speed>
  <fix>3d</fix>
</trkpt>
<trkpt lat="40.0707844" lon="-105.2298097">
  <ele>1583.0</ele>
  <time>2026-08-29T19:30:01Z</time>
  <course>220.02</course>
  <speed>1.12</speed>
  <fix>3d</fix>
</trkpt>
<trkpt lat="40.0707828" lon="-105.229812">
  <ele>1583.03</ele>
  <time>2026-08-29T19:30:01Z</time>
  <course>222.07</course>
  <speed>1.153126185636247</speed>
  <fix>3d</fix>
</trkpt>
<trkpt lat="40.0707844" lon="-105.2298097">
  <ele>1583.0</ele>
  <time>2026-08-29T19:30:01Z</time>
  <course>220.02</course>
  <speed>1.12</speed>
  <fix>3d</fix>
</trkpt>
<trkpt lat="40.0707821" lon="-105.2298129">
  <ele>1583.03</ele>
  <time>2026-08-29T19:30:01Z</time>
  <course>222.53</course>
  <speed>1.1741379816699569</speed>
  <fix>3d</fix>
</trkpt>
<trkpt lat="40.0707829" lon="-105.2298115">
  <ele>1583.0</ele>
  <time>2026-08-29T19:30:01Z</time>
  <course>221.24</course>
  <speed>1.15</speed>
  <fix>3d</fix>
</trkpt>
<trkpt lat="40.0707813" lon="-105.2298139">
  <ele>1583.03</ele>
  <time>2026-08-29T19:30:01Z</time>
  <course>222.9</course>
  <speed>1.195198728245642</speed>
  <fix>3d</fix>
</trkpt>
<trkpt lat="40.0707829" lon="-105.2298115">
  <ele>1583.0</ele>
  <time>2026-08-29T19:30:01Z</time>
  <course>221.24</course>
  <speed>1.15</speed>
  <fix>3d</fix>
</trkpt>
<trkpt lat="40.0707805" lon="-105.2298148">
  <ele>1583.03</ele>
  <time>2026-08-29T19:30:01Z</time>
  <course>223.21</course>
  <speed>1.2093386622447826</speed>
  <fix>3d</fix>
</trkpt>
<trkpt lat="40.0707812" lon="-105.2298133">
  <ele>1583.0</ele>
  <time>2026-08-29T19:30:01Z</time>
  <course>222.08</course>
  <speed>1.18</speed>
  <fix>3d</fix>
</trkpt>
<trkpt lat="40.0707797" lon="-105.2298158">
  <ele>1583.03</ele>
  <time>2026-08-29T19:30:01Z</time>
  <course>223.47</course>
  <speed>1.2304470732217618</speed>
  <fix>3d</fix>
</trkpt>
<trkpt lat="40.0707812" lon="-105.2298133">
  <ele>1583.0</ele>
  <time>2026-08-29T19:30:01Z</time>
  <course>222.08</course>
  <speed>1.18</speed>
  <fix>3d</fix>
</trkpt>
<trkpt lat="40.0707788" lon="-105.2298168">
  <ele>1583.03</ele>
  <time>2026-08-29T19:30:01Z</time>
  <course>223.68</course>
  <speed>1.2445882853377659</speed>
  <fix>3d</fix>
</trkpt>
<trkpt lat="40.0707797" lon="-105.2298152">
  <ele>1583.0</ele>
  <time>2026-08-29T19:30:01Z</time>
  <course>222.66</course>
  <speed>1.22</speed>
  <fix>3d</fix>
</trkpt>
<trkpt lat="40.070778" lon="-105.2298178">
  <ele>1583.02</ele>
  <time>2026-08-29T19:30:01Z</time>
  <course>223.86</course>
  <speed>1.2657408897558773</speed>
  <fix>3d</fix>
</trkpt>
<trkpt lat="40.0707797" lon="-105.2298152">
  <ele>1583.0</ele>
  <time>2026-08-29T19:30:01Z</time>
  <course>222.66</course>
  <speed>1.22</speed>
  <fix>3d</fix>
</trkpt>
<trkpt lat="40.0707772" lon="-105.2298188">
  <ele>1583.02</ele>
  <time>2026-08-29T19:30:01Z</time>
  <course>224.01</course>
  <speed>1.279882807135091</speed>
  <fix>3d</fix>
</trkpt>
<trkpt lat="40.0707781" lon="-105.2298172">
  <ele>1583.0</ele>
  <time>2026-08-29T19:30:01Z</time>
  <course>223.06</course>
  <speed>1.26</speed>
  <fix>3d</fix>
</trkpt>
<trkpt lat="40.0707763" lon="-105.2298198">
  <ele>1583.02</ele>
  <time>2026-08-29T19:30:01Z</time>
  <course>224.13</course>
  <speed>1.2940247292845684</speed>
  <fix>3d</fix>
</trkpt>
<trkpt lat="40.0707781" lon="-105.2298172">
  <ele>1583.0</ele>
  <time>2026-08-29T19:30:01Z</time>
  <course>223.06</course>
  <speed>1.26</speed>
  <fix>3d</fix>
</trkpt>
<trkpt lat="40.0707753" lon="-105.2298211">
  <ele>1583.01</ele>
  <time>2026-08-29T19:30:01Z</time>
  <course>224.25</course>
  <speed>1.308166656049603</speed>
  <fix>3d</fix>
</trkpt>
<trkpt lat="40.0707764" lon="-105.2298193">
  <ele>1583.0</ele>
  <time>2026-08-29T19:30:01Z</time>
  <course>223.33</course>
  <speed>1.29</speed>
  <fix>3d</fix>
</trkpt>
<trkpt lat="40.0707744" lon="-105.2298222">
  <ele>1583.01</ele>
  <time>2026-08-29T19:30:01Z</time>
  <course>224.32</course>
  <speed>1.3294359706281458</speed>
  <fix>3d</fix>
</trkpt>
<trkpt lat="40.0707764" lon="-105.2298193">
  <ele>1583.0</ele>
  <time>2026-08-29T19:30:01Z</time>
  <course>223.33</course>
  <speed>1.29</speed>
  <fix>3d</fix>
</trkpt>
<trkpt lat="40.0707735" lon="-105.2298233">
  <ele>1583.01</ele>
  <time>2026-08-29T19:30:01Z</time>
  <course>224.39</course>
  <speed>1.3364505228402583</speed>
  <fix>3d</fix>
</trkpt>
<trkpt lat="40.0707747" lon="-105.2298213">
  <ele>1583.0</ele>
  <time>2026-08-29T19:30:01Z</time>
  <course>223.52</course>
  <speed>1.32</speed>
  <fix>3d</fix>
</trkpt>
<trkpt lat="40.0707726" lon="-105.2298243">
  <ele>1583.01</ele>
  <time>2026-08-29T19:30:01Z</time>
  <course>224.44</course>
  <speed>1.3505924625881784</speed>
  <fix>3d</fix>
</trkpt>
<trkpt lat="40.0707747" lon="-105.2298213">
  <ele>1583.0</ele>
  <time>2026-08-29T19:30:01Z</time>
  <course>223.52</course>
  <speed>1.32</speed>
  <fix>3d</fix>
</trkpt>
<trkpt lat="40.0707718" lon="-105.2298254">
  <ele>1583.01</ele>
  <time>2026-08-29T19:30:01Z</time>
  <course>224.48</course>
  <speed>1.364734406395618</speed>
  <fix>3d</fix>
</trkpt>
<trkpt lat="40.0707729" lon="-105.2298236">
  <ele>1583.0</ele>
  <time>2026-08-29T19:30:01Z</time>
  <course>223.64</course>
  <speed>1.34</speed>
  <fix>3d</fix>
</trkpt>
<trkpt lat="40.0707708" lon="-105.2298266">
  <ele>1583.02</ele>
  <time>2026-08-29T19:30:01Z</time>
  <course>224.52</course>
  <speed>1.3788763541376725</speed>
  <fix>3d</fix>
</trkpt>
<trkpt lat="40.0707729" lon="-105.2298236">
  <ele>1583.0</ele>
  <time>2026-08-29T19:30:01Z</time>
  <course>223.64</course>
  <speed>1.34</speed>
  <fix>3d</fix>
</trkpt>
<trkpt lat="40.0707699" lon="-105.2298277">
  <ele>1583.02</ele>
  <time>2026-08-29T19:30:01Z</time>
  <course>224.55</course>
  <speed>1.393018305694509</speed>
  <fix>3d</fix>
</trkpt>
<trkpt lat="40.0707711" lon="-105.2298257">
  <ele>1583.0</ele>
  <time>2026-08-29T19:30:01Z</time>
  <course>223.73</course>
  <speed>1.37</speed>
  <fix>3d</fix>
</trkpt>
<trkpt lat="40.070769" lon="-105.2298288">
  <ele>1583.02</ele>
  <time>2026-08-29T19:30:01Z</time>
  <course>224.52</course>
  <speed>1.400142849854971</speed>
  <fix>3d</fix>
</trkpt>
<trkpt lat="40.0707711" lon="-105.2298257">
  <ele>1583.0</ele>
  <time>2026-08-29T19:30:01Z</time>
  <course>223.73</course>
  <speed>1.37</speed>
  <fix>3d</fix>
</trkpt>
<trkpt lat="40.0707681" lon="-105.2298299">
  <ele>1583.02</ele>
  <time>2026-08-29T19:30:01Z</time>
  <course>223.58</course>
  <speed>1.4075865870347015</speed>
  <fix>3d</fix>
</trkpt>
<trkpt lat="40.0707694" lon="-105.229828">
  <ele>1583.0</ele>
  <time>2026-08-29T19:30:01Z</time>
  <course>223.41</course>
  <speed>1.39</speed>
  <fix>3d</fix>
</trkpt>
<trkpt lat="40.0707672" lon="-105.229831">
  <ele>1583.02</ele>
  <time>2026-08-29T19:30:01Z</time>
  <course>221.5</course>
  <speed>1.4101418368376992</speed>
  <fix>3d</fix>
</trkpt>
<trkpt lat="40.0707694" lon="-105.229828">
  <ele>1583.0</ele>
  <time>2026-08-29T19:30:01Z</time>
  <course>223.41</course>
  <speed>1.39</speed>
  <fix>3d</fix>
</trkpt>
<trkpt lat="40.0707662" lon="-105.229832">
  <ele>1583.03</ele>
  <time>2026-08-29T19:30:01Z</time>
  <course>218.35</course>
  <speed>1.410319112825179</speed>
  <fix>3d</fix>
</trkpt>
<trkpt lat="40.0707675" lon="-105.2298302">
  <ele>1583.0</ele>
  <time>2026-08-29T19:30:01Z</time>
  <course>220.64</course>
  <speed>1.4</speed>
  <fix>3d</fix>
</trkpt>
<trkpt lat="40.0707651" lon="-105.229833">
  <ele>1583.03</ele>
  <time>2026-08-29T19:30:01Z</time>
  <course>214.31</course>
  <speed>1.4117365193264642</speed>
  <fix>3d</fix>
</trkpt>
<trkpt lat="40.0707675" lon="-105.2298302">
  <ele>1583.0</ele>
  <time>2026-08-29T19:30:01Z</time>
  <course>220.64</course>
  <speed>1.4</speed>
  <fix>3d</fix>
</trkpt>
<trkpt lat="40.0707643" lon="-105.2298337">
  <ele>1583.03</ele>
  <time>2026-08-29T19:30:01Z</time>
  <course>211.08</course>
  <speed>1.3994284547628721</speed>
  <fix>3d</fix>
</trkpt>
<trkpt lat="40.0707655" lon="-105.2298322">
  <ele>1583.0</ele>
  <time>2026-08-29T19:30:01Z</time>
  <course>214.27</course>
  <speed>1.4</speed>
  <fix>3d</fix>
</trkpt>
<trkpt lat="40.0707632" lon="-105.2298344">
  <ele>1583.03</ele>
  <time>2026-08-29T19:30:01Z</time>
  <course>206.99</course>
  <speed>1.3774251340817039</speed>
  <fix>3d</fix>
</trkpt>
<trkpt lat="40.0707655" lon="-105.2298322">
  <ele>1583.0</ele>
  <time>2026-08-29T19:30:01Z</time>
  <course>214.27</course>
  <speed>1.4</speed>
  <fix>3d</fix>
</trkpt>
<trkpt lat="40.070762" lon="-105.229835">
  <ele>1583.03</ele>
  <time>2026-08-29T19:30:01Z</time>
  <course>202.85</course>
  <speed>1.3500370365289984</speed>
  <fix>3d</fix>
</trkpt>
<trkpt lat="40.0707634" lon="-105.2298338">
  <ele>1583.0</ele>
  <time>2026-08-29T19:30:01Z</time>
  <course>206.24</course>
  <speed>1.37</speed>
  <fix>3d</fix>
</trkpt>
<trkpt lat="40.0707609" lon="-105.2298355">
  <ele>1583.04</ele>
  <time>2026-08-29T19:30:01Z</time>
  <course>198.71</course>
  <speed>1.3155227098001767</speed>
  <fix>3d</fix>
</trkpt>
<trkpt lat="40.0707634" lon="-105.2298338">
  <ele>1583.0</ele>
  <time>2026-08-29T19:30:01Z</time>
  <course>206.24</course>
  <speed>1.37</speed>
  <fix>3d</fix>
</trkpt>
<trkpt lat="40.0707598" lon="-105.2298359">
  <ele>1583.04</ele>
  <time>2026-08-29T19:30:01Z</time>
  <course>194.52</course>
  <speed>1.2660568707605515</speed>
  <fix>3d</fix>
</trkpt>
<trkpt lat="40.0707611" lon="-105.2298351">
  <ele>1583.0</ele>
  <time>2026-08-29T19:30:01Z</time>
  <course>198.0</course>
  <speed>1.3</speed>
  <fix>3d</fix>
</trkpt>
<trkpt lat="40.0707587" lon="-105.2298361">
  <ele>1583.04</ele>
  <time>2026-08-29T19:30:01Z</time>
  <course>190.33</course>
  <speed>1.2264175471673584</speed>
  <fix>3d</fix>
</trkpt>
<trkpt lat="40.0707611" lon="-105.2298351">
  <ele>1583.0</ele>
  <time>2026-08-29T19:30:01Z</time>
  <course>198.0</course>
  <speed>1.3</speed>
  <fix>3d</fix>
</trkpt>
<trkpt lat="40.0707576" lon="-105.2298363">
  <ele>1583.04</ele>
  <time>2026-08-29T19:30:01Z</time>
  <course>186.14</course>
  <speed>1.1742657280190034</speed>
  <fix>3d</fix>
</trkpt>
<trkpt lat="40.0707589" lon="-105.2298357">
  <ele>1583.0</ele>
  <time>2026-08-29T19:30:01Z</time>
  <course>189.67</course>
  <speed>1.21</speed>
  <fix>3d</fix>
</trkpt>
<trkpt lat="40.0707565" lon="-105.2298363">
  <ele>1583.04</ele>
  <time>2026-08-29T19:30:01Z</time>
  <course>181.94</course>
  <speed>1.120044641967453</speed>
  <fix>3d</fix>
</trkpt>
<trkpt lat="40.0707589" lon="-105.2298357">
  <ele>1583.0</ele>
  <time>2026-08-29T19:30:01Z</time>
  <course>189.67</course>
  <speed>1.21</speed>
  <fix>3d</fix>
</trkpt>
<trkpt lat="40.0707555" lon="-105.2298362">
  <ele>1583.05</ele>
  <time>2026-08-29T19:30:01Z</time>
  <course>177.81</course>
  <speed>1.0716809226630846</speed>
  <fix>3d</fix>
</trkpt>
<trkpt lat="40.0707568" lon="-105.229836">
  <ele>1583.0</ele>
  <time>2026-08-29T19:30:01Z</time>
  <course>181.36</course>
  <speed>1.11</speed>
  <fix>3d</fix>
</trkpt>
<trkpt lat="40.0707544" lon="-105.229836">
  <ele>1583.05</ele>
  <time>2026-08-29T19:30:01Z</time>
  <course>172.94</course>
  <speed>1.009752444909147</speed>
  <fix>3d</fix>
</trkpt>
<trkpt lat="40.0707568" lon="-105.229836">
  <ele>1583.0</ele>
  <time>2026-08-29T19:30:01Z</time>
  <course>181.36</course>
  <speed>1.11</speed>
  <fix>3d</fix>
</trkpt>
<trkpt lat="40.0707535" lon="-105.2298358">
  <ele>1583.05</ele>
  <time>2026-08-29T19:30:01Z</time>
  <course>168.98</course>
  <speed>0.982700361249552</speed>
  <fix>3d</fix>
</trkpt>
<trkpt lat="40.0707549" lon="-105.229836">
  <ele>1583.0</ele>
  <time>2026-08-29T19:30:01Z</time>
  <course>173.17</course>
  <speed>1.02</speed>
  <fix>3d</fix>
</trkpt>
<trkpt lat="40.0707527" lon="-105.2298355">
  <ele>1583.05</ele>
  <time>2026-08-29T19:30:01Z</time>
  <course>165.2</course>
  <speed>0.9560334722173696</speed>
  <fix>3d</fix>
</trkpt>
<trkpt lat="40.0707549" lon="-105.229836">
  <ele>1583.0</ele>
  <time>2026-08-29T19:30:01Z</time>
  <course>173.17</course>
  <speed>1.02</speed>
  <fix>3d</fix>
</trkpt>
<trkpt lat="40.0707519" lon="-105.2298352">
  <ele>1583.05</ele>
  <time>2026-08-29T19:30:01Z</time>
  <course>161.58</course>
  <speed>0.93637599285757</speed>
  <fix>3d</fix>
</trkpt>
<trkpt lat="40.0707532" lon="-105.2298356">
  <ele>1583.0</ele>
  <time>2026-08-29T19:30:01Z</time>
  <course>165.33</course>
  <speed>0.96</speed>
  <fix>3d</fix>
</trkpt>
<trkpt lat="40.0707511" lon="-105.2298348">
  <ele>1583.06</ele>
  <time>2026-08-29T19:30:01Z</time>
  <course>158.1</course>
  <speed>0.9270382947861431</speed>
  <fix>3d</fix>
</trkpt>
<trkpt lat="40.0707532" lon="-105.2298356">
  <ele>1583.0</ele>
  <time>2026-08-29T19:30:01Z</time>
  <course>165.33</course>
  <speed>0.96</speed>
  <fix>3d</fix>
</trkpt>
<trkpt lat="40.0707504" lon="-105.2298343">
  <ele>1583.06</ele>
  <time>2026-08-29T19:30:01Z</time>
  <course>154.74</course>
  <speed>0.9302150289046076</speed>
  <fix>3d</fix>
</trkpt>
<trkpt lat="40.0707515" lon="-105.2298348">
  <ele>1583.0</ele>
  <time>2026-08-29T19:30:01Z</time>
  <course>158.07</course>
  <speed>0.93</speed>
  <fix>3d</fix>
</trkpt>
<trkpt lat="40.0707496" lon="-105.2298338">
  <ele>1583.06</ele>
  <time>2026-08-29T19:30:01Z</time>
  <course>151.47</course>
  <speed>0.9364827814754524</speed>
  <fix>3d</fix>
</trkpt>
<trkpt lat="40.0707515" lon="-105.2298348">
  <ele>1583.0</ele>
  <time>2026-08-29T19:30:01Z</time>
  <course>158.07</course>
  <speed>0.93</speed>
  <fix>3d</fix>
</trkpt>
<trkpt lat="40.0707489" lon="-105.2298332">
  <ele>1583.06</ele>
  <time>2026-08-29T19:30:01Z</time>
  <course>148.3</course>
  <speed>0.9457801012920498</speed>
  <fix>3d</fix>
</trkpt>
<trkpt lat="40.07075" lon="-105.2298339">
  <ele>1583.0</ele>
  <time>2026-08-29T19:30:01Z</time>
  <course>151.33</course>
  <speed>0.93</speed>
  <fix>3d</fix>
</trkpt>
<trkpt lat="40.0707482" lon="-105.2298325">
  <ele>1583.06</ele>
  <time>2026-08-29T19:30:01Z</time>
  <course>145.23</course>
  <speed>0.9580187889597991</speed>
  <fix>3d</fix>
</trkpt>
<trkpt lat="40.07075" lon="-105.2298339">
  <ele>1583.0</ele>
  <time>2026-08-29T19:30:01Z</time>
  <course>151.33</course>
  <speed>0.93</speed>
  <fix>3d</fix>
</trkpt>
<trkpt lat="40.0707475" lon="-105.2298318">
  <ele>1583.06</ele>
  <time>2026-08-29T19:30:01Z</time>
  <course>142.27</course>
  <speed>0.9667471230885561</speed>
  <fix>3d</fix>
</trkpt>
<trkpt lat="40.0707486" lon="-105.2298328">
  <ele>1583.0</ele>
  <time>2026-08-29T19:30:01Z</time>
  <course>145.04</course>
  <speed>0.95</speed>
  <fix>3d</fix>
</trkpt>
<trkpt lat="40.0707469" lon="-105.2298311">
  <ele>1583.05</ele>
  <time>2026-08-29T19:30:01Z</time>
  <course>139.4</course>
  <speed>0.9767292357659824</speed>
  <fix>3d</fix>
</trkpt>
<trkpt lat="40.0707486" lon="-105.2298328">
  <ele>1583.0</ele>
  <time>2026-08-29T19:30:01Z</time>
  <course>145.04</course>
  <speed>0.95</speed>
  <fix>3d</fix>
</trkpt>
<trkpt lat="40.0707464" lon="-105.2298304">
  <ele>1583.05</ele>
  <time>2026-08-29T19:30:01Z</time>
  <course>137.18</course>
  <speed>0.9829038610159185</speed>
  <fix>3d</fix>
</trkpt>
<trkpt lat="40.0707472" lon="-105.2298314">
  <ele>1583.0</ele>
  <time>2026-08-29T19:30:01Z</time>
  <course>139.18</course>
  <speed>0.97</speed>
  <fix>3d</fix>
</trkpt>
<trkpt lat="40.0707458" lon="-105.2298296">
  <ele>1583.05</ele>
  <time>2026-08-29T19:30:01Z</time>
  <course>134.53</course>
  <speed>0.9976472322419383</speed>
  <fix>3d</fix>
</trkpt>
<trkpt lat="40.0707472" lon="-105.2298314">
  <ele>1583.0</ele>
  <time>2026-08-29T19:30:01Z</time>
  <course>139.18</course>
  <speed>0.97</speed>
  <fix>3d</fix>
</trkpt>
<trkpt lat="40.0707452" lon="-105.2298287">
  <ele>1583.05</ele>
  <time>2026-08-29T19:30:01Z</time>
  <course>132.02</course>
  <speed>1.007670581092849</speed>
  <fix>3d</fix>
</trkpt>
<trkpt lat="40.0707459" lon="-105.2298297">
  <ele>1583.0</ele>
  <time>2026-08-29T19:30:01Z</time>
  <course>133.76</course>
  <speed>1.0</speed>
  <fix>3d</fix>
</trkpt>
<trkpt lat="40.0707446" lon="-105.2298277">
  <ele>1583.05</ele>
  <time>2026-08-29T19:30:01Z</time>
  <course>129.66</course>
  <speed>1.0401922899156675</speed>
  <fix>3d</fix>
</trkpt>
<trkpt lat="40.0707459" lon="-105.2298297">
  <ele>1583.0</ele>
  <time>2026-08-29T19:30:01Z</time>
  <course>133.76</course>
  <speed>1.0</speed>
  <fix>3d</fix>
</trkpt>
<trkpt lat="40.070744" lon="-105.2298267">
  <ele>1583.05</ele>
  <time>2026-08-29T19:30:01Z</time>
  <course>127.41</course>
  <speed>1.0741508273980893</speed>
  <fix>3d</fix>
</trkpt>
<trkpt lat="40.0707447" lon="-105.2298279">
  <ele>1583.0</ele>
  <time>2026-08-29T19:30:01Z</time>
  <course>128.84</course>
  <speed>1.05</speed>
  <fix>3d</fix>
</trkpt>
<trkpt lat="40.0707434" lon="-105.2298257">
  <ele>1583.05</ele>
  <time>2026-08-29T19:30:01Z</time>
  <course>125.3</course>
  <speed>1.1177208953938367</speed>
  <fix>3d</fix>
</trkpt>
<trkpt lat="40.0707447" lon="-105.2298279">
  <ele>1583.0</ele>
  <time>2026-08-29T19:30:01Z</time>
  <course>128.84</course>
  <speed>1.05</speed>
  <fix>3d</fix>
</trkpt>
<trkpt lat="40.0707429" lon="-105.2298245">
  <ele>1583.05</ele>
  <time>2026-08-29T19:30:01Z</time>
  <course>123.3</course>
  <speed>1.162841347734075</speed>
  <fix>3d</fix>
</trkpt>
<trkpt lat="40.0707436" lon="-105.2298259">
  <ele>1583.0</ele>
  <time>2026-08-29T19:30:01Z</time>
  <course>124.46</course>
  <speed>1.12</speed>
  <fix>3d</fix>
</trkpt>
<trkpt lat="40.0707423" lon="-105.2298233">
  <ele>1583.05</ele>
  <time>2026-08-29T19:30:01Z</time>
  <course>121.43</course>
  <speed>1.2093386622447826</speed>
  <fix>3d</fix>
</trkpt>
<trkpt lat="40.0707436" lon="-105.2298259">
  <ele>1583.0</ele>
  <time>2026-08-29T19:30:01Z</time>
  <course>124.46</course>
  <speed>1.12</speed>
  <fix>3d</fix>
</trkpt>
<trkpt lat="40.0707418" lon="-105.229822">
  <ele>1583.05</ele>
  <time>2026-08-29T19:30:01Z</time>
  <course>119.66</course>
  <speed>1.257060062208644</speed>
  <fix>3d</fix>
</trkpt>
<trkpt lat="40.0707424" lon="-105.2298235">
  <ele>1583.0</ele>
  <time>2026-08-29T19:30:01Z</time>
  <course>120.59</course>
  <speed>1.22</speed>
  <fix>3d</fix>
</trkpt>
<trkpt lat="40.0707412" lon="-105.2298206">
  <ele>1583.05</ele>
  <time>2026-08-29T19:30:01Z</time>
  <course>118.01</course>
  <speed>1.319280106724876</speed>
  <fix>3d</fix>
</trkpt>
<trkpt lat="40.0707424" lon="-105.2298235">
  <ele>1583.0</ele>
  <time>2026-08-29T19:30:01Z</time>
  <course>120.59</course>
  <speed>1.22</speed>
  <fix>3d</fix>
</trkpt>
<trkpt lat="40.0707406" lon="-105.2298189">
  <ele>1583.05</ele>
  <time>2026-08-29T19:30:01Z</time>
  <course>116.16</course>
  <speed>1.3738267721950974</speed>
  <fix>3d</fix>
</trkpt>
<trkpt lat="40.0707413" lon="-105.2298209">
  <ele>1583.0</ele>
  <time>2026-08-29T19:30:01Z</time>
  <course>117.18</course>
  <speed>1.32</speed>
  <fix>3d</fix>
</trkpt>
<trkpt lat="40.0707401" lon="-105.2298173">
  <ele>1583.05</ele>
  <time>2026-08-29T19:30:01Z</time>
  <course>114.72</course>
  <speed>1.4246754016266303</speed>
  <fix>3d</fix>
</trkpt>
<trkpt lat="40.0707413" lon="-105.2298209">
  <ele>1583.0</ele>
  <time>2026-08-29T19:30:01Z</time>
  <course>117.18</course>
  <speed>1.32</speed>
  <fix>3d</fix>
</trkpt>
<trkpt lat="40.0707396" lon="-105.2298158">
  <ele>1583.05</ele>
  <time>2026-08-29T19:30:01Z</time>
  <course>113.37</course>
  <speed>1.476279106402309</speed>
  <fix>3d</fix>
</trkpt>
<trkpt lat="40.0707403" lon="-105.229818">
  <ele>1583.0</ele>
  <time>2026-08-29T19:30:01Z</time>
  <course>114.18</course>
  <speed>1.42</speed>
  <fix>3d</fix>
</trkpt>
<trkpt lat="40.0707391" lon="-105.2298141">
  <ele>1583.05</ele>
  <time>2026-08-29T19:30:01Z</time>
  <course>112.11</course>
  <speed>1.5192103211866352</speed>
  <fix>3d</fix>
</trkpt>
<trkpt lat="40.0707403" lon="-105.229818">
  <ele>1583.0</ele>
  <time>2026-08-29T19:30:01Z</time>
  <course>114.18</course>
  <speed>1.42</speed>
  <fix>3d</fix>
</trkpt>
<trkpt lat="40.0707386" lon="-105.2298124">
  <ele>1583.05</ele>
  <time>2026-08-29T19:30:01Z</time>
  <course>110.96</course>
  <speed>1.5592626462530292</speed>
  <fix>3d</fix>
</trkpt>
<trkpt lat="40.0707393" lon="-105.2298149">
  <ele>1583.0</ele>
  <time>2026-08-29T19:30:01Z</time>
  <course>111.54</course>
  <speed>1.51</speed>
  <fix>3d</fix>
</trkpt>
<trkpt lat="40.0707381" lon="-105.2298106">
  <ele>1583.05</ele>
  <time>2026-08-29T19:30:01Z</time>
  <course>109.93</course>
  <speed>1.603277892319357</speed>
  <fix>3d</fix>
</trkpt>
<trkpt lat="40.0707393" lon="-105.2298149">
  <ele>1583.0</ele>
  <time>2026-08-29T19:30:01Z</time>
  <course>111.54</course>
  <speed>1.51</speed>
  <fix>3d</fix>
</trkpt>
<trkpt lat="40.0707376" lon="-105.2298088">
  <ele>1583.05</ele>
  <time>2026-08-29T19:30:01Z</time>
  <course>109.0</course>
  <speed>1.6476953601925328</speed>
  <fix>3d</fix>
</trkpt>
<trkpt lat="40.0707383" lon="-105.2298114">
  <ele>1583.0</ele>
  <time>2026-08-29T19:30:01Z</time>
  <course>109.31</course>
  <speed>1.6</speed>
  <fix>3d</fix>
</trkpt>
<trkpt lat="40.0707372" lon="-105.2298069">
  <ele>1583.06</ele>
  <time>2026-08-29T19:30:01Z</time>
  <course>108.18</course>
  <speed>1.682914139223983</speed>
  <fix>3d</fix>
</trkpt>
<trkpt lat="40.0707383" lon="-105.2298114">
  <ele>1583.0</ele>
  <time>2026-08-29T19:30:01Z</time>
  <course>109.31</course>
  <speed>1.6</speed>
  <fix>3d</fix>
</trkpt>
<trkpt lat="40.0707368" lon="-105.229805">
  <ele>1583.06</ele>
  <time>2026-08-29T19:30:01Z</time>
  <course>107.47</course>
  <speed>1.7184004189943625</speed>
  <fix>3d</fix>
</trkpt>
<trkpt lat="40.0707373" lon="-105.2298078">
  <ele>1583.0</ele>
  <time>2026-08-29T19:30:01Z</time>
  <course>107.53</course>
  <speed>1.68</speed>
  <fix>3d</fix>
</trkpt>
<trkpt lat="40.0707363" lon="-105.229803">
  <ele>1583.06</ele>
  <time>2026-08-29T19:30:01Z</time>
  <course>106.85</course>
  <speed>1.7541379649275024</speed>
  <fix>3d</fix>
</trkpt>
<trkpt lat="40.0707373" lon="-105.2298078">
  <ele>1583.0</ele>
  <time>2026-08-29T19:30:01Z</time>
  <course>107.53</course>
  <speed>1.68</speed>
  <fix>3d</fix>
</trkpt>
<trkpt lat="40.0707359" lon="-105.229801">
  <ele>1583.06</ele>
  <time>2026-08-29T19:30:01Z</time>
  <course>106.35</course>
  <speed>1.7804493814764857</speed>
  <fix>3d</fix>
</trkpt>
<trkpt lat="40.0707364" lon="-105.2298039">
  <ele>1583.0</ele>
  <time>2026-08-29T19:30:01Z</time>
  <course>106.17</course>
  <speed>1.75</speed>
  <fix>3d</fix>
</trkpt>
<trkpt lat="40.0707356" lon="-105.2297994">
  <ele>1583.06</ele>
  <time>2026-08-29T19:30:01Z</time>
  <course>106.01</course>
  <speed>1.7997777640586627</speed>
  <fix>3d</fix>
</trkpt>
<trkpt lat="40.0707364" lon="-105.2298039">
  <ele>1583.0</ele>
  <time>2026-08-29T19:30:01Z</time>
  <course>106.17</course>
  <speed>1.75</speed>
  <fix>3d</fix>
</trkpt>
<trkpt lat="40.0707351" lon="-105.2297973">
  <ele>1583.06</ele>
  <time>2026-08-29T19:30:01Z</time>
  <course>105.67</course>
  <speed>1.8287974190707947</speed>
  <fix>3d</fix>
</trkpt>
<trkpt lat="40.0707356" lon="-105.2297998">
  <ele>1583.0</ele>
  <time>2026-08-29T19:30:01Z</time>
  <course>105.21</course>
  <speed>1.82</speed>
  <fix>3d</fix>
</trkpt>
<trkpt lat="40.0707347" lon="-105.2297952">
  <ele>1583.06</ele>
  <time>2026-08-29T19:30:01Z</time>
  <course>105.42</course>
  <speed>1.8578482176970217</speed>
  <fix>3d</fix>
</trkpt>
<trkpt lat="40.0707356" lon="-105.2297998">
  <ele>1583.0</ele>
  <time>2026-08-29T19:30:01Z</time>
  <course>105.21</course>
  <speed>1.82</speed>
  <fix>3d</fix>
</trkpt>
<trkpt lat="40.0707343" lon="-105.2297931">
  <ele>1583.06</ele>
  <time>2026-08-29T19:30:01Z</time>
  <course>105.27</course>
  <speed>1.8772320048411704</speed>
  <fix>3d</fix>
</trkpt>
<trkpt lat="40.0707347" lon="-105.2297957">
  <ele>1583.0</ele>
  <time>2026-08-29T19:30:01Z</time>
  <course>104.62</course>
  <speed>1.87</speed>
  <fix>3d</fix>
</trkpt>
<trkpt lat="40.0707339" lon="-105.2297909">
  <ele>1583.06</ele>
  <time>2026-08-29T19:30:01Z</time>
  <course>105.2</course>
  <speed>1.8966285877841238</speed>
  <fix>3d</fix>
</trkpt>
<trkpt lat="40.0707347" lon="-105.2297957">
  <ele>1583.0</ele>
  <time>2026-08-29T19:30:01Z</time>
  <course>104.62</course>
  <speed>1.87</speed>
  <fix>3d</fix>
</trkpt>
<trkpt lat="40.0707334" lon="-105.2297887">
  <ele>1583.06</ele>
  <time>2026-08-29T19:30:01Z</time>
  <course>105.2</course>
  <speed>1.9087692369692046</speed>
  <fix>3d</fix>
</trkpt>
<trkpt lat="40.0707338" lon="-105.2297914">
  <ele>1583.0</ele>
  <time>2026-08-29T19:30:01Z</time>
  <course>104.39</course>
  <speed>1.91</speed>
  <fix>3d</fix>
</trkpt>
<trkpt lat="40.070733" lon="-105.2297865">
  <ele>1583.06</ele>
  <time>2026-08-29T19:30:01Z</time>
  <course>105.27</course>
  <speed>1.9281597444195333</speed>
  <fix>3d</fix>
</trkpt>
<trkpt lat="40.0707338" lon="-105.2297914">
  <ele>1583.0</ele>
  <time>2026-08-29T19:30:01Z</time>
  <course>104.39</course>
  <speed>1.91</speed>
  <fix>3d</fix>
</trkpt>
<trkpt lat="40.0707325" lon="-105.2297842">
  <ele>1583.06</ele>
  <time>2026-08-29T19:30:01Z</time>
  <course>105.43</course>
  <speed>1.9403092537015845</speed>
  <fix>3d</fix>
</trkpt>
<trkpt lat="40.070733" lon="-105.2297869">
  <ele>1583.0</ele>
  <time>2026-08-29T19:30:01Z</time>
  <course>104.47</course>
  <speed>1.95</speed>
  <fix>3d</fix>
</trkpt>
<trkpt lat="40.0707321" lon="-105.229782">
  <ele>1583.06</ele>
  <time>2026-08-29T19:30:01Z</time>
  <course>105.67</course>
  <speed>1.955019181491578</speed>
  <fix>3d</fix>
</trkpt>
<trkpt lat="40.070733" lon="-105.2297869">
  <ele>1583.0</ele>
  <time>2026-08-29T19:30:01Z</time>
  <course>104.47</course>
  <speed>1.95</speed>
  <fix>3d</fix>
</trkpt>
<trkpt lat="40.0707316" lon="-105.2297797">
  <ele>1583.06</ele>
  <time>2026-08-29T19:30:01Z</time>
  <course>105.98</course>
  <speed>1.9672569735548024</speed>
  <fix>3d</fix>
</trkpt>
<trkpt lat="40.0707321" lon="-105.2297825">
  <ele>1583.0</ele>
  <time>2026-08-29T19:30:01Z</time>
  <course>104.86</course>
  <speed>1.98</speed>
  <fix>3d</fix>
</trkpt>
<trkpt lat="40.070731" lon="-105.229777">
  <ele>1583.05</ele>
  <time>2026-08-29T19:30:01Z</time>
  <course>106.46</course>
  <speed>1.9821705274773913</speed>
  <fix>3d</fix>
</trkpt>
<trkpt lat="40.0707321" lon="-105.2297825">
  <ele>1583.0</ele>
  <time>2026-08-29T19:30:01Z</time>
  <course>104.86</course>
  <speed>1.98</speed>
  <fix>3d</fix>
</trkpt>
<trkpt lat="40.0707305" lon="-105.2297747">
  <ele>1583.05</ele>
  <time>2026-08-29T19:30:01Z</time>
  <course>106.92</course>
  <speed>1.9876116320851014</speed>
  <fix>3d</fix>
</trkpt>
<trkpt lat="40.0707312" lon="-105.229778">
  <ele>1583.0</ele>
  <time>2026-08-29T19:30:01Z</time>
  <course>105.55</course>
  <speed>2.0</speed>
  <fix>3d</fix>
</trkpt>
<trkpt lat="40.07073" lon="-105.2297724">
  <ele>1583.05</ele>
  <time>2026-08-29T19:30:01Z</time>
  <course>107.46</course>
  <speed>1.9932385707686877</speed>
  <fix>3d</fix>
</trkpt>
<trkpt lat="40.0707312" lon="-105.229778">
  <ele>1583.0</ele>
  <time>2026-08-29T19:30:01Z</time>
  <course>105.55</course>
  <speed>2.0</speed>
  <fix>3d</fix>
</trkpt>
<trkpt lat="40.0707295" lon="-105.2297702">
  <ele>1583.06</ele>
  <time>2026-08-29T19:30:01Z</time>
  <course>108.05</course>
  <speed>1.9990497742677644</speed>
  <fix>3d</fix>
</trkpt>
<trkpt lat="40.0707302" lon="-105.2297734">
  <ele>1583.0</ele>
  <time>2026-08-29T19:30:01Z</time>
  <course>106.52</course>
  <speed>2.01</speed>
  <fix>3d</fix>
</trkpt>
<trkpt lat="40.0707289" lon="-105.2297679">
  <ele>1583.06</ele>
  <time>2026-08-29T19:30:01Z</time>
  <course>108.7</course>
  <speed>1.9955199823604874</speed>
  <fix>3d</fix>
</trkpt>
<trkpt lat="40.0707302" lon="-105.2297734">
  <ele>1583.0</ele>
  <time>2026-08-29T19:30:01Z</time>
  <course>106.52</course>
  <speed>2.01</speed>
  <fix>3d</fix>
</trkpt>
<trkpt lat="40.0707284" lon="-105.2297656">
  <ele>1583.06</ele>
  <time>2026-08-29T19:30:01Z</time>
  <course>109.39</course>
  <speed>1.995419755339713</speed>
  <fix>3d</fix>
</trkpt>
<trkpt lat="40.0707291" lon="-105.2297689">
  <ele>1583.0</ele>
  <time>2026-08-29T19:30:01Z</time>
  <course>107.74</course>
  <speed>2.02</speed>
  <fix>3d</fix>
</trkpt>
<trkpt lat="40.0707278" lon="-105.2297634">
  <ele>1583.06</ele>
  <time>2026-08-29T19:30:01Z</time>
  <course>110.12</course>
  <speed>2.0019240744843447</speed>
  <fix>3d</fix>
</trkpt>
<trkpt lat="40.0707291" lon="-105.2297689">
  <ele>1583.0</ele>
  <time>2026-08-29T19:30:01Z</time>
  <course>107.74</course>
  <speed>2.02</speed>
  <fix>3d</fix>
</trkpt>
<trkpt lat="40.0707271" lon="-105.2297612">
  <ele>1583.06</ele>
  <time>2026-08-29T19:30:01Z</time>
  <course>110.91</course>
  <speed>1.9932385707686877</speed>
  <fix>3d</fix>
</trkpt>
<trkpt lat="40.0707279" lon="-105.2297643">
  <ele>1583.0</ele>
  <time>2026-08-29T19:30:01Z</time>
  <course>109.15</course>
  <speed>2.03</speed>
  <fix>3d</fix>
</trkpt>
<trkpt lat="40.0707265" lon="-105.229759">
  <ele>1583.06</ele>
  <time>2026-08-29T19:30:01Z</time>
  <course>111.72</course>
  <speed>1.9944924166313596</speed>
  <fix>3d</fix>
</trkpt>
<trkpt lat="40.0707279" lon="-105.2297643">
  <ele>1583.0</ele>
  <time>2026-08-29T19:30:01Z</time>
  <course>109.15</course>
  <speed>2.03</speed>
  <fix>3d</fix>
</trkpt>
<trkpt lat="40.0707258" lon="-105.2297568">
  <ele>1583.06</ele>
  <time>2026-08-29T19:30:01Z</time>
  <course>112.57</course>
  <speed>1.9925109786397663</speed>
  <fix>3d</fix>
</trkpt>
<trkpt lat="40.0707267" lon="-105.2297599">
  <ele>1583.0</ele>
  <time>2026-08-29T19:30:01Z</time>
  <course>110.72</course>
  <speed>2.03</speed>
  <fix>3d</fix>
</trkpt>
<trkpt lat="40.0707251" lon="-105.2297546">
  <ele>1583.06</ele>
  <time>2026-08-29T19:30:01Z</time>
  <course>113.45</course>
  <speed>1.9853966858036205</speed>
  <fix>3d</fix>
</trkpt>
<trkpt lat="40.0707267" lon="-105.2297599">
  <ele>1583.0</ele>
  <time>2026-08-29T19:30:01Z</time>
  <course>110.72</course>
  <speed>2.03</speed>
  <fix>3d</fix>
</trkpt>
<trkpt lat="40.0707246" lon="-105.2297529">
  <ele>1583.06</ele>
  <time>2026-08-29T19:30:01Z</time>
  <course>114.18</course>
  <speed>1.9748924021323289</speed>
  <fix>3d</fix>
</trkpt>
<trkpt lat="40.0707254" lon="-105.2297555">
  <ele>1583.0</ele>
  <time>2026-08-29T19:30:01Z</time>
  <course>112.43</course>
  <speed>2.02</speed>
  <fix>3d</fix>
</trkpt>
<trkpt lat="40.0707238" lon="-105.2297507">
  <ele>1583.06</ele>
  <time>2026-08-29T19:30:01Z</time>
  <course>115.1</course>
  <speed>1.9688829320200834</speed>
  <fix>3d</fix>
</trkpt>
<trkpt lat="40.0707254" lon="-105.2297555">
  <ele>1583.0</ele>
  <time>2026-08-29T19:30:01Z</time>
  <course>112.43</course>
  <speed>2.02</speed>
  <fix>3d</fix>
</trkpt>
<trkpt lat="40.0707231" lon="-105.2297486">
  <ele>1583.06</ele>
  <time>2026-08-29T19:30:01Z</time>
  <course>116.04</course>
  <speed>1.9635172522796942</speed>
  <fix>3d</fix>
</trkpt>
<trkpt lat="40.0707239" lon="-105.2297511">
  <ele>1583.0</ele>
  <time>2026-08-29T19:30:01Z</time>
  <course>114.25</course>
  <speed>2.01</speed>
  <fix>3d</fix>
</trkpt>
<trkpt lat="40.0707223" lon="-105.2297465">
  <ele>1583.05</ele>
  <time>2026-08-29T19:30:01Z</time>
  <course>116.99</course>
  <speed>1.9588006534611937</speed>
  <fix>3d</fix>
</trkpt>
<trkpt lat="40.0707239" lon="-105.2297511">
  <ele>1583.0</ele>
  <time>2026-08-29T19:30:01Z</time>
  <course>114.25</course>
  <speed>2.01</speed>
  <fix>3d</fix>
</trkpt>
<trkpt lat="40.0707215" lon="-105.2297444">
  <ele>1583.05</ele>
  <time>2026-08-29T19:30:01Z</time>
  <course>117.97</course>
  <speed>1.9547378340841517</speed>
  <fix>3d</fix>
</trkpt>
<trkpt lat="40.0707223" lon="-105.2297468">
  <ele>1583.0</ele>
  <time>2026-08-29T19:30:01Z</time>
  <course>116.16</course>
  <speed>2.0</speed>
  <fix>3d</fix>
</trkpt>
<trkpt lat="40.0707206" lon="-105.2297423">
  <ele>1583.05</ele>
  <time>2026-08-29T19:30:01Z</time>
  <course>118.94</course>
  <speed>1.9377564346429095</speed>
  <fix>3d</fix>
</trkpt>
<trkpt lat="40.0707223" lon="-105.2297468">
  <ele>1583.0</ele>
  <time>2026-08-29T19:30:01Z</time>
  <course>116.16</course>
  <speed>2.0</speed>
  <fix>3d</fix>
</trkpt>
<trkpt lat="40.0707197" lon="-105.2297403">
  <ele>1583.05</ele>
  <time>2026-08-29T19:30:01Z</time>
  <course>119.87</course>
  <speed>1.9349418595916519</speed>
  <fix>3d</fix>
</trkpt>
<trkpt lat="40.0707207" lon="-105.2297426">
  <ele>1583.0</ele>
  <time>2026-08-29T19:30:01Z</time>
  <course>118.07</course>
  <speed>1.98</speed>
  <fix>3d</fix>
</trkpt>
<trkpt lat="40.0707188" lon="-105.2297383">
  <ele>1583.04</ele>
  <time>2026-08-29T19:30:01Z</time>
  <course>119.82</course>
  <speed>1.9213016421166145</speed>
  <fix>3d</fix>
</trkpt>
<trkpt lat="40.0707207" lon="-105.2297426">
  <ele>1583.0</ele>
  <time>2026-08-29T19:30:01Z</time>
  <course>118.07</course>
  <speed>1.98</speed>
  <fix>3d</fix>
</trkpt>
<trkpt lat="40.070718" lon="-105.2297363">
  <ele>1583.04</ele>
  <time>2026-08-29T19:30:01Z</time>
  <course>118.64</course>
  <speed>1.9106281689538653</speed>
  <fix>3d</fix>
</trkpt>
<trkpt lat="40.070719" lon="-105.2297385">
  <ele>1583.0</ele>
  <time>2026-08-29T19:30:01Z</time>
  <course>118.41</course>
  <speed>1.96</speed>
  <fix>3d</fix>
</trkpt>
<trkpt lat="40.0707172" lon="-105.2297342">
  <ele>1583.04</ele>
  <time>2026-08-29T19:30:01Z</time>
  <course>116.35</course>
  <speed>1.9051771571168914</speed>
  <fix>3d</fix>
</trkpt>
<trkpt lat="40.070719" lon="-105.2297385">
  <ele>1583.0</ele>
  <time>2026-08-29T19:30:01Z</time>
  <course>118.41</course>
  <speed>1.96</speed>
  <fix>3d</fix>
</trkpt>
<trkpt lat="40.0707163" lon="-105.2297317">
  <ele>1583.05</ele>
  <time>2026-08-29T19:30:01Z</time>
  <course>112.13</course>
  <speed>1.9070920271449934</speed>
  <fix>3d</fix>
</trkpt>
<trkpt lat="40.0707174" lon="-105.2297344">
  <ele>1583.0</ele>
  <time>2026-08-29T19:30:01Z</time>
  <course>114.95</course>
  <speed>1.94</speed>
  <fix>3d</fix>
</trkpt>
<trkpt lat="40.0707158" lon="-105.2297295">
  <ele>1583.05</ele>
  <time>2026-08-29T19:30:01Z</time>
  <course>107.4</course>
  <speed>1.9042058712229621</speed>
  <fix>3d</fix>
</trkpt>
<trkpt lat="40.0707174" lon="-105.2297344">
  <ele>1583.0</ele>
  <time>2026-08-29T19:30:01Z</time>
  <course>114.95</course>
  <speed>1.94</speed>
  <fix>3d</fix>
</trkpt>
<trkpt lat="40.0707154" lon="-105.2297273">
  <ele>1583.05</ele>
  <time>2026-08-29T19:30:01Z</time>
  <course>101.74</course>
  <speed>1.9062528688503002</speed>
  <fix>3d</fix>
</trkpt>
<trkpt lat="40.0707162" lon="-105.2297302">
  <ele>1583.0</ele>
  <time>2026-08-29T19:30:01Z</time>
  <course>107.05</course>
  <speed>1.93</speed>
  <fix>3d</fix>
</trkpt>
<trkpt lat="40.0707151" lon="-105.229725">
  <ele>1583.05</ele>
  <time>2026-08-29T19:30:01Z</time>
  <course>96.94</course>
  <speed>1.9005525512334562</speed>
  <fix>3d</fix>
</trkpt>
<trkpt lat="40.0707162" lon="-105.2297302">
  <ele>1583.0</ele>
  <time>2026-08-29T19:30:01Z</time>
  <course>107.05</course>
  <speed>1.93</speed>
  <fix>3d</fix>
</trkpt>
<trkpt lat="40.070715" lon="-105.2297227">
  <ele>1583.05</ele>
  <time>2026-08-29T19:30:01Z</time>
  <course>93.26</course>
  <speed>1.9016834647227703</speed>
  <fix>3d</fix>
</trkpt>
<trkpt lat="40.0707154" lon="-105.2297258">
  <ele>1583.0</ele>
  <time>2026-08-29T19:30:01Z</time>
  <course>97.53</course>
  <speed>1.93</speed>
  <fix>3d</fix>
</trkpt>
<trkpt lat="40.070715" lon="-105.2297204">
  <ele>1583.05</ele>
  <time>2026-08-29T19:30:01Z</time>
  <course>89.88</course>
  <speed>1.9102355875650523</speed>
  <fix>3d</fix>
</trkpt>
<trkpt lat="40.0707154" lon="-105.2297258">
  <ele>1583.0</ele>
  <time>2026-08-29T19:30:01Z</time>
  <course>97.53</course>
  <speed>1.93</speed>
  <fix>3d</fix>
</trkpt>
<trkpt lat="40.0707151" lon="-105.2297181">
  <ele>1583.05</ele>
  <time>2026-08-29T19:30:01Z</time>
  <course>86.58</course>
  <speed>1.9250974001333023</speed>
  <fix>3d</fix>
</trkpt>
<trkpt lat="40.0707152" lon="-105.2297213">
  <ele>1583.0</ele>
  <time>2026-08-29T19:30:01Z</time>
  <course>89.68</course>
  <speed>1.94</speed>
  <fix>3d</fix>
</trkpt>
<trkpt lat="40.0707153" lon="-105.2297158">
  <ele>1583.05</ele>
  <time>2026-08-29T19:30:01Z</time>
  <course>83.43</course>
  <speed>1.946124353683495</speed>
  <fix>3d</fix>
</trkpt>
<trkpt lat="40.0707152" lon="-105.2297213">
  <ele>1583.0</ele>
  <time>2026-08-29T19:30:01Z</time>
  <course>89.68</course>
  <speed>1.94</speed>
  <fix>3d</fix>
</trkpt>
<trkpt lat="40.0707156" lon="-105.2297136">
  <ele>1583.05</ele>
  <time>2026-08-29T19:30:01Z</time>
  <course>80.4</course>
  <speed>1.9632880583347927</speed>
  <fix>3d</fix>
</trkpt>
<trkpt lat="40.0707154" lon="-105.2297166">
  <ele>1583.0</ele>
  <time>2026-08-29T19:30:01Z</time>
  <course>83.19</course>
  <speed>1.97</speed>
  <fix>3d</fix>
</trkpt>
<trkpt lat="40.0707159" lon="-105.2297113">
  <ele>1583.05</ele>
  <time>2026-08-29T19:30:01Z</time>
  <course>77.5</course>
  <speed>1.9864037857394452</speed>
  <fix>3d</fix>
</trkpt>
<trkpt lat="40.0707154" lon="-105.2297166">
  <ele>1583.0</ele>
  <time>2026-08-29T19:30:01Z</time>
  <course>83.19</course>
  <speed>1.97</speed>
  <fix>3d</fix>
</trkpt>
<trkpt lat="40.0707164" lon="-105.229709">
  <ele>1583.05</ele>
  <time>2026-08-29T19:30:01Z</time>
  <course>74.72</course>
  <speed>2.012411488736834</speed>
  <fix>3d</fix>
</trkpt>
<trkpt lat="40.070716" lon="-105.229712">
  <ele>1583.0</ele>
  <time>2026-08-29T19:30:01Z</time>
  <course>77.2</course>
  <speed>2.01</speed>
  <fix>3d</fix>
</trkpt>
<trkpt lat="40.0707169" lon="-105.2297071">
  <ele>1583.05</ele>
  <time>2026-08-29T19:30:01Z</time>
  <course>72.58</course>
  <speed>2.0270421801235416</speed>
  <fix>3d</fix>
</trkpt>
<trkpt lat="40.070716" lon="-105.229712">
  <ele>1583.0</ele>
  <time>2026-08-29T19:30:01Z</time>
  <course>77.2</course>
  <speed>2.01</speed>
  <fix>3d</fix>
</trkpt>
<trkpt lat="40.0707175" lon="-105.2297048">
  <ele>1583.05</ele>
  <time>2026-08-29T19:30:01Z</time>
  <course>70.05</course>
  <speed>2.0483407919582133</speed>
  <fix>3d</fix>
</trkpt>
<trkpt lat="40.0707169" lon="-105.2297074">
  <ele>1583.0</ele>
  <time>2026-08-29T19:30:01Z</time>
  <course>71.74</course>
  <speed>2.06</speed>
  <fix>3d</fix>
</trkpt>
<trkpt lat="40.0707183" lon="-105.2297025">
  <ele>1583.05</ele>
  <time>2026-08-29T19:30:01Z</time>
  <course>67.64</course>
  <speed>2.0733788848157975</speed>
  <fix>3d</fix>
</trkpt>
<trkpt lat="40.0707169" lon="-105.2297074">
  <ele>1583.0</ele>
  <time>2026-08-29T19:30:01Z</time>
  <course>71.74</course>
  <speed>2.06</speed>
  <fix>3d</fix>
</trkpt>
<trkpt lat="40.0707191" lon="-105.2297003">
  <ele>1583.06</ele>
  <time>2026-08-29T19:30:01Z</time>
  <course>65.37</course>
  <speed>2.093036072312181</speed>
  <fix>3d</fix>
</trkpt>
<trkpt lat="40.0707183" lon="-105.2297028">
  <ele>1583.0</ele>
  <time>2026-08-29T19:30:01Z</time>
  <course>66.79</course>
  <speed>2.1</speed>
  <fix>3d</fix>
</trkpt>
<trkpt lat="40.07072" lon="-105.2296981">
  <ele>1583.06</ele>
  <time>2026-08-29T19:30:01Z</time>
  <course>63.21</course>
  <speed>2.11177650332605</speed>
  <fix>3d</fix>
</trkpt>
<trkpt lat="40.0707183" lon="-105.2297028">
  <ele>1583.0</ele>
  <time>2026-08-29T19:30:01Z</time>
  <course>66.79</course>
  <speed>2.1</speed>
  <fix>3d</fix>
</trkpt>
<trkpt lat="40.0707209" lon="-105.2296958">
  <ele>1583.06</ele>
  <time>2026-08-29T19:30:01Z</time>
  <course>61.18</course>
  <speed>2.119858485842864</speed>
  <fix>3d</fix>
</trkpt>
<trkpt lat="40.0707199" lon="-105.2296983">
  <ele>1583.0</ele>
  <time>2026-08-29T19:30:01Z</time>
  <course>62.35</course>
  <speed>2.13</speed>
  <fix>3d</fix>
</trkpt>
<trkpt lat="40.070722" lon="-105.2296936">
  <ele>1583.06</ele>
  <time>2026-08-29T19:30:01Z</time>
  <course>59.29</course>
  <speed>2.139088590965788</speed>
  <fix>3d</fix>
</trkpt>
<trkpt lat="40.0707199" lon="-105.2296983">
  <ele>1583.0</ele>
  <time>2026-08-29T19:30:01Z</time>
  <course>62.35</course>
  <speed>2.13</speed>
  <fix>3d</fix>
</trkpt>
<trkpt lat="40.0707231" lon="-105.2296915">
  <ele>1583.06</ele>
  <time>2026-08-29T19:30:01Z</time>
  <course>57.49</course>
  <speed>2.1523243250030886</speed>
  <fix>3d</fix>
</trkpt>
<trkpt lat="40.0707218" lon="-105.2296939">
  <ele>1583.0</ele>
  <time>2026-08-29T19:30:01Z</time>
  <course>58.41</course>
  <speed>2.16</speed>
  <fix>3d</fix>
</trkpt>
<trkpt lat="40.0707242" lon="-105.2296893">
  <ele>1583.07</ele>
  <time>2026-08-29T19:30:01Z</time>
  <course>55.84</course>
  <speed>2.1564090521049106</speed>
  <fix>3d</fix>
</trkpt>
<trkpt lat="40.0707218" lon="-105.2296939">
  <ele>1583.0</ele>
  <time>2026-08-29T19:30:01Z</time>
  <course>58.41</course>
  <speed>2.16</speed>
  <fix>3d</fix>
</trkpt>
<trkpt lat="40.0707254" lon="-105.2296872">
  <ele>1583.07</ele>
  <time>2026-08-29T19:30:01Z</time>
  <course>54.3</course>
  <speed>2.1681328372588244</speed>
  <fix>3d</fix>
</trkpt>
<trkpt lat="40.070724" lon="-105.2296897">
  <ele>1583.0</ele>
  <time>2026-08-29T19:30:01Z</time>
  <course>54.97</course>
  <speed>2.18</speed>
  <fix>3d</fix>
</trkpt>
<trkpt lat="40.0707268" lon="-105.2296848">
  <ele>1583.07</ele>
  <time>2026-08-29T19:30:01Z</time>
  <course>52.6</course>
  <speed>2.1755459085020474</speed>
  <fix>3d</fix>
</trkpt>
<trkpt lat="40.070724" lon="-105.2296897">
  <ele>1583.0</ele>
  <time>2026-08-29T19:30:01Z</time>
  <course>54.97</course>
  <speed>2.18</speed>
  <fix>3d</fix>
</trkpt>
<trkpt lat="40.0707281" lon="-105.2296828">
  <ele>1583.07</ele>
  <time>2026-08-29T19:30:01Z</time>
  <course>51.3</course>
  <speed>2.178003673091485</speed>
  <fix>3d</fix>
</trkpt>
<trkpt lat="40.0707263" lon="-105.2296856">
  <ele>1583.0</ele>
  <time>2026-08-29T19:30:01Z</time>
  <course>52.0</course>
  <speed>2.19</speed>
  <fix>3d</fix>
</trkpt>
<trkpt lat="40.0707294" lon="-105.2296808">
  <ele>1583.07</ele>
  <time>2026-08-29T19:30:01Z</time>
  <course>50.12</course>
  <speed>2.1816049138191818</speed>
  <fix>3d</fix>
</trkpt>
<trkpt lat="40.0707263" lon="-105.2296856">
  <ele>1583.0</ele>
  <time>2026-08-29T19:30:01Z</time>
  <course>52.0</course>
  <speed>2.19</speed>
  <fix>3d</fix>
</trkpt>
<trkpt lat="40.0707307" lon="-105.2296789">
  <ele>1583.07</ele>
  <time>2026-08-29T19:30:01Z</time>
  <course>49.04</course>
  <speed>2.1795412361320445</speed>
  <fix>3d</fix>
</trkpt>
<trkpt lat="40.0707288" lon="-105.2296816">
  <ele>1583.0</ele>
  <time>2026-08-29T19:30:01Z</time>
  <course>49.47</course>
  <speed>2.19</speed>
  <fix>3d</fix>
</trkpt>
<trkpt lat="40.0707321" lon="-105.229677">
  <ele>1583.07</ele>
  <time>2026-08-29T19:30:01Z</time>
  <course>48.06</course>
  <speed>2.1713820483738</speed>
  <fix>3d</fix>
</trkpt>
<trkpt lat="40.0707288" lon="-105.2296816">
  <ele>1583.0</ele>
  <time>2026-08-29T19:30:01Z</time>
  <course>49.47</course>
  <speed>2.19</speed>
  <fix>3d</fix>
</trkpt>
<trkpt lat="40.0707335" lon="-105.2296751">
  <ele>1583.08</ele>
  <time>2026-08-29T19:30:01Z</time>
  <course>47.19</course>
  <speed>2.163792966066763</speed>
  <fix>3d</fix>
</trkpt>
<trkpt lat="40.0707314" lon="-105.2296777">
  <ele>1583.0</ele>
  <time>2026-08-29T19:30:01Z</time>
  <course>47.36</course>
  <speed>2.19</speed>
  <fix>3d</fix>
</trkpt>
<trkpt lat="40.0707348" lon="-105.2296733">
  <ele>1583.07</ele>
  <time>2026-08-29T19:30:01Z</time>
  <course>46.41</course>
  <speed>2.163792966066763</speed>
  <fix>3d</fix>
</trkpt>
<trkpt lat="40.0707314" lon="-105.2296777">
  <ele>1583.0</ele>
  <time>2026-08-29T19:30:01Z</time>
  <course>47.36</course>
  <speed>2.19</speed>
  <fix>3d</fix>
</trkpt>
<trkpt lat="40.0707362" lon="-105.2296715">
  <ele>1583.07</ele>
  <time>2026-08-29T19:30:01Z</time>
  <course>45.72</course>
  <speed>2.164162655624572</speed>
  <fix>3d</fix>
</trkpt>
<trkpt lat="40.0707341" lon="-105.229674">
  <ele>1583.0</ele>
  <time>2026-08-29T19:30:01Z</time>
  <course>45.65</course>
  <speed>2.18</speed>
  <fix>3d</fix>
</trkpt>
<trkpt lat="40.0707376" lon="-105.2296697">
  <ele>1583.07</ele>
  <time>2026-08-29T19:30:01Z</time>
  <course>45.12</course>
  <speed>2.157614423385235</speed>
  <fix>3d</fix>
</trkpt>
<trkpt lat="40.0707341" lon="-105.229674">
  <ele>1583.0</ele>
  <time>2026-08-29T19:30:01Z</time>
  <course>45.65</course>
  <speed>2.18</speed>
  <fix>3d</fix>
</trkpt>
<trkpt lat="40.070739" lon="-105.229668">
  <ele>1583.07</ele>
  <time>2026-08-29T19:30:01Z</time>
  <course>44.59</course>
  <speed>2.143944961980134</speed>
  <fix>3d</fix>
</trkpt>
<trkpt lat="40.0707369" lon="-105.2296704">
  <ele>1583.0</ele>
  <time>2026-08-29T19:30:01Z</time>
  <course>44.32</course>
  <speed>2.17</speed>
  <fix>3d</fix>
</trkpt>
<trkpt lat="40.0707404" lon="-105.2296663">
  <ele>1583.07</ele>
  <time>2026-08-29T19:30:01Z</time>
  <course>44.16</course>
  <speed>2.137755832643195</speed>
  <fix>3d</fix>
</trkpt>
<trkpt lat="40.0707369" lon="-105.2296704">
  <ele>1583.0</ele>
  <time>2026-08-29T19:30:01Z</time>
  <course>44.32</course>
  <speed>2.17</speed>
  <fix>3d</fix>
</trkpt>
<trkpt lat="40.0707416" lon="-105.2296649">
  <ele>1583.07</ele>
  <time>2026-08-29T19:30:01Z</time>
  <course>43.86</course>
  <speed>2.1310326135467754</speed>
  <fix>3d</fix>
</trkpt>
<trkpt lat="40.0707397" lon="-105.2296669">
  <ele>1583.0</ele>
  <time>2026-08-29T19:30:01Z</time>
  <course>43.33</course>
  <speed>2.16</speed>
  <fix>3d</fix>
</trkpt>
<trkpt lat="40.070743" lon="-105.2296632">
  <ele>1583.06</ele>
  <time>2026-08-29T19:30:01Z</time>
  <course>43.55</course>
  <speed>2.124335190124195</speed>
  <fix>3d</fix>
</trkpt>
<trkpt lat="40.0707397" lon="-105.2296669">
  <ele>1583.0</ele>
  <time>2026-08-29T19:30:01Z</time>
  <course>43.33</course>
  <speed>2.16</speed>
  <fix>3d</fix>
</trkpt>
<trkpt lat="40.0707444" lon="-105.2296615">
  <ele>1583.06</ele>
  <time>2026-08-29T19:30:01Z</time>
  <course>43.31</course>
  <speed>2.117663807123312</speed>
  <fix>3d</fix>
</trkpt>
<trkpt lat="40.0707426" lon="-105.2296634">
  <ele>1583.0</ele>
  <time>2026-08-29T19:30:01Z</time>
  <course>42.63</course>
  <speed>2.15</speed>
  <fix>3d</fix>
</trkpt>
<trkpt lat="40.0707458" lon="-105.2296598">
  <ele>1583.06</ele>
  <time>2026-08-29T19:30:01Z</time>
  <course>43.14</course>
  <speed>2.1110187114282053</speed>
  <fix>3d</fix>
</trkpt>
<trkpt lat="40.0707426" lon="-105.2296634">
  <ele>1583.0</ele>
  <time>2026-08-29T19:30:01Z</time>
  <course>42.63</course>
  <speed>2.15</speed>
  <fix>3d</fix>
</trkpt>
<trkpt lat="40.0707472" lon="-105.2296582">
  <ele>1583.06</ele>
  <time>2026-08-29T19:30:01Z</time>
  <course>43.03</course>
  <speed>2.10440015206234</speed>
  <fix>3d</fix>
</trkpt>
<trkpt lat="40.0707454" lon="-105.22966">
  <ele>1583.0</ele>
  <time>2026-08-29T19:30:01Z</time>
  <course>42.21</course>
  <speed>2.14</speed>
  <fix>3d</fix>
</trkpt>
<trkpt lat="40.0707487" lon="-105.2296565">
  <ele>1583.06</ele>
  <time>2026-08-29T19:30:01Z</time>
  <course>42.98</course>
  <speed>2.10440015206234</speed>
  <fix>3d</fix>
</trkpt>
<trkpt lat="40.0707454" lon="-105.22966">
  <ele>1583.0</ele>
  <time>2026-08-29T19:30:01Z</time>
  <course>42.21</course>
  <speed>2.14</speed>
  <fix>3d</fix>
</trkpt>
<trkpt lat="40.0707501" lon="-105.2296548">
  <ele>1583.06</ele>
  <time>2026-08-29T19:30:01Z</time>
  <course>42.97</course>
  <speed>2.090287061625747</speed>
  <fix>3d</fix>
</trkpt>
<trkpt lat="40.0707483" lon="-105.2296566">
  <ele>1583.0</ele>
  <time>2026-08-29T19:30:01Z</time>
  <course>42.03</course>
  <speed>2.13</speed>
  <fix>3d</fix>
</trkpt>
<trkpt lat="40.0707515" lon="-105.2296531">
  <ele>1583.06</ele>
  <time>2026-08-29T19:30:01Z</time>
  <course>42.99</course>
  <speed>2.090287061625747</speed>
  <fix>3d</fix>
</trkpt>
<trkpt lat="40.0707483" lon="-105.2296566">
  <ele>1583.0</ele>
  <time>2026-08-29T19:30:01Z</time>
  <course>42.03</course>
  <speed>2.13</speed>
  <fix>3d</fix>
</trkpt>
<trkpt lat="40.070753" lon="-105.2296514">
  <ele>1583.06</ele>
  <time>2026-08-29T19:30:01Z</time>
  <course>43.06</course>
  <speed>2.082786594925174</speed>
  <fix>3d</fix>
</trkpt>
<trkpt lat="40.070751" lon="-105.2296533">
  <ele>1583.0</ele>
  <time>2026-08-29T19:30:01Z</time>
  <course>42.04</course>
  <speed>2.12</speed>
  <fix>3d</fix>
</trkpt>
<trkpt lat="40.0707546" lon="-105.2296494">
  <ele>1583.06</ele>
  <time>2026-08-29T19:30:01Z</time>
  <course>43.19</course>
  <speed>2.082786594925174</speed>
  <fix>3d</fix>
</trkpt>
<trkpt lat="40.070751" lon="-105.2296533">
  <ele>1583.0</ele>
  <time>2026-08-29T19:30:01Z</time>
  <course>42.04</course>
  <speed>2.12</speed>
  <fix>3d</fix>
</trkpt>
<trkpt lat="40.070756" lon="-105.2296477">
  <ele>1583.06</ele>
  <time>2026-08-29T19:30:01Z</time>
  <course>43.34</course>
  <speed>2.081970220728433</speed>
  <fix>3d</fix>
</trkpt>
<trkpt lat="40.0707539" lon="-105.2296499">
  <ele>1583.0</ele>
  <time>2026-08-29T19:30:01Z</time>
  <course>42.21</course>
  <speed>2.11</speed>
  <fix>3d</fix>
</trkpt>
<trkpt lat="40.0707574" lon="-105.2296461">
  <ele>1583.06</ele>
  <time>2026-08-29T19:30:01Z</time>
  <course>43.53</course>
  <speed>2.0745360927204906</speed>
  <fix>3d</fix>
</trkpt>
<trkpt lat="40.0707539" lon="-105.2296499">
  <ele>1583.0</ele>
  <time>2026-08-29T19:30:01Z</time>
  <course>42.21</course>
  <speed>2.11</speed>
  <fix>3d</fix>
</trkpt>
<trkpt lat="40.0707588" lon="-105.2296444">
  <ele>1583.05</ele>
  <time>2026-08-29T19:30:01Z</time>
  <course>43.74</course>
  <speed>2.073861133248801</speed>
  <fix>3d</fix>
</trkpt>
<trkpt lat="40.0707568" lon="-105.2296466">
  <ele>1583.0</ele>
  <time>2026-08-29T19:30:01Z</time>
  <course>42.52</course>
  <speed>2.11</speed>
  <fix>3d</fix>
</trkpt>
<trkpt lat="40.0707602" lon="-105.2296427">
  <ele>1583.05</ele>
  <time>2026-08-29T19:30:01Z</time>
  <course>43.98</course>
  <speed>2.0664946164943183</speed>
  <fix>3d</fix>
</trkpt>
<trkpt lat="40.0707568" lon="-105.2296466">
  <ele>1583.0</ele>
  <time>2026-08-29T19:30:01Z</time>
  <course>42.52</course>
  <speed>2.11</speed>
  <fix>3d</fix>
</trkpt>
<trkpt lat="40.0707616" lon="-105.229641">
  <ele>1583.05</ele>
  <time>2026-08-29T19:30:01Z</time>
  <course>44.24</course>
  <speed>2.065962245540804</speed>
  <fix>3d</fix>
</trkpt>
<trkpt lat="40.0707595" lon="-105.2296432">
  <ele>1583.0</ele>
  <time>2026-08-29T19:30:01Z</time>
  <course>42.96</course>
  <speed>2.1</speed>
  <fix>3d</fix>
</trkpt>
<trkpt lat="40.0707629" lon="-105.2296393">
  <ele>1583.05</ele>
  <time>2026-08-29T19:30:01Z</time>
  <course>44.52</course>
  <speed>2.058664615715731</speed>
  <fix>3d</fix>
</trkpt>
<trkpt lat="40.0707595" lon="-105.2296432">
  <ele>1583.0</ele>
  <time>2026-08-29T19:30:01Z</time>
  <course>42.96</course>
  <speed>2.1</speed>
  <fix>3d</fix>
</trkpt>
<trkpt lat="40.0707643" lon="-105.2296376">
  <ele>1583.05</ele>
  <time>2026-08-29T19:30:01Z</time>
  <course>44.83</course>
  <speed>2.058275977608445</speed>
  <fix>3d</fix>
</trkpt>
<trkpt lat="40.0707623" lon="-105.2296399">
  <ele>1583.0</ele>
  <time>2026-08-29T19:30:01Z</time>
  <course>43.5</course>
  <speed>2.1</speed>
  <fix>3d</fix>
</trkpt>
<trkpt lat="40.0707656" lon="-105.2296359">
  <ele>1583.05</ele>
  <time>2026-08-29T19:30:01Z</time>
  <course>45.14</course>
  <speed>2.057984450864486</speed>
  <fix>3d</fix>
</trkpt>
<trkpt lat="40.0707623" lon="-105.2296399">
  <ele>1583.0</ele>
  <time>2026-08-29T19:30:01Z</time>
  <course>43.5</course>
  <speed>2.1</speed>
  <fix>3d</fix>
</trkpt>
<trkpt lat="40.070767" lon="-105.2296342">
  <ele>1583.05</ele>
  <time>2026-08-29T19:30:01Z</time>
  <course>45.47</course>
  <speed>2.0577900767571022</speed>
  <fix>3d</fix>
</trkpt>
<trkpt lat="40.070765" lon="-105.2296365">
  <ele>1583.0</ele>
  <time>2026-08-29T19:30:01Z</time>
  <course>44.11</course>
  <speed>2.1</speed>
  <fix>3d</fix>
</trkpt>
<trkpt lat="40.0707683" lon="-105.2296325">
  <ele>1583.04</ele>
  <time>2026-08-29T19:30:01Z</time>
  <course>45.81</course>
  <speed>2.057692882818036</speed>
  <fix>3d</fix>
</trkpt>
<trkpt lat="40.070765" lon="-105.2296365">
  <ele>1583.0</ele>
  <time>2026-08-29T19:30:01Z</time>
  <course>44.11</course>
  <speed>2.1</speed>
  <fix>3d</fix>
</trkpt>
<trkpt lat="40.0707693" lon="-105.2296311">
  <ele>1583.04</ele>
  <time>2026-08-29T19:30:02Z</time>
  <course>46.09</course>
  <speed>2.057692882818036</speed>
  <fix>3d</fix>
</trkpt>
<trkpt lat="40.0707677" lon="-105.229633">
  <ele>1583.0</ele>
  <time>2026-08-29T19:30:02Z</time>
  <course>44.77</course>
  <speed>2.1</speed>
  <fix>3d</fix>
</trkpt>
<trkpt lat="40.0707706" lon="-105.2296293">
  <ele>1583.04</ele>
  <time>2026-08-29T19:30:02Z</time>
  <course>46.43</course>
  <speed>2.0577900767571022</speed>
  <fix>3d</fix>
</trkpt>
<trkpt lat="40.0707677" lon="-105.229633">
  <ele>1583.0</ele>
  <time>2026-08-29T19:30:02Z</time>
  <course>44.77</course>
  <speed>2.1</speed>
  <fix>3d</fix>
</trkpt>
<trkpt lat="40.0707719" lon="-105.2296275">
  <ele>1583.04</ele>
  <time>2026-08-29T19:30:02Z</time>
  <course>46.8</course>
  <speed>2.057984450864486</speed>
  <fix>3d</fix>
</trkpt>
<trkpt lat="40.0707704" lon="-105.2296295">
  <ele>1583.0</ele>
  <time>2026-08-29T19:30:02Z</time>
  <course>45.47</course>
  <speed>2.1</speed>
  <fix>3d</fix>
</trkpt>
<trkpt lat="40.0707733" lon="-105.2296257">
  <ele>1583.04</ele>
  <time>2026-08-29T19:30:02Z</time>
  <course>47.17</course>
  <speed>2.058275977608445</speed>
  <fix>3d</fix>
</trkpt>
<trkpt lat="40.0707704" lon="-105.2296295">
  <ele>1583.0</ele>
  <time>2026-08-29T19:30:02Z</time>
  <course>45.47</course>
  <speed>2.1</speed>
  <fix>3d</fix>
</trkpt>
<trkpt lat="40.0707745" lon="-105.229624">
  <ele>1583.04</ele>
  <time>2026-08-29T19:30:02Z</time>
  <course>47.54</course>
  <speed>2.058664615715731</speed>
  <fix>3d</fix>
</trkpt>
<trkpt lat="40.070773" lon="-105.229626">
  <ele>1583.0</ele>
  <time>2026-08-29T19:30:02Z</time>
  <course>46.2</course>
  <speed>2.11</speed>
  <fix>3d</fix>
</trkpt>
<trkpt lat="40.0707758" lon="-105.2296221">
  <ele>1583.04</ele>
  <time>2026-08-29T19:30:02Z</time>
  <course>47.91</course>
  <speed>2.065962245540804</speed>
  <fix>3d</fix>
</trkpt>
<trkpt lat="40.070773" lon="-105.229626">
  <ele>1583.0</ele>
  <time>2026-08-29T19:30:02Z</time>
  <course>46.2</course>
  <speed>2.11</speed>
  <fix>3d</fix>
</trkpt>
<trkpt lat="40.0707771" lon="-105.2296203">
  <ele>1583.04</ele>
  <time>2026-08-29T19:30:02Z</time>
  <course>48.27</course>
  <speed>2.073861133248801</speed>
  <fix>3d</fix>
</trkpt>
<trkpt lat="40.0707756" lon="-105.2296223">
  <ele>1583.0</ele>
  <time>2026-08-29T19:30:02Z</time>
  <course>46.94</course>
  <speed>2.11</speed>
  <fix>3d</fix>
</trkpt>
<trkpt lat="40.0707784" lon="-105.2296185">
  <ele>1583.04</ele>
  <time>2026-08-29T19:30:02Z</time>
  <course>48.62</course>
  <speed>2.0745360927204906</speed>
  <fix>3d</fix>
</trkpt>
<trkpt lat="40.0707756" lon="-105.2296223">
  <ele>1583.0</ele>
  <time>2026-08-29T19:30:02Z</time>
  <course>46.94</course>
  <speed>2.11</speed>
  <fix>3d</fix>
</trkpt>
<trkpt lat="40.0707797" lon="-105.2296166">
  <ele>1583.04</ele>
  <time>2026-08-29T19:30:02Z</time>
  <course>48.96</course>
  <speed>2.0753072061745463</speed>
  <fix>3d</fix>
</trkpt>
<trkpt lat="40.0707782" lon="-105.2296187">
  <ele>1583.0</ele>
  <time>2026-08-29T19:30:02Z</time>
  <course>47.65</course>
  <speed>2.11</speed>
  <fix>3d</fix>
</trkpt>
<trkpt lat="40.0707809" lon="-105.2296147">
  <ele>1583.04</ele>
  <time>2026-08-29T19:30:02Z</time>
  <course>49.3</course>
  <speed>2.076174366473105</speed>
  <fix>3d</fix>
</trkpt>
<trkpt lat="40.0707782" lon="-105.2296187">
  <ele>1583.0</ele>
  <time>2026-08-29T19:30:02Z</time>
  <course>47.65</course>
  <speed>2.11</speed>
  <fix>3d</fix>
</trkpt>
<trkpt lat="40.0707825" lon="-105.2296124">
  <ele>1583.04</ele>
  <time>2026-08-29T19:30:02Z</time>
  <course>49.72</course>
  <speed>2.077137453323684</speed>
  <fix>3d</fix>
</trkpt>
<trkpt lat="40.0707807" lon="-105.229615">
  <ele>1583.0</ele>
  <time>2026-08-29T19:30:02Z</time>
  <course>48.34</course>
  <speed>2.12</speed>
  <fix>3d</fix>
</trkpt>
<trkpt lat="40.0707837" lon="-105.2296105">
  <ele>1583.04</ele>
  <time>2026-08-29T19:30:02Z</time>
  <course>50.06</course>
  <speed>2.0858091954922435</speed>
  <fix>3d</fix>
</trkpt>
<trkpt lat="40.0707807" lon="-105.229615">
  <ele>1583.0</ele>
  <time>2026-08-29T19:30:02Z</time>
  <course>48.34</course>
  <speed>2.12</speed>
  <fix>3d</fix>
</trkpt>
<trkpt lat="40.0707849" lon="-105.2296086">
  <ele>1583.04</ele>
  <time>2026-08-29T19:30:02Z</time>
  <course>50.41</course>
  <speed>2.0870074269153904</speed>
  <fix>3d</fix>
</trkpt>
<trkpt lat="40.0707833" lon="-105.2296112">
  <ele>1583.0</ele>
  <time>2026-08-29T19:30:02Z</time>
  <course>49.03</course>
  <speed>2.12</speed>
  <fix>3d</fix>
</trkpt>
<trkpt lat="40.0707862" lon="-105.2296067">
  <ele>1583.04</ele>
  <time>2026-08-29T19:30:02Z</time>
  <course>50.72</course>
  <speed>2.0946837470128994</speed>
  <fix>3d</fix>
</trkpt>
<trkpt lat="40.0707833" lon="-105.2296112">
  <ele>1583.0</ele>
  <time>2026-08-29T19:30:02Z</time>
  <course>49.03</course>
  <speed>2.12</speed>
  <fix>3d</fix>
</trkpt>
<trkpt lat="40.0707874" lon="-105.2296047">
  <ele>1583.04</ele>
  <time>2026-08-29T19:30:02Z</time>
  <course>51.04</course>
  <speed>2.0960200380721554</speed>
  <fix>3d</fix>
</trkpt>
<trkpt lat="40.0707857" lon="-105.2296074">
  <ele>1583.0</ele>
  <time>2026-08-29T19:30:02Z</time>
  <course>49.7</course>
  <speed>2.13</speed>
  <fix>3d</fix>
</trkpt>
<trkpt lat="40.0707886" lon="-105.2296028">
  <ele>1583.04</ele>
  <time>2026-08-29T19:30:02Z</time>
  <course>51.35</course>
  <speed>2.097450833750341</speed>
  <fix>3d</fix>
</trkpt>
<trkpt lat="40.0707857" lon="-105.2296074">
  <ele>1583.0</ele>
  <time>2026-08-29T19:30:02Z</time>
  <course>49.7</course>
  <speed>2.13</speed>
  <fix>3d</fix>
</trkpt>
<trkpt lat="40.0707898" lon="-105.2296009">
  <ele>1583.04</ele>
  <time>2026-08-29T19:30:02Z</time>
  <course>51.67</course>
  <speed>2.0989759407863637</speed>
  <fix>3d</fix>
</trkpt>
<trkpt lat="40.0707882" lon="-105.2296035">
  <ele>1583.0</ele>
  <time>2026-08-29T19:30:02Z</time>
  <course>50.35</course>
  <speed>2.14</speed>
  <fix>3d</fix>
</trkpt>
<trkpt lat="40.070791" lon="-105.2295989">
  <ele>1583.04</ele>
  <time>2026-08-29T19:30:02Z</time>
  <course>51.96</course>
  <speed>2.1067985190805505</speed>
  <fix>3d</fix>
</trkpt>
<trkpt lat="40.0707882" lon="-105.2296035">
  <ele>1583.0</ele>
  <time>2026-08-29T19:30:02Z</time>
  <course>50.35</course>
  <speed>2.14</speed>
  <fix>3d</fix>
</trkpt>
<trkpt lat="40.0707922" lon="-105.229597">
  <ele>1583.04</ele>
  <time>2026-08-29T19:30:02Z</time>
  <course>52.25</course>
  <speed>2.108459153030952</speed>
  <fix>3d</fix>
</trkpt>
<trkpt lat="40.0707906" lon="-105.2295997">
  <ele>1583.0</ele>
  <time>2026-08-29T19:30:02Z</time>
  <course>50.96</course>
  <speed>2.14</speed>
  <fix>3d</fix>
</trkpt>
<trkpt lat="40.0707934" lon="-105.229595">
  <ele>1583.04</ele>
  <time>2026-08-29T19:30:02Z</time>
  <course>52.53</course>
  <speed>2.110213259365034</speed>
  <fix>3d</fix>
</trkpt>
<trkpt lat="40.0707906" lon="-105.2295997">
  <ele>1583.0</ele>
  <time>2026-08-29T19:30:02Z</time>
  <course>50.96</course>
  <speed>2.14</speed>
  <fix>3d</fix>
</trkpt>
<trkpt lat="40.0707946" lon="-105.229593">
  <ele>1583.04</ele>
  <time>2026-08-29T19:30:02Z</time>
  <course>52.79</course>
  <speed>2.1120606051910538</speed>
  <fix>3d</fix>
</trkpt>
<trkpt lat="40.070793" lon="-105.2295958">
  <ele>1583.0</ele>
  <time>2026-08-29T19:30:02Z</time>
  <course>51.52</course>
  <speed>2.15</speed>
  <fix>3d</fix>
</trkpt>
<trkpt lat="40.0707955" lon="-105.2295914">
  <ele>1583.04</ele>
  <time>2026-08-29T19:30:02Z</time>
  <course>53.0</course>
  <speed>2.1120606051910538</speed>
  <fix>3d</fix>
</trkpt>
<trkpt lat="40.070793" lon="-105.2295958">
  <ele>1583.0</ele>
  <time>2026-08-29T19:30:02Z</time>
  <course>51.52</course>
  <speed>2.15</speed>
  <fix>3d</fix>
</trkpt>
<trkpt lat="40.0707967" lon="-105.2295894">
  <ele>1583.04</ele>
  <time>2026-08-29T19:30:02Z</time>
  <course>53.27</course>
  <speed>2.114000946073582</speed>
  <fix>3d</fix>
</trkpt>
<trkpt lat="40.0707954" lon="-105.2295918">
  <ele>1583.0</ele>
  <time>2026-08-29T19:30:02Z</time>
  <course>52.07</course>
  <speed>2.15</speed>
  <fix>3d</fix>
</trkpt>
<trkpt lat="40.0707978" lon="-105.2295874">
  <ele>1583.04</ele>
  <time>2026-08-29T19:30:02Z</time>
  <course>53.5</course>
  <speed>2.1220037700249264</speed>
  <fix>3d</fix>
</trkpt>
<trkpt lat="40.0707954" lon="-105.2295918">
  <ele>1583.0</ele>
  <time>2026-08-29T19:30:02Z</time>
  <course>52.07</course>
  <speed>2.15</speed>
  <fix>3d</fix>
</trkpt>
<trkpt lat="40.070799" lon="-105.2295854">
  <ele>1583.04</ele>
  <time>2026-08-29T19:30:02Z</time>
  <course>53.73</course>
  <speed>2.1240762698170705</speed>
  <fix>3d</fix>
</trkpt>
<trkpt lat="40.0707978" lon="-105.2295877">
  <ele>1583.0</ele>
  <time>2026-08-29T19:30:02Z</time>
  <course>52.57</course>
  <speed>2.16</speed>
  <fix>3d</fix>
</trkpt>
<trkpt lat="40.0708002" lon="-105.2295833">
  <ele>1583.05</ele>
  <time>2026-08-29T19:30:02Z</time>
  <course>53.97</course>
  <speed>2.1321350801485353</speed>
  <fix>3d</fix>
</trkpt>
<trkpt lat="40.0707978" lon="-105.2295877">
  <ele>1583.0</ele>
  <time>2026-08-29T19:30:02Z</time>
  <course>52.57</course>
  <speed>2.16</speed>
  <fix>3d</fix>
</trkpt>
<trkpt lat="40.0708013" lon="-105.2295813">
  <ele>1583.05</ele>
  <time>2026-08-29T19:30:02Z</time>
  <course>54.19</course>
  <speed>2.134338304955426</speed>
  <fix>3d</fix>
</trkpt>
<trkpt lat="40.0708002" lon="-105.2295837">
  <ele>1583.0</ele>
  <time>2026-08-29T19:30:02Z</time>
  <course>53.03</course>
  <speed>2.17</speed>
  <fix>3d</fix>
</trkpt>
<trkpt lat="40.0708025" lon="-105.2295792">
  <ele>1583.05</ele>
  <time>2026-08-29T19:30:02Z</time>
  <course>54.39</course>
  <speed>2.134338304955426</speed>
  <fix>3d</fix>
</trkpt>
<trkpt lat="40.0708002" lon="-105.2295837">
  <ele>1583.0</ele>
  <time>2026-08-29T19:30:02Z</time>
  <course>53.03</course>
  <speed>2.17</speed>
  <fix>3d</fix>
</trkpt>
<trkpt lat="40.0708037" lon="-105.2295771">
  <ele>1583.05</ele>
  <time>2026-08-29T19:30:02Z</time>
  <course>54.59</course>
  <speed>2.1366328650472455</speed>
  <fix>3d</fix>
</trkpt>
<trkpt lat="40.0708025" lon="-105.2295796">
  <ele>1583.0</ele>
  <time>2026-08-29T19:30:02Z</time>
  <course>53.47</course>
  <speed>2.17</speed>
  <fix>3d</fix>
</trkpt>
<trkpt lat="40.0708048" lon="-105.229575">
  <ele>1583.05</ele>
  <time>2026-08-29T19:30:02Z</time>
  <course>54.8</course>
  <speed>2.14478437144623</speed>
  <fix>3d</fix>
</trkpt>
<trkpt lat="40.0708025" lon="-105.2295796">
  <ele>1583.0</ele>
  <time>2026-08-29T19:30:02Z</time>
  <course>53.47</course>
  <speed>2.17</speed>
  <fix>3d</fix>
</trkpt>
<trkpt lat="40.070806" lon="-105.2295729">
  <ele>1583.05</ele>
  <time>2026-08-29T19:30:02Z</time>
  <course>54.98</course>
  <speed>2.1472074888095936</speed>
  <fix>3d</fix>
</trkpt>
<trkpt lat="40.0708049" lon="-105.2295755">
  <ele>1583.0</ele>
  <time>2026-08-29T19:30:02Z</time>
  <course>53.87</course>
  <speed>2.18</speed>
  <fix>3d</fix>
</trkpt>
<trkpt lat="40.0708074" lon="-105.2295704">
  <ele>1583.05</ele>
  <time>2026-08-29T19:30:02Z</time>
  <course>55.19</course>
  <speed>2.1472074888095936</speed>
  <fix>3d</fix>
</trkpt>
<trkpt lat="40.0708049" lon="-105.2295755">
  <ele>1583.0</ele>
  <time>2026-08-29T19:30:02Z</time>
  <course>53.87</course>
  <speed>2.18</speed>
  <fix>3d</fix>
</trkpt>
<trkpt lat="40.0708085" lon="-105.2295683">
  <ele>1583.05</ele>
  <time>2026-08-29T19:30:02Z</time>
  <course>55.37</course>
  <speed>2.155411793602327</speed>
  <fix>3d</fix>
</trkpt>
<trkpt lat="40.0708072" lon="-105.2295714">
  <ele>1583.0</ele>
  <time>2026-08-29T19:30:02Z</time>
  <course>54.25</course>
  <speed>2.18</speed>
  <fix>3d</fix>
</trkpt>
<trkpt lat="40.0708097" lon="-105.2295662">
  <ele>1583.05</ele>
  <time>2026-08-29T19:30:02Z</time>
  <course>55.54</course>
  <speed>2.1579620015190257</speed>
  <fix>3d</fix>
</trkpt>
<trkpt lat="40.0708072" lon="-105.2295714">
  <ele>1583.0</ele>
  <time>2026-08-29T19:30:02Z</time>
  <course>54.25</course>
  <speed>2.18</speed>
  <fix>3d</fix>
</trkpt>
<trkpt lat="40.0708108" lon="-105.2295641">
  <ele>1583.05</ele>
  <time>2026-08-29T19:30:02Z</time>
  <course>55.72</course>
  <speed>2.1579620015190257</speed>
  <fix>3d</fix>
</trkpt>
<trkpt lat="40.0708094" lon="-105.2295671">
  <ele>1583.0</ele>
  <time>2026-08-29T19:30:02Z</time>
  <course>54.61</course>
  <speed>2.18</speed>
  <fix>3d</fix>
</trkpt>
<trkpt lat="40.070812" lon="-105.2295619">
  <ele>1583.05</ele>
  <time>2026-08-29T19:30:02Z</time>
  <course>55.88</course>
  <speed>2.166217902243447</speed>
  <fix>3d</fix>
</trkpt>
<trkpt lat="40.0708094" lon="-105.2295671">
  <ele>1583.0</ele>
  <time>2026-08-29T19:30:02Z</time>
  <course>54.61</course>
  <speed>2.18</speed>
  <fix>3d</fix>
</trkpt>
<trkpt lat="40.0708131" lon="-105.2295598">
  <ele>1583.05</ele>
  <time>2026-08-29T19:30:02Z</time>
  <course>56.03</course>
  <speed>2.1606017680266763</speed>
  <fix>3d</fix>
</trkpt>
<trkpt lat="40.0708117" lon="-105.229563">
  <ele>1583.0</ele>
  <time>2026-08-29T19:30:02Z</time>
  <course>54.94</course>
  <speed>2.19</speed>
  <fix>3d</fix>
</trkpt>
<trkpt lat="40.0708142" lon="-105.2295577">
  <ele>1583.05</ele>
  <time>2026-08-29T19:30:02Z</time>
  <course>56.18</course>
  <speed>2.168893727225933</speed>
  <fix>3d</fix>
</trkpt>
<trkpt lat="40.0708117" lon="-105.229563">
  <ele>1583.0</ele>
  <time>2026-08-29T19:30:02Z</time>
  <course>54.94</course>
  <speed>2.19</speed>
  <fix>3d</fix>
</trkpt>
<trkpt lat="40.0708153" lon="-105.2295556">
  <ele>1583.05</ele>
  <time>2026-08-29T19:30:02Z</time>
  <course>56.33</course>
  <speed>2.1633307652783937</speed>
  <fix>3d</fix>
</trkpt>
<trkpt lat="40.070814" lon="-105.2295587">
  <ele>1583.0</ele>
  <time>2026-08-29T19:30:02Z</time>
  <course>55.25</course>
  <speed>2.19</speed>
  <fix>3d</fix>
</trkpt>
<trkpt lat="40.0708164" lon="-105.2295535">
  <ele>1583.05</ele>
  <time>2026-08-29T19:30:02Z</time>
  <course>56.48</course>
  <speed>2.171658352503911</speed>
  <fix>3d</fix>
</trkpt>
<trkpt lat="40.070814" lon="-105.2295587">
  <ele>1583.0</ele>
  <time>2026-08-29T19:30:02Z</time>
  <course>55.25</course>
  <speed>2.19</speed>
  <fix>3d</fix>
</trkpt>
<trkpt lat="40.0708175" lon="-105.2295514">
  <ele>1583.06</ele>
  <time>2026-08-29T19:30:02Z</time>
  <course>56.6</course>
  <speed>2.171658352503911</speed>
  <fix>3d</fix>
</trkpt>
<trkpt lat="40.0708162" lon="-105.2295544">
  <ele>1583.0</ele>
  <time>2026-08-29T19:30:02Z</time>
  <course>55.54</course>
  <speed>2.2</speed>
  <fix>3d</fix>
</trkpt>
<trkpt lat="40.0708187" lon="-105.2295492">
  <ele>1583.06</ele>
  <time>2026-08-29T19:30:02Z</time>
  <course>56.72</course>
  <speed>2.171658352503911</speed>
  <fix>3d</fix>
</trkpt>
<trkpt lat="40.0708162" lon="-105.2295544">
  <ele>1583.0</ele>
  <time>2026-08-29T19:30:02Z</time>
  <course>55.54</course>
  <speed>2.2</speed>
  <fix>3d</fix>
</trkpt>
<trkpt lat="40.0708195" lon="-105.2295475">
  <ele>1583.06</ele>
  <time>2026-08-29T19:30:02Z</time>
  <course>56.81</course>
  <speed>2.1745114393812695</speed>
  <fix>3d</fix>
</trkpt>
<trkpt lat="40.0708185" lon="-105.2295502">
  <ele>1583.0</ele>
  <time>2026-08-29T19:30:02Z</time>
  <course>55.8</course>
  <speed>2.2</speed>
  <fix>3d</fix>
</trkpt>
<trkpt lat="40.0708207" lon="-105.2295454">
  <ele>1583.06</ele>
  <time>2026-08-29T19:30:02Z</time>
  <course>56.93</course>
  <speed>2.1745114393812695</speed>
  <fix>3d</fix>
</trkpt>
<trkpt lat="40.0708185" lon="-105.2295502">
  <ele>1583.0</ele>
  <time>2026-08-29T19:30:02Z</time>
  <course>55.8</course>
  <speed>2.2</speed>
  <fix>3d</fix>
</trkpt>
<trkpt lat="40.0708218" lon="-105.2295432">
  <ele>1583.05</ele>
  <time>2026-08-29T19:30:02Z</time>
  <course>57.05</course>
  <speed>2.1745114393812695</speed>
  <fix>3d</fix>
</trkpt>
<trkpt lat="40.0708207" lon="-105.2295459">
  <ele>1583.0</ele>
  <time>2026-08-29T19:30:02Z</time>
  <course>56.04</course>
  <speed>2.2</speed>
  <fix>3d</fix>
</trkpt>
<trkpt lat="40.0708229" lon="-105.2295411">
  <ele>1583.05</ele>
  <time>2026-08-29T19:30:02Z</time>
  <course>57.15</course>
  <speed>2.1828879952943074</speed>
  <fix>3d</fix>
</trkpt>
<trkpt lat="40.0708207" lon="-105.2295459">
  <ele>1583.0</ele>
  <time>2026-08-29T19:30:02Z</time>
  <course>56.04</course>
  <speed>2.2</speed>
  <fix>3d</fix>
</trkpt>
<trkpt lat="40.070824" lon="-105.2295389">
  <ele>1583.05</ele>
  <time>2026-08-29T19:30:02Z</time>
  <course>57.24</course>
  <speed>2.1828879952943074</speed>
  <fix>3d</fix>
</trkpt>
<trkpt lat="40.0708228" lon="-105.2295416">
  <ele>1583.0</ele>
  <time>2026-08-29T19:30:02Z</time>
  <course>56.25</course>
  <speed>2.2</speed>
  <fix>3d</fix>
</trkpt>
<trkpt lat="40.0708251" lon="-105.2295367">
  <ele>1583.04</ele>
  <time>2026-08-29T19:30:02Z</time>
  <course>57.34</course>
  <speed>2.1774526401279086</speed>
  <fix>3d</fix>
</trkpt>
<trkpt lat="40.0708228" lon="-105.2295416">
  <ele>1583.0</ele>
  <time>2026-08-29T19:30:02Z</time>
  <course>56.25</course>
  <speed>2.2</speed>
  <fix>3d</fix>
</trkpt>
<trkpt lat="40.0708262" lon="-105.2295345">
  <ele>1583.04</ele>
  <time>2026-08-29T19:30:02Z</time>
  <course>57.52</course>
  <speed>2.185863673699712</speed>
  <fix>3d</fix>
</trkpt>
<trkpt lat="40.070825" lon="-105.2295373">
  <ele>1583.0</ele>
  <time>2026-08-29T19:30:02Z</time>
  <course>56.49</course>
  <speed>2.21</speed>
  <fix>3d</fix>
</trkpt>
<trkpt lat="40.0708273" lon="-105.2295323">
  <ele>1583.04</ele>
  <time>2026-08-29T19:30:02Z</time>
  <course>57.8</course>
  <speed>2.1889266776207923</speed>
  <fix>3d</fix>
</trkpt>
<trkpt lat="40.070825" lon="-105.2295373">
  <ele>1583.0</ele>
  <time>2026-08-29T19:30:02Z</time>
  <course>56.49</course>
  <speed>2.21</speed>
  <fix>3d</fix>
</trkpt>
<trkpt lat="40.0708284" lon="-105.2295301">
  <ele>1583.04</ele>
  <time>2026-08-29T19:30:02Z</time>
  <course>58.31</course>
  <speed>2.1920766409959302</speed>
  <fix>3d</fix>
</trkpt>
<trkpt lat="40.0708273" lon="-105.229533">
  <ele>1583.0</ele>
  <time>2026-08-29T19:30:02Z</time>
  <course>57.03</course>
  <speed>2.21</speed>
  <fix>3d</fix>
</trkpt>
<trkpt lat="40.0708294" lon="-105.2295279">
  <ele>1583.04</ele>
  <time>2026-08-29T19:30:02Z</time>
  <course>58.71</course>
  <speed>2.190091322296858</speed>
  <fix>3d</fix>
</trkpt>
<trkpt lat="40.0708273" lon="-105.229533">
  <ele>1583.0</ele>
  <time>2026-08-29T19:30:02Z</time>
  <course>57.03</course>
  <speed>2.21</speed>
  <fix>3d</fix>
</trkpt>
<trkpt lat="40.0708307" lon="-105.2295253">
  <ele>1583.05</ele>
  <time>2026-08-29T19:30:02Z</time>
  <course>59.05</course>
  <speed>2.1934675744127152</speed>
  <fix>3d</fix>
</trkpt>
<trkpt lat="40.0708294" lon="-105.2295286">
  <ele>1583.0</ele>
  <time>2026-08-29T19:30:02Z</time>
  <course>57.77</course>
  <speed>2.21</speed>
  <fix>3d</fix>
</trkpt>
<trkpt lat="40.0708318" lon="-105.229523">
  <ele>1583.05</ele>
  <time>2026-08-29T19:30:02Z</time>
  <course>59.26</course>
  <speed>2.1934675744127152</speed>
  <fix>3d</fix>
</trkpt>
<trkpt lat="40.0708294" lon="-105.2295286">
  <ele>1583.0</ele>
  <time>2026-08-29T19:30:02Z</time>
  <course>57.77</course>
  <speed>2.21</speed>
  <fix>3d</fix>
</trkpt>
<trkpt lat="40.0708328" lon="-105.2295208">
  <ele>1583.05</ele>
  <time>2026-08-29T19:30:02Z</time>
  <course>59.45</course>
  <speed>2.19692967570653</speed>
  <fix>3d</fix>
</trkpt>
<trkpt lat="40.0708315" lon="-105.2295241">
  <ele>1583.0</ele>
  <time>2026-08-29T19:30:02Z</time>
  <course>58.32</course>
  <speed>2.21</speed>
  <fix>3d</fix>
</trkpt>
<trkpt lat="40.0708339" lon="-105.2295186">
  <ele>1583.05</ele>
  <time>2026-08-29T19:30:02Z</time>
  <course>59.62</course>
  <speed>2.19692967570653</speed>
  <fix>3d</fix>
</trkpt>
<trkpt lat="40.0708315" lon="-105.2295241">
  <ele>1583.0</ele>
  <time>2026-08-29T19:30:02Z</time>
  <course>58.32</course>
  <speed>2.21</speed>
  <fix>3d</fix>
</trkpt>
<trkpt lat="40.0708349" lon="-105.2295163">
  <ele>1583.06</ele>
  <time>2026-08-29T19:30:02Z</time>
  <course>59.81</course>
  <speed>2.2004772209682155</speed>
  <fix>3d</fix>
</trkpt>
<trkpt lat="40.0708336" lon="-105.2295197">
  <ele>1583.0</ele>
  <time>2026-08-29T19:30:02Z</time>
  <course>58.71</course>
  <speed>2.22</speed>
  <fix>3d</fix>
</trkpt>
<trkpt lat="40.0708359" lon="-105.2295141">
  <ele>1583.06</ele>
  <time>2026-08-29T19:30:02Z</time>
  <course>59.96</course>
  <speed>2.2004772209682155</speed>
  <fix>3d</fix>
</trkpt>
<trkpt lat="40.0708336" lon="-105.2295197">
  <ele>1583.0</ele>
  <time>2026-08-29T19:30:02Z</time>
  <course>58.71</course>
  <speed>2.22</speed>
  <fix>3d</fix>
</trkpt>
<trkpt lat="40.0708369" lon="-105.2295118">
  <ele>1583.06</ele>
  <time>2026-08-29T19:30:02Z</time>
  <course>60.11</course>
  <speed>2.2091174708466728</speed>
  <fix>3d</fix>
</trkpt>
<trkpt lat="40.0708357" lon="-105.2295152">
  <ele>1583.0</ele>
  <time>2026-08-29T19:30:02Z</time>
  <course>59.05</course>
  <speed>2.22</speed>
  <fix>3d</fix>
</trkpt>
<trkpt lat="40.070838" lon="-105.2295096">
  <ele>1583.06</ele>
  <time>2026-08-29T19:30:02Z</time>
  <course>60.26</course>
  <speed>2.204109797628058</speed>
  <fix>3d</fix>
</trkpt>
<trkpt lat="40.0708357" lon="-105.2295152">
  <ele>1583.0</ele>
  <time>2026-08-29T19:30:02Z</time>
  <course>59.05</course>
  <speed>2.22</speed>
  <fix>3d</fix>
</trkpt>
<trkpt lat="40.070839" lon="-105.2295074">
  <ele>1583.06</ele>
  <time>2026-08-29T19:30:02Z</time>
  <course>60.4</course>
  <speed>2.204109797628058</speed>
  <fix>3d</fix>
</trkpt>
<trkpt lat="40.0708377" lon="-105.2295107">
  <ele>1583.0</ele>
  <time>2026-08-29T19:30:02Z</time>
  <course>59.35</course>
  <speed>2.22</speed>
  <fix>3d</fix>
</trkpt>
<trkpt lat="40.07084" lon="-105.2295052">
  <ele>1583.06</ele>
  <time>2026-08-29T19:30:02Z</time>
  <course>60.52</course>
  <speed>2.199136194054384</speed>
  <fix>3d</fix>
</trkpt>
<trkpt lat="40.0708377" lon="-105.2295107">
  <ele>1583.0</ele>
  <time>2026-08-29T19:30:02Z</time>
  <course>59.35</course>
  <speed>2.22</speed>
  <fix>3d</fix>
</trkpt>
<trkpt lat="40.070841" lon="-105.2295029">
  <ele>1583.06</ele>
  <time>2026-08-29T19:30:02Z</time>
  <course>60.64</course>
  <speed>2.207826985975124</speed>
  <fix>3d</fix>
</trkpt>
<trkpt lat="40.0708398" lon="-105.2295062">
  <ele>1583.0</ele>
  <time>2026-08-29T19:30:02Z</time>
  <course>59.61</course>
  <speed>2.22</speed>
  <fix>3d</fix>
</trkpt>
<trkpt lat="40.0708418" lon="-105.2295011">
  <ele>1583.06</ele>
  <time>2026-08-29T19:30:02Z</time>
  <course>60.73</course>
  <speed>2.207826985975124</speed>
  <fix>3d</fix>
</trkpt>
<trkpt lat="40.0708398" lon="-105.2295062">
  <ele>1583.0</ele>
  <time>2026-08-29T19:30:02Z</time>
  <course>59.61</course>
  <speed>2.22</speed>
  <fix>3d</fix>
</trkpt>
<trkpt lat="40.0708428" lon="-105.2294989">
  <ele>1583.06</ele>
  <time>2026-08-29T19:30:02Z</time>
  <course>60.82</course>
  <speed>2.207826985975124</speed>
  <fix>3d</fix>
</trkpt>
<trkpt lat="40.0708417" lon="-105.2295017">
  <ele>1583.0</ele>
  <time>2026-08-29T19:30:02Z</time>
  <course>59.83</course>
  <speed>2.23</speed>
  <fix>3d</fix>
</trkpt>
<trkpt lat="40.0708438" lon="-105.2294966">
  <ele>1583.05</ele>
  <time>2026-08-29T19:30:02Z</time>
  <course>60.91</course>
  <speed>2.202907170082298</speed>
  <fix>3d</fix>
</trkpt>
<trkpt lat="40.0708417" lon="-105.2295017">
  <ele>1583.0</ele>
  <time>2026-08-29T19:30:02Z</time>
  <course>59.83</course>
  <speed>2.23</speed>
  <fix>3d</fix>
</trkpt>
<trkpt lat="40.0708448" lon="-105.2294943">
  <ele>1583.05</ele>
  <time>2026-08-29T19:30:02Z</time>
  <course>61.0</course>
  <speed>2.202907170082298</speed>
  <fix>3d</fix>
</trkpt>
<trkpt lat="40.0708438" lon="-105.2294972">
  <ele>1583.0</ele>
  <time>2026-08-29T19:30:02Z</time>
  <course>60.03</course>
  <speed>2.23</speed>
  <fix>3d</fix>
</trkpt>
<trkpt lat="40.0708458" lon="-105.2294921">
  <ele>1583.05</ele>
  <time>2026-08-29T19:30:02Z</time>
  <course>61.07</course>
  <speed>2.2116283593768644</speed>
  <fix>3d</fix>
</trkpt>
<trkpt lat="40.0708438" lon="-105.2294972">
  <ele>1583.0</ele>
  <time>2026-08-29T19:30:02Z</time>
  <course>60.03</course>
  <speed>2.23</speed>
  <fix>3d</fix>
</trkpt>
<trkpt lat="40.0708468" lon="-105.2294898">
  <ele>1583.05</ele>
  <time>2026-08-29T19:30:02Z</time>
  <course>61.13</course>
  <speed>2.2116283593768644</speed>
  <fix>3d</fix>
</trkpt>
<trkpt lat="40.0708458" lon="-105.2294926">
  <ele>1583.0</ele>
  <time>2026-08-29T19:30:02Z</time>
  <course>60.18</course>
  <speed>2.23</speed>
  <fix>3d</fix>
</trkpt>
<trkpt lat="40.0708478" lon="-105.2294875">
  <ele>1583.05</ele>
  <time>2026-08-29T19:30:02Z</time>
  <course>61.19</course>
  <speed>2.2116283593768644</speed>
  <fix>3d</fix>
</trkpt>
<trkpt lat="40.0708458" lon="-105.2294926">
  <ele>1583.0</ele>
  <time>2026-08-29T19:30:02Z</time>
  <course>60.18</course>
  <speed>2.23</speed>
  <fix>3d</fix>
</trkpt>
<trkpt lat="40.0708488" lon="-105.2294852">
  <ele>1583.05</ele>
  <time>2026-08-29T19:30:02Z</time>
  <course>61.26</course>
  <speed>2.2116283593768644</speed>
  <fix>3d</fix>
</trkpt>
<trkpt lat="40.0708477" lon="-105.2294881">
  <ele>1583.0</ele>
  <time>2026-08-29T19:30:02Z</time>
  <course>60.31</course>
  <speed>2.23</speed>
  <fix>3d</fix>
</trkpt>
<trkpt lat="40.0708498" lon="-105.2294829">
  <ele>1583.04</ele>
  <time>2026-08-29T19:30:02Z</time>
  <course>61.3</course>
  <speed>2.220360331117452</speed>
  <fix>3d</fix>
</trkpt>
<trkpt lat="40.0708477" lon="-105.2294881">
  <ele>1583.0</ele>
  <time>2026-08-29T19:30:02Z</time>
  <course>60.31</course>
  <speed>2.23</speed>
  <fix>3d</fix>
</trkpt>
<trkpt lat="40.0708508" lon="-105.2294806">
  <ele>1583.04</ele>
  <time>2026-08-29T19:30:02Z</time>
  <course>61.33</course>
  <speed>2.220360331117452</speed>
  <fix>3d</fix>
</trkpt>
<trkpt lat="40.0708498" lon="-105.2294835">
  <ele>1583.0</ele>
  <time>2026-08-29T19:30:02Z</time>
  <course>60.41</course>
  <speed>2.23</speed>
  <fix>3d</fix>
</trkpt>
<trkpt lat="40.070852" lon="-105.2294778">
  <ele>1583.04</ele>
  <time>2026-08-29T19:30:02Z</time>
  <course>61.37</course>
  <speed>2.220360331117452</speed>
  <fix>3d</fix>
</trkpt>
<trkpt lat="40.0708498" lon="-105.2294835">
  <ele>1583.0</ele>
  <time>2026-08-29T19:30:02Z</time>
  <course>60.41</course>
  <speed>2.23</speed>
  <fix>3d</fix>
</trkpt>
<trkpt lat="40.070853" lon="-105.2294755">
  <ele>1583.04</ele>
  <time>2026-08-29T19:30:02Z</time>
  <course>61.4</course>
  <speed>2.220360331117452</speed>
  <fix>3d</fix>
</trkpt>
<trkpt lat="40.0708518" lon="-105.229479">
  <ele>1583.0</ele>
  <time>2026-08-29T19:30:02Z</time>
  <course>60.48</course>
  <speed>2.24</speed>
  <fix>3d</fix>
</trkpt>
<trkpt lat="40.070854" lon="-105.2294732">
  <ele>1583.05</ele>
  <time>2026-08-29T19:30:02Z</time>
  <course>61.43</course>
  <speed>2.220360331117452</speed>
  <fix>3d</fix>
</trkpt>
<trkpt lat="40.0708518" lon="-105.229479">
  <ele>1583.0</ele>
  <time>2026-08-29T19:30:02Z</time>
  <course>60.48</course>
  <speed>2.24</speed>
  <fix>3d</fix>
</trkpt>
<trkpt lat="40.070855" lon="-105.2294709">
  <ele>1583.05</ele>
  <time>2026-08-29T19:30:02Z</time>
  <course>61.45</course>
  <speed>2.220360331117452</speed>
  <fix>3d</fix>
</trkpt>
<trkpt lat="40.0708537" lon="-105.2294743">
  <ele>1583.0</ele>
  <time>2026-08-29T19:30:02Z</time>
  <course>60.53</course>
  <speed>2.24</speed>
  <fix>3d</fix>
</trkpt>
<trkpt lat="40.070856" lon="-105.2294686">
  <ele>1583.05</ele>
  <time>2026-08-29T19:30:02Z</time>
  <course>61.45</course>
  <speed>2.220360331117452</speed>
  <fix>3d</fix>
</trkpt>
<trkpt lat="40.0708537" lon="-105.2294743">
  <ele>1583.0</ele>
  <time>2026-08-29T19:30:02Z</time>
  <course>60.53</course>
  <speed>2.24</speed>
  <fix>3d</fix>
</trkpt>
<trkpt lat="40.070857" lon="-105.2294663">
  <ele>1583.05</ele>
  <time>2026-08-29T19:30:02Z</time>
  <course>61.45</course>
  <speed>2.220360331117452</speed>
  <fix>3d</fix>
</trkpt>
<trkpt lat="40.0708556" lon="-105.2294698">
  <ele>1583.0</ele>
  <time>2026-08-29T19:30:02Z</time>
  <course>60.56</course>
  <speed>2.24</speed>
  <fix>3d</fix>
</trkpt>
<trkpt lat="40.070858" lon="-105.229464">
  <ele>1583.05</ele>
  <time>2026-08-29T19:30:02Z</time>
  <course>61.45</course>
  <speed>2.220360331117452</speed>
  <fix>3d</fix>
</trkpt>
<trkpt lat="40.0708556" lon="-105.2294698">
  <ele>1583.0</ele>
  <time>2026-08-29T19:30:02Z</time>
  <course>60.56</course>
  <speed>2.24</speed>
  <fix>3d</fix>
</trkpt>
<trkpt lat="40.070859" lon="-105.2294617">
  <ele>1583.05</ele>
  <time>2026-08-29T19:30:02Z</time>
  <course>61.45</course>
  <speed>2.220360331117452</speed>
  <fix>3d</fix>
</trkpt>
<trkpt lat="40.0708577" lon="-105.2294651">
  <ele>1583.0</ele>
  <time>2026-08-29T19:30:02Z</time>
  <course>60.56</course>
  <speed>2.24</speed>
  <fix>3d</fix>
</trkpt>
<trkpt lat="40.07086" lon="-105.2294595">
  <ele>1583.05</ele>
  <time>2026-08-29T19:30:02Z</time>
  <course>61.45</course>
  <speed>2.220360331117452</speed>
  <fix>3d</fix>
</trkpt>
<trkpt lat="40.0708577" lon="-105.2294651">
  <ele>1583.0</ele>
  <time>2026-08-29T19:30:02Z</time>
  <course>60.56</course>
  <speed>2.24</speed>
  <fix>3d</fix>
</trkpt>
<trkpt lat="40.0708609" lon="-105.2294572">
  <ele>1583.05</ele>
  <time>2026-08-29T19:30:02Z</time>
  <course>61.45</course>
  <speed>2.220360331117452</speed>
  <fix>3d</fix>
</trkpt>
<trkpt lat="40.0708597" lon="-105.2294606">
  <ele>1583.0</ele>
  <time>2026-08-29T19:30:02Z</time>
  <course>60.56</course>
  <speed>2.24</speed>
  <fix>3d</fix>
</trkpt>
<trkpt lat="40.0708619" lon="-105.2294549">
  <ele>1583.05</ele>
  <time>2026-08-29T19:30:02Z</time>
  <course>61.45</course>
  <speed>2.220360331117452</speed>
  <fix>3d</fix>
</trkpt>
<trkpt lat="40.0708597" lon="-105.2294606">
  <ele>1583.0</ele>
  <time>2026-08-29T19:30:02Z</time>
  <course>60.56</course>
  <speed>2.24</speed>
  <fix>3d</fix>
</trkpt>
<trkpt lat="40.0708627" lon="-105.2294531">
  <ele>1583.05</ele>
  <time>2026-08-29T19:30:02Z</time>
  <course>61.45</course>
  <speed>2.220360331117452</speed>
  <fix>3d</fix>
</trkpt>
<trkpt lat="40.0708616" lon="-105.229456">
  <ele>1583.0</ele>
  <time>2026-08-29T19:30:02Z</time>
  <course>60.56</course>
  <speed>2.24</speed>
  <fix>3d</fix>
</trkpt>
<trkpt lat="40.0708637" lon="-105.2294508">
  <ele>1583.05</ele>
  <time>2026-08-29T19:30:02Z</time>
  <course>61.45</course>
  <speed>2.220360331117452</speed>
  <fix>3d</fix>
</trkpt>
<trkpt lat="40.0708616" lon="-105.229456">
  <ele>1583.0</ele>
  <time>2026-08-29T19:30:02Z</time>
  <course>60.56</course>
  <speed>2.24</speed>
  <fix>3d</fix>
</trkpt>
<trkpt lat="40.0708647" lon="-105.2294485">
  <ele>1583.05</ele>
  <time>2026-08-29T19:30:02Z</time>
  <course>61.45</course>
  <speed>2.220360331117452</speed>
  <fix>3d</fix>
</trkpt>
<trkpt lat="40.0708637" lon="-105.2294514">
  <ele>1583.0</ele>
  <time>2026-08-29T19:30:02Z</time>
  <course>60.56</course>
  <speed>2.24</speed>
  <fix>3d</fix>
</trkpt>
<trkpt lat="40.0708657" lon="-105.2294462">
  <ele>1583.05</ele>
  <time>2026-08-29T19:30:02Z</time>
  <course>61.43</course>
  <speed>2.220360331117452</speed>
  <fix>3d</fix>
</trkpt>
<trkpt lat="40.0708637" lon="-105.2294514">
  <ele>1583.0</ele>
  <time>2026-08-29T19:30:02Z</time>
  <course>60.56</course>
  <speed>2.24</speed>
  <fix>3d</fix>
</trkpt>
<trkpt lat="40.0708667" lon="-105.2294439">
  <ele>1583.04</ele>
  <time>2026-08-29T19:30:02Z</time>
  <course>61.41</course>
  <speed>2.220360331117452</speed>
  <fix>3d</fix>
</trkpt>
<trkpt lat="40.0708656" lon="-105.2294469">
  <ele>1583.0</ele>
  <time>2026-08-29T19:30:02Z</time>
  <course>60.54</course>
  <speed>2.24</speed>
  <fix>3d</fix>
</trkpt>
<trkpt lat="40.0708677" lon="-105.2294416">
  <ele>1583.04</ele>
  <time>2026-08-29T19:30:02Z</time>
  <course>61.38</course>
  <speed>2.220360331117452</speed>
  <fix>3d</fix>
</trkpt>
<trkpt lat="40.0708656" lon="-105.2294469">
  <ele>1583.0</ele>
  <time>2026-08-29T19:30:02Z</time>
  <course>60.54</course>
  <speed>2.24</speed>
  <fix>3d</fix>
</trkpt>
<trkpt lat="40.0708687" lon="-105.2294393">
  <ele>1583.05</ele>
  <time>2026-08-29T19:30:02Z</time>
  <course>61.35</course>
  <speed>2.220360331117452</speed>
  <fix>3d</fix>
</trkpt>
<trkpt lat="40.0708676" lon="-105.2294422">
  <ele>1583.0</ele>
  <time>2026-08-29T19:30:02Z</time>
  <course>60.49</course>
  <speed>2.24</speed>
  <fix>3d</fix>
</trkpt>
<trkpt lat="40.0708697" lon="-105.229437">
  <ele>1583.05</ele>
  <time>2026-08-29T19:30:02Z</time>
  <course>61.32</course>
  <speed>2.220360331117452</speed>
  <fix>3d</fix>
</trkpt>
<trkpt lat="40.0708676" lon="-105.2294422">
  <ele>1583.0</ele>
  <time>2026-08-29T19:30:02Z</time>
  <course>60.49</course>
  <speed>2.24</speed>
  <fix>3d</fix>
</trkpt>
<trkpt lat="40.0708707" lon="-105.2294347">
  <ele>1583.05</ele>
  <time>2026-08-29T19:30:02Z</time>
  <course>61.3</course>
  <speed>2.220360331117452</speed>
  <fix>3d</fix>
</trkpt>
<trkpt lat="40.0708695" lon="-105.2294377">
  <ele>1583.0</ele>
  <time>2026-08-29T19:30:02Z</time>
  <course>60.43</course>
  <speed>2.24</speed>
  <fix>3d</fix>
</trkpt>
<trkpt lat="40.0708719" lon="-105.2294319">
  <ele>1583.04</ele>
  <time>2026-08-29T19:30:02Z</time>
  <course>61.26</course>
  <speed>2.2252415599210797</speed>
  <fix>3d</fix>
</trkpt>
<trkpt lat="40.0708695" lon="-105.2294377">
  <ele>1583.0</ele>
  <time>2026-08-29T19:30:02Z</time>
  <course>60.43</course>
  <speed>2.24</speed>
  <fix>3d</fix>
</trkpt>
<trkpt lat="40.0708729" lon="-105.2294296">
  <ele>1583.04</ele>
  <time>2026-08-29T19:30:02Z</time>
  <course>61.23</course>
  <speed>2.2252415599210797</speed>
  <fix>3d</fix>
</trkpt>
<trkpt lat="40.0708716" lon="-105.2294331">
  <ele>1583.0</ele>
  <time>2026-08-29T19:30:02Z</time>
  <course>60.36</course>
  <speed>2.24</speed>
  <fix>3d</fix>
</trkpt>
<trkpt lat="40.0708739" lon="-105.2294274">
  <ele>1583.04</ele>
  <time>2026-08-29T19:30:02Z</time>
  <course>61.2</course>
  <speed>2.2252415599210797</speed>
  <fix>3d</fix>
</trkpt>
<trkpt lat="40.0708716" lon="-105.2294331">
  <ele>1583.0</ele>
  <time>2026-08-29T19:30:02Z</time>
  <course>60.36</course>
  <speed>2.24</speed>
  <fix>3d</fix>
</trkpt>
<trkpt lat="40.0708749" lon="-105.2294251">
  <ele>1583.05</ele>
  <time>2026-08-29T19:30:02Z</time>
  <course>61.17</course>
  <speed>2.2252415599210797</speed>
  <fix>3d</fix>
</trkpt>
<trkpt lat="40.0708736" lon="-105.2294284">
  <ele>1583.0</ele>
  <time>2026-08-29T19:30:02Z</time>
  <course>60.3</course>
  <speed>2.24</speed>
  <fix>3d</fix>
</trkpt>
<trkpt lat="40.0708759" lon="-105.2294228">
  <ele>1583.05</ele>
  <time>2026-08-29T19:30:02Z</time>
  <course>61.14</course>
  <speed>2.2252415599210797</speed>
  <fix>3d</fix>
</trkpt>
<trkpt lat="40.0708736" lon="-105.2294284">
  <ele>1583.0</ele>
  <time>2026-08-29T19:30:02Z</time>
  <course>60.3</course>
  <speed>2.24</speed>
  <fix>3d</fix>
</trkpt>
<trkpt lat="40.0708769" lon="-105.2294205">
  <ele>1583.05</ele>
  <time>2026-08-29T19:30:02Z</time>
  <course>61.11</course>
  <speed>2.2252415599210797</speed>
  <fix>3d</fix>
</trkpt>
<trkpt lat="40.0708755" lon="-105.2294239">
  <ele>1583.0</ele>
  <time>2026-08-29T19:30:02Z</time>
  <course>60.24</course>
  <speed>2.24</speed>
  <fix>3d</fix>
</trkpt>
<trkpt lat="40.0708779" lon="-105.2294182">
  <ele>1583.06</ele>
  <time>2026-08-29T19:30:02Z</time>
  <course>61.06</course>
  <speed>2.2252415599210797</speed>
  <fix>3d</fix>
</trkpt>
<trkpt lat="40.0708755" lon="-105.2294239">
  <ele>1583.0</ele>
  <time>2026-08-29T19:30:02Z</time>
  <course>60.24</course>
  <speed>2.24</speed>
  <fix>3d</fix>
</trkpt>
<trkpt lat="40.0708789" lon="-105.2294159">
  <ele>1583.06</ele>
  <time>2026-08-29T19:30:02Z</time>
  <course>61.01</course>
  <speed>2.216528817768901</speed>
  <fix>3d</fix>
</trkpt>
<trkpt lat="40.0708776" lon="-105.2294193">
  <ele>1583.0</ele>
  <time>2026-08-29T19:30:02Z</time>
  <course>60.16</course>
  <speed>2.24</speed>
  <fix>3d</fix>
</trkpt>
<trkpt lat="40.0708799" lon="-105.2294136">
  <ele>1583.06</ele>
  <time>2026-08-29T19:30:02Z</time>
  <course>60.95</course>
  <speed>2.221463481581455</speed>
  <fix>3d</fix>
</trkpt>
<trkpt lat="40.0708776" lon="-105.2294193">
  <ele>1583.0</ele>
  <time>2026-08-29T19:30:02Z</time>
  <course>60.16</course>
  <speed>2.24</speed>
  <fix>3d</fix>
</trkpt>
<trkpt lat="40.0708809" lon="-105.2294114">
  <ele>1583.06</ele>
  <time>2026-08-29T19:30:02Z</time>
  <course>60.9</course>
  <speed>2.221463481581455</speed>
  <fix>3d</fix>
</trkpt>
<trkpt lat="40.0708796" lon="-105.2294148">
  <ele>1583.0</ele>
  <time>2026-08-29T19:30:02Z</time>
  <course>60.06</course>
  <speed>2.24</speed>
  <fix>3d</fix>
</trkpt>
<trkpt lat="40.0708819" lon="-105.2294091">
  <ele>1583.06</ele>
  <time>2026-08-29T19:30:02Z</time>
  <course>60.85</course>
  <speed>2.221463481581455</speed>
  <fix>3d</fix>
</trkpt>
<trkpt lat="40.0708796" lon="-105.2294148">
  <ele>1583.0</ele>
  <time>2026-08-29T19:30:02Z</time>
  <course>60.06</course>
  <speed>2.24</speed>
  <fix>3d</fix>
</trkpt>
<trkpt lat="40.0708829" lon="-105.2294069">
  <ele>1583.06</ele>
  <time>2026-08-29T19:30:02Z</time>
  <course>60.81</course>
  <speed>2.221463481581455</speed>
  <fix>3d</fix>
</trkpt>
<trkpt lat="40.0708815" lon="-105.2294102">
  <ele>1583.0</ele>
  <time>2026-08-29T19:30:02Z</time>
  <course>59.96</course>
  <speed>2.24</speed>
  <fix>3d</fix>
</trkpt>
<trkpt lat="40.0708837" lon="-105.2294051">
  <ele>1583.06</ele>
  <time>2026-08-29T19:30:02Z</time>
  <course>60.76</course>
  <speed>2.2127810555949723</speed>
  <fix>3d</fix>
</trkpt>
<trkpt lat="40.0708815" lon="-105.2294102">
  <ele>1583.0</ele>
  <time>2026-08-29T19:30:02Z</time>
  <course>59.96</course>
  <speed>2.24</speed>
  <fix>3d</fix>
</trkpt>
<trkpt lat="40.0708847" lon="-105.2294028">
  <ele>1583.06</ele>
  <time>2026-08-29T19:30:02Z</time>
  <course>60.72</course>
  <speed>2.2127810555949723</speed>
  <fix>3d</fix>
</trkpt>
<trkpt lat="40.0708836" lon="-105.2294057">
  <ele>1583.0</ele>
  <time>2026-08-29T19:30:02Z</time>
  <course>59.86</course>
  <speed>2.24</speed>
  <fix>3d</fix>
</trkpt>
<trkpt lat="40.0708857" lon="-105.2294005">
  <ele>1583.06</ele>
  <time>2026-08-29T19:30:02Z</time>
  <course>60.67</course>
  <speed>2.2127810555949723</speed>
  <fix>3d</fix>
</trkpt>
<trkpt lat="40.0708836" lon="-105.2294057">
  <ele>1583.0</ele>
  <time>2026-08-29T19:30:02Z</time>
  <course>59.86</course>
  <speed>2.24</speed>
  <fix>3d</fix>
</trkpt>
<trkpt lat="40.0708867" lon="-105.2293983">
  <ele>1583.06</ele>
  <time>2026-08-29T19:30:02Z</time>
  <course>60.62</course>
  <speed>2.2127810555949723</speed>
  <fix>3d</fix>
</trkpt>
<trkpt lat="40.0708857" lon="-105.2294011">
  <ele>1583.0</ele>
  <time>2026-08-29T19:30:02Z</time>
  <course>59.75</course>
  <speed>2.24</speed>
  <fix>3d</fix>
</trkpt>
<trkpt lat="40.0708878" lon="-105.229396">
  <ele>1583.06</ele>
  <time>2026-08-29T19:30:02Z</time>
  <course>60.59</course>
  <speed>2.2177691493931464</speed>
  <fix>3d</fix>
</trkpt>
<trkpt lat="40.0708857" lon="-105.2294011">
  <ele>1583.0</ele>
  <time>2026-08-29T19:30:02Z</time>
  <course>59.75</course>
  <speed>2.24</speed>
  <fix>3d</fix>
</trkpt>
<trkpt lat="40.0708888" lon="-105.2293937">
  <ele>1583.06</ele>
  <time>2026-08-29T19:30:02Z</time>
  <course>60.56</course>
  <speed>2.2177691493931464</speed>
  <fix>3d</fix>
</trkpt>
<trkpt lat="40.0708877" lon="-105.2293966">
  <ele>1583.0</ele>
  <time>2026-08-29T19:30:02Z</time>
  <course>59.67</course>
  <speed>2.24</speed>
  <fix>3d</fix>
</trkpt>
<trkpt lat="40.0708898" lon="-105.2293915">
  <ele>1583.06</ele>
  <time>2026-08-29T19:30:02Z</time>
  <course>60.52</course>
  <speed>2.2177691493931464</speed>
  <fix>3d</fix>
</trkpt>
<trkpt lat="40.0708877" lon="-105.2293966">
  <ele>1583.0</ele>
  <time>2026-08-29T19:30:02Z</time>
  <course>59.67</course>
  <speed>2.24</speed>
  <fix>3d</fix>
</trkpt>
<trkpt lat="40.0708908" lon="-105.2293892">
  <ele>1583.06</ele>
  <time>2026-08-29T19:30:02Z</time>
  <course>60.49</course>
  <speed>2.2177691493931464</speed>
  <fix>3d</fix>
</trkpt>
<trkpt lat="40.0708897" lon="-105.229392">
  <ele>1583.0</ele>
  <time>2026-08-29T19:30:02Z</time>
  <course>59.6</course>
  <speed>2.24</speed>
  <fix>3d</fix>
</trkpt>
<trkpt lat="40.0708919" lon="-105.2293869">
  <ele>1583.06</ele>
  <time>2026-08-29T19:30:02Z</time>
  <course>60.46</course>
  <speed>2.2177691493931464</speed>
  <fix>3d</fix>
</trkpt>
<trkpt lat="40.0708897" lon="-105.229392">
  <ele>1583.0</ele>
  <time>2026-08-29T19:30:02Z</time>
  <course>59.6</course>
  <speed>2.24</speed>
  <fix>3d</fix>
</trkpt>
<trkpt lat="40.0708931" lon="-105.2293842">
  <ele>1583.06</ele>
  <time>2026-08-29T19:30:02Z</time>
  <course>60.42</course>
  <speed>2.2177691493931464</speed>
  <fix>3d</fix>
</trkpt>
<trkpt lat="40.0708918" lon="-105.2293875">
  <ele>1583.0</ele>
  <time>2026-08-29T19:30:02Z</time>
  <course>59.54</course>
  <speed>2.24</speed>
  <fix>3d</fix>
</trkpt>
<trkpt lat="40.0708941" lon="-105.2293819">
  <ele>1583.06</ele>
  <time>2026-08-29T19:30:02Z</time>
  <course>60.4</course>
  <speed>2.2177691493931464</speed>
  <fix>3d</fix>
</trkpt>
<trkpt lat="40.0708918" lon="-105.2293875">
  <ele>1583.0</ele>
  <time>2026-08-29T19:30:02Z</time>
  <course>59.54</course>
  <speed>2.24</speed>
  <fix>3d</fix>
</trkpt>
<trkpt lat="40.0708952" lon="-105.2293796">
  <ele>1583.06</ele>
  <time>2026-08-29T19:30:02Z</time>
  <course>60.37</course>
  <speed>2.2227910383119687</speed>
  <fix>3d</fix>
</trkpt>
<trkpt lat="40.0708938" lon="-105.2293829">
  <ele>1583.0</ele>
  <time>2026-08-29T19:30:02Z</time>
  <course>59.48</course>
  <speed>2.24</speed>
  <fix>3d</fix>
</trkpt>
<trkpt lat="40.0708962" lon="-105.2293773">
  <ele>1583.06</ele>
  <time>2026-08-29T19:30:02Z</time>
  <course>60.34</course>
  <speed>2.2227910383119687</speed>
  <fix>3d</fix>
</trkpt>
<trkpt lat="40.0708938" lon="-105.2293829">
  <ele>1583.0</ele>
  <time>2026-08-29T19:30:02Z</time>
  <course>59.48</course>
  <speed>2.24</speed>
  <fix>3d</fix>
</trkpt>
<trkpt lat="40.0708972" lon="-105.229375">
  <ele>1583.06</ele>
  <time>2026-08-29T19:30:02Z</time>
  <course>60.31</course>
  <speed>2.2227910383119687</speed>
  <fix>3d</fix>
</trkpt>
<trkpt lat="40.0708958" lon="-105.2293784">
  <ele>1583.0</ele>
  <time>2026-08-29T19:30:02Z</time>
  <course>59.41</course>
  <speed>2.24</speed>
  <fix>3d</fix>
</trkpt>
<trkpt lat="40.0708982" lon="-105.2293728">
  <ele>1583.06</ele>
  <time>2026-08-29T19:30:02Z</time>
  <course>60.28</course>
  <speed>2.2141589825484527</speed>
  <fix>3d</fix>
</trkpt>
<trkpt lat="40.0708958" lon="-105.2293784">
  <ele>1583.0</ele>
  <time>2026-08-29T19:30:02Z</time>
  <course>59.41</course>
  <speed>2.24</speed>
  <fix>3d</fix>
</trkpt>
<trkpt lat="40.0708993" lon="-105.2293705">
  <ele>1583.06</ele>
  <time>2026-08-29T19:30:02Z</time>
  <course>60.25</course>
  <speed>2.2141589825484527</speed>
  <fix>3d</fix>
</trkpt>
<trkpt lat="40.0708979" lon="-105.2293738">
  <ele>1583.0</ele>
  <time>2026-08-29T19:30:02Z</time>
  <course>59.35</course>
  <speed>2.24</speed>
  <fix>3d</fix>
</trkpt>
<trkpt lat="40.0709003" lon="-105.2293683">
  <ele>1583.06</ele>
  <time>2026-08-29T19:30:02Z</time>
  <course>60.24</course>
  <speed>2.2141589825484527</speed>
  <fix>3d</fix>
</trkpt>
<trkpt lat="40.0708979" lon="-105.2293738">
  <ele>1583.0</ele>
  <time>2026-08-29T19:30:02Z</time>
  <course>59.35</course>
  <speed>2.24</speed>
  <fix>3d</fix>
</trkpt>
<trkpt lat="40.0709013" lon="-105.229366">
  <ele>1583.06</ele>
  <time>2026-08-29T19:30:02Z</time>
  <course>60.36</course>
  <speed>2.2091174708466728</speed>
  <fix>3d</fix>
</trkpt>
<trkpt lat="40.0708999" lon="-105.2293693">
  <ele>1583.0</ele>
  <time>2026-08-29T19:30:02Z</time>
  <course>59.36</course>
  <speed>2.24</speed>
  <fix>3d</fix>
</trkpt>
<trkpt lat="40.0709023" lon="-105.2293638">
  <ele>1583.06</ele>
  <time>2026-08-29T19:30:02Z</time>
  <course>60.67</course>
  <speed>2.2127810555949723</speed>
  <fix>3d</fix>
</trkpt>
<trkpt lat="40.0708999" lon="-105.2293693">
  <ele>1583.0</ele>
  <time>2026-08-29T19:30:02Z</time>
  <course>59.36</course>
  <speed>2.24</speed>
  <fix>3d</fix>
</trkpt>
<trkpt lat="40.0709033" lon="-105.2293615">
  <ele>1583.06</ele>
  <time>2026-08-29T19:30:02Z</time>
  <course>61.14</course>
  <speed>2.216528817768901</speed>
  <fix>3d</fix>
</trkpt>
<trkpt lat="40.070902" lon="-105.2293648">
  <ele>1583.0</ele>
  <time>2026-08-29T19:30:02Z</time>
  <course>59.76</course>
  <speed>2.24</speed>
  <fix>3d</fix>
</trkpt>
<trkpt lat="40.0709041" lon="-105.2293597">
  <ele>1583.05</ele>
  <time>2026-08-29T19:30:02Z</time>
  <course>61.48</course>
  <speed>2.206762334280699</speed>
  <fix>3d</fix>
</trkpt>
<trkpt lat="40.070902" lon="-105.2293648">
  <ele>1583.0</ele>
  <time>2026-08-29T19:30:02Z</time>
  <course>59.76</course>
  <speed>2.24</speed>
  <fix>3d</fix>
</trkpt>
<trkpt lat="40.0709051" lon="-105.2293574">
  <ele>1583.05</ele>
  <time>2026-08-29T19:30:02Z</time>
  <course>61.82</course>
  <speed>2.210701246211256</speed>
  <fix>3d</fix>
</trkpt>
<trkpt lat="40.070904" lon="-105.2293603">
  <ele>1583.0</ele>
  <time>2026-08-29T19:30:02Z</time>
  <course>60.5</course>
  <speed>2.24</speed>
  <fix>3d</fix>
</trkpt>
<trkpt lat="40.070906" lon="-105.2293551">
  <ele>1583.05</ele>
  <time>2026-08-29T19:30:02Z</time>
  <course>62.06</course>
  <speed>2.20592384274707</speed>
  <fix>3d</fix>
</trkpt>
<trkpt lat="40.070904" lon="-105.2293603">
  <ele>1583.0</ele>
  <time>2026-08-29T19:30:02Z</time>
  <course>60.5</course>
  <speed>2.24</speed>
  <fix>3d</fix>
</trkpt>
<trkpt lat="40.070907" lon="-105.2293529">
  <ele>1583.05</ele>
  <time>2026-08-29T19:30:02Z</time>
  <course>62.27</course>
  <speed>2.2147234590350102</speed>
  <fix>3d</fix>
</trkpt>
<trkpt lat="40.0709059" lon="-105.2293556">
  <ele>1583.0</ele>
  <time>2026-08-29T19:30:02Z</time>
  <course>61.11</course>
  <speed>2.24</speed>
  <fix>3d</fix>
</trkpt>
<trkpt lat="40.070908" lon="-105.2293505">
  <ele>1583.05</ele>
  <time>2026-08-29T19:30:02Z</time>
  <course>62.53</course>
  <speed>2.21</speed>
  <fix>3d</fix>
</trkpt>
<trkpt lat="40.0709059" lon="-105.2293556">
  <ele>1583.0</ele>
  <time>2026-08-29T19:30:02Z</time>
  <course>61.11</course>
  <speed>2.24</speed>
  <fix>3d</fix>
</trkpt>
<trkpt lat="40.0709089" lon="-105.2293482">
  <ele>1583.05</ele>
  <time>2026-08-29T19:30:02Z</time>
  <course>62.8</course>
  <speed>2.2141589825484527</speed>
  <fix>3d</fix>
</trkpt>
<trkpt lat="40.0709079" lon="-105.229351">
  <ele>1583.0</ele>
  <time>2026-08-29T19:30:02Z</time>
  <course>61.6</course>
  <speed>2.24</speed>
  <fix>3d</fix>
</trkpt>
<trkpt lat="40.0709099" lon="-105.2293459">
  <ele>1583.05</ele>
  <time>2026-08-29T19:30:02Z</time>
  <course>62.99</course>
  <speed>2.2184003245582162</speed>
  <fix>3d</fix>
</trkpt>
<trkpt lat="40.0709079" lon="-105.229351">
  <ele>1583.0</ele>
  <time>2026-08-29T19:30:02Z</time>
  <course>61.6</course>
  <speed>2.24</speed>
  <fix>3d</fix>
</trkpt>
<trkpt lat="40.0709108" lon="-105.2293435">
  <ele>1583.05</ele>
  <time>2026-08-29T19:30:02Z</time>
  <course>63.16</course>
  <speed>2.2184003245582162</speed>
  <fix>3d</fix>
</trkpt>
<trkpt lat="40.0709098" lon="-105.2293464">
  <ele>1583.0</ele>
  <time>2026-08-29T19:30:02Z</time>
  <course>62.04</course>
  <speed>2.24</speed>
  <fix>3d</fix>
</trkpt>
<trkpt lat="40.0709117" lon="-105.2293411">
  <ele>1583.05</ele>
  <time>2026-08-29T19:30:02Z</time>
  <course>63.31</course>
  <speed>2.213820227570432</speed>
  <fix>3d</fix>
</trkpt>
<trkpt lat="40.0709098" lon="-105.2293464">
  <ele>1583.0</ele>
  <time>2026-08-29T19:30:02Z</time>
  <course>62.04</course>
  <speed>2.24</speed>
  <fix>3d</fix>
</trkpt>
<trkpt lat="40.0709127" lon="-105.2293388">
  <ele>1583.05</ele>
  <time>2026-08-29T19:30:02Z</time>
  <course>63.45</course>
  <speed>2.2227235545609356</speed>
  <fix>3d</fix>
</trkpt>
<trkpt lat="40.0709117" lon="-105.2293417">
  <ele>1583.0</ele>
  <time>2026-08-29T19:30:02Z</time>
  <course>62.37</course>
  <speed>2.24</speed>
  <fix>3d</fix>
</trkpt>
<trkpt lat="40.0709138" lon="-105.2293359">
  <ele>1583.05</ele>
  <time>2026-08-29T19:30:02Z</time>
  <course>63.6</course>
  <speed>2.2181974664127626</speed>
  <fix>3d</fix>
</trkpt>
<trkpt lat="40.0709117" lon="-105.2293417">
  <ele>1583.0</ele>
  <time>2026-08-29T19:30:02Z</time>
  <course>62.37</course>
  <speed>2.24</speed>
  <fix>3d</fix>
</trkpt>
<trkpt lat="40.0709147" lon="-105.2293336">
  <ele>1583.05</ele>
  <time>2026-08-29T19:30:02Z</time>
  <course>63.72</course>
  <speed>2.2271281956816047</speed>
  <fix>3d</fix>
</trkpt>
<trkpt lat="40.0709136" lon="-105.229337">
  <ele>1583.0</ele>
  <time>2026-08-29T19:30:02Z</time>
  <course>62.63</course>
  <speed>2.24</speed>
  <fix>3d</fix>
</trkpt>
<trkpt lat="40.0709157" lon="-105.2293312">
  <ele>1583.05</ele>
  <time>2026-08-29T19:30:02Z</time>
  <course>63.85</course>
  <speed>2.2271281956816047</speed>
  <fix>3d</fix>
</trkpt>
<trkpt lat="40.0709136" lon="-105.229337">
  <ele>1583.0</ele>
  <time>2026-08-29T19:30:02Z</time>
  <course>62.63</course>
  <speed>2.24</speed>
  <fix>3d</fix>
</trkpt>
<trkpt lat="40.0709166" lon="-105.2293289">
  <ele>1583.05</ele>
  <time>2026-08-29T19:30:02Z</time>
  <course>63.95</course>
  <speed>2.2226560687609767</speed>
  <fix>3d</fix>
</trkpt>
<trkpt lat="40.0709154" lon="-105.2293323">
  <ele>1583.0</ele>
  <time>2026-08-29T19:30:02Z</time>
  <course>62.87</course>
  <speed>2.24</speed>
  <fix>3d</fix>
</trkpt>
<trkpt lat="40.0709175" lon="-105.2293265">
  <ele>1583.05</ele>
  <time>2026-08-29T19:30:02Z</time>
  <course>64.04</course>
  <speed>2.231613765865411</speed>
  <fix>3d</fix>
</trkpt>
<trkpt lat="40.0709154" lon="-105.2293323">
  <ele>1583.0</ele>
  <time>2026-08-29T19:30:02Z</time>
  <course>62.87</course>
  <speed>2.24</speed>
  <fix>3d</fix>
</trkpt>
<trkpt lat="40.0709184" lon="-105.2293241">
  <ele>1583.05</ele>
  <time>2026-08-29T19:30:02Z</time>
  <course>64.13</course>
  <speed>2.231613765865411</speed>
  <fix>3d</fix>
</trkpt>
<trkpt lat="40.0709172" lon="-105.2293276">
  <ele>1583.0</ele>
  <time>2026-08-29T19:30:02Z</time>
  <course>63.08</course>
  <speed>2.25</speed>
  <fix>3d</fix>
</trkpt>
<trkpt lat="40.0709193" lon="-105.2293218">
  <ele>1583.04</ele>
  <time>2026-08-29T19:30:02Z</time>
  <course>64.23</course>
  <speed>2.227195545972558</speed>
  <fix>3d</fix>
</trkpt>
<trkpt lat="40.0709172" lon="-105.2293276">
  <ele>1583.0</ele>
  <time>2026-08-29T19:30:02Z</time>
  <course>63.08</course>
  <speed>2.25</speed>
  <fix>3d</fix>
</trkpt>
<trkpt lat="40.0709202" lon="-105.2293194">
  <ele>1583.04</ele>
  <time>2026-08-29T19:30:02Z</time>
  <course>64.32</course>
  <speed>2.227195545972558</speed>
  <fix>3d</fix>
</trkpt>
<trkpt lat="40.0709191" lon="-105.2293229">
  <ele>1583.0</ele>
  <time>2026-08-29T19:30:02Z</time>
  <course>63.26</course>
  <speed>2.25</speed>
  <fix>3d</fix>
</trkpt>
<trkpt lat="40.0709211" lon="-105.2293171">
  <ele>1583.05</ele>
  <time>2026-08-29T19:30:02Z</time>
  <course>64.38</course>
  <speed>2.227195545972558</speed>
  <fix>3d</fix>
</trkpt>
<trkpt lat="40.0709191" lon="-105.2293229">
  <ele>1583.0</ele>
  <time>2026-08-29T19:30:02Z</time>
  <course>63.26</course>
  <speed>2.25</speed>
  <fix>3d</fix>
</trkpt>
<trkpt lat="40.070922" lon="-105.2293147">
  <ele>1583.05</ele>
  <time>2026-08-29T19:30:02Z</time>
  <course>64.44</course>
  <speed>2.227195545972558</speed>
  <fix>3d</fix>
</trkpt>
<trkpt lat="40.0709209" lon="-105.2293182">
  <ele>1583.0</ele>
  <time>2026-08-29T19:30:02Z</time>
  <course>63.42</course>
  <speed>2.25</speed>
  <fix>3d</fix>
</trkpt>
<trkpt lat="40.0709229" lon="-105.2293124">
  <ele>1583.05</ele>
  <time>2026-08-29T19:30:02Z</time>
  <course>64.5</course>
  <speed>2.222813532440362</speed>
  <fix>3d</fix>
</trkpt>
<trkpt lat="40.0709209" lon="-105.2293182">
  <ele>1583.0</ele>
  <time>2026-08-29T19:30:02Z</time>
  <course>63.42</course>
  <speed>2.25</speed>
  <fix>3d</fix>
</trkpt>
<trkpt lat="40.0709236" lon="-105.2293105">
  <ele>1583.05</ele>
  <time>2026-08-29T19:30:02Z</time>
  <course>64.55</course>
  <speed>2.222813532440362</speed>
  <fix>3d</fix>
</trkpt>
<trkpt lat="40.0709226" lon="-105.2293134">
  <ele>1583.0</ele>
  <time>2026-08-29T19:30:02Z</time>
  <course>63.54</course>
  <speed>2.25</speed>
  <fix>3d</fix>
</trkpt>
<trkpt lat="40.0709245" lon="-105.2293081">
  <ele>1583.05</ele>
  <time>2026-08-29T19:30:02Z</time>
  <course>64.61</course>
  <speed>2.231815404552984</speed>
  <fix>3d</fix>
</trkpt>
<trkpt lat="40.0709226" lon="-105.2293134">
  <ele>1583.0</ele>
  <time>2026-08-29T19:30:02Z</time>
  <course>63.54</course>
  <speed>2.25</speed>
  <fix>3d</fix>
</trkpt>
<trkpt lat="40.0709254" lon="-105.2293057">
  <ele>1583.06</ele>
  <time>2026-08-29T19:30:02Z</time>
  <course>64.68</course>
  <speed>2.231815404552984</speed>
  <fix>3d</fix>
</trkpt>
<trkpt lat="40.0709245" lon="-105.2293087">
  <ele>1583.0</ele>
  <time>2026-08-29T19:30:02Z</time>
  <course>63.67</course>
  <speed>2.25</speed>
  <fix>3d</fix>
</trkpt>
<trkpt lat="40.0709263" lon="-105.2293034">
  <ele>1583.06</ele>
  <time>2026-08-29T19:30:02Z</time>
  <course>64.73</course>
  <speed>2.231815404552984</speed>
  <fix>3d</fix>
</trkpt>
<trkpt lat="40.0709245" lon="-105.2293087">
  <ele>1583.0</ele>
  <time>2026-08-29T19:30:02Z</time>
  <course>63.67</course>
  <speed>2.25</speed>
  <fix>3d</fix>
</trkpt>
<trkpt lat="40.0709272" lon="-105.229301">
  <ele>1583.06</ele>
  <time>2026-08-29T19:30:02Z</time>
  <course>64.76</course>
  <speed>2.231815404552984</speed>
  <fix>3d</fix>
</trkpt>
<trkpt lat="40.0709262" lon="-105.229304">
  <ele>1583.0</ele>
  <time>2026-08-29T19:30:02Z</time>
  <course>63.77</course>
  <speed>2.25</speed>
  <fix>3d</fix>
</trkpt>
<trkpt lat="40.0709281" lon="-105.2292986">
  <ele>1583.06</ele>
  <time>2026-08-29T19:30:02Z</time>
  <course>64.79</course>
  <speed>2.2274873737015883</speed>
  <fix>3d</fix>
</trkpt>
<trkpt lat="40.0709262" lon="-105.229304">
  <ele>1583.0</ele>
  <time>2026-08-29T19:30:02Z</time>
  <course>63.77</course>
  <speed>2.25</speed>
  <fix>3d</fix>
</trkpt>
<trkpt lat="40.070929" lon="-105.2292962">
  <ele>1583.06</ele>
  <time>2026-08-29T19:30:02Z</time>
  <course>64.82</course>
  <speed>2.2274873737015883</speed>
  <fix>3d</fix>
</trkpt>
<trkpt lat="40.0709281" lon="-105.2292992">
  <ele>1583.0</ele>
  <time>2026-08-29T19:30:02Z</time>
  <course>63.84</course>
  <speed>2.25</speed>
  <fix>3d</fix>
</trkpt>
<trkpt lat="40.0709299" lon="-105.2292938">
  <ele>1583.06</ele>
  <time>2026-08-29T19:30:02Z</time>
  <course>64.86</course>
  <speed>2.2274873737015883</speed>
  <fix>3d</fix>
</trkpt>
<trkpt lat="40.0709281" lon="-105.2292992">
  <ele>1583.0</ele>
  <time>2026-08-29T19:30:02Z</time>
  <course>63.84</course>
  <speed>2.25</speed>
  <fix>3d</fix>
</trkpt>
<trkpt lat="40.0709308" lon="-105.2292914">
  <ele>1583.06</ele>
  <time>2026-08-29T19:30:02Z</time>
  <course>64.89</course>
  <speed>2.2365151463828723</speed>
  <fix>3d</fix>
</trkpt>
<trkpt lat="40.0709298" lon="-105.2292945">
  <ele>1583.0</ele>
  <time>2026-08-29T19:30:02Z</time>
  <course>63.9</course>
  <speed>2.25</speed>
  <fix>3d</fix>
</trkpt>
<trkpt lat="40.0709317" lon="-105.229289">
  <ele>1583.06</ele>
  <time>2026-08-29T19:30:02Z</time>
  <course>64.92</course>
  <speed>2.2365151463828723</speed>
  <fix>3d</fix>
</trkpt>
<trkpt lat="40.0709298" lon="-105.2292945">
  <ele>1583.0</ele>
  <time>2026-08-29T19:30:02Z</time>
  <course>63.9</course>
  <speed>2.25</speed>
  <fix>3d</fix>
</trkpt>
<trkpt lat="40.0709328" lon="-105.2292861">
  <ele>1583.06</ele>
  <time>2026-08-29T19:30:02Z</time>
  <course>64.96</course>
  <speed>2.2365151463828723</speed>
  <fix>3d</fix>
</trkpt>
<trkpt lat="40.0709317" lon="-105.2292897">
  <ele>1583.0</ele>
  <time>2026-08-29T19:30:02Z</time>
  <course>63.97</course>
  <speed>2.25</speed>
  <fix>3d</fix>
</trkpt>
<trkpt lat="40.0709337" lon="-105.2292837">
  <ele>1583.06</ele>
  <time>2026-08-29T19:30:02Z</time>
  <course>64.99</course>
  <speed>2.2365151463828723</speed>
  <fix>3d</fix>
</trkpt>
<trkpt lat="40.0709317" lon="-105.2292897">
  <ele>1583.0</ele>
  <time>2026-08-29T19:30:02Z</time>
  <course>63.97</course>
  <speed>2.25</speed>
  <fix>3d</fix>
</trkpt>
<trkpt lat="40.0709345" lon="-105.2292813">
  <ele>1583.06</ele>
  <time>2026-08-29T19:30:02Z</time>
  <course>65.02</course>
  <speed>2.2365151463828723</speed>
  <fix>3d</fix>
</trkpt>
<trkpt lat="40.0709334" lon="-105.2292849">
  <ele>1583.0</ele>
  <time>2026-08-29T19:30:02Z</time>
  <course>64.03</course>
  <speed>2.25</speed>
  <fix>3d</fix>
</trkpt>
<trkpt lat="40.0709354" lon="-105.2292789">
  <ele>1583.06</ele>
  <time>2026-08-29T19:30:02Z</time>
  <course>65.05</course>
  <speed>2.2365151463828723</speed>
  <fix>3d</fix>
</trkpt>
<trkpt lat="40.0709334" lon="-105.2292849">
  <ele>1583.0</ele>
  <time>2026-08-29T19:30:02Z</time>
  <course>64.03</course>
  <speed>2.25</speed>
  <fix>3d</fix>
</trkpt>
<trkpt lat="40.0709363" lon="-105.2292766">
  <ele>1583.06</ele>
  <time>2026-08-29T19:30:02Z</time>
  <course>65.08</course>
  <speed>2.2365151463828723</speed>
  <fix>3d</fix>
</trkpt>
<trkpt lat="40.0709351" lon="-105.2292801">
  <ele>1583.0</ele>
  <time>2026-08-29T19:30:02Z</time>
  <course>64.09</course>
  <speed>2.25</speed>
  <fix>3d</fix>
</trkpt>
<trkpt lat="40.0709372" lon="-105.2292742">
  <ele>1583.06</ele>
  <time>2026-08-29T19:30:02Z</time>
  <course>65.1</course>
  <speed>2.2365151463828723</speed>
  <fix>3d</fix>
</trkpt>
<trkpt lat="40.0709351" lon="-105.2292801">
  <ele>1583.0</ele>
  <time>2026-08-29T19:30:02Z</time>
  <course>64.09</course>
  <speed>2.25</speed>
  <fix>3d</fix>
</trkpt>
<trkpt lat="40.0709381" lon="-105.2292718">
  <ele>1583.06</ele>
  <time>2026-08-29T19:30:02Z</time>
  <course>65.12</course>
  <speed>2.2365151463828723</speed>
  <fix>3d</fix>
</trkpt>
<trkpt lat="40.070937" lon="-105.2292753">
  <ele>1583.0</ele>
  <time>2026-08-29T19:30:02Z</time>
  <course>64.14</course>
  <speed>2.25</speed>
  <fix>3d</fix>
</trkpt>
<trkpt lat="40.070939" lon="-105.2292694">
  <ele>1583.06</ele>
  <time>2026-08-29T19:30:02Z</time>
  <course>65.12</course>
  <speed>2.2365151463828723</speed>
  <fix>3d</fix>
</trkpt>
<trkpt lat="40.070937" lon="-105.2292753">
  <ele>1583.0</ele>
  <time>2026-08-29T19:30:02Z</time>
  <course>64.14</course>
  <speed>2.25</speed>
  <fix>3d</fix>
</trkpt>
<trkpt lat="40.0709398" lon="-105.2292671">
  <ele>1583.06</ele>
  <time>2026-08-29T19:30:02Z</time>
  <course>65.12</course>
  <speed>2.2365151463828723</speed>
  <fix>3d</fix>
</trkpt>
<trkpt lat="40.0709387" lon="-105.2292705">
  <ele>1583.0</ele>
  <time>2026-08-29T19:30:02Z</time>
  <course>64.16</course>
  <speed>2.25</speed>
  <fix>3d</fix>
</trkpt>
<trkpt lat="40.0709407" lon="-105.2292647">
  <ele>1583.06</ele>
  <time>2026-08-29T19:30:02Z</time>
  <course>65.12</course>
  <speed>2.2322410264126944</speed>
  <fix>3d</fix>
</trkpt>
<trkpt lat="40.0709387" lon="-105.2292705">
  <ele>1583.0</ele>
  <time>2026-08-29T19:30:02Z</time>
  <course>64.16</course>
  <speed>2.25</speed>
  <fix>3d</fix>
</trkpt>
<trkpt lat="40.0709416" lon="-105.2292623">
  <ele>1583.06</ele>
  <time>2026-08-29T19:30:02Z</time>
  <course>65.13</course>
  <speed>2.2322410264126944</speed>
  <fix>3d</fix>
</trkpt>
<trkpt lat="40.0709404" lon="-105.2292658">
  <ele>1583.0</ele>
  <time>2026-08-29T19:30:02Z</time>
  <course>64.17</course>
  <speed>2.26</speed>
  <fix>3d</fix>
</trkpt>
<trkpt lat="40.0709423" lon="-105.2292604">
  <ele>1583.06</ele>
  <time>2026-08-29T19:30:02Z</time>
  <course>65.13</course>
  <speed>2.2322410264126944</speed>
  <fix>3d</fix>
</trkpt>
<trkpt lat="40.0709404" lon="-105.2292658">
  <ele>1583.0</ele>
  <time>2026-08-29T19:30:02Z</time>
  <course>64.17</course>
  <speed>2.26</speed>
  <fix>3d</fix>
</trkpt>
<trkpt lat="40.0709432" lon="-105.2292581">
  <ele>1583.06</ele>
  <time>2026-08-29T19:30:02Z</time>
  <course>65.13</course>
  <speed>2.2322410264126944</speed>
  <fix>3d</fix>
</trkpt>
<trkpt lat="40.0709423" lon="-105.2292611">
  <ele>1583.0</ele>
  <time>2026-08-29T19:30:02Z</time>
  <course>64.17</course>
  <speed>2.26</speed>
  <fix>3d</fix>
</trkpt>
<trkpt lat="40.070944" lon="-105.2292557">
  <ele>1583.06</ele>
  <time>2026-08-29T19:30:02Z</time>
  <course>65.13</course>
  <speed>2.2322410264126944</speed>
  <fix>3d</fix>
</trkpt>
<trkpt lat="40.0709423" lon="-105.2292611">
  <ele>1583.0</ele>
  <time>2026-08-29T19:30:02Z</time>
  <course>64.17</course>
  <speed>2.26</speed>
  <fix>3d</fix>
</trkpt>
<trkpt lat="40.0709449" lon="-105.2292533">
  <ele>1583.05</ele>
  <time>2026-08-29T19:30:02Z</time>
  <course>65.13</course>
  <speed>2.2322410264126944</speed>
  <fix>3d</fix>
</trkpt>
<trkpt lat="40.070944" lon="-105.2292562">
  <ele>1583.0</ele>
  <time>2026-08-29T19:30:02Z</time>
  <course>64.17</course>
  <speed>2.26</speed>
  <fix>3d</fix>
</trkpt>
<trkpt lat="40.0709458" lon="-105.2292509">
  <ele>1583.05</ele>
  <time>2026-08-29T19:30:02Z</time>
  <course>65.13</course>
  <speed>2.2322410264126944</speed>
  <fix>3d</fix>
</trkpt>
<trkpt lat="40.070944" lon="-105.2292562">
  <ele>1583.0</ele>
  <time>2026-08-29T19:30:02Z</time>
  <course>64.17</course>
  <speed>2.26</speed>
  <fix>3d</fix>
</trkpt>
<trkpt lat="40.0709467" lon="-105.2292485">
  <ele>1583.05</ele>
  <time>2026-08-29T19:30:02Z</time>
  <course>65.13</course>
  <speed>2.2322410264126944</speed>
  <fix>3d</fix>
</trkpt>
<trkpt lat="40.0709458" lon="-105.2292514">
  <ele>1583.0</ele>
  <time>2026-08-29T19:30:02Z</time>
  <course>64.17</course>
  <speed>2.26</speed>
  <fix>3d</fix>
</trkpt>
<trkpt lat="40.0709476" lon="-105.2292461">
  <ele>1583.05</ele>
  <time>2026-08-29T19:30:02Z</time>
  <course>65.13</course>
  <speed>2.2365151463828723</speed>
  <fix>3d</fix>
</trkpt>
<trkpt lat="40.0709458" lon="-105.2292514">
  <ele>1583.0</ele>
  <time>2026-08-29T19:30:02Z</time>
  <course>64.17</course>
  <speed>2.26</speed>
  <fix>3d</fix>
</trkpt>
<trkpt lat="40.0709485" lon="-105.2292437">
  <ele>1583.05</ele>
  <time>2026-08-29T19:30:02Z</time>
  <course>65.13</course>
  <speed>2.2365151463828723</speed>
  <fix>3d</fix>
</trkpt>
<trkpt lat="40.0709475" lon="-105.2292467">
  <ele>1583.0</ele>
  <time>2026-08-29T19:30:02Z</time>
  <course>64.17</course>
  <speed>2.26</speed>
  <fix>3d</fix>
</trkpt>
<trkpt lat="40.0709494" lon="-105.2292413">
  <ele>1583.05</ele>
  <time>2026-08-29T19:30:02Z</time>
  <course>65.13</course>
  <speed>2.2365151463828723</speed>
  <fix>3d</fix>
</trkpt>
<trkpt lat="40.0709475" lon="-105.2292467">
  <ele>1583.0</ele>
  <time>2026-08-29T19:30:02Z</time>
  <course>64.17</course>
  <speed>2.26</speed>
  <fix>3d</fix>
</trkpt>
<trkpt lat="40.0709502" lon="-105.2292389">
  <ele>1583.05</ele>
  <time>2026-08-29T19:30:02Z</time>
  <course>65.13</course>
  <speed>2.2365151463828723</speed>
  <fix>3d</fix>
</trkpt>
<trkpt lat="40.0709494" lon="-105.229242">
  <ele>1583.0</ele>
  <time>2026-08-29T19:30:02Z</time>
  <course>64.17</course>
  <speed>2.26</speed>
  <fix>3d</fix>
</trkpt>
<trkpt lat="40.0709513" lon="-105.229236">
  <ele>1583.05</ele>
  <time>2026-08-29T19:30:02Z</time>
  <course>65.13</course>
  <speed>2.2365151463828723</speed>
  <fix>3d</fix>
</trkpt>
<trkpt lat="40.0709494" lon="-105.229242">
  <ele>1583.0</ele>
  <time>2026-08-29T19:30:02Z</time>
  <course>64.17</course>
  <speed>2.26</speed>
  <fix>3d</fix>
</trkpt>
<trkpt lat="40.0709522" lon="-105.2292336">
  <ele>1583.05</ele>
  <time>2026-08-29T19:30:02Z</time>
  <course>65.13</course>
  <speed>2.2365151463828723</speed>
  <fix>3d</fix>
</trkpt>
<trkpt lat="40.0709511" lon="-105.2292372">
  <ele>1583.0</ele>
  <time>2026-08-29T19:30:02Z</time>
  <course>64.17</course>
  <speed>2.26</speed>
  <fix>3d</fix>
</trkpt>
<trkpt lat="40.0709531" lon="-105.2292312">
  <ele>1583.04</ele>
  <time>2026-08-29T19:30:02Z</time>
  <course>65.14</course>
  <speed>2.2365151463828723</speed>
  <fix>3d</fix>
</trkpt>
<trkpt lat="40.0709511" lon="-105.2292372">
  <ele>1583.0</ele>
  <time>2026-08-29T19:30:02Z</time>
  <course>64.17</course>
  <speed>2.26</speed>
  <fix>3d</fix>
</trkpt>
<trkpt lat="40.070954" lon="-105.2292288">
  <ele>1583.04</ele>
  <time>2026-08-29T19:30:02Z</time>
  <course>65.15</course>
  <speed>2.2365151463828723</speed>
  <fix>3d</fix>
</trkpt>
<trkpt lat="40.0709528" lon="-105.2292324">
  <ele>1583.0</ele>
  <time>2026-08-29T19:30:02Z</time>
  <course>64.17</course>
  <speed>2.26</speed>
  <fix>3d</fix>
</trkpt>
<trkpt lat="40.0709549" lon="-105.2292264">
  <ele>1583.04</ele>
  <time>2026-08-29T19:30:02Z</time>
  <course>65.15</course>
  <speed>2.2365151463828723</speed>
  <fix>3d</fix>
</trkpt>
<trkpt lat="40.0709528" lon="-105.2292324">
  <ele>1583.0</ele>
  <time>2026-08-29T19:30:02Z</time>
  <course>64.17</course>
  <speed>2.26</speed>
  <fix>3d</fix>
</trkpt>
<trkpt lat="40.0709558" lon="-105.229224">
  <ele>1583.05</ele>
  <time>2026-08-29T19:30:02Z</time>
  <course>65.15</course>
  <speed>2.2365151463828723</speed>
  <fix>3d</fix>
</trkpt>
<trkpt lat="40.0709547" lon="-105.2292276">
  <ele>1583.0</ele>
  <time>2026-08-29T19:30:02Z</time>
  <course>64.18</course>
  <speed>2.26</speed>
  <fix>3d</fix>
</trkpt>
<trkpt lat="40.0709567" lon="-105.2292216">
  <ele>1583.05</ele>
  <time>2026-08-29T19:30:02Z</time>
  <course>65.15</course>
  <speed>2.2365151463828723</speed>
  <fix>3d</fix>
</trkpt>
<trkpt lat="40.0709547" lon="-105.2292276">
  <ele>1583.0</ele>
  <time>2026-08-29T19:30:02Z</time>
  <course>64.18</course>
  <speed>2.26</speed>
  <fix>3d</fix>
</trkpt>
<trkpt lat="40.0709575" lon="-105.2292193">
  <ele>1583.05</ele>
  <time>2026-08-29T19:30:02Z</time>
  <course>65.15</course>
  <speed>2.2365151463828723</speed>
  <fix>3d</fix>
</trkpt>
<trkpt lat="40.0709564" lon="-105.2292228">
  <ele>1583.0</ele>
  <time>2026-08-29T19:30:02Z</time>
  <course>64.18</course>
  <speed>2.26</speed>
  <fix>3d</fix>
</trkpt>
<trkpt lat="40.0709584" lon="-105.2292169">
  <ele>1583.05</ele>
  <time>2026-08-29T19:30:02Z</time>
  <course>65.15</course>
  <speed>2.2365151463828723</speed>
  <fix>3d</fix>
</trkpt>
<trkpt lat="40.0709564" lon="-105.2292228">
  <ele>1583.0</ele>
  <time>2026-08-29T19:30:02Z</time>
  <course>64.18</course>
  <speed>2.26</speed>
  <fix>3d</fix>
</trkpt>
<trkpt lat="40.0709593" lon="-105.2292145">
  <ele>1583.05</ele>
  <time>2026-08-29T19:30:02Z</time>
  <course>65.15</course>
  <speed>2.2365151463828723</speed>
  <fix>3d</fix>
</trkpt>
<trkpt lat="40.0709581" lon="-105.2292181">
  <ele>1583.0</ele>
  <time>2026-08-29T19:30:02Z</time>
  <course>64.19</course>
  <speed>2.26</speed>
  <fix>3d</fix>
</trkpt>
<trkpt lat="40.0709602" lon="-105.2292122">
  <ele>1583.05</ele>
  <time>2026-08-29T19:30:02Z</time>
  <course>65.15</course>
  <speed>2.2365151463828723</speed>
  <fix>3d</fix>
</trkpt>
<trkpt lat="40.0709581" lon="-105.2292181">
  <ele>1583.0</ele>
  <time>2026-08-29T19:30:02Z</time>
  <course>64.19</course>
  <speed>2.26</speed>
  <fix>3d</fix>
</trkpt>
<trkpt lat="40.0709609" lon="-105.2292103">
  <ele>1583.04</ele>
  <time>2026-08-29T19:30:02Z</time>
  <course>65.15</course>
  <speed>2.2322410264126944</speed>
  <fix>3d</fix>
</trkpt>
<trkpt lat="40.07096" lon="-105.2292133">
  <ele>1583.0</ele>
  <time>2026-08-29T19:30:02Z</time>
  <course>64.19</course>
  <speed>2.26</speed>
  <fix>3d</fix>
</trkpt>
<trkpt lat="40.0709618" lon="-105.2292079">
  <ele>1583.04</ele>
  <time>2026-08-29T19:30:02Z</time>
  <course>65.16</course>
  <speed>2.2365151463828723</speed>
  <fix>3d</fix>
</trkpt>
<trkpt lat="40.07096" lon="-105.2292133">
  <ele>1583.0</ele>
  <time>2026-08-29T19:30:02Z</time>
  <course>64.19</course>
  <speed>2.26</speed>
  <fix>3d</fix>
</trkpt>
<trkpt lat="40.0709626" lon="-105.2292055">
  <ele>1583.04</ele>
  <time>2026-08-29T19:30:02Z</time>
  <course>65.16</course>
  <speed>2.2365151463828723</speed>
  <fix>3d</fix>
</trkpt>
<trkpt lat="40.0709617" lon="-105.2292085">
  <ele>1583.0</ele>
  <time>2026-08-29T19:30:02Z</time>
  <course>64.18</course>
  <speed>2.26</speed>
  <fix>3d</fix>
</trkpt>
<trkpt lat="40.0709635" lon="-105.2292031">
  <ele>1583.04</ele>
  <time>2026-08-29T19:30:02Z</time>
  <course>65.17</course>
  <speed>2.2365151463828723</speed>
  <fix>3d</fix>
</trkpt>
<trkpt lat="40.0709617" lon="-105.2292085">
  <ele>1583.0</ele>
  <time>2026-08-29T19:30:02Z</time>
  <course>64.18</course>
  <speed>2.26</speed>
  <fix>3d</fix>
</trkpt>
<trkpt lat="40.0709644" lon="-105.2292007">
  <ele>1583.04</ele>
  <time>2026-08-29T19:30:02Z</time>
  <course>65.17</course>
  <speed>2.2365151463828723</speed>
  <fix>3d</fix>
</trkpt>
<trkpt lat="40.0709635" lon="-105.2292037">
  <ele>1583.0</ele>
  <time>2026-08-29T19:30:02Z</time>
  <course>64.19</course>
  <speed>2.26</speed>
  <fix>3d</fix>
</trkpt>
<trkpt lat="40.0709653" lon="-105.2291983">
  <ele>1583.04</ele>
  <time>2026-08-29T19:30:02Z</time>
  <course>65.17</course>
  <speed>2.2365151463828723</speed>
  <fix>3d</fix>
</trkpt>
<trkpt lat="40.0709635" lon="-105.2292037">
  <ele>1583.0</ele>
  <time>2026-08-29T19:30:02Z</time>
  <course>64.19</course>
  <speed>2.26</speed>
  <fix>3d</fix>
</trkpt>
<trkpt lat="40.0709662" lon="-105.2291959">
  <ele>1583.04</ele>
  <time>2026-08-29T19:30:02Z</time>
  <course>65.17</course>
  <speed>2.2365151463828723</speed>
  <fix>3d</fix>
</trkpt>
<trkpt lat="40.0709653" lon="-105.229199">
  <ele>1583.0</ele>
  <time>2026-08-29T19:30:02Z</time>
  <course>64.2</course>
  <speed>2.26</speed>
  <fix>3d</fix>
</trkpt>
<trkpt lat="40.0709671" lon="-105.2291935">
  <ele>1583.04</ele>
  <time>2026-08-29T19:30:02Z</time>
  <course>65.18</course>
  <speed>2.2365151463828723</speed>
  <fix>3d</fix>
</trkpt>
<trkpt lat="40.0709653" lon="-105.229199">
  <ele>1583.0</ele>
  <time>2026-08-29T19:30:02Z</time>
  <course>64.2</course>
  <speed>2.26</speed>
  <fix>3d</fix>
</trkpt>
<trkpt lat="40.070968" lon="-105.2291911">
  <ele>1583.04</ele>
  <time>2026-08-29T19:30:02Z</time>
  <course>65.18</course>
  <speed>2.2365151463828723</speed>
  <fix>3d</fix>
</trkpt>
<trkpt lat="40.0709671" lon="-105.2291942">
  <ele>1583.0</ele>
  <time>2026-08-29T19:30:02Z</time>
  <course>64.2</course>
  <speed>2.26</speed>
  <fix>3d</fix>
</trkpt>
<trkpt lat="40.0709689" lon="-105.2291887">
  <ele>1583.04</ele>
  <time>2026-08-29T19:30:02Z</time>
  <course>65.2</course>
  <speed>2.2365151463828723</speed>
  <fix>3d</fix>
</trkpt>
<trkpt lat="40.0709671" lon="-105.2291942">
  <ele>1583.0</ele>
  <time>2026-08-29T19:30:02Z</time>
  <course>64.2</course>
  <speed>2.26</speed>
  <fix>3d</fix>
</trkpt>
<trkpt lat="40.0709699" lon="-105.2291858">
  <ele>1583.04</ele>
  <time>2026-08-29T19:30:02Z</time>
  <course>65.2</course>
  <speed>2.2365151463828723</speed>
  <fix>3d</fix>
</trkpt>
<trkpt lat="40.0709688" lon="-105.2291894">
  <ele>1583.0</ele>
  <time>2026-08-29T19:30:02Z</time>
  <course>64.22</course>
  <speed>2.26</speed>
  <fix>3d</fix>
</trkpt>
<trkpt lat="40.0709708" lon="-105.2291834">
  <ele>1583.04</ele>
  <time>2026-08-29T19:30:02Z</time>
  <course>65.22</course>
  <speed>2.2365151463828723</speed>
  <fix>3d</fix>
</trkpt>
<trkpt lat="40.0709688" lon="-105.2291894">
  <ele>1583.0</ele>
  <time>2026-08-29T19:30:02Z</time>
  <course>64.22</course>
  <speed>2.26</speed>
  <fix>3d</fix>
</trkpt>
<trkpt lat="40.0709717" lon="-105.229181">
  <ele>1583.04</ele>
  <time>2026-08-29T19:30:02Z</time>
  <course>65.22</course>
  <speed>2.2365151463828723</speed>
  <fix>3d</fix>
</trkpt>
<trkpt lat="40.0709705" lon="-105.2291846">
  <ele>1583.0</ele>
  <time>2026-08-29T19:30:02Z</time>
  <course>64.24</course>
  <speed>2.26</speed>
  <fix>3d</fix>
</trkpt>
<trkpt lat="40.0709726" lon="-105.2291786">
  <ele>1583.04</ele>
  <time>2026-08-29T19:30:02Z</time>
  <course>65.22</course>
  <speed>2.2365151463828723</speed>
  <fix>3d</fix>
</trkpt>
<trkpt lat="40.0709705" lon="-105.2291846">
  <ele>1583.0</ele>
  <time>2026-08-29T19:30:02Z</time>
  <course>64.24</course>
  <speed>2.26</speed>
  <fix>3d</fix>
</trkpt>
<trkpt lat="40.0709735" lon="-105.2291762">
  <ele>1583.04</ele>
  <time>2026-08-29T19:30:02Z</time>
  <course>65.22</course>
  <speed>2.2365151463828723</speed>
  <fix>3d</fix>
</trkpt>
<trkpt lat="40.0709724" lon="-105.2291798">
  <ele>1583.0</ele>
  <time>2026-08-29T19:30:02Z</time>
  <course>64.25</course>
  <speed>2.26</speed>
  <fix>3d</fix>
</trkpt>
<trkpt lat="40.0709744" lon="-105.2291739">
  <ele>1583.04</ele>
  <time>2026-08-29T19:30:02Z</time>
  <course>65.22</course>
  <speed>2.2365151463828723</speed>
  <fix>3d</fix>
</trkpt>
<trkpt lat="40.0709724" lon="-105.2291798">
  <ele>1583.0</ele>
  <time>2026-08-29T19:30:02Z</time>
  <course>64.25</course>
  <speed>2.26</speed>
  <fix>3d</fix>
</trkpt>
<trkpt lat="40.0709752" lon="-105.2291715">
  <ele>1583.04</ele>
  <time>2026-08-29T19:30:02Z</time>
  <course>65.22</course>
  <speed>2.2365151463828723</speed>
  <fix>3d</fix>
</trkpt>
<trkpt lat="40.0709741" lon="-105.229175">
  <ele>1583.0</ele>
  <time>2026-08-29T19:30:02Z</time>
  <course>64.25</course>
  <speed>2.26</speed>
  <fix>3d</fix>
</trkpt>
<trkpt lat="40.0709761" lon="-105.2291691">
  <ele>1583.04</ele>
  <time>2026-08-29T19:30:02Z</time>
  <course>65.22</course>
  <speed>2.2365151463828723</speed>
  <fix>3d</fix>
</trkpt>
<trkpt lat="40.0709741" lon="-105.229175">
  <ele>1583.0</ele>
  <time>2026-08-29T19:30:02Z</time>
  <course>64.25</course>
  <speed>2.26</speed>
  <fix>3d</fix>
</trkpt>
<trkpt lat="40.070977" lon="-105.2291667">
  <ele>1583.04</ele>
  <time>2026-08-29T19:30:02Z</time>
  <course>65.23</course>
  <speed>2.2322410264126944</speed>
  <fix>3d</fix>
</trkpt>
<trkpt lat="40.0709758" lon="-105.2291702">
  <ele>1583.0</ele>
  <time>2026-08-29T19:30:02Z</time>
  <course>64.25</course>
  <speed>2.26</speed>
  <fix>3d</fix>
</trkpt>
<trkpt lat="40.0709779" lon="-105.2291644">
  <ele>1583.04</ele>
  <time>2026-08-29T19:30:02Z</time>
  <course>65.23</course>
  <speed>2.2322410264126944</speed>
  <fix>3d</fix>
</trkpt>
<trkpt lat="40.0709758" lon="-105.2291702">
  <ele>1583.0</ele>
  <time>2026-08-29T19:30:02Z</time>
  <course>64.25</course>
  <speed>2.26</speed>
  <fix>3d</fix>
</trkpt>
<trkpt lat="40.0709787" lon="-105.229162">
  <ele>1583.04</ele>
  <time>2026-08-29T19:30:02Z</time>
  <course>65.23</course>
  <speed>2.2322410264126944</speed>
  <fix>3d</fix>
</trkpt>
<trkpt lat="40.0709776" lon="-105.2291654">
  <ele>1583.0</ele>
  <time>2026-08-29T19:30:02Z</time>
  <course>64.24</course>
  <speed>2.26</speed>
  <fix>3d</fix>
</trkpt>
<trkpt lat="40.0709794" lon="-105.2291601">
  <ele>1583.04</ele>
  <time>2026-08-29T19:30:02Z</time>
  <course>65.23</course>
  <speed>2.2322410264126944</speed>
  <fix>3d</fix>
</trkpt>
<trkpt lat="40.0709776" lon="-105.2291654">
  <ele>1583.0</ele>
  <time>2026-08-29T19:30:02Z</time>
  <course>64.24</course>
  <speed>2.26</speed>
  <fix>3d</fix>
</trkpt>
<trkpt lat="40.0709803" lon="-105.2291577">
  <ele>1583.04</ele>
  <time>2026-08-29T19:30:02Z</time>
  <course>65.23</course>
  <speed>2.2322410264126944</speed>
  <fix>3d</fix>
</trkpt>
<trkpt lat="40.0709794" lon="-105.2291607">
  <ele>1583.0</ele>
  <time>2026-08-29T19:30:02Z</time>
  <course>64.24</course>
  <speed>2.26</speed>
  <fix>3d</fix>
</trkpt>
<trkpt lat="40.0709812" lon="-105.2291553">
  <ele>1583.04</ele>
  <time>2026-08-29T19:30:02Z</time>
  <course>65.23</course>
  <speed>2.2322410264126944</speed>
  <fix>3d</fix>
</trkpt>
<trkpt lat="40.0709794" lon="-105.2291607">
  <ele>1583.0</ele>
  <time>2026-08-29T19:30:02Z</time>
  <course>64.24</course>
  <speed>2.26</speed>
  <fix>3d</fix>
</trkpt>
<trkpt lat="40.0709821" lon="-105.229153">
  <ele>1583.04</ele>
  <time>2026-08-29T19:30:02Z</time>
  <course>65.23</course>
  <speed>2.2322410264126944</speed>
  <fix>3d</fix>
</trkpt>
<trkpt lat="40.0709811" lon="-105.2291559">
  <ele>1583.0</ele>
  <time>2026-08-29T19:30:02Z</time>
  <course>64.24</course>
  <speed>2.26</speed>
  <fix>3d</fix>
</trkpt>
<trkpt lat="40.0709829" lon="-105.2291506">
  <ele>1583.04</ele>
  <time>2026-08-29T19:30:02Z</time>
  <course>65.23</course>
  <speed>2.2322410264126944</speed>
  <fix>3d</fix>
</trkpt>
<trkpt lat="40.0709811" lon="-105.2291559">
  <ele>1583.0</ele>
  <time>2026-08-29T19:30:02Z</time>
  <course>64.24</course>
  <speed>2.26</speed>
  <fix>3d</fix>
</trkpt>
<trkpt lat="40.0709838" lon="-105.2291482">
  <ele>1583.04</ele>
  <time>2026-08-29T19:30:02Z</time>
  <course>65.23</course>
  <speed>2.2322410264126944</speed>
  <fix>3d</fix>
</trkpt>
<trkpt lat="40.0709829" lon="-105.2291511">
  <ele>1583.0</ele>
  <time>2026-08-29T19:30:02Z</time>
  <course>64.24</course>
  <speed>2.26</speed>
  <fix>3d</fix>
</trkpt>
<trkpt lat="40.0709847" lon="-105.2291458">
  <ele>1583.04</ele>
  <time>2026-08-29T19:30:02Z</time>
  <course>65.23</course>
  <speed>2.2322410264126944</speed>
  <fix>3d</fix>
</trkpt>
<trkpt lat="40.0709829" lon="-105.2291511">
  <ele>1583.0</ele>
  <time>2026-08-29T19:30:02Z</time>
  <course>64.24</course>
  <speed>2.26</speed>
  <fix>3d</fix>
</trkpt>
<trkpt lat="40.0709856" lon="-105.2291434">
  <ele>1583.04</ele>
  <time>2026-08-29T19:30:02Z</time>
  <course>65.23</course>
  <speed>2.2322410264126944</speed>
  <fix>3d</fix>
</trkpt>
<trkpt lat="40.0709846" lon="-105.2291463">
  <ele>1583.0</ele>
  <time>2026-08-29T19:30:02Z</time>
  <course>64.24</course>
  <speed>2.26</speed>
  <fix>3d</fix>
</trkpt>
<trkpt lat="40.0709865" lon="-105.2291409">
  <ele>1583.04</ele>
  <time>2026-08-29T19:30:02Z</time>
  <course>65.23</course>
  <speed>2.2322410264126944</speed>
  <fix>3d</fix>
</trkpt>
<trkpt lat="40.0709846" lon="-105.2291463">
  <ele>1583.0</ele>
  <time>2026-08-29T19:30:02Z</time>
  <course>64.24</course>
  <speed>2.26</speed>
  <fix>3d</fix>
</trkpt>
<trkpt lat="40.0709875" lon="-105.2291381">
  <ele>1583.05</ele>
  <time>2026-08-29T19:30:02Z</time>
  <course>65.23</course>
  <speed>2.2322410264126944</speed>
  <fix>3d</fix>
</trkpt>
<trkpt lat="40.0709865" lon="-105.2291415">
  <ele>1583.0</ele>
  <time>2026-08-29T19:30:02Z</time>
  <course>64.24</course>
  <speed>2.26</speed>
  <fix>3d</fix>
</trkpt>
<trkpt lat="40.0709884" lon="-105.2291356">
  <ele>1583.05</ele>
  <time>2026-08-29T19:30:02Z</time>
  <course>65.16</course>
  <speed>2.2365151463828723</speed>
  <fix>3d</fix>
</trkpt>
<trkpt lat="40.0709865" lon="-105.2291415">
  <ele>1583.0</ele>
  <time>2026-08-29T19:30:02Z</time>
  <course>64.24</course>
  <speed>2.26</speed>
  <fix>3d</fix>
</trkpt>
<trkpt lat="40.0709893" lon="-105.2291332">
  <ele>1583.05</ele>
  <time>2026-08-29T19:30:02Z</time>
  <course>64.31</course>
  <speed>2.2405802819805407</speed>
  <fix>3d</fix>
</trkpt>
<trkpt lat="40.0709882" lon="-105.2291367">
  <ele>1583.0</ele>
  <time>2026-08-29T19:30:02Z</time>
  <course>63.9</course>
  <speed>2.26</speed>
  <fix>3d</fix>
</trkpt>
<trkpt lat="40.0709903" lon="-105.2291309">
  <ele>1583.04</ele>
  <time>2026-08-29T19:30:02Z</time>
  <course>62.5</course>
  <speed>2.2411827234743713</speed>
  <fix>3d</fix>
</trkpt>
<trkpt lat="40.0709882" lon="-105.2291367">
  <ele>1583.0</ele>
  <time>2026-08-29T19:30:02Z</time>
  <course>63.9</course>
  <speed>2.26</speed>
  <fix>3d</fix>
</trkpt>
<trkpt lat="40.0709913" lon="-105.2291286">
  <ele>1583.05</ele>
  <time>2026-08-29T19:30:02Z</time>
  <course>59.61</course>
  <speed>2.2380571931923456</speed>
  <fix>3d</fix>
</trkpt>
<trkpt lat="40.0709901" lon="-105.229132">
  <ele>1583.0</ele>
  <time>2026-08-29T19:30:02Z</time>
  <course>61.42</course>
  <speed>2.25</speed>
  <fix>3d</fix>
</trkpt>
<trkpt lat="40.0709924" lon="-105.2291263">
  <ele>1583.05</ele>
  <time>2026-08-29T19:30:02Z</time>
  <course>55.6</course>
  <speed>2.2332263655975404</speed>
  <fix>3d</fix>
</trkpt>
<trkpt lat="40.0709901" lon="-105.229132">
  <ele>1583.0</ele>
  <time>2026-08-29T19:30:02Z</time>
  <course>61.42</course>
  <speed>2.25</speed>
  <fix>3d</fix>
</trkpt>
<trkpt lat="40.0709937" lon="-105.2291242">
  <ele>1583.04</ele>
  <time>2026-08-29T19:30:02Z</time>
  <course>50.51</course>
  <speed>2.227913822390803</speed>
  <fix>3d</fix>
</trkpt>
<trkpt lat="40.0709922" lon="-105.2291275">
  <ele>1583.0</ele>
  <time>2026-08-29T19:30:02Z</time>
  <course>54.93</course>
  <speed>2.24</speed>
  <fix>3d</fix>
</trkpt>
<trkpt lat="40.0709951" lon="-105.2291224">
  <ele>1583.04</ele>
  <time>2026-08-29T19:30:02Z</time>
  <course>44.33</course>
  <speed>2.2068982758613958</speed>
  <fix>3d</fix>
</trkpt>
<trkpt lat="40.0709922" lon="-105.2291275">
  <ele>1583.0</ele>
  <time>2026-08-29T19:30:02Z</time>
  <course>54.93</course>
  <speed>2.24</speed>
  <fix>3d</fix>
</trkpt>
<trkpt lat="40.0709966" lon="-105.2291207">
  <ele>1583.04</ele>
  <time>2026-08-29T19:30:02Z</time>
  <course>37.06</course>
  <speed>2.176235281397671</speed>
  <fix>3d</fix>
</trkpt>
<trkpt lat="40.0709947" lon="-105.2291235">
  <ele>1583.0</ele>
  <time>2026-08-29T19:30:02Z</time>
  <course>44.1</course>
  <speed>2.21</speed>
  <fix>3d</fix>
</trkpt>
<trkpt lat="40.0709983" lon="-105.2291194">
  <ele>1583.04</ele>
  <time>2026-08-29T19:30:02Z</time>
  <course>28.77</course>
  <speed>2.147091055358389</speed>
  <fix>3d</fix>
</trkpt>
<trkpt lat="40.0709947" lon="-105.2291235">
  <ele>1583.0</ele>
  <time>2026-08-29T19:30:02Z</time>
  <course>44.1</course>
  <speed>2.21</speed>
  <fix>3d</fix>
</trkpt>
<trkpt lat="40.0710001" lon="-105.2291185">
  <ele>1583.04</ele>
  <time>2026-08-29T19:30:02Z</time>
  <course>20.97</course>
  <speed>2.1128653530218156</speed>
  <fix>3d</fix>
</trkpt>
<trkpt lat="40.0709978" lon="-105.2291204">
  <ele>1583.0</ele>
  <time>2026-08-29T19:30:02Z</time>
  <course>29.55</course>
  <speed>2.15</speed>
  <fix>3d</fix>
</trkpt>
<trkpt lat="40.071002" lon="-105.2291178">
  <ele>1583.04</ele>
  <time>2026-08-29T19:30:02Z</time>
  <course>14.26</course>
  <speed>2.081465829649865</speed>
  <fix>3d</fix>
</trkpt>
<trkpt lat="40.0709978" lon="-105.2291204">
  <ele>1583.0</ele>
  <time>2026-08-29T19:30:02Z</time>
  <course>29.55</course>
  <speed>2.15</speed>
  <fix>3d</fix>
</trkpt>
<trkpt lat="40.0710034" lon="-105.2291175">
  <ele>1583.04</ele>
  <time>2026-08-29T19:30:02Z</time>
  <course>9.67</course>
  <speed>2.060509645694482</speed>
  <fix>3d</fix>
</trkpt>
<trkpt lat="40.0710014" lon="-105.2291185">
  <ele>1583.0</ele>
  <time>2026-08-29T19:30:02Z</time>
  <course>15.09</course>
  <speed>2.09</speed>
  <fix>3d</fix>
</trkpt>
<trkpt lat="40.0710053" lon="-105.2291173">
  <ele>1583.05</ele>
  <time>2026-08-29T19:30:02Z</time>
  <course>4.92</course>
  <speed>2.0429635336931495</speed>
  <fix>3d</fix>
</trkpt>
<trkpt lat="40.0710014" lon="-105.2291185">
  <ele>1583.0</ele>
  <time>2026-08-29T19:30:02Z</time>
  <course>15.09</course>
  <speed>2.09</speed>
  <fix>3d</fix>
</trkpt>
<trkpt lat="40.0710072" lon="-105.2291173">
  <ele>1583.05</ele>
  <time>2026-08-29T19:30:02Z</time>
  <course>1.24</course>
  <speed>2.0400245096566856</speed>
  <fix>3d</fix>
</trkpt>
<trkpt lat="40.0710051" lon="-105.2291178">
  <ele>1583.0</ele>
  <time>2026-08-29T19:30:02Z</time>
  <course>4.48</course>
  <speed>2.05</speed>
  <fix>3d</fix>
</trkpt>
<trkpt lat="40.071009" lon="-105.2291175">
  <ele>1583.05</ele>
  <time>2026-08-29T19:30:02Z</time>
  <course>358.01</course>
  <speed>2.0241788458533008</speed>
  <fix>3d</fix>
</trkpt>
<trkpt lat="40.0710051" lon="-105.2291178">
  <ele>1583.0</ele>
  <time>2026-08-29T19:30:02Z</time>
  <course>4.48</course>
  <speed>2.05</speed>
  <fix>3d</fix>
</trkpt>
<trkpt lat="40.0710109" lon="-105.2291176">
  <ele>1583.05</ele>
  <time>2026-08-29T19:30:02Z</time>
  <course>354.89</course>
  <speed>2.0143485299222674</speed>
  <fix>3d</fix>
</trkpt>
<trkpt lat="40.0710088" lon="-105.2291177">
  <ele>1583.0</ele>
  <time>2026-08-29T19:30:02Z</time>
  <course>357.06</course>
  <speed>2.02</speed>
  <fix>3d</fix>
</trkpt>
<trkpt lat="40.0710127" lon="-105.229118">
  <ele>1583.05</ele>
  <time>2026-08-29T19:30:02Z</time>
  <course>351.97</course>
  <speed>2.008979840615629</speed>
  <fix>3d</fix>
</trkpt>
<trkpt lat="40.0710088" lon="-105.2291177">
  <ele>1583.0</ele>
  <time>2026-08-29T19:30:02Z</time>
  <course>357.06</course>
  <speed>2.02</speed>
  <fix>3d</fix>
</trkpt>
<trkpt lat="40.0710145" lon="-105.2291185">
  <ele>1583.05</ele>
  <time>2026-08-29T19:30:02Z</time>
  <course>349.24</course>
  <speed>1.9990247622278219</speed>
  <fix>3d</fix>
</trkpt>
<trkpt lat="40.0710124" lon="-105.2291181">
  <ele>1583.0</ele>
  <time>2026-08-29T19:30:02Z</time>
  <course>351.05</course>
  <speed>2.0</speed>
  <fix>3d</fix>
</trkpt>
<trkpt lat="40.0710163" lon="-105.2291191">
  <ele>1583.05</ele>
  <time>2026-08-29T19:30:02Z</time>
  <course>346.66</course>
  <speed>1.989170681465017</speed>
  <fix>3d</fix>
</trkpt>
<trkpt lat="40.0710124" lon="-105.2291181">
  <ele>1583.0</ele>
  <time>2026-08-29T19:30:02Z</time>
  <course>351.05</course>
  <speed>2.0</speed>
  <fix>3d</fix>
</trkpt>
<trkpt lat="40.071018" lon="-105.2291198">
  <ele>1583.05</ele>
  <time>2026-08-29T19:30:02Z</time>
  <course>344.28</course>
  <speed>1.9734234213670416</speed>
  <fix>3d</fix>
</trkpt>
<trkpt lat="40.0710159" lon="-105.229119">
  <ele>1583.0</ele>
  <time>2026-08-29T19:30:02Z</time>
  <course>345.75</course>
  <speed>1.97</speed>
  <fix>3d</fix>
</trkpt>
<trkpt lat="40.07102" lon="-105.2291207">
  <ele>1583.05</ele>
  <time>2026-08-29T19:30:02Z</time>
  <course>341.63</course>
  <speed>1.9616319736382766</speed>
  <fix>3d</fix>
</trkpt>
<trkpt lat="40.0710159" lon="-105.229119">
  <ele>1583.0</ele>
  <time>2026-08-29T19:30:02Z</time>
  <course>345.75</course>
  <speed>1.97</speed>
  <fix>3d</fix>
</trkpt>
<trkpt lat="40.0710217" lon="-105.2291216">
  <ele>1583.05</ele>
  <time>2026-08-29T19:30:02Z</time>
  <course>339.6</course>
  <speed>1.95</speed>
  <fix>3d</fix>
</trkpt>
<trkpt lat="40.0710192" lon="-105.2291204">
  <ele>1583.0</ele>
  <time>2026-08-29T19:30:02Z</time>
  <course>341.13</course>
  <speed>1.95</speed>
  <fix>3d</fix>
</trkpt>
<trkpt lat="40.0710233" lon="-105.2291225">
  <ele>1583.05</ele>
  <time>2026-08-29T19:30:02Z</time>
  <course>337.71</course>
  <speed>1.9423954283306992</speed>
  <fix>3d</fix>
</trkpt>
<trkpt lat="40.0710192" lon="-105.2291204">
  <ele>1583.0</ele>
  <time>2026-08-29T19:30:02Z</time>
  <course>341.13</course>
  <speed>1.95</speed>
  <fix>3d</fix>
</trkpt>
<trkpt lat="40.0710249" lon="-105.2291235">
  <ele>1583.05</ele>
  <time>2026-08-29T19:30:02Z</time>
  <course>335.96</course>
  <speed>1.9365174928205529</speed>
  <fix>3d</fix>
</trkpt>
<trkpt lat="40.0710225" lon="-105.229122">
  <ele>1583.0</ele>
  <time>2026-08-29T19:30:02Z</time>
  <course>337.14</course>
  <speed>1.93</speed>
  <fix>3d</fix>
</trkpt>
<trkpt lat="40.0710265" lon="-105.2291245">
  <ele>1583.06</ele>
  <time>2026-08-29T19:30:02Z</time>
  <course>334.35</course>
  <speed>1.93238194982255</speed>
  <fix>3d</fix>
</trkpt>
<trkpt lat="40.0710225" lon="-105.229122">
  <ele>1583.0</ele>
  <time>2026-08-29T19:30:02Z</time>
  <course>337.14</course>
  <speed>1.93</speed>
  <fix>3d</fix>
</trkpt>
<trkpt lat="40.071028" lon="-105.2291256">
  <ele>1583.06</ele>
  <time>2026-08-29T19:30:02Z</time>
  <course>332.85</course>
  <speed>1.9250974001333023</speed>
  <fix>3d</fix>
</trkpt>
<trkpt lat="40.0710256" lon="-105.2291238">
  <ele>1583.0</ele>
  <time>2026-08-29T19:30:02Z</time>
  <course>333.7</course>
  <speed>1.92</speed>
  <fix>3d</fix>
</trkpt>
<trkpt lat="40.0710295" lon="-105.2291267">
  <ele>1583.06</ele>
  <time>2026-08-29T19:30:02Z</time>
  <course>331.48</course>
  <speed>1.919088325221119</speed>
  <fix>3d</fix>
</trkpt>
<trkpt lat="40.0710256" lon="-105.2291238">
  <ele>1583.0</ele>
  <time>2026-08-29T19:30:02Z</time>
  <course>333.7</course>
  <speed>1.92</speed>
  <fix>3d</fix>
</trkpt>
<trkpt lat="40.0710309" lon="-105.2291279">
  <ele>1583.06</ele>
  <time>2026-08-29T19:30:02Z</time>
  <course>330.21</course>
  <speed>1.9175505208468433</speed>
  <fix>3d</fix>
</trkpt>
<trkpt lat="40.0710287" lon="-105.229126">
  <ele>1583.0</ele>
  <time>2026-08-29T19:30:02Z</time>
  <course>330.77</course>
  <speed>1.91</speed>
  <fix>3d</fix>
</trkpt>
<trkpt lat="40.0710324" lon="-105.229129">
  <ele>1583.06</ele>
  <time>2026-08-29T19:30:02Z</time>
  <course>329.06</course>
  <speed>1.9082976707002501</speed>
  <fix>3d</fix>
</trkpt>
<trkpt lat="40.0710287" lon="-105.229126">
  <ele>1583.0</ele>
  <time>2026-08-29T19:30:02Z</time>
  <course>330.77</course>
  <speed>1.91</speed>
  <fix>3d</fix>
</trkpt>
<trkpt lat="40.0710338" lon="-105.2291303">
  <ele>1583.06</ele>
  <time>2026-08-29T19:30:02Z</time>
  <course>328.0</course>
  <speed>1.908219064992277</speed>
  <fix>3d</fix>
</trkpt>
<trkpt lat="40.0710316" lon="-105.2291283">
  <ele>1583.0</ele>
  <time>2026-08-29T19:30:02Z</time>
  <course>328.3</course>
  <speed>1.9</speed>
  <fix>3d</fix>
</trkpt>
<trkpt lat="40.0710352" lon="-105.2291315">
  <ele>1583.06</ele>
  <time>2026-08-29T19:30:02Z</time>
  <course>327.04</course>
  <speed>1.9030764566879597</speed>
  <fix>3d</fix>
</trkpt>
<trkpt lat="40.0710316" lon="-105.2291283">
  <ele>1583.0</ele>
  <time>2026-08-29T19:30:02Z</time>
  <course>328.3</course>
  <speed>1.9</speed>
  <fix>3d</fix>
</trkpt>
<trkpt lat="40.0710363" lon="-105.2291325">
  <ele>1583.06</ele>
  <time>2026-08-29T19:30:02Z</time>
  <course>326.32</course>
  <speed>1.898341381311591</speed>
  <fix>3d</fix>
</trkpt>
<trkpt lat="40.0710346" lon="-105.2291307">
  <ele>1583.0</ele>
  <time>2026-08-29T19:30:02Z</time>
  <course>326.24</course>
  <speed>1.9</speed>
  <fix>3d</fix>
</trkpt>
<trkpt lat="40.0710377" lon="-105.2291338">
  <ele>1583.07</ele>
  <time>2026-08-29T19:30:02Z</time>
  <course>325.52</course>
  <speed>1.9020515240129539</speed>
  <fix>3d</fix>
</trkpt>
<trkpt lat="40.0710346" lon="-105.2291307">
  <ele>1583.0</ele>
  <time>2026-08-29T19:30:02Z</time>
  <course>326.24</course>
  <speed>1.9</speed>
  <fix>3d</fix>
</trkpt>
<trkpt lat="40.0710391" lon="-105.2291351">
  <ele>1583.07</ele>
  <time>2026-08-29T19:30:02Z</time>
  <course>324.79</course>
  <speed>1.89805163259591</speed>
  <fix>3d</fix>
</trkpt>
<trkpt lat="40.0710373" lon="-105.2291333">
  <ele>1583.0</ele>
  <time>2026-08-29T19:30:02Z</time>
  <course>324.53</course>
  <speed>1.9</speed>
  <fix>3d</fix>
</trkpt>
<trkpt lat="40.0710404" lon="-105.2291365">
  <ele>1583.07</ele>
  <time>2026-08-29T19:30:02Z</time>
  <course>324.14</course>
  <speed>1.9023406634985227</speed>
  <fix>3d</fix>
</trkpt>
<trkpt lat="40.0710373" lon="-105.2291333">
  <ele>1583.0</ele>
  <time>2026-08-29T19:30:02Z</time>
  <course>324.53</course>
  <speed>1.9</speed>
  <fix>3d</fix>
</trkpt>
<trkpt lat="40.0710418" lon="-105.2291378">
  <ele>1583.07</ele>
  <time>2026-08-29T19:30:02Z</time>
  <course>323.55</course>
  <speed>1.9068822721919674</speed>
  <fix>3d</fix>
</trkpt>
<trkpt lat="40.0710401" lon="-105.2291359">
  <ele>1583.0</ele>
  <time>2026-08-29T19:30:02Z</time>
  <course>323.14</course>
  <speed>1.9</speed>
  <fix>3d</fix>
</trkpt>
<trkpt lat="40.0710431" lon="-105.2291392">
  <ele>1583.07</ele>
  <time>2026-08-29T19:30:02Z</time>
  <course>323.03</course>
  <speed>1.9131387822110555</speed>
  <fix>3d</fix>
</trkpt>
<trkpt lat="40.0710401" lon="-105.2291359">
  <ele>1583.0</ele>
  <time>2026-08-29T19:30:02Z</time>
  <course>323.14</course>
  <speed>1.9</speed>
  <fix>3d</fix>
</trkpt>
<trkpt lat="40.0710445" lon="-105.2291406">
  <ele>1583.06</ele>
  <time>2026-08-29T19:30:02Z</time>
  <course>322.57</course>
  <speed>1.9180198122021577</speed>
  <fix>3d</fix>
</trkpt>
<trkpt lat="40.0710428" lon="-105.2291386">
  <ele>1583.0</ele>
  <time>2026-08-29T19:30:02Z</time>
  <course>322.02</course>
  <speed>1.91</speed>
  <fix>3d</fix>
</trkpt>
<trkpt lat="40.0710458" lon="-105.229142">
  <ele>1583.06</ele>
  <time>2026-08-29T19:30:02Z</time>
  <course>322.16</course>
  <speed>1.9243960091415695</speed>
  <fix>3d</fix>
</trkpt>
<trkpt lat="40.0710428" lon="-105.2291386">
  <ele>1583.0</ele>
  <time>2026-08-29T19:30:02Z</time>
  <course>322.02</course>
  <speed>1.91</speed>
  <fix>3d</fix>
</trkpt>
<trkpt lat="40.0710472" lon="-105.2291435">
  <ele>1583.06</ele>
  <time>2026-08-29T19:30:02Z</time>
  <course>321.8</course>
  <speed>1.9231484602078956</speed>
  <fix>3d</fix>
</trkpt>
<trkpt lat="40.0710455" lon="-105.2291414">
  <ele>1583.0</ele>
  <time>2026-08-29T19:30:02Z</time>
  <course>321.14</course>
  <speed>1.93</speed>
  <fix>3d</fix>
</trkpt>
<trkpt lat="40.0710485" lon="-105.229145">
  <ele>1583.06</ele>
  <time>2026-08-29T19:30:02Z</time>
  <course>321.49</course>
  <speed>1.9296113598338913</speed>
  <fix>3d</fix>
</trkpt>
<trkpt lat="40.0710455" lon="-105.2291414">
  <ele>1583.0</ele>
  <time>2026-08-29T19:30:02Z</time>
  <course>321.14</course>
  <speed>1.93</speed>
  <fix>3d</fix>
</trkpt>
<trkpt lat="40.0710501" lon="-105.2291467">
  <ele>1583.05</ele>
  <time>2026-08-29T19:30:02Z</time>
  <course>321.17</course>
  <speed>1.9361043360315062</speed>
  <fix>3d</fix>
</trkpt>
<trkpt lat="40.0710482" lon="-105.2291443">
  <ele>1583.0</ele>
  <time>2026-08-29T19:30:02Z</time>
  <course>320.46</course>
  <speed>1.94</speed>
  <fix>3d</fix>
</trkpt>
<trkpt lat="40.0710515" lon="-105.2291482">
  <ele>1583.05</ele>
  <time>2026-08-29T19:30:02Z</time>
  <course>320.95</course>
  <speed>1.9426270872197782</speed>
  <fix>3d</fix>
</trkpt>
<trkpt lat="40.0710482" lon="-105.2291443">
  <ele>1583.0</ele>
  <time>2026-08-29T19:30:02Z</time>
  <course>320.46</course>
  <speed>1.94</speed>
  <fix>3d</fix>
</trkpt>
<trkpt lat="40.0710528" lon="-105.2291497">
  <ele>1583.05</ele>
  <time>2026-08-29T19:30:02Z</time>
  <course>320.76</course>
  <speed>1.9491793144808407</speed>
  <fix>3d</fix>
</trkpt>
<trkpt lat="40.0710509" lon="-105.2291472">
  <ele>1583.0</ele>
  <time>2026-08-29T19:30:02Z</time>
  <course>319.95</course>
  <speed>1.95</speed>
  <fix>3d</fix>
</trkpt>
<trkpt lat="40.0710542" lon="-105.2291512">
  <ele>1583.05</ele>
  <time>2026-08-29T19:30:02Z</time>
  <course>320.61</course>
  <speed>1.9491793144808407</speed>
  <fix>3d</fix>
</trkpt>
<trkpt lat="40.0710509" lon="-105.2291472">
  <ele>1583.0</ele>
  <time>2026-08-29T19:30:02Z</time>
  <course>319.95</course>
  <speed>1.95</speed>
  <fix>3d</fix>
</trkpt>
<trkpt lat="40.0710555" lon="-105.2291527">
  <ele>1583.04</ele>
  <time>2026-08-29T19:30:02Z</time>
  <course>320.49</course>
  <speed>1.9632880583347927</speed>
  <fix>3d</fix>
</trkpt>
<trkpt lat="40.0710536" lon="-105.2291502">
  <ele>1583.0</ele>
  <time>2026-08-29T19:30:02Z</time>
  <course>319.59</course>
  <speed>1.97</speed>
  <fix>3d</fix>
</trkpt>
<trkpt lat="40.0710569" lon="-105.2291542">
  <ele>1583.04</ele>
  <time>2026-08-29T19:30:02Z</time>
  <course>320.39</course>
  <speed>1.9632880583347927</speed>
  <fix>3d</fix>
</trkpt>
<trkpt lat="40.0710536" lon="-105.2291502">
  <ele>1583.0</ele>
  <time>2026-08-29T19:30:02Z</time>
  <course>319.59</course>
  <speed>1.97</speed>
  <fix>3d</fix>
</trkpt>
<trkpt lat="40.0710582" lon="-105.2291557">
  <ele>1583.05</ele>
  <time>2026-08-29T19:30:02Z</time>
  <course>320.31</course>
  <speed>1.9698730923589978</speed>
  <fix>3d</fix>
</trkpt>
<trkpt lat="40.0710563" lon="-105.2291532">
  <ele>1583.0</ele>
  <time>2026-08-29T19:30:02Z</time>
  <course>319.36</course>
  <speed>1.98</speed>
  <fix>3d</fix>
</trkpt>
<trkpt lat="40.0710595" lon="-105.2291572">
  <ele>1583.05</ele>
  <time>2026-08-29T19:30:02Z</time>
  <course>320.26</course>
  <speed>1.9698730923589978</speed>
  <fix>3d</fix>
</trkpt>
<trkpt lat="40.0710563" lon="-105.2291532">
  <ele>1583.0</ele>
  <time>2026-08-29T19:30:02Z</time>
  <course>319.36</course>
  <speed>1.98</speed>
  <fix>3d</fix>
</trkpt>
<trkpt lat="40.0710609" lon="-105.2291587">
  <ele>1583.05</ele>
  <time>2026-08-29T19:30:02Z</time>
  <course>320.23</course>
  <speed>1.9698730923589978</speed>
  <fix>3d</fix>
</trkpt>
<trkpt lat="40.071059" lon="-105.2291563">
  <ele>1583.0</ele>
  <time>2026-08-29T19:30:02Z</time>
  <course>319.22</course>
  <speed>1.99</speed>
  <fix>3d</fix>
</trkpt>
<trkpt lat="40.0710622" lon="-105.2291602">
  <ele>1583.05</ele>
  <time>2026-08-29T19:30:02Z</time>
  <course>320.22</course>
  <speed>1.9773972792537162</speed>
  <fix>3d</fix>
</trkpt>
<trkpt lat="40.071059" lon="-105.2291563">
  <ele>1583.0</ele>
  <time>2026-08-29T19:30:02Z</time>
  <course>319.22</course>
  <speed>1.99</speed>
  <fix>3d</fix>
</trkpt>
<trkpt lat="40.0710636" lon="-105.2291617">
  <ele>1583.05</ele>
  <time>2026-08-29T19:30:02Z</time>
  <course>320.22</course>
  <speed>1.9773972792537162</speed>
  <fix>3d</fix>
</trkpt>
<trkpt lat="40.0710617" lon="-105.2291593">
  <ele>1583.0</ele>
  <time>2026-08-29T19:30:02Z</time>
  <course>319.17</course>
  <speed>2.0</speed>
  <fix>3d</fix>
</trkpt>
<trkpt lat="40.0710647" lon="-105.2291629">
  <ele>1583.05</ele>
  <time>2026-08-29T19:30:02Z</time>
  <course>320.22</course>
  <speed>1.9773972792537162</speed>
  <fix>3d</fix>
</trkpt>
<trkpt lat="40.0710617" lon="-105.2291593">
  <ele>1583.0</ele>
  <time>2026-08-29T19:30:02Z</time>
  <course>319.17</course>
  <speed>2.0</speed>
  <fix>3d</fix>
</trkpt>
<trkpt lat="40.071066" lon="-105.2291644">
  <ele>1583.05</ele>
  <time>2026-08-29T19:30:02Z</time>
  <course>320.23</course>
  <speed>1.9773972792537162</speed>
  <fix>3d</fix>
</trkpt>
<trkpt lat="40.0710645" lon="-105.2291624">
  <ele>1583.0</ele>
  <time>2026-08-29T19:30:02Z</time>
  <course>319.17</course>
  <speed>2.01</speed>
  <fix>3d</fix>
</trkpt>
<trkpt lat="40.0710674" lon="-105.2291659">
  <ele>1583.05</ele>
  <time>2026-08-29T19:30:02Z</time>
  <course>320.26</course>
  <speed>1.9849433241279208</speed>
  <fix>3d</fix>
</trkpt>
<trkpt lat="40.0710645" lon="-105.2291624">
  <ele>1583.0</ele>
  <time>2026-08-29T19:30:02Z</time>
  <course>319.17</course>
  <speed>2.01</speed>
  <fix>3d</fix>
</trkpt>
<trkpt lat="40.0710687" lon="-105.2291674">
  <ele>1583.05</ele>
  <time>2026-08-29T19:30:02Z</time>
  <course>320.3</course>
  <speed>1.9849433241279208</speed>
  <fix>3d</fix>
</trkpt>
<trkpt lat="40.0710672" lon="-105.2291655">
  <ele>1583.0</ele>
  <time>2026-08-29T19:30:02Z</time>
  <course>319.21</course>
  <speed>2.01</speed>
  <fix>3d</fix>
</trkpt>
<trkpt lat="40.0710701" lon="-105.229169">
  <ele>1583.04</ele>
  <time>2026-08-29T19:30:02Z</time>
  <course>320.36</course>
  <speed>1.9849433241279208</speed>
  <fix>3d</fix>
</trkpt>
<trkpt lat="40.0710672" lon="-105.2291655">
  <ele>1583.0</ele>
  <time>2026-08-29T19:30:02Z</time>
  <course>319.21</course>
  <speed>2.01</speed>
  <fix>3d</fix>
</trkpt>
<trkpt lat="40.0710715" lon="-105.2291705">
  <ele>1583.04</ele>
  <time>2026-08-29T19:30:02Z</time>
  <course>320.42</course>
  <speed>1.98600100704909</speed>
  <fix>3d</fix>
</trkpt>
<trkpt lat="40.07107" lon="-105.2291686">
  <ele>1583.0</ele>
  <time>2026-08-29T19:30:02Z</time>
  <course>319.31</course>
  <speed>2.02</speed>
  <fix>3d</fix>
</trkpt>
<trkpt lat="40.0710729" lon="-105.229172">
  <ele>1583.04</ele>
  <time>2026-08-29T19:30:02Z</time>
  <course>320.5</course>
  <speed>1.98600100704909</speed>
  <fix>3d</fix>
</trkpt>
<trkpt lat="40.07107" lon="-105.2291686">
  <ele>1583.0</ele>
  <time>2026-08-29T19:30:02Z</time>
  <course>319.31</course>
  <speed>2.02</speed>
  <fix>3d</fix>
</trkpt>
<trkpt lat="40.0710743" lon="-105.2291736">
  <ele>1583.04</ele>
  <time>2026-08-29T19:30:02Z</time>
  <course>320.58</course>
  <speed>1.9936148073286373</speed>
  <fix>3d</fix>
</trkpt>
<trkpt lat="40.0710727" lon="-105.2291717">
  <ele>1583.0</ele>
  <time>2026-08-29T19:30:02Z</time>
  <course>319.45</course>
  <speed>2.02</speed>
  <fix>3d</fix>
</trkpt>
<trkpt lat="40.0710757" lon="-105.2291751">
  <ele>1583.05</ele>
  <time>2026-08-29T19:30:02Z</time>
  <course>320.67</course>
  <speed>1.9936148073286373</speed>
  <fix>3d</fix>
</trkpt>
<trkpt lat="40.0710727" lon="-105.2291717">
  <ele>1583.0</ele>
  <time>2026-08-29T19:30:02Z</time>
  <course>319.45</course>
  <speed>2.02</speed>
  <fix>3d</fix>
</trkpt>
<trkpt lat="40.0710771" lon="-105.2291767">
  <ele>1583.05</ele>
  <time>2026-08-29T19:30:02Z</time>
  <course>320.78</course>
  <speed>1.9871587757398754</speed>
  <fix>3d</fix>
</trkpt>
<trkpt lat="40.0710756" lon="-105.2291748">
  <ele>1583.0</ele>
  <time>2026-08-29T19:30:02Z</time>
  <course>319.63</course>
  <speed>2.03</speed>
  <fix>3d</fix>
</trkpt>
<trkpt lat="40.0710788" lon="-105.2291785">
  <ele>1583.05</ele>
  <time>2026-08-29T19:30:02Z</time>
  <course>320.92</course>
  <speed>1.9948182874637979</speed>
  <fix>3d</fix>
</trkpt>
<trkpt lat="40.0710756" lon="-105.2291748">
  <ele>1583.0</ele>
  <time>2026-08-29T19:30:02Z</time>
  <course>319.63</course>
  <speed>2.03</speed>
  <fix>3d</fix>
</trkpt>
<trkpt lat="40.0710802" lon="-105.22918">
  <ele>1583.05</ele>
  <time>2026-08-29T19:30:02Z</time>
  <course>321.03</course>
  <speed>1.9948182874637979</speed>
  <fix>3d</fix>
</trkpt>
<trkpt lat="40.0710784" lon="-105.2291779">
  <ele>1583.0</ele>
  <time>2026-08-29T19:30:02Z</time>
  <course>319.84</course>
  <speed>2.03</speed>
  <fix>3d</fix>
</trkpt>
<trkpt lat="40.0710816" lon="-105.2291816">
  <ele>1583.05</ele>
  <time>2026-08-29T19:30:02Z</time>
  <course>321.13</course>
  <speed>1.996121238802894</speed>
  <fix>3d</fix>
</trkpt>
<trkpt lat="40.0710784" lon="-105.2291779">
  <ele>1583.0</ele>
  <time>2026-08-29T19:30:02Z</time>
  <course>319.84</course>
  <speed>2.03</speed>
  <fix>3d</fix>
</trkpt>
<trkpt lat="40.0710831" lon="-105.2291831">
  <ele>1583.05</ele>
  <time>2026-08-29T19:30:02Z</time>
  <course>321.26</course>
  <speed>1.996121238802894</speed>
  <fix>3d</fix>
</trkpt>
<trkpt lat="40.0710811" lon="-105.229181">
  <ele>1583.0</ele>
  <time>2026-08-29T19:30:02Z</time>
  <course>320.07</course>
  <speed>2.03</speed>
  <fix>3d</fix>
</trkpt>
<trkpt lat="40.0710845" lon="-105.2291846">
  <ele>1583.05</ele>
  <time>2026-08-29T19:30:02Z</time>
  <course>321.4</course>
  <speed>2.0038463014912096</speed>
  <fix>3d</fix>
</trkpt>
<trkpt lat="40.0710811" lon="-105.229181">
  <ele>1583.0</ele>
  <time>2026-08-29T19:30:02Z</time>
  <course>320.07</course>
  <speed>2.03</speed>
  <fix>3d</fix>
</trkpt>
<trkpt lat="40.0710859" lon="-105.2291861">
  <ele>1583.06</ele>
  <time>2026-08-29T19:30:02Z</time>
  <course>321.54</course>
  <speed>1.9975234666956982</speed>
  <fix>3d</fix>
</trkpt>
<trkpt lat="40.071084" lon="-105.229184">
  <ele>1583.0</ele>
  <time>2026-08-29T19:30:02Z</time>
  <course>320.33</course>
  <speed>2.03</speed>
  <fix>3d</fix>
</trkpt>
<trkpt lat="40.0710873" lon="-105.2291876">
  <ele>1583.06</ele>
  <time>2026-08-29T19:30:02Z</time>
  <course>321.68</course>
  <speed>1.9975234666956982</speed>
  <fix>3d</fix>
</trkpt>
<trkpt lat="40.071084" lon="-105.229184">
  <ele>1583.0</ele>
  <time>2026-08-29T19:30:02Z</time>
  <course>320.33</course>
  <speed>2.03</speed>
  <fix>3d</fix>
</trkpt>
<trkpt lat="40.0710887" lon="-105.2291891">
  <ele>1583.06</ele>
  <time>2026-08-29T19:30:02Z</time>
  <course>321.81</course>
  <speed>1.9990247622278219</speed>
  <fix>3d</fix>
</trkpt>
<trkpt lat="40.0710868" lon="-105.229187">
  <ele>1583.0</ele>
  <time>2026-08-29T19:30:02Z</time>
  <course>320.61</course>
  <speed>2.03</speed>
  <fix>3d</fix>
</trkpt>
<trkpt lat="40.0710902" lon="-105.2291906">
  <ele>1583.06</ele>
  <time>2026-08-29T19:30:02Z</time>
  <course>321.95</course>
  <speed>1.992786993132984</speed>
  <fix>3d</fix>
</trkpt>
<trkpt lat="40.0710868" lon="-105.229187">
  <ele>1583.0</ele>
  <time>2026-08-29T19:30:02Z</time>
  <course>320.61</course>
  <speed>2.03</speed>
  <fix>3d</fix>
</trkpt>
<trkpt lat="40.0710916" lon="-105.2291921">
  <ele>1583.06</ele>
  <time>2026-08-29T19:30:02Z</time>
  <course>322.09</course>
  <speed>1.992786993132984</speed>
  <fix>3d</fix>
</trkpt>
<trkpt lat="40.0710896" lon="-105.2291901">
  <ele>1583.0</ele>
  <time>2026-08-29T19:30:02Z</time>
  <course>320.88</course>
  <speed>2.03</speed>
  <fix>3d</fix>
</trkpt>
<trkpt lat="40.071093" lon="-105.2291935">
  <ele>1583.06</ele>
  <time>2026-08-29T19:30:02Z</time>
  <course>322.23</course>
  <speed>1.9865799757371965</speed>
  <fix>3d</fix>
</trkpt>
<trkpt lat="40.0710896" lon="-105.2291901">
  <ele>1583.0</ele>
  <time>2026-08-29T19:30:02Z</time>
  <course>320.88</course>
  <speed>2.03</speed>
  <fix>3d</fix>
</trkpt>
<trkpt lat="40.0710941" lon="-105.2291947">
  <ele>1583.06</ele>
  <time>2026-08-29T19:30:02Z</time>
  <course>322.34</course>
  <speed>1.9944422779313518</speed>
  <fix>3d</fix>
</trkpt>
<trkpt lat="40.0710925" lon="-105.2291931">
  <ele>1583.0</ele>
  <time>2026-08-29T19:30:02Z</time>
  <course>321.16</course>
  <speed>2.03</speed>
  <fix>3d</fix>
</trkpt>
<trkpt lat="40.0710956" lon="-105.2291962">
  <ele>1583.06</ele>
  <time>2026-08-29T19:30:02Z</time>
  <course>322.47</course>
  <speed>1.9882907232092595</speed>
  <fix>3d</fix>
</trkpt>
<trkpt lat="40.0710925" lon="-105.2291931">
  <ele>1583.0</ele>
  <time>2026-08-29T19:30:02Z</time>
  <course>321.16</course>
  <speed>2.03</speed>
  <fix>3d</fix>
</trkpt>
<trkpt lat="40.071097" lon="-105.2291977">
  <ele>1583.06</ele>
  <time>2026-08-29T19:30:02Z</time>
  <course>322.61</course>
  <speed>1.9882907232092595</speed>
  <fix>3d</fix>
</trkpt>
<trkpt lat="40.0710953" lon="-105.2291961">
  <ele>1583.0</ele>
  <time>2026-08-29T19:30:02Z</time>
  <course>321.43</course>
  <speed>2.03</speed>
  <fix>3d</fix>
</trkpt>
<trkpt lat="40.0710984" lon="-105.2291991">
  <ele>1583.06</ele>
  <time>2026-08-29T19:30:02Z</time>
  <course>322.74</course>
  <speed>1.9901004999748126</speed>
  <fix>3d</fix>
</trkpt>
<trkpt lat="40.0710953" lon="-105.2291961">
  <ele>1583.0</ele>
  <time>2026-08-29T19:30:02Z</time>
  <course>321.43</course>
  <speed>2.03</speed>
  <fix>3d</fix>
</trkpt>
<trkpt lat="40.0710999" lon="-105.2292006">
  <ele>1583.07</ele>
  <time>2026-08-29T19:30:02Z</time>
  <course>322.88</course>
  <speed>1.9901004999748126</speed>
  <fix>3d</fix>
</trkpt>
<trkpt lat="40.0710981" lon="-105.229199">
  <ele>1583.0</ele>
  <time>2026-08-29T19:30:02Z</time>
  <course>321.71</course>
  <speed>2.03</speed>
  <fix>3d</fix>
</trkpt>
<trkpt lat="40.0711013" lon="-105.2292021">
  <ele>1583.07</ele>
  <time>2026-08-29T19:30:02Z</time>
  <course>323.02</course>
  <speed>1.9901004999748126</speed>
  <fix>3d</fix>
</trkpt>
<trkpt lat="40.0710981" lon="-105.229199">
  <ele>1583.0</ele>
  <time>2026-08-29T19:30:02Z</time>
  <course>321.71</course>
  <speed>2.03</speed>
  <fix>3d</fix>
</trkpt>
<trkpt lat="40.0711028" lon="-105.2292035">
  <ele>1583.07</ele>
  <time>2026-08-29T19:30:02Z</time>
  <course>323.16</course>
  <speed>1.9840362899906847</speed>
  <fix>3d</fix>
</trkpt>
<trkpt lat="40.071101" lon="-105.229202">
  <ele>1583.0</ele>
  <time>2026-08-29T19:30:02Z</time>
  <course>321.99</course>
  <speed>2.02</speed>
  <fix>3d</fix>
</trkpt>
<trkpt lat="40.0711042" lon="-105.229205">
  <ele>1583.07</ele>
  <time>2026-08-29T19:30:02Z</time>
  <course>323.31</course>
  <speed>1.9920090361240836</speed>
  <fix>3d</fix>
</trkpt>
<trkpt lat="40.071101" lon="-105.229202">
  <ele>1583.0</ele>
  <time>2026-08-29T19:30:02Z</time>
  <course>321.99</course>
  <speed>2.02</speed>
  <fix>3d</fix>
</trkpt>
<trkpt lat="40.0711057" lon="-105.2292064">
  <ele>1583.07</ele>
  <time>2026-08-29T19:30:02Z</time>
  <course>323.45</course>
  <speed>1.98600100704909</speed>
  <fix>3d</fix>
</trkpt>
<trkpt lat="40.0711039" lon="-105.2292049">
  <ele>1583.0</ele>
  <time>2026-08-29T19:30:02Z</time>
  <course>322.28</course>
  <speed>2.02</speed>
  <fix>3d</fix>
</trkpt>
<trkpt lat="40.0711071" lon="-105.2292079">
  <ele>1583.07</ele>
  <time>2026-08-29T19:30:02Z</time>
  <course>323.61</course>
  <speed>1.98600100704909</speed>
  <fix>3d</fix>
</trkpt>
<trkpt lat="40.0711039" lon="-105.2292049">
  <ele>1583.0</ele>
  <time>2026-08-29T19:30:02Z</time>
  <course>322.28</course>
  <speed>2.02</speed>
  <fix>3d</fix>
</trkpt>
<trkpt lat="40.0711089" lon="-105.2292096">
  <ele>1583.07</ele>
  <time>2026-08-29T19:30:02Z</time>
  <course>323.78</course>
  <speed>1.9880643852752857</speed>
  <fix>3d</fix>
</trkpt>
<trkpt lat="40.0711067" lon="-105.2292078">
  <ele>1583.0</ele>
  <time>2026-08-29T19:30:02Z</time>
  <course>322.57</course>
  <speed>2.02</speed>
  <fix>3d</fix>
</trkpt>
<trkpt lat="40.0711103" lon="-105.2292111">
  <ele>1583.06</ele>
  <time>2026-08-29T19:30:02Z</time>
  <course>323.92</course>
  <speed>1.9880643852752857</speed>
  <fix>3d</fix>
</trkpt>
<trkpt lat="40.0711067" lon="-105.2292078">
  <ele>1583.0</ele>
  <time>2026-08-29T19:30:02Z</time>
  <course>322.57</course>
  <speed>2.02</speed>
  <fix>3d</fix>
</trkpt>
<trkpt lat="40.0711118" lon="-105.2292125">
  <ele>1583.06</ele>
  <time>2026-08-29T19:30:02Z</time>
  <course>324.07</course>
  <speed>1.982145302443794</speed>
  <fix>3d</fix>
</trkpt>
<trkpt lat="40.0711096" lon="-105.2292107">
  <ele>1583.0</ele>
  <time>2026-08-29T19:30:02Z</time>
  <course>322.87</course>
  <speed>2.01</speed>
  <fix>3d</fix>
</trkpt>
<trkpt lat="40.0711132" lon="-105.2292139">
  <ele>1583.06</ele>
  <time>2026-08-29T19:30:02Z</time>
  <course>324.21</course>
  <speed>1.982145302443794</speed>
  <fix>3d</fix>
</trkpt>
<trkpt lat="40.0711096" lon="-105.2292107">
  <ele>1583.0</ele>
  <time>2026-08-29T19:30:02Z</time>
  <course>322.87</course>
  <speed>2.01</speed>
  <fix>3d</fix>
</trkpt>
<trkpt lat="40.0711147" lon="-105.2292153">
  <ele>1583.06</ele>
  <time>2026-08-29T19:30:02Z</time>
  <course>324.36</course>
  <speed>1.9762590923257</speed>
  <fix>3d</fix>
</trkpt>
<trkpt lat="40.0711125" lon="-105.2292136">
  <ele>1583.0</ele>
  <time>2026-08-29T19:30:02Z</time>
  <course>323.16</course>
  <speed>2.01</speed>
  <fix>3d</fix>
</trkpt>
<trkpt lat="40.0711161" lon="-105.2292167">
  <ele>1583.06</ele>
  <time>2026-08-29T19:30:03Z</time>
  <course>324.5</course>
  <speed>1.9704060495238032</speed>
  <fix>3d</fix>
</trkpt>
<trkpt lat="40.0711125" lon="-105.2292136">
  <ele>1583.0</ele>
  <time>2026-08-29T19:30:03Z</time>
  <course>323.16</course>
  <speed>2.01</speed>
  <fix>3d</fix>
</trkpt>
<trkpt lat="40.0711176" lon="-105.2292181">
  <ele>1583.06</ele>
  <time>2026-08-29T19:30:03Z</time>
  <course>324.64</course>
  <speed>1.978534811419804</speed>
  <fix>3d</fix>
</trkpt>
<trkpt lat="40.0711154" lon="-105.2292164">
  <ele>1583.0</ele>
  <time>2026-08-29T19:30:03Z</time>
  <course>323.45</course>
  <speed>2.01</speed>
  <fix>3d</fix>
</trkpt>
<trkpt lat="40.071119" lon="-105.2292195">
  <ele>1583.06</ele>
  <time>2026-08-29T19:30:03Z</time>
  <course>324.78</course>
  <speed>1.9727392123643712</speed>
  <fix>3d</fix>
</trkpt>
<trkpt lat="40.0711154" lon="-105.2292164">
  <ele>1583.0</ele>
  <time>2026-08-29T19:30:03Z</time>
  <course>323.45</course>
  <speed>2.01</speed>
  <fix>3d</fix>
</trkpt>
<trkpt lat="40.0711204" lon="-105.2292209">
  <ele>1583.06</ele>
  <time>2026-08-29T19:30:03Z</time>
  <course>324.93</course>
  <speed>1.9727392123643712</speed>
  <fix>3d</fix>
</trkpt>
<trkpt lat="40.0711184" lon="-105.2292191">
  <ele>1583.0</ele>
  <time>2026-08-29T19:30:03Z</time>
  <course>323.73</course>
  <speed>2.0</speed>
  <fix>3d</fix>
</trkpt>
<trkpt lat="40.0711219" lon="-105.2292222">
  <ele>1583.06</ele>
  <time>2026-08-29T19:30:03Z</time>
  <course>325.06</course>
  <speed>1.9669773765857095</speed>
  <fix>3d</fix>
</trkpt>
<trkpt lat="40.0711184" lon="-105.2292191">
  <ele>1583.0</ele>
  <time>2026-08-29T19:30:03Z</time>
  <course>323.73</course>
  <speed>2.0</speed>
  <fix>3d</fix>
</trkpt>
<trkpt lat="40.0711233" lon="-105.2292236">
  <ele>1583.06</ele>
  <time>2026-08-29T19:30:03Z</time>
  <course>325.14</course>
  <speed>1.9669773765857095</speed>
  <fix>3d</fix>
</trkpt>
<trkpt lat="40.0711213" lon="-105.2292219">
  <ele>1583.0</ele>
  <time>2026-08-29T19:30:03Z</time>
  <course>323.99</course>
  <speed>2.0</speed>
  <fix>3d</fix>
</trkpt>
<trkpt lat="40.0711245" lon="-105.2292247">
  <ele>1583.07</ele>
  <time>2026-08-29T19:30:03Z</time>
  <course>325.16</course>
  <speed>1.9669773765857095</speed>
  <fix>3d</fix>
</trkpt>
<trkpt lat="40.0711213" lon="-105.2292219">
  <ele>1583.0</ele>
  <time>2026-08-29T19:30:03Z</time>
  <course>323.99</course>
  <speed>2.0</speed>
  <fix>3d</fix>
</trkpt>
<trkpt lat="40.0711259" lon="-105.229226">
  <ele>1583.07</ele>
  <time>2026-08-29T19:30:03Z</time>
  <course>325.12</course>
  <speed>1.9588006534611937</speed>
  <fix>3d</fix>
</trkpt>
<trkpt lat="40.0711242" lon="-105.2292247">
  <ele>1583.0</ele>
  <time>2026-08-29T19:30:03Z</time>
  <course>324.1</course>
  <speed>2.0</speed>
  <fix>3d</fix>
</trkpt>
<trkpt lat="40.0711274" lon="-105.2292274">
  <ele>1583.07</ele>
  <time>2026-08-29T19:30:03Z</time>
  <course>325.0</course>
  <speed>1.9588006534611937</speed>
  <fix>3d</fix>
</trkpt>
<trkpt lat="40.0711242" lon="-105.2292247">
  <ele>1583.0</ele>
  <time>2026-08-29T19:30:03Z</time>
  <course>324.1</course>
  <speed>2.0</speed>
  <fix>3d</fix>
</trkpt>
<trkpt lat="40.0711288" lon="-105.2292288">
  <ele>1583.07</ele>
  <time>2026-08-29T19:30:03Z</time>
  <course>324.81</course>
  <speed>1.9645864704817653</speed>
  <fix>3d</fix>
</trkpt>
<trkpt lat="40.0711271" lon="-105.2292274">
  <ele>1583.0</ele>
  <time>2026-08-29T19:30:03Z</time>
  <course>323.93</course>
  <speed>1.99</speed>
  <fix>3d</fix>
</trkpt>
<trkpt lat="40.0711303" lon="-105.2292302">
  <ele>1583.07</ele>
  <time>2026-08-29T19:30:03Z</time>
  <course>324.52</course>
  <speed>1.9564508682816444</speed>
  <fix>3d</fix>
</trkpt>
<trkpt lat="40.0711271" lon="-105.2292274">
  <ele>1583.0</ele>
  <time>2026-08-29T19:30:03Z</time>
  <course>323.93</course>
  <speed>1.99</speed>
  <fix>3d</fix>
</trkpt>
<trkpt lat="40.0711317" lon="-105.2292316">
  <ele>1583.07</ele>
  <time>2026-08-29T19:30:03Z</time>
  <course>324.19</course>
  <speed>1.95420060382756</speed>
  <fix>3d</fix>
</trkpt>
<trkpt lat="40.07113" lon="-105.2292303">
  <ele>1583.0</ele>
  <time>2026-08-29T19:30:03Z</time>
  <course>323.47</course>
  <speed>1.99</speed>
  <fix>3d</fix>
</trkpt>
<trkpt lat="40.0711332" lon="-105.229233">
  <ele>1583.07</ele>
  <time>2026-08-29T19:30:03Z</time>
  <course>323.86</course>
  <speed>1.9601020381602587</speed>
  <fix>3d</fix>
</trkpt>
<trkpt lat="40.07113" lon="-105.2292303">
  <ele>1583.0</ele>
  <time>2026-08-29T19:30:03Z</time>
  <course>323.47</course>
  <speed>1.99</speed>
  <fix>3d</fix>
</trkpt>
<trkpt lat="40.0711346" lon="-105.2292344">
  <ele>1583.07</ele>
  <time>2026-08-29T19:30:03Z</time>
  <course>323.58</course>
  <speed>1.9580091930325556</speed>
  <fix>3d</fix>
</trkpt>
<trkpt lat="40.0711328" lon="-105.229233">
  <ele>1583.0</ele>
  <time>2026-08-29T19:30:03Z</time>
  <course>322.86</course>
  <speed>1.99</speed>
  <fix>3d</fix>
</trkpt>
<trkpt lat="40.0711361" lon="-105.2292359">
  <ele>1583.07</ele>
  <time>2026-08-29T19:30:03Z</time>
  <course>323.35</course>
  <speed>1.964001018329675</speed>
  <fix>3d</fix>
</trkpt>
<trkpt lat="40.0711328" lon="-105.229233">
  <ele>1583.0</ele>
  <time>2026-08-29T19:30:03Z</time>
  <course>322.86</course>
  <speed>1.99</speed>
  <fix>3d</fix>
</trkpt>
<trkpt lat="40.0711375" lon="-105.2292373">
  <ele>1583.08</ele>
  <time>2026-08-29T19:30:03Z</time>
  <course>323.19</course>
  <speed>1.964001018329675</speed>
  <fix>3d</fix>
</trkpt>
<trkpt lat="40.0711357" lon="-105.2292358">
  <ele>1583.0</ele>
  <time>2026-08-29T19:30:03Z</time>
  <course>322.36</course>
  <speed>1.99</speed>
  <fix>3d</fix>
</trkpt>
<trkpt lat="40.0711392" lon="-105.2292391">
  <ele>1583.08</ele>
  <time>2026-08-29T19:30:03Z</time>
  <course>323.06</course>
  <speed>1.962065238466856</speed>
  <fix>3d</fix>
</trkpt>
<trkpt lat="40.0711357" lon="-105.2292358">
  <ele>1583.0</ele>
  <time>2026-08-29T19:30:03Z</time>
  <course>322.36</course>
  <speed>1.99</speed>
  <fix>3d</fix>
</trkpt>
<trkpt lat="40.0711406" lon="-105.2292405">
  <ele>1583.08</ele>
  <time>2026-08-29T19:30:03Z</time>
  <course>323.02</course>
  <speed>1.962065238466856</speed>
  <fix>3d</fix>
</trkpt>
<trkpt lat="40.0711385" lon="-105.2292387">
  <ele>1583.0</ele>
  <time>2026-08-29T19:30:03Z</time>
  <course>322.08</course>
  <speed>1.99</speed>
  <fix>3d</fix>
</trkpt>
<trkpt lat="40.071142" lon="-105.229242">
  <ele>1583.08</ele>
  <time>2026-08-29T19:30:03Z</time>
  <course>323.02</course>
  <speed>1.9700253805471644</speed>
  <fix>3d</fix>
</trkpt>
<trkpt lat="40.0711385" lon="-105.2292387">
  <ele>1583.0</ele>
  <time>2026-08-29T19:30:03Z</time>
  <course>322.08</course>
  <speed>1.99</speed>
  <fix>3d</fix>
</trkpt>
<trkpt lat="40.0711435" lon="-105.2292434">
  <ele>1583.08</ele>
  <time>2026-08-29T19:30:03Z</time>
  <course>323.02</course>
  <speed>1.9700253805471644</speed>
  <fix>3d</fix>
</trkpt>
<trkpt lat="40.0711414" lon="-105.2292416">
  <ele>1583.0</ele>
  <time>2026-08-29T19:30:03Z</time>
  <course>322.0</course>
  <speed>1.99</speed>
  <fix>3d</fix>
</trkpt>
<trkpt lat="40.0711449" lon="-105.2292449">
  <ele>1583.08</ele>
  <time>2026-08-29T19:30:03Z</time>
  <course>323.02</course>
  <speed>1.9760819821049935</speed>
  <fix>3d</fix>
</trkpt>
<trkpt lat="40.0711414" lon="-105.2292416">
  <ele>1583.0</ele>
  <time>2026-08-29T19:30:03Z</time>
  <course>322.0</course>
  <speed>1.99</speed>
  <fix>3d</fix>
</trkpt>
<trkpt lat="40.0711463" lon="-105.2292463">
  <ele>1583.08</ele>
  <time>2026-08-29T19:30:03Z</time>
  <course>323.02</course>
  <speed>1.9760819821049935</speed>
  <fix>3d</fix>
</trkpt>
<trkpt lat="40.0711442" lon="-105.2292445">
  <ele>1583.0</ele>
  <time>2026-08-29T19:30:03Z</time>
  <course>322.0</course>
  <speed>1.99</speed>
  <fix>3d</fix>
</trkpt>
<trkpt lat="40.0711477" lon="-105.2292478">
  <ele>1583.08</ele>
  <time>2026-08-29T19:30:03Z</time>
  <course>323.02</course>
  <speed>1.9760819821049935</speed>
  <fix>3d</fix>
</trkpt>
<trkpt lat="40.0711442" lon="-105.2292445">
  <ele>1583.0</ele>
  <time>2026-08-29T19:30:03Z</time>
  <course>322.0</course>
  <speed>1.99</speed>
  <fix>3d</fix>
</trkpt>
<trkpt lat="40.0711491" lon="-105.2292492">
  <ele>1583.08</ele>
  <time>2026-08-29T19:30:03Z</time>
  <course>323.03</course>
  <speed>1.9760819821049935</speed>
  <fix>3d</fix>
</trkpt>
<trkpt lat="40.071147" lon="-105.2292474">
  <ele>1583.0</ele>
  <time>2026-08-29T19:30:03Z</time>
  <course>322.0</course>
  <speed>2.0</speed>
  <fix>3d</fix>
</trkpt>
<trkpt lat="40.0711505" lon="-105.2292507">
  <ele>1583.08</ele>
  <time>2026-08-29T19:30:03Z</time>
  <course>323.03</course>
  <speed>1.9760819821049935</speed>
  <fix>3d</fix>
</trkpt>
<trkpt lat="40.071147" lon="-105.2292474">
  <ele>1583.0</ele>
  <time>2026-08-29T19:30:03Z</time>
  <course>322.0</course>
  <speed>2.0</speed>
  <fix>3d</fix>
</trkpt>
<trkpt lat="40.0711519" lon="-105.2292521">
  <ele>1583.08</ele>
  <time>2026-08-29T19:30:03Z</time>
  <course>323.03</course>
  <speed>1.9760819821049935</speed>
  <fix>3d</fix>
</trkpt>
<trkpt lat="40.0711498" lon="-105.2292503">
  <ele>1583.0</ele>
  <time>2026-08-29T19:30:03Z</time>
  <course>322.0</course>
  <speed>2.0</speed>
  <fix>3d</fix>
</trkpt>
<trkpt lat="40.0711534" lon="-105.2292535">
  <ele>1583.08</ele>
  <time>2026-08-29T19:30:03Z</time>
  <course>323.03</course>
  <speed>1.9760819821049935</speed>
  <fix>3d</fix>
</trkpt>
<trkpt lat="40.0711498" lon="-105.2292503">
  <ele>1583.0</ele>
  <time>2026-08-29T19:30:03Z</time>
  <course>322.0</course>
  <speed>2.0</speed>
  <fix>3d</fix>
</trkpt>
<trkpt lat="40.0711545" lon="-105.2292547">
  <ele>1583.08</ele>
  <time>2026-08-29T19:30:03Z</time>
  <course>323.03</course>
  <speed>1.9760819821049935</speed>
  <fix>3d</fix>
</trkpt>
<trkpt lat="40.0711527" lon="-105.2292532">
  <ele>1583.0</ele>
  <time>2026-08-29T19:30:03Z</time>
  <course>322.0</course>
  <speed>2.0</speed>
  <fix>3d</fix>
</trkpt>
<trkpt lat="40.0711559" lon="-105.2292561">
  <ele>1583.08</ele>
  <time>2026-08-29T19:30:03Z</time>
  <course>323.03</course>
  <speed>1.9760819821049935</speed>
  <fix>3d</fix>
</trkpt>
<trkpt lat="40.0711527" lon="-105.2292532">
  <ele>1583.0</ele>
  <time>2026-08-29T19:30:03Z</time>
  <course>322.0</course>
  <speed>2.0</speed>
  <fix>3d</fix>
</trkpt>
<trkpt lat="40.0711573" lon="-105.2292576">
  <ele>1583.08</ele>
  <time>2026-08-29T19:30:03Z</time>
  <course>323.03</course>
  <speed>1.9760819821049935</speed>
  <fix>3d</fix>
</trkpt>
<trkpt lat="40.0711555" lon="-105.2292561">
  <ele>1583.0</ele>
  <time>2026-08-29T19:30:03Z</time>
  <course>322.0</course>
  <speed>2.0</speed>
  <fix>3d</fix>
</trkpt>
<trkpt lat="40.0711587" lon="-105.2292591">
  <ele>1583.07</ele>
  <time>2026-08-29T19:30:03Z</time>
  <course>323.03</course>
  <speed>1.9760819821049935</speed>
  <fix>3d</fix>
</trkpt>
<trkpt lat="40.0711555" lon="-105.2292561">
  <ele>1583.0</ele>
  <time>2026-08-29T19:30:03Z</time>
  <course>322.0</course>
  <speed>2.0</speed>
  <fix>3d</fix>
</trkpt>
<trkpt lat="40.0711601" lon="-105.2292605">
  <ele>1583.07</ele>
  <time>2026-08-29T19:30:03Z</time>
  <course>323.05</course>
  <speed>1.9760819821049935</speed>
  <fix>3d</fix>
</trkpt>
<trkpt lat="40.0711584" lon="-105.229259">
  <ele>1583.0</ele>
  <time>2026-08-29T19:30:03Z</time>
  <course>322.01</course>
  <speed>2.0</speed>
  <fix>3d</fix>
</trkpt>
<trkpt lat="40.0711616" lon="-105.229262">
  <ele>1583.07</ele>
  <time>2026-08-29T19:30:03Z</time>
  <course>323.07</course>
  <speed>1.9840362899906847</speed>
  <fix>3d</fix>
</trkpt>
<trkpt lat="40.0711584" lon="-105.229259">
  <ele>1583.0</ele>
  <time>2026-08-29T19:30:03Z</time>
  <course>322.01</course>
  <speed>2.0</speed>
  <fix>3d</fix>
</trkpt>
<trkpt lat="40.071163" lon="-105.2292634">
  <ele>1583.06</ele>
  <time>2026-08-29T19:30:03Z</time>
  <course>323.1</course>
  <speed>1.9840362899906847</speed>
  <fix>3d</fix>
</trkpt>
<trkpt lat="40.0711612" lon="-105.2292619">
  <ele>1583.0</ele>
  <time>2026-08-29T19:30:03Z</time>
  <course>322.04</course>
  <speed>2.0</speed>
  <fix>3d</fix>
</trkpt>
<trkpt lat="40.0711645" lon="-105.2292649">
  <ele>1583.06</ele>
  <time>2026-08-29T19:30:03Z</time>
  <course>323.12</course>
  <speed>1.9840362899906847</speed>
  <fix>3d</fix>
</trkpt>
<trkpt lat="40.0711612" lon="-105.2292619">
  <ele>1583.0</ele>
  <time>2026-08-29T19:30:03Z</time>
  <course>322.04</course>
  <speed>2.0</speed>
  <fix>3d</fix>
</trkpt>
<trkpt lat="40.0711659" lon="-105.2292664">
  <ele>1583.06</ele>
  <time>2026-08-29T19:30:03Z</time>
  <course>323.15</course>
  <speed>1.9840362899906847</speed>
  <fix>3d</fix>
</trkpt>
<trkpt lat="40.0711641" lon="-105.2292648">
  <ele>1583.0</ele>
  <time>2026-08-29T19:30:03Z</time>
  <course>322.09</course>
  <speed>2.0</speed>
  <fix>3d</fix>
</trkpt>
<trkpt lat="40.0711676" lon="-105.2292681">
  <ele>1583.05</ele>
  <time>2026-08-29T19:30:03Z</time>
  <course>323.19</course>
  <speed>1.9840362899906847</speed>
  <fix>3d</fix>
</trkpt>
<trkpt lat="40.0711641" lon="-105.2292648">
  <ele>1583.0</ele>
  <time>2026-08-29T19:30:03Z</time>
  <course>322.09</course>
  <speed>2.0</speed>
  <fix>3d</fix>
</trkpt>
<trkpt lat="40.071169" lon="-105.2292696">
  <ele>1583.05</ele>
  <time>2026-08-29T19:30:03Z</time>
  <course>323.21</course>
  <speed>1.9840362899906847</speed>
  <fix>3d</fix>
</trkpt>
<trkpt lat="40.0711668" lon="-105.2292677">
  <ele>1583.0</ele>
  <time>2026-08-29T19:30:03Z</time>
  <course>322.15</course>
  <speed>2.0</speed>
  <fix>3d</fix>
</trkpt>
<trkpt lat="40.0711705" lon="-105.229271">
  <ele>1583.05</ele>
  <time>2026-08-29T19:30:03Z</time>
  <course>323.24</course>
  <speed>1.9840362899906847</speed>
  <fix>3d</fix>
</trkpt>
<trkpt lat="40.0711668" lon="-105.2292677">
  <ele>1583.0</ele>
  <time>2026-08-29T19:30:03Z</time>
  <course>322.15</course>
  <speed>2.0</speed>
  <fix>3d</fix>
</trkpt>
<trkpt lat="40.0711719" lon="-105.2292725">
  <ele>1583.05</ele>
  <time>2026-08-29T19:30:03Z</time>
  <course>323.27</course>
  <speed>1.9840362899906847</speed>
  <fix>3d</fix>
</trkpt>
<trkpt lat="40.0711697" lon="-105.2292705">
  <ele>1583.0</ele>
  <time>2026-08-29T19:30:03Z</time>
  <course>322.2</course>
  <speed>2.0</speed>
  <fix>3d</fix>
</trkpt>
<trkpt lat="40.0711733" lon="-105.2292739">
  <ele>1583.05</ele>
  <time>2026-08-29T19:30:03Z</time>
  <course>323.3</course>
  <speed>1.9840362899906847</speed>
  <fix>3d</fix>
</trkpt>
<trkpt lat="40.0711697" lon="-105.2292705">
  <ele>1583.0</ele>
  <time>2026-08-29T19:30:03Z</time>
  <course>322.2</course>
  <speed>2.0</speed>
  <fix>3d</fix>
</trkpt>
<trkpt lat="40.0711748" lon="-105.2292754">
  <ele>1583.05</ele>
  <time>2026-08-29T19:30:03Z</time>
  <course>323.32</course>
  <speed>1.9840362899906847</speed>
  <fix>3d</fix>
</trkpt>
<trkpt lat="40.0711726" lon="-105.2292734">
  <ele>1583.0</ele>
  <time>2026-08-29T19:30:03Z</time>
  <course>322.26</course>
  <speed>2.0</speed>
  <fix>3d</fix>
</trkpt>
<trkpt lat="40.0711762" lon="-105.2292768">
  <ele>1583.05</ele>
  <time>2026-08-29T19:30:03Z</time>
  <course>323.35</course>
  <speed>1.9840362899906847</speed>
  <fix>3d</fix>
</trkpt>
<trkpt lat="40.0711726" lon="-105.2292734">
  <ele>1583.0</ele>
  <time>2026-08-29T19:30:03Z</time>
  <course>322.26</course>
  <speed>2.0</speed>
  <fix>3d</fix>
</trkpt>
<trkpt lat="40.0711776" lon="-105.2292782">
  <ele>1583.05</ele>
  <time>2026-08-29T19:30:03Z</time>
  <course>323.38</course>
  <speed>1.9840362899906847</speed>
  <fix>3d</fix>
</trkpt>
<trkpt lat="40.0711754" lon="-105.2292763">
  <ele>1583.0</ele>
  <time>2026-08-29T19:30:03Z</time>
  <course>322.31</course>
  <speed>2.0</speed>
  <fix>3d</fix>
</trkpt>
<trkpt lat="40.071179" lon="-105.2292797">
  <ele>1583.05</ele>
  <time>2026-08-29T19:30:03Z</time>
  <course>323.4</course>
  <speed>1.9840362899906847</speed>
  <fix>3d</fix>
</trkpt>
<trkpt lat="40.0711754" lon="-105.2292763">
  <ele>1583.0</ele>
  <time>2026-08-29T19:30:03Z</time>
  <course>322.31</course>
  <speed>2.0</speed>
  <fix>3d</fix>
</trkpt>
<trkpt lat="40.0711804" lon="-105.2292811">
  <ele>1583.05</ele>
  <time>2026-08-29T19:30:03Z</time>
  <course>323.43</course>
  <speed>1.9840362899906847</speed>
  <fix>3d</fix>
</trkpt>
<trkpt lat="40.0711783" lon="-105.2292792">
  <ele>1583.0</ele>
  <time>2026-08-29T19:30:03Z</time>
  <course>322.36</course>
  <speed>2.0</speed>
  <fix>3d</fix>
</trkpt>
<trkpt lat="40.0711818" lon="-105.2292825">
  <ele>1583.05</ele>
  <time>2026-08-29T19:30:03Z</time>
  <course>323.44</course>
  <speed>1.9840362899906847</speed>
  <fix>3d</fix>
</trkpt>
<trkpt lat="40.0711783" lon="-105.2292792">
  <ele>1583.0</ele>
  <time>2026-08-29T19:30:03Z</time>
  <course>322.36</course>
  <speed>2.0</speed>
  <fix>3d</fix>
</trkpt>
<trkpt lat="40.071183" lon="-105.2292837">
  <ele>1583.05</ele>
  <time>2026-08-29T19:30:03Z</time>
  <course>323.46</course>
  <speed>1.9780040444852482</speed>
  <fix>3d</fix>
</trkpt>
<trkpt lat="40.0711812" lon="-105.2292821">
  <ele>1583.0</ele>
  <time>2026-08-29T19:30:03Z</time>
  <course>322.4</course>
  <speed>2.0</speed>
  <fix>3d</fix>
</trkpt>
<trkpt lat="40.0711844" lon="-105.2292851">
  <ele>1583.05</ele>
  <time>2026-08-29T19:30:03Z</time>
  <course>323.48</course>
  <speed>1.9780040444852482</speed>
  <fix>3d</fix>
</trkpt>
<trkpt lat="40.0711812" lon="-105.2292821">
  <ele>1583.0</ele>
  <time>2026-08-29T19:30:03Z</time>
  <course>322.4</course>
  <speed>2.0</speed>
  <fix>3d</fix>
</trkpt>
<trkpt lat="40.0711858" lon="-105.2292865">
  <ele>1583.05</ele>
  <time>2026-08-29T19:30:03Z</time>
  <course>323.49</course>
  <speed>1.9780040444852482</speed>
  <fix>3d</fix>
</trkpt>
<trkpt lat="40.071184" lon="-105.229285">
  <ele>1583.0</ele>
  <time>2026-08-29T19:30:03Z</time>
  <course>322.44</course>
  <speed>2.0</speed>
  <fix>3d</fix>
</trkpt>
<trkpt lat="40.0711873" lon="-105.229288">
  <ele>1583.05</ele>
  <time>2026-08-29T19:30:03Z</time>
  <course>323.51</course>
  <speed>1.9780040444852482</speed>
  <fix>3d</fix>
</trkpt>
<trkpt lat="40.071184" lon="-105.229285">
  <ele>1583.0</ele>
  <time>2026-08-29T19:30:03Z</time>
  <course>322.44</course>
  <speed>2.0</speed>
  <fix>3d</fix>
</trkpt>
<trkpt lat="40.0711887" lon="-105.2292894">
  <ele>1583.05</ele>
  <time>2026-08-29T19:30:03Z</time>
  <course>323.53</course>
  <speed>1.9780040444852482</speed>
  <fix>3d</fix>
</trkpt>
<trkpt lat="40.0711869" lon="-105.2292878">
  <ele>1583.0</ele>
  <time>2026-08-29T19:30:03Z</time>
  <course>322.47</course>
  <speed>2.0</speed>
  <fix>3d</fix>
</trkpt>
<trkpt lat="40.0711901" lon="-105.2292909">
  <ele>1583.05</ele>
  <time>2026-08-29T19:30:03Z</time>
  <course>323.54</course>
  <speed>1.9780040444852482</speed>
  <fix>3d</fix>
</trkpt>
<trkpt lat="40.0711869" lon="-105.2292878">
  <ele>1583.0</ele>
  <time>2026-08-29T19:30:03Z</time>
  <course>322.47</course>
  <speed>2.0</speed>
  <fix>3d</fix>
</trkpt>
<trkpt lat="40.0711916" lon="-105.2292923">
  <ele>1583.05</ele>
  <time>2026-08-29T19:30:03Z</time>
  <course>323.55</course>
  <speed>1.9780040444852482</speed>
  <fix>3d</fix>
</trkpt>
<trkpt lat="40.0711897" lon="-105.2292907">
  <ele>1583.0</ele>
  <time>2026-08-29T19:30:03Z</time>
  <course>322.5</course>
  <speed>2.0</speed>
  <fix>3d</fix>
</trkpt>
<trkpt lat="40.071193" lon="-105.2292937">
  <ele>1583.05</ele>
  <time>2026-08-29T19:30:03Z</time>
  <course>323.58</course>
  <speed>1.98600100704909</speed>
  <fix>3d</fix>
</trkpt>
<trkpt lat="40.0711897" lon="-105.2292907">
  <ele>1583.0</ele>
  <time>2026-08-29T19:30:03Z</time>
  <course>322.5</course>
  <speed>2.0</speed>
  <fix>3d</fix>
</trkpt>
<trkpt lat="40.0711944" lon="-105.2292952">
  <ele>1583.05</ele>
  <time>2026-08-29T19:30:03Z</time>
  <course>323.58</course>
  <speed>1.98600100704909</speed>
  <fix>3d</fix>
</trkpt>
<trkpt lat="40.0711926" lon="-105.2292935">
  <ele>1583.0</ele>
  <time>2026-08-29T19:30:03Z</time>
  <course>322.53</course>
  <speed>2.0</speed>
  <fix>3d</fix>
</trkpt>
<trkpt lat="40.0711959" lon="-105.2292966">
  <ele>1583.05</ele>
  <time>2026-08-29T19:30:03Z</time>
  <course>323.59</course>
  <speed>1.98600100704909</speed>
  <fix>3d</fix>
</trkpt>
<trkpt lat="40.0711926" lon="-105.2292935">
  <ele>1583.0</ele>
  <time>2026-08-29T19:30:03Z</time>
  <course>322.53</course>
  <speed>2.0</speed>
  <fix>3d</fix>
</trkpt>
<trkpt lat="40.0711976" lon="-105.2292983">
  <ele>1583.05</ele>
  <time>2026-08-29T19:30:03Z</time>
  <course>323.61</course>
  <speed>1.98600100704909</speed>
  <fix>3d</fix>
</trkpt>
<trkpt lat="40.0711954" lon="-105.2292964">
  <ele>1583.0</ele>
  <time>2026-08-29T19:30:03Z</time>
  <course>322.55</course>
  <speed>2.0</speed>
  <fix>3d</fix>
</trkpt>
<trkpt lat="40.071199" lon="-105.2292998">
  <ele>1583.05</ele>
  <time>2026-08-29T19:30:03Z</time>
  <course>323.61</course>
  <speed>1.98600100704909</speed>
  <fix>3d</fix>
</trkpt>
<trkpt lat="40.0711954" lon="-105.2292964">
  <ele>1583.0</ele>
  <time>2026-08-29T19:30:03Z</time>
  <course>322.55</course>
  <speed>2.0</speed>
  <fix>3d</fix>
</trkpt>
<trkpt lat="40.0712005" lon="-105.2293012">
  <ele>1583.05</ele>
  <time>2026-08-29T19:30:03Z</time>
  <course>323.63</course>
  <speed>1.98600100704909</speed>
  <fix>3d</fix>
</trkpt>
<trkpt lat="40.0711983" lon="-105.2292992">
  <ele>1583.0</ele>
  <time>2026-08-29T19:30:03Z</time>
  <course>322.58</course>
  <speed>2.0</speed>
  <fix>3d</fix>
</trkpt>
<trkpt lat="40.0712019" lon="-105.2293027">
  <ele>1583.05</ele>
  <time>2026-08-29T19:30:03Z</time>
  <course>323.63</course>
  <speed>1.98600100704909</speed>
  <fix>3d</fix>
</trkpt>
<trkpt lat="40.0711983" lon="-105.2292992">
  <ele>1583.0</ele>
  <time>2026-08-29T19:30:03Z</time>
  <course>322.58</course>
  <speed>2.0</speed>
  <fix>3d</fix>
</trkpt>
<trkpt lat="40.0712033" lon="-105.2293041">
  <ele>1583.05</ele>
  <time>2026-08-29T19:30:03Z</time>
  <course>323.64</course>
  <speed>1.98600100704909</speed>
  <fix>3d</fix>
</trkpt>
<trkpt lat="40.0712012" lon="-105.2293021">
  <ele>1583.0</ele>
  <time>2026-08-29T19:30:03Z</time>
  <course>322.59</course>
  <speed>2.0</speed>
  <fix>3d</fix>
</trkpt>
<trkpt lat="40.0712048" lon="-105.2293055">
  <ele>1583.06</ele>
  <time>2026-08-29T19:30:03Z</time>
  <course>323.64</course>
  <speed>1.98600100704909</speed>
  <fix>3d</fix>
</trkpt>
<trkpt lat="40.0712012" lon="-105.2293021">
  <ele>1583.0</ele>
  <time>2026-08-29T19:30:03Z</time>
  <course>322.59</course>
  <speed>2.0</speed>
  <fix>3d</fix>
</trkpt>
<trkpt lat="40.0712062" lon="-105.2293069">
  <ele>1583.06</ele>
  <time>2026-08-29T19:30:03Z</time>
  <course>323.64</course>
  <speed>1.98600100704909</speed>
  <fix>3d</fix>
</trkpt>
<trkpt lat="40.071204" lon="-105.229305">
  <ele>1583.0</ele>
  <time>2026-08-29T19:30:03Z</time>
  <course>322.59</course>
  <speed>2.0</speed>
  <fix>3d</fix>
</trkpt>
<trkpt lat="40.0712076" lon="-105.2293083">
  <ele>1583.06</ele>
  <time>2026-08-29T19:30:03Z</time>
  <course>323.64</course>
  <speed>1.9780040444852482</speed>
  <fix>3d</fix>
</trkpt>
<trkpt lat="40.071204" lon="-105.229305">
  <ele>1583.0</ele>
  <time>2026-08-29T19:30:03Z</time>
  <course>322.59</course>
  <speed>2.0</speed>
  <fix>3d</fix>
</trkpt>
<trkpt lat="40.071209" lon="-105.2293097">
  <ele>1583.06</ele>
  <time>2026-08-29T19:30:03Z</time>
  <course>323.64</course>
  <speed>1.9780040444852482</speed>
  <fix>3d</fix>
</trkpt>
<trkpt lat="40.0712068" lon="-105.2293079">
  <ele>1583.0</ele>
  <time>2026-08-29T19:30:03Z</time>
  <course>322.59</course>
  <speed>2.0</speed>
  <fix>3d</fix>
</trkpt>
<trkpt lat="40.0712104" lon="-105.2293112">
  <ele>1583.06</ele>
  <time>2026-08-29T19:30:03Z</time>
  <course>323.65</course>
  <speed>1.9780040444852482</speed>
  <fix>3d</fix>
</trkpt>
<trkpt lat="40.0712068" lon="-105.2293079">
  <ele>1583.0</ele>
  <time>2026-08-29T19:30:03Z</time>
  <course>322.59</course>
  <speed>2.0</speed>
  <fix>3d</fix>
</trkpt>
<trkpt lat="40.0712118" lon="-105.2293126">
  <ele>1583.06</ele>
  <time>2026-08-29T19:30:03Z</time>
  <course>323.66</course>
  <speed>1.9780040444852482</speed>
  <fix>3d</fix>
</trkpt>
<trkpt lat="40.0712097" lon="-105.2293107">
  <ele>1583.0</ele>
  <time>2026-08-29T19:30:03Z</time>
  <course>322.6</course>
  <speed>2.0</speed>
  <fix>3d</fix>
</trkpt>
<trkpt lat="40.071213" lon="-105.2293137">
  <ele>1583.07</ele>
  <time>2026-08-29T19:30:03Z</time>
  <course>323.67</course>
  <speed>1.9780040444852482</speed>
  <fix>3d</fix>
</trkpt>
<trkpt lat="40.0712097" lon="-105.2293107">
  <ele>1583.0</ele>
  <time>2026-08-29T19:30:03Z</time>
  <course>322.6</course>
  <speed>2.0</speed>
  <fix>3d</fix>
</trkpt>
<trkpt lat="40.0712144" lon="-105.2293151">
  <ele>1583.07</ele>
  <time>2026-08-29T19:30:03Z</time>
  <course>323.68</course>
  <speed>1.9780040444852482</speed>
  <fix>3d</fix>
</trkpt>
<trkpt lat="40.0712126" lon="-105.2293136">
  <ele>1583.0</ele>
  <time>2026-08-29T19:30:03Z</time>
  <course>322.62</course>
  <speed>2.0</speed>
  <fix>3d</fix>
</trkpt>
<trkpt lat="40.0712158" lon="-105.2293166">
  <ele>1583.07</ele>
  <time>2026-08-29T19:30:03Z</time>
  <course>323.7</course>
  <speed>1.9780040444852482</speed>
  <fix>3d</fix>
</trkpt>
<trkpt lat="40.0712126" lon="-105.2293136">
  <ele>1583.0</ele>
  <time>2026-08-29T19:30:03Z</time>
  <course>322.62</course>
  <speed>2.0</speed>
  <fix>3d</fix>
</trkpt>
<trkpt lat="40.0712172" lon="-105.229318">
  <ele>1583.07</ele>
  <time>2026-08-29T19:30:03Z</time>
  <course>323.71</course>
  <speed>1.9780040444852482</speed>
  <fix>3d</fix>
</trkpt>
<trkpt lat="40.0712154" lon="-105.2293164">
  <ele>1583.0</ele>
  <time>2026-08-29T19:30:03Z</time>
  <course>322.64</course>
  <speed>2.0</speed>
  <fix>3d</fix>
</trkpt>
<trkpt lat="40.0712186" lon="-105.2293194">
  <ele>1583.07</ele>
  <time>2026-08-29T19:30:03Z</time>
  <course>323.72</course>
  <speed>1.9780040444852482</speed>
  <fix>3d</fix>
</trkpt>
<trkpt lat="40.0712154" lon="-105.2293164">
  <ele>1583.0</ele>
  <time>2026-08-29T19:30:03Z</time>
  <course>322.64</course>
  <speed>2.0</speed>
  <fix>3d</fix>
</trkpt>
<trkpt lat="40.0712201" lon="-105.2293208">
  <ele>1583.07</ele>
  <time>2026-08-29T19:30:03Z</time>
  <course>323.73</course>
  <speed>1.972004056790959</speed>
  <fix>3d</fix>
</trkpt>
<trkpt lat="40.0712183" lon="-105.2293192">
  <ele>1583.0</ele>
  <time>2026-08-29T19:30:03Z</time>
  <course>322.67</course>
  <speed>2.0</speed>
  <fix>3d</fix>
</trkpt>
<trkpt lat="40.0712215" lon="-105.2293223">
  <ele>1583.07</ele>
  <time>2026-08-29T19:30:03Z</time>
  <course>323.73</course>
  <speed>1.9780040444852482</speed>
  <fix>3d</fix>
</trkpt>
<trkpt lat="40.0712183" lon="-105.2293192">
  <ele>1583.0</ele>
  <time>2026-08-29T19:30:03Z</time>
  <course>322.67</course>
  <speed>2.0</speed>
  <fix>3d</fix>
</trkpt>
<trkpt lat="40.071223" lon="-105.2293237">
  <ele>1583.07</ele>
  <time>2026-08-29T19:30:03Z</time>
  <course>323.75</course>
  <speed>1.972004056790959</speed>
  <fix>3d</fix>
</trkpt>
<trkpt lat="40.0712211" lon="-105.2293221">
  <ele>1583.0</ele>
  <time>2026-08-29T19:30:03Z</time>
  <course>322.69</course>
  <speed>2.0</speed>
  <fix>3d</fix>
</trkpt>
<trkpt lat="40.0712244" lon="-105.2293251">
  <ele>1583.07</ele>
  <time>2026-08-29T19:30:03Z</time>
  <course>323.75</course>
  <speed>1.9780040444852482</speed>
  <fix>3d</fix>
</trkpt>
<trkpt lat="40.0712211" lon="-105.2293221">
  <ele>1583.0</ele>
  <time>2026-08-29T19:30:03Z</time>
  <course>322.69</course>
  <speed>2.0</speed>
  <fix>3d</fix>
</trkpt>
<trkpt lat="40.0712258" lon="-105.2293266">
  <ele>1583.07</ele>
  <time>2026-08-29T19:30:03Z</time>
  <course>323.76</course>
  <speed>1.9780040444852482</speed>
  <fix>3d</fix>
</trkpt>
<trkpt lat="40.071224" lon="-105.2293249">
  <ele>1583.0</ele>
  <time>2026-08-29T19:30:03Z</time>
  <course>322.7</course>
  <speed>2.0</speed>
  <fix>3d</fix>
</trkpt>
<trkpt lat="40.0712276" lon="-105.2293283">
  <ele>1583.07</ele>
  <time>2026-08-29T19:30:03Z</time>
  <course>323.76</course>
  <speed>1.9780040444852482</speed>
  <fix>3d</fix>
</trkpt>
<trkpt lat="40.071224" lon="-105.2293249">
  <ele>1583.0</ele>
  <time>2026-08-29T19:30:03Z</time>
  <course>322.7</course>
  <speed>2.0</speed>
  <fix>3d</fix>
</trkpt>
<trkpt lat="40.071229" lon="-105.2293297">
  <ele>1583.06</ele>
  <time>2026-08-29T19:30:03Z</time>
  <course>323.76</course>
  <speed>1.9780040444852482</speed>
  <fix>3d</fix>
</trkpt>
<trkpt lat="40.0712269" lon="-105.2293278">
  <ele>1583.0</ele>
  <time>2026-08-29T19:30:03Z</time>
  <course>322.7</course>
  <speed>2.0</speed>
  <fix>3d</fix>
</trkpt>
<trkpt lat="40.0712304" lon="-105.2293311">
  <ele>1583.06</ele>
  <time>2026-08-29T19:30:03Z</time>
  <course>323.76</course>
  <speed>1.9780040444852482</speed>
  <fix>3d</fix>
</trkpt>
<trkpt lat="40.0712269" lon="-105.2293278">
  <ele>1583.0</ele>
  <time>2026-08-29T19:30:03Z</time>
  <course>322.7</course>
  <speed>2.0</speed>
  <fix>3d</fix>
</trkpt>
<trkpt lat="40.0712319" lon="-105.2293326">
  <ele>1583.06</ele>
  <time>2026-08-29T19:30:03Z</time>
  <course>323.76</course>
  <speed>1.9780040444852482</speed>
  <fix>3d</fix>
</trkpt>
<trkpt lat="40.0712298" lon="-105.2293306">
  <ele>1583.0</ele>
  <time>2026-08-29T19:30:03Z</time>
  <course>322.7</course>
  <speed>2.0</speed>
  <fix>3d</fix>
</trkpt>
<trkpt lat="40.0712333" lon="-105.229334">
  <ele>1583.05</ele>
  <time>2026-08-29T19:30:03Z</time>
  <course>323.76</course>
  <speed>1.9780040444852482</speed>
  <fix>3d</fix>
</trkpt>
<trkpt lat="40.0712298" lon="-105.2293306">
  <ele>1583.0</ele>
  <time>2026-08-29T19:30:03Z</time>
  <course>322.7</course>
  <speed>2.0</speed>
  <fix>3d</fix>
</trkpt>
<trkpt lat="40.0712347" lon="-105.2293354">
  <ele>1583.05</ele>
  <time>2026-08-29T19:30:03Z</time>
  <course>323.76</course>
  <speed>1.9780040444852482</speed>
  <fix>3d</fix>
</trkpt>
<trkpt lat="40.0712326" lon="-105.2293335">
  <ele>1583.0</ele>
  <time>2026-08-29T19:30:03Z</time>
  <course>322.7</course>
  <speed>2.0</speed>
  <fix>3d</fix>
</trkpt>
<trkpt lat="40.0712362" lon="-105.2293368">
  <ele>1583.05</ele>
  <time>2026-08-29T19:30:03Z</time>
  <course>323.76</course>
  <speed>1.9780040444852482</speed>
  <fix>3d</fix>
</trkpt>
<trkpt lat="40.0712326" lon="-105.2293335">
  <ele>1583.0</ele>
  <time>2026-08-29T19:30:03Z</time>
  <course>322.7</course>
  <speed>2.0</speed>
  <fix>3d</fix>
</trkpt>
<trkpt lat="40.0712376" lon="-105.2293382">
  <ele>1583.05</ele>
  <time>2026-08-29T19:30:03Z</time>
  <course>323.76</course>
  <speed>1.972004056790959</speed>
  <fix>3d</fix>
</trkpt>
<trkpt lat="40.0712355" lon="-105.2293363">
  <ele>1583.0</ele>
  <time>2026-08-29T19:30:03Z</time>
  <course>322.7</course>
  <speed>2.0</speed>
  <fix>3d</fix>
</trkpt>
<trkpt lat="40.071239" lon="-105.2293397">
  <ele>1583.05</ele>
  <time>2026-08-29T19:30:03Z</time>
  <course>323.76</course>
  <speed>1.972004056790959</speed>
  <fix>3d</fix>
</trkpt>
<trkpt lat="40.0712355" lon="-105.2293363">
  <ele>1583.0</ele>
  <time>2026-08-29T19:30:03Z</time>
  <course>322.7</course>
  <speed>2.0</speed>
  <fix>3d</fix>
</trkpt>
<trkpt lat="40.0712404" lon="-105.2293411">
  <ele>1583.05</ele>
  <time>2026-08-29T19:30:03Z</time>
  <course>323.76</course>
  <speed>1.972004056790959</speed>
  <fix>3d</fix>
</trkpt>
<trkpt lat="40.0712383" lon="-105.2293392">
  <ele>1583.0</ele>
  <time>2026-08-29T19:30:03Z</time>
  <course>322.7</course>
  <speed>2.0</speed>
  <fix>3d</fix>
</trkpt>
<trkpt lat="40.0712418" lon="-105.2293425">
  <ele>1583.05</ele>
  <time>2026-08-29T19:30:03Z</time>
  <course>323.77</course>
  <speed>1.972004056790959</speed>
  <fix>3d</fix>
</trkpt>
<trkpt lat="40.0712383" lon="-105.2293392">
  <ele>1583.0</ele>
  <time>2026-08-29T19:30:03Z</time>
  <course>322.7</course>
  <speed>2.0</speed>
  <fix>3d</fix>
</trkpt>
<trkpt lat="40.071243" lon="-105.2293436">
  <ele>1583.05</ele>
  <time>2026-08-29T19:30:03Z</time>
  <course>323.77</course>
  <speed>1.972004056790959</speed>
  <fix>3d</fix>
</trkpt>
<trkpt lat="40.0712412" lon="-105.2293421">
  <ele>1583.0</ele>
  <time>2026-08-29T19:30:03Z</time>
  <course>322.7</course>
  <speed>1.99</speed>
  <fix>3d</fix>
</trkpt>
<trkpt lat="40.0712444" lon="-105.229345">
  <ele>1583.04</ele>
  <time>2026-08-29T19:30:03Z</time>
  <course>323.78</course>
  <speed>1.972004056790959</speed>
  <fix>3d</fix>
</trkpt>
<trkpt lat="40.0712412" lon="-105.2293421">
  <ele>1583.0</ele>
  <time>2026-08-29T19:30:03Z</time>
  <course>322.7</course>
  <speed>1.99</speed>
  <fix>3d</fix>
</trkpt>
<trkpt lat="40.0712458" lon="-105.2293464">
  <ele>1583.04</ele>
  <time>2026-08-29T19:30:03Z</time>
  <course>323.84</course>
  <speed>1.972004056790959</speed>
  <fix>3d</fix>
</trkpt>
<trkpt lat="40.0712441" lon="-105.2293449">
  <ele>1583.0</ele>
  <time>2026-08-29T19:30:03Z</time>
  <course>322.74</course>
  <speed>1.99</speed>
  <fix>3d</fix>
</trkpt>
<trkpt lat="40.0712473" lon="-105.2293479">
  <ele>1583.04</ele>
  <time>2026-08-29T19:30:03Z</time>
  <course>323.96</course>
  <speed>1.9800252523642217</speed>
  <fix>3d</fix>
</trkpt>
<trkpt lat="40.0712441" lon="-105.2293449">
  <ele>1583.0</ele>
  <time>2026-08-29T19:30:03Z</time>
  <course>322.74</course>
  <speed>1.99</speed>
  <fix>3d</fix>
</trkpt>
<trkpt lat="40.0712487" lon="-105.2293493">
  <ele>1583.04</ele>
  <time>2026-08-29T19:30:03Z</time>
  <course>324.13</course>
  <speed>1.974082065163452</speed>
  <fix>3d</fix>
</trkpt>
<trkpt lat="40.0712469" lon="-105.2293477">
  <ele>1583.0</ele>
  <time>2026-08-29T19:30:03Z</time>
  <course>322.93</course>
  <speed>1.99</speed>
  <fix>3d</fix>
</trkpt>
<trkpt lat="40.0712502" lon="-105.2293507">
  <ele>1583.04</ele>
  <time>2026-08-29T19:30:03Z</time>
  <course>324.36</course>
  <speed>1.974082065163452</speed>
  <fix>3d</fix>
</trkpt>
<trkpt lat="40.0712469" lon="-105.2293477">
  <ele>1583.0</ele>
  <time>2026-08-29T19:30:03Z</time>
  <course>322.93</course>
  <speed>1.99</speed>
  <fix>3d</fix>
</trkpt>
<trkpt lat="40.0712516" lon="-105.2293521">
  <ele>1583.03</ele>
  <time>2026-08-29T19:30:03Z</time>
  <course>324.65</course>
  <speed>1.9762590923257</speed>
  <fix>3d</fix>
</trkpt>
<trkpt lat="40.0712498" lon="-105.2293506">
  <ele>1583.0</ele>
  <time>2026-08-29T19:30:03Z</time>
  <course>323.33</course>
  <speed>1.99</speed>
  <fix>3d</fix>
</trkpt>
<trkpt lat="40.0712531" lon="-105.2293535">
  <ele>1583.04</ele>
  <time>2026-08-29T19:30:03Z</time>
  <course>325.0</course>
  <speed>1.978534811419804</speed>
  <fix>3d</fix>
</trkpt>
<trkpt lat="40.0712498" lon="-105.2293506">
  <ele>1583.0</ele>
  <time>2026-08-29T19:30:03Z</time>
  <course>323.33</course>
  <speed>1.99</speed>
  <fix>3d</fix>
</trkpt>
<trkpt lat="40.0712545" lon="-105.2293549">
  <ele>1583.04</ele>
  <time>2026-08-29T19:30:03Z</time>
  <course>325.36</course>
  <speed>1.9727392123643712</speed>
  <fix>3d</fix>
</trkpt>
<trkpt lat="40.0712527" lon="-105.2293533">
  <ele>1583.0</ele>
  <time>2026-08-29T19:30:03Z</time>
  <course>323.94</course>
  <speed>1.99</speed>
  <fix>3d</fix>
</trkpt>
<trkpt lat="40.071256" lon="-105.2293563">
  <ele>1583.04</ele>
  <time>2026-08-29T19:30:03Z</time>
  <course>325.68</course>
  <speed>1.9751708786836648</speed>
  <fix>3d</fix>
</trkpt>
<trkpt lat="40.0712527" lon="-105.2293533">
  <ele>1583.0</ele>
  <time>2026-08-29T19:30:03Z</time>
  <course>323.94</course>
  <speed>1.99</speed>
  <fix>3d</fix>
</trkpt>
<trkpt lat="40.0712578" lon="-105.2293579">
  <ele>1583.04</ele>
  <time>2026-08-29T19:30:03Z</time>
  <course>326.02</course>
  <speed>1.9777006851391845</speed>
  <fix>3d</fix>
</trkpt>
<trkpt lat="40.0712556" lon="-105.229356">
  <ele>1583.0</ele>
  <time>2026-08-29T19:30:03Z</time>
  <course>324.59</course>
  <speed>1.99</speed>
  <fix>3d</fix>
</trkpt>
<trkpt lat="40.0712593" lon="-105.2293592">
  <ele>1583.04</ele>
  <time>2026-08-29T19:30:03Z</time>
  <course>326.25</course>
  <speed>1.9720547659738055</speed>
  <fix>3d</fix>
</trkpt>
<trkpt lat="40.0712556" lon="-105.229356">
  <ele>1583.0</ele>
  <time>2026-08-29T19:30:03Z</time>
  <course>324.59</course>
  <speed>1.99</speed>
  <fix>3d</fix>
</trkpt>
<trkpt lat="40.0712607" lon="-105.2293606">
  <ele>1583.04</ele>
  <time>2026-08-29T19:30:03Z</time>
  <course>326.42</course>
  <speed>1.9664434901618708</speed>
  <fix>3d</fix>
</trkpt>
<trkpt lat="40.0712585" lon="-105.2293587">
  <ele>1583.0</ele>
  <time>2026-08-29T19:30:03Z</time>
  <course>325.11</course>
  <speed>1.99</speed>
  <fix>3d</fix>
</trkpt>
<trkpt lat="40.0712622" lon="-105.2293619">
  <ele>1583.04</ele>
  <time>2026-08-29T19:30:03Z</time>
  <course>326.55</course>
  <speed>1.9664434901618708</speed>
  <fix>3d</fix>
</trkpt>
<trkpt lat="40.0712585" lon="-105.2293587">
  <ele>1583.0</ele>
  <time>2026-08-29T19:30:03Z</time>
  <course>325.11</course>
  <speed>1.99</speed>
  <fix>3d</fix>
</trkpt>
<trkpt lat="40.0712637" lon="-105.2293632">
  <ele>1583.04</ele>
  <time>2026-08-29T19:30:03Z</time>
  <course>326.64</course>
  <speed>1.9608671551127577</speed>
  <fix>3d</fix>
</trkpt>
<trkpt lat="40.0712614" lon="-105.2293614">
  <ele>1583.0</ele>
  <time>2026-08-29T19:30:03Z</time>
  <course>325.44</course>
  <speed>1.98</speed>
  <fix>3d</fix>
</trkpt>
<trkpt lat="40.0712651" lon="-105.2293645">
  <ele>1583.04</ele>
  <time>2026-08-29T19:30:03Z</time>
  <course>326.72</course>
  <speed>1.9608671551127577</speed>
  <fix>3d</fix>
</trkpt>
<trkpt lat="40.0712614" lon="-105.2293614">
  <ele>1583.0</ele>
  <time>2026-08-29T19:30:03Z</time>
  <course>325.44</course>
  <speed>1.98</speed>
  <fix>3d</fix>
</trkpt>
<trkpt lat="40.0712666" lon="-105.2293658">
  <ele>1583.04</ele>
  <time>2026-08-29T19:30:03Z</time>
  <course>326.8</course>
  <speed>1.9608671551127577</speed>
  <fix>3d</fix>
</trkpt>
<trkpt lat="40.0712644" lon="-105.2293641">
  <ele>1583.0</ele>
  <time>2026-08-29T19:30:03Z</time>
  <course>325.64</course>
  <speed>1.98</speed>
  <fix>3d</fix>
</trkpt>
<trkpt lat="40.0712681" lon="-105.2293671">
  <ele>1583.04</ele>
  <time>2026-08-29T19:30:03Z</time>
  <course>326.86</course>
  <speed>1.955326059765992</speed>
  <fix>3d</fix>
</trkpt>
<trkpt lat="40.0712644" lon="-105.2293641">
  <ele>1583.0</ele>
  <time>2026-08-29T19:30:03Z</time>
  <course>325.64</course>
  <speed>1.98</speed>
  <fix>3d</fix>
</trkpt>
<trkpt lat="40.0712695" lon="-105.2293684">
  <ele>1583.04</ele>
  <time>2026-08-29T19:30:03Z</time>
  <course>326.92</course>
  <speed>1.955326059765992</speed>
  <fix>3d</fix>
</trkpt>
<trkpt lat="40.0712673" lon="-105.2293666">
  <ele>1583.0</ele>
  <time>2026-08-29T19:30:03Z</time>
  <course>325.78</course>
  <speed>1.97</speed>
  <fix>3d</fix>
</trkpt>
<trkpt lat="40.071271" lon="-105.2293697">
  <ele>1583.04</ele>
  <time>2026-08-29T19:30:03Z</time>
  <course>326.97</course>
  <speed>1.946997688750554</speed>
  <fix>3d</fix>
</trkpt>
<trkpt lat="40.0712673" lon="-105.2293666">
  <ele>1583.0</ele>
  <time>2026-08-29T19:30:03Z</time>
  <course>325.78</course>
  <speed>1.97</speed>
  <fix>3d</fix>
</trkpt>
<trkpt lat="40.0712724" lon="-105.2293709">
  <ele>1583.04</ele>
  <time>2026-08-29T19:30:03Z</time>
  <course>327.02</course>
  <speed>1.941468516355596</speed>
  <fix>3d</fix>
</trkpt>
<trkpt lat="40.0712703" lon="-105.2293693">
  <ele>1583.0</ele>
  <time>2026-08-29T19:30:03Z</time>
  <course>325.89</course>
  <speed>1.97</speed>
  <fix>3d</fix>
</trkpt>
<trkpt lat="40.0712736" lon="-105.229372">
  <ele>1583.03</ele>
  <time>2026-08-29T19:30:03Z</time>
  <course>327.07</course>
  <speed>1.941468516355596</speed>
  <fix>3d</fix>
</trkpt>
<trkpt lat="40.0712703" lon="-105.2293693">
  <ele>1583.0</ele>
  <time>2026-08-29T19:30:03Z</time>
  <course>325.89</course>
  <speed>1.97</speed>
  <fix>3d</fix>
</trkpt>
<trkpt lat="40.071275" lon="-105.2293732">
  <ele>1583.03</ele>
  <time>2026-08-29T19:30:03Z</time>
  <course>327.12</course>
  <speed>1.941468516355596</speed>
  <fix>3d</fix>
</trkpt>
<trkpt lat="40.0712732" lon="-105.2293718">
  <ele>1583.0</ele>
  <time>2026-08-29T19:30:03Z</time>
  <course>326.0</course>
  <speed>1.96</speed>
  <fix>3d</fix>
</trkpt>
<trkpt lat="40.0712765" lon="-105.2293745">
  <ele>1583.03</ele>
  <time>2026-08-29T19:30:03Z</time>
  <course>327.18</course>
  <speed>1.941468516355596</speed>
  <fix>3d</fix>
</trkpt>
<trkpt lat="40.0712732" lon="-105.2293718">
  <ele>1583.0</ele>
  <time>2026-08-29T19:30:03Z</time>
  <course>326.0</course>
  <speed>1.96</speed>
  <fix>3d</fix>
</trkpt>
<trkpt lat="40.0712779" lon="-105.2293758">
  <ele>1583.03</ele>
  <time>2026-08-29T19:30:03Z</time>
  <course>327.2</course>
  <speed>1.9359752064528097</speed>
  <fix>3d</fix>
</trkpt>
<trkpt lat="40.0712762" lon="-105.2293745">
  <ele>1583.0</ele>
  <time>2026-08-29T19:30:03Z</time>
  <course>326.09</course>
  <speed>1.96</speed>
  <fix>3d</fix>
</trkpt>
<trkpt lat="40.0712794" lon="-105.2293771">
  <ele>1583.03</ele>
  <time>2026-08-29T19:30:03Z</time>
  <course>327.23</course>
  <speed>1.9359752064528097</speed>
  <fix>3d</fix>
</trkpt>
<trkpt lat="40.0712762" lon="-105.2293745">
  <ele>1583.0</ele>
  <time>2026-08-29T19:30:03Z</time>
  <course>326.09</course>
  <speed>1.96</speed>
  <fix>3d</fix>
</trkpt>
<trkpt lat="40.0712809" lon="-105.2293784">
  <ele>1583.04</ele>
  <time>2026-08-29T19:30:03Z</time>
  <course>327.26</course>
  <speed>1.9359752064528097</speed>
  <fix>3d</fix>
</trkpt>
<trkpt lat="40.0712791" lon="-105.229377">
  <ele>1583.0</ele>
  <time>2026-08-29T19:30:03Z</time>
  <course>326.16</course>
  <speed>1.96</speed>
  <fix>3d</fix>
</trkpt>
<trkpt lat="40.0712824" lon="-105.2293797">
  <ele>1583.04</ele>
  <time>2026-08-29T19:30:03Z</time>
  <course>327.29</course>
  <speed>1.9359752064528097</speed>
  <fix>3d</fix>
</trkpt>
<trkpt lat="40.0712791" lon="-105.229377">
  <ele>1583.0</ele>
  <time>2026-08-29T19:30:03Z</time>
  <course>326.16</course>
  <speed>1.96</speed>
  <fix>3d</fix>
</trkpt>
<trkpt lat="40.0712838" lon="-105.229381">
  <ele>1583.04</ele>
  <time>2026-08-29T19:30:03Z</time>
  <course>327.32</course>
  <speed>1.9359752064528097</speed>
  <fix>3d</fix>
</trkpt>
<trkpt lat="40.071282" lon="-105.2293795">
  <ele>1583.0</ele>
  <time>2026-08-29T19:30:03Z</time>
  <course>326.21</course>
  <speed>1.95</speed>
  <fix>3d</fix>
</trkpt>
<trkpt lat="40.0712853" lon="-105.2293822">
  <ele>1583.04</ele>
  <time>2026-08-29T19:30:03Z</time>
  <course>327.34</course>
  <speed>1.9359752064528097</speed>
  <fix>3d</fix>
</trkpt>
<trkpt lat="40.071282" lon="-105.2293795">
  <ele>1583.0</ele>
  <time>2026-08-29T19:30:03Z</time>
  <course>326.21</course>
  <speed>1.95</speed>
  <fix>3d</fix>
</trkpt>
<trkpt lat="40.0712868" lon="-105.2293835">
  <ele>1583.04</ele>
  <time>2026-08-29T19:30:03Z</time>
  <course>327.37</course>
  <speed>1.9359752064528097</speed>
  <fix>3d</fix>
</trkpt>
<trkpt lat="40.0712849" lon="-105.2293821">
  <ele>1583.0</ele>
  <time>2026-08-29T19:30:03Z</time>
  <course>326.27</course>
  <speed>1.95</speed>
  <fix>3d</fix>
</trkpt>
<trkpt lat="40.0712886" lon="-105.229385">
  <ele>1583.04</ele>
  <time>2026-08-29T19:30:03Z</time>
  <course>327.4</course>
  <speed>1.9305180651835403</speed>
  <fix>3d</fix>
</trkpt>
<trkpt lat="40.0712849" lon="-105.2293821">
  <ele>1583.0</ele>
  <time>2026-08-29T19:30:03Z</time>
  <course>326.27</course>
  <speed>1.95</speed>
  <fix>3d</fix>
</trkpt>
<trkpt lat="40.07129" lon="-105.2293863">
  <ele>1583.04</ele>
  <time>2026-08-29T19:30:03Z</time>
  <course>327.43</course>
  <speed>1.9305180651835403</speed>
  <fix>3d</fix>
</trkpt>
<trkpt lat="40.0712878" lon="-105.2293847">
  <ele>1583.0</ele>
  <time>2026-08-29T19:30:03Z</time>
  <course>326.32</course>
  <speed>1.95</speed>
  <fix>3d</fix>
</trkpt>
<trkpt lat="40.0712915" lon="-105.2293876">
  <ele>1583.04</ele>
  <time>2026-08-29T19:30:03Z</time>
  <course>327.45</course>
  <speed>1.9305180651835403</speed>
  <fix>3d</fix>
</trkpt>
<trkpt lat="40.0712878" lon="-105.2293847">
  <ele>1583.0</ele>
  <time>2026-08-29T19:30:03Z</time>
  <course>326.32</course>
  <speed>1.95</speed>
  <fix>3d</fix>
</trkpt>
<trkpt lat="40.071293" lon="-105.2293889">
  <ele>1583.04</ele>
  <time>2026-08-29T19:30:03Z</time>
  <course>327.47</course>
  <speed>1.9305180651835403</speed>
  <fix>3d</fix>
</trkpt>
<trkpt lat="40.0712908" lon="-105.2293872">
  <ele>1583.0</ele>
  <time>2026-08-29T19:30:03Z</time>
  <course>326.37</course>
  <speed>1.95</speed>
  <fix>3d</fix>
</trkpt>
<trkpt lat="40.0712944" lon="-105.2293901">
  <ele>1583.04</ele>
  <time>2026-08-29T19:30:03Z</time>
  <course>327.48</course>
  <speed>1.9305180651835403</speed>
  <fix>3d</fix>
</trkpt>
<trkpt lat="40.0712908" lon="-105.2293872">
  <ele>1583.0</ele>
  <time>2026-08-29T19:30:03Z</time>
  <course>326.37</course>
  <speed>1.95</speed>
  <fix>3d</fix>
</trkpt>
<trkpt lat="40.0712959" lon="-105.2293914">
  <ele>1583.04</ele>
  <time>2026-08-29T19:30:03Z</time>
  <course>327.48</course>
  <speed>1.9305180651835403</speed>
  <fix>3d</fix>
</trkpt>
<trkpt lat="40.0712937" lon="-105.2293898">
  <ele>1583.0</ele>
  <time>2026-08-29T19:30:03Z</time>
  <course>326.4</course>
  <speed>1.95</speed>
  <fix>3d</fix>
</trkpt>
<trkpt lat="40.0712973" lon="-105.2293927">
  <ele>1583.04</ele>
  <time>2026-08-29T19:30:03Z</time>
  <course>327.5</course>
  <speed>1.9305180651835403</speed>
  <fix>3d</fix>
</trkpt>
<trkpt lat="40.0712937" lon="-105.2293898">
  <ele>1583.0</ele>
  <time>2026-08-29T19:30:03Z</time>
  <course>326.4</course>
  <speed>1.95</speed>
  <fix>3d</fix>
</trkpt>
<trkpt lat="40.0712988" lon="-105.2293939">
  <ele>1583.04</ele>
  <time>2026-08-29T19:30:03Z</time>
  <course>327.5</course>
  <speed>1.9305180651835403</speed>
  <fix>3d</fix>
</trkpt>
<trkpt lat="40.0712966" lon="-105.2293923">
  <ele>1583.0</ele>
  <time>2026-08-29T19:30:03Z</time>
  <course>326.41</course>
  <speed>1.94</speed>
  <fix>3d</fix>
</trkpt>
<trkpt lat="40.0713002" lon="-105.2293952">
  <ele>1583.04</ele>
  <time>2026-08-29T19:30:03Z</time>
  <course>327.51</course>
  <speed>1.9221342304844373</speed>
  <fix>3d</fix>
</trkpt>
<trkpt lat="40.0712966" lon="-105.2293923">
  <ele>1583.0</ele>
  <time>2026-08-29T19:30:03Z</time>
  <course>326.41</course>
  <speed>1.94</speed>
  <fix>3d</fix>
</trkpt>
<trkpt lat="40.0713017" lon="-105.2293964">
  <ele>1583.04</ele>
  <time>2026-08-29T19:30:03Z</time>
  <course>327.51</course>
  <speed>1.9221342304844373</speed>
  <fix>3d</fix>
</trkpt>
<trkpt lat="40.0712995" lon="-105.2293948">
  <ele>1583.0</ele>
  <time>2026-08-29T19:30:03Z</time>
  <course>326.42</course>
  <speed>1.94</speed>
  <fix>3d</fix>
</trkpt>
<trkpt lat="40.0713031" lon="-105.2293977">
  <ele>1583.05</ele>
  <time>2026-08-29T19:30:03Z</time>
  <course>327.51</course>
  <speed>1.9221342304844373</speed>
  <fix>3d</fix>
</trkpt>
<trkpt lat="40.0712995" lon="-105.2293948">
  <ele>1583.0</ele>
  <time>2026-08-29T19:30:03Z</time>
  <course>326.42</course>
  <speed>1.94</speed>
  <fix>3d</fix>
</trkpt>
<trkpt lat="40.0713043" lon="-105.2293987">
  <ele>1583.05</ele>
  <time>2026-08-29T19:30:03Z</time>
  <course>327.52</course>
  <speed>1.9221342304844373</speed>
  <fix>3d</fix>
</trkpt>
<trkpt lat="40.0713024" lon="-105.2293973">
  <ele>1583.0</ele>
  <time>2026-08-29T19:30:03Z</time>
  <course>326.43</course>
  <speed>1.94</speed>
  <fix>3d</fix>
</trkpt>
<trkpt lat="40.0713057" lon="-105.2294">
  <ele>1583.05</ele>
  <time>2026-08-29T19:30:03Z</time>
  <course>327.52</course>
  <speed>1.9221342304844373</speed>
  <fix>3d</fix>
</trkpt>
<trkpt lat="40.0713024" lon="-105.2293973">
  <ele>1583.0</ele>
  <time>2026-08-29T19:30:03Z</time>
  <course>326.43</course>
  <speed>1.94</speed>
  <fix>3d</fix>
</trkpt>
<trkpt lat="40.0713072" lon="-105.2294012">
  <ele>1583.05</ele>
  <time>2026-08-29T19:30:03Z</time>
  <course>327.52</course>
  <speed>1.9221342304844373</speed>
  <fix>3d</fix>
</trkpt>
<trkpt lat="40.0713054" lon="-105.2293999">
  <ele>1583.0</ele>
  <time>2026-08-29T19:30:03Z</time>
  <course>326.44</course>
  <speed>1.94</speed>
  <fix>3d</fix>
</trkpt>
<trkpt lat="40.0713086" lon="-105.2294025">
  <ele>1583.04</ele>
  <time>2026-08-29T19:30:03Z</time>
  <course>327.52</course>
  <speed>1.9221342304844373</speed>
  <fix>3d</fix>
</trkpt>
<trkpt lat="40.0713054" lon="-105.2293999">
  <ele>1583.0</ele>
  <time>2026-08-29T19:30:03Z</time>
  <course>326.44</course>
  <speed>1.94</speed>
  <fix>3d</fix>
</trkpt>
<trkpt lat="40.0713101" lon="-105.2294037">
  <ele>1583.05</ele>
  <time>2026-08-29T19:30:03Z</time>
  <course>327.53</course>
  <speed>1.9221342304844373</speed>
  <fix>3d</fix>
</trkpt>
<trkpt lat="40.0713083" lon="-105.2294024">
  <ele>1583.0</ele>
  <time>2026-08-29T19:30:03Z</time>
  <course>326.44</course>
  <speed>1.94</speed>
  <fix>3d</fix>
</trkpt>
<trkpt lat="40.0713116" lon="-105.229405">
  <ele>1583.04</ele>
  <time>2026-08-29T19:30:03Z</time>
  <course>327.53</course>
  <speed>1.9221342304844373</speed>
  <fix>3d</fix>
</trkpt>
<trkpt lat="40.0713083" lon="-105.2294024">
  <ele>1583.0</ele>
  <time>2026-08-29T19:30:03Z</time>
  <course>326.44</course>
  <speed>1.94</speed>
  <fix>3d</fix>
</trkpt>
<trkpt lat="40.071313" lon="-105.2294063">
  <ele>1583.04</ele>
  <time>2026-08-29T19:30:03Z</time>
  <course>327.53</course>
  <speed>1.9221342304844373</speed>
  <fix>3d</fix>
</trkpt>
<trkpt lat="40.0713112" lon="-105.2294049">
  <ele>1583.0</ele>
  <time>2026-08-29T19:30:03Z</time>
  <course>326.44</course>
  <speed>1.94</speed>
  <fix>3d</fix>
</trkpt>
<trkpt lat="40.0713145" lon="-105.2294076">
  <ele>1583.05</ele>
  <time>2026-08-29T19:30:03Z</time>
  <course>327.53</course>
  <speed>1.9221342304844373</speed>
  <fix>3d</fix>
</trkpt>
<trkpt lat="40.0713112" lon="-105.2294049">
  <ele>1583.0</ele>
  <time>2026-08-29T19:30:03Z</time>
  <course>326.44</course>
  <speed>1.94</speed>
  <fix>3d</fix>
</trkpt>
<trkpt lat="40.071316" lon="-105.2294088">
  <ele>1583.05</ele>
  <time>2026-08-29T19:30:03Z</time>
  <course>327.53</course>
  <speed>1.9221342304844373</speed>
  <fix>3d</fix>
</trkpt>
<trkpt lat="40.0713141" lon="-105.2294074">
  <ele>1583.0</ele>
  <time>2026-08-29T19:30:03Z</time>
  <course>326.44</course>
  <speed>1.94</speed>
  <fix>3d</fix>
</trkpt>
<trkpt lat="40.0713177" lon="-105.2294103">
  <ele>1583.05</ele>
  <time>2026-08-29T19:30:03Z</time>
  <course>327.53</course>
  <speed>1.9221342304844373</speed>
  <fix>3d</fix>
</trkpt>
<trkpt lat="40.0713141" lon="-105.2294074">
  <ele>1583.0</ele>
  <time>2026-08-29T19:30:03Z</time>
  <course>326.44</course>
  <speed>1.94</speed>
  <fix>3d</fix>
</trkpt>
<trkpt lat="40.0713192" lon="-105.2294116">
  <ele>1583.04</ele>
  <time>2026-08-29T19:30:03Z</time>
  <course>327.53</course>
  <speed>1.9221342304844373</speed>
  <fix>3d</fix>
</trkpt>
<trkpt lat="40.071317" lon="-105.22941">
  <ele>1583.0</ele>
  <time>2026-08-29T19:30:03Z</time>
  <course>326.44</course>
  <speed>1.94</speed>
  <fix>3d</fix>
</trkpt>
<trkpt lat="40.0713206" lon="-105.2294129">
  <ele>1583.04</ele>
  <time>2026-08-29T19:30:03Z</time>
  <course>327.53</course>
  <speed>1.9221342304844373</speed>
  <fix>3d</fix>
</trkpt>
<trkpt lat="40.071317" lon="-105.22941">
  <ele>1583.0</ele>
  <time>2026-08-29T19:30:03Z</time>
  <course>326.44</course>
  <speed>1.94</speed>
  <fix>3d</fix>
</trkpt>
<trkpt lat="40.0713221" lon="-105.2294141">
  <ele>1583.04</ele>
  <time>2026-08-29T19:30:03Z</time>
  <course>327.53</course>
  <speed>1.9221342304844373</speed>
  <fix>3d</fix>
</trkpt>
<trkpt lat="40.0713199" lon="-105.2294125">
  <ele>1583.0</ele>
  <time>2026-08-29T19:30:03Z</time>
  <course>326.44</course>
  <speed>1.94</speed>
  <fix>3d</fix>
</trkpt>
<trkpt lat="40.0713236" lon="-105.2294154">
  <ele>1583.04</ele>
  <time>2026-08-29T19:30:03Z</time>
  <course>327.53</course>
  <speed>1.9221342304844373</speed>
  <fix>3d</fix>
</trkpt>
<trkpt lat="40.0713199" lon="-105.2294125">
  <ele>1583.0</ele>
  <time>2026-08-29T19:30:03Z</time>
  <course>326.44</course>
  <speed>1.94</speed>
  <fix>3d</fix>
</trkpt>
<trkpt lat="40.071325" lon="-105.2294167">
  <ele>1583.05</ele>
  <time>2026-08-29T19:30:03Z</time>
  <course>327.53</course>
  <speed>1.9221342304844373</speed>
  <fix>3d</fix>
</trkpt>
<trkpt lat="40.0713228" lon="-105.229415">
  <ele>1583.0</ele>
  <time>2026-08-29T19:30:03Z</time>
  <course>326.44</course>
  <speed>1.94</speed>
  <fix>3d</fix>
</trkpt>
<trkpt lat="40.0713265" lon="-105.2294179">
  <ele>1583.04</ele>
  <time>2026-08-29T19:30:03Z</time>
  <course>327.53</course>
  <speed>1.9221342304844373</speed>
  <fix>3d</fix>
</trkpt>
<trkpt lat="40.0713228" lon="-105.229415">
  <ele>1583.0</ele>
  <time>2026-08-29T19:30:03Z</time>
  <course>326.44</course>
  <speed>1.94</speed>
  <fix>3d</fix>
</trkpt>
<trkpt lat="40.0713279" lon="-105.2294192">
  <ele>1583.04</ele>
  <time>2026-08-29T19:30:03Z</time>
  <course>327.53</course>
  <speed>1.9221342304844373</speed>
  <fix>3d</fix>
</trkpt>
<trkpt lat="40.0713257" lon="-105.2294175">
  <ele>1583.0</ele>
  <time>2026-08-29T19:30:03Z</time>
  <course>326.44</course>
  <speed>1.94</speed>
  <fix>3d</fix>
</trkpt>
<trkpt lat="40.0713293" lon="-105.2294204">
  <ele>1583.04</ele>
  <time>2026-08-29T19:30:03Z</time>
  <course>327.53</course>
  <speed>1.9221342304844373</speed>
  <fix>3d</fix>
</trkpt>
<trkpt lat="40.0713257" lon="-105.2294175">
  <ele>1583.0</ele>
  <time>2026-08-29T19:30:03Z</time>
  <course>326.44</course>
  <speed>1.94</speed>
  <fix>3d</fix>
</trkpt>
<trkpt lat="40.0713308" lon="-105.2294217">
  <ele>1583.04</ele>
  <time>2026-08-29T19:30:03Z</time>
  <course>327.53</course>
  <speed>1.9166898549321953</speed>
  <fix>3d</fix>
</trkpt>
<trkpt lat="40.0713286" lon="-105.22942">
  <ele>1583.0</ele>
  <time>2026-08-29T19:30:03Z</time>
  <course>326.44</course>
  <speed>1.94</speed>
  <fix>3d</fix>
</trkpt>
<trkpt lat="40.0713322" lon="-105.2294229">
  <ele>1583.03</ele>
  <time>2026-08-29T19:30:03Z</time>
  <course>327.53</course>
  <speed>1.9166898549321953</speed>
  <fix>3d</fix>
</trkpt>
<trkpt lat="40.0713286" lon="-105.22942">
  <ele>1583.0</ele>
  <time>2026-08-29T19:30:03Z</time>
  <course>326.44</course>
  <speed>1.94</speed>
  <fix>3d</fix>
</trkpt>
<trkpt lat="40.0713337" lon="-105.2294242">
  <ele>1583.03</ele>
  <time>2026-08-29T19:30:03Z</time>
  <course>327.54</course>
  <speed>1.9166898549321953</speed>
  <fix>3d</fix>
</trkpt>
<trkpt lat="40.0713315" lon="-105.2294225">
  <ele>1583.0</ele>
  <time>2026-08-29T19:30:03Z</time>
  <course>326.44</course>
  <speed>1.94</speed>
  <fix>3d</fix>
</trkpt>
<trkpt lat="40.0713348" lon="-105.2294252">
  <ele>1583.03</ele>
  <time>2026-08-29T19:30:03Z</time>
  <course>327.54</course>
  <speed>1.9166898549321953</speed>
  <fix>3d</fix>
</trkpt>
<trkpt lat="40.0713315" lon="-105.2294225">
  <ele>1583.0</ele>
  <time>2026-08-29T19:30:03Z</time>
  <course>326.44</course>
  <speed>1.94</speed>
  <fix>3d</fix>
</trkpt>
<trkpt lat="40.0713362" lon="-105.2294264">
  <ele>1583.03</ele>
  <time>2026-08-29T19:30:03Z</time>
  <course>327.54</course>
  <speed>1.9082976707002501</speed>
  <fix>3d</fix>
</trkpt>
<trkpt lat="40.0713344" lon="-105.2294251">
  <ele>1583.0</ele>
  <time>2026-08-29T19:30:03Z</time>
  <course>326.44</course>
  <speed>1.94</speed>
  <fix>3d</fix>
</trkpt>
<trkpt lat="40.0713377" lon="-105.2294277">
  <ele>1583.03</ele>
  <time>2026-08-29T19:30:03Z</time>
  <course>327.54</course>
  <speed>1.9082976707002501</speed>
  <fix>3d</fix>
</trkpt>
<trkpt lat="40.0713344" lon="-105.2294251">
  <ele>1583.0</ele>
  <time>2026-08-29T19:30:03Z</time>
  <course>326.44</course>
  <speed>1.94</speed>
  <fix>3d</fix>
</trkpt>
<trkpt lat="40.0713391" lon="-105.2294289">
  <ele>1583.03</ele>
  <time>2026-08-29T19:30:03Z</time>
  <course>327.54</course>
  <speed>1.9082976707002501</speed>
  <fix>3d</fix>
</trkpt>
<trkpt lat="40.0713373" lon="-105.2294276">
  <ele>1583.0</ele>
  <time>2026-08-29T19:30:03Z</time>
  <course>326.44</course>
  <speed>1.94</speed>
  <fix>3d</fix>
</trkpt>
<trkpt lat="40.0713406" lon="-105.2294302">
  <ele>1583.03</ele>
  <time>2026-08-29T19:30:03Z</time>
  <course>327.54</course>
  <speed>1.9082976707002501</speed>
  <fix>3d</fix>
</trkpt>
<trkpt lat="40.0713373" lon="-105.2294276">
  <ele>1583.0</ele>
  <time>2026-08-29T19:30:03Z</time>
  <course>326.44</course>
  <speed>1.94</speed>
  <fix>3d</fix>
</trkpt>
<trkpt lat="40.071342" lon="-105.2294314">
  <ele>1583.03</ele>
  <time>2026-08-29T19:30:03Z</time>
  <course>327.54</course>
  <speed>1.9082976707002501</speed>
  <fix>3d</fix>
</trkpt>
<trkpt lat="40.0713402" lon="-105.2294301">
  <ele>1583.0</ele>
  <time>2026-08-29T19:30:03Z</time>
  <course>326.44</course>
  <speed>1.93</speed>
  <fix>3d</fix>
</trkpt>
<trkpt lat="40.0713435" lon="-105.2294327">
  <ele>1583.03</ele>
  <time>2026-08-29T19:30:03Z</time>
  <course>327.54</course>
  <speed>1.9082976707002501</speed>
  <fix>3d</fix>
</trkpt>
<trkpt lat="40.0713402" lon="-105.2294301">
  <ele>1583.0</ele>
  <time>2026-08-29T19:30:03Z</time>
  <course>326.44</course>
  <speed>1.93</speed>
  <fix>3d</fix>
</trkpt>
<trkpt lat="40.0713449" lon="-105.229434">
  <ele>1583.03</ele>
  <time>2026-08-29T19:30:03Z</time>
  <course>327.54</course>
  <speed>1.9082976707002501</speed>
  <fix>3d</fix>
</trkpt>
<trkpt lat="40.0713431" lon="-105.2294326">
  <ele>1583.0</ele>
  <time>2026-08-29T19:30:03Z</time>
  <course>326.44</course>
  <speed>1.93</speed>
  <fix>3d</fix>
</trkpt>
<trkpt lat="40.0713464" lon="-105.2294353">
  <ele>1583.03</ele>
  <time>2026-08-29T19:30:03Z</time>
  <course>327.54</course>
  <speed>1.9166898549321953</speed>
  <fix>3d</fix>
</trkpt>
<trkpt lat="40.0713431" lon="-105.2294326">
  <ele>1583.0</ele>
  <time>2026-08-29T19:30:03Z</time>
  <course>326.44</course>
  <speed>1.93</speed>
  <fix>3d</fix>
</trkpt>
<trkpt lat="40.0713482" lon="-105.2294368">
  <ele>1583.03</ele>
  <time>2026-08-29T19:30:03Z</time>
  <course>327.54</course>
  <speed>1.9166898549321953</speed>
  <fix>3d</fix>
</trkpt>
<trkpt lat="40.071346" lon="-105.2294351">
  <ele>1583.0</ele>
  <time>2026-08-29T19:30:03Z</time>
  <course>326.44</course>
  <speed>1.93</speed>
  <fix>3d</fix>
</trkpt>
<trkpt lat="40.0713496" lon="-105.229438">
  <ele>1583.03</ele>
  <time>2026-08-29T19:30:03Z</time>
  <course>327.54</course>
  <speed>1.9166898549321953</speed>
  <fix>3d</fix>
</trkpt>
<trkpt lat="40.071346" lon="-105.2294351">
  <ele>1583.0</ele>
  <time>2026-08-29T19:30:03Z</time>
  <course>326.44</course>
  <speed>1.93</speed>
  <fix>3d</fix>
</trkpt>
<trkpt lat="40.0713511" lon="-105.2294393">
  <ele>1583.04</ele>
  <time>2026-08-29T19:30:03Z</time>
  <course>327.54</course>
  <speed>1.9166898549321953</speed>
  <fix>3d</fix>
</trkpt>
<trkpt lat="40.0713489" lon="-105.2294376">
  <ele>1583.0</ele>
  <time>2026-08-29T19:30:03Z</time>
  <course>326.44</course>
  <speed>1.93</speed>
  <fix>3d</fix>
</trkpt>
<trkpt lat="40.0713525" lon="-105.2294406">
  <ele>1583.04</ele>
  <time>2026-08-29T19:30:03Z</time>
  <course>327.54</course>
  <speed>1.9166898549321953</speed>
  <fix>3d</fix>
</trkpt>
<trkpt lat="40.0713489" lon="-105.2294376">
  <ele>1583.0</ele>
  <time>2026-08-29T19:30:03Z</time>
  <course>326.44</course>
  <speed>1.93</speed>
  <fix>3d</fix>
</trkpt>
<trkpt lat="40.071354" lon="-105.2294418">
  <ele>1583.04</ele>
  <time>2026-08-29T19:30:03Z</time>
  <course>327.54</course>
  <speed>1.9166898549321953</speed>
  <fix>3d</fix>
</trkpt>
<trkpt lat="40.0713518" lon="-105.2294402">
  <ele>1583.0</ele>
  <time>2026-08-29T19:30:03Z</time>
  <course>326.44</course>
  <speed>1.93</speed>
  <fix>3d</fix>
</trkpt>
<trkpt lat="40.0713554" lon="-105.2294431">
  <ele>1583.04</ele>
  <time>2026-08-29T19:30:03Z</time>
  <course>327.54</course>
  <speed>1.9166898549321953</speed>
  <fix>3d</fix>
</trkpt>
<trkpt lat="40.0713518" lon="-105.2294402">
  <ele>1583.0</ele>
  <time>2026-08-29T19:30:03Z</time>
  <course>326.44</course>
  <speed>1.93</speed>
  <fix>3d</fix>
</trkpt>
<trkpt lat="40.0713569" lon="-105.2294443">
  <ele>1583.04</ele>
  <time>2026-08-29T19:30:03Z</time>
  <course>327.54</course>
  <speed>1.9166898549321953</speed>
  <fix>3d</fix>
</trkpt>
<trkpt lat="40.0713548" lon="-105.2294427">
  <ele>1583.0</ele>
  <time>2026-08-29T19:30:03Z</time>
  <course>326.44</course>
  <speed>1.93</speed>
  <fix>3d</fix>
</trkpt>
<trkpt lat="40.0713583" lon="-105.2294456">
  <ele>1583.04</ele>
  <time>2026-08-29T19:30:03Z</time>
  <course>327.54</course>
  <speed>1.9166898549321953</speed>
  <fix>3d</fix>
</trkpt>
<trkpt lat="40.0713548" lon="-105.2294427">
  <ele>1583.0</ele>
  <time>2026-08-29T19:30:03Z</time>
  <course>326.44</course>
  <speed>1.93</speed>
  <fix>3d</fix>
</trkpt>
<trkpt lat="40.0713598" lon="-105.2294468">
  <ele>1583.04</ele>
  <time>2026-08-29T19:30:03Z</time>
  <course>327.54</course>
  <speed>1.9082976707002501</speed>
  <fix>3d</fix>
</trkpt>
<trkpt lat="40.0713577" lon="-105.2294452">
  <ele>1583.0</ele>
  <time>2026-08-29T19:30:03Z</time>
  <course>326.44</course>
  <speed>1.93</speed>
  <fix>3d</fix>
</trkpt>
<trkpt lat="40.0713612" lon="-105.2294481">
  <ele>1583.05</ele>
  <time>2026-08-29T19:30:03Z</time>
  <course>327.55</course>
  <speed>1.9082976707002501</speed>
  <fix>3d</fix>
</trkpt>
<trkpt lat="40.0713577" lon="-105.2294452">
  <ele>1583.0</ele>
  <time>2026-08-29T19:30:03Z</time>
  <course>326.44</course>
  <speed>1.93</speed>
  <fix>3d</fix>
</trkpt>
<trkpt lat="40.0713626" lon="-105.2294493">
  <ele>1583.05</ele>
  <time>2026-08-29T19:30:03Z</time>
  <course>327.55</course>
  <speed>1.9082976707002501</speed>
  <fix>3d</fix>
</trkpt>
<trkpt lat="40.0713606" lon="-105.2294477">
  <ele>1583.0</ele>
  <time>2026-08-29T19:30:03Z</time>
  <course>326.44</course>
  <speed>1.93</speed>
  <fix>3d</fix>
</trkpt>
<trkpt lat="40.0713638" lon="-105.2294503">
  <ele>1583.05</ele>
  <time>2026-08-29T19:30:03Z</time>
  <course>327.55</course>
  <speed>1.9082976707002501</speed>
  <fix>3d</fix>
</trkpt>
<trkpt lat="40.0713606" lon="-105.2294477">
  <ele>1583.0</ele>
  <time>2026-08-29T19:30:03Z</time>
  <course>326.44</course>
  <speed>1.93</speed>
  <fix>3d</fix>
</trkpt>
<trkpt lat="40.0713652" lon="-105.2294516">
  <ele>1583.05</ele>
  <time>2026-08-29T19:30:03Z</time>
  <course>327.55</course>
  <speed>1.9082976707002501</speed>
  <fix>3d</fix>
</trkpt>
<trkpt lat="40.0713635" lon="-105.2294502">
  <ele>1583.0</ele>
  <time>2026-08-29T19:30:03Z</time>
  <course>326.44</course>
  <speed>1.93</speed>
  <fix>3d</fix>
</trkpt>
<trkpt lat="40.0713667" lon="-105.2294528">
  <ele>1583.05</ele>
  <time>2026-08-29T19:30:03Z</time>
  <course>327.55</course>
  <speed>1.9082976707002501</speed>
  <fix>3d</fix>
</trkpt>
<trkpt lat="40.0713635" lon="-105.2294502">
  <ele>1583.0</ele>
  <time>2026-08-29T19:30:03Z</time>
  <course>326.44</course>
  <speed>1.93</speed>
  <fix>3d</fix>
</trkpt>
<trkpt lat="40.0713681" lon="-105.2294541">
  <ele>1583.05</ele>
  <time>2026-08-29T19:30:03Z</time>
  <course>327.55</course>
  <speed>1.9082976707002501</speed>
  <fix>3d</fix>
</trkpt>
<trkpt lat="40.0713664" lon="-105.2294527">
  <ele>1583.0</ele>
  <time>2026-08-29T19:30:03Z</time>
  <course>326.44</course>
  <speed>1.93</speed>
  <fix>3d</fix>
</trkpt>
<trkpt lat="40.0713696" lon="-105.2294553">
  <ele>1583.05</ele>
  <time>2026-08-29T19:30:03Z</time>
  <course>327.55</course>
  <speed>1.9082976707002501</speed>
  <fix>3d</fix>
</trkpt>
<trkpt lat="40.0713664" lon="-105.2294527">
  <ele>1583.0</ele>
  <time>2026-08-29T19:30:03Z</time>
  <course>326.44</course>
  <speed>1.93</speed>
  <fix>3d</fix>
</trkpt>
<trkpt lat="40.0713711" lon="-105.2294566">
  <ele>1583.05</ele>
  <time>2026-08-29T19:30:03Z</time>
  <course>327.55</course>
  <speed>1.9082976707002501</speed>
  <fix>3d</fix>
</trkpt>
<trkpt lat="40.0713693" lon="-105.2294553">
  <ele>1583.0</ele>
  <time>2026-08-29T19:30:03Z</time>
  <course>326.44</course>
  <speed>1.93</speed>
  <fix>3d</fix>
</trkpt>
<trkpt lat="40.0713725" lon="-105.2294579">
  <ele>1583.06</ele>
  <time>2026-08-29T19:30:03Z</time>
  <course>327.55</course>
  <speed>1.9166898549321953</speed>
  <fix>3d</fix>
</trkpt>
<trkpt lat="40.0713693" lon="-105.2294553">
  <ele>1583.0</ele>
  <time>2026-08-29T19:30:03Z</time>
  <course>326.44</course>
  <speed>1.93</speed>
  <fix>3d</fix>
</trkpt>
<trkpt lat="40.071374" lon="-105.2294591">
  <ele>1583.06</ele>
  <time>2026-08-29T19:30:03Z</time>
  <course>327.55</course>
  <speed>1.9166898549321953</speed>
  <fix>3d</fix>
</trkpt>
<trkpt lat="40.0713722" lon="-105.2294578">
  <ele>1583.0</ele>
  <time>2026-08-29T19:30:03Z</time>
  <course>326.44</course>
  <speed>1.93</speed>
  <fix>3d</fix>
</trkpt>
<trkpt lat="40.0713755" lon="-105.2294604">
  <ele>1583.06</ele>
  <time>2026-08-29T19:30:03Z</time>
  <course>327.55</course>
  <speed>1.9166898549321953</speed>
  <fix>3d</fix>
</trkpt>
<trkpt lat="40.0713722" lon="-105.2294578">
  <ele>1583.0</ele>
  <time>2026-08-29T19:30:03Z</time>
  <course>326.44</course>
  <speed>1.93</speed>
  <fix>3d</fix>
</trkpt>
<trkpt lat="40.0713769" lon="-105.2294617">
  <ele>1583.06</ele>
  <time>2026-08-29T19:30:03Z</time>
  <course>327.55</course>
  <speed>1.9166898549321953</speed>
  <fix>3d</fix>
</trkpt>
<trkpt lat="40.0713751" lon="-105.2294603">
  <ele>1583.0</ele>
  <time>2026-08-29T19:30:03Z</time>
  <course>326.44</course>
  <speed>1.93</speed>
  <fix>3d</fix>
</trkpt>
<trkpt lat="40.0713787" lon="-105.2294632">
  <ele>1583.06</ele>
  <time>2026-08-29T19:30:03Z</time>
  <course>327.55</course>
  <speed>1.9166898549321953</speed>
  <fix>3d</fix>
</trkpt>
<trkpt lat="40.0713751" lon="-105.2294603">
  <ele>1583.0</ele>
  <time>2026-08-29T19:30:03Z</time>
  <course>326.44</course>
  <speed>1.93</speed>
  <fix>3d</fix>
</trkpt>
<trkpt lat="40.0713801" lon="-105.2294645">
  <ele>1583.05</ele>
  <time>2026-08-29T19:30:03Z</time>
  <course>327.55</course>
  <speed>1.9166898549321953</speed>
  <fix>3d</fix>
</trkpt>
<trkpt lat="40.071378" lon="-105.2294628">
  <ele>1583.0</ele>
  <time>2026-08-29T19:30:03Z</time>
  <course>326.44</course>
  <speed>1.93</speed>
  <fix>3d</fix>
</trkpt>
<trkpt lat="40.0713816" lon="-105.2294657">
  <ele>1583.05</ele>
  <time>2026-08-29T19:30:03Z</time>
  <course>327.55</course>
  <speed>1.9166898549321953</speed>
  <fix>3d</fix>
</trkpt>
<trkpt lat="40.071378" lon="-105.2294628">
  <ele>1583.0</ele>
  <time>2026-08-29T19:30:03Z</time>
  <course>326.44</course>
  <speed>1.93</speed>
  <fix>3d</fix>
</trkpt>
<trkpt lat="40.0713831" lon="-105.229467">
  <ele>1583.05</ele>
  <time>2026-08-29T19:30:03Z</time>
  <course>327.55</course>
  <speed>1.9166898549321953</speed>
  <fix>3d</fix>
</trkpt>
<trkpt lat="40.0713809" lon="-105.2294653">
  <ele>1583.0</ele>
  <time>2026-08-29T19:30:03Z</time>
  <course>326.44</course>
  <speed>1.93</speed>
  <fix>3d</fix>
</trkpt>
<trkpt lat="40.0713845" lon="-105.2294683">
  <ele>1583.05</ele>
  <time>2026-08-29T19:30:03Z</time>
  <course>327.55</course>
  <speed>1.9221342304844373</speed>
  <fix>3d</fix>
</trkpt>
<trkpt lat="40.0713809" lon="-105.2294653">
  <ele>1583.0</ele>
  <time>2026-08-29T19:30:03Z</time>
  <course>326.44</course>
  <speed>1.93</speed>
  <fix>3d</fix>
</trkpt>
<trkpt lat="40.071386" lon="-105.2294695">
  <ele>1583.05</ele>
  <time>2026-08-29T19:30:03Z</time>
  <course>327.55</course>
  <speed>1.9166898549321953</speed>
  <fix>3d</fix>
</trkpt>
<trkpt lat="40.0713838" lon="-105.2294679">
  <ele>1583.0</ele>
  <time>2026-08-29T19:30:03Z</time>
  <course>326.44</course>
  <speed>1.93</speed>
  <fix>3d</fix>
</trkpt>
<trkpt lat="40.0713874" lon="-105.2294708">
  <ele>1583.04</ele>
  <time>2026-08-29T19:30:03Z</time>
  <course>327.55</course>
  <speed>1.9166898549321953</speed>
  <fix>3d</fix>
</trkpt>
<trkpt lat="40.0713838" lon="-105.2294679">
  <ele>1583.0</ele>
  <time>2026-08-29T19:30:03Z</time>
  <course>326.44</course>
  <speed>1.93</speed>
  <fix>3d</fix>
</trkpt>
<trkpt lat="40.0713889" lon="-105.229472">
  <ele>1583.04</ele>
  <time>2026-08-29T19:30:03Z</time>
  <course>327.56</course>
  <speed>1.9166898549321953</speed>
  <fix>3d</fix>
</trkpt>
<trkpt lat="40.0713867" lon="-105.2294704">
  <ele>1583.0</ele>
  <time>2026-08-29T19:30:03Z</time>
  <course>326.44</course>
  <speed>1.93</speed>
  <fix>3d</fix>
</trkpt>
<trkpt lat="40.0713903" lon="-105.2294733">
  <ele>1583.04</ele>
  <time>2026-08-29T19:30:03Z</time>
  <course>327.56</course>
  <speed>1.9166898549321953</speed>
  <fix>3d</fix>
</trkpt>
<trkpt lat="40.0713867" lon="-105.2294704">
  <ele>1583.0</ele>
  <time>2026-08-29T19:30:03Z</time>
  <course>326.44</course>
  <speed>1.93</speed>
  <fix>3d</fix>
</trkpt>
<trkpt lat="40.0713918" lon="-105.2294745">
  <ele>1583.04</ele>
  <time>2026-08-29T19:30:03Z</time>
  <course>327.56</course>
  <speed>1.9166898549321953</speed>
  <fix>3d</fix>
</trkpt>
<trkpt lat="40.0713896" lon="-105.2294729">
  <ele>1583.0</ele>
  <time>2026-08-29T19:30:03Z</time>
  <course>326.44</course>
  <speed>1.93</speed>
  <fix>3d</fix>
</trkpt>
<trkpt lat="40.0713932" lon="-105.2294758">
  <ele>1583.04</ele>
  <time>2026-08-29T19:30:03Z</time>
  <course>327.33</course>
  <speed>1.9137659209004638</speed>
  <fix>3d</fix>
</trkpt>
<trkpt lat="40.0713896" lon="-105.2294729">
  <ele>1583.0</ele>
  <time>2026-08-29T19:30:03Z</time>
  <course>326.44</course>
  <speed>1.93</speed>
  <fix>3d</fix>
</trkpt>
<trkpt lat="40.0713943" lon="-105.2294768">
  <ele>1583.04</ele>
  <time>2026-08-29T19:30:03Z</time>
  <course>326.63</course>
  <speed>1.9165072397463048</speed>
  <fix>3d</fix>
</trkpt>
<trkpt lat="40.0713925" lon="-105.2294754">
  <ele>1583.0</ele>
  <time>2026-08-29T19:30:03Z</time>
  <course>325.98</course>
  <speed>1.93</speed>
  <fix>3d</fix>
</trkpt>
<trkpt lat="40.0713958" lon="-105.2294781">
  <ele>1583.04</ele>
  <time>2026-08-29T19:30:03Z</time>
  <course>325.13</course>
  <speed>1.914601786273062</speed>
  <fix>3d</fix>
</trkpt>
<trkpt lat="40.0713925" lon="-105.2294754">
  <ele>1583.0</ele>
  <time>2026-08-29T19:30:03Z</time>
  <course>325.98</course>
  <speed>1.93</speed>
  <fix>3d</fix>
</trkpt>
<trkpt lat="40.0713971" lon="-105.2294795">
  <ele>1583.04</ele>
  <time>2026-08-29T19:30:03Z</time>
  <course>322.81</course>
  <speed>1.91637678967368</speed>
  <fix>3d</fix>
</trkpt>
<trkpt lat="40.0713954" lon="-105.229478">
  <ele>1583.0</ele>
  <time>2026-08-29T19:30:03Z</time>
  <course>323.59</course>
  <speed>1.93</speed>
  <fix>3d</fix>
</trkpt>
<trkpt lat="40.0713985" lon="-105.229481">
  <ele>1583.04</ele>
  <time>2026-08-29T19:30:03Z</time>
  <course>319.51</course>
  <speed>1.9134262462922367</speed>
  <fix>3d</fix>
</trkpt>
<trkpt lat="40.0713954" lon="-105.229478">
  <ele>1583.0</ele>
  <time>2026-08-29T19:30:03Z</time>
  <course>323.59</course>
  <speed>1.93</speed>
  <fix>3d</fix>
</trkpt>
<trkpt lat="40.0713997" lon="-105.2294825">
  <ele>1583.04</ele>
  <time>2026-08-29T19:30:03Z</time>
  <course>315.09</course>
  <speed>1.9093978108293725</speed>
  <fix>3d</fix>
</trkpt>
<trkpt lat="40.071398" lon="-105.2294809">
  <ele>1583.0</ele>
  <time>2026-08-29T19:30:03Z</time>
  <course>317.8</course>
  <speed>1.93</speed>
  <fix>3d</fix>
</trkpt>
<trkpt lat="40.0714009" lon="-105.2294843">
  <ele>1583.04</ele>
  <time>2026-08-29T19:30:03Z</time>
  <course>309.57</course>
  <speed>1.892828571212935</speed>
  <fix>3d</fix>
</trkpt>
<trkpt lat="40.071398" lon="-105.2294809">
  <ele>1583.0</ele>
  <time>2026-08-29T19:30:03Z</time>
  <course>317.8</course>
  <speed>1.93</speed>
  <fix>3d</fix>
</trkpt>
<trkpt lat="40.0714018" lon="-105.2294861">
  <ele>1583.04</ele>
  <time>2026-08-29T19:30:03Z</time>
  <course>303.18</course>
  <speed>1.8783237207680683</speed>
  <fix>3d</fix>
</trkpt>
<trkpt lat="40.0714004" lon="-105.2294842">
  <ele>1583.0</ele>
  <time>2026-08-29T19:30:03Z</time>
  <course>307.99</course>
  <speed>1.9</speed>
  <fix>3d</fix>
</trkpt>
<trkpt lat="40.0714026" lon="-105.2294881">
  <ele>1583.05</ele>
  <time>2026-08-29T19:30:03Z</time>
  <course>297.15</course>
  <speed>1.8650737250843463</speed>
  <fix>3d</fix>
</trkpt>
<trkpt lat="40.0714004" lon="-105.2294842">
  <ele>1583.0</ele>
  <time>2026-08-29T19:30:03Z</time>
  <course>307.99</course>
  <speed>1.9</speed>
  <fix>3d</fix>
</trkpt>
<trkpt lat="40.0714033" lon="-105.2294902">
  <ele>1583.05</ele>
  <time>2026-08-29T19:30:03Z</time>
  <course>291.99</course>
  <speed>1.84808008484481</speed>
  <fix>3d</fix>
</trkpt>
<trkpt lat="40.0714022" lon="-105.2294879">
  <ele>1583.0</ele>
  <time>2026-08-29T19:30:03Z</time>
  <course>296.47</course>
  <speed>1.87</speed>
  <fix>3d</fix>
</trkpt>
<trkpt lat="40.0714038" lon="-105.2294923">
  <ele>1583.05</ele>
  <time>2026-08-29T19:30:03Z</time>
  <course>287.68</course>
  <speed>1.8420097719610502</speed>
  <fix>3d</fix>
</trkpt>
<trkpt lat="40.0714022" lon="-105.2294879">
  <ele>1583.0</ele>
  <time>2026-08-29T19:30:03Z</time>
  <course>296.47</course>
  <speed>1.87</speed>
  <fix>3d</fix>
</trkpt>
<trkpt lat="40.0714042" lon="-105.2294949">
  <ele>1583.05</ele>
  <time>2026-08-29T19:30:03Z</time>
  <course>283.61</course>
  <speed>1.8494593804677084</speed>
  <fix>3d</fix>
</trkpt>
<trkpt lat="40.0714035" lon="-105.2294919">
  <ele>1583.0</ele>
  <time>2026-08-29T19:30:03Z</time>
  <course>286.96</course>
  <speed>1.85</speed>
  <fix>3d</fix>
</trkpt>
<trkpt lat="40.0714045" lon="-105.2294971">
  <ele>1583.05</ele>
  <time>2026-08-29T19:30:03Z</time>
  <course>281.11</course>
  <speed>1.854427135263071</speed>
  <fix>3d</fix>
</trkpt>
<trkpt lat="40.0714035" lon="-105.2294919">
  <ele>1583.0</ele>
  <time>2026-08-29T19:30:03Z</time>
  <course>286.96</course>
  <speed>1.85</speed>
  <fix>3d</fix>
</trkpt>
<trkpt lat="40.0714047" lon="-105.2294993">
  <ele>1583.05</ele>
  <time>2026-08-29T19:30:03Z</time>
  <course>279.37</course>
  <speed>1.8767258723638889</speed>
  <fix>3d</fix>
</trkpt>
<trkpt lat="40.0714043" lon="-105.2294962">
  <ele>1583.0</ele>
  <time>2026-08-29T19:30:03Z</time>
  <course>280.79</course>
  <speed>1.86</speed>
  <fix>3d</fix>
</trkpt>
<trkpt lat="40.0714049" lon="-105.2295016">
  <ele>1583.06</ele>
  <time>2026-08-29T19:30:03Z</time>
  <course>277.8</course>
  <speed>1.9005525512334562</speed>
  <fix>3d</fix>
</trkpt>
<trkpt lat="40.0714043" lon="-105.2294962">
  <ele>1583.0</ele>
  <time>2026-08-29T19:30:03Z</time>
  <course>280.79</course>
  <speed>1.86</speed>
  <fix>3d</fix>
</trkpt>
<trkpt lat="40.0714051" lon="-105.2295038">
  <ele>1583.06</ele>
  <time>2026-08-29T19:30:03Z</time>
  <course>276.32</course>
  <speed>1.925850461484484</speed>
  <fix>3d</fix>
</trkpt>
<trkpt lat="40.0714047" lon="-105.2295006">
  <ele>1583.0</ele>
  <time>2026-08-29T19:30:03Z</time>
  <course>276.98</course>
  <speed>1.9</speed>
  <fix>3d</fix>
</trkpt>
<trkpt lat="40.0714052" lon="-105.2295061">
  <ele>1583.06</ele>
  <time>2026-08-29T19:30:03Z</time>
  <course>274.95</course>
  <speed>1.9531000998412753</speed>
  <fix>3d</fix>
</trkpt>
<trkpt lat="40.0714047" lon="-105.2295006">
  <ele>1583.0</ele>
  <time>2026-08-29T19:30:03Z</time>
  <course>276.98</course>
  <speed>1.9</speed>
  <fix>3d</fix>
</trkpt>
<trkpt lat="40.0714053" lon="-105.2295084">
  <ele>1583.06</ele>
  <time>2026-08-29T19:30:03Z</time>
  <course>273.67</course>
  <speed>1.9812369873389704</speed>
  <fix>3d</fix>
</trkpt>
<trkpt lat="40.0714051" lon="-105.229505">
  <ele>1583.0</ele>
  <time>2026-08-29T19:30:03Z</time>
  <course>274.09</course>
  <speed>1.95</speed>
  <fix>3d</fix>
</trkpt>
<trkpt lat="40.0714053" lon="-105.2295108">
  <ele>1583.06</ele>
  <time>2026-08-29T19:30:03Z</time>
  <course>272.47</course>
  <speed>2.0102238681301143</speed>
  <fix>3d</fix>
</trkpt>
<trkpt lat="40.0714051" lon="-105.229505">
  <ele>1583.0</ele>
  <time>2026-08-29T19:30:03Z</time>
  <course>274.09</course>
  <speed>1.95</speed>
  <fix>3d</fix>
</trkpt>
<trkpt lat="40.0714053" lon="-105.2295131">
  <ele>1583.06</ele>
  <time>2026-08-29T19:30:03Z</time>
  <course>271.36</course>
  <speed>2.03</speed>
  <fix>3d</fix>
</trkpt>
<trkpt lat="40.0714052" lon="-105.2295097">
  <ele>1583.0</ele>
  <time>2026-08-29T19:30:03Z</time>
  <course>271.57</course>
  <speed>2.0</speed>
  <fix>3d</fix>
</trkpt>
<trkpt lat="40.0714053" lon="-105.2295155">
  <ele>1583.06</ele>
  <time>2026-08-29T19:30:03Z</time>
  <course>270.32</course>
  <speed>2.050390206765532</speed>
  <fix>3d</fix>
</trkpt>
<trkpt lat="40.0714052" lon="-105.2295097">
  <ele>1583.0</ele>
  <time>2026-08-29T19:30:03Z</time>
  <course>271.57</course>
  <speed>2.0</speed>
  <fix>3d</fix>
</trkpt>
<trkpt lat="40.0714052" lon="-105.2295179">
  <ele>1583.06</ele>
  <time>2026-08-29T19:30:03Z</time>
  <course>269.36</course>
  <speed>2.0715453169071636</speed>
  <fix>3d</fix>
</trkpt>
<trkpt lat="40.0714052" lon="-105.2295144">
  <ele>1583.0</ele>
  <time>2026-08-29T19:30:03Z</time>
  <course>269.39</course>
  <speed>2.05</speed>
  <fix>3d</fix>
</trkpt>
<trkpt lat="40.0714051" lon="-105.2295199">
  <ele>1583.06</ele>
  <time>2026-08-29T19:30:03Z</time>
  <course>268.64</course>
  <speed>2.092390976849212</speed>
  <fix>3d</fix>
</trkpt>
<trkpt lat="40.0714052" lon="-105.2295144">
  <ele>1583.0</ele>
  <time>2026-08-29T19:30:03Z</time>
  <course>269.39</course>
  <speed>2.05</speed>
  <fix>3d</fix>
</trkpt>
<trkpt lat="40.0714051" lon="-105.2295224">
  <ele>1583.05</ele>
  <time>2026-08-29T19:30:03Z</time>
  <course>267.81</course>
  <speed>2.104019961882491</speed>
  <fix>3d</fix>
</trkpt>
<trkpt lat="40.0714052" lon="-105.2295193">
  <ele>1583.0</ele>
  <time>2026-08-29T19:30:03Z</time>
  <course>267.51</course>
  <speed>2.09</speed>
  <fix>3d</fix>
</trkpt>
<trkpt lat="40.071405" lon="-105.2295249">
  <ele>1583.05</ele>
  <time>2026-08-29T19:30:03Z</time>
  <course>267.04</course>
  <speed>2.116057655169159</speed>
  <fix>3d</fix>
</trkpt>
<trkpt lat="40.0714052" lon="-105.2295193">
  <ele>1583.0</ele>
  <time>2026-08-29T19:30:03Z</time>
  <course>267.51</course>
  <speed>2.09</speed>
  <fix>3d</fix>
</trkpt>
<trkpt lat="40.0714048" lon="-105.2295273">
  <ele>1583.05</ele>
  <time>2026-08-29T19:30:03Z</time>
  <course>266.33</course>
  <speed>2.128497122384712</speed>
  <fix>3d</fix>
</trkpt>
<trkpt lat="40.0714051" lon="-105.2295243">
  <ele>1583.0</ele>
  <time>2026-08-29T19:30:03Z</time>
  <course>265.91</course>
  <speed>2.12</speed>
  <fix>3d</fix>
</trkpt>
<trkpt lat="40.0714046" lon="-105.2295298">
  <ele>1583.05</ele>
  <time>2026-08-29T19:30:03Z</time>
  <course>265.68</course>
  <speed>2.1303755537463345</speed>
  <fix>3d</fix>
</trkpt>
<trkpt lat="40.0714051" lon="-105.2295243">
  <ele>1583.0</ele>
  <time>2026-08-29T19:30:03Z</time>
  <course>265.91</course>
  <speed>2.12</speed>
  <fix>3d</fix>
</trkpt>
<trkpt lat="40.0714044" lon="-105.2295324">
  <ele>1583.05</ele>
  <time>2026-08-29T19:30:03Z</time>
  <course>265.08</course>
  <speed>2.1434784813475503</speed>
  <fix>3d</fix>
</trkpt>
<trkpt lat="40.0714047" lon="-105.2295293">
  <ele>1583.0</ele>
  <time>2026-08-29T19:30:03Z</time>
  <course>264.54</course>
  <speed>2.14</speed>
  <fix>3d</fix>
</trkpt>
<trkpt lat="40.0714042" lon="-105.2295349">
  <ele>1583.05</ele>
  <time>2026-08-29T19:30:03Z</time>
  <course>264.53</course>
  <speed>2.145809870421888</speed>
  <fix>3d</fix>
</trkpt>
<trkpt lat="40.0714047" lon="-105.2295293">
  <ele>1583.0</ele>
  <time>2026-08-29T19:30:03Z</time>
  <course>264.54</course>
  <speed>2.14</speed>
  <fix>3d</fix>
</trkpt>
<trkpt lat="40.071404" lon="-105.2295375">
  <ele>1583.05</ele>
  <time>2026-08-29T19:30:03Z</time>
  <course>264.02</course>
  <speed>2.1582400237230335</speed>
  <fix>3d</fix>
</trkpt>
<trkpt lat="40.0714044" lon="-105.2295343">
  <ele>1583.0</ele>
  <time>2026-08-29T19:30:03Z</time>
  <course>263.38</course>
  <speed>2.15</speed>
  <fix>3d</fix>
</trkpt>
<trkpt lat="40.0714037" lon="-105.22954">
  <ele>1583.05</ele>
  <time>2026-08-29T19:30:03Z</time>
  <course>263.55</course>
  <speed>2.1595601403989657</speed>
  <fix>3d</fix>
</trkpt>
<trkpt lat="40.0714044" lon="-105.2295343">
  <ele>1583.0</ele>
  <time>2026-08-29T19:30:03Z</time>
  <course>263.38</course>
  <speed>2.15</speed>
  <fix>3d</fix>
</trkpt>
<trkpt lat="40.0714035" lon="-105.2295425">
  <ele>1583.05</ele>
  <time>2026-08-29T19:30:03Z</time>
  <course>263.13</course>
  <speed>2.1623366990364845</speed>
  <fix>3d</fix>
</trkpt>
<trkpt lat="40.0714038" lon="-105.2295393">
  <ele>1583.0</ele>
  <time>2026-08-29T19:30:03Z</time>
  <course>262.4</course>
  <speed>2.16</speed>
  <fix>3d</fix>
</trkpt>
<trkpt lat="40.0714031" lon="-105.2295456">
  <ele>1583.05</ele>
  <time>2026-08-29T19:30:03Z</time>
  <course>262.66</course>
  <speed>2.155411793602327</speed>
  <fix>3d</fix>
</trkpt>
<trkpt lat="40.0714038" lon="-105.2295393">
  <ele>1583.0</ele>
  <time>2026-08-29T19:30:03Z</time>
  <course>262.4</course>
  <speed>2.16</speed>
  <fix>3d</fix>
</trkpt>
<trkpt lat="40.0714028" lon="-105.2295481">
  <ele>1583.05</ele>
  <time>2026-08-29T19:30:03Z</time>
  <course>262.31</course>
  <speed>2.156965461012299</speed>
  <fix>3d</fix>
</trkpt>
<trkpt lat="40.0714033" lon="-105.2295444">
  <ele>1583.0</ele>
  <time>2026-08-29T19:30:03Z</time>
  <course>261.57</course>
  <speed>2.17</speed>
  <fix>3d</fix>
</trkpt>
<trkpt lat="40.0714025" lon="-105.2295507">
  <ele>1583.05</ele>
  <time>2026-08-29T19:30:03Z</time>
  <course>262.0</course>
  <speed>2.158564337702261</speed>
  <fix>3d</fix>
</trkpt>
<trkpt lat="40.0714033" lon="-105.2295444">
  <ele>1583.0</ele>
  <time>2026-08-29T19:30:03Z</time>
  <course>261.57</course>
  <speed>2.17</speed>
  <fix>3d</fix>
</trkpt>
<trkpt lat="40.0714022" lon="-105.2295532">
  <ele>1583.05</ele>
  <time>2026-08-29T19:30:03Z</time>
  <course>261.72</course>
  <speed>2.160208323287363</speed>
  <fix>3d</fix>
</trkpt>
<trkpt lat="40.0714027" lon="-105.2295494">
  <ele>1583.0</ele>
  <time>2026-08-29T19:30:03Z</time>
  <course>260.89</course>
  <speed>2.17</speed>
  <fix>3d</fix>
</trkpt>
<trkpt lat="40.0714019" lon="-105.2295557">
  <ele>1583.05</ele>
  <time>2026-08-29T19:30:03Z</time>
  <course>261.46</course>
  <speed>2.1618973148602594</speed>
  <fix>3d</fix>
</trkpt>
<trkpt lat="40.0714027" lon="-105.2295494">
  <ele>1583.0</ele>
  <time>2026-08-29T19:30:03Z</time>
  <course>260.89</course>
  <speed>2.17</speed>
  <fix>3d</fix>
</trkpt>
<trkpt lat="40.0714015" lon="-105.2295582">
  <ele>1583.05</ele>
  <time>2026-08-29T19:30:03Z</time>
  <course>261.23</course>
  <speed>2.1520455385516355</speed>
  <fix>3d</fix>
</trkpt>
<trkpt lat="40.0714021" lon="-105.2295545">
  <ele>1583.0</ele>
  <time>2026-08-29T19:30:03Z</time>
  <course>260.33</course>
  <speed>2.17</speed>
  <fix>3d</fix>
</trkpt>
<trkpt lat="40.0714012" lon="-105.2295607">
  <ele>1583.05</ele>
  <time>2026-08-29T19:30:03Z</time>
  <course>261.03</course>
  <speed>2.1537873618349606</speed>
  <fix>3d</fix>
</trkpt>
<trkpt lat="40.0714021" lon="-105.2295545">
  <ele>1583.0</ele>
  <time>2026-08-29T19:30:03Z</time>
  <course>260.33</course>
  <speed>2.17</speed>
  <fix>3d</fix>
</trkpt>
<trkpt lat="40.0714009" lon="-105.2295632">
  <ele>1583.05</ele>
  <time>2026-08-29T19:30:03Z</time>
  <course>260.85</course>
  <speed>2.145739965606271</speed>
  <fix>3d</fix>
</trkpt>
<trkpt lat="40.0714014" lon="-105.2295594">
  <ele>1583.0</ele>
  <time>2026-08-29T19:30:03Z</time>
  <course>259.89</course>
  <speed>2.16</speed>
  <fix>3d</fix>
</trkpt>
<trkpt lat="40.0714005" lon="-105.2295657">
  <ele>1583.05</ele>
  <time>2026-08-29T19:30:03Z</time>
  <course>260.69</course>
  <speed>2.145739965606271</speed>
  <fix>3d</fix>
</trkpt>
<trkpt lat="40.0714014" lon="-105.2295594">
  <ele>1583.0</ele>
  <time>2026-08-29T19:30:03Z</time>
  <course>259.89</course>
  <speed>2.16</speed>
  <fix>3d</fix>
</trkpt>
<trkpt lat="40.0714002" lon="-105.2295681">
  <ele>1583.05</ele>
  <time>2026-08-29T19:30:03Z</time>
  <course>260.55</course>
  <speed>2.145739965606271</speed>
  <fix>3d</fix>
</trkpt>
<trkpt lat="40.0714007" lon="-105.2295645">
  <ele>1583.0</ele>
  <time>2026-08-29T19:30:03Z</time>
  <course>259.54</course>
  <speed>2.16</speed>
  <fix>3d</fix>
</trkpt>
<trkpt lat="40.0713998" lon="-105.2295706">
  <ele>1583.05</ele>
  <time>2026-08-29T19:30:03Z</time>
  <course>260.43</course>
  <speed>2.137755832643195</speed>
  <fix>3d</fix>
</trkpt>
<trkpt lat="40.0714007" lon="-105.2295645">
  <ele>1583.0</ele>
  <time>2026-08-29T19:30:03Z</time>
  <course>259.54</course>
  <speed>2.16</speed>
  <fix>3d</fix>
</trkpt>
<trkpt lat="40.0713995" lon="-105.2295726">
  <ele>1583.06</ele>
  <time>2026-08-29T19:30:03Z</time>
  <course>260.35</course>
  <speed>2.137755832643195</speed>
  <fix>3d</fix>
</trkpt>
<trkpt lat="40.0714" lon="-105.2295695">
  <ele>1583.0</ele>
  <time>2026-08-29T19:30:03Z</time>
  <course>259.27</course>
  <speed>2.16</speed>
  <fix>3d</fix>
</trkpt>
<trkpt lat="40.0713992" lon="-105.2295751">
  <ele>1583.06</ele>
  <time>2026-08-29T19:30:03Z</time>
  <course>260.26</course>
  <speed>2.137755832643195</speed>
  <fix>3d</fix>
</trkpt>
<trkpt lat="40.0714" lon="-105.2295695">
  <ele>1583.0</ele>
  <time>2026-08-29T19:30:03Z</time>
  <course>259.27</course>
  <speed>2.16</speed>
  <fix>3d</fix>
</trkpt>
<trkpt lat="40.0713988" lon="-105.2295775">
  <ele>1583.06</ele>
  <time>2026-08-29T19:30:03Z</time>
  <course>260.18</course>
  <speed>2.1279332696304176</speed>
  <fix>3d</fix>
</trkpt>
<trkpt lat="40.0713992" lon="-105.2295744">
  <ele>1583.0</ele>
  <time>2026-08-29T19:30:03Z</time>
  <course>259.07</course>
  <speed>2.16</speed>
  <fix>3d</fix>
</trkpt>
<trkpt lat="40.0713984" lon="-105.22958">
  <ele>1583.07</ele>
  <time>2026-08-29T19:30:03Z</time>
  <course>260.13</course>
  <speed>2.1279332696304176</speed>
  <fix>3d</fix>
</trkpt>
<trkpt lat="40.0713992" lon="-105.2295744">
  <ele>1583.0</ele>
  <time>2026-08-29T19:30:03Z</time>
  <course>259.07</course>
  <speed>2.16</speed>
  <fix>3d</fix>
</trkpt>
<trkpt lat="40.0713981" lon="-105.2295825">
  <ele>1583.07</ele>
  <time>2026-08-29T19:30:03Z</time>
  <course>260.08</course>
  <speed>2.1279332696304176</speed>
  <fix>3d</fix>
</trkpt>
<trkpt lat="40.0713985" lon="-105.2295795">
  <ele>1583.0</ele>
  <time>2026-08-29T19:30:03Z</time>
  <course>258.94</course>
  <speed>2.15</speed>
  <fix>3d</fix>
</trkpt>
<trkpt lat="40.0713977" lon="-105.229585">
  <ele>1583.07</ele>
  <time>2026-08-29T19:30:03Z</time>
  <course>260.05</course>
  <speed>2.1279332696304176</speed>
  <fix>3d</fix>
</trkpt>
<trkpt lat="40.0713985" lon="-105.2295795">
  <ele>1583.0</ele>
  <time>2026-08-29T19:30:03Z</time>
  <course>258.94</course>
  <speed>2.15</speed>
  <fix>3d</fix>
</trkpt>
<trkpt lat="40.0713973" lon="-105.2295875">
  <ele>1583.08</ele>
  <time>2026-08-29T19:30:03Z</time>
  <course>260.02</course>
  <speed>2.1181123671797963</speed>
  <fix>3d</fix>
</trkpt>
<trkpt lat="40.0713978" lon="-105.2295844">
  <ele>1583.0</ele>
  <time>2026-08-29T19:30:03Z</time>
  <course>258.85</course>
  <speed>2.15</speed>
  <fix>3d</fix>
</trkpt>
<trkpt lat="40.071397" lon="-105.22959">
  <ele>1583.08</ele>
  <time>2026-08-29T19:30:03Z</time>
  <course>260.02</course>
  <speed>2.1181123671797963</speed>
  <fix>3d</fix>
</trkpt>
<trkpt lat="40.0713978" lon="-105.2295844">
  <ele>1583.0</ele>
  <time>2026-08-29T19:30:03Z</time>
  <course>258.85</course>
  <speed>2.15</speed>
  <fix>3d</fix>
</trkpt>
<trkpt lat="40.0713966" lon="-105.2295924">
  <ele>1583.08</ele>
  <time>2026-08-29T19:30:03Z</time>
  <course>260.02</course>
  <speed>2.1181123671797963</speed>
  <fix>3d</fix>
</trkpt>
<trkpt lat="40.071397" lon="-105.2295894">
  <ele>1583.0</ele>
  <time>2026-08-29T19:30:03Z</time>
  <course>258.82</course>
  <speed>2.15</speed>
  <fix>3d</fix>
</trkpt>
<trkpt lat="40.0713962" lon="-105.2295949">
  <ele>1583.08</ele>
  <time>2026-08-29T19:30:03Z</time>
  <course>260.02</course>
  <speed>2.1181123671797963</speed>
  <fix>3d</fix>
</trkpt>
<trkpt lat="40.071397" lon="-105.2295894">
  <ele>1583.0</ele>
  <time>2026-08-29T19:30:03Z</time>
  <course>258.82</course>
  <speed>2.15</speed>
  <fix>3d</fix>
</trkpt>
<trkpt lat="40.0713958" lon="-105.2295979">
  <ele>1583.08</ele>
  <time>2026-08-29T19:30:03Z</time>
  <course>260.02</course>
  <speed>2.1181123671797963</speed>
  <fix>3d</fix>
</trkpt>
<trkpt lat="40.0713963" lon="-105.2295944">
  <ele>1583.0</ele>
  <time>2026-08-29T19:30:03Z</time>
  <course>258.82</course>
  <speed>2.15</speed>
  <fix>3d</fix>
</trkpt>
<trkpt lat="40.0713954" lon="-105.2296004">
  <ele>1583.08</ele>
  <time>2026-08-29T19:30:03Z</time>
  <course>260.02</course>
  <speed>2.1181123671797963</speed>
  <fix>3d</fix>
</trkpt>
<trkpt lat="40.0713963" lon="-105.2295944">
  <ele>1583.0</ele>
  <time>2026-08-29T19:30:03Z</time>
  <course>258.82</course>
  <speed>2.15</speed>
  <fix>3d</fix>
</trkpt>
<trkpt lat="40.0713951" lon="-105.2296029">
  <ele>1583.08</ele>
  <time>2026-08-29T19:30:03Z</time>
  <course>260.02</course>
  <speed>2.1181123671797963</speed>
  <fix>3d</fix>
</trkpt>
<trkpt lat="40.0713955" lon="-105.2295993">
  <ele>1583.0</ele>
  <time>2026-08-29T19:30:03Z</time>
  <course>258.82</course>
  <speed>2.15</speed>
  <fix>3d</fix>
</trkpt>
<trkpt lat="40.0713947" lon="-105.2296054">
  <ele>1583.08</ele>
  <time>2026-08-29T19:30:03Z</time>
  <course>260.04</course>
  <speed>2.1162466774929616</speed>
  <fix>3d</fix>
</trkpt>
<trkpt lat="40.0713955" lon="-105.2295993">
  <ele>1583.0</ele>
  <time>2026-08-29T19:30:03Z</time>
  <course>258.82</course>
  <speed>2.15</speed>
  <fix>3d</fix>
</trkpt>
<trkpt lat="40.0713943" lon="-105.2296078">
  <ele>1583.08</ele>
  <time>2026-08-29T19:30:03Z</time>
  <course>260.07</course>
  <speed>2.1162466774929616</speed>
  <fix>3d</fix>
</trkpt>
<trkpt lat="40.0713947" lon="-105.2296043">
  <ele>1583.0</ele>
  <time>2026-08-29T19:30:03Z</time>
  <course>258.84</course>
  <speed>2.14</speed>
  <fix>3d</fix>
</trkpt>
<trkpt lat="40.071394" lon="-105.2296103">
  <ele>1583.08</ele>
  <time>2026-08-29T19:30:03Z</time>
  <course>260.1</course>
  <speed>2.1162466774929616</speed>
  <fix>3d</fix>
</trkpt>
<trkpt lat="40.0713947" lon="-105.2296043">
  <ele>1583.0</ele>
  <time>2026-08-29T19:30:03Z</time>
  <course>258.84</course>
  <speed>2.14</speed>
  <fix>3d</fix>
</trkpt>
<trkpt lat="40.0713936" lon="-105.2296128">
  <ele>1583.08</ele>
  <time>2026-08-29T19:30:03Z</time>
  <course>260.12</course>
  <speed>2.1162466774929616</speed>
  <fix>3d</fix>
</trkpt>
<trkpt lat="40.071394" lon="-105.2296092">
  <ele>1583.0</ele>
  <time>2026-08-29T19:30:03Z</time>
  <course>258.89</course>
  <speed>2.14</speed>
  <fix>3d</fix>
</trkpt>
<trkpt lat="40.0713932" lon="-105.2296152">
  <ele>1583.08</ele>
  <time>2026-08-29T19:30:03Z</time>
  <course>260.16</course>
  <speed>2.1162466774929616</speed>
  <fix>3d</fix>
</trkpt>
<trkpt lat="40.071394" lon="-105.2296092">
  <ele>1583.0</ele>
  <time>2026-08-29T19:30:03Z</time>
  <course>258.89</course>
  <speed>2.14</speed>
  <fix>3d</fix>
</trkpt>
<trkpt lat="40.0713929" lon="-105.2296177">
  <ele>1583.08</ele>
  <time>2026-08-29T19:30:03Z</time>
  <course>260.22</course>
  <speed>2.10459022139703</speed>
  <fix>3d</fix>
</trkpt>
<trkpt lat="40.0713933" lon="-105.2296141">
  <ele>1583.0</ele>
  <time>2026-08-29T19:30:03Z</time>
  <course>258.97</course>
  <speed>2.14</speed>
  <fix>3d</fix>
</trkpt>
<trkpt lat="40.0713925" lon="-105.2296201">
  <ele>1583.08</ele>
  <time>2026-08-29T19:30:03Z</time>
  <course>260.27</course>
  <speed>2.10459022139703</speed>
  <fix>3d</fix>
</trkpt>
<trkpt lat="40.0713933" lon="-105.2296141">
  <ele>1583.0</ele>
  <time>2026-08-29T19:30:03Z</time>
  <course>258.97</course>
  <speed>2.14</speed>
  <fix>3d</fix>
</trkpt>
<trkpt lat="40.0713922" lon="-105.2296225">
  <ele>1583.08</ele>
  <time>2026-08-29T19:30:03Z</time>
  <course>260.33</course>
  <speed>2.10459022139703</speed>
  <fix>3d</fix>
</trkpt>
<trkpt lat="40.0713925" lon="-105.2296191">
  <ele>1583.0</ele>
  <time>2026-08-29T19:30:03Z</time>
  <course>259.07</course>
  <speed>2.14</speed>
  <fix>3d</fix>
</trkpt>
<trkpt lat="40.0713919" lon="-105.2296245">
  <ele>1583.08</ele>
  <time>2026-08-29T19:30:03Z</time>
  <course>260.38</course>
  <speed>2.1028076469330235</speed>
  <fix>3d</fix>
</trkpt>
<trkpt lat="40.0713925" lon="-105.2296191">
  <ele>1583.0</ele>
  <time>2026-08-29T19:30:03Z</time>
  <course>259.07</course>
  <speed>2.14</speed>
  <fix>3d</fix>
</trkpt>
<trkpt lat="40.0713915" lon="-105.229627">
  <ele>1583.08</ele>
  <time>2026-08-29T19:30:03Z</time>
  <course>260.43</course>
  <speed>2.1028076469330235</speed>
  <fix>3d</fix>
</trkpt>
<trkpt lat="40.0713918" lon="-105.2296241">
  <ele>1583.0</ele>
  <time>2026-08-29T19:30:03Z</time>
  <course>259.19</course>
  <speed>2.14</speed>
  <fix>3d</fix>
</trkpt>
<trkpt lat="40.0713912" lon="-105.2296294">
  <ele>1583.08</ele>
  <time>2026-08-29T19:30:03Z</time>
  <course>260.49</course>
  <speed>2.1028076469330235</speed>
  <fix>3d</fix>
</trkpt>
<trkpt lat="40.0713918" lon="-105.2296241">
  <ele>1583.0</ele>
  <time>2026-08-29T19:30:03Z</time>
  <course>259.19</course>
  <speed>2.14</speed>
  <fix>3d</fix>
</trkpt>
<trkpt lat="40.0713908" lon="-105.2296319">
  <ele>1583.08</ele>
  <time>2026-08-29T19:30:03Z</time>
  <course>260.55</course>
  <speed>2.1028076469330235</speed>
  <fix>3d</fix>
</trkpt>
<trkpt lat="40.0713911" lon="-105.229629">
  <ele>1583.0</ele>
  <time>2026-08-29T19:30:03Z</time>
  <course>259.3</course>
  <speed>2.14</speed>
  <fix>3d</fix>
</trkpt>
<trkpt lat="40.0713905" lon="-105.2296344">
  <ele>1583.08</ele>
  <time>2026-08-29T19:30:03Z</time>
  <course>260.6</course>
  <speed>2.1010711553871753</speed>
  <fix>3d</fix>
</trkpt>
<trkpt lat="40.0713911" lon="-105.229629">
  <ele>1583.0</ele>
  <time>2026-08-29T19:30:03Z</time>
  <course>259.3</course>
  <speed>2.14</speed>
  <fix>3d</fix>
</trkpt>
<trkpt lat="40.0713901" lon="-105.2296368">
  <ele>1583.08</ele>
  <time>2026-08-29T19:30:03Z</time>
  <course>260.66</course>
  <speed>2.110923968313402</speed>
  <fix>3d</fix>
</trkpt>
<trkpt lat="40.0713904" lon="-105.229634">
  <ele>1583.0</ele>
  <time>2026-08-29T19:30:03Z</time>
  <course>259.42</course>
  <speed>2.14</speed>
  <fix>3d</fix>
</trkpt>
<trkpt lat="40.0713898" lon="-105.2296393">
  <ele>1583.08</ele>
  <time>2026-08-29T19:30:03Z</time>
  <course>260.71</course>
  <speed>2.110923968313402</speed>
  <fix>3d</fix>
</trkpt>
<trkpt lat="40.0713904" lon="-105.229634">
  <ele>1583.0</ele>
  <time>2026-08-29T19:30:03Z</time>
  <course>259.42</course>
  <speed>2.14</speed>
  <fix>3d</fix>
</trkpt>
<trkpt lat="40.0713894" lon="-105.2296419">
  <ele>1583.08</ele>
  <time>2026-08-29T19:30:03Z</time>
  <course>260.77</course>
  <speed>2.110923968313402</speed>
  <fix>3d</fix>
</trkpt>
<trkpt lat="40.0713897" lon="-105.2296389">
  <ele>1583.0</ele>
  <time>2026-08-29T19:30:03Z</time>
  <course>259.53</course>
  <speed>2.14</speed>
  <fix>3d</fix>
</trkpt>
<trkpt lat="40.0713891" lon="-105.2296444">
  <ele>1583.09</ele>
  <time>2026-08-29T19:30:03Z</time>
  <course>260.83</course>
  <speed>2.1092415698539604</speed>
  <fix>3d</fix>
</trkpt>
<trkpt lat="40.0713897" lon="-105.2296389">
  <ele>1583.0</ele>
  <time>2026-08-29T19:30:03Z</time>
  <course>259.53</course>
  <speed>2.14</speed>
  <fix>3d</fix>
</trkpt>
<trkpt lat="40.0713887" lon="-105.2296473">
  <ele>1583.09</ele>
  <time>2026-08-29T19:30:03Z</time>
  <course>260.91</course>
  <speed>2.1092415698539604</speed>
  <fix>3d</fix>
</trkpt>
<trkpt lat="40.071389" lon="-105.2296439">
  <ele>1583.0</ele>
  <time>2026-08-29T19:30:03Z</time>
  <course>259.66</course>
  <speed>2.14</speed>
  <fix>3d</fix>
</trkpt>
<trkpt lat="40.0713883" lon="-105.2296499">
  <ele>1583.09</ele>
  <time>2026-08-29T19:30:03Z</time>
  <course>260.98</course>
  <speed>2.1092415698539604</speed>
  <fix>3d</fix>
</trkpt>
<trkpt lat="40.071389" lon="-105.2296439">
  <ele>1583.0</ele>
  <time>2026-08-29T19:30:03Z</time>
  <course>259.66</course>
  <speed>2.14</speed>
  <fix>3d</fix>
</trkpt>
<trkpt lat="40.071388" lon="-105.2296523">
  <ele>1583.08</ele>
  <time>2026-08-29T19:30:03Z</time>
  <course>261.04</course>
  <speed>2.1174749113035554</speed>
  <fix>3d</fix>
</trkpt>
<trkpt lat="40.0713883" lon="-105.2296489">
  <ele>1583.0</ele>
  <time>2026-08-29T19:30:03Z</time>
  <course>259.79</course>
  <speed>2.15</speed>
  <fix>3d</fix>
</trkpt>
<trkpt lat="40.0713877" lon="-105.2296549">
  <ele>1583.08</ele>
  <time>2026-08-29T19:30:03Z</time>
  <course>261.11</course>
  <speed>2.1174749113035554</speed>
  <fix>3d</fix>
</trkpt>
<trkpt lat="40.0713883" lon="-105.2296489">
  <ele>1583.0</ele>
  <time>2026-08-29T19:30:03Z</time>
  <course>259.79</course>
  <speed>2.15</speed>
  <fix>3d</fix>
</trkpt>
<trkpt lat="40.0713873" lon="-105.2296574">
  <ele>1583.08</ele>
  <time>2026-08-29T19:30:03Z</time>
  <course>261.17</course>
  <speed>2.1174749113035554</speed>
  <fix>3d</fix>
</trkpt>
<trkpt lat="40.0713876" lon="-105.2296538">
  <ele>1583.0</ele>
  <time>2026-08-29T19:30:03Z</time>
  <course>259.92</course>
  <speed>2.15</speed>
  <fix>3d</fix>
</trkpt>
<trkpt lat="40.071387" lon="-105.2296599">
  <ele>1583.08</ele>
  <time>2026-08-29T19:30:03Z</time>
  <course>261.24</course>
  <speed>2.1174749113035554</speed>
  <fix>3d</fix>
</trkpt>
<trkpt lat="40.0713876" lon="-105.2296538">
  <ele>1583.0</ele>
  <time>2026-08-29T19:30:03Z</time>
  <course>259.92</course>
  <speed>2.15</speed>
  <fix>3d</fix>
</trkpt>
<trkpt lat="40.0713867" lon="-105.2296624">
  <ele>1583.08</ele>
  <time>2026-08-29T19:30:03Z</time>
  <course>261.3</course>
  <speed>2.115892246783848</speed>
  <fix>3d</fix>
</trkpt>
<trkpt lat="40.071387" lon="-105.2296589">
  <ele>1583.0</ele>
  <time>2026-08-29T19:30:03Z</time>
  <course>260.06</course>
  <speed>2.15</speed>
  <fix>3d</fix>
</trkpt>
<trkpt lat="40.0713864" lon="-105.2296648">
  <ele>1583.08</ele>
  <time>2026-08-29T19:30:03Z</time>
  <course>261.37</course>
  <speed>2.115892246783848</speed>
  <fix>3d</fix>
</trkpt>
<trkpt lat="40.071387" lon="-105.2296589">
  <ele>1583.0</ele>
  <time>2026-08-29T19:30:03Z</time>
  <course>260.06</course>
  <speed>2.15</speed>
  <fix>3d</fix>
</trkpt>
<trkpt lat="40.071386" lon="-105.2296673">
  <ele>1583.08</ele>
  <time>2026-08-29T19:30:03Z</time>
  <course>261.43</course>
  <speed>2.115892246783848</speed>
  <fix>3d</fix>
</trkpt>
<trkpt lat="40.0713863" lon="-105.2296638">
  <ele>1583.0</ele>
  <time>2026-08-29T19:30:03Z</time>
  <course>260.19</course>
  <speed>2.15</speed>
  <fix>3d</fix>
</trkpt>
<trkpt lat="40.0713857" lon="-105.2296698">
  <ele>1583.07</ele>
  <time>2026-08-29T19:30:03Z</time>
  <course>261.49</course>
  <speed>2.115892246783848</speed>
  <fix>3d</fix>
</trkpt>
<trkpt lat="40.0713863" lon="-105.2296638">
  <ele>1583.0</ele>
  <time>2026-08-29T19:30:03Z</time>
  <course>260.19</course>
  <speed>2.15</speed>
  <fix>3d</fix>
</trkpt>
<trkpt lat="40.0713854" lon="-105.2296723">
  <ele>1583.07</ele>
  <time>2026-08-29T19:30:03Z</time>
  <course>261.55</course>
  <speed>2.1143556938225885</speed>
  <fix>3d</fix>
</trkpt>
<trkpt lat="40.0713856" lon="-105.2296687">
  <ele>1583.0</ele>
  <time>2026-08-29T19:30:03Z</time>
  <course>260.32</course>
  <speed>2.15</speed>
  <fix>3d</fix>
</trkpt>
<trkpt lat="40.0713851" lon="-105.2296748">
  <ele>1583.07</ele>
  <time>2026-08-29T19:30:03Z</time>
  <course>261.62</course>
  <speed>2.1143556938225885</speed>
  <fix>3d</fix>
</trkpt>
<trkpt lat="40.0713856" lon="-105.2296687">
  <ele>1583.0</ele>
  <time>2026-08-29T19:30:03Z</time>
  <course>260.32</course>
  <speed>2.15</speed>
  <fix>3d</fix>
</trkpt>
<trkpt lat="40.0713848" lon="-105.2296767">
  <ele>1583.07</ele>
  <time>2026-08-29T19:30:03Z</time>
  <course>261.66</course>
  <speed>2.1143556938225885</speed>
  <fix>3d</fix>
</trkpt>
<trkpt lat="40.071385" lon="-105.2296738">
  <ele>1583.0</ele>
  <time>2026-08-29T19:30:03Z</time>
  <course>260.44</course>
  <speed>2.15</speed>
  <fix>3d</fix>
</trkpt>
<trkpt lat="40.0713845" lon="-105.2296792">
  <ele>1583.07</ele>
  <time>2026-08-29T19:30:03Z</time>
  <course>261.73</course>
  <speed>2.124241040936739</speed>
  <fix>3d</fix>
</trkpt>
<trkpt lat="40.071385" lon="-105.2296738">
  <ele>1583.0</ele>
  <time>2026-08-29T19:30:03Z</time>
  <course>260.44</course>
  <speed>2.15</speed>
  <fix>3d</fix>
</trkpt>
<trkpt lat="40.0713842" lon="-105.2296817">
  <ele>1583.06</ele>
  <time>2026-08-29T19:30:03Z</time>
  <course>261.79</course>
  <speed>2.1227576404290716</speed>
  <fix>3d</fix>
</trkpt>
<trkpt lat="40.0713844" lon="-105.2296787">
  <ele>1583.0</ele>
  <time>2026-08-29T19:30:03Z</time>
  <course>260.57</course>
  <speed>2.15</speed>
  <fix>3d</fix>
</trkpt>
<trkpt lat="40.0713839" lon="-105.2296842">
  <ele>1583.06</ele>
  <time>2026-08-29T19:30:03Z</time>
  <course>261.86</course>
  <speed>2.1227576404290716</speed>
  <fix>3d</fix>
</trkpt>
<trkpt lat="40.0713844" lon="-105.2296787">
  <ele>1583.0</ele>
  <time>2026-08-29T19:30:03Z</time>
  <course>260.57</course>
  <speed>2.15</speed>
  <fix>3d</fix>
</trkpt>
<trkpt lat="40.0713836" lon="-105.2296867">
  <ele>1583.06</ele>
  <time>2026-08-29T19:30:03Z</time>
  <course>261.91</course>
  <speed>2.1227576404290716</speed>
  <fix>3d</fix>
</trkpt>
<trkpt lat="40.0713837" lon="-105.2296838">
  <ele>1583.0</ele>
  <time>2026-08-29T19:30:03Z</time>
  <course>260.7</course>
  <speed>2.15</speed>
  <fix>3d</fix>
</trkpt>
<trkpt lat="40.0713833" lon="-105.2296892">
  <ele>1583.06</ele>
  <time>2026-08-29T19:30:03Z</time>
  <course>261.97</course>
  <speed>2.1227576404290716</speed>
  <fix>3d</fix>
</trkpt>
<trkpt lat="40.0713837" lon="-105.2296838">
  <ele>1583.0</ele>
  <time>2026-08-29T19:30:03Z</time>
  <course>260.7</course>
  <speed>2.15</speed>
  <fix>3d</fix>
</trkpt>
<trkpt lat="40.071383" lon="-105.2296917">
  <ele>1583.06</ele>
  <time>2026-08-29T19:30:03Z</time>
  <course>262.03</course>
  <speed>2.1227576404290716</speed>
  <fix>3d</fix>
</trkpt>
<trkpt lat="40.0713831" lon="-105.2296887">
  <ele>1583.0</ele>
  <time>2026-08-29T19:30:03Z</time>
  <course>260.82</course>
  <speed>2.15</speed>
  <fix>3d</fix>
</trkpt>
<trkpt lat="40.0713827" lon="-105.2296943">
  <ele>1583.06</ele>
  <time>2026-08-29T19:30:03Z</time>
  <course>262.08</course>
  <speed>2.1312203077110543</speed>
  <fix>3d</fix>
</trkpt>
<trkpt lat="40.0713831" lon="-105.2296887">
  <ele>1583.0</ele>
  <time>2026-08-29T19:30:03Z</time>
  <course>260.82</course>
  <speed>2.15</speed>
  <fix>3d</fix>
</trkpt>
<trkpt lat="40.0713824" lon="-105.2296968">
  <ele>1583.06</ele>
  <time>2026-08-29T19:30:03Z</time>
  <course>262.14</course>
  <speed>2.1312203077110543</speed>
  <fix>3d</fix>
</trkpt>
<trkpt lat="40.0713825" lon="-105.2296938">
  <ele>1583.0</ele>
  <time>2026-08-29T19:30:03Z</time>
  <course>260.94</course>
  <speed>2.16</speed>
  <fix>3d</fix>
</trkpt>
<trkpt lat="40.071382" lon="-105.2296998">
  <ele>1583.06</ele>
  <time>2026-08-29T19:30:03Z</time>
  <course>262.21</course>
  <speed>2.1312203077110543</speed>
  <fix>3d</fix>
</trkpt>
<trkpt lat="40.0713825" lon="-105.2296938">
  <ele>1583.0</ele>
  <time>2026-08-29T19:30:03Z</time>
  <course>260.94</course>
  <speed>2.16</speed>
  <fix>3d</fix>
</trkpt>
<trkpt lat="40.0713817" lon="-105.2297024">
  <ele>1583.05</ele>
  <time>2026-08-29T19:30:03Z</time>
  <course>262.27</course>
  <speed>2.1312203077110543</speed>
  <fix>3d</fix>
</trkpt>
<trkpt lat="40.0713818" lon="-105.2296988">
  <ele>1583.0</ele>
  <time>2026-08-29T19:30:03Z</time>
  <course>261.05</course>
  <speed>2.16</speed>
  <fix>3d</fix>
</trkpt>
<trkpt lat="40.0713814" lon="-105.2297049">
  <ele>1583.05</ele>
  <time>2026-08-29T19:30:03Z</time>
  <course>262.32</course>
  <speed>2.1312203077110543</speed>
  <fix>3d</fix>
</trkpt>
<trkpt lat="40.0713818" lon="-105.2296988">
  <ele>1583.0</ele>
  <time>2026-08-29T19:30:03Z</time>
  <course>261.05</course>
  <speed>2.16</speed>
  <fix>3d</fix>
</trkpt>
<trkpt lat="40.0713811" lon="-105.2297074">
  <ele>1583.05</ele>
  <time>2026-08-29T19:30:03Z</time>
  <course>262.38</course>
  <speed>2.1298356744124654</speed>
  <fix>3d</fix>
</trkpt>
<trkpt lat="40.0713813" lon="-105.2297038">
  <ele>1583.0</ele>
  <time>2026-08-29T19:30:03Z</time>
  <course>261.17</course>
  <speed>2.16</speed>
  <fix>3d</fix>
</trkpt>
<trkpt lat="40.0713808" lon="-105.2297099">
  <ele>1583.04</ele>
  <time>2026-08-29T19:30:03Z</time>
  <course>262.44</course>
  <speed>2.13974297521922</speed>
  <fix>3d</fix>
</trkpt>
<trkpt lat="40.0713813" lon="-105.2297038">
  <ele>1583.0</ele>
  <time>2026-08-29T19:30:03Z</time>
  <course>261.17</course>
  <speed>2.16</speed>
  <fix>3d</fix>
</trkpt>
<trkpt lat="40.0713805" lon="-105.2297125">
  <ele>1583.04</ele>
  <time>2026-08-29T19:30:03Z</time>
  <course>262.49</course>
  <speed>2.13974297521922</speed>
  <fix>3d</fix>
</trkpt>
<trkpt lat="40.0713806" lon="-105.2297088">
  <ele>1583.0</ele>
  <time>2026-08-29T19:30:03Z</time>
  <course>261.29</course>
  <speed>2.16</speed>
  <fix>3d</fix>
</trkpt>
<trkpt lat="40.0713802" lon="-105.229715">
  <ele>1583.04</ele>
  <time>2026-08-29T19:30:03Z</time>
  <course>262.55</course>
  <speed>2.13974297521922</speed>
  <fix>3d</fix>
</trkpt>
<trkpt lat="40.0713806" lon="-105.2297088">
  <ele>1583.0</ele>
  <time>2026-08-29T19:30:03Z</time>
  <course>261.29</course>
  <speed>2.16</speed>
  <fix>3d</fix>
</trkpt>
<trkpt lat="40.0713799" lon="-105.2297175">
  <ele>1583.03</ele>
  <time>2026-08-29T19:30:03Z</time>
  <course>262.61</course>
  <speed>2.13974297521922</speed>
  <fix>3d</fix>
</trkpt>
<trkpt lat="40.0713801" lon="-105.2297139">
  <ele>1583.0</ele>
  <time>2026-08-29T19:30:03Z</time>
  <course>261.41</course>
  <speed>2.16</speed>
  <fix>3d</fix>
</trkpt>
<trkpt lat="40.0713797" lon="-105.22972">
  <ele>1583.03</ele>
  <time>2026-08-29T19:30:03Z</time>
  <course>262.67</course>
  <speed>2.1384106247397856</speed>
  <fix>3d</fix>
</trkpt>
<trkpt lat="40.0713801" lon="-105.2297139">
  <ele>1583.0</ele>
  <time>2026-08-29T19:30:03Z</time>
  <course>261.41</course>
  <speed>2.16</speed>
  <fix>3d</fix>
</trkpt>
<trkpt lat="40.0713794" lon="-105.2297225">
  <ele>1583.03</ele>
  <time>2026-08-29T19:30:03Z</time>
  <course>262.73</course>
  <speed>2.1384106247397856</speed>
  <fix>3d</fix>
</trkpt>
<trkpt lat="40.0713796" lon="-105.2297189">
  <ele>1583.0</ele>
  <time>2026-08-29T19:30:03Z</time>
  <course>261.52</course>
  <speed>2.16</speed>
  <fix>3d</fix>
</trkpt>
<trkpt lat="40.0713791" lon="-105.2297249">
  <ele>1583.04</ele>
  <time>2026-08-29T19:30:03Z</time>
  <course>262.79</course>
  <speed>2.1384106247397856</speed>
  <fix>3d</fix>
</trkpt>
<trkpt lat="40.0713796" lon="-105.2297189">
  <ele>1583.0</ele>
  <time>2026-08-29T19:30:03Z</time>
  <course>261.52</course>
  <speed>2.16</speed>
  <fix>3d</fix>
</trkpt>
<trkpt lat="40.0713789" lon="-105.229727">
  <ele>1583.04</ele>
  <time>2026-08-29T19:30:03Z</time>
  <course>262.84</course>
  <speed>2.1384106247397856</speed>
  <fix>3d</fix>
</trkpt>
<trkpt lat="40.0713789" lon="-105.2297239">
  <ele>1583.0</ele>
  <time>2026-08-29T19:30:03Z</time>
  <course>261.64</course>
  <speed>2.16</speed>
  <fix>3d</fix>
</trkpt>
<trkpt lat="40.0713786" lon="-105.2297295">
  <ele>1583.04</ele>
  <time>2026-08-29T19:30:03Z</time>
  <course>262.89</course>
  <speed>2.1384106247397856</speed>
  <fix>3d</fix>
</trkpt>
<trkpt lat="40.0713789" lon="-105.2297239">
  <ele>1583.0</ele>
  <time>2026-08-29T19:30:03Z</time>
  <course>261.64</course>
  <speed>2.16</speed>
  <fix>3d</fix>
</trkpt>
<trkpt lat="40.0713783" lon="-105.229732">
  <ele>1583.03</ele>
  <time>2026-08-29T19:30:03Z</time>
  <course>262.95</course>
  <speed>2.1371242359769353</speed>
  <fix>3d</fix>
</trkpt>
<trkpt lat="40.0713784" lon="-105.2297289">
  <ele>1583.0</ele>
  <time>2026-08-29T19:30:03Z</time>
  <course>261.76</course>
  <speed>2.16</speed>
  <fix>3d</fix>
</trkpt>
<trkpt lat="40.071378" lon="-105.2297345">
  <ele>1583.03</ele>
  <time>2026-08-29T19:30:03Z</time>
  <course>263.01</course>
  <speed>2.1371242359769353</speed>
  <fix>3d</fix>
</trkpt>
<trkpt lat="40.0713784" lon="-105.2297289">
  <ele>1583.0</ele>
  <time>2026-08-29T19:30:03Z</time>
  <course>261.76</course>
  <speed>2.16</speed>
  <fix>3d</fix>
</trkpt>
<trkpt lat="40.0713778" lon="-105.229737">
  <ele>1583.03</ele>
  <time>2026-08-29T19:30:03Z</time>
  <course>263.07</course>
  <speed>2.1371242359769353</speed>
  <fix>3d</fix>
</trkpt>
<trkpt lat="40.0713779" lon="-105.229734">
  <ele>1583.0</ele>
  <time>2026-08-29T19:30:03Z</time>
  <course>261.88</course>
  <speed>2.16</speed>
  <fix>3d</fix>
</trkpt>
<trkpt lat="40.0713775" lon="-105.2297396">
  <ele>1583.03</ele>
  <time>2026-08-29T19:30:03Z</time>
  <course>263.11</course>
  <speed>2.1470444802099466</speed>
  <fix>3d</fix>
</trkpt>
<trkpt lat="40.0713779" lon="-105.229734">
  <ele>1583.0</ele>
  <time>2026-08-29T19:30:03Z</time>
  <course>261.88</course>
  <speed>2.16</speed>
  <fix>3d</fix>
</trkpt>
<trkpt lat="40.0713772" lon="-105.2297421">
  <ele>1583.03</ele>
  <time>2026-08-29T19:30:03Z</time>
  <course>263.15</course>
  <speed>2.1470444802099466</speed>
  <fix>3d</fix>
</trkpt>
<trkpt lat="40.0713773" lon="-105.229739">
  <ele>1583.0</ele>
  <time>2026-08-29T19:30:03Z</time>
  <course>261.98</course>
  <speed>2.16</speed>
  <fix>3d</fix>
</trkpt>
<trkpt lat="40.0713769" lon="-105.2297446">
  <ele>1583.03</ele>
  <time>2026-08-29T19:30:03Z</time>
  <course>263.17</course>
  <speed>2.1470444802099466</speed>
  <fix>3d</fix>
</trkpt>
<trkpt lat="40.0713773" lon="-105.229739">
  <ele>1583.0</ele>
  <time>2026-08-29T19:30:03Z</time>
  <course>261.98</course>
  <speed>2.16</speed>
  <fix>3d</fix>
</trkpt>
<trkpt lat="40.0713767" lon="-105.2297472">
  <ele>1583.03</ele>
  <time>2026-08-29T19:30:03Z</time>
  <course>263.2</course>
  <speed>2.1470444802099466</speed>
  <fix>3d</fix>
</trkpt>
<trkpt lat="40.0713767" lon="-105.2297441">
  <ele>1583.0</ele>
  <time>2026-08-29T19:30:03Z</time>
  <course>262.05</course>
  <speed>2.17</speed>
  <fix>3d</fix>
</trkpt>
<trkpt lat="40.0713764" lon="-105.2297498">
  <ele>1583.03</ele>
  <time>2026-08-29T19:30:03Z</time>
  <course>263.23</course>
  <speed>2.1470444802099466</speed>
  <fix>3d</fix>
</trkpt>
<trkpt lat="40.0713767" lon="-105.2297441">
  <ele>1583.0</ele>
  <time>2026-08-29T19:30:03Z</time>
  <course>262.05</course>
  <speed>2.17</speed>
  <fix>3d</fix>
</trkpt>
<trkpt lat="40.0713761" lon="-105.2297528">
  <ele>1583.03</ele>
  <time>2026-08-29T19:30:03Z</time>
  <course>263.27</course>
  <speed>2.145809870421888</speed>
  <fix>3d</fix>
</trkpt>
<trkpt lat="40.0713762" lon="-105.2297491">
  <ele>1583.0</ele>
  <time>2026-08-29T19:30:03Z</time>
  <course>262.11</course>
  <speed>2.17</speed>
  <fix>3d</fix>
</trkpt>
<trkpt lat="40.0713758" lon="-105.2297553">
  <ele>1583.03</ele>
  <time>2026-08-29T19:30:04Z</time>
  <course>263.29</course>
  <speed>2.145809870421888</speed>
  <fix>3d</fix>
</trkpt>
<trkpt lat="40.0713762" lon="-105.2297491">
  <ele>1583.0</ele>
  <time>2026-08-29T19:30:04Z</time>
  <course>262.11</course>
  <speed>2.17</speed>
  <fix>3d</fix>
</trkpt>
<trkpt lat="40.0713755" lon="-105.2297579">
  <ele>1583.03</ele>
  <time>2026-08-29T19:30:04Z</time>
  <course>263.32</course>
  <speed>2.145809870421888</speed>
  <fix>3d</fix>
</trkpt>
<trkpt lat="40.0713757" lon="-105.2297542">
  <ele>1583.0</ele>
  <time>2026-08-29T19:30:04Z</time>
  <course>262.16</course>
  <speed>2.17</speed>
  <fix>3d</fix>
</trkpt>
<trkpt lat="40.0713753" lon="-105.2297604">
  <ele>1583.03</ele>
  <time>2026-08-29T19:30:04Z</time>
  <course>263.35</course>
  <speed>2.155736533067063</speed>
  <fix>3d</fix>
</trkpt>
<trkpt lat="40.0713757" lon="-105.2297542">
  <ele>1583.0</ele>
  <time>2026-08-29T19:30:04Z</time>
  <course>262.16</course>
  <speed>2.17</speed>
  <fix>3d</fix>
</trkpt>
<trkpt lat="40.071375" lon="-105.229763">
  <ele>1583.03</ele>
  <time>2026-08-29T19:30:04Z</time>
  <course>263.38</course>
  <speed>2.155736533067063</speed>
  <fix>3d</fix>
</trkpt>
<trkpt lat="40.0713751" lon="-105.2297592">
  <ele>1583.0</ele>
  <time>2026-08-29T19:30:04Z</time>
  <course>262.22</course>
  <speed>2.17</speed>
  <fix>3d</fix>
</trkpt>
<trkpt lat="40.0713747" lon="-105.2297655">
  <ele>1583.03</ele>
  <time>2026-08-29T19:30:04Z</time>
  <course>263.41</course>
  <speed>2.155736533067063</speed>
  <fix>3d</fix>
</trkpt>
<trkpt lat="40.0713751" lon="-105.2297592">
  <ele>1583.0</ele>
  <time>2026-08-29T19:30:04Z</time>
  <course>262.22</course>
  <speed>2.17</speed>
  <fix>3d</fix>
</trkpt>
<trkpt lat="40.0713745" lon="-105.229768">
  <ele>1583.02</ele>
  <time>2026-08-29T19:30:04Z</time>
  <course>263.44</course>
  <speed>2.155736533067063</speed>
  <fix>3d</fix>
</trkpt>
<trkpt lat="40.0713746" lon="-105.2297643">
  <ele>1583.0</ele>
  <time>2026-08-29T19:30:04Z</time>
  <course>262.28</course>
  <speed>2.17</speed>
  <fix>3d</fix>
</trkpt>
<trkpt lat="40.0713742" lon="-105.2297705">
  <ele>1583.02</ele>
  <time>2026-08-29T19:30:04Z</time>
  <course>263.47</course>
  <speed>2.155736533067063</speed>
  <fix>3d</fix>
</trkpt>
<trkpt lat="40.0713746" lon="-105.2297643">
  <ele>1583.0</ele>
  <time>2026-08-29T19:30:04Z</time>
  <course>262.28</course>
  <speed>2.17</speed>
  <fix>3d</fix>
</trkpt>
<trkpt lat="40.071374" lon="-105.229773">
  <ele>1583.02</ele>
  <time>2026-08-29T19:30:04Z</time>
  <course>263.5</course>
  <speed>2.155736533067063</speed>
  <fix>3d</fix>
</trkpt>
<trkpt lat="40.0713741" lon="-105.2297693">
  <ele>1583.0</ele>
  <time>2026-08-29T19:30:04Z</time>
  <course>262.34</course>
  <speed>2.17</speed>
  <fix>3d</fix>
</trkpt>
<trkpt lat="40.0713737" lon="-105.2297755">
  <ele>1583.02</ele>
  <time>2026-08-29T19:30:04Z</time>
  <course>263.53</course>
  <speed>2.155736533067063</speed>
  <fix>3d</fix>
</trkpt>
<trkpt lat="40.0713741" lon="-105.2297693">
  <ele>1583.0</ele>
  <time>2026-08-29T19:30:04Z</time>
  <course>262.34</course>
  <speed>2.17</speed>
  <fix>3d</fix>
</trkpt>
<trkpt lat="40.0713735" lon="-105.229778">
  <ele>1583.02</ele>
  <time>2026-08-29T19:30:04Z</time>
  <course>263.56</course>
  <speed>2.145809870421888</speed>
  <fix>3d</fix>
</trkpt>
<trkpt lat="40.0713736" lon="-105.2297744">
  <ele>1583.0</ele>
  <time>2026-08-29T19:30:04Z</time>
  <course>262.4</course>
  <speed>2.17</speed>
  <fix>3d</fix>
</trkpt>
<trkpt lat="40.0713732" lon="-105.22978">
  <ele>1583.02</ele>
  <time>2026-08-29T19:30:04Z</time>
  <course>263.58</course>
  <speed>2.144621178670023</speed>
  <fix>3d</fix>
</trkpt>
<trkpt lat="40.0713736" lon="-105.2297744">
  <ele>1583.0</ele>
  <time>2026-08-29T19:30:04Z</time>
  <course>262.4</course>
  <speed>2.17</speed>
  <fix>3d</fix>
</trkpt>
<trkpt lat="40.071373" lon="-105.2297825">
  <ele>1583.02</ele>
  <time>2026-08-29T19:30:04Z</time>
  <course>263.61</course>
  <speed>2.144621178670023</speed>
  <fix>3d</fix>
</trkpt>
<trkpt lat="40.0713731" lon="-105.2297795">
  <ele>1583.0</ele>
  <time>2026-08-29T19:30:04Z</time>
  <course>262.46</course>
  <speed>2.17</speed>
  <fix>3d</fix>
</trkpt>
<trkpt lat="40.0713727" lon="-105.2297851">
  <ele>1583.02</ele>
  <time>2026-08-29T19:30:04Z</time>
  <course>263.64</course>
  <speed>2.144621178670023</speed>
  <fix>3d</fix>
</trkpt>
<trkpt lat="40.0713731" lon="-105.2297795">
  <ele>1583.0</ele>
  <time>2026-08-29T19:30:04Z</time>
  <course>262.46</course>
  <speed>2.17</speed>
  <fix>3d</fix>
</trkpt>
<trkpt lat="40.0713725" lon="-105.2297876">
  <ele>1583.02</ele>
  <time>2026-08-29T19:30:04Z</time>
  <course>263.67</course>
  <speed>2.144621178670023</speed>
  <fix>3d</fix>
</trkpt>
<trkpt lat="40.0713726" lon="-105.2297845">
  <ele>1583.0</ele>
  <time>2026-08-29T19:30:04Z</time>
  <course>262.52</course>
  <speed>2.17</speed>
  <fix>3d</fix>
</trkpt>
<trkpt lat="40.0713722" lon="-105.2297901">
  <ele>1583.02</ele>
  <time>2026-08-29T19:30:04Z</time>
  <course>263.7</course>
  <speed>2.1545533179756773</speed>
  <fix>3d</fix>
</trkpt>
<trkpt lat="40.0713726" lon="-105.2297845">
  <ele>1583.0</ele>
  <time>2026-08-29T19:30:04Z</time>
  <course>262.52</course>
  <speed>2.17</speed>
  <fix>3d</fix>
</trkpt>
<trkpt lat="40.071372" lon="-105.2297927">
  <ele>1583.02</ele>
  <time>2026-08-29T19:30:04Z</time>
  <course>263.72</course>
  <speed>2.1545533179756773</speed>
  <fix>3d</fix>
</trkpt>
<trkpt lat="40.071372" lon="-105.2297896">
  <ele>1583.0</ele>
  <time>2026-08-29T19:30:04Z</time>
  <course>262.57</course>
  <speed>2.17</speed>
  <fix>3d</fix>
</trkpt>
<trkpt lat="40.0713717" lon="-105.2297952">
  <ele>1583.02</ele>
  <time>2026-08-29T19:30:04Z</time>
  <course>263.74</course>
  <speed>2.1545533179756773</speed>
  <fix>3d</fix>
</trkpt>
<trkpt lat="40.071372" lon="-105.2297896">
  <ele>1583.0</ele>
  <time>2026-08-29T19:30:04Z</time>
  <course>262.57</course>
  <speed>2.17</speed>
  <fix>3d</fix>
</trkpt>
<trkpt lat="40.0713715" lon="-105.2297978">
  <ele>1583.02</ele>
  <time>2026-08-29T19:30:04Z</time>
  <course>263.75</course>
  <speed>2.1545533179756773</speed>
  <fix>3d</fix>
</trkpt>
<trkpt lat="40.0713715" lon="-105.2297946">
  <ele>1583.0</ele>
  <time>2026-08-29T19:30:04Z</time>
  <course>262.62</course>
  <speed>2.17</speed>
  <fix>3d</fix>
</trkpt>
<trkpt lat="40.0713712" lon="-105.2298003">
  <ele>1583.02</ele>
  <time>2026-08-29T19:30:04Z</time>
  <course>263.76</course>
  <speed>2.1545533179756773</speed>
  <fix>3d</fix>
</trkpt>
<trkpt lat="40.0713715" lon="-105.2297946">
  <ele>1583.0</ele>
  <time>2026-08-29T19:30:04Z</time>
  <course>262.62</course>
  <speed>2.17</speed>
  <fix>3d</fix>
</trkpt>
<trkpt lat="40.071371" lon="-105.2298029">
  <ele>1583.02</ele>
  <time>2026-08-29T19:30:04Z</time>
  <course>263.76</course>
  <speed>2.1545533179756773</speed>
  <fix>3d</fix>
</trkpt>
<trkpt lat="40.071371" lon="-105.2297997">
  <ele>1583.0</ele>
  <time>2026-08-29T19:30:04Z</time>
  <course>262.64</course>
  <speed>2.17</speed>
  <fix>3d</fix>
</trkpt>
<trkpt lat="40.0713707" lon="-105.229806">
  <ele>1583.02</ele>
  <time>2026-08-29T19:30:04Z</time>
  <course>263.79</course>
  <speed>2.1545533179756773</speed>
  <fix>3d</fix>
</trkpt>
<trkpt lat="40.071371" lon="-105.2297997">
  <ele>1583.0</ele>
  <time>2026-08-29T19:30:04Z</time>
  <course>262.64</course>
  <speed>2.17</speed>
  <fix>3d</fix>
</trkpt>
<trkpt lat="40.0713704" lon="-105.2298085">
  <ele>1583.02</ele>
  <time>2026-08-29T19:30:04Z</time>
  <course>263.79</course>
  <speed>2.1545533179756773</speed>
  <fix>3d</fix>
</trkpt>
<trkpt lat="40.0713705" lon="-105.2298048">
  <ele>1583.0</ele>
  <time>2026-08-29T19:30:04Z</time>
  <course>262.66</course>
  <speed>2.17</speed>
  <fix>3d</fix>
</trkpt>
<trkpt lat="40.0713701" lon="-105.2298111">
  <ele>1583.02</ele>
  <time>2026-08-29T19:30:04Z</time>
  <course>263.82</course>
  <speed>2.1545533179756773</speed>
  <fix>3d</fix>
</trkpt>
<trkpt lat="40.0713705" lon="-105.2298048">
  <ele>1583.0</ele>
  <time>2026-08-29T19:30:04Z</time>
  <course>262.66</course>
  <speed>2.17</speed>
  <fix>3d</fix>
</trkpt>
<trkpt lat="40.0713699" lon="-105.2298136">
  <ele>1583.02</ele>
  <time>2026-08-29T19:30:04Z</time>
  <course>263.85</course>
  <speed>2.1545533179756773</speed>
  <fix>3d</fix>
</trkpt>
<trkpt lat="40.07137" lon="-105.2298099">
  <ele>1583.0</ele>
  <time>2026-08-29T19:30:04Z</time>
  <course>262.7</course>
  <speed>2.17</speed>
  <fix>3d</fix>
</trkpt>
<trkpt lat="40.0713696" lon="-105.2298162">
  <ele>1583.03</ele>
  <time>2026-08-29T19:30:04Z</time>
  <course>263.9</course>
  <speed>2.1644860821913365</speed>
  <fix>3d</fix>
</trkpt>
<trkpt lat="40.07137" lon="-105.2298099">
  <ele>1583.0</ele>
  <time>2026-08-29T19:30:04Z</time>
  <course>262.7</course>
  <speed>2.17</speed>
  <fix>3d</fix>
</trkpt>
<trkpt lat="40.0713694" lon="-105.2298187">
  <ele>1583.03</ele>
  <time>2026-08-29T19:30:04Z</time>
  <course>263.98</course>
  <speed>2.163353877663107</speed>
  <fix>3d</fix>
</trkpt>
<trkpt lat="40.0713695" lon="-105.229815">
  <ele>1583.0</ele>
  <time>2026-08-29T19:30:04Z</time>
  <course>262.79</course>
  <speed>2.17</speed>
  <fix>3d</fix>
</trkpt>
<trkpt lat="40.0713691" lon="-105.2298212">
  <ele>1583.03</ele>
  <time>2026-08-29T19:30:04Z</time>
  <course>264.12</course>
  <speed>2.163353877663107</speed>
  <fix>3d</fix>
</trkpt>
<trkpt lat="40.0713695" lon="-105.229815">
  <ele>1583.0</ele>
  <time>2026-08-29T19:30:04Z</time>
  <course>262.79</course>
  <speed>2.17</speed>
  <fix>3d</fix>
</trkpt>
<trkpt lat="40.0713689" lon="-105.2298238">
  <ele>1583.03</ele>
  <time>2026-08-29T19:30:04Z</time>
  <course>264.3</course>
  <speed>2.1622673285234644</speed>
  <fix>3d</fix>
</trkpt>
<trkpt lat="40.0713691" lon="-105.22982">
  <ele>1583.0</ele>
  <time>2026-08-29T19:30:04Z</time>
  <course>263.0</course>
  <speed>2.18</speed>
  <fix>3d</fix>
</trkpt>
<trkpt lat="40.0713687" lon="-105.2298263">
  <ele>1583.03</ele>
  <time>2026-08-29T19:30:04Z</time>
  <course>264.55</course>
  <speed>2.161226503631676</speed>
  <fix>3d</fix>
</trkpt>
<trkpt lat="40.0713691" lon="-105.22982">
  <ele>1583.0</ele>
  <time>2026-08-29T19:30:04Z</time>
  <course>263.0</course>
  <speed>2.18</speed>
  <fix>3d</fix>
</trkpt>
<trkpt lat="40.0713685" lon="-105.2298288">
  <ele>1583.04</ele>
  <time>2026-08-29T19:30:04Z</time>
  <course>264.84</course>
  <speed>2.1602314690791817</speed>
  <fix>3d</fix>
</trkpt>
<trkpt lat="40.0713686" lon="-105.2298251">
  <ele>1583.0</ele>
  <time>2026-08-29T19:30:04Z</time>
  <course>263.41</course>
  <speed>2.18</speed>
  <fix>3d</fix>
</trkpt>
<trkpt lat="40.0713683" lon="-105.2298313">
  <ele>1583.04</ele>
  <time>2026-08-29T19:30:04Z</time>
  <course>265.12</course>
  <speed>2.1592822881689187</speed>
  <fix>3d</fix>
</trkpt>
<trkpt lat="40.0713686" lon="-105.2298251">
  <ele>1583.0</ele>
  <time>2026-08-29T19:30:04Z</time>
  <course>263.41</course>
  <speed>2.18</speed>
  <fix>3d</fix>
</trkpt>
<trkpt lat="40.0713681" lon="-105.2298334">
  <ele>1583.05</ele>
  <time>2026-08-29T19:30:04Z</time>
  <course>265.33</course>
  <speed>2.158379021395455</speed>
  <fix>3d</fix>
</trkpt>
<trkpt lat="40.0713681" lon="-105.2298302">
  <ele>1583.0</ele>
  <time>2026-08-29T19:30:04Z</time>
  <course>263.95</course>
  <speed>2.18</speed>
  <fix>3d</fix>
</trkpt>
<trkpt lat="40.0713679" lon="-105.2298359">
  <ele>1583.05</ele>
  <time>2026-08-29T19:30:04Z</time>
  <course>265.57</course>
  <speed>2.1575217264259474</speed>
  <fix>3d</fix>
</trkpt>
<trkpt lat="40.0713681" lon="-105.2298302">
  <ele>1583.0</ele>
  <time>2026-08-29T19:30:04Z</time>
  <course>263.95</course>
  <speed>2.18</speed>
  <fix>3d</fix>
</trkpt>
<trkpt lat="40.0713677" lon="-105.2298384">
  <ele>1583.06</ele>
  <time>2026-08-29T19:30:04Z</time>
  <course>265.6</course>
  <speed>2.1077001684300356</speed>
  <fix>3d</fix>
</trkpt>
<trkpt lat="40.0713678" lon="-105.2298353">
  <ele>1583.0</ele>
  <time>2026-08-29T19:30:04Z</time>
  <course>264.35</course>
  <speed>2.15</speed>
  <fix>3d</fix>
</trkpt>
<trkpt lat="40.0713675" lon="-105.2298409">
  <ele>1583.06</ele>
  <time>2026-08-29T19:30:04Z</time>
  <course>265.6</course>
  <speed>2.117663807123312</speed>
  <fix>3d</fix>
</trkpt>
<trkpt lat="40.0713678" lon="-105.2298353">
  <ele>1583.0</ele>
  <time>2026-08-29T19:30:04Z</time>
  <course>264.35</course>
  <speed>2.15</speed>
  <fix>3d</fix>
</trkpt>
<trkpt lat="40.0713674" lon="-105.2298434">
  <ele>1583.06</ele>
  <time>2026-08-29T19:30:04Z</time>
  <course>265.6</course>
  <speed>2.117663807123312</speed>
  <fix>3d</fix>
</trkpt>
<trkpt lat="40.0713674" lon="-105.2298404">
  <ele>1583.0</ele>
  <time>2026-08-29T19:30:04Z</time>
  <course>264.48</course>
  <speed>2.14</speed>
  <fix>3d</fix>
</trkpt>
<trkpt lat="40.0713672" lon="-105.2298459">
  <ele>1583.06</ele>
  <time>2026-08-29T19:30:04Z</time>
  <course>265.6</course>
  <speed>2.1276277869965883</speed>
  <fix>3d</fix>
</trkpt>
<trkpt lat="40.0713674" lon="-105.2298404">
  <ele>1583.0</ele>
  <time>2026-08-29T19:30:04Z</time>
  <course>264.48</course>
  <speed>2.14</speed>
  <fix>3d</fix>
</trkpt>
<trkpt lat="40.071367" lon="-105.2298484">
  <ele>1583.06</ele>
  <time>2026-08-29T19:30:04Z</time>
  <course>265.6</course>
  <speed>2.1375921032788274</speed>
  <fix>3d</fix>
</trkpt>
<trkpt lat="40.0713671" lon="-105.2298453">
  <ele>1583.0</ele>
  <time>2026-08-29T19:30:04Z</time>
  <course>264.48</course>
  <speed>2.15</speed>
  <fix>3d</fix>
</trkpt>
<trkpt lat="40.0713668" lon="-105.229851">
  <ele>1583.06</ele>
  <time>2026-08-29T19:30:04Z</time>
  <course>265.59</course>
  <speed>2.1375921032788274</speed>
  <fix>3d</fix>
</trkpt>
<trkpt lat="40.0713671" lon="-105.2298453">
  <ele>1583.0</ele>
  <time>2026-08-29T19:30:04Z</time>
  <course>264.48</course>
  <speed>2.15</speed>
  <fix>3d</fix>
</trkpt>
<trkpt lat="40.0713666" lon="-105.2298535">
  <ele>1583.06</ele>
  <time>2026-08-29T19:30:04Z</time>
  <course>265.59</course>
  <speed>2.1475567512873788</speed>
  <fix>3d</fix>
</trkpt>
<trkpt lat="40.0713667" lon="-105.2298504">
  <ele>1583.0</ele>
  <time>2026-08-29T19:30:04Z</time>
  <course>264.48</course>
  <speed>2.16</speed>
  <fix>3d</fix>
</trkpt>
<trkpt lat="40.0713664" lon="-105.2298561">
  <ele>1583.06</ele>
  <time>2026-08-29T19:30:04Z</time>
  <course>265.59</course>
  <speed>2.1475567512873788</speed>
  <fix>3d</fix>
</trkpt>
<trkpt lat="40.0713667" lon="-105.2298504">
  <ele>1583.0</ele>
  <time>2026-08-29T19:30:04Z</time>
  <course>264.48</course>
  <speed>2.16</speed>
  <fix>3d</fix>
</trkpt>
<trkpt lat="40.0713662" lon="-105.2298592">
  <ele>1583.06</ele>
  <time>2026-08-29T19:30:04Z</time>
  <course>265.59</course>
  <speed>2.1475567512873788</speed>
  <fix>3d</fix>
</trkpt>
<trkpt lat="40.0713662" lon="-105.2298554">
  <ele>1583.0</ele>
  <time>2026-08-29T19:30:04Z</time>
  <course>264.48</course>
  <speed>2.16</speed>
  <fix>3d</fix>
</trkpt>
<trkpt lat="40.071366" lon="-105.2298617">
  <ele>1583.06</ele>
  <time>2026-08-29T19:30:04Z</time>
  <course>265.59</course>
  <speed>2.1575217264259474</speed>
  <fix>3d</fix>
</trkpt>
<trkpt lat="40.0713662" lon="-105.2298554">
  <ele>1583.0</ele>
  <time>2026-08-29T19:30:04Z</time>
  <course>264.48</course>
  <speed>2.16</speed>
  <fix>3d</fix>
</trkpt>
<trkpt lat="40.0713658" lon="-105.2298643">
  <ele>1583.06</ele>
  <time>2026-08-29T19:30:04Z</time>
  <course>265.59</course>
  <speed>2.1575217264259474</speed>
  <fix>3d</fix>
</trkpt>
<trkpt lat="40.0713659" lon="-105.2298605">
  <ele>1583.0</ele>
  <time>2026-08-29T19:30:04Z</time>
  <course>264.48</course>
  <speed>2.17</speed>
  <fix>3d</fix>
</trkpt>
<trkpt lat="40.0713656" lon="-105.2298668">
  <ele>1583.05</ele>
  <time>2026-08-29T19:30:04Z</time>
  <course>265.59</course>
  <speed>2.1575217264259474</speed>
  <fix>3d</fix>
</trkpt>
<trkpt lat="40.0713659" lon="-105.2298605">
  <ele>1583.0</ele>
  <time>2026-08-29T19:30:04Z</time>
  <course>264.48</course>
  <speed>2.17</speed>
  <fix>3d</fix>
</trkpt>
<trkpt lat="40.0713655" lon="-105.2298694">
  <ele>1583.05</ele>
  <time>2026-08-29T19:30:04Z</time>
  <course>265.59</course>
  <speed>2.1575217264259474</speed>
  <fix>3d</fix>
</trkpt>
<trkpt lat="40.0713655" lon="-105.2298656">
  <ele>1583.0</ele>
  <time>2026-08-29T19:30:04Z</time>
  <course>264.48</course>
  <speed>2.18</speed>
  <fix>3d</fix>
</trkpt>
<trkpt lat="40.0713653" lon="-105.2298719">
  <ele>1583.05</ele>
  <time>2026-08-29T19:30:04Z</time>
  <course>265.59</course>
  <speed>2.167487024182613</speed>
  <fix>3d</fix>
</trkpt>
<trkpt lat="40.0713655" lon="-105.2298656">
  <ele>1583.0</ele>
  <time>2026-08-29T19:30:04Z</time>
  <course>264.48</course>
  <speed>2.18</speed>
  <fix>3d</fix>
</trkpt>
<trkpt lat="40.0713651" lon="-105.2298745">
  <ele>1583.05</ele>
  <time>2026-08-29T19:30:04Z</time>
  <course>265.59</course>
  <speed>2.167487024182613</speed>
  <fix>3d</fix>
</trkpt>
<trkpt lat="40.0713652" lon="-105.2298707">
  <ele>1583.0</ele>
  <time>2026-08-29T19:30:04Z</time>
  <course>264.48</course>
  <speed>2.18</speed>
  <fix>3d</fix>
</trkpt>
<trkpt lat="40.0713649" lon="-105.229877">
  <ele>1583.04</ele>
  <time>2026-08-29T19:30:04Z</time>
  <course>265.59</course>
  <speed>2.167487024182613</speed>
  <fix>3d</fix>
</trkpt>
<trkpt lat="40.0713652" lon="-105.2298707">
  <ele>1583.0</ele>
  <time>2026-08-29T19:30:04Z</time>
  <course>264.48</course>
  <speed>2.18</speed>
  <fix>3d</fix>
</trkpt>
<trkpt lat="40.0713647" lon="-105.2298795">
  <ele>1583.04</ele>
  <time>2026-08-29T19:30:04Z</time>
  <course>265.59</course>
  <speed>2.167487024182613</speed>
  <fix>3d</fix>
</trkpt>
<trkpt lat="40.0713648" lon="-105.2298758">
  <ele>1583.0</ele>
  <time>2026-08-29T19:30:04Z</time>
  <course>264.48</course>
  <speed>2.18</speed>
  <fix>3d</fix>
</trkpt>
<trkpt lat="40.0713645" lon="-105.229882">
  <ele>1583.04</ele>
  <time>2026-08-29T19:30:04Z</time>
  <course>265.59</course>
  <speed>2.167487024182613</speed>
  <fix>3d</fix>
</trkpt>
<trkpt lat="40.0713648" lon="-105.2298758">
  <ele>1583.0</ele>
  <time>2026-08-29T19:30:04Z</time>
  <course>264.48</course>
  <speed>2.18</speed>
  <fix>3d</fix>
</trkpt>
<trkpt lat="40.0713643" lon="-105.2298846">
  <ele>1583.04</ele>
  <time>2026-08-29T19:30:04Z</time>
  <course>265.59</course>
  <speed>2.167487024182613</speed>
  <fix>3d</fix>
</trkpt>
<trkpt lat="40.0713644" lon="-105.2298809">
  <ele>1583.0</ele>
  <time>2026-08-29T19:30:04Z</time>
  <course>264.48</course>
  <speed>2.18</speed>
  <fix>3d</fix>
</trkpt>
<trkpt lat="40.0713642" lon="-105.2298866">
  <ele>1583.04</ele>
  <time>2026-08-29T19:30:04Z</time>
  <course>265.59</course>
  <speed>2.167487024182613</speed>
  <fix>3d</fix>
</trkpt>
<trkpt lat="40.0713644" lon="-105.2298809">
  <ele>1583.0</ele>
  <time>2026-08-29T19:30:04Z</time>
  <course>264.48</course>
  <speed>2.18</speed>
  <fix>3d</fix>
</trkpt>
<trkpt lat="40.071364" lon="-105.2298891">
  <ele>1583.03</ele>
  <time>2026-08-29T19:30:04Z</time>
  <course>265.59</course>
  <speed>2.167487024182613</speed>
  <fix>3d</fix>
</trkpt>
<trkpt lat="40.071364" lon="-105.229886">
  <ele>1583.0</ele>
  <time>2026-08-29T19:30:04Z</time>
  <course>264.48</course>
  <speed>2.19</speed>
  <fix>3d</fix>
</trkpt>
<trkpt lat="40.0713638" lon="-105.2298917">
  <ele>1583.04</ele>
  <time>2026-08-29T19:30:04Z</time>
  <course>265.59</course>
  <speed>2.167487024182613</speed>
  <fix>3d</fix>
</trkpt>
<trkpt lat="40.071364" lon="-105.229886">
  <ele>1583.0</ele>
  <time>2026-08-29T19:30:04Z</time>
  <course>264.48</course>
  <speed>2.19</speed>
  <fix>3d</fix>
</trkpt>
<trkpt lat="40.0713636" lon="-105.2298942">
  <ele>1583.04</ele>
  <time>2026-08-29T19:30:04Z</time>
  <course>265.59</course>
  <speed>2.167487024182613</speed>
  <fix>3d</fix>
</trkpt>
<trkpt lat="40.0713637" lon="-105.2298912">
  <ele>1583.0</ele>
  <time>2026-08-29T19:30:04Z</time>
  <course>264.48</course>
  <speed>2.19</speed>
  <fix>3d</fix>
</trkpt>
<trkpt lat="40.0713634" lon="-105.2298968">
  <ele>1583.04</ele>
  <time>2026-08-29T19:30:04Z</time>
  <course>265.59</course>
  <speed>2.167487024182613</speed>
  <fix>3d</fix>
</trkpt>
<trkpt lat="40.0713637" lon="-105.2298912">
  <ele>1583.0</ele>
  <time>2026-08-29T19:30:04Z</time>
  <course>264.48</course>
  <speed>2.19</speed>
  <fix>3d</fix>
</trkpt>
<trkpt lat="40.0713632" lon="-105.2298994">
  <ele>1583.04</ele>
  <time>2026-08-29T19:30:04Z</time>
  <course>265.59</course>
  <speed>2.167487024182613</speed>
  <fix>3d</fix>
</trkpt>
<trkpt lat="40.0713633" lon="-105.2298963">
  <ele>1583.0</ele>
  <time>2026-08-29T19:30:04Z</time>
  <course>264.48</course>
  <speed>2.19</speed>
  <fix>3d</fix>
</trkpt>
<trkpt lat="40.0713631" lon="-105.229902">
  <ele>1583.04</ele>
  <time>2026-08-29T19:30:04Z</time>
  <course>265.59</course>
  <speed>2.168340379184043</speed>
  <fix>3d</fix>
</trkpt>
<trkpt lat="40.0713633" lon="-105.2298963">
  <ele>1583.0</ele>
  <time>2026-08-29T19:30:04Z</time>
  <course>264.48</course>
  <speed>2.19</speed>
  <fix>3d</fix>
</trkpt>
<trkpt lat="40.0713629" lon="-105.2299046">
  <ele>1583.04</ele>
  <time>2026-08-29T19:30:04Z</time>
  <course>265.59</course>
  <speed>2.167487024182613</speed>
  <fix>3d</fix>
</trkpt>
<trkpt lat="40.0713628" lon="-105.2299014">
  <ele>1583.0</ele>
  <time>2026-08-29T19:30:04Z</time>
  <course>264.48</course>
  <speed>2.19</speed>
  <fix>3d</fix>
</trkpt>
<trkpt lat="40.0713627" lon="-105.2299071">
  <ele>1583.03</ele>
  <time>2026-08-29T19:30:04Z</time>
  <course>265.59</course>
  <speed>2.168340379184043</speed>
  <fix>3d</fix>
</trkpt>
<trkpt lat="40.0713628" lon="-105.2299014">
  <ele>1583.0</ele>
  <time>2026-08-29T19:30:04Z</time>
  <course>264.48</course>
  <speed>2.19</speed>
  <fix>3d</fix>
</trkpt>
<trkpt lat="40.0713625" lon="-105.2299097">
  <ele>1583.03</ele>
  <time>2026-08-29T19:30:04Z</time>
  <course>265.59</course>
  <speed>2.1783020910791966</speed>
  <fix>3d</fix>
</trkpt>
<trkpt lat="40.0713625" lon="-105.2299065">
  <ele>1583.0</ele>
  <time>2026-08-29T19:30:04Z</time>
  <course>264.48</course>
  <speed>2.19</speed>
  <fix>3d</fix>
</trkpt>
<trkpt lat="40.0713617" lon="-105.2299206">
  <ele>1583.0</ele>
  <time>2026-08-29T19:30:04Z</time>
  <course>265.59</course>
  <speed>2.1783020910791966</speed>
  <fix>3d</fix>
</trkpt>
<trkpt lat="40.0713618" lon="-105.2299168">
  <ele>1583.0</ele>
  <time>2026-08-29T19:30:04Z</time>
  <course>264.48</course>
  <speed>2.19</speed>
  <fix>3d</fix>
</trkpt>
<trkpt lat="40.0713614" lon="-105.2299252">
  <ele>1582.99</ele>
  <time>2026-08-29T19:30:04Z</time>
  <course>267.74</course>
  <speed>2.1723029254687294</speed>
  <fix>3d</fix>
</trkpt>
<trkpt lat="40.0713618" lon="-105.2299168">
  <ele>1583.0</ele>
  <time>2026-08-29T19:30:04Z</time>
  <course>264.48</course>
  <speed>2.19</speed>
  <fix>3d</fix>
</trkpt>
<trkpt lat="40.0713613" lon="-105.2299257">
  <ele>1582.99</ele>
  <time>2026-08-29T19:30:04Z</time>
  <course>268.4</course>
  <speed>2.1814673960433146</speed>
  <fix>3d</fix>
</trkpt>
<trkpt lat="40.0713614" lon="-105.2299219">
  <ele>1583.0</ele>
  <time>2026-08-29T19:30:04Z</time>
  <course>265.58</course>
  <speed>2.19</speed>
  <fix>3d</fix>
</trkpt>
<trkpt lat="40.0713613" lon="-105.2299283">
  <ele>1582.99</ele>
  <time>2026-08-29T19:30:04Z</time>
  <course>272.75</course>
  <speed>2.1714741536569115</speed>
  <fix>3d</fix>
</trkpt>
<trkpt lat="40.0713614" lon="-105.2299219">
  <ele>1583.0</ele>
  <time>2026-08-29T19:30:04Z</time>
  <course>265.58</course>
  <speed>2.19</speed>
  <fix>3d</fix>
</trkpt>
<trkpt lat="40.0713615" lon="-105.2299308">
  <ele>1582.98</ele>
  <time>2026-08-29T19:30:04Z</time>
  <course>279.01</course>
  <speed>2.1736835096213984</speed>
  <fix>3d</fix>
</trkpt>
<trkpt lat="40.0713613" lon="-105.2299271">
  <ele>1583.0</ele>
  <time>2026-08-29T19:30:04Z</time>
  <course>271.64</course>
  <speed>2.19</speed>
  <fix>3d</fix>
</trkpt>
<trkpt lat="40.0713619" lon="-105.2299333">
  <ele>1582.98</ele>
  <time>2026-08-29T19:30:04Z</time>
  <course>287.17</course>
  <speed>2.1637467504308354</speed>
  <fix>3d</fix>
</trkpt>
<trkpt lat="40.0713613" lon="-105.2299271">
  <ele>1583.0</ele>
  <time>2026-08-29T19:30:04Z</time>
  <course>271.64</course>
  <speed>2.19</speed>
  <fix>3d</fix>
</trkpt>
<trkpt lat="40.0713626" lon="-105.2299357">
  <ele>1582.98</ele>
  <time>2026-08-29T19:30:04Z</time>
  <course>296.93</course>
  <speed>2.128755504984074</speed>
  <fix>3d</fix>
</trkpt>
<trkpt lat="40.0713617" lon="-105.2299322">
  <ele>1583.0</ele>
  <time>2026-08-29T19:30:04Z</time>
  <course>285.28</course>
  <speed>2.17</speed>
  <fix>3d</fix>
</trkpt>
<trkpt lat="40.0713635" lon="-105.2299378">
  <ele>1582.98</ele>
  <time>2026-08-29T19:30:04Z</time>
  <course>304.73</course>
  <speed>2.0112185361118766</speed>
  <fix>3d</fix>
</trkpt>
<trkpt lat="40.0713617" lon="-105.2299322">
  <ele>1583.0</ele>
  <time>2026-08-29T19:30:04Z</time>
  <course>285.28</course>
  <speed>2.17</speed>
  <fix>3d</fix>
</trkpt>
</trkseg>
</trk>
</gpx>
